<?xml version="1.0" encoding="UTF-8" standalone="no" ?>
<gpx xmlns="http://www.topografix.com/GPX/1/1" xmlns:xsi="http://www.w3.org/2001/XMLSchema-instance" xsi:schemaLocation="http://www.topografix.com/GPX/1/1 http://www.topografix.com/GPX/1/1/gpx.xsd" version="1.1" creator="VisuGPX - https://www.visugpx.com">
  <metadata>
    <name>Rallye des Côtes du Rhône Primeur à Chusclan</name>
    <desc><![CDATA[Rando VTT à Chusclan, beau parcours, mais temps très froid : 5°C avec un gros mistral]]></desc>
  </metadata>
  <trk>
    <name><![CDATA[23/11/2013 8:59 Chusclan]]></name>
    <desc><![CDATA[]]></desc>
    <trkseg>
      <trkpt lat="44.14495" lon="4.67762">
        <ele>109.1</ele>
        <time>2013-11-23T08:00:08.157Z</time>
      </trkpt>
      <trkpt lat="44.14493" lon="4.6775">
        <ele>108.7</ele>
        <time>2013-11-23T08:00:15.466Z</time>
      </trkpt>
      <trkpt lat="44.14491" lon="4.67746">
        <ele>108.9</ele>
        <time>2013-11-23T08:00:16.431Z</time>
      </trkpt>
      <trkpt lat="44.14489" lon="4.67742">
        <ele>109.5</ele>
        <time>2013-11-23T08:00:17.431Z</time>
      </trkpt>
      <trkpt lat="44.14483" lon="4.6773">
        <ele>112.4</ele>
        <time>2013-11-23T08:00:19.430Z</time>
      </trkpt>
      <trkpt lat="44.14489" lon="4.67739">
        <ele>107.9</ele>
        <time>2013-11-23T08:00:20.474Z</time>
      </trkpt>
      <trkpt lat="44.14496" lon="4.67752">
        <ele>106.8</ele>
        <time>2013-11-23T08:00:22.449Z</time>
      </trkpt>
      <trkpt lat="44.14502" lon="4.67758">
        <ele>104</ele>
        <time>2013-11-23T08:00:23.491Z</time>
      </trkpt>
      <trkpt lat="44.14508" lon="4.67762">
        <ele>103</ele>
        <time>2013-11-23T08:00:24.547Z</time>
      </trkpt>
      <trkpt lat="44.14514" lon="4.67763">
        <ele>102.9</ele>
        <time>2013-11-23T08:00:26.419Z</time>
      </trkpt>
      <trkpt lat="44.14517" lon="4.67761">
        <ele>102.4</ele>
        <time>2013-11-23T08:00:27.427Z</time>
      </trkpt>
      <trkpt lat="44.14523" lon="4.67756">
        <ele>101.2</ele>
        <time>2013-11-23T08:00:31.522Z</time>
      </trkpt>
      <trkpt lat="44.14532" lon="4.67758">
        <ele>98.7</ele>
        <time>2013-11-23T08:00:34.444Z</time>
      </trkpt>
      <trkpt lat="44.1454" lon="4.67759">
        <ele>95.6</ele>
        <time>2013-11-23T08:00:39.556Z</time>
      </trkpt>
      <trkpt lat="44.14546" lon="4.67762">
        <ele>93.7</ele>
        <time>2013-11-23T08:00:42.437Z</time>
      </trkpt>
      <trkpt lat="44.14549" lon="4.67765">
        <ele>93.5</ele>
        <time>2013-11-23T08:00:43.443Z</time>
      </trkpt>
      <trkpt lat="44.14554" lon="4.67775">
        <ele>93.5</ele>
        <time>2013-11-23T08:00:45.429Z</time>
      </trkpt>
      <trkpt lat="44.14557" lon="4.6778">
        <ele>95.1</ele>
        <time>2013-11-23T08:00:47.526Z</time>
      </trkpt>
      <trkpt lat="44.14558" lon="4.67787">
        <ele>94.4</ele>
        <time>2013-11-23T08:00:49.442Z</time>
      </trkpt>
      <trkpt lat="44.14558" lon="4.6779">
        <ele>94.1</ele>
        <time>2013-11-23T08:00:50.477Z</time>
      </trkpt>
      <trkpt lat="44.14565" lon="4.67798">
        <ele>95.3</ele>
        <time>2013-11-23T08:00:52.454Z</time>
      </trkpt>
      <trkpt lat="44.14567" lon="4.67803">
        <ele>95.2</ele>
        <time>2013-11-23T08:00:53.459Z</time>
      </trkpt>
      <trkpt lat="44.14571" lon="4.67813">
        <ele>95.4</ele>
        <time>2013-11-23T08:00:55.450Z</time>
      </trkpt>
      <trkpt lat="44.14573" lon="4.67818">
        <ele>95.2</ele>
        <time>2013-11-23T08:00:56.456Z</time>
      </trkpt>
      <trkpt lat="44.14578" lon="4.67828">
        <ele>94.6</ele>
        <time>2013-11-23T08:00:58.479Z</time>
      </trkpt>
      <trkpt lat="44.14582" lon="4.67837">
        <ele>93.6</ele>
        <time>2013-11-23T08:01:00.512Z</time>
      </trkpt>
      <trkpt lat="44.14586" lon="4.67845">
        <ele>94.1</ele>
        <time>2013-11-23T08:01:02.444Z</time>
      </trkpt>
      <trkpt lat="44.14589" lon="4.67849">
        <ele>94.3</ele>
        <time>2013-11-23T08:01:03.447Z</time>
      </trkpt>
      <trkpt lat="44.14595" lon="4.67853">
        <ele>94.8</ele>
        <time>2013-11-23T08:01:05.449Z</time>
      </trkpt>
      <trkpt lat="44.14603" lon="4.67859">
        <ele>95</ele>
        <time>2013-11-23T08:01:08.449Z</time>
      </trkpt>
      <trkpt lat="44.14605" lon="4.6786">
        <ele>95.1</ele>
        <time>2013-11-23T08:01:09.458Z</time>
      </trkpt>
      <trkpt lat="44.1461" lon="4.67859">
        <ele>94.6</ele>
        <time>2013-11-23T08:01:11.448Z</time>
      </trkpt>
      <trkpt lat="44.14614" lon="4.67858">
        <ele>94.6</ele>
        <time>2013-11-23T08:01:12.451Z</time>
      </trkpt>
      <trkpt lat="44.14621" lon="4.67856">
        <ele>95</ele>
        <time>2013-11-23T08:01:14.451Z</time>
      </trkpt>
      <trkpt lat="44.14628" lon="4.67853">
        <ele>95.2</ele>
        <time>2013-11-23T08:01:16.448Z</time>
      </trkpt>
      <trkpt lat="44.14633" lon="4.67851">
        <ele>95.3</ele>
        <time>2013-11-23T08:01:18.511Z</time>
      </trkpt>
      <trkpt lat="44.14637" lon="4.67848">
        <ele>95.7</ele>
        <time>2013-11-23T08:01:20.468Z</time>
      </trkpt>
      <trkpt lat="44.14645" lon="4.67847">
        <ele>96.1</ele>
        <time>2013-11-23T08:01:23.458Z</time>
      </trkpt>
      <trkpt lat="44.14654" lon="4.67851">
        <ele>95.5</ele>
        <time>2013-11-23T08:01:25.427Z</time>
      </trkpt>
      <trkpt lat="44.14659" lon="4.67854">
        <ele>94.7</ele>
        <time>2013-11-23T08:01:26.442Z</time>
      </trkpt>
      <trkpt lat="44.14669" lon="4.6786">
        <ele>94.6</ele>
        <time>2013-11-23T08:01:28.459Z</time>
      </trkpt>
      <trkpt lat="44.14678" lon="4.67864">
        <ele>94.2</ele>
        <time>2013-11-23T08:01:30.439Z</time>
      </trkpt>
      <trkpt lat="44.14686" lon="4.67869">
        <ele>94.4</ele>
        <time>2013-11-23T08:01:32.440Z</time>
      </trkpt>
      <trkpt lat="44.14689" lon="4.6787">
        <ele>94.9</ele>
        <time>2013-11-23T08:01:33.440Z</time>
      </trkpt>
      <trkpt lat="44.14692" lon="4.6787">
        <ele>95.8</ele>
        <time>2013-11-23T08:01:34.443Z</time>
      </trkpt>
      <trkpt lat="44.14699" lon="4.67872">
        <ele>96.6</ele>
        <time>2013-11-23T08:01:36.447Z</time>
      </trkpt>
      <trkpt lat="44.14703" lon="4.67874">
        <ele>95.7</ele>
        <time>2013-11-23T08:01:37.445Z</time>
      </trkpt>
      <trkpt lat="44.1471" lon="4.67876">
        <ele>96.1</ele>
        <time>2013-11-23T08:01:39.517Z</time>
      </trkpt>
      <trkpt lat="44.14717" lon="4.6788">
        <ele>94.8</ele>
        <time>2013-11-23T08:01:41.440Z</time>
      </trkpt>
      <trkpt lat="44.14721" lon="4.67881">
        <ele>94.7</ele>
        <time>2013-11-23T08:01:42.442Z</time>
      </trkpt>
      <trkpt lat="44.14728" lon="4.67884">
        <ele>94.6</ele>
        <time>2013-11-23T08:01:44.442Z</time>
      </trkpt>
      <trkpt lat="44.14737" lon="4.67886">
        <ele>94.4</ele>
        <time>2013-11-23T08:01:46.442Z</time>
      </trkpt>
      <trkpt lat="44.14745" lon="4.67889">
        <ele>94.4</ele>
        <time>2013-11-23T08:01:48.446Z</time>
      </trkpt>
      <trkpt lat="44.14749" lon="4.6789">
        <ele>94.1</ele>
        <time>2013-11-23T08:01:49.447Z</time>
      </trkpt>
      <trkpt lat="44.14756" lon="4.67893">
        <ele>93.5</ele>
        <time>2013-11-23T08:01:51.443Z</time>
      </trkpt>
      <trkpt lat="44.14763" lon="4.67897">
        <ele>92.9</ele>
        <time>2013-11-23T08:01:53.441Z</time>
      </trkpt>
      <trkpt lat="44.14766" lon="4.67898">
        <ele>93</ele>
        <time>2013-11-23T08:01:54.441Z</time>
      </trkpt>
      <trkpt lat="44.14772" lon="4.67901">
        <ele>92.7</ele>
        <time>2013-11-23T08:01:56.441Z</time>
      </trkpt>
      <trkpt lat="44.14779" lon="4.67904">
        <ele>92.3</ele>
        <time>2013-11-23T08:01:58.444Z</time>
      </trkpt>
      <trkpt lat="44.14787" lon="4.67906">
        <ele>91.8</ele>
        <time>2013-11-23T08:02:00.440Z</time>
      </trkpt>
      <trkpt lat="44.1479" lon="4.67907">
        <ele>92.1</ele>
        <time>2013-11-23T08:02:01.445Z</time>
      </trkpt>
      <trkpt lat="44.14798" lon="4.6791">
        <ele>91.7</ele>
        <time>2013-11-23T08:02:03.443Z</time>
      </trkpt>
      <trkpt lat="44.14806" lon="4.67913">
        <ele>91.2</ele>
        <time>2013-11-23T08:02:05.443Z</time>
      </trkpt>
      <trkpt lat="44.14809" lon="4.67915">
        <ele>90.7</ele>
        <time>2013-11-23T08:02:06.444Z</time>
      </trkpt>
      <trkpt lat="44.14815" lon="4.67925">
        <ele>89</ele>
        <time>2013-11-23T08:02:08.440Z</time>
      </trkpt>
      <trkpt lat="44.14816" lon="4.67932">
        <ele>88.9</ele>
        <time>2013-11-23T08:02:09.441Z</time>
      </trkpt>
      <trkpt lat="44.14815" lon="4.67939">
        <ele>88.8</ele>
        <time>2013-11-23T08:02:10.442Z</time>
      </trkpt>
      <trkpt lat="44.14812" lon="4.67947">
        <ele>88.5</ele>
        <time>2013-11-23T08:02:11.440Z</time>
      </trkpt>
      <trkpt lat="44.14806" lon="4.67962">
        <ele>88.3</ele>
        <time>2013-11-23T08:02:13.437Z</time>
      </trkpt>
      <trkpt lat="44.14803" lon="4.67969">
        <ele>88.2</ele>
        <time>2013-11-23T08:02:14.442Z</time>
      </trkpt>
      <trkpt lat="44.14799" lon="4.67984">
        <ele>87.7</ele>
        <time>2013-11-23T08:02:16.439Z</time>
      </trkpt>
      <trkpt lat="44.14798" lon="4.67991">
        <ele>87.7</ele>
        <time>2013-11-23T08:02:17.506Z</time>
      </trkpt>
      <trkpt lat="44.14796" lon="4.68005">
        <ele>87.7</ele>
        <time>2013-11-23T08:02:19.444Z</time>
      </trkpt>
      <trkpt lat="44.14793" lon="4.68019">
        <ele>87.4</ele>
        <time>2013-11-23T08:02:21.450Z</time>
      </trkpt>
      <trkpt lat="44.14793" lon="4.68027">
        <ele>87.3</ele>
        <time>2013-11-23T08:02:22.449Z</time>
      </trkpt>
      <trkpt lat="44.14791" lon="4.68042">
        <ele>87.5</ele>
        <time>2013-11-23T08:02:24.454Z</time>
      </trkpt>
      <trkpt lat="44.1479" lon="4.68056">
        <ele>87.5</ele>
        <time>2013-11-23T08:02:26.436Z</time>
      </trkpt>
      <trkpt lat="44.14789" lon="4.68063">
        <ele>87.4</ele>
        <time>2013-11-23T08:02:27.440Z</time>
      </trkpt>
      <trkpt lat="44.14788" lon="4.68069">
        <ele>87.3</ele>
        <time>2013-11-23T08:02:28.440Z</time>
      </trkpt>
      <trkpt lat="44.14786" lon="4.68083">
        <ele>87.5</ele>
        <time>2013-11-23T08:02:30.440Z</time>
      </trkpt>
      <trkpt lat="44.14786" lon="4.6809">
        <ele>87.5</ele>
        <time>2013-11-23T08:02:31.440Z</time>
      </trkpt>
      <trkpt lat="44.14784" lon="4.68103">
        <ele>87</ele>
        <time>2013-11-23T08:02:33.438Z</time>
      </trkpt>
      <trkpt lat="44.14784" lon="4.68116">
        <ele>87.1</ele>
        <time>2013-11-23T08:02:35.438Z</time>
      </trkpt>
      <trkpt lat="44.14782" lon="4.6813">
        <ele>86.9</ele>
        <time>2013-11-23T08:02:37.437Z</time>
      </trkpt>
      <trkpt lat="44.14781" lon="4.68137">
        <ele>87.1</ele>
        <time>2013-11-23T08:02:38.438Z</time>
      </trkpt>
      <trkpt lat="44.14781" lon="4.68144">
        <ele>87.1</ele>
        <time>2013-11-23T08:02:39.438Z</time>
      </trkpt>
      <trkpt lat="44.14781" lon="4.68159">
        <ele>87.6</ele>
        <time>2013-11-23T08:02:41.431Z</time>
      </trkpt>
      <trkpt lat="44.1478" lon="4.68166">
        <ele>87.3</ele>
        <time>2013-11-23T08:02:42.431Z</time>
      </trkpt>
      <trkpt lat="44.1478" lon="4.68174">
        <ele>87.3</ele>
        <time>2013-11-23T08:02:43.438Z</time>
      </trkpt>
      <trkpt lat="44.1478" lon="4.68182">
        <ele>87.4</ele>
        <time>2013-11-23T08:02:44.436Z</time>
      </trkpt>
      <trkpt lat="44.1478" lon="4.68189">
        <ele>87.6</ele>
        <time>2013-11-23T08:02:45.440Z</time>
      </trkpt>
      <trkpt lat="44.1478" lon="4.68197">
        <ele>87.8</ele>
        <time>2013-11-23T08:02:46.486Z</time>
      </trkpt>
      <trkpt lat="44.14779" lon="4.68212">
        <ele>87.9</ele>
        <time>2013-11-23T08:02:48.438Z</time>
      </trkpt>
      <trkpt lat="44.14779" lon="4.68219">
        <ele>87.8</ele>
        <time>2013-11-23T08:02:49.439Z</time>
      </trkpt>
      <trkpt lat="44.14781" lon="4.68232">
        <ele>88.1</ele>
        <time>2013-11-23T08:02:51.435Z</time>
      </trkpt>
      <trkpt lat="44.14781" lon="4.68238">
        <ele>88</ele>
        <time>2013-11-23T08:02:52.436Z</time>
      </trkpt>
      <trkpt lat="44.14782" lon="4.68244">
        <ele>88</ele>
        <time>2013-11-23T08:02:53.440Z</time>
      </trkpt>
      <trkpt lat="44.14783" lon="4.68251">
        <ele>88.2</ele>
        <time>2013-11-23T08:02:54.441Z</time>
      </trkpt>
      <trkpt lat="44.14782" lon="4.68265">
        <ele>88.6</ele>
        <time>2013-11-23T08:02:56.442Z</time>
      </trkpt>
      <trkpt lat="44.14779" lon="4.68277">
        <ele>89</ele>
        <time>2013-11-23T08:02:58.437Z</time>
      </trkpt>
      <trkpt lat="44.14776" lon="4.68286">
        <ele>88.9</ele>
        <time>2013-11-23T08:03:00.439Z</time>
      </trkpt>
      <trkpt lat="44.14772" lon="4.68293">
        <ele>89.2</ele>
        <time>2013-11-23T08:03:02.441Z</time>
      </trkpt>
      <trkpt lat="44.14771" lon="4.68298">
        <ele>89</ele>
        <time>2013-11-23T08:03:04.436Z</time>
      </trkpt>
      <trkpt lat="44.14769" lon="4.68304">
        <ele>89.2</ele>
        <time>2013-11-23T08:03:07.439Z</time>
      </trkpt>
      <trkpt lat="44.14779" lon="4.6831">
        <ele>89.4</ele>
        <time>2013-11-23T08:03:08.442Z</time>
      </trkpt>
      <trkpt lat="44.14785" lon="4.68314">
        <ele>89.1</ele>
        <time>2013-11-23T08:03:09.506Z</time>
      </trkpt>
      <trkpt lat="44.14792" lon="4.68321">
        <ele>89</ele>
        <time>2013-11-23T08:03:11.441Z</time>
      </trkpt>
      <trkpt lat="44.14798" lon="4.6833">
        <ele>89.4</ele>
        <time>2013-11-23T08:03:13.442Z</time>
      </trkpt>
      <trkpt lat="44.14802" lon="4.68336">
        <ele>89.6</ele>
        <time>2013-11-23T08:03:15.438Z</time>
      </trkpt>
      <trkpt lat="44.1481" lon="4.68342">
        <ele>91.5</ele>
        <time>2013-11-23T08:03:18.442Z</time>
      </trkpt>
      <trkpt lat="44.14817" lon="4.68347">
        <ele>92.2</ele>
        <time>2013-11-23T08:03:20.459Z</time>
      </trkpt>
      <trkpt lat="44.14823" lon="4.68349">
        <ele>93</ele>
        <time>2013-11-23T08:03:22.458Z</time>
      </trkpt>
      <trkpt lat="44.14826" lon="4.68349">
        <ele>93</ele>
        <time>2013-11-23T08:03:23.526Z</time>
      </trkpt>
      <trkpt lat="44.14833" lon="4.68354">
        <ele>92.6</ele>
        <time>2013-11-23T08:03:26.440Z</time>
      </trkpt>
      <trkpt lat="44.14838" lon="4.68357">
        <ele>93</ele>
        <time>2013-11-23T08:03:28.438Z</time>
      </trkpt>
      <trkpt lat="44.14841" lon="4.68359">
        <ele>93.1</ele>
        <time>2013-11-23T08:03:29.443Z</time>
      </trkpt>
      <trkpt lat="44.14848" lon="4.68368">
        <ele>94</ele>
        <time>2013-11-23T08:03:31.438Z</time>
      </trkpt>
      <trkpt lat="44.14852" lon="4.68373">
        <ele>93.9</ele>
        <time>2013-11-23T08:03:32.440Z</time>
      </trkpt>
      <trkpt lat="44.14859" lon="4.68383">
        <ele>93.9</ele>
        <time>2013-11-23T08:03:34.434Z</time>
      </trkpt>
      <trkpt lat="44.14862" lon="4.68388">
        <ele>94</ele>
        <time>2013-11-23T08:03:35.436Z</time>
      </trkpt>
      <trkpt lat="44.14866" lon="4.68397">
        <ele>92.6</ele>
        <time>2013-11-23T08:03:37.437Z</time>
      </trkpt>
      <trkpt lat="44.14869" lon="4.68403">
        <ele>91</ele>
        <time>2013-11-23T08:03:38.440Z</time>
      </trkpt>
      <trkpt lat="44.1488" lon="4.68411">
        <ele>90.4</ele>
        <time>2013-11-23T08:03:40.438Z</time>
      </trkpt>
      <trkpt lat="44.14889" lon="4.68414">
        <ele>90.4</ele>
        <time>2013-11-23T08:03:42.440Z</time>
      </trkpt>
      <trkpt lat="44.14897" lon="4.68413">
        <ele>87.9</ele>
        <time>2013-11-23T08:03:44.439Z</time>
      </trkpt>
      <trkpt lat="44.14901" lon="4.68414">
        <ele>87.3</ele>
        <time>2013-11-23T08:03:45.441Z</time>
      </trkpt>
      <trkpt lat="44.14908" lon="4.68414">
        <ele>87.2</ele>
        <time>2013-11-23T08:03:47.441Z</time>
      </trkpt>
      <trkpt lat="44.14915" lon="4.68415">
        <ele>87.3</ele>
        <time>2013-11-23T08:03:49.439Z</time>
      </trkpt>
      <trkpt lat="44.14923" lon="4.6842">
        <ele>96.8</ele>
        <time>2013-11-23T08:03:53.439Z</time>
      </trkpt>
      <trkpt lat="44.14926" lon="4.68421">
        <ele>97.2</ele>
        <time>2013-11-23T08:03:54.439Z</time>
      </trkpt>
      <trkpt lat="44.14931" lon="4.68423">
        <ele>97.9</ele>
        <time>2013-11-23T08:03:56.437Z</time>
      </trkpt>
      <trkpt lat="44.14935" lon="4.68424">
        <ele>98</ele>
        <time>2013-11-23T08:03:57.441Z</time>
      </trkpt>
      <trkpt lat="44.1494" lon="4.68428">
        <ele>98.2</ele>
        <time>2013-11-23T08:03:59.440Z</time>
      </trkpt>
      <trkpt lat="44.14946" lon="4.6843">
        <ele>98.4</ele>
        <time>2013-11-23T08:04:01.439Z</time>
      </trkpt>
      <trkpt lat="44.14949" lon="4.68432">
        <ele>98.2</ele>
        <time>2013-11-23T08:04:02.441Z</time>
      </trkpt>
      <trkpt lat="44.14956" lon="4.68432">
        <ele>98.1</ele>
        <time>2013-11-23T08:04:04.442Z</time>
      </trkpt>
      <trkpt lat="44.14963" lon="4.68423">
        <ele>99.1</ele>
        <time>2013-11-23T08:04:06.440Z</time>
      </trkpt>
      <trkpt lat="44.14967" lon="4.6842">
        <ele>98.4</ele>
        <time>2013-11-23T08:04:07.442Z</time>
      </trkpt>
      <trkpt lat="44.14973" lon="4.68416">
        <ele>99.9</ele>
        <time>2013-11-23T08:04:09.432Z</time>
      </trkpt>
      <trkpt lat="44.14981" lon="4.68416">
        <ele>100.2</ele>
        <time>2013-11-23T08:04:13.549Z</time>
      </trkpt>
      <trkpt lat="44.14987" lon="4.68428">
        <ele>98.7</ele>
        <time>2013-11-23T08:04:16.435Z</time>
      </trkpt>
      <trkpt lat="44.14992" lon="4.68432">
        <ele>98.7</ele>
        <time>2013-11-23T08:04:17.428Z</time>
      </trkpt>
      <trkpt lat="44.14998" lon="4.68436">
        <ele>98.1</ele>
        <time>2013-11-23T08:04:18.467Z</time>
      </trkpt>
      <trkpt lat="44.15009" lon="4.68442">
        <ele>98.3</ele>
        <time>2013-11-23T08:04:20.438Z</time>
      </trkpt>
      <trkpt lat="44.15013" lon="4.68444">
        <ele>97.5</ele>
        <time>2013-11-23T08:04:21.452Z</time>
      </trkpt>
      <trkpt lat="44.15018" lon="4.68449">
        <ele>95.7</ele>
        <time>2013-11-23T08:04:23.486Z</time>
      </trkpt>
      <trkpt lat="44.15014" lon="4.68443">
        <ele>92.9</ele>
        <time>2013-11-23T08:04:38.439Z</time>
      </trkpt>
      <trkpt lat="44.15015" lon="4.68444">
        <ele>92.9</ele>
        <time>2013-11-23T08:04:45.440Z</time>
      </trkpt>
      <trkpt lat="44.15015" lon="4.68444">
        <ele>92.6</ele>
        <time>2013-11-23T08:04:49.434Z</time>
      </trkpt>
      <trkpt lat="44.15015" lon="4.68444">
        <ele>92.6</ele>
        <time>2013-11-23T08:04:50.444Z</time>
      </trkpt>
      <trkpt lat="44.15015" lon="4.68445">
        <ele>92.4</ele>
        <time>2013-11-23T08:04:53.438Z</time>
      </trkpt>
      <trkpt lat="44.15015" lon="4.68445">
        <ele>92.7</ele>
        <time>2013-11-23T08:04:55.436Z</time>
      </trkpt>
      <trkpt lat="44.15015" lon="4.68445">
        <ele>92.6</ele>
        <time>2013-11-23T08:04:57.429Z</time>
      </trkpt>
      <trkpt lat="44.15016" lon="4.68447">
        <ele>91.9</ele>
        <time>2013-11-23T08:04:58.433Z</time>
      </trkpt>
      <trkpt lat="44.15019" lon="4.68452">
        <ele>90.6</ele>
        <time>2013-11-23T08:05:02.558Z</time>
      </trkpt>
      <trkpt lat="44.1502" lon="4.68452">
        <ele>90.1</ele>
        <time>2013-11-23T08:05:05.433Z</time>
      </trkpt>
      <trkpt lat="44.15019" lon="4.68452">
        <ele>90.6</ele>
        <time>2013-11-23T08:05:16.434Z</time>
      </trkpt>
      <trkpt lat="44.15019" lon="4.68452">
        <ele>90.6</ele>
        <time>2013-11-23T08:05:16.495Z</time>
      </trkpt>
      <trkpt lat="44.15019" lon="4.68454">
        <ele>89.4</ele>
        <time>2013-11-23T08:05:23.504Z</time>
      </trkpt>
      <trkpt lat="44.15019" lon="4.68454">
        <ele>89.8</ele>
        <time>2013-11-23T08:05:27.434Z</time>
      </trkpt>
      <trkpt lat="44.1502" lon="4.68454">
        <ele>89.8</ele>
        <time>2013-11-23T08:05:32.519Z</time>
      </trkpt>
      <trkpt lat="44.1502" lon="4.68453">
        <ele>89.2</ele>
        <time>2013-11-23T08:05:35.438Z</time>
      </trkpt>
      <trkpt lat="44.1502" lon="4.68453">
        <ele>89.3</ele>
        <time>2013-11-23T08:05:36.439Z</time>
      </trkpt>
      <trkpt lat="44.1502" lon="4.68452">
        <ele>89.4</ele>
        <time>2013-11-23T08:05:38.439Z</time>
      </trkpt>
      <trkpt lat="44.15021" lon="4.68453">
        <ele>90</ele>
        <time>2013-11-23T08:06:05.436Z</time>
      </trkpt>
      <trkpt lat="44.1504" lon="4.68473">
        <ele>91.9</ele>
        <time>2013-11-23T08:06:18.450Z</time>
      </trkpt>
      <trkpt lat="44.15043" lon="4.68477">
        <ele>93.1</ele>
        <time>2013-11-23T08:06:19.451Z</time>
      </trkpt>
      <trkpt lat="44.15047" lon="4.68482">
        <ele>94.2</ele>
        <time>2013-11-23T08:06:20.450Z</time>
      </trkpt>
      <trkpt lat="44.15056" lon="4.68491">
        <ele>95.3</ele>
        <time>2013-11-23T08:06:22.436Z</time>
      </trkpt>
      <trkpt lat="44.15062" lon="4.68497">
        <ele>95.2</ele>
        <time>2013-11-23T08:06:24.436Z</time>
      </trkpt>
      <trkpt lat="44.15065" lon="4.685">
        <ele>95.2</ele>
        <time>2013-11-23T08:06:25.437Z</time>
      </trkpt>
      <trkpt lat="44.15071" lon="4.68505">
        <ele>96.6</ele>
        <time>2013-11-23T08:06:27.436Z</time>
      </trkpt>
      <trkpt lat="44.15073" lon="4.68509">
        <ele>97</ele>
        <time>2013-11-23T08:06:28.437Z</time>
      </trkpt>
      <trkpt lat="44.15078" lon="4.68515">
        <ele>97.4</ele>
        <time>2013-11-23T08:06:30.439Z</time>
      </trkpt>
      <trkpt lat="44.15084" lon="4.6852">
        <ele>96.8</ele>
        <time>2013-11-23T08:06:32.436Z</time>
      </trkpt>
      <trkpt lat="44.15087" lon="4.68522">
        <ele>97.2</ele>
        <time>2013-11-23T08:06:33.436Z</time>
      </trkpt>
      <trkpt lat="44.15095" lon="4.68527">
        <ele>97.4</ele>
        <time>2013-11-23T08:06:35.437Z</time>
      </trkpt>
      <trkpt lat="44.15099" lon="4.68529">
        <ele>97.3</ele>
        <time>2013-11-23T08:06:36.436Z</time>
      </trkpt>
      <trkpt lat="44.15105" lon="4.68534">
        <ele>96.7</ele>
        <time>2013-11-23T08:06:38.438Z</time>
      </trkpt>
      <trkpt lat="44.1511" lon="4.68539">
        <ele>96.3</ele>
        <time>2013-11-23T08:06:40.437Z</time>
      </trkpt>
      <trkpt lat="44.15117" lon="4.68544">
        <ele>96.3</ele>
        <time>2013-11-23T08:06:42.433Z</time>
      </trkpt>
      <trkpt lat="44.15124" lon="4.6855">
        <ele>96.7</ele>
        <time>2013-11-23T08:06:44.439Z</time>
      </trkpt>
      <trkpt lat="44.1513" lon="4.68554">
        <ele>97</ele>
        <time>2013-11-23T08:06:46.437Z</time>
      </trkpt>
      <trkpt lat="44.15137" lon="4.68558">
        <ele>96.9</ele>
        <time>2013-11-23T08:06:48.437Z</time>
      </trkpt>
      <trkpt lat="44.15144" lon="4.68563">
        <ele>97.1</ele>
        <time>2013-11-23T08:06:50.436Z</time>
      </trkpt>
      <trkpt lat="44.1515" lon="4.68566">
        <ele>97.5</ele>
        <time>2013-11-23T08:06:52.436Z</time>
      </trkpt>
      <trkpt lat="44.15156" lon="4.6857">
        <ele>97.8</ele>
        <time>2013-11-23T08:06:54.437Z</time>
      </trkpt>
      <trkpt lat="44.15163" lon="4.68573">
        <ele>97.8</ele>
        <time>2013-11-23T08:06:56.438Z</time>
      </trkpt>
      <trkpt lat="44.15166" lon="4.68575">
        <ele>97.8</ele>
        <time>2013-11-23T08:06:57.438Z</time>
      </trkpt>
      <trkpt lat="44.15173" lon="4.68579">
        <ele>98.5</ele>
        <time>2013-11-23T08:06:59.440Z</time>
      </trkpt>
      <trkpt lat="44.15181" lon="4.68582">
        <ele>98.5</ele>
        <time>2013-11-23T08:07:01.438Z</time>
      </trkpt>
      <trkpt lat="44.15185" lon="4.68584">
        <ele>98.8</ele>
        <time>2013-11-23T08:07:02.506Z</time>
      </trkpt>
      <trkpt lat="44.15191" lon="4.68587">
        <ele>99</ele>
        <time>2013-11-23T08:07:04.436Z</time>
      </trkpt>
      <trkpt lat="44.15198" lon="4.68589">
        <ele>99.2</ele>
        <time>2013-11-23T08:07:06.437Z</time>
      </trkpt>
      <trkpt lat="44.15202" lon="4.68591">
        <ele>99.5</ele>
        <time>2013-11-23T08:07:07.438Z</time>
      </trkpt>
      <trkpt lat="44.15208" lon="4.68593">
        <ele>99.3</ele>
        <time>2013-11-23T08:07:09.437Z</time>
      </trkpt>
      <trkpt lat="44.15215" lon="4.68595">
        <ele>99.4</ele>
        <time>2013-11-23T08:07:11.436Z</time>
      </trkpt>
      <trkpt lat="44.15219" lon="4.68596">
        <ele>99.5</ele>
        <time>2013-11-23T08:07:12.437Z</time>
      </trkpt>
      <trkpt lat="44.15225" lon="4.68597">
        <ele>99.4</ele>
        <time>2013-11-23T08:07:14.438Z</time>
      </trkpt>
      <trkpt lat="44.15232" lon="4.68598">
        <ele>99.8</ele>
        <time>2013-11-23T08:07:16.438Z</time>
      </trkpt>
      <trkpt lat="44.15235" lon="4.68599">
        <ele>99.8</ele>
        <time>2013-11-23T08:07:17.436Z</time>
      </trkpt>
      <trkpt lat="44.15241" lon="4.686">
        <ele>100.7</ele>
        <time>2013-11-23T08:07:19.455Z</time>
      </trkpt>
      <trkpt lat="44.15247" lon="4.68602">
        <ele>100.9</ele>
        <time>2013-11-23T08:07:21.496Z</time>
      </trkpt>
      <trkpt lat="44.1525" lon="4.68603">
        <ele>100.9</ele>
        <time>2013-11-23T08:07:22.439Z</time>
      </trkpt>
      <trkpt lat="44.15258" lon="4.68606">
        <ele>101.3</ele>
        <time>2013-11-23T08:07:24.439Z</time>
      </trkpt>
      <trkpt lat="44.15265" lon="4.68608">
        <ele>100.9</ele>
        <time>2013-11-23T08:07:26.437Z</time>
      </trkpt>
      <trkpt lat="44.15269" lon="4.68609">
        <ele>100.9</ele>
        <time>2013-11-23T08:07:27.437Z</time>
      </trkpt>
      <trkpt lat="44.15272" lon="4.6861">
        <ele>101</ele>
        <time>2013-11-23T08:07:28.438Z</time>
      </trkpt>
      <trkpt lat="44.15279" lon="4.68613">
        <ele>101</ele>
        <time>2013-11-23T08:07:30.437Z</time>
      </trkpt>
      <trkpt lat="44.15285" lon="4.68616">
        <ele>100.8</ele>
        <time>2013-11-23T08:07:32.436Z</time>
      </trkpt>
      <trkpt lat="44.15289" lon="4.68617">
        <ele>100.7</ele>
        <time>2013-11-23T08:07:33.440Z</time>
      </trkpt>
      <trkpt lat="44.15295" lon="4.6862">
        <ele>101.1</ele>
        <time>2013-11-23T08:07:35.436Z</time>
      </trkpt>
      <trkpt lat="44.15298" lon="4.68622">
        <ele>101.1</ele>
        <time>2013-11-23T08:07:36.437Z</time>
      </trkpt>
      <trkpt lat="44.15304" lon="4.68625">
        <ele>101.1</ele>
        <time>2013-11-23T08:07:38.437Z</time>
      </trkpt>
      <trkpt lat="44.15307" lon="4.68626">
        <ele>101.3</ele>
        <time>2013-11-23T08:07:39.436Z</time>
      </trkpt>
      <trkpt lat="44.15315" lon="4.68631">
        <ele>101.1</ele>
        <time>2013-11-23T08:07:42.440Z</time>
      </trkpt>
      <trkpt lat="44.15321" lon="4.68635">
        <ele>101.1</ele>
        <time>2013-11-23T08:07:44.438Z</time>
      </trkpt>
      <trkpt lat="44.15327" lon="4.68638">
        <ele>101.6</ele>
        <time>2013-11-23T08:07:46.438Z</time>
      </trkpt>
      <trkpt lat="44.15329" lon="4.68639">
        <ele>102.1</ele>
        <time>2013-11-23T08:07:47.442Z</time>
      </trkpt>
      <trkpt lat="44.15337" lon="4.68643">
        <ele>103.1</ele>
        <time>2013-11-23T08:07:50.442Z</time>
      </trkpt>
      <trkpt lat="44.15342" lon="4.68646">
        <ele>103.5</ele>
        <time>2013-11-23T08:07:52.436Z</time>
      </trkpt>
      <trkpt lat="44.15349" lon="4.6865">
        <ele>104.1</ele>
        <time>2013-11-23T08:07:55.437Z</time>
      </trkpt>
      <trkpt lat="44.15352" lon="4.68651">
        <ele>104.2</ele>
        <time>2013-11-23T08:07:56.435Z</time>
      </trkpt>
      <trkpt lat="44.15359" lon="4.68655">
        <ele>104.9</ele>
        <time>2013-11-23T08:07:59.436Z</time>
      </trkpt>
      <trkpt lat="44.15361" lon="4.68656">
        <ele>104.9</ele>
        <time>2013-11-23T08:08:00.436Z</time>
      </trkpt>
      <trkpt lat="44.15368" lon="4.68658">
        <ele>106.7</ele>
        <time>2013-11-23T08:08:03.436Z</time>
      </trkpt>
      <trkpt lat="44.1537" lon="4.68659">
        <ele>107</ele>
        <time>2013-11-23T08:08:04.437Z</time>
      </trkpt>
      <trkpt lat="44.15377" lon="4.68661">
        <ele>107.2</ele>
        <time>2013-11-23T08:08:07.437Z</time>
      </trkpt>
      <trkpt lat="44.1538" lon="4.68662">
        <ele>107.4</ele>
        <time>2013-11-23T08:08:08.437Z</time>
      </trkpt>
      <trkpt lat="44.15387" lon="4.68663">
        <ele>108.4</ele>
        <time>2013-11-23T08:08:11.437Z</time>
      </trkpt>
      <trkpt lat="44.15389" lon="4.68663">
        <ele>109.2</ele>
        <time>2013-11-23T08:08:12.437Z</time>
      </trkpt>
      <trkpt lat="44.15397" lon="4.68664">
        <ele>111</ele>
        <time>2013-11-23T08:08:16.427Z</time>
      </trkpt>
      <trkpt lat="44.15399" lon="4.68665">
        <ele>110.3</ele>
        <time>2013-11-23T08:08:17.436Z</time>
      </trkpt>
      <trkpt lat="44.15407" lon="4.68667">
        <ele>110.4</ele>
        <time>2013-11-23T08:08:20.453Z</time>
      </trkpt>
      <trkpt lat="44.15411" lon="4.68667">
        <ele>111.8</ele>
        <time>2013-11-23T08:08:22.476Z</time>
      </trkpt>
      <trkpt lat="44.15418" lon="4.68667">
        <ele>112.7</ele>
        <time>2013-11-23T08:08:25.435Z</time>
      </trkpt>
      <trkpt lat="44.15422" lon="4.68668">
        <ele>113.2</ele>
        <time>2013-11-23T08:08:27.428Z</time>
      </trkpt>
      <trkpt lat="44.15429" lon="4.68669">
        <ele>114</ele>
        <time>2013-11-23T08:08:31.444Z</time>
      </trkpt>
      <trkpt lat="44.15431" lon="4.68669">
        <ele>114.4</ele>
        <time>2013-11-23T08:08:32.439Z</time>
      </trkpt>
      <trkpt lat="44.15438" lon="4.6867">
        <ele>114.1</ele>
        <time>2013-11-23T08:08:35.434Z</time>
      </trkpt>
      <trkpt lat="44.15441" lon="4.6867">
        <ele>114</ele>
        <time>2013-11-23T08:08:36.436Z</time>
      </trkpt>
      <trkpt lat="44.15449" lon="4.6867">
        <ele>115.4</ele>
        <time>2013-11-23T08:08:41.529Z</time>
      </trkpt>
      <trkpt lat="44.15451" lon="4.68669">
        <ele>115.8</ele>
        <time>2013-11-23T08:08:43.531Z</time>
      </trkpt>
      <trkpt lat="44.15457" lon="4.68667">
        <ele>116</ele>
        <time>2013-11-23T08:08:48.434Z</time>
      </trkpt>
      <trkpt lat="44.1546" lon="4.68668">
        <ele>115.8</ele>
        <time>2013-11-23T08:08:49.435Z</time>
      </trkpt>
      <trkpt lat="44.15466" lon="4.68667">
        <ele>115.7</ele>
        <time>2013-11-23T08:08:52.435Z</time>
      </trkpt>
      <trkpt lat="44.1547" lon="4.68667">
        <ele>115.9</ele>
        <time>2013-11-23T08:08:54.434Z</time>
      </trkpt>
      <trkpt lat="44.15474" lon="4.6867">
        <ele>117.2</ele>
        <time>2013-11-23T08:08:56.437Z</time>
      </trkpt>
      <trkpt lat="44.15478" lon="4.6867">
        <ele>115.4</ele>
        <time>2013-11-23T08:08:58.438Z</time>
      </trkpt>
      <trkpt lat="44.15486" lon="4.68668">
        <ele>118.2</ele>
        <time>2013-11-23T08:09:04.554Z</time>
      </trkpt>
      <trkpt lat="44.15487" lon="4.68667">
        <ele>118.5</ele>
        <time>2013-11-23T08:09:05.439Z</time>
      </trkpt>
      <trkpt lat="44.15495" lon="4.68673">
        <ele>120.1</ele>
        <time>2013-11-23T08:09:13.516Z</time>
      </trkpt>
      <trkpt lat="44.15495" lon="4.68674">
        <ele>120.1</ele>
        <time>2013-11-23T08:09:13.643Z</time>
      </trkpt>
      <trkpt lat="44.15499" lon="4.68694">
        <ele>120.7</ele>
        <time>2013-11-23T08:09:18.439Z</time>
      </trkpt>
      <trkpt lat="44.15503" lon="4.68701">
        <ele>121</ele>
        <time>2013-11-23T08:09:20.456Z</time>
      </trkpt>
      <trkpt lat="44.15504" lon="4.68704">
        <ele>120.9</ele>
        <time>2013-11-23T08:09:21.457Z</time>
      </trkpt>
      <trkpt lat="44.15506" lon="4.68714">
        <ele>122</ele>
        <time>2013-11-23T08:09:25.436Z</time>
      </trkpt>
      <trkpt lat="44.15503" lon="4.68718">
        <ele>125.7</ele>
        <time>2013-11-23T08:09:27.436Z</time>
      </trkpt>
      <trkpt lat="44.15496" lon="4.68726">
        <ele>128.2</ele>
        <time>2013-11-23T08:09:31.598Z</time>
      </trkpt>
      <trkpt lat="44.15494" lon="4.68743">
        <ele>128</ele>
        <time>2013-11-23T08:09:34.436Z</time>
      </trkpt>
      <trkpt lat="44.15492" lon="4.68752">
        <ele>128.6</ele>
        <time>2013-11-23T08:09:35.495Z</time>
      </trkpt>
      <trkpt lat="44.15489" lon="4.68764">
        <ele>128.3</ele>
        <time>2013-11-23T08:09:37.437Z</time>
      </trkpt>
      <trkpt lat="44.15489" lon="4.68776">
        <ele>128</ele>
        <time>2013-11-23T08:09:41.440Z</time>
      </trkpt>
      <trkpt lat="44.15489" lon="4.6878">
        <ele>128.1</ele>
        <time>2013-11-23T08:09:42.409Z</time>
      </trkpt>
      <trkpt lat="44.15485" lon="4.68788">
        <ele>128.2</ele>
        <time>2013-11-23T08:09:45.434Z</time>
      </trkpt>
      <trkpt lat="44.15484" lon="4.68792">
        <ele>127.9</ele>
        <time>2013-11-23T08:09:46.437Z</time>
      </trkpt>
      <trkpt lat="44.15486" lon="4.688">
        <ele>128.4</ele>
        <time>2013-11-23T08:09:49.452Z</time>
      </trkpt>
      <trkpt lat="44.15486" lon="4.68805">
        <ele>126.9</ele>
        <time>2013-11-23T08:09:51.436Z</time>
      </trkpt>
      <trkpt lat="44.15484" lon="4.68813">
        <ele>126.1</ele>
        <time>2013-11-23T08:09:53.437Z</time>
      </trkpt>
      <trkpt lat="44.1548" lon="4.68818">
        <ele>126.4</ele>
        <time>2013-11-23T08:09:55.437Z</time>
      </trkpt>
      <trkpt lat="44.15482" lon="4.68826">
        <ele>128.8</ele>
        <time>2013-11-23T08:09:59.564Z</time>
      </trkpt>
      <trkpt lat="44.15483" lon="4.68832">
        <ele>130.1</ele>
        <time>2013-11-23T08:10:02.437Z</time>
      </trkpt>
      <trkpt lat="44.15481" lon="4.68842">
        <ele>131.1</ele>
        <time>2013-11-23T08:10:05.436Z</time>
      </trkpt>
      <trkpt lat="44.1548" lon="4.68844">
        <ele>131.9</ele>
        <time>2013-11-23T08:10:06.437Z</time>
      </trkpt>
      <trkpt lat="44.15478" lon="4.68847">
        <ele>132.7</ele>
        <time>2013-11-23T08:10:07.439Z</time>
      </trkpt>
      <trkpt lat="44.1548" lon="4.68857">
        <ele>131.7</ele>
        <time>2013-11-23T08:10:09.439Z</time>
      </trkpt>
      <trkpt lat="44.15479" lon="4.68868">
        <ele>131.2</ele>
        <time>2013-11-23T08:10:13.440Z</time>
      </trkpt>
      <trkpt lat="44.15477" lon="4.68869">
        <ele>130.8</ele>
        <time>2013-11-23T08:10:14.439Z</time>
      </trkpt>
      <trkpt lat="44.15478" lon="4.6888">
        <ele>129.3</ele>
        <time>2013-11-23T08:10:17.438Z</time>
      </trkpt>
      <trkpt lat="44.15479" lon="4.68885">
        <ele>129.2</ele>
        <time>2013-11-23T08:10:19.436Z</time>
      </trkpt>
      <trkpt lat="44.15479" lon="4.68895">
        <ele>126.3</ele>
        <time>2013-11-23T08:10:24.570Z</time>
      </trkpt>
      <trkpt lat="44.15486" lon="4.68904">
        <ele>129</ele>
        <time>2013-11-23T08:10:27.437Z</time>
      </trkpt>
      <trkpt lat="44.1549" lon="4.68914">
        <ele>129</ele>
        <time>2013-11-23T08:10:30.431Z</time>
      </trkpt>
      <trkpt lat="44.15492" lon="4.68916">
        <ele>128.8</ele>
        <time>2013-11-23T08:10:31.436Z</time>
      </trkpt>
      <trkpt lat="44.15491" lon="4.68927">
        <ele>129.7</ele>
        <time>2013-11-23T08:10:42.550Z</time>
      </trkpt>
      <trkpt lat="44.15493" lon="4.68938">
        <ele>136.9</ele>
        <time>2013-11-23T08:10:48.408Z</time>
      </trkpt>
      <trkpt lat="44.15492" lon="4.68947">
        <ele>138.6</ele>
        <time>2013-11-23T08:10:56.557Z</time>
      </trkpt>
      <trkpt lat="44.15494" lon="4.68953">
        <ele>139.7</ele>
        <time>2013-11-23T08:11:01.432Z</time>
      </trkpt>
      <trkpt lat="44.15497" lon="4.68961">
        <ele>137.6</ele>
        <time>2013-11-23T08:11:05.559Z</time>
      </trkpt>
      <trkpt lat="44.15499" lon="4.68965">
        <ele>138</ele>
        <time>2013-11-23T08:11:08.434Z</time>
      </trkpt>
      <trkpt lat="44.15499" lon="4.68967">
        <ele>133.2</ele>
        <time>2013-11-23T08:11:13.435Z</time>
      </trkpt>
      <trkpt lat="44.15499" lon="4.68967">
        <ele>132.9</ele>
        <time>2013-11-23T08:11:14.439Z</time>
      </trkpt>
      <trkpt lat="44.15499" lon="4.68967">
        <ele>133.5</ele>
        <time>2013-11-23T08:11:20.555Z</time>
      </trkpt>
      <trkpt lat="44.15498" lon="4.68974">
        <ele>134.9</ele>
        <time>2013-11-23T08:11:24.436Z</time>
      </trkpt>
      <trkpt lat="44.155" lon="4.68982">
        <ele>134.5</ele>
        <time>2013-11-23T08:11:26.454Z</time>
      </trkpt>
      <trkpt lat="44.15502" lon="4.68988">
        <ele>137.2</ele>
        <time>2013-11-23T08:11:28.436Z</time>
      </trkpt>
      <trkpt lat="44.15505" lon="4.68997">
        <ele>137.8</ele>
        <time>2013-11-23T08:11:32.554Z</time>
      </trkpt>
      <trkpt lat="44.15508" lon="4.69006">
        <ele>139.5</ele>
        <time>2013-11-23T08:11:35.437Z</time>
      </trkpt>
      <trkpt lat="44.15502" lon="4.69011">
        <ele>150.5</ele>
        <time>2013-11-23T08:11:45.553Z</time>
      </trkpt>
      <trkpt lat="44.1551" lon="4.69034">
        <ele>149.9</ele>
        <time>2013-11-23T08:11:51.429Z</time>
      </trkpt>
      <trkpt lat="44.15513" lon="4.69044">
        <ele>150.1</ele>
        <time>2013-11-23T08:11:54.442Z</time>
      </trkpt>
      <trkpt lat="44.15515" lon="4.69051">
        <ele>149.9</ele>
        <time>2013-11-23T08:11:56.438Z</time>
      </trkpt>
      <trkpt lat="44.15517" lon="4.6906">
        <ele>148.8</ele>
        <time>2013-11-23T08:11:58.444Z</time>
      </trkpt>
      <trkpt lat="44.15517" lon="4.69065">
        <ele>149.2</ele>
        <time>2013-11-23T08:11:59.446Z</time>
      </trkpt>
      <trkpt lat="44.15519" lon="4.69075">
        <ele>148.4</ele>
        <time>2013-11-23T08:12:01.432Z</time>
      </trkpt>
      <trkpt lat="44.15525" lon="4.69084">
        <ele>148</ele>
        <time>2013-11-23T08:12:03.433Z</time>
      </trkpt>
      <trkpt lat="44.15529" lon="4.69094">
        <ele>148.3</ele>
        <time>2013-11-23T08:12:06.437Z</time>
      </trkpt>
      <trkpt lat="44.15518" lon="4.691">
        <ele>149.5</ele>
        <time>2013-11-23T08:12:08.430Z</time>
      </trkpt>
      <trkpt lat="44.15517" lon="4.69106">
        <ele>149.7</ele>
        <time>2013-11-23T08:12:10.441Z</time>
      </trkpt>
      <trkpt lat="44.15519" lon="4.69112">
        <ele>149</ele>
        <time>2013-11-23T08:12:12.437Z</time>
      </trkpt>
      <trkpt lat="44.15518" lon="4.69123">
        <ele>147.7</ele>
        <time>2013-11-23T08:12:15.437Z</time>
      </trkpt>
      <trkpt lat="44.15516" lon="4.69126">
        <ele>147.5</ele>
        <time>2013-11-23T08:12:16.437Z</time>
      </trkpt>
      <trkpt lat="44.15513" lon="4.69135">
        <ele>147</ele>
        <time>2013-11-23T08:12:19.438Z</time>
      </trkpt>
      <trkpt lat="44.15513" lon="4.69139">
        <ele>146.6</ele>
        <time>2013-11-23T08:12:20.438Z</time>
      </trkpt>
      <trkpt lat="44.15514" lon="4.6915">
        <ele>144.9</ele>
        <time>2013-11-23T08:12:23.436Z</time>
      </trkpt>
      <trkpt lat="44.1551" lon="4.69157">
        <ele>144.6</ele>
        <time>2013-11-23T08:12:25.441Z</time>
      </trkpt>
      <trkpt lat="44.15505" lon="4.69164">
        <ele>145.9</ele>
        <time>2013-11-23T08:12:28.435Z</time>
      </trkpt>
      <trkpt lat="44.155" lon="4.69168">
        <ele>145.9</ele>
        <time>2013-11-23T08:12:30.429Z</time>
      </trkpt>
      <trkpt lat="44.15498" lon="4.69177">
        <ele>145.4</ele>
        <time>2013-11-23T08:12:33.438Z</time>
      </trkpt>
      <trkpt lat="44.15502" lon="4.69181">
        <ele>148.8</ele>
        <time>2013-11-23T08:12:34.439Z</time>
      </trkpt>
      <trkpt lat="44.15504" lon="4.69185">
        <ele>147.9</ele>
        <time>2013-11-23T08:12:35.438Z</time>
      </trkpt>
      <trkpt lat="44.15507" lon="4.69197">
        <ele>145.8</ele>
        <time>2013-11-23T08:12:37.438Z</time>
      </trkpt>
      <trkpt lat="44.15506" lon="4.69209">
        <ele>148.6</ele>
        <time>2013-11-23T08:12:41.439Z</time>
      </trkpt>
      <trkpt lat="44.15506" lon="4.69212">
        <ele>148.7</ele>
        <time>2013-11-23T08:12:42.433Z</time>
      </trkpt>
      <trkpt lat="44.15505" lon="4.69216">
        <ele>148.7</ele>
        <time>2013-11-23T08:12:44.504Z</time>
      </trkpt>
      <trkpt lat="44.15507" lon="4.69226">
        <ele>147.9</ele>
        <time>2013-11-23T08:12:46.437Z</time>
      </trkpt>
      <trkpt lat="44.15511" lon="4.69232">
        <ele>147.7</ele>
        <time>2013-11-23T08:12:47.502Z</time>
      </trkpt>
      <trkpt lat="44.15514" lon="4.69239">
        <ele>147.8</ele>
        <time>2013-11-23T08:12:49.437Z</time>
      </trkpt>
      <trkpt lat="44.15515" lon="4.69243">
        <ele>147.7</ele>
        <time>2013-11-23T08:12:52.436Z</time>
      </trkpt>
      <trkpt lat="44.155" lon="4.69243">
        <ele>145.1</ele>
        <time>2013-11-23T08:12:54.439Z</time>
      </trkpt>
      <trkpt lat="44.15493" lon="4.69248">
        <ele>141.2</ele>
        <time>2013-11-23T08:12:57.490Z</time>
      </trkpt>
      <trkpt lat="44.15492" lon="4.69253">
        <ele>141.6</ele>
        <time>2013-11-23T08:12:59.437Z</time>
      </trkpt>
      <trkpt lat="44.1549" lon="4.69265">
        <ele>140.8</ele>
        <time>2013-11-23T08:13:02.437Z</time>
      </trkpt>
      <trkpt lat="44.1549" lon="4.6927">
        <ele>139.4</ele>
        <time>2013-11-23T08:13:03.443Z</time>
      </trkpt>
      <trkpt lat="44.15492" lon="4.69281">
        <ele>138</ele>
        <time>2013-11-23T08:13:07.432Z</time>
      </trkpt>
      <trkpt lat="44.15493" lon="4.69285">
        <ele>138.3</ele>
        <time>2013-11-23T08:13:09.431Z</time>
      </trkpt>
      <trkpt lat="44.15488" lon="4.69287">
        <ele>139.3</ele>
        <time>2013-11-23T08:13:11.481Z</time>
      </trkpt>
      <trkpt lat="44.15484" lon="4.69292">
        <ele>139.9</ele>
        <time>2013-11-23T08:13:13.437Z</time>
      </trkpt>
      <trkpt lat="44.15482" lon="4.69299">
        <ele>140.7</ele>
        <time>2013-11-23T08:13:16.440Z</time>
      </trkpt>
      <trkpt lat="44.15481" lon="4.69307">
        <ele>139.6</ele>
        <time>2013-11-23T08:13:18.506Z</time>
      </trkpt>
      <trkpt lat="44.15479" lon="4.6931">
        <ele>139</ele>
        <time>2013-11-23T08:13:19.435Z</time>
      </trkpt>
      <trkpt lat="44.15472" lon="4.69309">
        <ele>138.9</ele>
        <time>2013-11-23T08:13:20.436Z</time>
      </trkpt>
      <trkpt lat="44.15463" lon="4.69309">
        <ele>139</ele>
        <time>2013-11-23T08:13:22.438Z</time>
      </trkpt>
      <trkpt lat="44.15461" lon="4.6931">
        <ele>139.3</ele>
        <time>2013-11-23T08:13:23.439Z</time>
      </trkpt>
      <trkpt lat="44.15457" lon="4.69312">
        <ele>137.6</ele>
        <time>2013-11-23T08:13:24.452Z</time>
      </trkpt>
      <trkpt lat="44.15451" lon="4.69317">
        <ele>139.8</ele>
        <time>2013-11-23T08:13:26.440Z</time>
      </trkpt>
      <trkpt lat="44.15444" lon="4.69321">
        <ele>140.9</ele>
        <time>2013-11-23T08:13:29.437Z</time>
      </trkpt>
      <trkpt lat="44.15442" lon="4.69322">
        <ele>140.9</ele>
        <time>2013-11-23T08:13:30.438Z</time>
      </trkpt>
      <trkpt lat="44.15445" lon="4.69331">
        <ele>138.5</ele>
        <time>2013-11-23T08:13:34.620Z</time>
      </trkpt>
      <trkpt lat="44.15447" lon="4.69338">
        <ele>139.4</ele>
        <time>2013-11-23T08:13:37.437Z</time>
      </trkpt>
      <trkpt lat="44.15447" lon="4.69347">
        <ele>140.3</ele>
        <time>2013-11-23T08:13:40.439Z</time>
      </trkpt>
      <trkpt lat="44.1544" lon="4.69352">
        <ele>140.6</ele>
        <time>2013-11-23T08:13:42.437Z</time>
      </trkpt>
      <trkpt lat="44.15434" lon="4.69358">
        <ele>139.5</ele>
        <time>2013-11-23T08:13:45.436Z</time>
      </trkpt>
      <trkpt lat="44.15432" lon="4.6936">
        <ele>139.3</ele>
        <time>2013-11-23T08:13:46.438Z</time>
      </trkpt>
      <trkpt lat="44.15431" lon="4.69372">
        <ele>140.6</ele>
        <time>2013-11-23T08:13:51.437Z</time>
      </trkpt>
      <trkpt lat="44.15432" lon="4.69373">
        <ele>140.6</ele>
        <time>2013-11-23T08:13:51.557Z</time>
      </trkpt>
      <trkpt lat="44.15428" lon="4.69381">
        <ele>141.6</ele>
        <time>2013-11-23T08:13:54.438Z</time>
      </trkpt>
      <trkpt lat="44.15427" lon="4.69383">
        <ele>141.2</ele>
        <time>2013-11-23T08:13:55.439Z</time>
      </trkpt>
      <trkpt lat="44.15422" lon="4.6939">
        <ele>141.3</ele>
        <time>2013-11-23T08:13:58.442Z</time>
      </trkpt>
      <trkpt lat="44.15419" lon="4.69394">
        <ele>141</ele>
        <time>2013-11-23T08:14:00.436Z</time>
      </trkpt>
      <trkpt lat="44.15413" lon="4.69403">
        <ele>141.3</ele>
        <time>2013-11-23T08:14:05.439Z</time>
      </trkpt>
      <trkpt lat="44.15413" lon="4.6941">
        <ele>141.6</ele>
        <time>2013-11-23T08:14:07.486Z</time>
      </trkpt>
      <trkpt lat="44.15414" lon="4.69421">
        <ele>146.5</ele>
        <time>2013-11-23T08:14:15.455Z</time>
      </trkpt>
      <trkpt lat="44.15414" lon="4.69423">
        <ele>144.8</ele>
        <time>2013-11-23T08:14:16.438Z</time>
      </trkpt>
      <trkpt lat="44.15414" lon="4.69432">
        <ele>142.6</ele>
        <time>2013-11-23T08:14:20.554Z</time>
      </trkpt>
      <trkpt lat="44.15411" lon="4.69438">
        <ele>144.4</ele>
        <time>2013-11-23T08:14:23.481Z</time>
      </trkpt>
      <trkpt lat="44.15406" lon="4.69442">
        <ele>144.2</ele>
        <time>2013-11-23T08:14:28.578Z</time>
      </trkpt>
      <trkpt lat="44.15403" lon="4.69447">
        <ele>147.6</ele>
        <time>2013-11-23T08:14:31.437Z</time>
      </trkpt>
      <trkpt lat="44.15396" lon="4.6945">
        <ele>150.1</ele>
        <time>2013-11-23T08:14:34.438Z</time>
      </trkpt>
      <trkpt lat="44.15392" lon="4.6945">
        <ele>151.2</ele>
        <time>2013-11-23T08:14:36.436Z</time>
      </trkpt>
      <trkpt lat="44.15387" lon="4.69459">
        <ele>150.6</ele>
        <time>2013-11-23T08:14:41.435Z</time>
      </trkpt>
      <trkpt lat="44.15386" lon="4.69461">
        <ele>150.2</ele>
        <time>2013-11-23T08:14:42.435Z</time>
      </trkpt>
      <trkpt lat="44.1538" lon="4.69462">
        <ele>152.5</ele>
        <time>2013-11-23T08:14:45.439Z</time>
      </trkpt>
      <trkpt lat="44.15377" lon="4.69465">
        <ele>151.5</ele>
        <time>2013-11-23T08:14:46.446Z</time>
      </trkpt>
      <trkpt lat="44.1537" lon="4.69469">
        <ele>150.9</ele>
        <time>2013-11-23T08:14:49.437Z</time>
      </trkpt>
      <trkpt lat="44.15368" lon="4.6947">
        <ele>150.3</ele>
        <time>2013-11-23T08:14:50.437Z</time>
      </trkpt>
      <trkpt lat="44.15362" lon="4.69474">
        <ele>149.5</ele>
        <time>2013-11-23T08:14:53.439Z</time>
      </trkpt>
      <trkpt lat="44.15359" lon="4.69478">
        <ele>149</ele>
        <time>2013-11-23T08:14:55.441Z</time>
      </trkpt>
      <trkpt lat="44.15358" lon="4.69487">
        <ele>154.7</ele>
        <time>2013-11-23T08:15:02.565Z</time>
      </trkpt>
      <trkpt lat="44.15346" lon="4.69493">
        <ele>153.7</ele>
        <time>2013-11-23T08:15:06.435Z</time>
      </trkpt>
      <trkpt lat="44.15342" lon="4.69499">
        <ele>152.5</ele>
        <time>2013-11-23T08:15:10.440Z</time>
      </trkpt>
      <trkpt lat="44.1534" lon="4.69502">
        <ele>151.3</ele>
        <time>2013-11-23T08:15:11.438Z</time>
      </trkpt>
      <trkpt lat="44.15336" lon="4.69511">
        <ele>149.7</ele>
        <time>2013-11-23T08:15:15.437Z</time>
      </trkpt>
      <trkpt lat="44.15334" lon="4.69519">
        <ele>147.2</ele>
        <time>2013-11-23T08:15:17.435Z</time>
      </trkpt>
      <trkpt lat="44.15331" lon="4.69526">
        <ele>147.2</ele>
        <time>2013-11-23T08:15:19.439Z</time>
      </trkpt>
      <trkpt lat="44.15328" lon="4.69532">
        <ele>148.4</ele>
        <time>2013-11-23T08:15:21.461Z</time>
      </trkpt>
      <trkpt lat="44.15326" lon="4.69537">
        <ele>148.3</ele>
        <time>2013-11-23T08:15:23.425Z</time>
      </trkpt>
      <trkpt lat="44.15325" lon="4.69544">
        <ele>147.9</ele>
        <time>2013-11-23T08:15:25.506Z</time>
      </trkpt>
      <trkpt lat="44.1532" lon="4.69549">
        <ele>144.6</ele>
        <time>2013-11-23T08:15:27.495Z</time>
      </trkpt>
      <trkpt lat="44.15315" lon="4.69554">
        <ele>145.7</ele>
        <time>2013-11-23T08:15:29.440Z</time>
      </trkpt>
      <trkpt lat="44.15313" lon="4.69561">
        <ele>148.5</ele>
        <time>2013-11-23T08:15:33.619Z</time>
      </trkpt>
      <trkpt lat="44.15313" lon="4.69572">
        <ele>147.8</ele>
        <time>2013-11-23T08:15:36.439Z</time>
      </trkpt>
      <trkpt lat="44.15311" lon="4.69582">
        <ele>149</ele>
        <time>2013-11-23T08:15:40.438Z</time>
      </trkpt>
      <trkpt lat="44.15314" lon="4.69585">
        <ele>148.6</ele>
        <time>2013-11-23T08:15:42.436Z</time>
      </trkpt>
      <trkpt lat="44.15309" lon="4.69594">
        <ele>150.5</ele>
        <time>2013-11-23T08:15:56.493Z</time>
      </trkpt>
      <trkpt lat="44.15304" lon="4.69601">
        <ele>153.5</ele>
        <time>2013-11-23T08:16:04.435Z</time>
      </trkpt>
      <trkpt lat="44.15306" lon="4.69611">
        <ele>149</ele>
        <time>2013-11-23T08:16:12.503Z</time>
      </trkpt>
      <trkpt lat="44.15307" lon="4.69617">
        <ele>147.9</ele>
        <time>2013-11-23T08:16:17.436Z</time>
      </trkpt>
      <trkpt lat="44.15308" lon="4.69619">
        <ele>147.6</ele>
        <time>2013-11-23T08:16:21.526Z</time>
      </trkpt>
      <trkpt lat="44.15307" lon="4.69619">
        <ele>147.6</ele>
        <time>2013-11-23T08:16:24.490Z</time>
      </trkpt>
      <trkpt lat="44.15307" lon="4.69619">
        <ele>147.6</ele>
        <time>2013-11-23T08:16:24.672Z</time>
      </trkpt>
      <trkpt lat="44.15308" lon="4.6962">
        <ele>147.6</ele>
        <time>2013-11-23T08:16:25.439Z</time>
      </trkpt>
      <trkpt lat="44.15308" lon="4.69621">
        <ele>147.5</ele>
        <time>2013-11-23T08:16:28.437Z</time>
      </trkpt>
      <trkpt lat="44.15308" lon="4.69621">
        <ele>147.5</ele>
        <time>2013-11-23T08:16:30.437Z</time>
      </trkpt>
      <trkpt lat="44.15308" lon="4.69621">
        <ele>147.5</ele>
        <time>2013-11-23T08:16:31.439Z</time>
      </trkpt>
      <trkpt lat="44.1531" lon="4.69625">
        <ele>147.5</ele>
        <time>2013-11-23T08:16:33.436Z</time>
      </trkpt>
      <trkpt lat="44.15313" lon="4.69636">
        <ele>148</ele>
        <time>2013-11-23T08:16:41.537Z</time>
      </trkpt>
      <trkpt lat="44.15315" lon="4.69643">
        <ele>148.9</ele>
        <time>2013-11-23T08:16:46.436Z</time>
      </trkpt>
      <trkpt lat="44.1531" lon="4.69643">
        <ele>149.3</ele>
        <time>2013-11-23T08:16:56.552Z</time>
      </trkpt>
      <trkpt lat="44.15313" lon="4.6966">
        <ele>150.4</ele>
        <time>2013-11-23T08:17:02.436Z</time>
      </trkpt>
      <trkpt lat="44.15317" lon="4.69668">
        <ele>152.1</ele>
        <time>2013-11-23T08:17:06.435Z</time>
      </trkpt>
      <trkpt lat="44.15318" lon="4.69671">
        <ele>151.9</ele>
        <time>2013-11-23T08:17:07.437Z</time>
      </trkpt>
      <trkpt lat="44.15322" lon="4.69678">
        <ele>154.3</ele>
        <time>2013-11-23T08:17:14.496Z</time>
      </trkpt>
      <trkpt lat="44.15324" lon="4.69681">
        <ele>154.9</ele>
        <time>2013-11-23T08:17:18.436Z</time>
      </trkpt>
      <trkpt lat="44.15326" lon="4.6969">
        <ele>154.7</ele>
        <time>2013-11-23T08:17:23.554Z</time>
      </trkpt>
      <trkpt lat="44.15329" lon="4.69697">
        <ele>156.4</ele>
        <time>2013-11-23T08:17:26.436Z</time>
      </trkpt>
      <trkpt lat="44.15334" lon="4.69704">
        <ele>155.6</ele>
        <time>2013-11-23T08:17:31.552Z</time>
      </trkpt>
      <trkpt lat="44.15336" lon="4.69711">
        <ele>155.8</ele>
        <time>2013-11-23T08:17:34.437Z</time>
      </trkpt>
      <trkpt lat="44.15334" lon="4.69717">
        <ele>157.7</ele>
        <time>2013-11-23T08:17:41.552Z</time>
      </trkpt>
      <trkpt lat="44.15333" lon="4.69723">
        <ele>159</ele>
        <time>2013-11-23T08:17:45.436Z</time>
      </trkpt>
      <trkpt lat="44.15334" lon="4.69735">
        <ele>159.1</ele>
        <time>2013-11-23T08:17:48.436Z</time>
      </trkpt>
      <trkpt lat="44.15334" lon="4.69738">
        <ele>159.7</ele>
        <time>2013-11-23T08:17:49.436Z</time>
      </trkpt>
      <trkpt lat="44.15334" lon="4.69742">
        <ele>160.2</ele>
        <time>2013-11-23T08:17:50.435Z</time>
      </trkpt>
      <trkpt lat="44.15344" lon="4.69756">
        <ele>156.4</ele>
        <time>2013-11-23T08:17:51.437Z</time>
      </trkpt>
      <trkpt lat="44.15359" lon="4.69777">
        <ele>156</ele>
        <time>2013-11-23T08:17:53.436Z</time>
      </trkpt>
      <trkpt lat="44.15363" lon="4.69785">
        <ele>156.4</ele>
        <time>2013-11-23T08:17:54.436Z</time>
      </trkpt>
      <trkpt lat="44.15366" lon="4.69792">
        <ele>156.8</ele>
        <time>2013-11-23T08:17:55.437Z</time>
      </trkpt>
      <trkpt lat="44.15359" lon="4.69794">
        <ele>156.6</ele>
        <time>2013-11-23T08:17:57.437Z</time>
      </trkpt>
      <trkpt lat="44.15357" lon="4.69796">
        <ele>156.4</ele>
        <time>2013-11-23T08:17:58.437Z</time>
      </trkpt>
      <trkpt lat="44.15355" lon="4.69802">
        <ele>156.7</ele>
        <time>2013-11-23T08:18:00.448Z</time>
      </trkpt>
      <trkpt lat="44.15355" lon="4.69809">
        <ele>156.5</ele>
        <time>2013-11-23T08:18:02.435Z</time>
      </trkpt>
      <trkpt lat="44.15353" lon="4.69816">
        <ele>156.7</ele>
        <time>2013-11-23T08:18:04.436Z</time>
      </trkpt>
      <trkpt lat="44.15351" lon="4.69823">
        <ele>157.2</ele>
        <time>2013-11-23T08:18:06.437Z</time>
      </trkpt>
      <trkpt lat="44.15346" lon="4.69831">
        <ele>157.7</ele>
        <time>2013-11-23T08:18:09.437Z</time>
      </trkpt>
      <trkpt lat="44.15344" lon="4.69833">
        <ele>158.1</ele>
        <time>2013-11-23T08:18:10.451Z</time>
      </trkpt>
      <trkpt lat="44.15343" lon="4.69844">
        <ele>159.2</ele>
        <time>2013-11-23T08:18:14.436Z</time>
      </trkpt>
      <trkpt lat="44.15343" lon="4.69848">
        <ele>159.2</ele>
        <time>2013-11-23T08:18:16.434Z</time>
      </trkpt>
      <trkpt lat="44.15345" lon="4.69859">
        <ele>159.5</ele>
        <time>2013-11-23T08:18:19.436Z</time>
      </trkpt>
      <trkpt lat="44.15345" lon="4.69863">
        <ele>159.5</ele>
        <time>2013-11-23T08:18:20.436Z</time>
      </trkpt>
      <trkpt lat="44.15349" lon="4.69874">
        <ele>170</ele>
        <time>2013-11-23T08:18:27.605Z</time>
      </trkpt>
      <trkpt lat="44.15349" lon="4.69876">
        <ele>170.3</ele>
        <time>2013-11-23T08:18:28.436Z</time>
      </trkpt>
      <trkpt lat="44.1535" lon="4.69885">
        <ele>170.7</ele>
        <time>2013-11-23T08:18:35.700Z</time>
      </trkpt>
      <trkpt lat="44.15353" lon="4.69889">
        <ele>174.8</ele>
        <time>2013-11-23T08:18:39.436Z</time>
      </trkpt>
      <trkpt lat="44.15355" lon="4.69896">
        <ele>177</ele>
        <time>2013-11-23T08:18:43.580Z</time>
      </trkpt>
      <trkpt lat="44.15356" lon="4.69902">
        <ele>179.4</ele>
        <time>2013-11-23T08:18:46.436Z</time>
      </trkpt>
      <trkpt lat="44.15359" lon="4.69913">
        <ele>177.5</ele>
        <time>2013-11-23T08:18:50.434Z</time>
      </trkpt>
      <trkpt lat="44.15359" lon="4.69918">
        <ele>177</ele>
        <time>2013-11-23T08:18:51.435Z</time>
      </trkpt>
      <trkpt lat="44.15358" lon="4.69927">
        <ele>177.2</ele>
        <time>2013-11-23T08:18:53.427Z</time>
      </trkpt>
      <trkpt lat="44.15357" lon="4.69934">
        <ele>175.7</ele>
        <time>2013-11-23T08:18:55.425Z</time>
      </trkpt>
      <trkpt lat="44.15355" lon="4.69943">
        <ele>173.5</ele>
        <time>2013-11-23T08:18:59.808Z</time>
      </trkpt>
      <trkpt lat="44.15351" lon="4.69952">
        <ele>170.7</ele>
        <time>2013-11-23T08:19:02.435Z</time>
      </trkpt>
      <trkpt lat="44.15345" lon="4.69959">
        <ele>169.2</ele>
        <time>2013-11-23T08:19:04.466Z</time>
      </trkpt>
      <trkpt lat="44.15339" lon="4.69966">
        <ele>168.7</ele>
        <time>2013-11-23T08:19:06.434Z</time>
      </trkpt>
      <trkpt lat="44.15334" lon="4.69971">
        <ele>169.1</ele>
        <time>2013-11-23T08:19:09.437Z</time>
      </trkpt>
      <trkpt lat="44.15331" lon="4.69978">
        <ele>169</ele>
        <time>2013-11-23T08:19:11.437Z</time>
      </trkpt>
      <trkpt lat="44.15329" lon="4.69983">
        <ele>169.8</ele>
        <time>2013-11-23T08:19:12.442Z</time>
      </trkpt>
      <trkpt lat="44.1532" lon="4.69995">
        <ele>167.2</ele>
        <time>2013-11-23T08:19:14.436Z</time>
      </trkpt>
      <trkpt lat="44.15313" lon="4.70012">
        <ele>164.5</ele>
        <time>2013-11-23T08:19:16.434Z</time>
      </trkpt>
      <trkpt lat="44.15311" lon="4.7002">
        <ele>164.1</ele>
        <time>2013-11-23T08:19:17.435Z</time>
      </trkpt>
      <trkpt lat="44.15307" lon="4.70026">
        <ele>165.2</ele>
        <time>2013-11-23T08:19:18.434Z</time>
      </trkpt>
      <trkpt lat="44.15301" lon="4.70037">
        <ele>164.9</ele>
        <time>2013-11-23T08:19:20.434Z</time>
      </trkpt>
      <trkpt lat="44.15298" lon="4.70042">
        <ele>164.8</ele>
        <time>2013-11-23T08:19:21.437Z</time>
      </trkpt>
      <trkpt lat="44.15293" lon="4.70053">
        <ele>164.5</ele>
        <time>2013-11-23T08:19:23.435Z</time>
      </trkpt>
      <trkpt lat="44.15289" lon="4.70064">
        <ele>164.3</ele>
        <time>2013-11-23T08:19:25.433Z</time>
      </trkpt>
      <trkpt lat="44.15283" lon="4.70072">
        <ele>164</ele>
        <time>2013-11-23T08:19:27.447Z</time>
      </trkpt>
      <trkpt lat="44.1528" lon="4.70075">
        <ele>163.9</ele>
        <time>2013-11-23T08:19:28.508Z</time>
      </trkpt>
      <trkpt lat="44.15279" lon="4.70085">
        <ele>161.4</ele>
        <time>2013-11-23T08:19:31.434Z</time>
      </trkpt>
      <trkpt lat="44.15279" lon="4.70092">
        <ele>160.7</ele>
        <time>2013-11-23T08:19:32.436Z</time>
      </trkpt>
      <trkpt lat="44.15278" lon="4.70097">
        <ele>160.5</ele>
        <time>2013-11-23T08:19:33.437Z</time>
      </trkpt>
      <trkpt lat="44.15275" lon="4.70104">
        <ele>160.3</ele>
        <time>2013-11-23T08:19:35.440Z</time>
      </trkpt>
      <trkpt lat="44.15275" lon="4.70107">
        <ele>160.2</ele>
        <time>2013-11-23T08:19:36.440Z</time>
      </trkpt>
      <trkpt lat="44.15274" lon="4.70116">
        <ele>160.1</ele>
        <time>2013-11-23T08:19:38.437Z</time>
      </trkpt>
      <trkpt lat="44.15274" lon="4.70122">
        <ele>160.1</ele>
        <time>2013-11-23T08:19:39.437Z</time>
      </trkpt>
      <trkpt lat="44.15275" lon="4.70133">
        <ele>159.6</ele>
        <time>2013-11-23T08:19:41.435Z</time>
      </trkpt>
      <trkpt lat="44.15274" lon="4.70142">
        <ele>155.9</ele>
        <time>2013-11-23T08:19:42.436Z</time>
      </trkpt>
      <trkpt lat="44.15274" lon="4.70157">
        <ele>154.2</ele>
        <time>2013-11-23T08:19:44.437Z</time>
      </trkpt>
      <trkpt lat="44.15269" lon="4.70158">
        <ele>155.4</ele>
        <time>2013-11-23T08:19:45.438Z</time>
      </trkpt>
      <trkpt lat="44.1526" lon="4.70161">
        <ele>154.6</ele>
        <time>2013-11-23T08:19:47.435Z</time>
      </trkpt>
      <trkpt lat="44.15254" lon="4.70167">
        <ele>152.2</ele>
        <time>2013-11-23T08:19:49.437Z</time>
      </trkpt>
      <trkpt lat="44.15249" lon="4.70176">
        <ele>150.2</ele>
        <time>2013-11-23T08:19:51.435Z</time>
      </trkpt>
      <trkpt lat="44.15247" lon="4.70188">
        <ele>148.9</ele>
        <time>2013-11-23T08:19:54.437Z</time>
      </trkpt>
      <trkpt lat="44.15242" lon="4.70194">
        <ele>147.3</ele>
        <time>2013-11-23T08:19:56.437Z</time>
      </trkpt>
      <trkpt lat="44.15238" lon="4.70198">
        <ele>146.2</ele>
        <time>2013-11-23T08:19:59.461Z</time>
      </trkpt>
      <trkpt lat="44.15239" lon="4.70198">
        <ele>146</ele>
        <time>2013-11-23T08:20:01.472Z</time>
      </trkpt>
      <trkpt lat="44.15239" lon="4.70198">
        <ele>146</ele>
        <time>2013-11-23T08:20:03.459Z</time>
      </trkpt>
      <trkpt lat="44.15238" lon="4.70197">
        <ele>145.8</ele>
        <time>2013-11-23T08:20:05.436Z</time>
      </trkpt>
      <trkpt lat="44.15238" lon="4.70197">
        <ele>145.6</ele>
        <time>2013-11-23T08:20:07.436Z</time>
      </trkpt>
      <trkpt lat="44.15238" lon="4.70197">
        <ele>145.5</ele>
        <time>2013-11-23T08:20:08.436Z</time>
      </trkpt>
      <trkpt lat="44.15238" lon="4.70197">
        <ele>145.4</ele>
        <time>2013-11-23T08:20:12.705Z</time>
      </trkpt>
      <trkpt lat="44.15236" lon="4.702">
        <ele>145.2</ele>
        <time>2013-11-23T08:20:15.445Z</time>
      </trkpt>
      <trkpt lat="44.15232" lon="4.70205">
        <ele>144.9</ele>
        <time>2013-11-23T08:20:17.441Z</time>
      </trkpt>
      <trkpt lat="44.15228" lon="4.70213">
        <ele>143.9</ele>
        <time>2013-11-23T08:20:19.450Z</time>
      </trkpt>
      <trkpt lat="44.15225" lon="4.70221">
        <ele>144.1</ele>
        <time>2013-11-23T08:20:21.447Z</time>
      </trkpt>
      <trkpt lat="44.15221" lon="4.70229">
        <ele>145</ele>
        <time>2013-11-23T08:20:23.426Z</time>
      </trkpt>
      <trkpt lat="44.15217" lon="4.70238">
        <ele>144.3</ele>
        <time>2013-11-23T08:20:25.454Z</time>
      </trkpt>
      <trkpt lat="44.15214" lon="4.70247">
        <ele>144.2</ele>
        <time>2013-11-23T08:20:27.426Z</time>
      </trkpt>
      <trkpt lat="44.15212" lon="4.70251">
        <ele>144.2</ele>
        <time>2013-11-23T08:20:28.434Z</time>
      </trkpt>
      <trkpt lat="44.15208" lon="4.7026">
        <ele>144</ele>
        <time>2013-11-23T08:20:30.426Z</time>
      </trkpt>
      <trkpt lat="44.15205" lon="4.70264">
        <ele>143.3</ele>
        <time>2013-11-23T08:20:31.433Z</time>
      </trkpt>
      <trkpt lat="44.15201" lon="4.70274">
        <ele>143.3</ele>
        <time>2013-11-23T08:20:33.433Z</time>
      </trkpt>
      <trkpt lat="44.15198" lon="4.70281">
        <ele>143.9</ele>
        <time>2013-11-23T08:20:35.435Z</time>
      </trkpt>
      <trkpt lat="44.15195" lon="4.70284">
        <ele>144</ele>
        <time>2013-11-23T08:20:36.437Z</time>
      </trkpt>
      <trkpt lat="44.15189" lon="4.70289">
        <ele>144</ele>
        <time>2013-11-23T08:20:38.430Z</time>
      </trkpt>
      <trkpt lat="44.15186" lon="4.70291">
        <ele>143.7</ele>
        <time>2013-11-23T08:20:39.440Z</time>
      </trkpt>
      <trkpt lat="44.15177" lon="4.70295">
        <ele>142.9</ele>
        <time>2013-11-23T08:20:41.427Z</time>
      </trkpt>
      <trkpt lat="44.15173" lon="4.70296">
        <ele>142.5</ele>
        <time>2013-11-23T08:20:42.441Z</time>
      </trkpt>
      <trkpt lat="44.15163" lon="4.70296">
        <ele>141.8</ele>
        <time>2013-11-23T08:20:44.469Z</time>
      </trkpt>
      <trkpt lat="44.15153" lon="4.70294">
        <ele>141.2</ele>
        <time>2013-11-23T08:20:46.479Z</time>
      </trkpt>
      <trkpt lat="44.15146" lon="4.70295">
        <ele>141.2</ele>
        <time>2013-11-23T08:20:48.472Z</time>
      </trkpt>
      <trkpt lat="44.1514" lon="4.70298">
        <ele>140.5</ele>
        <time>2013-11-23T08:20:50.502Z</time>
      </trkpt>
      <trkpt lat="44.15137" lon="4.70297">
        <ele>140.2</ele>
        <time>2013-11-23T08:20:51.437Z</time>
      </trkpt>
      <trkpt lat="44.1513" lon="4.70293">
        <ele>139.3</ele>
        <time>2013-11-23T08:20:53.495Z</time>
      </trkpt>
      <trkpt lat="44.1512" lon="4.70289">
        <ele>138.3</ele>
        <time>2013-11-23T08:20:55.430Z</time>
      </trkpt>
      <trkpt lat="44.15114" lon="4.70287">
        <ele>137.7</ele>
        <time>2013-11-23T08:20:56.443Z</time>
      </trkpt>
      <trkpt lat="44.15108" lon="4.70285">
        <ele>137</ele>
        <time>2013-11-23T08:20:57.465Z</time>
      </trkpt>
      <trkpt lat="44.15096" lon="4.70281">
        <ele>135.7</ele>
        <time>2013-11-23T08:20:59.461Z</time>
      </trkpt>
      <trkpt lat="44.1509" lon="4.70278">
        <ele>135</ele>
        <time>2013-11-23T08:21:00.591Z</time>
      </trkpt>
      <trkpt lat="44.15082" lon="4.70276">
        <ele>134.4</ele>
        <time>2013-11-23T08:21:02.437Z</time>
      </trkpt>
      <trkpt lat="44.15077" lon="4.70282">
        <ele>134.5</ele>
        <time>2013-11-23T08:21:04.425Z</time>
      </trkpt>
      <trkpt lat="44.15075" lon="4.70293">
        <ele>134.5</ele>
        <time>2013-11-23T08:21:06.489Z</time>
      </trkpt>
      <trkpt lat="44.15074" lon="4.70299">
        <ele>134.8</ele>
        <time>2013-11-23T08:21:07.444Z</time>
      </trkpt>
      <trkpt lat="44.15072" lon="4.70311">
        <ele>134.9</ele>
        <time>2013-11-23T08:21:09.469Z</time>
      </trkpt>
      <trkpt lat="44.15072" lon="4.70317">
        <ele>135</ele>
        <time>2013-11-23T08:21:10.482Z</time>
      </trkpt>
      <trkpt lat="44.1507" lon="4.70327">
        <ele>135.6</ele>
        <time>2013-11-23T08:21:12.438Z</time>
      </trkpt>
      <trkpt lat="44.1507" lon="4.70332">
        <ele>135.7</ele>
        <time>2013-11-23T08:21:13.527Z</time>
      </trkpt>
      <trkpt lat="44.15069" lon="4.70341">
        <ele>135.3</ele>
        <time>2013-11-23T08:21:15.465Z</time>
      </trkpt>
      <trkpt lat="44.1507" lon="4.70349">
        <ele>135.2</ele>
        <time>2013-11-23T08:21:17.453Z</time>
      </trkpt>
      <trkpt lat="44.15071" lon="4.70355">
        <ele>135.5</ele>
        <time>2013-11-23T08:21:19.436Z</time>
      </trkpt>
      <trkpt lat="44.15071" lon="4.70362">
        <ele>135.4</ele>
        <time>2013-11-23T08:21:21.442Z</time>
      </trkpt>
      <trkpt lat="44.15071" lon="4.7037">
        <ele>135.7</ele>
        <time>2013-11-23T08:21:23.436Z</time>
      </trkpt>
      <trkpt lat="44.15074" lon="4.70378">
        <ele>134.4</ele>
        <time>2013-11-23T08:21:25.446Z</time>
      </trkpt>
      <trkpt lat="44.15075" lon="4.70381">
        <ele>135.4</ele>
        <time>2013-11-23T08:21:26.444Z</time>
      </trkpt>
      <trkpt lat="44.1508" lon="4.70388">
        <ele>136.3</ele>
        <time>2013-11-23T08:21:29.435Z</time>
      </trkpt>
      <trkpt lat="44.15082" lon="4.7039">
        <ele>136.6</ele>
        <time>2013-11-23T08:21:30.436Z</time>
      </trkpt>
      <trkpt lat="44.15088" lon="4.70392">
        <ele>140.2</ele>
        <time>2013-11-23T08:21:35.564Z</time>
      </trkpt>
      <trkpt lat="44.15092" lon="4.70393">
        <ele>141</ele>
        <time>2013-11-23T08:21:38.437Z</time>
      </trkpt>
      <trkpt lat="44.15098" lon="4.70394">
        <ele>142.1</ele>
        <time>2013-11-23T08:21:42.528Z</time>
      </trkpt>
      <trkpt lat="44.15102" lon="4.70395">
        <ele>143</ele>
        <time>2013-11-23T08:21:45.437Z</time>
      </trkpt>
      <trkpt lat="44.15104" lon="4.70394">
        <ele>145.7</ele>
        <time>2013-11-23T08:21:49.438Z</time>
      </trkpt>
      <trkpt lat="44.15104" lon="4.70394">
        <ele>145.7</ele>
        <time>2013-11-23T08:21:49.530Z</time>
      </trkpt>
      <trkpt lat="44.15106" lon="4.70398">
        <ele>147.5</ele>
        <time>2013-11-23T08:21:52.447Z</time>
      </trkpt>
      <trkpt lat="44.15108" lon="4.70407">
        <ele>147.8</ele>
        <time>2013-11-23T08:21:55.457Z</time>
      </trkpt>
      <trkpt lat="44.15108" lon="4.7041">
        <ele>148</ele>
        <time>2013-11-23T08:21:56.456Z</time>
      </trkpt>
      <trkpt lat="44.15107" lon="4.70421">
        <ele>148.9</ele>
        <time>2013-11-23T08:22:00.612Z</time>
      </trkpt>
      <trkpt lat="44.15106" lon="4.70428">
        <ele>149.8</ele>
        <time>2013-11-23T08:22:03.437Z</time>
      </trkpt>
      <trkpt lat="44.15104" lon="4.70437">
        <ele>146.3</ele>
        <time>2013-11-23T08:22:05.591Z</time>
      </trkpt>
      <trkpt lat="44.15102" lon="4.70444">
        <ele>146.7</ele>
        <time>2013-11-23T08:22:07.542Z</time>
      </trkpt>
      <trkpt lat="44.15102" lon="4.70452">
        <ele>148.1</ele>
        <time>2013-11-23T08:22:10.462Z</time>
      </trkpt>
      <trkpt lat="44.15101" lon="4.70458">
        <ele>148.5</ele>
        <time>2013-11-23T08:22:12.485Z</time>
      </trkpt>
      <trkpt lat="44.151" lon="4.70467">
        <ele>148.7</ele>
        <time>2013-11-23T08:22:15.462Z</time>
      </trkpt>
      <trkpt lat="44.15099" lon="4.70474">
        <ele>149.2</ele>
        <time>2013-11-23T08:22:17.462Z</time>
      </trkpt>
      <trkpt lat="44.15097" lon="4.70486">
        <ele>150.1</ele>
        <time>2013-11-23T08:22:21.562Z</time>
      </trkpt>
      <trkpt lat="44.15096" lon="4.70494">
        <ele>151.1</ele>
        <time>2013-11-23T08:22:24.460Z</time>
      </trkpt>
      <trkpt lat="44.15094" lon="4.70505">
        <ele>151.9</ele>
        <time>2013-11-23T08:22:28.581Z</time>
      </trkpt>
      <trkpt lat="44.15092" lon="4.70511">
        <ele>152.6</ele>
        <time>2013-11-23T08:22:31.480Z</time>
      </trkpt>
      <trkpt lat="44.15091" lon="4.70522">
        <ele>153.3</ele>
        <time>2013-11-23T08:22:35.458Z</time>
      </trkpt>
      <trkpt lat="44.15091" lon="4.70524">
        <ele>153.9</ele>
        <time>2013-11-23T08:22:36.460Z</time>
      </trkpt>
      <trkpt lat="44.15088" lon="4.70534">
        <ele>155.2</ele>
        <time>2013-11-23T08:22:40.459Z</time>
      </trkpt>
      <trkpt lat="44.15087" lon="4.70539">
        <ele>155.4</ele>
        <time>2013-11-23T08:22:42.461Z</time>
      </trkpt>
      <trkpt lat="44.15085" lon="4.7055">
        <ele>156</ele>
        <time>2013-11-23T08:22:46.436Z</time>
      </trkpt>
      <trkpt lat="44.15085" lon="4.70553">
        <ele>156.2</ele>
        <time>2013-11-23T08:22:47.459Z</time>
      </trkpt>
      <trkpt lat="44.15083" lon="4.7056">
        <ele>157</ele>
        <time>2013-11-23T08:22:50.460Z</time>
      </trkpt>
      <trkpt lat="44.15081" lon="4.70565">
        <ele>157.1</ele>
        <time>2013-11-23T08:22:52.434Z</time>
      </trkpt>
      <trkpt lat="44.1508" lon="4.70576">
        <ele>158.3</ele>
        <time>2013-11-23T08:22:56.560Z</time>
      </trkpt>
      <trkpt lat="44.15078" lon="4.70584">
        <ele>158.8</ele>
        <time>2013-11-23T08:22:59.457Z</time>
      </trkpt>
      <trkpt lat="44.15078" lon="4.7059">
        <ele>158.8</ele>
        <time>2013-11-23T08:23:01.458Z</time>
      </trkpt>
      <trkpt lat="44.15078" lon="4.70597">
        <ele>158.8</ele>
        <time>2013-11-23T08:23:03.458Z</time>
      </trkpt>
      <trkpt lat="44.15078" lon="4.70603">
        <ele>158.8</ele>
        <time>2013-11-23T08:23:05.459Z</time>
      </trkpt>
      <trkpt lat="44.15078" lon="4.7061">
        <ele>158.3</ele>
        <time>2013-11-23T08:23:07.461Z</time>
      </trkpt>
      <trkpt lat="44.15077" lon="4.70618">
        <ele>158.7</ele>
        <time>2013-11-23T08:23:10.460Z</time>
      </trkpt>
      <trkpt lat="44.15076" lon="4.70624">
        <ele>158.8</ele>
        <time>2013-11-23T08:23:12.458Z</time>
      </trkpt>
      <trkpt lat="44.15076" lon="4.7063">
        <ele>159</ele>
        <time>2013-11-23T08:23:14.460Z</time>
      </trkpt>
      <trkpt lat="44.15075" lon="4.70636">
        <ele>159.3</ele>
        <time>2013-11-23T08:23:16.463Z</time>
      </trkpt>
      <trkpt lat="44.15074" lon="4.70646">
        <ele>159.4</ele>
        <time>2013-11-23T08:23:19.453Z</time>
      </trkpt>
      <trkpt lat="44.15074" lon="4.70652">
        <ele>159.8</ele>
        <time>2013-11-23T08:23:21.463Z</time>
      </trkpt>
      <trkpt lat="44.15073" lon="4.70662">
        <ele>160</ele>
        <time>2013-11-23T08:23:24.544Z</time>
      </trkpt>
      <trkpt lat="44.15072" lon="4.70667">
        <ele>160.9</ele>
        <time>2013-11-23T08:23:26.502Z</time>
      </trkpt>
      <trkpt lat="44.15071" lon="4.70678">
        <ele>162.2</ele>
        <time>2013-11-23T08:23:30.463Z</time>
      </trkpt>
      <trkpt lat="44.15071" lon="4.7068">
        <ele>162.3</ele>
        <time>2013-11-23T08:23:31.468Z</time>
      </trkpt>
      <trkpt lat="44.15072" lon="4.70688">
        <ele>162.6</ele>
        <time>2013-11-23T08:23:34.526Z</time>
      </trkpt>
      <trkpt lat="44.15074" lon="4.70692">
        <ele>162.7</ele>
        <time>2013-11-23T08:23:36.463Z</time>
      </trkpt>
      <trkpt lat="44.15078" lon="4.70697">
        <ele>165</ele>
        <time>2013-11-23T08:23:40.635Z</time>
      </trkpt>
      <trkpt lat="44.15081" lon="4.70703">
        <ele>164.3</ele>
        <time>2013-11-23T08:23:43.627Z</time>
      </trkpt>
      <trkpt lat="44.15085" lon="4.7071">
        <ele>163.4</ele>
        <time>2013-11-23T08:23:46.558Z</time>
      </trkpt>
      <trkpt lat="44.15088" lon="4.70713">
        <ele>164.6</ele>
        <time>2013-11-23T08:23:48.459Z</time>
      </trkpt>
      <trkpt lat="44.15094" lon="4.70719">
        <ele>165.7</ele>
        <time>2013-11-23T08:23:53.564Z</time>
      </trkpt>
      <trkpt lat="44.15096" lon="4.70723">
        <ele>166.3</ele>
        <time>2013-11-23T08:23:56.436Z</time>
      </trkpt>
      <trkpt lat="44.15101" lon="4.7073">
        <ele>166.7</ele>
        <time>2013-11-23T08:24:02.565Z</time>
      </trkpt>
      <trkpt lat="44.15102" lon="4.70731">
        <ele>166.6</ele>
        <time>2013-11-23T08:24:03.461Z</time>
      </trkpt>
      <trkpt lat="44.15112" lon="4.70736">
        <ele>166.2</ele>
        <time>2013-11-23T08:24:07.434Z</time>
      </trkpt>
      <trkpt lat="44.15121" lon="4.7074">
        <ele>165.7</ele>
        <time>2013-11-23T08:24:11.433Z</time>
      </trkpt>
      <trkpt lat="44.15127" lon="4.70742">
        <ele>165.3</ele>
        <time>2013-11-23T08:24:13.433Z</time>
      </trkpt>
      <trkpt lat="44.15132" lon="4.70745">
        <ele>164.7</ele>
        <time>2013-11-23T08:24:14.439Z</time>
      </trkpt>
      <trkpt lat="44.15137" lon="4.70747">
        <ele>163.9</ele>
        <time>2013-11-23T08:24:15.438Z</time>
      </trkpt>
      <trkpt lat="44.15148" lon="4.70755">
        <ele>162.3</ele>
        <time>2013-11-23T08:24:17.433Z</time>
      </trkpt>
      <trkpt lat="44.15154" lon="4.7076">
        <ele>161.7</ele>
        <time>2013-11-23T08:24:18.433Z</time>
      </trkpt>
      <trkpt lat="44.15164" lon="4.70768">
        <ele>161.1</ele>
        <time>2013-11-23T08:24:20.434Z</time>
      </trkpt>
      <trkpt lat="44.1517" lon="4.70771">
        <ele>161</ele>
        <time>2013-11-23T08:24:21.434Z</time>
      </trkpt>
      <trkpt lat="44.15176" lon="4.70773">
        <ele>160.4</ele>
        <time>2013-11-23T08:24:22.434Z</time>
      </trkpt>
      <trkpt lat="44.15187" lon="4.70779">
        <ele>159.5</ele>
        <time>2013-11-23T08:24:24.433Z</time>
      </trkpt>
      <trkpt lat="44.15193" lon="4.70783">
        <ele>158.4</ele>
        <time>2013-11-23T08:24:25.434Z</time>
      </trkpt>
      <trkpt lat="44.15197" lon="4.70788">
        <ele>158.1</ele>
        <time>2013-11-23T08:24:26.434Z</time>
      </trkpt>
      <trkpt lat="44.15202" lon="4.70793">
        <ele>157.3</ele>
        <time>2013-11-23T08:24:27.434Z</time>
      </trkpt>
      <trkpt lat="44.15206" lon="4.708">
        <ele>156.7</ele>
        <time>2013-11-23T08:24:28.434Z</time>
      </trkpt>
      <trkpt lat="44.15211" lon="4.70806">
        <ele>156.9</ele>
        <time>2013-11-23T08:24:29.434Z</time>
      </trkpt>
      <trkpt lat="44.15215" lon="4.70813">
        <ele>156.2</ele>
        <time>2013-11-23T08:24:30.434Z</time>
      </trkpt>
      <trkpt lat="44.15226" lon="4.70826">
        <ele>155.2</ele>
        <time>2013-11-23T08:24:32.433Z</time>
      </trkpt>
      <trkpt lat="44.15232" lon="4.70832">
        <ele>155.2</ele>
        <time>2013-11-23T08:24:33.433Z</time>
      </trkpt>
      <trkpt lat="44.15242" lon="4.70838">
        <ele>154.8</ele>
        <time>2013-11-23T08:24:35.433Z</time>
      </trkpt>
      <trkpt lat="44.15252" lon="4.70842">
        <ele>154.5</ele>
        <time>2013-11-23T08:24:37.437Z</time>
      </trkpt>
      <trkpt lat="44.15261" lon="4.70847">
        <ele>154.2</ele>
        <time>2013-11-23T08:24:39.434Z</time>
      </trkpt>
      <trkpt lat="44.15271" lon="4.7085">
        <ele>153.8</ele>
        <time>2013-11-23T08:24:41.433Z</time>
      </trkpt>
      <trkpt lat="44.15276" lon="4.70853">
        <ele>153.4</ele>
        <time>2013-11-23T08:24:42.433Z</time>
      </trkpt>
      <trkpt lat="44.15282" lon="4.70854">
        <ele>153</ele>
        <time>2013-11-23T08:24:43.434Z</time>
      </trkpt>
      <trkpt lat="44.15293" lon="4.70857">
        <ele>152.8</ele>
        <time>2013-11-23T08:24:45.433Z</time>
      </trkpt>
      <trkpt lat="44.15298" lon="4.70858">
        <ele>152.5</ele>
        <time>2013-11-23T08:24:46.433Z</time>
      </trkpt>
      <trkpt lat="44.15303" lon="4.7086">
        <ele>152</ele>
        <time>2013-11-23T08:24:47.434Z</time>
      </trkpt>
      <trkpt lat="44.15312" lon="4.70864">
        <ele>152</ele>
        <time>2013-11-23T08:24:49.434Z</time>
      </trkpt>
      <trkpt lat="44.15316" lon="4.70867">
        <ele>151.8</ele>
        <time>2013-11-23T08:24:50.434Z</time>
      </trkpt>
      <trkpt lat="44.15321" lon="4.7087">
        <ele>151</ele>
        <time>2013-11-23T08:24:51.434Z</time>
      </trkpt>
      <trkpt lat="44.15326" lon="4.70872">
        <ele>150.3</ele>
        <time>2013-11-23T08:24:52.434Z</time>
      </trkpt>
      <trkpt lat="44.15336" lon="4.70875">
        <ele>149.3</ele>
        <time>2013-11-23T08:24:54.435Z</time>
      </trkpt>
      <trkpt lat="44.1534" lon="4.70875">
        <ele>148.9</ele>
        <time>2013-11-23T08:24:55.448Z</time>
      </trkpt>
      <trkpt lat="44.15345" lon="4.70875">
        <ele>148.4</ele>
        <time>2013-11-23T08:24:56.438Z</time>
      </trkpt>
      <trkpt lat="44.15354" lon="4.70878">
        <ele>147.2</ele>
        <time>2013-11-23T08:24:58.435Z</time>
      </trkpt>
      <trkpt lat="44.15358" lon="4.70879">
        <ele>146.9</ele>
        <time>2013-11-23T08:24:59.434Z</time>
      </trkpt>
      <trkpt lat="44.15368" lon="4.70883">
        <ele>146.2</ele>
        <time>2013-11-23T08:25:01.432Z</time>
      </trkpt>
      <trkpt lat="44.15373" lon="4.70884">
        <ele>146.3</ele>
        <time>2013-11-23T08:25:02.436Z</time>
      </trkpt>
      <trkpt lat="44.15383" lon="4.70886">
        <ele>146.4</ele>
        <time>2013-11-23T08:25:04.437Z</time>
      </trkpt>
      <trkpt lat="44.15387" lon="4.70887">
        <ele>146</ele>
        <time>2013-11-23T08:25:05.439Z</time>
      </trkpt>
      <trkpt lat="44.15394" lon="4.70888">
        <ele>146</ele>
        <time>2013-11-23T08:25:07.428Z</time>
      </trkpt>
      <trkpt lat="44.15402" lon="4.70889">
        <ele>146.6</ele>
        <time>2013-11-23T08:25:09.428Z</time>
      </trkpt>
      <trkpt lat="44.15406" lon="4.70891">
        <ele>146.5</ele>
        <time>2013-11-23T08:25:10.439Z</time>
      </trkpt>
      <trkpt lat="44.1541" lon="4.70892">
        <ele>145.9</ele>
        <time>2013-11-23T08:25:11.445Z</time>
      </trkpt>
      <trkpt lat="44.15418" lon="4.70891">
        <ele>145.9</ele>
        <time>2013-11-23T08:25:13.478Z</time>
      </trkpt>
      <trkpt lat="44.15425" lon="4.70891">
        <ele>145.8</ele>
        <time>2013-11-23T08:25:15.428Z</time>
      </trkpt>
      <trkpt lat="44.15432" lon="4.70891">
        <ele>145.4</ele>
        <time>2013-11-23T08:25:17.649Z</time>
      </trkpt>
      <trkpt lat="44.15434" lon="4.70891">
        <ele>145.1</ele>
        <time>2013-11-23T08:25:18.443Z</time>
      </trkpt>
      <trkpt lat="44.15442" lon="4.70891">
        <ele>144.6</ele>
        <time>2013-11-23T08:25:20.439Z</time>
      </trkpt>
      <trkpt lat="44.15449" lon="4.70889">
        <ele>144.4</ele>
        <time>2013-11-23T08:25:22.437Z</time>
      </trkpt>
      <trkpt lat="44.15456" lon="4.70888">
        <ele>144</ele>
        <time>2013-11-23T08:25:24.429Z</time>
      </trkpt>
      <trkpt lat="44.1546" lon="4.70889">
        <ele>144.3</ele>
        <time>2013-11-23T08:25:25.437Z</time>
      </trkpt>
      <trkpt lat="44.15467" lon="4.70889">
        <ele>144.7</ele>
        <time>2013-11-23T08:25:27.429Z</time>
      </trkpt>
      <trkpt lat="44.15474" lon="4.70889">
        <ele>145</ele>
        <time>2013-11-23T08:25:29.429Z</time>
      </trkpt>
      <trkpt lat="44.15479" lon="4.70888">
        <ele>145.8</ele>
        <time>2013-11-23T08:25:31.542Z</time>
      </trkpt>
      <trkpt lat="44.15487" lon="4.70886">
        <ele>146.3</ele>
        <time>2013-11-23T08:25:34.432Z</time>
      </trkpt>
      <trkpt lat="44.15491" lon="4.70885">
        <ele>145.7</ele>
        <time>2013-11-23T08:25:35.439Z</time>
      </trkpt>
      <trkpt lat="44.15496" lon="4.70882">
        <ele>146.1</ele>
        <time>2013-11-23T08:25:37.433Z</time>
      </trkpt>
      <trkpt lat="44.15501" lon="4.7088">
        <ele>146</ele>
        <time>2013-11-23T08:25:39.431Z</time>
      </trkpt>
      <trkpt lat="44.15507" lon="4.70879">
        <ele>146.4</ele>
        <time>2013-11-23T08:25:41.436Z</time>
      </trkpt>
      <trkpt lat="44.15513" lon="4.70878">
        <ele>146.5</ele>
        <time>2013-11-23T08:25:43.430Z</time>
      </trkpt>
      <trkpt lat="44.15522" lon="4.70875">
        <ele>146.7</ele>
        <time>2013-11-23T08:25:46.436Z</time>
      </trkpt>
      <trkpt lat="44.15528" lon="4.70873">
        <ele>147.1</ele>
        <time>2013-11-23T08:25:48.422Z</time>
      </trkpt>
      <trkpt lat="44.15534" lon="4.7087">
        <ele>147.2</ele>
        <time>2013-11-23T08:25:50.433Z</time>
      </trkpt>
      <trkpt lat="44.1554" lon="4.70867">
        <ele>147.3</ele>
        <time>2013-11-23T08:25:52.435Z</time>
      </trkpt>
      <trkpt lat="44.15546" lon="4.70863">
        <ele>147.2</ele>
        <time>2013-11-23T08:25:54.451Z</time>
      </trkpt>
      <trkpt lat="44.15552" lon="4.70859">
        <ele>147.2</ele>
        <time>2013-11-23T08:25:56.436Z</time>
      </trkpt>
      <trkpt lat="44.15555" lon="4.70858">
        <ele>147.4</ele>
        <time>2013-11-23T08:25:57.437Z</time>
      </trkpt>
      <trkpt lat="44.15561" lon="4.70853">
        <ele>147.5</ele>
        <time>2013-11-23T08:25:59.433Z</time>
      </trkpt>
      <trkpt lat="44.15568" lon="4.7085">
        <ele>147.3</ele>
        <time>2013-11-23T08:26:01.431Z</time>
      </trkpt>
      <trkpt lat="44.15571" lon="4.70848">
        <ele>147.3</ele>
        <time>2013-11-23T08:26:02.431Z</time>
      </trkpt>
      <trkpt lat="44.15577" lon="4.70844">
        <ele>147.3</ele>
        <time>2013-11-23T08:26:04.434Z</time>
      </trkpt>
      <trkpt lat="44.15584" lon="4.70839">
        <ele>146.9</ele>
        <time>2013-11-23T08:26:06.434Z</time>
      </trkpt>
      <trkpt lat="44.15587" lon="4.70836">
        <ele>146.8</ele>
        <time>2013-11-23T08:26:07.436Z</time>
      </trkpt>
      <trkpt lat="44.15593" lon="4.7083">
        <ele>146.6</ele>
        <time>2013-11-23T08:26:09.433Z</time>
      </trkpt>
      <trkpt lat="44.15596" lon="4.70827">
        <ele>147.1</ele>
        <time>2013-11-23T08:26:10.434Z</time>
      </trkpt>
      <trkpt lat="44.15601" lon="4.70821">
        <ele>147.6</ele>
        <time>2013-11-23T08:26:12.435Z</time>
      </trkpt>
      <trkpt lat="44.15607" lon="4.70816">
        <ele>147.9</ele>
        <time>2013-11-23T08:26:14.433Z</time>
      </trkpt>
      <trkpt lat="44.1561" lon="4.70813">
        <ele>148</ele>
        <time>2013-11-23T08:26:15.433Z</time>
      </trkpt>
      <trkpt lat="44.15615" lon="4.70807">
        <ele>147.7</ele>
        <time>2013-11-23T08:26:17.434Z</time>
      </trkpt>
      <trkpt lat="44.15622" lon="4.70802">
        <ele>147.1</ele>
        <time>2013-11-23T08:26:19.506Z</time>
      </trkpt>
      <trkpt lat="44.15628" lon="4.70798">
        <ele>147.2</ele>
        <time>2013-11-23T08:26:21.450Z</time>
      </trkpt>
      <trkpt lat="44.15636" lon="4.708">
        <ele>148.2</ele>
        <time>2013-11-23T08:26:23.433Z</time>
      </trkpt>
      <trkpt lat="44.15641" lon="4.70807">
        <ele>148.2</ele>
        <time>2013-11-23T08:26:25.432Z</time>
      </trkpt>
      <trkpt lat="44.15645" lon="4.70816">
        <ele>147.6</ele>
        <time>2013-11-23T08:26:27.433Z</time>
      </trkpt>
      <trkpt lat="44.1565" lon="4.70825">
        <ele>147.4</ele>
        <time>2013-11-23T08:26:29.430Z</time>
      </trkpt>
      <trkpt lat="44.15652" lon="4.70829">
        <ele>147.2</ele>
        <time>2013-11-23T08:26:30.433Z</time>
      </trkpt>
      <trkpt lat="44.15658" lon="4.70831">
        <ele>146.6</ele>
        <time>2013-11-23T08:26:31.484Z</time>
      </trkpt>
      <trkpt lat="44.15668" lon="4.70835">
        <ele>146.6</ele>
        <time>2013-11-23T08:26:33.433Z</time>
      </trkpt>
      <trkpt lat="44.15677" lon="4.7084">
        <ele>145.8</ele>
        <time>2013-11-23T08:26:35.433Z</time>
      </trkpt>
      <trkpt lat="44.15681" lon="4.70842">
        <ele>145.8</ele>
        <time>2013-11-23T08:26:36.434Z</time>
      </trkpt>
      <trkpt lat="44.15689" lon="4.70848">
        <ele>146.3</ele>
        <time>2013-11-23T08:26:38.433Z</time>
      </trkpt>
      <trkpt lat="44.15697" lon="4.70854">
        <ele>146</ele>
        <time>2013-11-23T08:26:40.434Z</time>
      </trkpt>
      <trkpt lat="44.15705" lon="4.7086">
        <ele>146.6</ele>
        <time>2013-11-23T08:26:42.435Z</time>
      </trkpt>
      <trkpt lat="44.15714" lon="4.70867">
        <ele>146</ele>
        <time>2013-11-23T08:26:44.434Z</time>
      </trkpt>
      <trkpt lat="44.15718" lon="4.7087">
        <ele>146.2</ele>
        <time>2013-11-23T08:26:45.434Z</time>
      </trkpt>
      <trkpt lat="44.15726" lon="4.70877">
        <ele>146.1</ele>
        <time>2013-11-23T08:26:47.436Z</time>
      </trkpt>
      <trkpt lat="44.1573" lon="4.7088">
        <ele>146.2</ele>
        <time>2013-11-23T08:26:48.436Z</time>
      </trkpt>
      <trkpt lat="44.15738" lon="4.70886">
        <ele>145.9</ele>
        <time>2013-11-23T08:26:50.435Z</time>
      </trkpt>
      <trkpt lat="44.15741" lon="4.70889">
        <ele>146.1</ele>
        <time>2013-11-23T08:26:51.437Z</time>
      </trkpt>
      <trkpt lat="44.15748" lon="4.70893">
        <ele>146</ele>
        <time>2013-11-23T08:26:53.435Z</time>
      </trkpt>
      <trkpt lat="44.15751" lon="4.70895">
        <ele>146.1</ele>
        <time>2013-11-23T08:26:54.446Z</time>
      </trkpt>
      <trkpt lat="44.15759" lon="4.709">
        <ele>146.3</ele>
        <time>2013-11-23T08:26:56.436Z</time>
      </trkpt>
      <trkpt lat="44.15766" lon="4.70904">
        <ele>146.2</ele>
        <time>2013-11-23T08:26:58.433Z</time>
      </trkpt>
      <trkpt lat="44.15769" lon="4.70906">
        <ele>146.2</ele>
        <time>2013-11-23T08:26:59.433Z</time>
      </trkpt>
      <trkpt lat="44.15777" lon="4.70911">
        <ele>146.3</ele>
        <time>2013-11-23T08:27:01.429Z</time>
      </trkpt>
      <trkpt lat="44.15781" lon="4.70914">
        <ele>146.2</ele>
        <time>2013-11-23T08:27:02.432Z</time>
      </trkpt>
      <trkpt lat="44.15785" lon="4.70916">
        <ele>146.1</ele>
        <time>2013-11-23T08:27:03.434Z</time>
      </trkpt>
      <trkpt lat="44.15792" lon="4.7092">
        <ele>146.2</ele>
        <time>2013-11-23T08:27:05.476Z</time>
      </trkpt>
      <trkpt lat="44.15798" lon="4.70921">
        <ele>146.3</ele>
        <time>2013-11-23T08:27:07.428Z</time>
      </trkpt>
      <trkpt lat="44.15801" lon="4.70922">
        <ele>146.4</ele>
        <time>2013-11-23T08:27:08.432Z</time>
      </trkpt>
      <trkpt lat="44.1581" lon="4.70924">
        <ele>146.2</ele>
        <time>2013-11-23T08:27:11.423Z</time>
      </trkpt>
      <trkpt lat="44.15813" lon="4.70924">
        <ele>146.4</ele>
        <time>2013-11-23T08:27:12.427Z</time>
      </trkpt>
      <trkpt lat="44.15819" lon="4.70926">
        <ele>146.5</ele>
        <time>2013-11-23T08:27:14.433Z</time>
      </trkpt>
      <trkpt lat="44.15825" lon="4.70927">
        <ele>146.3</ele>
        <time>2013-11-23T08:27:16.430Z</time>
      </trkpt>
      <trkpt lat="44.15831" lon="4.70926">
        <ele>146.2</ele>
        <time>2013-11-23T08:27:18.433Z</time>
      </trkpt>
      <trkpt lat="44.15834" lon="4.70925">
        <ele>146.1</ele>
        <time>2013-11-23T08:27:19.433Z</time>
      </trkpt>
      <trkpt lat="44.15839" lon="4.70921">
        <ele>146.5</ele>
        <time>2013-11-23T08:27:21.435Z</time>
      </trkpt>
      <trkpt lat="44.15844" lon="4.70916">
        <ele>147.5</ele>
        <time>2013-11-23T08:27:23.433Z</time>
      </trkpt>
      <trkpt lat="44.15849" lon="4.7091">
        <ele>147.4</ele>
        <time>2013-11-23T08:27:25.436Z</time>
      </trkpt>
      <trkpt lat="44.15853" lon="4.70904">
        <ele>147.4</ele>
        <time>2013-11-23T08:27:27.434Z</time>
      </trkpt>
      <trkpt lat="44.15858" lon="4.70897">
        <ele>147.9</ele>
        <time>2013-11-23T08:27:29.441Z</time>
      </trkpt>
      <trkpt lat="44.15862" lon="4.7089">
        <ele>148.3</ele>
        <time>2013-11-23T08:27:31.428Z</time>
      </trkpt>
      <trkpt lat="44.15867" lon="4.70883">
        <ele>148.4</ele>
        <time>2013-11-23T08:27:33.421Z</time>
      </trkpt>
      <trkpt lat="44.15869" lon="4.7088">
        <ele>147.9</ele>
        <time>2013-11-23T08:27:34.433Z</time>
      </trkpt>
      <trkpt lat="44.15871" lon="4.70876">
        <ele>147.2</ele>
        <time>2013-11-23T08:27:35.440Z</time>
      </trkpt>
      <trkpt lat="44.15876" lon="4.70869">
        <ele>149.5</ele>
        <time>2013-11-23T08:27:37.439Z</time>
      </trkpt>
      <trkpt lat="44.15881" lon="4.70862">
        <ele>148.8</ele>
        <time>2013-11-23T08:27:39.437Z</time>
      </trkpt>
      <trkpt lat="44.15885" lon="4.70859">
        <ele>148.5</ele>
        <time>2013-11-23T08:27:40.440Z</time>
      </trkpt>
      <trkpt lat="44.15891" lon="4.70854">
        <ele>150.4</ele>
        <time>2013-11-23T08:27:42.441Z</time>
      </trkpt>
      <trkpt lat="44.15899" lon="4.70863">
        <ele>148.4</ele>
        <time>2013-11-23T08:27:44.419Z</time>
      </trkpt>
      <trkpt lat="44.15905" lon="4.70871">
        <ele>148.9</ele>
        <time>2013-11-23T08:27:46.466Z</time>
      </trkpt>
      <trkpt lat="44.15911" lon="4.70875">
        <ele>149.5</ele>
        <time>2013-11-23T08:27:48.479Z</time>
      </trkpt>
      <trkpt lat="44.15917" lon="4.70877">
        <ele>149.4</ele>
        <time>2013-11-23T08:27:50.441Z</time>
      </trkpt>
      <trkpt lat="44.15924" lon="4.70876">
        <ele>149.7</ele>
        <time>2013-11-23T08:27:52.431Z</time>
      </trkpt>
      <trkpt lat="44.1593" lon="4.70874">
        <ele>149.5</ele>
        <time>2013-11-23T08:27:54.450Z</time>
      </trkpt>
      <trkpt lat="44.15936" lon="4.7087">
        <ele>150.1</ele>
        <time>2013-11-23T08:27:56.435Z</time>
      </trkpt>
      <trkpt lat="44.15941" lon="4.70866">
        <ele>150.5</ele>
        <time>2013-11-23T08:27:58.435Z</time>
      </trkpt>
      <trkpt lat="44.15944" lon="4.70863">
        <ele>150.9</ele>
        <time>2013-11-23T08:27:59.434Z</time>
      </trkpt>
      <trkpt lat="44.15948" lon="4.70859">
        <ele>151.9</ele>
        <time>2013-11-23T08:28:01.431Z</time>
      </trkpt>
      <trkpt lat="44.15951" lon="4.70856">
        <ele>150.8</ele>
        <time>2013-11-23T08:28:02.434Z</time>
      </trkpt>
      <trkpt lat="44.15958" lon="4.70851">
        <ele>150.9</ele>
        <time>2013-11-23T08:28:04.435Z</time>
      </trkpt>
      <trkpt lat="44.15965" lon="4.70847">
        <ele>150.9</ele>
        <time>2013-11-23T08:28:06.434Z</time>
      </trkpt>
      <trkpt lat="44.15968" lon="4.70845">
        <ele>150.8</ele>
        <time>2013-11-23T08:28:07.439Z</time>
      </trkpt>
      <trkpt lat="44.15974" lon="4.70841">
        <ele>151.3</ele>
        <time>2013-11-23T08:28:09.441Z</time>
      </trkpt>
      <trkpt lat="44.15977" lon="4.70839">
        <ele>151.8</ele>
        <time>2013-11-23T08:28:10.444Z</time>
      </trkpt>
      <trkpt lat="44.15984" lon="4.70836">
        <ele>153.2</ele>
        <time>2013-11-23T08:28:12.427Z</time>
      </trkpt>
      <trkpt lat="44.15992" lon="4.70834">
        <ele>153.8</ele>
        <time>2013-11-23T08:28:14.406Z</time>
      </trkpt>
      <trkpt lat="44.15995" lon="4.70833">
        <ele>153.8</ele>
        <time>2013-11-23T08:28:15.432Z</time>
      </trkpt>
      <trkpt lat="44.16003" lon="4.70832">
        <ele>159.3</ele>
        <time>2013-11-23T08:28:18.440Z</time>
      </trkpt>
      <trkpt lat="44.16006" lon="4.70832">
        <ele>159.2</ele>
        <time>2013-11-23T08:28:19.443Z</time>
      </trkpt>
      <trkpt lat="44.16012" lon="4.70831">
        <ele>159.3</ele>
        <time>2013-11-23T08:28:21.453Z</time>
      </trkpt>
      <trkpt lat="44.16017" lon="4.70831">
        <ele>158.7</ele>
        <time>2013-11-23T08:28:23.440Z</time>
      </trkpt>
      <trkpt lat="44.16023" lon="4.70832">
        <ele>157.8</ele>
        <time>2013-11-23T08:28:25.440Z</time>
      </trkpt>
      <trkpt lat="44.16027" lon="4.70832">
        <ele>157.5</ele>
        <time>2013-11-23T08:28:26.440Z</time>
      </trkpt>
      <trkpt lat="44.16034" lon="4.70833">
        <ele>157.6</ele>
        <time>2013-11-23T08:28:28.437Z</time>
      </trkpt>
      <trkpt lat="44.1604" lon="4.70836">
        <ele>156.5</ele>
        <time>2013-11-23T08:28:30.445Z</time>
      </trkpt>
      <trkpt lat="44.16046" lon="4.70834">
        <ele>156.5</ele>
        <time>2013-11-23T08:28:33.437Z</time>
      </trkpt>
      <trkpt lat="44.1605" lon="4.70832">
        <ele>155.6</ele>
        <time>2013-11-23T08:28:35.436Z</time>
      </trkpt>
      <trkpt lat="44.16058" lon="4.70829">
        <ele>153.5</ele>
        <time>2013-11-23T08:28:38.437Z</time>
      </trkpt>
      <trkpt lat="44.16061" lon="4.70828">
        <ele>153.2</ele>
        <time>2013-11-23T08:28:39.436Z</time>
      </trkpt>
      <trkpt lat="44.16064" lon="4.70827">
        <ele>151.8</ele>
        <time>2013-11-23T08:28:40.439Z</time>
      </trkpt>
      <trkpt lat="44.1607" lon="4.70826">
        <ele>150.7</ele>
        <time>2013-11-23T08:28:42.433Z</time>
      </trkpt>
      <trkpt lat="44.16076" lon="4.70825">
        <ele>149.5</ele>
        <time>2013-11-23T08:28:44.434Z</time>
      </trkpt>
      <trkpt lat="44.16079" lon="4.70823">
        <ele>148.9</ele>
        <time>2013-11-23T08:28:46.436Z</time>
      </trkpt>
      <trkpt lat="44.16081" lon="4.70823">
        <ele>148.6</ele>
        <time>2013-11-23T08:28:50.436Z</time>
      </trkpt>
      <trkpt lat="44.16081" lon="4.70824">
        <ele>148.6</ele>
        <time>2013-11-23T08:28:50.566Z</time>
      </trkpt>
      <trkpt lat="44.1608" lon="4.70824">
        <ele>148.7</ele>
        <time>2013-11-23T08:28:53.448Z</time>
      </trkpt>
      <trkpt lat="44.16079" lon="4.70824">
        <ele>148.5</ele>
        <time>2013-11-23T08:28:54.486Z</time>
      </trkpt>
      <trkpt lat="44.16079" lon="4.70824">
        <ele>148.4</ele>
        <time>2013-11-23T08:28:56.437Z</time>
      </trkpt>
      <trkpt lat="44.1608" lon="4.70824">
        <ele>148.4</ele>
        <time>2013-11-23T08:29:02.584Z</time>
      </trkpt>
      <trkpt lat="44.1609" lon="4.70823">
        <ele>149.2</ele>
        <time>2013-11-23T08:29:06.436Z</time>
      </trkpt>
      <trkpt lat="44.16096" lon="4.70825">
        <ele>148.6</ele>
        <time>2013-11-23T08:29:07.438Z</time>
      </trkpt>
      <trkpt lat="44.16101" lon="4.70825">
        <ele>148.2</ele>
        <time>2013-11-23T08:29:08.437Z</time>
      </trkpt>
      <trkpt lat="44.16113" lon="4.70825">
        <ele>149.4</ele>
        <time>2013-11-23T08:29:10.436Z</time>
      </trkpt>
      <trkpt lat="44.16119" lon="4.70825">
        <ele>150.3</ele>
        <time>2013-11-23T08:29:11.438Z</time>
      </trkpt>
      <trkpt lat="44.16125" lon="4.70825">
        <ele>150.5</ele>
        <time>2013-11-23T08:29:12.439Z</time>
      </trkpt>
      <trkpt lat="44.16133" lon="4.70824">
        <ele>145.8</ele>
        <time>2013-11-23T08:29:16.434Z</time>
      </trkpt>
      <trkpt lat="44.16139" lon="4.70825">
        <ele>143.7</ele>
        <time>2013-11-23T08:29:18.433Z</time>
      </trkpt>
      <trkpt lat="44.16147" lon="4.70826">
        <ele>141.5</ele>
        <time>2013-11-23T08:29:21.434Z</time>
      </trkpt>
      <trkpt lat="44.1615" lon="4.70825">
        <ele>140.8</ele>
        <time>2013-11-23T08:29:22.433Z</time>
      </trkpt>
      <trkpt lat="44.16156" lon="4.70826">
        <ele>142.3</ele>
        <time>2013-11-23T08:29:24.528Z</time>
      </trkpt>
      <trkpt lat="44.16161" lon="4.70826">
        <ele>141.6</ele>
        <time>2013-11-23T08:29:26.439Z</time>
      </trkpt>
      <trkpt lat="44.16169" lon="4.70829">
        <ele>139.4</ele>
        <time>2013-11-23T08:29:31.556Z</time>
      </trkpt>
      <trkpt lat="44.16177" lon="4.70831">
        <ele>137.5</ele>
        <time>2013-11-23T08:29:34.436Z</time>
      </trkpt>
      <trkpt lat="44.16185" lon="4.70836">
        <ele>135.7</ele>
        <time>2013-11-23T08:29:37.437Z</time>
      </trkpt>
      <trkpt lat="44.16187" lon="4.70837">
        <ele>135.4</ele>
        <time>2013-11-23T08:29:38.437Z</time>
      </trkpt>
      <trkpt lat="44.1619" lon="4.70838">
        <ele>134.8</ele>
        <time>2013-11-23T08:29:39.440Z</time>
      </trkpt>
      <trkpt lat="44.16195" lon="4.70843">
        <ele>133.1</ele>
        <time>2013-11-23T08:29:41.438Z</time>
      </trkpt>
      <trkpt lat="44.16202" lon="4.70846">
        <ele>132.2</ele>
        <time>2013-11-23T08:29:43.437Z</time>
      </trkpt>
      <trkpt lat="44.16209" lon="4.70847">
        <ele>131</ele>
        <time>2013-11-23T08:29:45.433Z</time>
      </trkpt>
      <trkpt lat="44.16215" lon="4.70853">
        <ele>130.2</ele>
        <time>2013-11-23T08:29:48.434Z</time>
      </trkpt>
      <trkpt lat="44.16217" lon="4.70853">
        <ele>129.9</ele>
        <time>2013-11-23T08:29:49.434Z</time>
      </trkpt>
      <trkpt lat="44.16223" lon="4.70853">
        <ele>129.4</ele>
        <time>2013-11-23T08:29:51.437Z</time>
      </trkpt>
      <trkpt lat="44.16227" lon="4.70854">
        <ele>129.2</ele>
        <time>2013-11-23T08:29:53.433Z</time>
      </trkpt>
      <trkpt lat="44.1623" lon="4.70842">
        <ele>128.3</ele>
        <time>2013-11-23T08:29:58.558Z</time>
      </trkpt>
      <trkpt lat="44.16229" lon="4.70836">
        <ele>127.8</ele>
        <time>2013-11-23T08:30:01.428Z</time>
      </trkpt>
      <trkpt lat="44.16231" lon="4.70825">
        <ele>128</ele>
        <time>2013-11-23T08:30:06.436Z</time>
      </trkpt>
      <trkpt lat="44.16231" lon="4.70822">
        <ele>127.9</ele>
        <time>2013-11-23T08:30:08.453Z</time>
      </trkpt>
      <trkpt lat="44.16227" lon="4.70814">
        <ele>127.9</ele>
        <time>2013-11-23T08:30:12.436Z</time>
      </trkpt>
      <trkpt lat="44.16226" lon="4.70809">
        <ele>128</ele>
        <time>2013-11-23T08:30:14.435Z</time>
      </trkpt>
      <trkpt lat="44.16224" lon="4.70801">
        <ele>128.9</ele>
        <time>2013-11-23T08:30:18.586Z</time>
      </trkpt>
      <trkpt lat="44.16224" lon="4.70796">
        <ele>129.7</ele>
        <time>2013-11-23T08:30:21.434Z</time>
      </trkpt>
      <trkpt lat="44.16226" lon="4.70789">
        <ele>129.7</ele>
        <time>2013-11-23T08:30:25.573Z</time>
      </trkpt>
      <trkpt lat="44.16224" lon="4.70781">
        <ele>129.7</ele>
        <time>2013-11-23T08:30:28.434Z</time>
      </trkpt>
      <trkpt lat="44.16221" lon="4.70769">
        <ele>129.1</ele>
        <time>2013-11-23T08:30:32.430Z</time>
      </trkpt>
      <trkpt lat="44.16221" lon="4.70767">
        <ele>128.7</ele>
        <time>2013-11-23T08:30:33.433Z</time>
      </trkpt>
      <trkpt lat="44.16219" lon="4.70758">
        <ele>128.4</ele>
        <time>2013-11-23T08:30:42.438Z</time>
      </trkpt>
      <trkpt lat="44.16222" lon="4.70735">
        <ele>129.7</ele>
        <time>2013-11-23T08:30:46.443Z</time>
      </trkpt>
      <trkpt lat="44.16222" lon="4.70724">
        <ele>130.8</ele>
        <time>2013-11-23T08:30:48.441Z</time>
      </trkpt>
      <trkpt lat="44.16222" lon="4.70718">
        <ele>131.4</ele>
        <time>2013-11-23T08:30:50.435Z</time>
      </trkpt>
      <trkpt lat="44.1622" lon="4.70709">
        <ele>135.6</ele>
        <time>2013-11-23T08:31:06.552Z</time>
      </trkpt>
      <trkpt lat="44.16216" lon="4.70695">
        <ele>136.9</ele>
        <time>2013-11-23T08:31:15.433Z</time>
      </trkpt>
      <trkpt lat="44.16216" lon="4.70687">
        <ele>138.2</ele>
        <time>2013-11-23T08:31:20.546Z</time>
      </trkpt>
      <trkpt lat="44.16216" lon="4.70675">
        <ele>138.7</ele>
        <time>2013-11-23T08:31:23.441Z</time>
      </trkpt>
      <trkpt lat="44.16214" lon="4.70667">
        <ele>137.1</ele>
        <time>2013-11-23T08:31:26.434Z</time>
      </trkpt>
      <trkpt lat="44.16214" lon="4.70662">
        <ele>137</ele>
        <time>2013-11-23T08:31:27.434Z</time>
      </trkpt>
      <trkpt lat="44.16213" lon="4.70651">
        <ele>140.2</ele>
        <time>2013-11-23T08:31:29.455Z</time>
      </trkpt>
      <trkpt lat="44.1621" lon="4.70639">
        <ele>138.9</ele>
        <time>2013-11-23T08:31:31.442Z</time>
      </trkpt>
      <trkpt lat="44.16209" lon="4.70634">
        <ele>139.3</ele>
        <time>2013-11-23T08:31:32.445Z</time>
      </trkpt>
      <trkpt lat="44.16207" lon="4.70623">
        <ele>139.5</ele>
        <time>2013-11-23T08:31:34.441Z</time>
      </trkpt>
      <trkpt lat="44.162" lon="4.70609">
        <ele>139.4</ele>
        <time>2013-11-23T08:31:36.440Z</time>
      </trkpt>
      <trkpt lat="44.16196" lon="4.70602">
        <ele>138.8</ele>
        <time>2013-11-23T08:31:37.441Z</time>
      </trkpt>
      <trkpt lat="44.16193" lon="4.70595">
        <ele>137.4</ele>
        <time>2013-11-23T08:31:38.443Z</time>
      </trkpt>
      <trkpt lat="44.16189" lon="4.70579">
        <ele>137.4</ele>
        <time>2013-11-23T08:31:40.438Z</time>
      </trkpt>
      <trkpt lat="44.16189" lon="4.70571">
        <ele>137.7</ele>
        <time>2013-11-23T08:31:41.459Z</time>
      </trkpt>
      <trkpt lat="44.16191" lon="4.70564">
        <ele>138.2</ele>
        <time>2013-11-23T08:31:42.463Z</time>
      </trkpt>
      <trkpt lat="44.16195" lon="4.70555">
        <ele>137.7</ele>
        <time>2013-11-23T08:31:44.433Z</time>
      </trkpt>
      <trkpt lat="44.16197" lon="4.7055">
        <ele>138</ele>
        <time>2013-11-23T08:31:45.437Z</time>
      </trkpt>
      <trkpt lat="44.162" lon="4.7054">
        <ele>138.3</ele>
        <time>2013-11-23T08:31:48.434Z</time>
      </trkpt>
      <trkpt lat="44.16201" lon="4.70538">
        <ele>137.9</ele>
        <time>2013-11-23T08:31:49.438Z</time>
      </trkpt>
      <trkpt lat="44.16201" lon="4.70527">
        <ele>138</ele>
        <time>2013-11-23T08:31:53.574Z</time>
      </trkpt>
      <trkpt lat="44.162" lon="4.70516">
        <ele>138.5</ele>
        <time>2013-11-23T08:31:56.447Z</time>
      </trkpt>
      <trkpt lat="44.16199" lon="4.70506">
        <ele>138.7</ele>
        <time>2013-11-23T08:32:00.329Z</time>
      </trkpt>
      <trkpt lat="44.16198" lon="4.70498">
        <ele>138.6</ele>
        <time>2013-11-23T08:32:02.213Z</time>
      </trkpt>
      <trkpt lat="44.16196" lon="4.70488">
        <ele>139.3</ele>
        <time>2013-11-23T08:32:05.208Z</time>
      </trkpt>
      <trkpt lat="44.16195" lon="4.70485">
        <ele>139.6</ele>
        <time>2013-11-23T08:32:06.213Z</time>
      </trkpt>
      <trkpt lat="44.16194" lon="4.70477">
        <ele>141.3</ele>
        <time>2013-11-23T08:32:10.479Z</time>
      </trkpt>
      <trkpt lat="44.16193" lon="4.70468">
        <ele>141.8</ele>
        <time>2013-11-23T08:32:13.213Z</time>
      </trkpt>
      <trkpt lat="44.16192" lon="4.70465">
        <ele>142</ele>
        <time>2013-11-23T08:32:14.280Z</time>
      </trkpt>
      <trkpt lat="44.16191" lon="4.70455">
        <ele>142</ele>
        <time>2013-11-23T08:32:16.218Z</time>
      </trkpt>
      <trkpt lat="44.16191" lon="4.70445">
        <ele>141.9</ele>
        <time>2013-11-23T08:32:19.219Z</time>
      </trkpt>
      <trkpt lat="44.16189" lon="4.70439">
        <ele>142.8</ele>
        <time>2013-11-23T08:32:21.217Z</time>
      </trkpt>
      <trkpt lat="44.1619" lon="4.70431">
        <ele>142.3</ele>
        <time>2013-11-23T08:32:23.217Z</time>
      </trkpt>
      <trkpt lat="44.1619" lon="4.70422">
        <ele>142.7</ele>
        <time>2013-11-23T08:32:25.212Z</time>
      </trkpt>
      <trkpt lat="44.1619" lon="4.70411">
        <ele>145</ele>
        <time>2013-11-23T08:32:28.210Z</time>
      </trkpt>
      <trkpt lat="44.16189" lon="4.70408">
        <ele>145.2</ele>
        <time>2013-11-23T08:32:29.210Z</time>
      </trkpt>
      <trkpt lat="44.1619" lon="4.70396">
        <ele>146.8</ele>
        <time>2013-11-23T08:32:32.209Z</time>
      </trkpt>
      <trkpt lat="44.16191" lon="4.70392">
        <ele>147.4</ele>
        <time>2013-11-23T08:32:33.209Z</time>
      </trkpt>
      <trkpt lat="44.16192" lon="4.70382">
        <ele>147.9</ele>
        <time>2013-11-23T08:32:35.210Z</time>
      </trkpt>
      <trkpt lat="44.16191" lon="4.70378">
        <ele>146.7</ele>
        <time>2013-11-23T08:32:36.210Z</time>
      </trkpt>
      <trkpt lat="44.1619" lon="4.70369">
        <ele>147.5</ele>
        <time>2013-11-23T08:32:38.210Z</time>
      </trkpt>
      <trkpt lat="44.16189" lon="4.70365">
        <ele>147.5</ele>
        <time>2013-11-23T08:32:39.212Z</time>
      </trkpt>
      <trkpt lat="44.16188" lon="4.70352">
        <ele>147.7</ele>
        <time>2013-11-23T08:32:42.212Z</time>
      </trkpt>
      <trkpt lat="44.16187" lon="4.70349">
        <ele>148</ele>
        <time>2013-11-23T08:32:43.215Z</time>
      </trkpt>
      <trkpt lat="44.16187" lon="4.70341">
        <ele>147.6</ele>
        <time>2013-11-23T08:32:44.737Z</time>
      </trkpt>
      <trkpt lat="44.16185" lon="4.70334">
        <ele>148.2</ele>
        <time>2013-11-23T08:32:46.581Z</time>
      </trkpt>
      <trkpt lat="44.16183" lon="4.70322">
        <ele>148.3</ele>
        <time>2013-11-23T08:32:49.581Z</time>
      </trkpt>
      <trkpt lat="44.16181" lon="4.70313">
        <ele>150.1</ele>
        <time>2013-11-23T08:32:51.579Z</time>
      </trkpt>
      <trkpt lat="44.16179" lon="4.70302">
        <ele>151</ele>
        <time>2013-11-23T08:32:54.594Z</time>
      </trkpt>
      <trkpt lat="44.16177" lon="4.70295">
        <ele>151</ele>
        <time>2013-11-23T08:32:56.583Z</time>
      </trkpt>
      <trkpt lat="44.16174" lon="4.70283">
        <ele>151</ele>
        <time>2013-11-23T08:32:59.576Z</time>
      </trkpt>
      <trkpt lat="44.16175" lon="4.70279">
        <ele>150.7</ele>
        <time>2013-11-23T08:33:00.576Z</time>
      </trkpt>
      <trkpt lat="44.16174" lon="4.7027">
        <ele>151.2</ele>
        <time>2013-11-23T08:33:02.577Z</time>
      </trkpt>
      <trkpt lat="44.16174" lon="4.70262">
        <ele>151.4</ele>
        <time>2013-11-23T08:33:04.576Z</time>
      </trkpt>
      <trkpt lat="44.16177" lon="4.70251">
        <ele>147.6</ele>
        <time>2013-11-23T08:33:07.586Z</time>
      </trkpt>
      <trkpt lat="44.1618" lon="4.70241">
        <ele>147.4</ele>
        <time>2013-11-23T08:33:09.579Z</time>
      </trkpt>
      <trkpt lat="44.16183" lon="4.7023">
        <ele>148.9</ele>
        <time>2013-11-23T08:33:12.576Z</time>
      </trkpt>
      <trkpt lat="44.16183" lon="4.70226">
        <ele>149.2</ele>
        <time>2013-11-23T08:33:13.576Z</time>
      </trkpt>
      <trkpt lat="44.16184" lon="4.70217">
        <ele>149.9</ele>
        <time>2013-11-23T08:33:15.575Z</time>
      </trkpt>
      <trkpt lat="44.16184" lon="4.70213">
        <ele>150.1</ele>
        <time>2013-11-23T08:33:16.578Z</time>
      </trkpt>
      <trkpt lat="44.16181" lon="4.70201">
        <ele>152.4</ele>
        <time>2013-11-23T08:33:19.576Z</time>
      </trkpt>
      <trkpt lat="44.16181" lon="4.70197">
        <ele>152.6</ele>
        <time>2013-11-23T08:33:20.578Z</time>
      </trkpt>
      <trkpt lat="44.16181" lon="4.70189">
        <ele>152.7</ele>
        <time>2013-11-23T08:33:22.580Z</time>
      </trkpt>
      <trkpt lat="44.16181" lon="4.70183">
        <ele>154.4</ele>
        <time>2013-11-23T08:33:24.580Z</time>
      </trkpt>
      <trkpt lat="44.16179" lon="4.70173">
        <ele>155.5</ele>
        <time>2013-11-23T08:33:28.579Z</time>
      </trkpt>
      <trkpt lat="44.1618" lon="4.7017">
        <ele>155.4</ele>
        <time>2013-11-23T08:33:29.579Z</time>
      </trkpt>
      <trkpt lat="44.16177" lon="4.70159">
        <ele>155.1</ele>
        <time>2013-11-23T08:33:33.578Z</time>
      </trkpt>
      <trkpt lat="44.16177" lon="4.70156">
        <ele>155.2</ele>
        <time>2013-11-23T08:33:34.577Z</time>
      </trkpt>
      <trkpt lat="44.16173" lon="4.70145">
        <ele>156.5</ele>
        <time>2013-11-23T08:33:38.688Z</time>
      </trkpt>
      <trkpt lat="44.16173" lon="4.70138">
        <ele>156.4</ele>
        <time>2013-11-23T08:33:41.578Z</time>
      </trkpt>
      <trkpt lat="44.16172" lon="4.7013">
        <ele>157.2</ele>
        <time>2013-11-23T08:33:45.692Z</time>
      </trkpt>
      <trkpt lat="44.16169" lon="4.70122">
        <ele>157.3</ele>
        <time>2013-11-23T08:33:48.578Z</time>
      </trkpt>
      <trkpt lat="44.16165" lon="4.70112">
        <ele>157</ele>
        <time>2013-11-23T08:33:52.711Z</time>
      </trkpt>
      <trkpt lat="44.16161" lon="4.70105">
        <ele>157.6</ele>
        <time>2013-11-23T08:33:55.572Z</time>
      </trkpt>
      <trkpt lat="44.16157" lon="4.70097">
        <ele>163.9</ele>
        <time>2013-11-23T08:34:00.676Z</time>
      </trkpt>
      <trkpt lat="44.16155" lon="4.70093">
        <ele>166.1</ele>
        <time>2013-11-23T08:34:03.580Z</time>
      </trkpt>
      <trkpt lat="44.16153" lon="4.70086">
        <ele>167</ele>
        <time>2013-11-23T08:34:06.586Z</time>
      </trkpt>
      <trkpt lat="44.1615" lon="4.7008">
        <ele>167.7</ele>
        <time>2013-11-23T08:34:08.581Z</time>
      </trkpt>
      <trkpt lat="44.16143" lon="4.70073">
        <ele>168.7</ele>
        <time>2013-11-23T08:34:12.684Z</time>
      </trkpt>
      <trkpt lat="44.1614" lon="4.70069">
        <ele>168.6</ele>
        <time>2013-11-23T08:34:15.406Z</time>
      </trkpt>
      <trkpt lat="44.16134" lon="4.7006">
        <ele>171.6</ele>
        <time>2013-11-23T08:34:24.400Z</time>
      </trkpt>
      <trkpt lat="44.16126" lon="4.70055">
        <ele>171.5</ele>
        <time>2013-11-23T08:34:28.407Z</time>
      </trkpt>
      <trkpt lat="44.1612" lon="4.70051">
        <ele>169.9</ele>
        <time>2013-11-23T08:34:31.407Z</time>
      </trkpt>
      <trkpt lat="44.16118" lon="4.70049">
        <ele>169.8</ele>
        <time>2013-11-23T08:34:33.408Z</time>
      </trkpt>
      <trkpt lat="44.16115" lon="4.70047">
        <ele>175.2</ele>
        <time>2013-11-23T08:34:38.539Z</time>
      </trkpt>
      <trkpt lat="44.16106" lon="4.70046">
        <ele>175.8</ele>
        <time>2013-11-23T08:34:41.404Z</time>
      </trkpt>
      <trkpt lat="44.161" lon="4.70042">
        <ele>176.6</ele>
        <time>2013-11-23T08:34:46.410Z</time>
      </trkpt>
      <trkpt lat="44.16097" lon="4.70039">
        <ele>176.2</ele>
        <time>2013-11-23T08:34:48.422Z</time>
      </trkpt>
      <trkpt lat="44.16089" lon="4.70034">
        <ele>175.7</ele>
        <time>2013-11-23T08:34:54.551Z</time>
      </trkpt>
      <trkpt lat="44.16088" lon="4.70033">
        <ele>175.6</ele>
        <time>2013-11-23T08:34:55.443Z</time>
      </trkpt>
      <trkpt lat="44.1608" lon="4.70026">
        <ele>175.1</ele>
        <time>2013-11-23T08:35:01.396Z</time>
      </trkpt>
      <trkpt lat="44.1608" lon="4.70025">
        <ele>175.1</ele>
        <time>2013-11-23T08:35:01.513Z</time>
      </trkpt>
      <trkpt lat="44.16079" lon="4.70013">
        <ele>177.5</ele>
        <time>2013-11-23T08:35:06.517Z</time>
      </trkpt>
      <trkpt lat="44.16081" lon="4.70006">
        <ele>178.2</ele>
        <time>2013-11-23T08:35:09.400Z</time>
      </trkpt>
      <trkpt lat="44.16084" lon="4.69997">
        <ele>177.8</ele>
        <time>2013-11-23T08:35:13.517Z</time>
      </trkpt>
      <trkpt lat="44.16087" lon="4.6999">
        <ele>177.2</ele>
        <time>2013-11-23T08:35:16.401Z</time>
      </trkpt>
      <trkpt lat="44.16088" lon="4.69981">
        <ele>175</ele>
        <time>2013-11-23T08:35:22.520Z</time>
      </trkpt>
      <trkpt lat="44.16088" lon="4.69973">
        <ele>178.7</ele>
        <time>2013-11-23T08:35:26.404Z</time>
      </trkpt>
      <trkpt lat="44.16087" lon="4.69966">
        <ele>181</ele>
        <time>2013-11-23T08:35:30.517Z</time>
      </trkpt>
      <trkpt lat="44.16085" lon="4.69959">
        <ele>181.8</ele>
        <time>2013-11-23T08:35:33.404Z</time>
      </trkpt>
      <trkpt lat="44.16085" lon="4.69949">
        <ele>183.6</ele>
        <time>2013-11-23T08:35:42.406Z</time>
      </trkpt>
      <trkpt lat="44.16082" lon="4.69945">
        <ele>184.4</ele>
        <time>2013-11-23T08:35:46.422Z</time>
      </trkpt>
      <trkpt lat="44.16075" lon="4.69939">
        <ele>185.2</ele>
        <time>2013-11-23T08:35:51.519Z</time>
      </trkpt>
      <trkpt lat="44.16073" lon="4.69936">
        <ele>185.1</ele>
        <time>2013-11-23T08:35:54.443Z</time>
      </trkpt>
      <trkpt lat="44.16068" lon="4.6993">
        <ele>185</ele>
        <time>2013-11-23T08:35:59.515Z</time>
      </trkpt>
      <trkpt lat="44.16065" lon="4.69927">
        <ele>185</ele>
        <time>2013-11-23T08:36:02.406Z</time>
      </trkpt>
      <trkpt lat="44.16062" lon="4.69916">
        <ele>185</ele>
        <time>2013-11-23T08:36:13.406Z</time>
      </trkpt>
      <trkpt lat="44.1606" lon="4.69908">
        <ele>185.4</ele>
        <time>2013-11-23T08:36:18.407Z</time>
      </trkpt>
      <trkpt lat="44.16059" lon="4.69896">
        <ele>189.5</ele>
        <time>2013-11-23T08:36:29.406Z</time>
      </trkpt>
      <trkpt lat="44.16057" lon="4.69885">
        <ele>190.6</ele>
        <time>2013-11-23T08:36:34.421Z</time>
      </trkpt>
      <trkpt lat="44.16053" lon="4.69877">
        <ele>190.7</ele>
        <time>2013-11-23T08:36:38.402Z</time>
      </trkpt>
      <trkpt lat="44.16052" lon="4.69872">
        <ele>190.7</ele>
        <time>2013-11-23T08:36:40.404Z</time>
      </trkpt>
      <trkpt lat="44.16048" lon="4.69862">
        <ele>189.8</ele>
        <time>2013-11-23T08:36:44.403Z</time>
      </trkpt>
      <trkpt lat="44.16046" lon="4.69859">
        <ele>189.7</ele>
        <time>2013-11-23T08:36:45.403Z</time>
      </trkpt>
      <trkpt lat="44.16042" lon="4.69851">
        <ele>198.5</ele>
        <time>2013-11-23T08:36:52.462Z</time>
      </trkpt>
      <trkpt lat="44.16039" lon="4.69843">
        <ele>198.6</ele>
        <time>2013-11-23T08:36:56.482Z</time>
      </trkpt>
      <trkpt lat="44.16038" lon="4.69833">
        <ele>197.1</ele>
        <time>2013-11-23T08:36:59.404Z</time>
      </trkpt>
      <trkpt lat="44.16037" lon="4.69827">
        <ele>197.2</ele>
        <time>2013-11-23T08:37:01.399Z</time>
      </trkpt>
      <trkpt lat="44.16039" lon="4.69819">
        <ele>197.5</ele>
        <time>2013-11-23T08:37:05.533Z</time>
      </trkpt>
      <trkpt lat="44.16041" lon="4.69814">
        <ele>197.5</ele>
        <time>2013-11-23T08:37:08.404Z</time>
      </trkpt>
      <trkpt lat="44.16043" lon="4.69806">
        <ele>200.7</ele>
        <time>2013-11-23T08:37:12.517Z</time>
      </trkpt>
      <trkpt lat="44.16045" lon="4.69801">
        <ele>201.6</ele>
        <time>2013-11-23T08:37:15.403Z</time>
      </trkpt>
      <trkpt lat="44.16049" lon="4.69794">
        <ele>202.1</ele>
        <time>2013-11-23T08:37:19.514Z</time>
      </trkpt>
      <trkpt lat="44.16053" lon="4.69787">
        <ele>202.4</ele>
        <time>2013-11-23T08:37:22.401Z</time>
      </trkpt>
      <trkpt lat="44.16057" lon="4.69792">
        <ele>201.7</ele>
        <time>2013-11-23T08:37:25.401Z</time>
      </trkpt>
      <trkpt lat="44.16064" lon="4.69801">
        <ele>199.5</ele>
        <time>2013-11-23T08:37:27.400Z</time>
      </trkpt>
      <trkpt lat="44.16068" lon="4.69806">
        <ele>198.7</ele>
        <time>2013-11-23T08:37:28.404Z</time>
      </trkpt>
      <trkpt lat="44.16077" lon="4.69816">
        <ele>198.8</ele>
        <time>2013-11-23T08:37:30.400Z</time>
      </trkpt>
      <trkpt lat="44.16082" lon="4.6982">
        <ele>198.3</ele>
        <time>2013-11-23T08:37:31.400Z</time>
      </trkpt>
      <trkpt lat="44.16091" lon="4.69829">
        <ele>198.6</ele>
        <time>2013-11-23T08:37:33.400Z</time>
      </trkpt>
      <trkpt lat="44.16096" lon="4.69834">
        <ele>197.9</ele>
        <time>2013-11-23T08:37:34.400Z</time>
      </trkpt>
      <trkpt lat="44.161" lon="4.69837">
        <ele>197.9</ele>
        <time>2013-11-23T08:37:35.400Z</time>
      </trkpt>
      <trkpt lat="44.16105" lon="4.6984">
        <ele>198</ele>
        <time>2013-11-23T08:37:36.400Z</time>
      </trkpt>
      <trkpt lat="44.16114" lon="4.69844">
        <ele>197.9</ele>
        <time>2013-11-23T08:37:38.390Z</time>
      </trkpt>
      <trkpt lat="44.16121" lon="4.69842">
        <ele>198</ele>
        <time>2013-11-23T08:37:41.403Z</time>
      </trkpt>
      <trkpt lat="44.16124" lon="4.69841">
        <ele>198.1</ele>
        <time>2013-11-23T08:37:42.405Z</time>
      </trkpt>
      <trkpt lat="44.16131" lon="4.69834">
        <ele>197.3</ele>
        <time>2013-11-23T08:37:45.405Z</time>
      </trkpt>
      <trkpt lat="44.16133" lon="4.69841">
        <ele>194.1</ele>
        <time>2013-11-23T08:37:47.403Z</time>
      </trkpt>
      <trkpt lat="44.16135" lon="4.69851">
        <ele>192.9</ele>
        <time>2013-11-23T08:37:49.403Z</time>
      </trkpt>
      <trkpt lat="44.16135" lon="4.69856">
        <ele>193.3</ele>
        <time>2013-11-23T08:37:50.403Z</time>
      </trkpt>
      <trkpt lat="44.16137" lon="4.69868">
        <ele>193.7</ele>
        <time>2013-11-23T08:37:53.403Z</time>
      </trkpt>
      <trkpt lat="44.1614" lon="4.69874">
        <ele>193.3</ele>
        <time>2013-11-23T08:37:55.402Z</time>
      </trkpt>
      <trkpt lat="44.16146" lon="4.69878">
        <ele>194.7</ele>
        <time>2013-11-23T08:37:59.397Z</time>
      </trkpt>
      <trkpt lat="44.16148" lon="4.6988">
        <ele>194.5</ele>
        <time>2013-11-23T08:38:00.403Z</time>
      </trkpt>
      <trkpt lat="44.16149" lon="4.69888">
        <ele>195.2</ele>
        <time>2013-11-23T08:38:03.403Z</time>
      </trkpt>
      <trkpt lat="44.16149" lon="4.69892">
        <ele>195.2</ele>
        <time>2013-11-23T08:38:04.405Z</time>
      </trkpt>
      <trkpt lat="44.1615" lon="4.69902">
        <ele>194.6</ele>
        <time>2013-11-23T08:38:07.404Z</time>
      </trkpt>
      <trkpt lat="44.16152" lon="4.69906">
        <ele>194.4</ele>
        <time>2013-11-23T08:38:08.404Z</time>
      </trkpt>
      <trkpt lat="44.16156" lon="4.69914">
        <ele>193.7</ele>
        <time>2013-11-23T08:38:10.405Z</time>
      </trkpt>
      <trkpt lat="44.16163" lon="4.69919">
        <ele>192.1</ele>
        <time>2013-11-23T08:38:12.403Z</time>
      </trkpt>
      <trkpt lat="44.1617" lon="4.69923">
        <ele>190.9</ele>
        <time>2013-11-23T08:38:14.403Z</time>
      </trkpt>
      <trkpt lat="44.16173" lon="4.69927">
        <ele>190.3</ele>
        <time>2013-11-23T08:38:15.403Z</time>
      </trkpt>
      <trkpt lat="44.16178" lon="4.69939">
        <ele>188.9</ele>
        <time>2013-11-23T08:38:17.402Z</time>
      </trkpt>
      <trkpt lat="44.16182" lon="4.69946">
        <ele>188.4</ele>
        <time>2013-11-23T08:38:19.405Z</time>
      </trkpt>
      <trkpt lat="44.16187" lon="4.69947">
        <ele>188.2</ele>
        <time>2013-11-23T08:38:21.403Z</time>
      </trkpt>
      <trkpt lat="44.16194" lon="4.69951">
        <ele>187.9</ele>
        <time>2013-11-23T08:38:24.405Z</time>
      </trkpt>
      <trkpt lat="44.16198" lon="4.69956">
        <ele>187.5</ele>
        <time>2013-11-23T08:38:26.404Z</time>
      </trkpt>
      <trkpt lat="44.16204" lon="4.69962">
        <ele>187.4</ele>
        <time>2013-11-23T08:38:29.403Z</time>
      </trkpt>
      <trkpt lat="44.1621" lon="4.69963">
        <ele>187.4</ele>
        <time>2013-11-23T08:38:31.402Z</time>
      </trkpt>
      <trkpt lat="44.16212" lon="4.69965">
        <ele>186.5</ele>
        <time>2013-11-23T08:38:32.409Z</time>
      </trkpt>
      <trkpt lat="44.16218" lon="4.69969">
        <ele>186.3</ele>
        <time>2013-11-23T08:38:34.399Z</time>
      </trkpt>
      <trkpt lat="44.16223" lon="4.69966">
        <ele>186.3</ele>
        <time>2013-11-23T08:38:36.407Z</time>
      </trkpt>
      <trkpt lat="44.16227" lon="4.69965">
        <ele>186.2</ele>
        <time>2013-11-23T08:38:38.402Z</time>
      </trkpt>
      <trkpt lat="44.16236" lon="4.69966">
        <ele>184</ele>
        <time>2013-11-23T08:38:41.423Z</time>
      </trkpt>
      <trkpt lat="44.16243" lon="4.69963">
        <ele>182.7</ele>
        <time>2013-11-23T08:38:43.404Z</time>
      </trkpt>
      <trkpt lat="44.16246" lon="4.69963">
        <ele>182.4</ele>
        <time>2013-11-23T08:38:44.410Z</time>
      </trkpt>
      <trkpt lat="44.16251" lon="4.69971">
        <ele>181.7</ele>
        <time>2013-11-23T08:38:46.408Z</time>
      </trkpt>
      <trkpt lat="44.16259" lon="4.6997">
        <ele>187.4</ele>
        <time>2013-11-23T08:38:51.670Z</time>
      </trkpt>
      <trkpt lat="44.16261" lon="4.69971">
        <ele>189.3</ele>
        <time>2013-11-23T08:38:54.403Z</time>
      </trkpt>
      <trkpt lat="44.16265" lon="4.69978">
        <ele>188.8</ele>
        <time>2013-11-23T08:38:58.544Z</time>
      </trkpt>
      <trkpt lat="44.16272" lon="4.69984">
        <ele>189.7</ele>
        <time>2013-11-23T08:39:01.403Z</time>
      </trkpt>
      <trkpt lat="44.1628" lon="4.69982">
        <ele>187.1</ele>
        <time>2013-11-23T08:39:04.403Z</time>
      </trkpt>
      <trkpt lat="44.16282" lon="4.69981">
        <ele>186.7</ele>
        <time>2013-11-23T08:39:05.403Z</time>
      </trkpt>
      <trkpt lat="44.16279" lon="4.69972">
        <ele>184.4</ele>
        <time>2013-11-23T08:39:08.403Z</time>
      </trkpt>
      <trkpt lat="44.16277" lon="4.69968">
        <ele>184.2</ele>
        <time>2013-11-23T08:39:09.403Z</time>
      </trkpt>
      <trkpt lat="44.1628" lon="4.69963">
        <ele>184.5</ele>
        <time>2013-11-23T08:39:12.403Z</time>
      </trkpt>
      <trkpt lat="44.16285" lon="4.69958">
        <ele>184.3</ele>
        <time>2013-11-23T08:39:14.403Z</time>
      </trkpt>
      <trkpt lat="44.16287" lon="4.69956">
        <ele>182.8</ele>
        <time>2013-11-23T08:39:15.405Z</time>
      </trkpt>
      <trkpt lat="44.16293" lon="4.69952">
        <ele>181.6</ele>
        <time>2013-11-23T08:39:17.403Z</time>
      </trkpt>
      <trkpt lat="44.16293" lon="4.69952">
        <ele>181</ele>
        <time>2013-11-23T08:39:20.404Z</time>
      </trkpt>
      <trkpt lat="44.16293" lon="4.69952">
        <ele>181</ele>
        <time>2013-11-23T08:39:21.403Z</time>
      </trkpt>
      <trkpt lat="44.16293" lon="4.69952">
        <ele>180.8</ele>
        <time>2013-11-23T08:39:22.409Z</time>
      </trkpt>
      <trkpt lat="44.16293" lon="4.69951">
        <ele>180.5</ele>
        <time>2013-11-23T08:39:24.402Z</time>
      </trkpt>
      <trkpt lat="44.16293" lon="4.6995">
        <ele>180.5</ele>
        <time>2013-11-23T08:39:25.403Z</time>
      </trkpt>
      <trkpt lat="44.16293" lon="4.69951">
        <ele>180.9</ele>
        <time>2013-11-23T08:39:26.404Z</time>
      </trkpt>
      <trkpt lat="44.16292" lon="4.69952">
        <ele>181.4</ele>
        <time>2013-11-23T08:39:32.517Z</time>
      </trkpt>
      <trkpt lat="44.16293" lon="4.69953">
        <ele>182.7</ele>
        <time>2013-11-23T08:39:36.404Z</time>
      </trkpt>
      <trkpt lat="44.16293" lon="4.69953">
        <ele>182.7</ele>
        <time>2013-11-23T08:39:37.405Z</time>
      </trkpt>
      <trkpt lat="44.16293" lon="4.69953">
        <ele>182.6</ele>
        <time>2013-11-23T08:39:39.403Z</time>
      </trkpt>
      <trkpt lat="44.16293" lon="4.69952">
        <ele>182.4</ele>
        <time>2013-11-23T08:39:40.403Z</time>
      </trkpt>
      <trkpt lat="44.16298" lon="4.69943">
        <ele>179.4</ele>
        <time>2013-11-23T08:39:45.515Z</time>
      </trkpt>
      <trkpt lat="44.163" lon="4.69937">
        <ele>178.6</ele>
        <time>2013-11-23T08:39:48.403Z</time>
      </trkpt>
      <trkpt lat="44.16306" lon="4.69931">
        <ele>175.6</ele>
        <time>2013-11-23T08:39:51.403Z</time>
      </trkpt>
      <trkpt lat="44.16308" lon="4.69929">
        <ele>175.3</ele>
        <time>2013-11-23T08:39:53.403Z</time>
      </trkpt>
      <trkpt lat="44.16312" lon="4.69939">
        <ele>175.1</ele>
        <time>2013-11-23T08:39:58.517Z</time>
      </trkpt>
      <trkpt lat="44.16311" lon="4.69948">
        <ele>174.4</ele>
        <time>2013-11-23T08:40:01.403Z</time>
      </trkpt>
      <trkpt lat="44.16312" lon="4.69956">
        <ele>173.6</ele>
        <time>2013-11-23T08:40:08.531Z</time>
      </trkpt>
      <trkpt lat="44.16311" lon="4.69964">
        <ele>171.6</ele>
        <time>2013-11-23T08:40:12.403Z</time>
      </trkpt>
      <trkpt lat="44.1631" lon="4.69974">
        <ele>170</ele>
        <time>2013-11-23T08:40:15.404Z</time>
      </trkpt>
      <trkpt lat="44.16309" lon="4.69978">
        <ele>169</ele>
        <time>2013-11-23T08:40:17.403Z</time>
      </trkpt>
      <trkpt lat="44.16309" lon="4.69982">
        <ele>170.8</ele>
        <time>2013-11-23T08:40:22.518Z</time>
      </trkpt>
      <trkpt lat="44.16307" lon="4.69992">
        <ele>170.6</ele>
        <time>2013-11-23T08:40:25.403Z</time>
      </trkpt>
      <trkpt lat="44.16307" lon="4.70004">
        <ele>168.8</ele>
        <time>2013-11-23T08:40:28.403Z</time>
      </trkpt>
      <trkpt lat="44.16307" lon="4.70012">
        <ele>167.6</ele>
        <time>2013-11-23T08:40:30.397Z</time>
      </trkpt>
      <trkpt lat="44.16307" lon="4.70016">
        <ele>166.1</ele>
        <time>2013-11-23T08:40:31.404Z</time>
      </trkpt>
      <trkpt lat="44.16306" lon="4.70026">
        <ele>164.3</ele>
        <time>2013-11-23T08:40:33.403Z</time>
      </trkpt>
      <trkpt lat="44.16304" lon="4.70031">
        <ele>165.3</ele>
        <time>2013-11-23T08:40:37.517Z</time>
      </trkpt>
      <trkpt lat="44.16302" lon="4.70043">
        <ele>164</ele>
        <time>2013-11-23T08:40:40.403Z</time>
      </trkpt>
      <trkpt lat="44.163" lon="4.70054">
        <ele>164</ele>
        <time>2013-11-23T08:40:42.400Z</time>
      </trkpt>
      <trkpt lat="44.163" lon="4.70059">
        <ele>163.9</ele>
        <time>2013-11-23T08:40:43.403Z</time>
      </trkpt>
      <trkpt lat="44.16299" lon="4.70069">
        <ele>161.1</ele>
        <time>2013-11-23T08:40:47.516Z</time>
      </trkpt>
      <trkpt lat="44.163" lon="4.70072">
        <ele>161.6</ele>
        <time>2013-11-23T08:40:50.404Z</time>
      </trkpt>
      <trkpt lat="44.16299" lon="4.70084">
        <ele>164.1</ele>
        <time>2013-11-23T08:40:59.096Z</time>
      </trkpt>
      <trkpt lat="44.16298" lon="4.70088">
        <ele>166.6</ele>
        <time>2013-11-23T08:41:03.983Z</time>
      </trkpt>
      <trkpt lat="44.16297" lon="4.70088">
        <ele>167.7</ele>
        <time>2013-11-23T08:41:05.984Z</time>
      </trkpt>
      <trkpt lat="44.16298" lon="4.70088">
        <ele>168</ele>
        <time>2013-11-23T08:41:07.980Z</time>
      </trkpt>
      <trkpt lat="44.16298" lon="4.70089">
        <ele>173.2</ele>
        <time>2013-11-23T08:41:15.072Z</time>
      </trkpt>
      <trkpt lat="44.16298" lon="4.70096">
        <ele>172.8</ele>
        <time>2013-11-23T08:41:18.980Z</time>
      </trkpt>
      <trkpt lat="44.16298" lon="4.70105">
        <ele>173.3</ele>
        <time>2013-11-23T08:41:23.093Z</time>
      </trkpt>
      <trkpt lat="44.16299" lon="4.70111">
        <ele>172.9</ele>
        <time>2013-11-23T08:41:25.976Z</time>
      </trkpt>
      <trkpt lat="44.16296" lon="4.70115">
        <ele>174.3</ele>
        <time>2013-11-23T08:41:33.092Z</time>
      </trkpt>
      <trkpt lat="44.16296" lon="4.70115">
        <ele>174.2</ele>
        <time>2013-11-23T08:41:36.981Z</time>
      </trkpt>
      <trkpt lat="44.16295" lon="4.70115">
        <ele>174.3</ele>
        <time>2013-11-23T08:41:41.118Z</time>
      </trkpt>
      <trkpt lat="44.16295" lon="4.7012">
        <ele>173.1</ele>
        <time>2013-11-23T08:41:43.981Z</time>
      </trkpt>
      <trkpt lat="44.16295" lon="4.70132">
        <ele>173.4</ele>
        <time>2013-11-23T08:41:47.981Z</time>
      </trkpt>
      <trkpt lat="44.16295" lon="4.70134">
        <ele>173.3</ele>
        <time>2013-11-23T08:41:48.983Z</time>
      </trkpt>
      <trkpt lat="44.16297" lon="4.70144">
        <ele>171.3</ele>
        <time>2013-11-23T08:41:54.097Z</time>
      </trkpt>
      <trkpt lat="44.16296" lon="4.70148">
        <ele>168.2</ele>
        <time>2013-11-23T08:41:55.065Z</time>
      </trkpt>
      <trkpt lat="44.16296" lon="4.70152">
        <ele>166.5</ele>
        <time>2013-11-23T08:41:55.981Z</time>
      </trkpt>
      <trkpt lat="44.16296" lon="4.70161">
        <ele>164.9</ele>
        <time>2013-11-23T08:41:57.980Z</time>
      </trkpt>
      <trkpt lat="44.16296" lon="4.70171">
        <ele>163.4</ele>
        <time>2013-11-23T08:41:59.980Z</time>
      </trkpt>
      <trkpt lat="44.16296" lon="4.70176">
        <ele>163</ele>
        <time>2013-11-23T08:42:00.982Z</time>
      </trkpt>
      <trkpt lat="44.16296" lon="4.70183">
        <ele>162.6</ele>
        <time>2013-11-23T08:42:01.981Z</time>
      </trkpt>
      <trkpt lat="44.16298" lon="4.70197">
        <ele>162.3</ele>
        <time>2013-11-23T08:42:03.981Z</time>
      </trkpt>
      <trkpt lat="44.16299" lon="4.70214">
        <ele>162</ele>
        <time>2013-11-23T08:42:05.980Z</time>
      </trkpt>
      <trkpt lat="44.16298" lon="4.70229">
        <ele>162.5</ele>
        <time>2013-11-23T08:42:07.977Z</time>
      </trkpt>
      <trkpt lat="44.16298" lon="4.70236">
        <ele>162.3</ele>
        <time>2013-11-23T08:42:08.977Z</time>
      </trkpt>
      <trkpt lat="44.16297" lon="4.70252">
        <ele>162.5</ele>
        <time>2013-11-23T08:42:10.976Z</time>
      </trkpt>
      <trkpt lat="44.16299" lon="4.70263">
        <ele>162.4</ele>
        <time>2013-11-23T08:42:11.981Z</time>
      </trkpt>
      <trkpt lat="44.16301" lon="4.70271">
        <ele>162.6</ele>
        <time>2013-11-23T08:42:12.983Z</time>
      </trkpt>
      <trkpt lat="44.16302" lon="4.7028">
        <ele>162.9</ele>
        <time>2013-11-23T08:42:13.983Z</time>
      </trkpt>
      <trkpt lat="44.16303" lon="4.70296">
        <ele>163</ele>
        <time>2013-11-23T08:42:16.953Z</time>
      </trkpt>
      <trkpt lat="44.16308" lon="4.70317">
        <ele>163.4</ele>
        <time>2013-11-23T08:42:18.913Z</time>
      </trkpt>
      <trkpt lat="44.16307" lon="4.70336">
        <ele>163.5</ele>
        <time>2013-11-23T08:42:20.912Z</time>
      </trkpt>
      <trkpt lat="44.16307" lon="4.70355">
        <ele>164.1</ele>
        <time>2013-11-23T08:42:22.913Z</time>
      </trkpt>
      <trkpt lat="44.16306" lon="4.70372">
        <ele>164.3</ele>
        <time>2013-11-23T08:42:24.910Z</time>
      </trkpt>
      <trkpt lat="44.16304" lon="4.70384">
        <ele>163.6</ele>
        <time>2013-11-23T08:42:27.911Z</time>
      </trkpt>
      <trkpt lat="44.16301" lon="4.7039">
        <ele>160.8</ele>
        <time>2013-11-23T08:42:28.912Z</time>
      </trkpt>
      <trkpt lat="44.163" lon="4.70395">
        <ele>160.4</ele>
        <time>2013-11-23T08:42:29.912Z</time>
      </trkpt>
      <trkpt lat="44.16302" lon="4.70406">
        <ele>159.5</ele>
        <time>2013-11-23T08:42:31.909Z</time>
      </trkpt>
      <trkpt lat="44.16308" lon="4.70416">
        <ele>157</ele>
        <time>2013-11-23T08:42:34.941Z</time>
      </trkpt>
      <trkpt lat="44.16314" lon="4.70425">
        <ele>160.2</ele>
        <time>2013-11-23T08:42:36.910Z</time>
      </trkpt>
      <trkpt lat="44.16318" lon="4.70429">
        <ele>160.7</ele>
        <time>2013-11-23T08:42:37.913Z</time>
      </trkpt>
      <trkpt lat="44.16321" lon="4.70433">
        <ele>161.4</ele>
        <time>2013-11-23T08:42:38.914Z</time>
      </trkpt>
      <trkpt lat="44.16326" lon="4.7044">
        <ele>161.7</ele>
        <time>2013-11-23T08:42:40.910Z</time>
      </trkpt>
      <trkpt lat="44.16329" lon="4.70442">
        <ele>157.1</ele>
        <time>2013-11-23T08:42:41.911Z</time>
      </trkpt>
      <trkpt lat="44.16336" lon="4.70449">
        <ele>154.5</ele>
        <time>2013-11-23T08:42:43.910Z</time>
      </trkpt>
      <trkpt lat="44.16338" lon="4.70452">
        <ele>153.7</ele>
        <time>2013-11-23T08:42:44.910Z</time>
      </trkpt>
      <trkpt lat="44.16341" lon="4.7046">
        <ele>154.2</ele>
        <time>2013-11-23T08:42:46.907Z</time>
      </trkpt>
      <trkpt lat="44.16341" lon="4.70468">
        <ele>157.3</ele>
        <time>2013-11-23T08:42:47.910Z</time>
      </trkpt>
      <trkpt lat="44.16341" lon="4.70473">
        <ele>158.5</ele>
        <time>2013-11-23T08:42:48.911Z</time>
      </trkpt>
      <trkpt lat="44.16342" lon="4.70483">
        <ele>158.9</ele>
        <time>2013-11-23T08:42:50.911Z</time>
      </trkpt>
      <trkpt lat="44.16343" lon="4.7049">
        <ele>156.5</ele>
        <time>2013-11-23T08:42:51.913Z</time>
      </trkpt>
      <trkpt lat="44.16344" lon="4.70497">
        <ele>155.4</ele>
        <time>2013-11-23T08:42:52.935Z</time>
      </trkpt>
      <trkpt lat="44.16346" lon="4.7051">
        <ele>155.8</ele>
        <time>2013-11-23T08:42:54.910Z</time>
      </trkpt>
      <trkpt lat="44.16347" lon="4.70515">
        <ele>156.1</ele>
        <time>2013-11-23T08:42:55.913Z</time>
      </trkpt>
      <trkpt lat="44.1635" lon="4.70522">
        <ele>155.4</ele>
        <time>2013-11-23T08:42:57.911Z</time>
      </trkpt>
      <trkpt lat="44.16349" lon="4.7053">
        <ele>154.4</ele>
        <time>2013-11-23T08:42:59.911Z</time>
      </trkpt>
      <trkpt lat="44.1635" lon="4.70538">
        <ele>152.9</ele>
        <time>2013-11-23T08:43:01.904Z</time>
      </trkpt>
      <trkpt lat="44.16351" lon="4.70542">
        <ele>152.9</ele>
        <time>2013-11-23T08:43:02.926Z</time>
      </trkpt>
      <trkpt lat="44.16355" lon="4.70551">
        <ele>151.3</ele>
        <time>2013-11-23T08:43:04.910Z</time>
      </trkpt>
      <trkpt lat="44.16358" lon="4.7056">
        <ele>149.7</ele>
        <time>2013-11-23T08:43:06.910Z</time>
      </trkpt>
      <trkpt lat="44.1636" lon="4.70563">
        <ele>149.2</ele>
        <time>2013-11-23T08:43:07.911Z</time>
      </trkpt>
      <trkpt lat="44.1636" lon="4.70571">
        <ele>146</ele>
        <time>2013-11-23T08:43:10.976Z</time>
      </trkpt>
      <trkpt lat="44.16358" lon="4.70578">
        <ele>145</ele>
        <time>2013-11-23T08:43:12.925Z</time>
      </trkpt>
      <trkpt lat="44.16362" lon="4.70588">
        <ele>146.3</ele>
        <time>2013-11-23T08:43:15.911Z</time>
      </trkpt>
      <trkpt lat="44.16364" lon="4.70593">
        <ele>145.7</ele>
        <time>2013-11-23T08:43:16.912Z</time>
      </trkpt>
      <trkpt lat="44.16367" lon="4.706">
        <ele>144.5</ele>
        <time>2013-11-23T08:43:18.913Z</time>
      </trkpt>
      <trkpt lat="44.1637" lon="4.70606">
        <ele>143.8</ele>
        <time>2013-11-23T08:43:20.909Z</time>
      </trkpt>
      <trkpt lat="44.16374" lon="4.7061">
        <ele>143.5</ele>
        <time>2013-11-23T08:43:22.915Z</time>
      </trkpt>
      <trkpt lat="44.1638" lon="4.70615">
        <ele>143</ele>
        <time>2013-11-23T08:43:24.911Z</time>
      </trkpt>
      <trkpt lat="44.16382" lon="4.70617">
        <ele>142.7</ele>
        <time>2013-11-23T08:43:25.912Z</time>
      </trkpt>
      <trkpt lat="44.16388" lon="4.70623">
        <ele>142.5</ele>
        <time>2013-11-23T08:43:27.909Z</time>
      </trkpt>
      <trkpt lat="44.16394" lon="4.7063">
        <ele>141.2</ele>
        <time>2013-11-23T08:43:29.970Z</time>
      </trkpt>
      <trkpt lat="44.16399" lon="4.70639">
        <ele>139</ele>
        <time>2013-11-23T08:43:31.906Z</time>
      </trkpt>
      <trkpt lat="44.16402" lon="4.70644">
        <ele>138.4</ele>
        <time>2013-11-23T08:43:32.911Z</time>
      </trkpt>
      <trkpt lat="44.16406" lon="4.70652">
        <ele>139.5</ele>
        <time>2013-11-23T08:43:34.908Z</time>
      </trkpt>
      <trkpt lat="44.16408" lon="4.70655">
        <ele>140</ele>
        <time>2013-11-23T08:43:35.909Z</time>
      </trkpt>
      <trkpt lat="44.1641" lon="4.70664">
        <ele>146.1</ele>
        <time>2013-11-23T08:43:37.908Z</time>
      </trkpt>
      <trkpt lat="44.16415" lon="4.70671">
        <ele>146.2</ele>
        <time>2013-11-23T08:43:41.905Z</time>
      </trkpt>
      <trkpt lat="44.16421" lon="4.70672">
        <ele>145.7</ele>
        <time>2013-11-23T08:43:43.903Z</time>
      </trkpt>
      <trkpt lat="44.16429" lon="4.70677">
        <ele>146.4</ele>
        <time>2013-11-23T08:43:48.907Z</time>
      </trkpt>
      <trkpt lat="44.1643" lon="4.70679">
        <ele>146.7</ele>
        <time>2013-11-23T08:43:50.911Z</time>
      </trkpt>
      <trkpt lat="44.16433" lon="4.70681">
        <ele>145.5</ele>
        <time>2013-11-23T08:43:57.926Z</time>
      </trkpt>
      <trkpt lat="44.16433" lon="4.70681">
        <ele>145.3</ele>
        <time>2013-11-23T08:43:58.906Z</time>
      </trkpt>
      <trkpt lat="44.16434" lon="4.7068">
        <ele>144.3</ele>
        <time>2013-11-23T08:44:07.038Z</time>
      </trkpt>
      <trkpt lat="44.16434" lon="4.70673">
        <ele>145.7</ele>
        <time>2013-11-23T08:44:11.909Z</time>
      </trkpt>
      <trkpt lat="44.16434" lon="4.70662">
        <ele>153.9</ele>
        <time>2013-11-23T08:44:20.104Z</time>
      </trkpt>
      <trkpt lat="44.16437" lon="4.7066">
        <ele>159.3</ele>
        <time>2013-11-23T08:44:24.913Z</time>
      </trkpt>
      <trkpt lat="44.16445" lon="4.70656">
        <ele>155.3</ele>
        <time>2013-11-23T08:44:29.030Z</time>
      </trkpt>
      <trkpt lat="44.16449" lon="4.70656">
        <ele>151.8</ele>
        <time>2013-11-23T08:44:31.914Z</time>
      </trkpt>
      <trkpt lat="44.16454" lon="4.7066">
        <ele>150.1</ele>
        <time>2013-11-23T08:44:36.193Z</time>
      </trkpt>
      <trkpt lat="44.16457" lon="4.70666">
        <ele>146.6</ele>
        <time>2013-11-23T08:44:38.916Z</time>
      </trkpt>
      <trkpt lat="44.16464" lon="4.70669">
        <ele>143.4</ele>
        <time>2013-11-23T08:44:41.913Z</time>
      </trkpt>
      <trkpt lat="44.16467" lon="4.7067">
        <ele>142.1</ele>
        <time>2013-11-23T08:44:42.916Z</time>
      </trkpt>
      <trkpt lat="44.16475" lon="4.70667">
        <ele>140.9</ele>
        <time>2013-11-23T08:44:48.084Z</time>
      </trkpt>
      <trkpt lat="44.1648" lon="4.70664">
        <ele>140.4</ele>
        <time>2013-11-23T08:44:50.910Z</time>
      </trkpt>
      <trkpt lat="44.16488" lon="4.70661">
        <ele>138.8</ele>
        <time>2013-11-23T08:44:53.909Z</time>
      </trkpt>
      <trkpt lat="44.1649" lon="4.70661">
        <ele>136.8</ele>
        <time>2013-11-23T08:44:54.927Z</time>
      </trkpt>
      <trkpt lat="44.16496" lon="4.70653">
        <ele>136</ele>
        <time>2013-11-23T08:45:01.022Z</time>
      </trkpt>
      <trkpt lat="44.16498" lon="4.70651">
        <ele>135.6</ele>
        <time>2013-11-23T08:45:01.906Z</time>
      </trkpt>
      <trkpt lat="44.16505" lon="4.70645">
        <ele>141.2</ele>
        <time>2013-11-23T08:45:04.913Z</time>
      </trkpt>
      <trkpt lat="44.16507" lon="4.70644">
        <ele>141.6</ele>
        <time>2013-11-23T08:45:05.916Z</time>
      </trkpt>
      <trkpt lat="44.16514" lon="4.70637">
        <ele>149</ele>
        <time>2013-11-23T08:45:11.990Z</time>
      </trkpt>
      <trkpt lat="44.16515" lon="4.70635">
        <ele>150</ele>
        <time>2013-11-23T08:45:12.917Z</time>
      </trkpt>
      <trkpt lat="44.1652" lon="4.70628">
        <ele>144.8</ele>
        <time>2013-11-23T08:45:15.970Z</time>
      </trkpt>
      <trkpt lat="44.16523" lon="4.70622">
        <ele>144.1</ele>
        <time>2013-11-23T08:45:17.915Z</time>
      </trkpt>
      <trkpt lat="44.16525" lon="4.70619">
        <ele>143</ele>
        <time>2013-11-23T08:45:18.917Z</time>
      </trkpt>
      <trkpt lat="44.16535" lon="4.70613">
        <ele>141.1</ele>
        <time>2013-11-23T08:45:20.915Z</time>
      </trkpt>
      <trkpt lat="44.16545" lon="4.70609">
        <ele>131.6</ele>
        <time>2013-11-23T08:45:22.912Z</time>
      </trkpt>
      <trkpt lat="44.16555" lon="4.70611">
        <ele>128.3</ele>
        <time>2013-11-23T08:45:24.911Z</time>
      </trkpt>
      <trkpt lat="44.1656" lon="4.70613">
        <ele>126.1</ele>
        <time>2013-11-23T08:45:25.912Z</time>
      </trkpt>
      <trkpt lat="44.16569" lon="4.70618">
        <ele>123.9</ele>
        <time>2013-11-23T08:45:27.910Z</time>
      </trkpt>
      <trkpt lat="44.16573" lon="4.70621">
        <ele>123.2</ele>
        <time>2013-11-23T08:45:28.912Z</time>
      </trkpt>
      <trkpt lat="44.16584" lon="4.70625">
        <ele>121.5</ele>
        <time>2013-11-23T08:45:30.914Z</time>
      </trkpt>
      <trkpt lat="44.16589" lon="4.70627">
        <ele>121.1</ele>
        <time>2013-11-23T08:45:31.921Z</time>
      </trkpt>
      <trkpt lat="44.16599" lon="4.70633">
        <ele>120.1</ele>
        <time>2013-11-23T08:45:33.916Z</time>
      </trkpt>
      <trkpt lat="44.1661" lon="4.70639">
        <ele>119.1</ele>
        <time>2013-11-23T08:45:37.266Z</time>
      </trkpt>
      <trkpt lat="44.16615" lon="4.70642">
        <ele>118.1</ele>
        <time>2013-11-23T08:45:38.267Z</time>
      </trkpt>
      <trkpt lat="44.1662" lon="4.70644">
        <ele>117.2</ele>
        <time>2013-11-23T08:45:39.269Z</time>
      </trkpt>
      <trkpt lat="44.16629" lon="4.7065">
        <ele>115.8</ele>
        <time>2013-11-23T08:45:41.262Z</time>
      </trkpt>
      <trkpt lat="44.16634" lon="4.70653">
        <ele>114.9</ele>
        <time>2013-11-23T08:45:42.264Z</time>
      </trkpt>
      <trkpt lat="44.16638" lon="4.70656">
        <ele>114</ele>
        <time>2013-11-23T08:45:43.264Z</time>
      </trkpt>
      <trkpt lat="44.16646" lon="4.7066">
        <ele>111.8</ele>
        <time>2013-11-23T08:45:45.264Z</time>
      </trkpt>
      <trkpt lat="44.16651" lon="4.70662">
        <ele>110.5</ele>
        <time>2013-11-23T08:45:46.262Z</time>
      </trkpt>
      <trkpt lat="44.16655" lon="4.70664">
        <ele>109.9</ele>
        <time>2013-11-23T08:45:47.267Z</time>
      </trkpt>
      <trkpt lat="44.16665" lon="4.7067">
        <ele>108.9</ele>
        <time>2013-11-23T08:45:49.264Z</time>
      </trkpt>
      <trkpt lat="44.1667" lon="4.70674">
        <ele>108.6</ele>
        <time>2013-11-23T08:45:50.266Z</time>
      </trkpt>
      <trkpt lat="44.1668" lon="4.70681">
        <ele>108.3</ele>
        <time>2013-11-23T08:45:52.264Z</time>
      </trkpt>
      <trkpt lat="44.16685" lon="4.70684">
        <ele>108.3</ele>
        <time>2013-11-23T08:45:53.264Z</time>
      </trkpt>
      <trkpt lat="44.16695" lon="4.70691">
        <ele>107.6</ele>
        <time>2013-11-23T08:45:55.278Z</time>
      </trkpt>
      <trkpt lat="44.16703" lon="4.70697">
        <ele>107.4</ele>
        <time>2013-11-23T08:45:57.264Z</time>
      </trkpt>
      <trkpt lat="44.16707" lon="4.707">
        <ele>107.2</ele>
        <time>2013-11-23T08:45:58.265Z</time>
      </trkpt>
      <trkpt lat="44.16711" lon="4.70702">
        <ele>106.6</ele>
        <time>2013-11-23T08:45:59.267Z</time>
      </trkpt>
      <trkpt lat="44.16719" lon="4.70706">
        <ele>105.7</ele>
        <time>2013-11-23T08:46:01.264Z</time>
      </trkpt>
      <trkpt lat="44.16721" lon="4.70708">
        <ele>105.5</ele>
        <time>2013-11-23T08:46:02.280Z</time>
      </trkpt>
      <trkpt lat="44.16728" lon="4.70708">
        <ele>103.7</ele>
        <time>2013-11-23T08:46:05.264Z</time>
      </trkpt>
      <trkpt lat="44.1673" lon="4.70707">
        <ele>103</ele>
        <time>2013-11-23T08:46:06.264Z</time>
      </trkpt>
      <trkpt lat="44.16733" lon="4.70701">
        <ele>101.8</ele>
        <time>2013-11-23T08:46:08.261Z</time>
      </trkpt>
      <trkpt lat="44.16735" lon="4.70694">
        <ele>97.8</ele>
        <time>2013-11-23T08:46:09.264Z</time>
      </trkpt>
      <trkpt lat="44.16737" lon="4.70683">
        <ele>96.3</ele>
        <time>2013-11-23T08:46:11.275Z</time>
      </trkpt>
      <trkpt lat="44.16739" lon="4.70674">
        <ele>97.9</ele>
        <time>2013-11-23T08:46:13.264Z</time>
      </trkpt>
      <trkpt lat="44.1674" lon="4.70668">
        <ele>99.1</ele>
        <time>2013-11-23T08:46:15.269Z</time>
      </trkpt>
      <trkpt lat="44.16741" lon="4.70658">
        <ele>99.3</ele>
        <time>2013-11-23T08:46:17.268Z</time>
      </trkpt>
      <trkpt lat="44.16742" lon="4.70648">
        <ele>99.4</ele>
        <time>2013-11-23T08:46:19.268Z</time>
      </trkpt>
      <trkpt lat="44.16743" lon="4.70643">
        <ele>99.5</ele>
        <time>2013-11-23T08:46:20.268Z</time>
      </trkpt>
      <trkpt lat="44.16744" lon="4.70631">
        <ele>99.4</ele>
        <time>2013-11-23T08:46:23.269Z</time>
      </trkpt>
      <trkpt lat="44.16745" lon="4.70622">
        <ele>99.4</ele>
        <time>2013-11-23T08:46:25.268Z</time>
      </trkpt>
      <trkpt lat="44.16746" lon="4.70612">
        <ele>99.4</ele>
        <time>2013-11-23T08:46:27.270Z</time>
      </trkpt>
      <trkpt lat="44.16748" lon="4.70607">
        <ele>99.8</ele>
        <time>2013-11-23T08:46:28.270Z</time>
      </trkpt>
      <trkpt lat="44.16749" lon="4.70599">
        <ele>99.8</ele>
        <time>2013-11-23T08:46:30.263Z</time>
      </trkpt>
      <trkpt lat="44.16749" lon="4.70595">
        <ele>99.7</ele>
        <time>2013-11-23T08:46:31.267Z</time>
      </trkpt>
      <trkpt lat="44.16751" lon="4.70584">
        <ele>100.3</ele>
        <time>2013-11-23T08:46:33.269Z</time>
      </trkpt>
      <trkpt lat="44.16752" lon="4.70579">
        <ele>100.4</ele>
        <time>2013-11-23T08:46:34.272Z</time>
      </trkpt>
      <trkpt lat="44.16754" lon="4.70569">
        <ele>100.7</ele>
        <time>2013-11-23T08:46:36.264Z</time>
      </trkpt>
      <trkpt lat="44.16755" lon="4.70565">
        <ele>101.2</ele>
        <time>2013-11-23T08:46:37.268Z</time>
      </trkpt>
      <trkpt lat="44.16757" lon="4.70558">
        <ele>100.6</ele>
        <time>2013-11-23T08:46:39.268Z</time>
      </trkpt>
      <trkpt lat="44.16759" lon="4.70549">
        <ele>101</ele>
        <time>2013-11-23T08:46:41.267Z</time>
      </trkpt>
      <trkpt lat="44.16762" lon="4.70538">
        <ele>103.3</ele>
        <time>2013-11-23T08:46:45.334Z</time>
      </trkpt>
      <trkpt lat="44.16762" lon="4.70537">
        <ele>103.3</ele>
        <time>2013-11-23T08:46:45.507Z</time>
      </trkpt>
      <trkpt lat="44.16765" lon="4.70527">
        <ele>104.4</ele>
        <time>2013-11-23T08:46:48.267Z</time>
      </trkpt>
      <trkpt lat="44.16766" lon="4.70524">
        <ele>104.6</ele>
        <time>2013-11-23T08:46:49.270Z</time>
      </trkpt>
      <trkpt lat="44.1677" lon="4.70516">
        <ele>108.3</ele>
        <time>2013-11-23T08:46:52.267Z</time>
      </trkpt>
      <trkpt lat="44.16771" lon="4.70513">
        <ele>107.1</ele>
        <time>2013-11-23T08:46:53.267Z</time>
      </trkpt>
      <trkpt lat="44.16775" lon="4.70502">
        <ele>107</ele>
        <time>2013-11-23T08:46:56.266Z</time>
      </trkpt>
      <trkpt lat="44.16776" lon="4.70499">
        <ele>107.4</ele>
        <time>2013-11-23T08:46:57.270Z</time>
      </trkpt>
      <trkpt lat="44.16778" lon="4.70492">
        <ele>107.6</ele>
        <time>2013-11-23T08:46:59.268Z</time>
      </trkpt>
      <trkpt lat="44.16781" lon="4.70484">
        <ele>107.8</ele>
        <time>2013-11-23T08:47:01.265Z</time>
      </trkpt>
      <trkpt lat="44.16782" lon="4.7048">
        <ele>108.2</ele>
        <time>2013-11-23T08:47:02.266Z</time>
      </trkpt>
      <trkpt lat="44.16785" lon="4.70471">
        <ele>108.9</ele>
        <time>2013-11-23T08:47:04.267Z</time>
      </trkpt>
      <trkpt lat="44.1679" lon="4.70462">
        <ele>110</ele>
        <time>2013-11-23T08:47:07.267Z</time>
      </trkpt>
      <trkpt lat="44.16791" lon="4.70458">
        <ele>110.2</ele>
        <time>2013-11-23T08:47:08.271Z</time>
      </trkpt>
      <trkpt lat="44.16794" lon="4.70448">
        <ele>110.6</ele>
        <time>2013-11-23T08:47:11.269Z</time>
      </trkpt>
      <trkpt lat="44.16796" lon="4.70443">
        <ele>108.6</ele>
        <time>2013-11-23T08:47:12.271Z</time>
      </trkpt>
      <trkpt lat="44.16799" lon="4.70432">
        <ele>107.1</ele>
        <time>2013-11-23T08:47:15.269Z</time>
      </trkpt>
      <trkpt lat="44.16802" lon="4.70426">
        <ele>108.2</ele>
        <time>2013-11-23T08:47:17.267Z</time>
      </trkpt>
      <trkpt lat="44.16807" lon="4.70418">
        <ele>109.3</ele>
        <time>2013-11-23T08:47:20.268Z</time>
      </trkpt>
      <trkpt lat="44.1681" lon="4.70416">
        <ele>108.8</ele>
        <time>2013-11-23T08:47:21.273Z</time>
      </trkpt>
      <trkpt lat="44.16816" lon="4.70414">
        <ele>108</ele>
        <time>2013-11-23T08:47:23.269Z</time>
      </trkpt>
      <trkpt lat="44.16819" lon="4.70414">
        <ele>105.9</ele>
        <time>2013-11-23T08:47:24.270Z</time>
      </trkpt>
      <trkpt lat="44.16824" lon="4.70415">
        <ele>105.2</ele>
        <time>2013-11-23T08:47:26.268Z</time>
      </trkpt>
      <trkpt lat="44.16829" lon="4.70415">
        <ele>102.8</ele>
        <time>2013-11-23T08:47:28.264Z</time>
      </trkpt>
      <trkpt lat="44.16834" lon="4.70415">
        <ele>101.8</ele>
        <time>2013-11-23T08:47:30.269Z</time>
      </trkpt>
      <trkpt lat="44.16839" lon="4.70416">
        <ele>101</ele>
        <time>2013-11-23T08:47:32.265Z</time>
      </trkpt>
      <trkpt lat="44.16844" lon="4.70408">
        <ele>103.3</ele>
        <time>2013-11-23T08:47:36.260Z</time>
      </trkpt>
      <trkpt lat="44.16844" lon="4.70403">
        <ele>103.9</ele>
        <time>2013-11-23T08:47:37.262Z</time>
      </trkpt>
      <trkpt lat="44.16844" lon="4.70399">
        <ele>104.1</ele>
        <time>2013-11-23T08:47:38.263Z</time>
      </trkpt>
      <trkpt lat="44.16845" lon="4.7039">
        <ele>104.1</ele>
        <time>2013-11-23T08:47:40.264Z</time>
      </trkpt>
      <trkpt lat="44.16846" lon="4.70379">
        <ele>103.8</ele>
        <time>2013-11-23T08:47:43.266Z</time>
      </trkpt>
      <trkpt lat="44.16846" lon="4.70372">
        <ele>104.2</ele>
        <time>2013-11-23T08:47:45.264Z</time>
      </trkpt>
      <trkpt lat="44.16846" lon="4.70363">
        <ele>104.3</ele>
        <time>2013-11-23T08:47:48.263Z</time>
      </trkpt>
      <trkpt lat="44.16846" lon="4.7036">
        <ele>104.6</ele>
        <time>2013-11-23T08:47:49.266Z</time>
      </trkpt>
      <trkpt lat="44.16846" lon="4.70349">
        <ele>104.5</ele>
        <time>2013-11-23T08:47:52.265Z</time>
      </trkpt>
      <trkpt lat="44.16847" lon="4.7034">
        <ele>104.7</ele>
        <time>2013-11-23T08:47:54.264Z</time>
      </trkpt>
      <trkpt lat="44.16848" lon="4.70331">
        <ele>104.4</ele>
        <time>2013-11-23T08:47:56.278Z</time>
      </trkpt>
      <trkpt lat="44.16848" lon="4.70326">
        <ele>104.2</ele>
        <time>2013-11-23T08:47:57.268Z</time>
      </trkpt>
      <trkpt lat="44.16847" lon="4.70317">
        <ele>104.4</ele>
        <time>2013-11-23T08:47:59.264Z</time>
      </trkpt>
      <trkpt lat="44.16846" lon="4.70313">
        <ele>104.2</ele>
        <time>2013-11-23T08:48:00.263Z</time>
      </trkpt>
      <trkpt lat="44.16845" lon="4.70303">
        <ele>104.8</ele>
        <time>2013-11-23T08:48:02.263Z</time>
      </trkpt>
      <trkpt lat="44.16845" lon="4.70294">
        <ele>105</ele>
        <time>2013-11-23T08:48:04.265Z</time>
      </trkpt>
      <trkpt lat="44.16846" lon="4.70284">
        <ele>104.8</ele>
        <time>2013-11-23T08:48:06.277Z</time>
      </trkpt>
      <trkpt lat="44.16846" lon="4.7028">
        <ele>105.3</ele>
        <time>2013-11-23T08:48:07.277Z</time>
      </trkpt>
      <trkpt lat="44.16848" lon="4.70271">
        <ele>105.3</ele>
        <time>2013-11-23T08:48:09.264Z</time>
      </trkpt>
      <trkpt lat="44.16849" lon="4.70266">
        <ele>105.7</ele>
        <time>2013-11-23T08:48:10.264Z</time>
      </trkpt>
      <trkpt lat="44.1685" lon="4.70261">
        <ele>105.8</ele>
        <time>2013-11-23T08:48:11.264Z</time>
      </trkpt>
      <trkpt lat="44.16853" lon="4.70252">
        <ele>106.1</ele>
        <time>2013-11-23T08:48:13.264Z</time>
      </trkpt>
      <trkpt lat="44.16854" lon="4.70247">
        <ele>106</ele>
        <time>2013-11-23T08:48:14.265Z</time>
      </trkpt>
      <trkpt lat="44.16856" lon="4.70239">
        <ele>105.9</ele>
        <time>2013-11-23T08:48:16.263Z</time>
      </trkpt>
      <trkpt lat="44.16859" lon="4.70228">
        <ele>106.3</ele>
        <time>2013-11-23T08:48:19.263Z</time>
      </trkpt>
      <trkpt lat="44.1686" lon="4.70224">
        <ele>106.2</ele>
        <time>2013-11-23T08:48:20.264Z</time>
      </trkpt>
      <trkpt lat="44.16861" lon="4.70216">
        <ele>106.7</ele>
        <time>2013-11-23T08:48:22.262Z</time>
      </trkpt>
      <trkpt lat="44.16862" lon="4.70208">
        <ele>107.8</ele>
        <time>2013-11-23T08:48:24.263Z</time>
      </trkpt>
      <trkpt lat="44.16863" lon="4.70199">
        <ele>107.9</ele>
        <time>2013-11-23T08:48:26.264Z</time>
      </trkpt>
      <trkpt lat="44.16865" lon="4.70195">
        <ele>107</ele>
        <time>2013-11-23T08:48:27.264Z</time>
      </trkpt>
      <trkpt lat="44.1687" lon="4.70188">
        <ele>106.7</ele>
        <time>2013-11-23T08:48:29.264Z</time>
      </trkpt>
      <trkpt lat="44.16875" lon="4.70189">
        <ele>106.9</ele>
        <time>2013-11-23T08:48:30.264Z</time>
      </trkpt>
      <trkpt lat="44.16884" lon="4.7019">
        <ele>108</ele>
        <time>2013-11-23T08:48:32.264Z</time>
      </trkpt>
      <trkpt lat="44.16887" lon="4.70191">
        <ele>108.8</ele>
        <time>2013-11-23T08:48:33.304Z</time>
      </trkpt>
      <trkpt lat="44.16893" lon="4.70192">
        <ele>110.1</ele>
        <time>2013-11-23T08:48:35.264Z</time>
      </trkpt>
      <trkpt lat="44.16896" lon="4.70193">
        <ele>109.9</ele>
        <time>2013-11-23T08:48:36.263Z</time>
      </trkpt>
      <trkpt lat="44.16905" lon="4.70193">
        <ele>109.7</ele>
        <time>2013-11-23T08:48:39.270Z</time>
      </trkpt>
      <trkpt lat="44.16911" lon="4.70193">
        <ele>109.7</ele>
        <time>2013-11-23T08:48:41.264Z</time>
      </trkpt>
      <trkpt lat="44.16918" lon="4.70192">
        <ele>112</ele>
        <time>2013-11-23T08:48:44.262Z</time>
      </trkpt>
      <trkpt lat="44.1692" lon="4.70192">
        <ele>111.9</ele>
        <time>2013-11-23T08:48:45.264Z</time>
      </trkpt>
      <trkpt lat="44.16927" lon="4.70188">
        <ele>112.9</ele>
        <time>2013-11-23T08:48:49.378Z</time>
      </trkpt>
      <trkpt lat="44.16931" lon="4.70182">
        <ele>112.9</ele>
        <time>2013-11-23T08:48:52.264Z</time>
      </trkpt>
      <trkpt lat="44.16931" lon="4.70171">
        <ele>112.4</ele>
        <time>2013-11-23T08:48:55.264Z</time>
      </trkpt>
      <trkpt lat="44.16931" lon="4.70164">
        <ele>112.2</ele>
        <time>2013-11-23T08:48:57.265Z</time>
      </trkpt>
      <trkpt lat="44.16931" lon="4.70155">
        <ele>112.7</ele>
        <time>2013-11-23T08:48:59.271Z</time>
      </trkpt>
      <trkpt lat="44.16931" lon="4.70144">
        <ele>113.1</ele>
        <time>2013-11-23T08:49:01.264Z</time>
      </trkpt>
      <trkpt lat="44.16933" lon="4.70135">
        <ele>113.8</ele>
        <time>2013-11-23T08:49:03.271Z</time>
      </trkpt>
      <trkpt lat="44.16936" lon="4.70126">
        <ele>114.3</ele>
        <time>2013-11-23T08:49:05.268Z</time>
      </trkpt>
      <trkpt lat="44.16939" lon="4.7012">
        <ele>114.7</ele>
        <time>2013-11-23T08:49:07.277Z</time>
      </trkpt>
      <trkpt lat="44.16941" lon="4.70112">
        <ele>114.8</ele>
        <time>2013-11-23T08:49:09.255Z</time>
      </trkpt>
      <trkpt lat="44.16942" lon="4.70103">
        <ele>114.9</ele>
        <time>2013-11-23T08:49:11.256Z</time>
      </trkpt>
      <trkpt lat="44.16946" lon="4.70097">
        <ele>114</ele>
        <time>2013-11-23T08:49:13.307Z</time>
      </trkpt>
      <trkpt lat="44.16948" lon="4.70093">
        <ele>114</ele>
        <time>2013-11-23T08:49:14.272Z</time>
      </trkpt>
      <trkpt lat="44.16953" lon="4.70086">
        <ele>114.1</ele>
        <time>2013-11-23T08:49:16.271Z</time>
      </trkpt>
      <trkpt lat="44.16959" lon="4.70076">
        <ele>114.3</ele>
        <time>2013-11-23T08:49:19.272Z</time>
      </trkpt>
      <trkpt lat="44.16962" lon="4.70069">
        <ele>114.7</ele>
        <time>2013-11-23T08:49:21.270Z</time>
      </trkpt>
      <trkpt lat="44.16965" lon="4.70062">
        <ele>114.9</ele>
        <time>2013-11-23T08:49:23.276Z</time>
      </trkpt>
      <trkpt lat="44.16968" lon="4.70057">
        <ele>114.8</ele>
        <time>2013-11-23T08:49:25.264Z</time>
      </trkpt>
      <trkpt lat="44.1697" lon="4.7005">
        <ele>115.1</ele>
        <time>2013-11-23T08:49:27.323Z</time>
      </trkpt>
      <trkpt lat="44.1697" lon="4.70043">
        <ele>115.1</ele>
        <time>2013-11-23T08:49:29.262Z</time>
      </trkpt>
      <trkpt lat="44.16969" lon="4.70037">
        <ele>116.4</ele>
        <time>2013-11-23T08:49:31.265Z</time>
      </trkpt>
      <trkpt lat="44.16969" lon="4.70029">
        <ele>117.7</ele>
        <time>2013-11-23T08:49:33.260Z</time>
      </trkpt>
      <trkpt lat="44.16969" lon="4.70018">
        <ele>119</ele>
        <time>2013-11-23T08:49:36.265Z</time>
      </trkpt>
      <trkpt lat="44.16969" lon="4.70014">
        <ele>119.4</ele>
        <time>2013-11-23T08:49:37.264Z</time>
      </trkpt>
      <trkpt lat="44.16971" lon="4.70004">
        <ele>120.2</ele>
        <time>2013-11-23T08:49:40.264Z</time>
      </trkpt>
      <trkpt lat="44.16972" lon="4.69995">
        <ele>120.8</ele>
        <time>2013-11-23T08:49:42.267Z</time>
      </trkpt>
      <trkpt lat="44.16974" lon="4.69984">
        <ele>120.5</ele>
        <time>2013-11-23T08:49:45.259Z</time>
      </trkpt>
      <trkpt lat="44.16975" lon="4.6998">
        <ele>120.6</ele>
        <time>2013-11-23T08:49:46.263Z</time>
      </trkpt>
      <trkpt lat="44.16973" lon="4.69969">
        <ele>121.2</ele>
        <time>2013-11-23T08:49:49.264Z</time>
      </trkpt>
      <trkpt lat="44.16974" lon="4.69963">
        <ele>120.9</ele>
        <time>2013-11-23T08:49:51.264Z</time>
      </trkpt>
      <trkpt lat="44.16975" lon="4.69954">
        <ele>120.9</ele>
        <time>2013-11-23T08:49:54.263Z</time>
      </trkpt>
      <trkpt lat="44.16975" lon="4.69948">
        <ele>119.9</ele>
        <time>2013-11-23T08:49:56.261Z</time>
      </trkpt>
      <trkpt lat="44.16975" lon="4.69935">
        <ele>119.8</ele>
        <time>2013-11-23T08:50:00.259Z</time>
      </trkpt>
      <trkpt lat="44.16976" lon="4.69933">
        <ele>120</ele>
        <time>2013-11-23T08:50:01.259Z</time>
      </trkpt>
      <trkpt lat="44.16975" lon="4.69925">
        <ele>130.9</ele>
        <time>2013-11-23T08:50:06.263Z</time>
      </trkpt>
      <trkpt lat="44.16977" lon="4.69919">
        <ele>131</ele>
        <time>2013-11-23T08:50:08.279Z</time>
      </trkpt>
      <trkpt lat="44.16978" lon="4.69908">
        <ele>131.2</ele>
        <time>2013-11-23T08:50:13.422Z</time>
      </trkpt>
      <trkpt lat="44.16977" lon="4.69902">
        <ele>130.9</ele>
        <time>2013-11-23T08:50:16.270Z</time>
      </trkpt>
      <trkpt lat="44.16977" lon="4.69891">
        <ele>133.1</ele>
        <time>2013-11-23T08:50:21.386Z</time>
      </trkpt>
      <trkpt lat="44.16976" lon="4.69884">
        <ele>130.4</ele>
        <time>2013-11-23T08:50:24.244Z</time>
      </trkpt>
      <trkpt lat="44.16969" lon="4.69877">
        <ele>130.4</ele>
        <time>2013-11-23T08:50:29.516Z</time>
      </trkpt>
      <trkpt lat="44.16964" lon="4.69876">
        <ele>130.8</ele>
        <time>2013-11-23T08:50:32.262Z</time>
      </trkpt>
      <trkpt lat="44.16957" lon="4.69873">
        <ele>131.5</ele>
        <time>2013-11-23T08:50:36.255Z</time>
      </trkpt>
      <trkpt lat="44.16955" lon="4.69869">
        <ele>130.9</ele>
        <time>2013-11-23T08:50:38.262Z</time>
      </trkpt>
      <trkpt lat="44.16954" lon="4.69862">
        <ele>130.4</ele>
        <time>2013-11-23T08:50:42.384Z</time>
      </trkpt>
      <trkpt lat="44.16954" lon="4.69854">
        <ele>130.8</ele>
        <time>2013-11-23T08:50:45.325Z</time>
      </trkpt>
      <trkpt lat="44.16953" lon="4.69844">
        <ele>134.6</ele>
        <time>2013-11-23T08:50:50.593Z</time>
      </trkpt>
      <trkpt lat="44.16953" lon="4.6984">
        <ele>136.6</ele>
        <time>2013-11-23T08:50:53.262Z</time>
      </trkpt>
      <trkpt lat="44.1695" lon="4.69829">
        <ele>137</ele>
        <time>2013-11-23T08:51:00.370Z</time>
      </trkpt>
      <trkpt lat="44.16945" lon="4.69822">
        <ele>135.9</ele>
        <time>2013-11-23T08:51:04.261Z</time>
      </trkpt>
      <trkpt lat="44.16937" lon="4.69822">
        <ele>137.5</ele>
        <time>2013-11-23T08:51:08.388Z</time>
      </trkpt>
      <trkpt lat="44.16929" lon="4.69821">
        <ele>136.4</ele>
        <time>2013-11-23T08:51:11.269Z</time>
      </trkpt>
      <trkpt lat="44.16926" lon="4.69821">
        <ele>135.8</ele>
        <time>2013-11-23T08:51:12.264Z</time>
      </trkpt>
      <trkpt lat="44.16919" lon="4.69821">
        <ele>135.4</ele>
        <time>2013-11-23T08:51:14.265Z</time>
      </trkpt>
      <trkpt lat="44.16915" lon="4.69822">
        <ele>135.5</ele>
        <time>2013-11-23T08:51:15.270Z</time>
      </trkpt>
      <trkpt lat="44.16908" lon="4.69822">
        <ele>135.9</ele>
        <time>2013-11-23T08:51:17.269Z</time>
      </trkpt>
      <trkpt lat="44.16904" lon="4.6982">
        <ele>135.5</ele>
        <time>2013-11-23T08:51:18.305Z</time>
      </trkpt>
      <trkpt lat="44.16898" lon="4.69817">
        <ele>138.2</ele>
        <time>2013-11-23T08:51:20.260Z</time>
      </trkpt>
      <trkpt lat="44.16893" lon="4.69817">
        <ele>137.3</ele>
        <time>2013-11-23T08:51:22.269Z</time>
      </trkpt>
      <trkpt lat="44.16888" lon="4.69817">
        <ele>137</ele>
        <time>2013-11-23T08:51:24.260Z</time>
      </trkpt>
      <trkpt lat="44.16885" lon="4.69817">
        <ele>136.8</ele>
        <time>2013-11-23T08:51:25.289Z</time>
      </trkpt>
      <trkpt lat="44.16879" lon="4.69814">
        <ele>138</ele>
        <time>2013-11-23T08:51:27.282Z</time>
      </trkpt>
      <trkpt lat="44.16872" lon="4.69811">
        <ele>137</ele>
        <time>2013-11-23T08:51:29.258Z</time>
      </trkpt>
      <trkpt lat="44.16869" lon="4.69809">
        <ele>137</ele>
        <time>2013-11-23T08:51:30.313Z</time>
      </trkpt>
      <trkpt lat="44.16863" lon="4.69802">
        <ele>135.4</ele>
        <time>2013-11-23T08:51:32.262Z</time>
      </trkpt>
      <trkpt lat="44.16861" lon="4.69798">
        <ele>133.9</ele>
        <time>2013-11-23T08:51:33.265Z</time>
      </trkpt>
      <trkpt lat="44.1686" lon="4.69791">
        <ele>132.3</ele>
        <time>2013-11-23T08:51:34.267Z</time>
      </trkpt>
      <trkpt lat="44.1686" lon="4.69785">
        <ele>131</ele>
        <time>2013-11-23T08:51:35.283Z</time>
      </trkpt>
      <trkpt lat="44.16862" lon="4.69773">
        <ele>130</ele>
        <time>2013-11-23T08:51:37.267Z</time>
      </trkpt>
      <trkpt lat="44.16862" lon="4.69767">
        <ele>130.1</ele>
        <time>2013-11-23T08:51:38.270Z</time>
      </trkpt>
      <trkpt lat="44.16865" lon="4.69756">
        <ele>134.1</ele>
        <time>2013-11-23T08:51:43.354Z</time>
      </trkpt>
      <trkpt lat="44.16866" lon="4.69749">
        <ele>135</ele>
        <time>2013-11-23T08:51:46.265Z</time>
      </trkpt>
      <trkpt lat="44.16867" lon="4.69741">
        <ele>134.5</ele>
        <time>2013-11-23T08:51:48.266Z</time>
      </trkpt>
      <trkpt lat="44.16867" lon="4.69734">
        <ele>134.7</ele>
        <time>2013-11-23T08:51:50.272Z</time>
      </trkpt>
      <trkpt lat="44.16867" lon="4.69731">
        <ele>134.9</ele>
        <time>2013-11-23T08:51:51.270Z</time>
      </trkpt>
      <trkpt lat="44.16857" lon="4.69731">
        <ele>132.3</ele>
        <time>2013-11-23T08:51:53.265Z</time>
      </trkpt>
      <trkpt lat="44.16849" lon="4.69731">
        <ele>131.3</ele>
        <time>2013-11-23T08:51:55.258Z</time>
      </trkpt>
      <trkpt lat="44.16845" lon="4.69731">
        <ele>130.8</ele>
        <time>2013-11-23T08:51:56.277Z</time>
      </trkpt>
      <trkpt lat="44.16841" lon="4.69731">
        <ele>130.2</ele>
        <time>2013-11-23T08:51:57.268Z</time>
      </trkpt>
      <trkpt lat="44.16829" lon="4.69726">
        <ele>127.5</ele>
        <time>2013-11-23T08:51:59.263Z</time>
      </trkpt>
      <trkpt lat="44.16819" lon="4.6972">
        <ele>126.1</ele>
        <time>2013-11-23T08:52:01.262Z</time>
      </trkpt>
      <trkpt lat="44.16812" lon="4.69716">
        <ele>125.6</ele>
        <time>2013-11-23T08:52:03.260Z</time>
      </trkpt>
      <trkpt lat="44.1681" lon="4.69713">
        <ele>125.8</ele>
        <time>2013-11-23T08:52:04.260Z</time>
      </trkpt>
      <trkpt lat="44.16807" lon="4.69702">
        <ele>123.5</ele>
        <time>2013-11-23T08:52:06.264Z</time>
      </trkpt>
      <trkpt lat="44.16804" lon="4.69689">
        <ele>124.6</ele>
        <time>2013-11-23T08:52:08.265Z</time>
      </trkpt>
      <trkpt lat="44.16803" lon="4.69683">
        <ele>124.7</ele>
        <time>2013-11-23T08:52:09.266Z</time>
      </trkpt>
      <trkpt lat="44.1679" lon="4.69679">
        <ele>121.9</ele>
        <time>2013-11-23T08:52:11.263Z</time>
      </trkpt>
      <trkpt lat="44.16779" lon="4.69674">
        <ele>119.8</ele>
        <time>2013-11-23T08:52:13.262Z</time>
      </trkpt>
      <trkpt lat="44.16771" lon="4.69671">
        <ele>119.8</ele>
        <time>2013-11-23T08:52:15.259Z</time>
      </trkpt>
      <trkpt lat="44.16769" lon="4.6967">
        <ele>120.4</ele>
        <time>2013-11-23T08:52:16.262Z</time>
      </trkpt>
      <trkpt lat="44.16769" lon="4.69663">
        <ele>122.8</ele>
        <time>2013-11-23T08:52:23.374Z</time>
      </trkpt>
      <trkpt lat="44.16771" lon="4.69656">
        <ele>124.4</ele>
        <time>2013-11-23T08:52:27.262Z</time>
      </trkpt>
      <trkpt lat="44.16772" lon="4.69647">
        <ele>125.4</ele>
        <time>2013-11-23T08:52:32.391Z</time>
      </trkpt>
      <trkpt lat="44.16774" lon="4.6964">
        <ele>125.2</ele>
        <time>2013-11-23T08:52:35.287Z</time>
      </trkpt>
      <trkpt lat="44.16771" lon="4.69631">
        <ele>129.5</ele>
        <time>2013-11-23T08:52:42.378Z</time>
      </trkpt>
      <trkpt lat="44.1677" lon="4.69626">
        <ele>131.4</ele>
        <time>2013-11-23T08:52:46.243Z</time>
      </trkpt>
      <trkpt lat="44.16766" lon="4.6962">
        <ele>132.5</ele>
        <time>2013-11-23T08:52:50.397Z</time>
      </trkpt>
      <trkpt lat="44.16763" lon="4.69617">
        <ele>133.2</ele>
        <time>2013-11-23T08:52:53.264Z</time>
      </trkpt>
      <trkpt lat="44.16761" lon="4.69608">
        <ele>134</ele>
        <time>2013-11-23T08:52:58.413Z</time>
      </trkpt>
      <trkpt lat="44.16761" lon="4.69602">
        <ele>134.1</ele>
        <time>2013-11-23T08:53:01.260Z</time>
      </trkpt>
      <trkpt lat="44.16761" lon="4.69593">
        <ele>135.4</ele>
        <time>2013-11-23T08:53:08.377Z</time>
      </trkpt>
      <trkpt lat="44.16759" lon="4.69585">
        <ele>134.2</ele>
        <time>2013-11-23T08:53:12.253Z</time>
      </trkpt>
      <trkpt lat="44.16757" lon="4.69576">
        <ele>136.1</ele>
        <time>2013-11-23T08:53:20.946Z</time>
      </trkpt>
      <trkpt lat="44.16757" lon="4.69577">
        <ele>135.3</ele>
        <time>2013-11-23T08:53:25.812Z</time>
      </trkpt>
      <trkpt lat="44.16757" lon="4.69577">
        <ele>135.3</ele>
        <time>2013-11-23T08:53:26.037Z</time>
      </trkpt>
      <trkpt lat="44.16749" lon="4.69577">
        <ele>134.1</ele>
        <time>2013-11-23T08:53:31.924Z</time>
      </trkpt>
      <trkpt lat="44.16739" lon="4.6958">
        <ele>137.6</ele>
        <time>2013-11-23T08:53:34.812Z</time>
      </trkpt>
      <trkpt lat="44.16732" lon="4.69581">
        <ele>139.9</ele>
        <time>2013-11-23T08:53:39.926Z</time>
      </trkpt>
      <trkpt lat="44.16727" lon="4.69582">
        <ele>139.6</ele>
        <time>2013-11-23T08:53:42.813Z</time>
      </trkpt>
      <trkpt lat="44.16719" lon="4.69585">
        <ele>142.7</ele>
        <time>2013-11-23T08:53:45.811Z</time>
      </trkpt>
      <trkpt lat="44.16714" lon="4.69585">
        <ele>142.2</ele>
        <time>2013-11-23T08:53:47.805Z</time>
      </trkpt>
      <trkpt lat="44.16707" lon="4.69587">
        <ele>143.2</ele>
        <time>2013-11-23T08:53:51.924Z</time>
      </trkpt>
      <trkpt lat="44.16707" lon="4.69587">
        <ele>142.2</ele>
        <time>2013-11-23T08:53:54.811Z</time>
      </trkpt>
      <trkpt lat="44.16707" lon="4.69587">
        <ele>142.4</ele>
        <time>2013-11-23T08:53:56.813Z</time>
      </trkpt>
      <trkpt lat="44.16706" lon="4.69586">
        <ele>142</ele>
        <time>2013-11-23T08:53:58.829Z</time>
      </trkpt>
      <trkpt lat="44.16706" lon="4.69586">
        <ele>142.3</ele>
        <time>2013-11-23T08:53:59.809Z</time>
      </trkpt>
      <trkpt lat="44.16706" lon="4.69586">
        <ele>142.4</ele>
        <time>2013-11-23T08:54:01.804Z</time>
      </trkpt>
      <trkpt lat="44.16706" lon="4.69586">
        <ele>142.4</ele>
        <time>2013-11-23T08:54:09.918Z</time>
      </trkpt>
      <trkpt lat="44.16703" lon="4.69587">
        <ele>142.9</ele>
        <time>2013-11-23T08:54:14.805Z</time>
      </trkpt>
      <trkpt lat="44.16704" lon="4.69586">
        <ele>142.9</ele>
        <time>2013-11-23T08:54:15.007Z</time>
      </trkpt>
      <trkpt lat="44.16704" lon="4.69586">
        <ele>142.8</ele>
        <time>2013-11-23T08:54:15.810Z</time>
      </trkpt>
      <trkpt lat="44.16704" lon="4.69586">
        <ele>142.8</ele>
        <time>2013-11-23T08:54:16.814Z</time>
      </trkpt>
      <trkpt lat="44.16703" lon="4.69586">
        <ele>143.1</ele>
        <time>2013-11-23T08:54:18.812Z</time>
      </trkpt>
      <trkpt lat="44.16696" lon="4.69586">
        <ele>142.6</ele>
        <time>2013-11-23T08:54:25.905Z</time>
      </trkpt>
      <trkpt lat="44.16694" lon="4.69587">
        <ele>142.1</ele>
        <time>2013-11-23T08:54:29.805Z</time>
      </trkpt>
      <trkpt lat="44.16685" lon="4.69586">
        <ele>140.2</ele>
        <time>2013-11-23T08:54:36.923Z</time>
      </trkpt>
      <trkpt lat="44.16677" lon="4.69585">
        <ele>139.4</ele>
        <time>2013-11-23T08:54:40.810Z</time>
      </trkpt>
      <trkpt lat="44.1667" lon="4.69586">
        <ele>139.5</ele>
        <time>2013-11-23T08:54:44.983Z</time>
      </trkpt>
      <trkpt lat="44.16665" lon="4.69582">
        <ele>138.5</ele>
        <time>2013-11-23T08:54:47.809Z</time>
      </trkpt>
      <trkpt lat="44.16662" lon="4.69579">
        <ele>138.3</ele>
        <time>2013-11-23T08:54:56.924Z</time>
      </trkpt>
      <trkpt lat="44.16661" lon="4.69579">
        <ele>137.7</ele>
        <time>2013-11-23T08:55:01.805Z</time>
      </trkpt>
      <trkpt lat="44.16662" lon="4.69578">
        <ele>137.1</ele>
        <time>2013-11-23T08:55:17.922Z</time>
      </trkpt>
      <trkpt lat="44.16661" lon="4.69575">
        <ele>136.9</ele>
        <time>2013-11-23T08:55:26.804Z</time>
      </trkpt>
      <trkpt lat="44.16659" lon="4.69564">
        <ele>136.7</ele>
        <time>2013-11-23T08:55:31.927Z</time>
      </trkpt>
      <trkpt lat="44.16656" lon="4.69553">
        <ele>135.7</ele>
        <time>2013-11-23T08:55:34.805Z</time>
      </trkpt>
      <trkpt lat="44.16651" lon="4.69543">
        <ele>136.3</ele>
        <time>2013-11-23T08:55:37.795Z</time>
      </trkpt>
      <trkpt lat="44.16649" lon="4.69541">
        <ele>137.2</ele>
        <time>2013-11-23T08:55:38.804Z</time>
      </trkpt>
      <trkpt lat="44.16642" lon="4.69536">
        <ele>138.2</ele>
        <time>2013-11-23T08:55:41.808Z</time>
      </trkpt>
      <trkpt lat="44.1664" lon="4.69533">
        <ele>137.8</ele>
        <time>2013-11-23T08:55:42.808Z</time>
      </trkpt>
      <trkpt lat="44.16637" lon="4.69522">
        <ele>135.9</ele>
        <time>2013-11-23T08:55:44.808Z</time>
      </trkpt>
      <trkpt lat="44.16636" lon="4.69516">
        <ele>133.8</ele>
        <time>2013-11-23T08:55:45.809Z</time>
      </trkpt>
      <trkpt lat="44.16634" lon="4.6951">
        <ele>133.4</ele>
        <time>2013-11-23T08:55:46.871Z</time>
      </trkpt>
      <trkpt lat="44.16631" lon="4.69501">
        <ele>132</ele>
        <time>2013-11-23T08:55:48.809Z</time>
      </trkpt>
      <trkpt lat="44.1663" lon="4.69489">
        <ele>132.6</ele>
        <time>2013-11-23T08:55:51.834Z</time>
      </trkpt>
      <trkpt lat="44.16635" lon="4.69487">
        <ele>139.9</ele>
        <time>2013-11-23T08:55:53.807Z</time>
      </trkpt>
      <trkpt lat="44.16642" lon="4.69484">
        <ele>151.2</ele>
        <time>2013-11-23T08:55:57.917Z</time>
      </trkpt>
      <trkpt lat="44.16643" lon="4.69479">
        <ele>152.9</ele>
        <time>2013-11-23T08:56:00.816Z</time>
      </trkpt>
      <trkpt lat="44.16642" lon="4.69467">
        <ele>153.1</ele>
        <time>2013-11-23T08:56:04.813Z</time>
      </trkpt>
      <trkpt lat="44.16642" lon="4.69464">
        <ele>153.8</ele>
        <time>2013-11-23T08:56:05.824Z</time>
      </trkpt>
      <trkpt lat="44.16642" lon="4.69451">
        <ele>152.1</ele>
        <time>2013-11-23T08:56:10.090Z</time>
      </trkpt>
      <trkpt lat="44.1664" lon="4.69437">
        <ele>147.9</ele>
        <time>2013-11-23T08:56:12.808Z</time>
      </trkpt>
      <trkpt lat="44.16636" lon="4.69431">
        <ele>147.5</ele>
        <time>2013-11-23T08:56:14.833Z</time>
      </trkpt>
      <trkpt lat="44.16634" lon="4.69424">
        <ele>148.8</ele>
        <time>2013-11-23T08:56:16.809Z</time>
      </trkpt>
      <trkpt lat="44.1664" lon="4.69414">
        <ele>151.5</ele>
        <time>2013-11-23T08:56:24.926Z</time>
      </trkpt>
      <trkpt lat="44.1664" lon="4.69413">
        <ele>150.8</ele>
        <time>2013-11-23T08:56:25.919Z</time>
      </trkpt>
      <trkpt lat="44.16641" lon="4.69405">
        <ele>150.1</ele>
        <time>2013-11-23T08:56:30.932Z</time>
      </trkpt>
      <trkpt lat="44.16642" lon="4.694">
        <ele>146.4</ele>
        <time>2013-11-23T08:56:33.829Z</time>
      </trkpt>
      <trkpt lat="44.16646" lon="4.6939">
        <ele>149.5</ele>
        <time>2013-11-23T08:56:38.811Z</time>
      </trkpt>
      <trkpt lat="44.16646" lon="4.69388">
        <ele>150</ele>
        <time>2013-11-23T08:56:39.814Z</time>
      </trkpt>
      <trkpt lat="44.16648" lon="4.6938">
        <ele>151</ele>
        <time>2013-11-23T08:56:47.936Z</time>
      </trkpt>
      <trkpt lat="44.16648" lon="4.69371">
        <ele>150.4</ele>
        <time>2013-11-23T08:56:52.806Z</time>
      </trkpt>
      <trkpt lat="44.16648" lon="4.6936">
        <ele>151.5</ele>
        <time>2013-11-23T08:57:00.142Z</time>
      </trkpt>
      <trkpt lat="44.16649" lon="4.69358">
        <ele>150.5</ele>
        <time>2013-11-23T08:57:03.880Z</time>
      </trkpt>
      <trkpt lat="44.16645" lon="4.6935">
        <ele>148.8</ele>
        <time>2013-11-23T08:57:07.809Z</time>
      </trkpt>
      <trkpt lat="44.16644" lon="4.69346">
        <ele>149</ele>
        <time>2013-11-23T08:57:08.815Z</time>
      </trkpt>
      <trkpt lat="44.16642" lon="4.69335">
        <ele>147.9</ele>
        <time>2013-11-23T08:57:11.814Z</time>
      </trkpt>
      <trkpt lat="44.16642" lon="4.6933">
        <ele>148</ele>
        <time>2013-11-23T08:57:12.829Z</time>
      </trkpt>
      <trkpt lat="44.16641" lon="4.69325">
        <ele>149.2</ele>
        <time>2013-11-23T08:57:13.839Z</time>
      </trkpt>
      <trkpt lat="44.16641" lon="4.69317">
        <ele>148.8</ele>
        <time>2013-11-23T08:57:15.828Z</time>
      </trkpt>
      <trkpt lat="44.16641" lon="4.69307">
        <ele>148.9</ele>
        <time>2013-11-23T08:57:17.813Z</time>
      </trkpt>
      <trkpt lat="44.16642" lon="4.69303">
        <ele>149.2</ele>
        <time>2013-11-23T08:57:18.813Z</time>
      </trkpt>
      <trkpt lat="44.16643" lon="4.69299">
        <ele>148.3</ele>
        <time>2013-11-23T08:57:19.813Z</time>
      </trkpt>
      <trkpt lat="44.16643" lon="4.6929">
        <ele>147.8</ele>
        <time>2013-11-23T08:57:21.809Z</time>
      </trkpt>
      <trkpt lat="44.16643" lon="4.69286">
        <ele>146.7</ele>
        <time>2013-11-23T08:57:22.811Z</time>
      </trkpt>
      <trkpt lat="44.16641" lon="4.69277">
        <ele>145.9</ele>
        <time>2013-11-23T08:57:24.898Z</time>
      </trkpt>
      <trkpt lat="44.16637" lon="4.69269">
        <ele>145.2</ele>
        <time>2013-11-23T08:57:26.802Z</time>
      </trkpt>
      <trkpt lat="44.16636" lon="4.69265">
        <ele>145.3</ele>
        <time>2013-11-23T08:57:27.856Z</time>
      </trkpt>
      <trkpt lat="44.16633" lon="4.69257">
        <ele>143.1</ele>
        <time>2013-11-23T08:57:29.858Z</time>
      </trkpt>
      <trkpt lat="44.16631" lon="4.69249">
        <ele>143.9</ele>
        <time>2013-11-23T08:57:31.809Z</time>
      </trkpt>
      <trkpt lat="44.1663" lon="4.6924">
        <ele>142.8</ele>
        <time>2013-11-23T08:57:33.812Z</time>
      </trkpt>
      <trkpt lat="44.1663" lon="4.69236">
        <ele>142.1</ele>
        <time>2013-11-23T08:57:34.814Z</time>
      </trkpt>
      <trkpt lat="44.16629" lon="4.69225">
        <ele>143</ele>
        <time>2013-11-23T08:57:37.809Z</time>
      </trkpt>
      <trkpt lat="44.16629" lon="4.69221">
        <ele>142.4</ele>
        <time>2013-11-23T08:57:38.822Z</time>
      </trkpt>
      <trkpt lat="44.16627" lon="4.69209">
        <ele>141.9</ele>
        <time>2013-11-23T08:57:41.816Z</time>
      </trkpt>
      <trkpt lat="44.16625" lon="4.69202">
        <ele>142.6</ele>
        <time>2013-11-23T08:57:43.809Z</time>
      </trkpt>
      <trkpt lat="44.16622" lon="4.69191">
        <ele>144.9</ele>
        <time>2013-11-23T08:57:46.810Z</time>
      </trkpt>
      <trkpt lat="44.1662" lon="4.69183">
        <ele>145.7</ele>
        <time>2013-11-23T08:57:48.805Z</time>
      </trkpt>
      <trkpt lat="44.16619" lon="4.69175">
        <ele>145.5</ele>
        <time>2013-11-23T08:57:50.808Z</time>
      </trkpt>
      <trkpt lat="44.16619" lon="4.69167">
        <ele>144.8</ele>
        <time>2013-11-23T08:57:52.807Z</time>
      </trkpt>
      <trkpt lat="44.16619" lon="4.69156">
        <ele>143.8</ele>
        <time>2013-11-23T08:57:55.808Z</time>
      </trkpt>
      <trkpt lat="44.16619" lon="4.69153">
        <ele>142.6</ele>
        <time>2013-11-23T08:57:56.809Z</time>
      </trkpt>
      <trkpt lat="44.16621" lon="4.69141">
        <ele>140.6</ele>
        <time>2013-11-23T08:57:59.814Z</time>
      </trkpt>
      <trkpt lat="44.16623" lon="4.69134">
        <ele>140.5</ele>
        <time>2013-11-23T08:58:01.804Z</time>
      </trkpt>
      <trkpt lat="44.16628" lon="4.69125">
        <ele>139.5</ele>
        <time>2013-11-23T08:58:04.812Z</time>
      </trkpt>
      <trkpt lat="44.16631" lon="4.69118">
        <ele>140.2</ele>
        <time>2013-11-23T08:58:06.808Z</time>
      </trkpt>
      <trkpt lat="44.16634" lon="4.69115">
        <ele>139.9</ele>
        <time>2013-11-23T08:58:07.811Z</time>
      </trkpt>
      <trkpt lat="44.16641" lon="4.69107">
        <ele>139.8</ele>
        <time>2013-11-23T08:58:09.813Z</time>
      </trkpt>
      <trkpt lat="44.16648" lon="4.691">
        <ele>140</ele>
        <time>2013-11-23T08:58:11.808Z</time>
      </trkpt>
      <trkpt lat="44.16652" lon="4.69097">
        <ele>139.4</ele>
        <time>2013-11-23T08:58:12.824Z</time>
      </trkpt>
      <trkpt lat="44.16662" lon="4.69094">
        <ele>136.9</ele>
        <time>2013-11-23T08:58:14.805Z</time>
      </trkpt>
      <trkpt lat="44.16672" lon="4.69092">
        <ele>137.3</ele>
        <time>2013-11-23T08:58:16.807Z</time>
      </trkpt>
      <trkpt lat="44.16677" lon="4.69091">
        <ele>137.8</ele>
        <time>2013-11-23T08:58:17.839Z</time>
      </trkpt>
      <trkpt lat="44.16686" lon="4.69088">
        <ele>138</ele>
        <time>2013-11-23T08:58:19.839Z</time>
      </trkpt>
      <trkpt lat="44.1669" lon="4.69085">
        <ele>136.9</ele>
        <time>2013-11-23T08:58:20.840Z</time>
      </trkpt>
      <trkpt lat="44.16697" lon="4.69078">
        <ele>135.7</ele>
        <time>2013-11-23T08:58:22.802Z</time>
      </trkpt>
      <trkpt lat="44.16703" lon="4.69069">
        <ele>136.2</ele>
        <time>2013-11-23T08:58:24.832Z</time>
      </trkpt>
      <trkpt lat="44.16709" lon="4.6906">
        <ele>136.7</ele>
        <time>2013-11-23T08:58:26.810Z</time>
      </trkpt>
      <trkpt lat="44.16709" lon="4.69054">
        <ele>135.1</ele>
        <time>2013-11-23T08:58:27.812Z</time>
      </trkpt>
      <trkpt lat="44.16709" lon="4.69047">
        <ele>134.9</ele>
        <time>2013-11-23T08:58:28.814Z</time>
      </trkpt>
      <trkpt lat="44.16711" lon="4.69035">
        <ele>134.8</ele>
        <time>2013-11-23T08:58:31.197Z</time>
      </trkpt>
      <trkpt lat="44.16713" lon="4.69025">
        <ele>134.4</ele>
        <time>2013-11-23T08:58:32.798Z</time>
      </trkpt>
      <trkpt lat="44.16715" lon="4.69019">
        <ele>134.3</ele>
        <time>2013-11-23T08:58:33.802Z</time>
      </trkpt>
      <trkpt lat="44.16717" lon="4.69008">
        <ele>134.1</ele>
        <time>2013-11-23T08:58:35.802Z</time>
      </trkpt>
      <trkpt lat="44.16718" lon="4.69003">
        <ele>134.2</ele>
        <time>2013-11-23T08:58:36.807Z</time>
      </trkpt>
      <trkpt lat="44.16719" lon="4.68993">
        <ele>135.2</ele>
        <time>2013-11-23T08:58:38.927Z</time>
      </trkpt>
      <trkpt lat="44.16714" lon="4.68991">
        <ele>143.8</ele>
        <time>2013-11-23T08:58:43.825Z</time>
      </trkpt>
      <trkpt lat="44.16719" lon="4.68972">
        <ele>148</ele>
        <time>2013-11-23T08:58:46.338Z</time>
      </trkpt>
      <trkpt lat="44.16722" lon="4.68965">
        <ele>147.6</ele>
        <time>2013-11-23T08:58:47.353Z</time>
      </trkpt>
      <trkpt lat="44.16724" lon="4.68956">
        <ele>147.2</ele>
        <time>2013-11-23T08:58:48.453Z</time>
      </trkpt>
      <trkpt lat="44.16729" lon="4.68941">
        <ele>146.6</ele>
        <time>2013-11-23T08:58:50.346Z</time>
      </trkpt>
      <trkpt lat="44.16731" lon="4.68935">
        <ele>148.5</ele>
        <time>2013-11-23T08:58:51.350Z</time>
      </trkpt>
      <trkpt lat="44.16733" lon="4.68924">
        <ele>148.9</ele>
        <time>2013-11-23T08:58:53.347Z</time>
      </trkpt>
      <trkpt lat="44.16734" lon="4.6892">
        <ele>149.5</ele>
        <time>2013-11-23T08:58:54.348Z</time>
      </trkpt>
      <trkpt lat="44.16736" lon="4.68912">
        <ele>150.8</ele>
        <time>2013-11-23T08:58:56.350Z</time>
      </trkpt>
      <trkpt lat="44.16737" lon="4.68908">
        <ele>151.5</ele>
        <time>2013-11-23T08:58:57.351Z</time>
      </trkpt>
      <trkpt lat="44.1674" lon="4.689">
        <ele>150.4</ele>
        <time>2013-11-23T08:58:59.348Z</time>
      </trkpt>
      <trkpt lat="44.16742" lon="4.68892">
        <ele>151</ele>
        <time>2013-11-23T08:59:01.348Z</time>
      </trkpt>
      <trkpt lat="44.16744" lon="4.68887">
        <ele>151.3</ele>
        <time>2013-11-23T08:59:02.352Z</time>
      </trkpt>
      <trkpt lat="44.16747" lon="4.68878">
        <ele>151.2</ele>
        <time>2013-11-23T08:59:04.350Z</time>
      </trkpt>
      <trkpt lat="44.16747" lon="4.68873">
        <ele>151.2</ele>
        <time>2013-11-23T08:59:05.350Z</time>
      </trkpt>
      <trkpt lat="44.1675" lon="4.68861">
        <ele>151.1</ele>
        <time>2013-11-23T08:59:08.353Z</time>
      </trkpt>
      <trkpt lat="44.16751" lon="4.68854">
        <ele>151.6</ele>
        <time>2013-11-23T08:59:10.350Z</time>
      </trkpt>
      <trkpt lat="44.16753" lon="4.68846">
        <ele>151.7</ele>
        <time>2013-11-23T08:59:12.369Z</time>
      </trkpt>
      <trkpt lat="44.16754" lon="4.68839">
        <ele>152.3</ele>
        <time>2013-11-23T08:59:14.352Z</time>
      </trkpt>
      <trkpt lat="44.16757" lon="4.68828">
        <ele>152.8</ele>
        <time>2013-11-23T08:59:17.354Z</time>
      </trkpt>
      <trkpt lat="44.16758" lon="4.6882">
        <ele>153.2</ele>
        <time>2013-11-23T08:59:19.349Z</time>
      </trkpt>
      <trkpt lat="44.16761" lon="4.68808">
        <ele>153.5</ele>
        <time>2013-11-23T08:59:22.351Z</time>
      </trkpt>
      <trkpt lat="44.16762" lon="4.68804">
        <ele>153.7</ele>
        <time>2013-11-23T08:59:23.350Z</time>
      </trkpt>
      <trkpt lat="44.16763" lon="4.68801">
        <ele>153.8</ele>
        <time>2013-11-23T08:59:24.351Z</time>
      </trkpt>
      <trkpt lat="44.16765" lon="4.68791">
        <ele>151</ele>
        <time>2013-11-23T08:59:26.349Z</time>
      </trkpt>
      <trkpt lat="44.16766" lon="4.68786">
        <ele>150.1</ele>
        <time>2013-11-23T08:59:27.350Z</time>
      </trkpt>
      <trkpt lat="44.16768" lon="4.68778">
        <ele>149.5</ele>
        <time>2013-11-23T08:59:29.349Z</time>
      </trkpt>
      <trkpt lat="44.1677" lon="4.68768">
        <ele>149.9</ele>
        <time>2013-11-23T08:59:32.350Z</time>
      </trkpt>
      <trkpt lat="44.16772" lon="4.68761">
        <ele>149.8</ele>
        <time>2013-11-23T08:59:34.349Z</time>
      </trkpt>
      <trkpt lat="44.16775" lon="4.68753">
        <ele>147.8</ele>
        <time>2013-11-23T08:59:36.350Z</time>
      </trkpt>
      <trkpt lat="44.16776" lon="4.68749">
        <ele>147.8</ele>
        <time>2013-11-23T08:59:37.351Z</time>
      </trkpt>
      <trkpt lat="44.16779" lon="4.6874">
        <ele>148.9</ele>
        <time>2013-11-23T08:59:40.345Z</time>
      </trkpt>
      <trkpt lat="44.1678" lon="4.68736">
        <ele>148.9</ele>
        <time>2013-11-23T08:59:41.345Z</time>
      </trkpt>
      <trkpt lat="44.16783" lon="4.68729">
        <ele>148</ele>
        <time>2013-11-23T08:59:43.350Z</time>
      </trkpt>
      <trkpt lat="44.16785" lon="4.68722">
        <ele>148</ele>
        <time>2013-11-23T08:59:45.365Z</time>
      </trkpt>
      <trkpt lat="44.16788" lon="4.68711">
        <ele>148.2</ele>
        <time>2013-11-23T08:59:48.345Z</time>
      </trkpt>
      <trkpt lat="44.1679" lon="4.68708">
        <ele>148.2</ele>
        <time>2013-11-23T08:59:49.352Z</time>
      </trkpt>
      <trkpt lat="44.16799" lon="4.68707">
        <ele>150.2</ele>
        <time>2013-11-23T08:59:51.349Z</time>
      </trkpt>
      <trkpt lat="44.16802" lon="4.68706">
        <ele>150</ele>
        <time>2013-11-23T08:59:52.350Z</time>
      </trkpt>
      <trkpt lat="44.16809" lon="4.68703">
        <ele>149.4</ele>
        <time>2013-11-23T08:59:55.365Z</time>
      </trkpt>
      <trkpt lat="44.16812" lon="4.68701">
        <ele>149.6</ele>
        <time>2013-11-23T08:59:56.352Z</time>
      </trkpt>
      <trkpt lat="44.16818" lon="4.68699">
        <ele>149.1</ele>
        <time>2013-11-23T08:59:58.355Z</time>
      </trkpt>
      <trkpt lat="44.16823" lon="4.68697">
        <ele>149.1</ele>
        <time>2013-11-23T09:00:00.336Z</time>
      </trkpt>
      <trkpt lat="44.16831" lon="4.68694">
        <ele>148.5</ele>
        <time>2013-11-23T09:00:03.344Z</time>
      </trkpt>
      <trkpt lat="44.16833" lon="4.68694">
        <ele>148.4</ele>
        <time>2013-11-23T09:00:04.350Z</time>
      </trkpt>
      <trkpt lat="44.16841" lon="4.68692">
        <ele>148.6</ele>
        <time>2013-11-23T09:00:07.351Z</time>
      </trkpt>
      <trkpt lat="44.16846" lon="4.68691">
        <ele>148.3</ele>
        <time>2013-11-23T09:00:09.346Z</time>
      </trkpt>
      <trkpt lat="44.16855" lon="4.68689">
        <ele>147.8</ele>
        <time>2013-11-23T09:00:12.351Z</time>
      </trkpt>
      <trkpt lat="44.16858" lon="4.68689">
        <ele>147.7</ele>
        <time>2013-11-23T09:00:13.394Z</time>
      </trkpt>
      <trkpt lat="44.16866" lon="4.68688">
        <ele>147.9</ele>
        <time>2013-11-23T09:00:16.350Z</time>
      </trkpt>
      <trkpt lat="44.16869" lon="4.68688">
        <ele>148</ele>
        <time>2013-11-23T09:00:17.352Z</time>
      </trkpt>
      <trkpt lat="44.16874" lon="4.68687">
        <ele>147.6</ele>
        <time>2013-11-23T09:00:19.351Z</time>
      </trkpt>
      <trkpt lat="44.16879" lon="4.68687">
        <ele>147.5</ele>
        <time>2013-11-23T09:00:21.354Z</time>
      </trkpt>
      <trkpt lat="44.16888" lon="4.68687">
        <ele>147.8</ele>
        <time>2013-11-23T09:00:24.345Z</time>
      </trkpt>
      <trkpt lat="44.16891" lon="4.68687">
        <ele>147.8</ele>
        <time>2013-11-23T09:00:25.345Z</time>
      </trkpt>
      <trkpt lat="44.16899" lon="4.68686">
        <ele>147.9</ele>
        <time>2013-11-23T09:00:28.350Z</time>
      </trkpt>
      <trkpt lat="44.16901" lon="4.68685">
        <ele>148.1</ele>
        <time>2013-11-23T09:00:29.350Z</time>
      </trkpt>
      <trkpt lat="44.1691" lon="4.68685">
        <ele>148.1</ele>
        <time>2013-11-23T09:00:32.350Z</time>
      </trkpt>
      <trkpt lat="44.16913" lon="4.68684">
        <ele>148</ele>
        <time>2013-11-23T09:00:33.350Z</time>
      </trkpt>
      <trkpt lat="44.16922" lon="4.68683">
        <ele>148</ele>
        <time>2013-11-23T09:00:36.350Z</time>
      </trkpt>
      <trkpt lat="44.16927" lon="4.68683">
        <ele>148</ele>
        <time>2013-11-23T09:00:38.349Z</time>
      </trkpt>
      <trkpt lat="44.16935" lon="4.68683">
        <ele>148.4</ele>
        <time>2013-11-23T09:00:41.350Z</time>
      </trkpt>
      <trkpt lat="44.1694" lon="4.68683">
        <ele>148.4</ele>
        <time>2013-11-23T09:00:43.350Z</time>
      </trkpt>
      <trkpt lat="44.16948" lon="4.68684">
        <ele>148.2</ele>
        <time>2013-11-23T09:00:46.350Z</time>
      </trkpt>
      <trkpt lat="44.16951" lon="4.68685">
        <ele>148.2</ele>
        <time>2013-11-23T09:00:47.350Z</time>
      </trkpt>
      <trkpt lat="44.16957" lon="4.68686">
        <ele>148.5</ele>
        <time>2013-11-23T09:00:49.353Z</time>
      </trkpt>
      <trkpt lat="44.16963" lon="4.68686">
        <ele>148.6</ele>
        <time>2013-11-23T09:00:51.350Z</time>
      </trkpt>
      <trkpt lat="44.16968" lon="4.68687">
        <ele>148.4</ele>
        <time>2013-11-23T09:00:53.353Z</time>
      </trkpt>
      <trkpt lat="44.16974" lon="4.68687">
        <ele>148.4</ele>
        <time>2013-11-23T09:00:55.345Z</time>
      </trkpt>
      <trkpt lat="44.1698" lon="4.68688">
        <ele>148.6</ele>
        <time>2013-11-23T09:00:57.350Z</time>
      </trkpt>
      <trkpt lat="44.16986" lon="4.68688">
        <ele>148.4</ele>
        <time>2013-11-23T09:00:59.335Z</time>
      </trkpt>
      <trkpt lat="44.16994" lon="4.68689">
        <ele>148.6</ele>
        <time>2013-11-23T09:01:02.350Z</time>
      </trkpt>
      <trkpt lat="44.16997" lon="4.68689">
        <ele>148.4</ele>
        <time>2013-11-23T09:01:03.350Z</time>
      </trkpt>
      <trkpt lat="44.17" lon="4.68689">
        <ele>148.5</ele>
        <time>2013-11-23T09:01:04.350Z</time>
      </trkpt>
      <trkpt lat="44.17006" lon="4.68689">
        <ele>148.4</ele>
        <time>2013-11-23T09:01:06.349Z</time>
      </trkpt>
      <trkpt lat="44.17009" lon="4.68689">
        <ele>148.4</ele>
        <time>2013-11-23T09:01:07.350Z</time>
      </trkpt>
      <trkpt lat="44.17016" lon="4.6869">
        <ele>148.5</ele>
        <time>2013-11-23T09:01:09.367Z</time>
      </trkpt>
      <trkpt lat="44.17022" lon="4.68691">
        <ele>148.6</ele>
        <time>2013-11-23T09:01:11.352Z</time>
      </trkpt>
      <trkpt lat="44.17028" lon="4.68691">
        <ele>148.4</ele>
        <time>2013-11-23T09:01:13.350Z</time>
      </trkpt>
      <trkpt lat="44.17034" lon="4.68691">
        <ele>148.2</ele>
        <time>2013-11-23T09:01:15.345Z</time>
      </trkpt>
      <trkpt lat="44.17037" lon="4.68691">
        <ele>148.2</ele>
        <time>2013-11-23T09:01:16.350Z</time>
      </trkpt>
      <trkpt lat="44.17041" lon="4.68692">
        <ele>148.4</ele>
        <time>2013-11-23T09:01:17.350Z</time>
      </trkpt>
      <trkpt lat="44.17047" lon="4.68692">
        <ele>148.5</ele>
        <time>2013-11-23T09:01:19.347Z</time>
      </trkpt>
      <trkpt lat="44.17053" lon="4.68693">
        <ele>148.5</ele>
        <time>2013-11-23T09:01:21.349Z</time>
      </trkpt>
      <trkpt lat="44.17057" lon="4.68693">
        <ele>148.7</ele>
        <time>2013-11-23T09:01:22.349Z</time>
      </trkpt>
      <trkpt lat="44.17064" lon="4.68694">
        <ele>148.8</ele>
        <time>2013-11-23T09:01:24.350Z</time>
      </trkpt>
      <trkpt lat="44.1707" lon="4.68695">
        <ele>148.8</ele>
        <time>2013-11-23T09:01:26.352Z</time>
      </trkpt>
      <trkpt lat="44.17077" lon="4.68696">
        <ele>149</ele>
        <time>2013-11-23T09:01:28.410Z</time>
      </trkpt>
      <trkpt lat="44.17084" lon="4.68696">
        <ele>148.9</ele>
        <time>2013-11-23T09:01:30.380Z</time>
      </trkpt>
      <trkpt lat="44.17087" lon="4.68697">
        <ele>149.1</ele>
        <time>2013-11-23T09:01:31.352Z</time>
      </trkpt>
      <trkpt lat="44.17094" lon="4.68695">
        <ele>148.8</ele>
        <time>2013-11-23T09:01:33.349Z</time>
      </trkpt>
      <trkpt lat="44.17097" lon="4.68693">
        <ele>148.6</ele>
        <time>2013-11-23T09:01:34.351Z</time>
      </trkpt>
      <trkpt lat="44.17102" lon="4.68688">
        <ele>148.2</ele>
        <time>2013-11-23T09:01:36.350Z</time>
      </trkpt>
      <trkpt lat="44.17107" lon="4.68682">
        <ele>149</ele>
        <time>2013-11-23T09:01:38.351Z</time>
      </trkpt>
      <trkpt lat="44.17112" lon="4.68677">
        <ele>149.4</ele>
        <time>2013-11-23T09:01:40.351Z</time>
      </trkpt>
      <trkpt lat="44.17119" lon="4.68673">
        <ele>149.5</ele>
        <time>2013-11-23T09:01:43.349Z</time>
      </trkpt>
      <trkpt lat="44.17121" lon="4.68673">
        <ele>149.5</ele>
        <time>2013-11-23T09:01:44.350Z</time>
      </trkpt>
      <trkpt lat="44.1713" lon="4.68673">
        <ele>150.3</ele>
        <time>2013-11-23T09:01:48.351Z</time>
      </trkpt>
      <trkpt lat="44.1713" lon="4.68673">
        <ele>150.3</ele>
        <time>2013-11-23T09:01:48.465Z</time>
      </trkpt>
      <trkpt lat="44.17138" lon="4.68672">
        <ele>151.1</ele>
        <time>2013-11-23T09:01:52.351Z</time>
      </trkpt>
      <trkpt lat="44.17142" lon="4.68672">
        <ele>151.3</ele>
        <time>2013-11-23T09:01:54.348Z</time>
      </trkpt>
      <trkpt lat="44.17149" lon="4.68673">
        <ele>152.5</ele>
        <time>2013-11-23T09:01:57.351Z</time>
      </trkpt>
      <trkpt lat="44.17153" lon="4.68674">
        <ele>152.5</ele>
        <time>2013-11-23T09:01:59.348Z</time>
      </trkpt>
      <trkpt lat="44.1716" lon="4.68675">
        <ele>152.8</ele>
        <time>2013-11-23T09:02:02.344Z</time>
      </trkpt>
      <trkpt lat="44.17162" lon="4.68675">
        <ele>152.6</ele>
        <time>2013-11-23T09:02:03.347Z</time>
      </trkpt>
      <trkpt lat="44.1717" lon="4.68676">
        <ele>153.2</ele>
        <time>2013-11-23T09:02:06.348Z</time>
      </trkpt>
      <trkpt lat="44.17175" lon="4.68677">
        <ele>153.5</ele>
        <time>2013-11-23T09:02:08.347Z</time>
      </trkpt>
      <trkpt lat="44.17183" lon="4.68678">
        <ele>153.7</ele>
        <time>2013-11-23T09:02:11.362Z</time>
      </trkpt>
      <trkpt lat="44.17188" lon="4.68679">
        <ele>153.9</ele>
        <time>2013-11-23T09:02:13.348Z</time>
      </trkpt>
      <trkpt lat="44.17195" lon="4.68679">
        <ele>154</ele>
        <time>2013-11-23T09:02:16.348Z</time>
      </trkpt>
      <trkpt lat="44.17198" lon="4.68678">
        <ele>154.2</ele>
        <time>2013-11-23T09:02:17.347Z</time>
      </trkpt>
      <trkpt lat="44.17205" lon="4.68676">
        <ele>155</ele>
        <time>2013-11-23T09:02:20.347Z</time>
      </trkpt>
      <trkpt lat="44.1721" lon="4.68677">
        <ele>155.3</ele>
        <time>2013-11-23T09:02:22.343Z</time>
      </trkpt>
      <trkpt lat="44.17216" lon="4.68677">
        <ele>153.7</ele>
        <time>2013-11-23T09:02:24.350Z</time>
      </trkpt>
      <trkpt lat="44.17219" lon="4.68676">
        <ele>153</ele>
        <time>2013-11-23T09:02:25.350Z</time>
      </trkpt>
      <trkpt lat="44.17228" lon="4.68679">
        <ele>153.6</ele>
        <time>2013-11-23T09:02:28.350Z</time>
      </trkpt>
      <trkpt lat="44.17231" lon="4.6868">
        <ele>153.6</ele>
        <time>2013-11-23T09:02:29.354Z</time>
      </trkpt>
      <trkpt lat="44.17234" lon="4.68682">
        <ele>153.8</ele>
        <time>2013-11-23T09:02:30.351Z</time>
      </trkpt>
      <trkpt lat="44.17239" lon="4.68686">
        <ele>154.4</ele>
        <time>2013-11-23T09:02:32.350Z</time>
      </trkpt>
      <trkpt lat="44.17245" lon="4.68691">
        <ele>154.2</ele>
        <time>2013-11-23T09:02:34.350Z</time>
      </trkpt>
      <trkpt lat="44.17248" lon="4.68694">
        <ele>154.3</ele>
        <time>2013-11-23T09:02:35.350Z</time>
      </trkpt>
      <trkpt lat="44.17253" lon="4.687">
        <ele>154.2</ele>
        <time>2013-11-23T09:02:37.350Z</time>
      </trkpt>
      <trkpt lat="44.17255" lon="4.68703">
        <ele>154.1</ele>
        <time>2013-11-23T09:02:38.350Z</time>
      </trkpt>
      <trkpt lat="44.1726" lon="4.68712">
        <ele>154.1</ele>
        <time>2013-11-23T09:02:40.349Z</time>
      </trkpt>
      <trkpt lat="44.17263" lon="4.68716">
        <ele>154.1</ele>
        <time>2013-11-23T09:02:41.349Z</time>
      </trkpt>
      <trkpt lat="44.17266" lon="4.6872">
        <ele>153.9</ele>
        <time>2013-11-23T09:02:42.350Z</time>
      </trkpt>
      <trkpt lat="44.17271" lon="4.68728">
        <ele>154.3</ele>
        <time>2013-11-23T09:02:44.323Z</time>
      </trkpt>
      <trkpt lat="44.17275" lon="4.68736">
        <ele>154.6</ele>
        <time>2013-11-23T09:02:46.350Z</time>
      </trkpt>
      <trkpt lat="44.17277" lon="4.6874">
        <ele>154.6</ele>
        <time>2013-11-23T09:02:47.350Z</time>
      </trkpt>
      <trkpt lat="44.17282" lon="4.68749">
        <ele>154.8</ele>
        <time>2013-11-23T09:02:50.349Z</time>
      </trkpt>
      <trkpt lat="44.17284" lon="4.68752">
        <ele>154.9</ele>
        <time>2013-11-23T09:02:51.350Z</time>
      </trkpt>
      <trkpt lat="44.17289" lon="4.68761">
        <ele>154.8</ele>
        <time>2013-11-23T09:02:54.350Z</time>
      </trkpt>
      <trkpt lat="44.17293" lon="4.68766">
        <ele>155.2</ele>
        <time>2013-11-23T09:02:56.352Z</time>
      </trkpt>
      <trkpt lat="44.17297" lon="4.68775">
        <ele>155.5</ele>
        <time>2013-11-23T09:03:00.350Z</time>
      </trkpt>
      <trkpt lat="44.17298" lon="4.68777">
        <ele>155.5</ele>
        <time>2013-11-23T09:03:01.355Z</time>
      </trkpt>
      <trkpt lat="44.17304" lon="4.68785">
        <ele>155.7</ele>
        <time>2013-11-23T09:03:04.350Z</time>
      </trkpt>
      <trkpt lat="44.1731" lon="4.6879">
        <ele>155.4</ele>
        <time>2013-11-23T09:03:06.350Z</time>
      </trkpt>
      <trkpt lat="44.17316" lon="4.68794">
        <ele>155.6</ele>
        <time>2013-11-23T09:03:08.350Z</time>
      </trkpt>
      <trkpt lat="44.17319" lon="4.68796">
        <ele>155.7</ele>
        <time>2013-11-23T09:03:09.350Z</time>
      </trkpt>
      <trkpt lat="44.17322" lon="4.68798">
        <ele>155.5</ele>
        <time>2013-11-23T09:03:10.350Z</time>
      </trkpt>
      <trkpt lat="44.1733" lon="4.68803">
        <ele>155.6</ele>
        <time>2013-11-23T09:03:12.366Z</time>
      </trkpt>
      <trkpt lat="44.17337" lon="4.68808">
        <ele>155.8</ele>
        <time>2013-11-23T09:03:14.350Z</time>
      </trkpt>
      <trkpt lat="44.17341" lon="4.6881">
        <ele>155.9</ele>
        <time>2013-11-23T09:03:15.349Z</time>
      </trkpt>
      <trkpt lat="44.17348" lon="4.68815">
        <ele>156.2</ele>
        <time>2013-11-23T09:03:17.350Z</time>
      </trkpt>
      <trkpt lat="44.17351" lon="4.68818">
        <ele>156.2</ele>
        <time>2013-11-23T09:03:18.350Z</time>
      </trkpt>
      <trkpt lat="44.17359" lon="4.68823">
        <ele>156.3</ele>
        <time>2013-11-23T09:03:20.349Z</time>
      </trkpt>
      <trkpt lat="44.17362" lon="4.68825">
        <ele>156.4</ele>
        <time>2013-11-23T09:03:21.350Z</time>
      </trkpt>
      <trkpt lat="44.1737" lon="4.6883">
        <ele>156.7</ele>
        <time>2013-11-23T09:03:23.350Z</time>
      </trkpt>
      <trkpt lat="44.17373" lon="4.68833">
        <ele>156.7</ele>
        <time>2013-11-23T09:03:24.351Z</time>
      </trkpt>
      <trkpt lat="44.1738" lon="4.68837">
        <ele>156.8</ele>
        <time>2013-11-23T09:03:26.349Z</time>
      </trkpt>
      <trkpt lat="44.17384" lon="4.6884">
        <ele>156.8</ele>
        <time>2013-11-23T09:03:27.350Z</time>
      </trkpt>
      <trkpt lat="44.17391" lon="4.68844">
        <ele>157.2</ele>
        <time>2013-11-23T09:03:29.350Z</time>
      </trkpt>
      <trkpt lat="44.17395" lon="4.68847">
        <ele>157.3</ele>
        <time>2013-11-23T09:03:30.400Z</time>
      </trkpt>
      <trkpt lat="44.17402" lon="4.68852">
        <ele>157.3</ele>
        <time>2013-11-23T09:03:32.348Z</time>
      </trkpt>
      <trkpt lat="44.17406" lon="4.68854">
        <ele>157.4</ele>
        <time>2013-11-23T09:03:33.356Z</time>
      </trkpt>
      <trkpt lat="44.17413" lon="4.68859">
        <ele>157.6</ele>
        <time>2013-11-23T09:03:35.349Z</time>
      </trkpt>
      <trkpt lat="44.17417" lon="4.68861">
        <ele>157.7</ele>
        <time>2013-11-23T09:03:36.350Z</time>
      </trkpt>
      <trkpt lat="44.1742" lon="4.68864">
        <ele>157.7</ele>
        <time>2013-11-23T09:03:37.350Z</time>
      </trkpt>
      <trkpt lat="44.17427" lon="4.68869">
        <ele>157.9</ele>
        <time>2013-11-23T09:03:39.350Z</time>
      </trkpt>
      <trkpt lat="44.17434" lon="4.68874">
        <ele>158.2</ele>
        <time>2013-11-23T09:03:41.350Z</time>
      </trkpt>
      <trkpt lat="44.17437" lon="4.68876">
        <ele>158</ele>
        <time>2013-11-23T09:03:42.356Z</time>
      </trkpt>
      <trkpt lat="44.17444" lon="4.68881">
        <ele>158.1</ele>
        <time>2013-11-23T09:03:44.351Z</time>
      </trkpt>
      <trkpt lat="44.1745" lon="4.68886">
        <ele>158</ele>
        <time>2013-11-23T09:03:46.351Z</time>
      </trkpt>
      <trkpt lat="44.17454" lon="4.68888">
        <ele>158.1</ele>
        <time>2013-11-23T09:03:47.350Z</time>
      </trkpt>
      <trkpt lat="44.1746" lon="4.68893">
        <ele>157.9</ele>
        <time>2013-11-23T09:03:49.348Z</time>
      </trkpt>
      <trkpt lat="44.17467" lon="4.68898">
        <ele>157.7</ele>
        <time>2013-11-23T09:03:51.350Z</time>
      </trkpt>
      <trkpt lat="44.17475" lon="4.68903">
        <ele>157.4</ele>
        <time>2013-11-23T09:03:53.348Z</time>
      </trkpt>
      <trkpt lat="44.17478" lon="4.68905">
        <ele>157.3</ele>
        <time>2013-11-23T09:03:54.352Z</time>
      </trkpt>
      <trkpt lat="44.17486" lon="4.6891">
        <ele>156.8</ele>
        <time>2013-11-23T09:03:56.354Z</time>
      </trkpt>
      <trkpt lat="44.17493" lon="4.68915">
        <ele>156.8</ele>
        <time>2013-11-23T09:03:58.350Z</time>
      </trkpt>
      <trkpt lat="44.175" lon="4.68921">
        <ele>156.5</ele>
        <time>2013-11-23T09:04:00.350Z</time>
      </trkpt>
      <trkpt lat="44.17503" lon="4.68925">
        <ele>156</ele>
        <time>2013-11-23T09:04:01.358Z</time>
      </trkpt>
      <trkpt lat="44.17508" lon="4.68936">
        <ele>155.4</ele>
        <time>2013-11-23T09:04:03.350Z</time>
      </trkpt>
      <trkpt lat="44.1751" lon="4.68943">
        <ele>155.3</ele>
        <time>2013-11-23T09:04:04.351Z</time>
      </trkpt>
      <trkpt lat="44.17513" lon="4.68949">
        <ele>155.2</ele>
        <time>2013-11-23T09:04:05.358Z</time>
      </trkpt>
      <trkpt lat="44.17518" lon="4.6896">
        <ele>155</ele>
        <time>2013-11-23T09:04:07.349Z</time>
      </trkpt>
      <trkpt lat="44.17521" lon="4.68964">
        <ele>154.8</ele>
        <time>2013-11-23T09:04:08.350Z</time>
      </trkpt>
      <trkpt lat="44.17524" lon="4.68969">
        <ele>154.8</ele>
        <time>2013-11-23T09:04:09.350Z</time>
      </trkpt>
      <trkpt lat="44.1753" lon="4.68978">
        <ele>154.8</ele>
        <time>2013-11-23T09:04:11.360Z</time>
      </trkpt>
      <trkpt lat="44.17536" lon="4.68985">
        <ele>154.8</ele>
        <time>2013-11-23T09:04:13.349Z</time>
      </trkpt>
      <trkpt lat="44.17539" lon="4.68988">
        <ele>154.8</ele>
        <time>2013-11-23T09:04:14.351Z</time>
      </trkpt>
      <trkpt lat="44.17545" lon="4.68995">
        <ele>154.8</ele>
        <time>2013-11-23T09:04:16.347Z</time>
      </trkpt>
      <trkpt lat="44.1755" lon="4.69">
        <ele>154.8</ele>
        <time>2013-11-23T09:04:18.351Z</time>
      </trkpt>
      <trkpt lat="44.17553" lon="4.69002">
        <ele>155.1</ele>
        <time>2013-11-23T09:04:19.353Z</time>
      </trkpt>
      <trkpt lat="44.17557" lon="4.69011">
        <ele>154.4</ele>
        <time>2013-11-23T09:04:22.353Z</time>
      </trkpt>
      <trkpt lat="44.17558" lon="4.69014">
        <ele>154.9</ele>
        <time>2013-11-23T09:04:23.356Z</time>
      </trkpt>
      <trkpt lat="44.17562" lon="4.6902">
        <ele>154.2</ele>
        <time>2013-11-23T09:04:27.354Z</time>
      </trkpt>
      <trkpt lat="44.17566" lon="4.69022">
        <ele>155.2</ele>
        <time>2013-11-23T09:04:29.345Z</time>
      </trkpt>
      <trkpt lat="44.17572" lon="4.69025">
        <ele>157.8</ele>
        <time>2013-11-23T09:04:31.372Z</time>
      </trkpt>
      <trkpt lat="44.17576" lon="4.69029">
        <ele>157.2</ele>
        <time>2013-11-23T09:04:33.355Z</time>
      </trkpt>
      <trkpt lat="44.17582" lon="4.69036">
        <ele>156.7</ele>
        <time>2013-11-23T09:04:37.351Z</time>
      </trkpt>
      <trkpt lat="44.17584" lon="4.6904">
        <ele>156.9</ele>
        <time>2013-11-23T09:04:39.361Z</time>
      </trkpt>
      <trkpt lat="44.17591" lon="4.69045">
        <ele>159.1</ele>
        <time>2013-11-23T09:04:43.359Z</time>
      </trkpt>
      <trkpt lat="44.17594" lon="4.69047">
        <ele>158.6</ele>
        <time>2013-11-23T09:04:44.952Z</time>
      </trkpt>
      <trkpt lat="44.176" lon="4.69052">
        <ele>158.2</ele>
        <time>2013-11-23T09:04:47.806Z</time>
      </trkpt>
      <trkpt lat="44.17605" lon="4.69058">
        <ele>158.6</ele>
        <time>2013-11-23T09:04:49.800Z</time>
      </trkpt>
      <trkpt lat="44.17611" lon="4.69063">
        <ele>158.9</ele>
        <time>2013-11-23T09:04:51.799Z</time>
      </trkpt>
      <trkpt lat="44.17614" lon="4.69066">
        <ele>158.4</ele>
        <time>2013-11-23T09:04:52.807Z</time>
      </trkpt>
      <trkpt lat="44.1762" lon="4.69072">
        <ele>158.2</ele>
        <time>2013-11-23T09:04:54.805Z</time>
      </trkpt>
      <trkpt lat="44.17625" lon="4.69077">
        <ele>157.2</ele>
        <time>2013-11-23T09:04:56.806Z</time>
      </trkpt>
      <trkpt lat="44.1763" lon="4.69082">
        <ele>156.1</ele>
        <time>2013-11-23T09:04:58.845Z</time>
      </trkpt>
      <trkpt lat="44.17636" lon="4.69086">
        <ele>155.8</ele>
        <time>2013-11-23T09:05:00.807Z</time>
      </trkpt>
      <trkpt lat="44.17643" lon="4.69091">
        <ele>155.6</ele>
        <time>2013-11-23T09:05:03.805Z</time>
      </trkpt>
      <trkpt lat="44.17648" lon="4.69097">
        <ele>155.5</ele>
        <time>2013-11-23T09:05:05.801Z</time>
      </trkpt>
      <trkpt lat="44.17654" lon="4.69105">
        <ele>153.4</ele>
        <time>2013-11-23T09:05:08.801Z</time>
      </trkpt>
      <trkpt lat="44.17658" lon="4.69108">
        <ele>152.9</ele>
        <time>2013-11-23T09:05:09.801Z</time>
      </trkpt>
      <trkpt lat="44.17661" lon="4.6911">
        <ele>153.4</ele>
        <time>2013-11-23T09:05:10.805Z</time>
      </trkpt>
      <trkpt lat="44.17666" lon="4.69116">
        <ele>153.5</ele>
        <time>2013-11-23T09:05:12.835Z</time>
      </trkpt>
      <trkpt lat="44.1767" lon="4.69125">
        <ele>152</ele>
        <time>2013-11-23T09:05:14.796Z</time>
      </trkpt>
      <trkpt lat="44.17672" lon="4.69131">
        <ele>151.2</ele>
        <time>2013-11-23T09:05:15.807Z</time>
      </trkpt>
      <trkpt lat="44.17673" lon="4.69137">
        <ele>150.1</ele>
        <time>2013-11-23T09:05:16.852Z</time>
      </trkpt>
      <trkpt lat="44.17673" lon="4.69152">
        <ele>147.2</ele>
        <time>2013-11-23T09:05:18.801Z</time>
      </trkpt>
      <trkpt lat="44.17672" lon="4.69161">
        <ele>146.7</ele>
        <time>2013-11-23T09:05:19.801Z</time>
      </trkpt>
      <trkpt lat="44.17672" lon="4.69167">
        <ele>146.5</ele>
        <time>2013-11-23T09:05:20.803Z</time>
      </trkpt>
      <trkpt lat="44.17676" lon="4.69175">
        <ele>146.9</ele>
        <time>2013-11-23T09:05:22.801Z</time>
      </trkpt>
      <trkpt lat="44.17681" lon="4.69182">
        <ele>146.3</ele>
        <time>2013-11-23T09:05:24.800Z</time>
      </trkpt>
      <trkpt lat="44.17685" lon="4.69191">
        <ele>145.7</ele>
        <time>2013-11-23T09:05:26.800Z</time>
      </trkpt>
      <trkpt lat="44.17686" lon="4.69196">
        <ele>145.6</ele>
        <time>2013-11-23T09:05:27.801Z</time>
      </trkpt>
      <trkpt lat="44.17687" lon="4.69201">
        <ele>145.4</ele>
        <time>2013-11-23T09:05:28.805Z</time>
      </trkpt>
      <trkpt lat="44.17691" lon="4.69212">
        <ele>145</ele>
        <time>2013-11-23T09:05:30.800Z</time>
      </trkpt>
      <trkpt lat="44.17694" lon="4.69218">
        <ele>144.8</ele>
        <time>2013-11-23T09:05:31.800Z</time>
      </trkpt>
      <trkpt lat="44.17697" lon="4.69222">
        <ele>147.1</ele>
        <time>2013-11-23T09:05:32.804Z</time>
      </trkpt>
      <trkpt lat="44.17702" lon="4.69229">
        <ele>148.8</ele>
        <time>2013-11-23T09:05:34.798Z</time>
      </trkpt>
      <trkpt lat="44.17707" lon="4.69236">
        <ele>149.7</ele>
        <time>2013-11-23T09:05:36.817Z</time>
      </trkpt>
      <trkpt lat="44.1771" lon="4.69239">
        <ele>149.9</ele>
        <time>2013-11-23T09:05:37.801Z</time>
      </trkpt>
      <trkpt lat="44.17713" lon="4.69247">
        <ele>150.2</ele>
        <time>2013-11-23T09:05:39.849Z</time>
      </trkpt>
      <trkpt lat="44.17716" lon="4.69255">
        <ele>150.3</ele>
        <time>2013-11-23T09:05:41.795Z</time>
      </trkpt>
      <trkpt lat="44.17717" lon="4.69261">
        <ele>150</ele>
        <time>2013-11-23T09:05:42.799Z</time>
      </trkpt>
      <trkpt lat="44.1772" lon="4.69271">
        <ele>149.9</ele>
        <time>2013-11-23T09:05:44.801Z</time>
      </trkpt>
      <trkpt lat="44.1773" lon="4.69284">
        <ele>154.9</ele>
        <time>2013-11-23T09:05:46.800Z</time>
      </trkpt>
      <trkpt lat="44.17733" lon="4.69289">
        <ele>155.7</ele>
        <time>2013-11-23T09:05:47.797Z</time>
      </trkpt>
      <trkpt lat="44.17737" lon="4.69294">
        <ele>155.7</ele>
        <time>2013-11-23T09:05:48.848Z</time>
      </trkpt>
      <trkpt lat="44.17732" lon="4.69309">
        <ele>149.5</ele>
        <time>2013-11-23T09:05:50.799Z</time>
      </trkpt>
      <trkpt lat="44.17727" lon="4.6932">
        <ele>146.9</ele>
        <time>2013-11-23T09:05:51.910Z</time>
      </trkpt>
      <trkpt lat="44.17726" lon="4.69338">
        <ele>144.4</ele>
        <time>2013-11-23T09:05:53.796Z</time>
      </trkpt>
      <trkpt lat="44.17726" lon="4.69345">
        <ele>144.1</ele>
        <time>2013-11-23T09:05:54.826Z</time>
      </trkpt>
      <trkpt lat="44.17722" lon="4.69353">
        <ele>143.9</ele>
        <time>2013-11-23T09:05:56.803Z</time>
      </trkpt>
      <trkpt lat="44.1772" lon="4.69355">
        <ele>144.1</ele>
        <time>2013-11-23T09:05:57.838Z</time>
      </trkpt>
      <trkpt lat="44.17713" lon="4.69356">
        <ele>142.9</ele>
        <time>2013-11-23T09:05:59.800Z</time>
      </trkpt>
      <trkpt lat="44.17707" lon="4.69364">
        <ele>143.7</ele>
        <time>2013-11-23T09:06:02.797Z</time>
      </trkpt>
      <trkpt lat="44.17706" lon="4.69368">
        <ele>143.4</ele>
        <time>2013-11-23T09:06:03.826Z</time>
      </trkpt>
      <trkpt lat="44.17701" lon="4.69377">
        <ele>143.1</ele>
        <time>2013-11-23T09:06:05.802Z</time>
      </trkpt>
      <trkpt lat="44.17697" lon="4.69379">
        <ele>142.9</ele>
        <time>2013-11-23T09:06:06.827Z</time>
      </trkpt>
      <trkpt lat="44.17689" lon="4.69383">
        <ele>142.8</ele>
        <time>2013-11-23T09:06:08.828Z</time>
      </trkpt>
      <trkpt lat="44.17685" lon="4.69384">
        <ele>142.8</ele>
        <time>2013-11-23T09:06:09.845Z</time>
      </trkpt>
      <trkpt lat="44.17678" lon="4.69388">
        <ele>142.6</ele>
        <time>2013-11-23T09:06:11.850Z</time>
      </trkpt>
      <trkpt lat="44.17671" lon="4.69396">
        <ele>141.6</ele>
        <time>2013-11-23T09:06:13.800Z</time>
      </trkpt>
      <trkpt lat="44.17667" lon="4.694">
        <ele>141.8</ele>
        <time>2013-11-23T09:06:14.823Z</time>
      </trkpt>
      <trkpt lat="44.17663" lon="4.69404">
        <ele>141.4</ele>
        <time>2013-11-23T09:06:15.825Z</time>
      </trkpt>
      <trkpt lat="44.17654" lon="4.69408">
        <ele>142</ele>
        <time>2013-11-23T09:06:17.802Z</time>
      </trkpt>
      <trkpt lat="44.1765" lon="4.6941">
        <ele>141.8</ele>
        <time>2013-11-23T09:06:18.827Z</time>
      </trkpt>
      <trkpt lat="44.17642" lon="4.69414">
        <ele>141.6</ele>
        <time>2013-11-23T09:06:20.800Z</time>
      </trkpt>
      <trkpt lat="44.17638" lon="4.69416">
        <ele>141.6</ele>
        <time>2013-11-23T09:06:21.799Z</time>
      </trkpt>
      <trkpt lat="44.17631" lon="4.69422">
        <ele>142.4</ele>
        <time>2013-11-23T09:06:23.800Z</time>
      </trkpt>
      <trkpt lat="44.17624" lon="4.69428">
        <ele>142.3</ele>
        <time>2013-11-23T09:06:25.800Z</time>
      </trkpt>
      <trkpt lat="44.17618" lon="4.69432">
        <ele>142.4</ele>
        <time>2013-11-23T09:06:27.825Z</time>
      </trkpt>
      <trkpt lat="44.17613" lon="4.69435">
        <ele>142.8</ele>
        <time>2013-11-23T09:06:29.825Z</time>
      </trkpt>
      <trkpt lat="44.17605" lon="4.69438">
        <ele>143.3</ele>
        <time>2013-11-23T09:06:32.854Z</time>
      </trkpt>
      <trkpt lat="44.17601" lon="4.69438">
        <ele>143.4</ele>
        <time>2013-11-23T09:06:34.493Z</time>
      </trkpt>
      <trkpt lat="44.17594" lon="4.69439">
        <ele>143.6</ele>
        <time>2013-11-23T09:06:36.826Z</time>
      </trkpt>
      <trkpt lat="44.17591" lon="4.6944">
        <ele>144.9</ele>
        <time>2013-11-23T09:06:37.829Z</time>
      </trkpt>
      <trkpt lat="44.17584" lon="4.69444">
        <ele>144.4</ele>
        <time>2013-11-23T09:06:40.749Z</time>
      </trkpt>
      <trkpt lat="44.17579" lon="4.69448">
        <ele>144.5</ele>
        <time>2013-11-23T09:06:42.794Z</time>
      </trkpt>
      <trkpt lat="44.17574" lon="4.69452">
        <ele>144.1</ele>
        <time>2013-11-23T09:06:44.551Z</time>
      </trkpt>
      <trkpt lat="44.17571" lon="4.69454">
        <ele>143.7</ele>
        <time>2013-11-23T09:06:45.566Z</time>
      </trkpt>
      <trkpt lat="44.17565" lon="4.69458">
        <ele>143.8</ele>
        <time>2013-11-23T09:06:47.772Z</time>
      </trkpt>
      <trkpt lat="44.17559" lon="4.69462">
        <ele>144.1</ele>
        <time>2013-11-23T09:06:49.569Z</time>
      </trkpt>
      <trkpt lat="44.17552" lon="4.69466">
        <ele>144.2</ele>
        <time>2013-11-23T09:06:51.605Z</time>
      </trkpt>
      <trkpt lat="44.17547" lon="4.69469">
        <ele>144.9</ele>
        <time>2013-11-23T09:06:53.568Z</time>
      </trkpt>
      <trkpt lat="44.17541" lon="4.69473">
        <ele>145</ele>
        <time>2013-11-23T09:06:56.614Z</time>
      </trkpt>
      <trkpt lat="44.17537" lon="4.69476">
        <ele>145</ele>
        <time>2013-11-23T09:06:58.589Z</time>
      </trkpt>
      <trkpt lat="44.17533" lon="4.69479">
        <ele>145.3</ele>
        <time>2013-11-23T09:07:00.585Z</time>
      </trkpt>
      <trkpt lat="44.17529" lon="4.69482">
        <ele>145.2</ele>
        <time>2013-11-23T09:07:02.585Z</time>
      </trkpt>
      <trkpt lat="44.17524" lon="4.69484">
        <ele>145.1</ele>
        <time>2013-11-23T09:07:04.604Z</time>
      </trkpt>
      <trkpt lat="44.17518" lon="4.69486">
        <ele>144.9</ele>
        <time>2013-11-23T09:07:06.547Z</time>
      </trkpt>
      <trkpt lat="44.17515" lon="4.69487">
        <ele>145</ele>
        <time>2013-11-23T09:07:07.552Z</time>
      </trkpt>
      <trkpt lat="44.17509" lon="4.6949">
        <ele>144.9</ele>
        <time>2013-11-23T09:07:09.710Z</time>
      </trkpt>
      <trkpt lat="44.17507" lon="4.69492">
        <ele>144.9</ele>
        <time>2013-11-23T09:07:10.868Z</time>
      </trkpt>
      <trkpt lat="44.17501" lon="4.69496">
        <ele>144.9</ele>
        <time>2013-11-23T09:07:12.552Z</time>
      </trkpt>
      <trkpt lat="44.17495" lon="4.695">
        <ele>145.1</ele>
        <time>2013-11-23T09:07:14.733Z</time>
      </trkpt>
      <trkpt lat="44.17492" lon="4.69502">
        <ele>145</ele>
        <time>2013-11-23T09:07:15.777Z</time>
      </trkpt>
      <trkpt lat="44.17485" lon="4.69507">
        <ele>145.2</ele>
        <time>2013-11-23T09:07:18.841Z</time>
      </trkpt>
      <trkpt lat="44.17483" lon="4.69511">
        <ele>144.9</ele>
        <time>2013-11-23T09:07:20.555Z</time>
      </trkpt>
      <trkpt lat="44.17481" lon="4.69515">
        <ele>144.9</ele>
        <time>2013-11-23T09:07:21.670Z</time>
      </trkpt>
      <trkpt lat="44.17478" lon="4.69522">
        <ele>143.9</ele>
        <time>2013-11-23T09:07:23.586Z</time>
      </trkpt>
      <trkpt lat="44.1747" lon="4.69523">
        <ele>144.1</ele>
        <time>2013-11-23T09:07:25.589Z</time>
      </trkpt>
      <trkpt lat="44.17464" lon="4.69521">
        <ele>144.5</ele>
        <time>2013-11-23T09:07:27.584Z</time>
      </trkpt>
      <trkpt lat="44.17458" lon="4.69517">
        <ele>145.2</ele>
        <time>2013-11-23T09:07:30.587Z</time>
      </trkpt>
      <trkpt lat="44.17454" lon="4.69516">
        <ele>145.3</ele>
        <time>2013-11-23T09:07:32.581Z</time>
      </trkpt>
      <trkpt lat="44.17445" lon="4.69519">
        <ele>145.5</ele>
        <time>2013-11-23T09:07:35.582Z</time>
      </trkpt>
      <trkpt lat="44.17443" lon="4.69521">
        <ele>145.5</ele>
        <time>2013-11-23T09:07:36.584Z</time>
      </trkpt>
      <trkpt lat="44.17437" lon="4.69531">
        <ele>144.8</ele>
        <time>2013-11-23T09:07:39.587Z</time>
      </trkpt>
      <trkpt lat="44.17438" lon="4.6954">
        <ele>144.6</ele>
        <time>2013-11-23T09:07:41.586Z</time>
      </trkpt>
      <trkpt lat="44.17435" lon="4.69547">
        <ele>145.2</ele>
        <time>2013-11-23T09:07:43.586Z</time>
      </trkpt>
      <trkpt lat="44.17432" lon="4.69549">
        <ele>145.5</ele>
        <time>2013-11-23T09:07:44.587Z</time>
      </trkpt>
      <trkpt lat="44.17426" lon="4.69552">
        <ele>145.5</ele>
        <time>2013-11-23T09:07:46.556Z</time>
      </trkpt>
      <trkpt lat="44.17423" lon="4.69553">
        <ele>145.6</ele>
        <time>2013-11-23T09:07:47.554Z</time>
      </trkpt>
      <trkpt lat="44.17416" lon="4.69558">
        <ele>146.3</ele>
        <time>2013-11-23T09:07:50.561Z</time>
      </trkpt>
      <trkpt lat="44.17414" lon="4.6956">
        <ele>146.3</ele>
        <time>2013-11-23T09:07:51.561Z</time>
      </trkpt>
      <trkpt lat="44.17409" lon="4.69562">
        <ele>146.4</ele>
        <time>2013-11-23T09:07:53.585Z</time>
      </trkpt>
      <trkpt lat="44.17405" lon="4.69565">
        <ele>146.6</ele>
        <time>2013-11-23T09:07:55.561Z</time>
      </trkpt>
      <trkpt lat="44.17403" lon="4.6957">
        <ele>146.4</ele>
        <time>2013-11-23T09:07:57.562Z</time>
      </trkpt>
      <trkpt lat="44.174" lon="4.69578">
        <ele>146.3</ele>
        <time>2013-11-23T09:07:59.560Z</time>
      </trkpt>
      <trkpt lat="44.17398" lon="4.69581">
        <ele>146.5</ele>
        <time>2013-11-23T09:08:00.592Z</time>
      </trkpt>
      <trkpt lat="44.17392" lon="4.69583">
        <ele>146.9</ele>
        <time>2013-11-23T09:08:02.555Z</time>
      </trkpt>
      <trkpt lat="44.17384" lon="4.69579">
        <ele>147.8</ele>
        <time>2013-11-23T09:08:05.560Z</time>
      </trkpt>
      <trkpt lat="44.17382" lon="4.69577">
        <ele>147.8</ele>
        <time>2013-11-23T09:08:06.594Z</time>
      </trkpt>
      <trkpt lat="44.17377" lon="4.69574">
        <ele>148.5</ele>
        <time>2013-11-23T09:08:08.562Z</time>
      </trkpt>
      <trkpt lat="44.17371" lon="4.69572">
        <ele>148.9</ele>
        <time>2013-11-23T09:08:10.560Z</time>
      </trkpt>
      <trkpt lat="44.17363" lon="4.69569">
        <ele>149.1</ele>
        <time>2013-11-23T09:08:13.561Z</time>
      </trkpt>
      <trkpt lat="44.1736" lon="4.69568">
        <ele>148.6</ele>
        <time>2013-11-23T09:08:14.560Z</time>
      </trkpt>
      <trkpt lat="44.17355" lon="4.69567">
        <ele>149.9</ele>
        <time>2013-11-23T09:08:16.602Z</time>
      </trkpt>
      <trkpt lat="44.1735" lon="4.69567">
        <ele>151.5</ele>
        <time>2013-11-23T09:08:18.560Z</time>
      </trkpt>
      <trkpt lat="44.17343" lon="4.69565">
        <ele>152.6</ele>
        <time>2013-11-23T09:08:21.561Z</time>
      </trkpt>
      <trkpt lat="44.1734" lon="4.69565">
        <ele>152.7</ele>
        <time>2013-11-23T09:08:22.560Z</time>
      </trkpt>
      <trkpt lat="44.17331" lon="4.69567">
        <ele>153.1</ele>
        <time>2013-11-23T09:08:25.560Z</time>
      </trkpt>
      <trkpt lat="44.17328" lon="4.69567">
        <ele>153.6</ele>
        <time>2013-11-23T09:08:26.559Z</time>
      </trkpt>
      <trkpt lat="44.17323" lon="4.69567">
        <ele>153.9</ele>
        <time>2013-11-23T09:08:28.563Z</time>
      </trkpt>
      <trkpt lat="44.17319" lon="4.69568">
        <ele>154.9</ele>
        <time>2013-11-23T09:08:30.561Z</time>
      </trkpt>
      <trkpt lat="44.17311" lon="4.69567">
        <ele>155.9</ele>
        <time>2013-11-23T09:08:33.563Z</time>
      </trkpt>
      <trkpt lat="44.17308" lon="4.69567">
        <ele>156.1</ele>
        <time>2013-11-23T09:08:34.564Z</time>
      </trkpt>
      <trkpt lat="44.173" lon="4.69565">
        <ele>156.7</ele>
        <time>2013-11-23T09:08:37.551Z</time>
      </trkpt>
      <trkpt lat="44.17297" lon="4.69564">
        <ele>157.1</ele>
        <time>2013-11-23T09:08:38.551Z</time>
      </trkpt>
      <trkpt lat="44.17289" lon="4.6956">
        <ele>157.6</ele>
        <time>2013-11-23T09:08:42.678Z</time>
      </trkpt>
      <trkpt lat="44.17285" lon="4.69558">
        <ele>158.7</ele>
        <time>2013-11-23T09:08:44.778Z</time>
      </trkpt>
      <trkpt lat="44.17277" lon="4.69554">
        <ele>159.7</ele>
        <time>2013-11-23T09:08:48.565Z</time>
      </trkpt>
      <trkpt lat="44.17275" lon="4.69553">
        <ele>159.9</ele>
        <time>2013-11-23T09:08:49.569Z</time>
      </trkpt>
      <trkpt lat="44.17268" lon="4.69557">
        <ele>160</ele>
        <time>2013-11-23T09:08:54.659Z</time>
      </trkpt>
      <trkpt lat="44.17266" lon="4.69559">
        <ele>160.5</ele>
        <time>2013-11-23T09:08:56.568Z</time>
      </trkpt>
      <trkpt lat="44.17261" lon="4.69561">
        <ele>162</ele>
        <time>2013-11-23T09:09:00.978Z</time>
      </trkpt>
      <trkpt lat="44.17256" lon="4.69561">
        <ele>161.3</ele>
        <time>2013-11-23T09:09:03.788Z</time>
      </trkpt>
      <trkpt lat="44.17249" lon="4.69561">
        <ele>162.4</ele>
        <time>2013-11-23T09:09:10.888Z</time>
      </trkpt>
      <trkpt lat="44.17244" lon="4.69558">
        <ele>164.7</ele>
        <time>2013-11-23T09:09:14.786Z</time>
      </trkpt>
      <trkpt lat="44.17237" lon="4.69562">
        <ele>165.2</ele>
        <time>2013-11-23T09:09:21.662Z</time>
      </trkpt>
      <trkpt lat="44.17233" lon="4.69564">
        <ele>166.2</ele>
        <time>2013-11-23T09:09:24.681Z</time>
      </trkpt>
      <trkpt lat="44.17224" lon="4.69566">
        <ele>166.9</ele>
        <time>2013-11-23T09:09:30.838Z</time>
      </trkpt>
      <trkpt lat="44.17223" lon="4.69567">
        <ele>166.6</ele>
        <time>2013-11-23T09:09:31.658Z</time>
      </trkpt>
      <trkpt lat="44.17216" lon="4.69571">
        <ele>166.1</ele>
        <time>2013-11-23T09:09:34.669Z</time>
      </trkpt>
      <trkpt lat="44.17214" lon="4.6957">
        <ele>166.3</ele>
        <time>2013-11-23T09:09:35.654Z</time>
      </trkpt>
      <trkpt lat="44.17206" lon="4.69568">
        <ele>164.1</ele>
        <time>2013-11-23T09:09:40.781Z</time>
      </trkpt>
      <trkpt lat="44.17207" lon="4.6958">
        <ele>163.1</ele>
        <time>2013-11-23T09:09:43.649Z</time>
      </trkpt>
      <trkpt lat="44.17208" lon="4.69586">
        <ele>162.5</ele>
        <time>2013-11-23T09:09:44.652Z</time>
      </trkpt>
      <trkpt lat="44.17209" lon="4.69599">
        <ele>161.2</ele>
        <time>2013-11-23T09:09:46.650Z</time>
      </trkpt>
      <trkpt lat="44.17209" lon="4.69605">
        <ele>161.1</ele>
        <time>2013-11-23T09:09:47.650Z</time>
      </trkpt>
      <trkpt lat="44.1721" lon="4.69615">
        <ele>160.4</ele>
        <time>2013-11-23T09:09:49.646Z</time>
      </trkpt>
      <trkpt lat="44.17212" lon="4.69624">
        <ele>159.6</ele>
        <time>2013-11-23T09:09:51.649Z</time>
      </trkpt>
      <trkpt lat="44.17213" lon="4.69628">
        <ele>160</ele>
        <time>2013-11-23T09:09:52.651Z</time>
      </trkpt>
      <trkpt lat="44.17214" lon="4.69635">
        <ele>159.1</ele>
        <time>2013-11-23T09:09:54.651Z</time>
      </trkpt>
      <trkpt lat="44.1721" lon="4.6964">
        <ele>159.1</ele>
        <time>2013-11-23T09:09:56.652Z</time>
      </trkpt>
      <trkpt lat="44.17203" lon="4.69643">
        <ele>158.8</ele>
        <time>2013-11-23T09:09:59.650Z</time>
      </trkpt>
      <trkpt lat="44.17201" lon="4.69646">
        <ele>158.7</ele>
        <time>2013-11-23T09:10:00.651Z</time>
      </trkpt>
      <trkpt lat="44.17203" lon="4.69656">
        <ele>162</ele>
        <time>2013-11-23T09:10:05.776Z</time>
      </trkpt>
      <trkpt lat="44.17203" lon="4.69661">
        <ele>162.7</ele>
        <time>2013-11-23T09:10:08.658Z</time>
      </trkpt>
      <trkpt lat="44.17204" lon="4.69671">
        <ele>164</ele>
        <time>2013-11-23T09:10:13.780Z</time>
      </trkpt>
      <trkpt lat="44.17206" lon="4.69679">
        <ele>163.4</ele>
        <time>2013-11-23T09:10:16.650Z</time>
      </trkpt>
      <trkpt lat="44.17207" lon="4.69686">
        <ele>163.4</ele>
        <time>2013-11-23T09:10:19.720Z</time>
      </trkpt>
      <trkpt lat="44.17207" lon="4.69691">
        <ele>163.1</ele>
        <time>2013-11-23T09:10:21.651Z</time>
      </trkpt>
      <trkpt lat="44.17201" lon="4.69697">
        <ele>162.4</ele>
        <time>2013-11-23T09:10:24.650Z</time>
      </trkpt>
      <trkpt lat="44.17198" lon="4.69698">
        <ele>162.5</ele>
        <time>2013-11-23T09:10:25.650Z</time>
      </trkpt>
      <trkpt lat="44.17192" lon="4.69701">
        <ele>161.8</ele>
        <time>2013-11-23T09:10:27.651Z</time>
      </trkpt>
      <trkpt lat="44.17189" lon="4.69703">
        <ele>161.9</ele>
        <time>2013-11-23T09:10:28.650Z</time>
      </trkpt>
      <trkpt lat="44.17182" lon="4.69705">
        <ele>161.6</ele>
        <time>2013-11-23T09:10:30.646Z</time>
      </trkpt>
      <trkpt lat="44.17179" lon="4.69707">
        <ele>161.3</ele>
        <time>2013-11-23T09:10:31.649Z</time>
      </trkpt>
      <trkpt lat="44.17172" lon="4.6971">
        <ele>161.4</ele>
        <time>2013-11-23T09:10:33.647Z</time>
      </trkpt>
      <trkpt lat="44.17169" lon="4.69712">
        <ele>161.6</ele>
        <time>2013-11-23T09:10:34.649Z</time>
      </trkpt>
      <trkpt lat="44.17162" lon="4.69714">
        <ele>160.9</ele>
        <time>2013-11-23T09:10:37.645Z</time>
      </trkpt>
      <trkpt lat="44.17159" lon="4.69713">
        <ele>160.9</ele>
        <time>2013-11-23T09:10:38.645Z</time>
      </trkpt>
      <trkpt lat="44.17154" lon="4.69713">
        <ele>161.3</ele>
        <time>2013-11-23T09:10:40.651Z</time>
      </trkpt>
      <trkpt lat="44.17149" lon="4.69716">
        <ele>161.8</ele>
        <time>2013-11-23T09:10:42.650Z</time>
      </trkpt>
      <trkpt lat="44.17143" lon="4.69721">
        <ele>161.5</ele>
        <time>2013-11-23T09:10:47.651Z</time>
      </trkpt>
      <trkpt lat="44.17141" lon="4.69721">
        <ele>161.3</ele>
        <time>2013-11-23T09:10:48.710Z</time>
      </trkpt>
      <trkpt lat="44.17139" lon="4.69722">
        <ele>160.8</ele>
        <time>2013-11-23T09:10:49.680Z</time>
      </trkpt>
      <trkpt lat="44.1713" lon="4.69722">
        <ele>160.8</ele>
        <time>2013-11-23T09:10:51.650Z</time>
      </trkpt>
      <trkpt lat="44.17127" lon="4.69722">
        <ele>160.6</ele>
        <time>2013-11-23T09:10:52.651Z</time>
      </trkpt>
      <trkpt lat="44.17121" lon="4.69724">
        <ele>160.2</ele>
        <time>2013-11-23T09:10:54.645Z</time>
      </trkpt>
      <trkpt lat="44.17114" lon="4.69729">
        <ele>159.7</ele>
        <time>2013-11-23T09:10:56.652Z</time>
      </trkpt>
      <trkpt lat="44.17109" lon="4.6973">
        <ele>159.2</ele>
        <time>2013-11-23T09:10:57.652Z</time>
      </trkpt>
      <trkpt lat="44.17101" lon="4.6973">
        <ele>157.4</ele>
        <time>2013-11-23T09:10:59.650Z</time>
      </trkpt>
      <trkpt lat="44.17098" lon="4.6973">
        <ele>156.9</ele>
        <time>2013-11-23T09:11:00.651Z</time>
      </trkpt>
      <trkpt lat="44.17097" lon="4.69741">
        <ele>156.9</ele>
        <time>2013-11-23T09:11:04.767Z</time>
      </trkpt>
      <trkpt lat="44.17101" lon="4.69745">
        <ele>154.4</ele>
        <time>2013-11-23T09:11:07.664Z</time>
      </trkpt>
      <trkpt lat="44.17105" lon="4.69752">
        <ele>155.5</ele>
        <time>2013-11-23T09:11:12.776Z</time>
      </trkpt>
      <trkpt lat="44.171" lon="4.69758">
        <ele>155.6</ele>
        <time>2013-11-23T09:11:15.650Z</time>
      </trkpt>
      <trkpt lat="44.17103" lon="4.69769">
        <ele>155</ele>
        <time>2013-11-23T09:11:19.931Z</time>
      </trkpt>
      <trkpt lat="44.17107" lon="4.69779">
        <ele>155.3</ele>
        <time>2013-11-23T09:11:22.652Z</time>
      </trkpt>
      <trkpt lat="44.17113" lon="4.69785">
        <ele>154.9</ele>
        <time>2013-11-23T09:11:25.654Z</time>
      </trkpt>
      <trkpt lat="44.17116" lon="4.69792">
        <ele>155</ele>
        <time>2013-11-23T09:11:27.654Z</time>
      </trkpt>
      <trkpt lat="44.17118" lon="4.69801">
        <ele>154.5</ele>
        <time>2013-11-23T09:11:30.909Z</time>
      </trkpt>
      <trkpt lat="44.17121" lon="4.69804">
        <ele>156.3</ele>
        <time>2013-11-23T09:11:32.810Z</time>
      </trkpt>
      <trkpt lat="44.1713" lon="4.69803">
        <ele>157.9</ele>
        <time>2013-11-23T09:11:43.807Z</time>
      </trkpt>
      <trkpt lat="44.17134" lon="4.69799">
        <ele>146.6</ele>
        <time>2013-11-23T09:11:48.809Z</time>
      </trkpt>
      <trkpt lat="44.17138" lon="4.69802">
        <ele>144</ele>
        <time>2013-11-23T09:11:53.944Z</time>
      </trkpt>
      <trkpt lat="44.17143" lon="4.69809">
        <ele>146.1</ele>
        <time>2013-11-23T09:11:56.807Z</time>
      </trkpt>
      <trkpt lat="44.17146" lon="4.69816">
        <ele>146.5</ele>
        <time>2013-11-23T09:11:59.803Z</time>
      </trkpt>
      <trkpt lat="44.17152" lon="4.69818">
        <ele>147</ele>
        <time>2013-11-23T09:12:01.804Z</time>
      </trkpt>
      <trkpt lat="44.17156" lon="4.69826">
        <ele>149.7</ele>
        <time>2013-11-23T09:12:04.805Z</time>
      </trkpt>
      <trkpt lat="44.17156" lon="4.69841">
        <ele>149.1</ele>
        <time>2013-11-23T09:12:06.802Z</time>
      </trkpt>
      <trkpt lat="44.17156" lon="4.69848">
        <ele>148.9</ele>
        <time>2013-11-23T09:12:07.808Z</time>
      </trkpt>
      <trkpt lat="44.17157" lon="4.69861">
        <ele>149.4</ele>
        <time>2013-11-23T09:12:09.805Z</time>
      </trkpt>
      <trkpt lat="44.1716" lon="4.69871">
        <ele>149.9</ele>
        <time>2013-11-23T09:12:11.807Z</time>
      </trkpt>
      <trkpt lat="44.17161" lon="4.69883">
        <ele>150.6</ele>
        <time>2013-11-23T09:12:13.805Z</time>
      </trkpt>
      <trkpt lat="44.1716" lon="4.69888">
        <ele>150.5</ele>
        <time>2013-11-23T09:12:14.808Z</time>
      </trkpt>
      <trkpt lat="44.1716" lon="4.69898">
        <ele>149.9</ele>
        <time>2013-11-23T09:12:16.803Z</time>
      </trkpt>
      <trkpt lat="44.17161" lon="4.69907">
        <ele>150.1</ele>
        <time>2013-11-23T09:12:18.805Z</time>
      </trkpt>
      <trkpt lat="44.17166" lon="4.69912">
        <ele>151.5</ele>
        <time>2013-11-23T09:12:20.805Z</time>
      </trkpt>
      <trkpt lat="44.17168" lon="4.69914">
        <ele>151.6</ele>
        <time>2013-11-23T09:12:21.807Z</time>
      </trkpt>
      <trkpt lat="44.17174" lon="4.6992">
        <ele>151.3</ele>
        <time>2013-11-23T09:12:23.805Z</time>
      </trkpt>
      <trkpt lat="44.1718" lon="4.69926">
        <ele>151.1</ele>
        <time>2013-11-23T09:12:25.805Z</time>
      </trkpt>
      <trkpt lat="44.17182" lon="4.69929">
        <ele>150.7</ele>
        <time>2013-11-23T09:12:26.805Z</time>
      </trkpt>
      <trkpt lat="44.17188" lon="4.69936">
        <ele>150.2</ele>
        <time>2013-11-23T09:12:28.805Z</time>
      </trkpt>
      <trkpt lat="44.17191" lon="4.6994">
        <ele>149.7</ele>
        <time>2013-11-23T09:12:29.807Z</time>
      </trkpt>
      <trkpt lat="44.17198" lon="4.69947">
        <ele>148.9</ele>
        <time>2013-11-23T09:12:31.810Z</time>
      </trkpt>
      <trkpt lat="44.17206" lon="4.69954">
        <ele>150.1</ele>
        <time>2013-11-23T09:12:33.806Z</time>
      </trkpt>
      <trkpt lat="44.17214" lon="4.6996">
        <ele>150.6</ele>
        <time>2013-11-23T09:12:35.805Z</time>
      </trkpt>
      <trkpt lat="44.1722" lon="4.69961">
        <ele>148.5</ele>
        <time>2013-11-23T09:12:40.074Z</time>
      </trkpt>
      <trkpt lat="44.17228" lon="4.69959">
        <ele>146.5</ele>
        <time>2013-11-23T09:12:42.805Z</time>
      </trkpt>
      <trkpt lat="44.17232" lon="4.69959">
        <ele>147.1</ele>
        <time>2013-11-23T09:12:43.808Z</time>
      </trkpt>
      <trkpt lat="44.17238" lon="4.69959">
        <ele>147.1</ele>
        <time>2013-11-23T09:12:44.822Z</time>
      </trkpt>
      <trkpt lat="44.17249" lon="4.69961">
        <ele>146.2</ele>
        <time>2013-11-23T09:12:46.806Z</time>
      </trkpt>
      <trkpt lat="44.17261" lon="4.6996">
        <ele>144.5</ele>
        <time>2013-11-23T09:12:48.805Z</time>
      </trkpt>
      <trkpt lat="44.17268" lon="4.69958">
        <ele>144.2</ele>
        <time>2013-11-23T09:12:49.805Z</time>
      </trkpt>
      <trkpt lat="44.17274" lon="4.69956">
        <ele>143.9</ele>
        <time>2013-11-23T09:12:50.805Z</time>
      </trkpt>
      <trkpt lat="44.1728" lon="4.69954">
        <ele>143.2</ele>
        <time>2013-11-23T09:12:51.809Z</time>
      </trkpt>
      <trkpt lat="44.17285" lon="4.69954">
        <ele>142.8</ele>
        <time>2013-11-23T09:12:52.809Z</time>
      </trkpt>
      <trkpt lat="44.17292" lon="4.69956">
        <ele>142.3</ele>
        <time>2013-11-23T09:12:54.804Z</time>
      </trkpt>
      <trkpt lat="44.17294" lon="4.69957">
        <ele>141.8</ele>
        <time>2013-11-23T09:12:55.807Z</time>
      </trkpt>
      <trkpt lat="44.17302" lon="4.69959">
        <ele>141.1</ele>
        <time>2013-11-23T09:12:58.805Z</time>
      </trkpt>
      <trkpt lat="44.17305" lon="4.69958">
        <ele>140.8</ele>
        <time>2013-11-23T09:12:59.807Z</time>
      </trkpt>
      <trkpt lat="44.17309" lon="4.69957">
        <ele>139.9</ele>
        <time>2013-11-23T09:13:00.810Z</time>
      </trkpt>
      <trkpt lat="44.17317" lon="4.69956">
        <ele>140</ele>
        <time>2013-11-23T09:13:02.808Z</time>
      </trkpt>
      <trkpt lat="44.17326" lon="4.69954">
        <ele>140.2</ele>
        <time>2013-11-23T09:13:04.810Z</time>
      </trkpt>
      <trkpt lat="44.1733" lon="4.69954">
        <ele>138.6</ele>
        <time>2013-11-23T09:13:05.826Z</time>
      </trkpt>
      <trkpt lat="44.17338" lon="4.69957">
        <ele>137.2</ele>
        <time>2013-11-23T09:13:07.808Z</time>
      </trkpt>
      <trkpt lat="44.17341" lon="4.69959">
        <ele>136.6</ele>
        <time>2013-11-23T09:13:08.854Z</time>
      </trkpt>
      <trkpt lat="44.17346" lon="4.69965">
        <ele>135.7</ele>
        <time>2013-11-23T09:13:10.808Z</time>
      </trkpt>
      <trkpt lat="44.1735" lon="4.6997">
        <ele>134.4</ele>
        <time>2013-11-23T09:13:12.806Z</time>
      </trkpt>
      <trkpt lat="44.17355" lon="4.69972">
        <ele>132.1</ele>
        <time>2013-11-23T09:13:14.809Z</time>
      </trkpt>
      <trkpt lat="44.17363" lon="4.69975">
        <ele>132.1</ele>
        <time>2013-11-23T09:13:16.805Z</time>
      </trkpt>
      <trkpt lat="44.17368" lon="4.69976">
        <ele>132</ele>
        <time>2013-11-23T09:13:17.807Z</time>
      </trkpt>
      <trkpt lat="44.17376" lon="4.69979">
        <ele>132.1</ele>
        <time>2013-11-23T09:13:19.806Z</time>
      </trkpt>
      <trkpt lat="44.17382" lon="4.69981">
        <ele>131.6</ele>
        <time>2013-11-23T09:13:21.801Z</time>
      </trkpt>
      <trkpt lat="44.17385" lon="4.69984">
        <ele>131.3</ele>
        <time>2013-11-23T09:13:22.801Z</time>
      </trkpt>
      <trkpt lat="44.17387" lon="4.69994">
        <ele>131.2</ele>
        <time>2013-11-23T09:13:24.806Z</time>
      </trkpt>
      <trkpt lat="44.17386" lon="4.70005">
        <ele>130.8</ele>
        <time>2013-11-23T09:13:26.806Z</time>
      </trkpt>
      <trkpt lat="44.17383" lon="4.70009">
        <ele>130.7</ele>
        <time>2013-11-23T09:13:27.812Z</time>
      </trkpt>
      <trkpt lat="44.17379" lon="4.70018">
        <ele>130.2</ele>
        <time>2013-11-23T09:13:29.809Z</time>
      </trkpt>
      <trkpt lat="44.17378" lon="4.70029">
        <ele>128.7</ele>
        <time>2013-11-23T09:13:31.809Z</time>
      </trkpt>
      <trkpt lat="44.17373" lon="4.7004">
        <ele>128.1</ele>
        <time>2013-11-23T09:13:33.802Z</time>
      </trkpt>
      <trkpt lat="44.17368" lon="4.70049">
        <ele>128.1</ele>
        <time>2013-11-23T09:13:35.807Z</time>
      </trkpt>
      <trkpt lat="44.17369" lon="4.70055">
        <ele>128</ele>
        <time>2013-11-23T09:13:36.808Z</time>
      </trkpt>
      <trkpt lat="44.17377" lon="4.70063">
        <ele>128.4</ele>
        <time>2013-11-23T09:13:38.805Z</time>
      </trkpt>
      <trkpt lat="44.17385" lon="4.70072">
        <ele>128</ele>
        <time>2013-11-23T09:13:40.806Z</time>
      </trkpt>
      <trkpt lat="44.17384" lon="4.70082">
        <ele>128.2</ele>
        <time>2013-11-23T09:13:42.805Z</time>
      </trkpt>
      <trkpt lat="44.17381" lon="4.70088">
        <ele>128.1</ele>
        <time>2013-11-23T09:13:43.805Z</time>
      </trkpt>
      <trkpt lat="44.17379" lon="4.70094">
        <ele>128.3</ele>
        <time>2013-11-23T09:13:44.805Z</time>
      </trkpt>
      <trkpt lat="44.17378" lon="4.70104">
        <ele>128.5</ele>
        <time>2013-11-23T09:13:46.805Z</time>
      </trkpt>
      <trkpt lat="44.17379" lon="4.70116">
        <ele>129.1</ele>
        <time>2013-11-23T09:13:49.805Z</time>
      </trkpt>
      <trkpt lat="44.17378" lon="4.70118">
        <ele>129.2</ele>
        <time>2013-11-23T09:13:50.805Z</time>
      </trkpt>
      <trkpt lat="44.17371" lon="4.70121">
        <ele>130.5</ele>
        <time>2013-11-23T09:13:56.804Z</time>
      </trkpt>
      <trkpt lat="44.17368" lon="4.70124">
        <ele>130.6</ele>
        <time>2013-11-23T09:13:58.806Z</time>
      </trkpt>
      <trkpt lat="44.17364" lon="4.70129">
        <ele>131</ele>
        <time>2013-11-23T09:14:01.802Z</time>
      </trkpt>
      <trkpt lat="44.17359" lon="4.70131">
        <ele>132.2</ele>
        <time>2013-11-23T09:14:03.805Z</time>
      </trkpt>
      <trkpt lat="44.17362" lon="4.70139">
        <ele>134.4</ele>
        <time>2013-11-23T09:14:10.919Z</time>
      </trkpt>
      <trkpt lat="44.17371" lon="4.70142">
        <ele>133.8</ele>
        <time>2013-11-23T09:14:14.806Z</time>
      </trkpt>
      <trkpt lat="44.1738" lon="4.70143">
        <ele>133.1</ele>
        <time>2013-11-23T09:14:17.805Z</time>
      </trkpt>
      <trkpt lat="44.17384" lon="4.70144">
        <ele>132.7</ele>
        <time>2013-11-23T09:14:18.805Z</time>
      </trkpt>
      <trkpt lat="44.17392" lon="4.70147">
        <ele>132.2</ele>
        <time>2013-11-23T09:14:20.799Z</time>
      </trkpt>
      <trkpt lat="44.17396" lon="4.70149">
        <ele>132</ele>
        <time>2013-11-23T09:14:21.802Z</time>
      </trkpt>
      <trkpt lat="44.17401" lon="4.70151">
        <ele>131.8</ele>
        <time>2013-11-23T09:14:22.805Z</time>
      </trkpt>
      <trkpt lat="44.17405" lon="4.70153">
        <ele>131.5</ele>
        <time>2013-11-23T09:14:23.805Z</time>
      </trkpt>
      <trkpt lat="44.17409" lon="4.70155">
        <ele>131</ele>
        <time>2013-11-23T09:14:24.805Z</time>
      </trkpt>
      <trkpt lat="44.17417" lon="4.7016">
        <ele>131.3</ele>
        <time>2013-11-23T09:14:26.800Z</time>
      </trkpt>
      <trkpt lat="44.1742" lon="4.70168">
        <ele>130.7</ele>
        <time>2013-11-23T09:14:28.805Z</time>
      </trkpt>
      <trkpt lat="44.1742" lon="4.70172">
        <ele>131.1</ele>
        <time>2013-11-23T09:14:29.806Z</time>
      </trkpt>
      <trkpt lat="44.17416" lon="4.70182">
        <ele>131.6</ele>
        <time>2013-11-23T09:14:32.805Z</time>
      </trkpt>
      <trkpt lat="44.17415" lon="4.70185">
        <ele>132</ele>
        <time>2013-11-23T09:14:33.806Z</time>
      </trkpt>
      <trkpt lat="44.17412" lon="4.70191">
        <ele>132.6</ele>
        <time>2013-11-23T09:14:35.805Z</time>
      </trkpt>
      <trkpt lat="44.17411" lon="4.70197">
        <ele>132.8</ele>
        <time>2013-11-23T09:14:37.805Z</time>
      </trkpt>
      <trkpt lat="44.17408" lon="4.70209">
        <ele>133.1</ele>
        <time>2013-11-23T09:14:42.920Z</time>
      </trkpt>
      <trkpt lat="44.17412" lon="4.70213">
        <ele>132.7</ele>
        <time>2013-11-23T09:14:45.806Z</time>
      </trkpt>
      <trkpt lat="44.17415" lon="4.70216">
        <ele>132.4</ele>
        <time>2013-11-23T09:14:46.807Z</time>
      </trkpt>
      <trkpt lat="44.17419" lon="4.70221">
        <ele>132.1</ele>
        <time>2013-11-23T09:14:48.806Z</time>
      </trkpt>
      <trkpt lat="44.17422" lon="4.70228">
        <ele>132.8</ele>
        <time>2013-11-23T09:14:50.806Z</time>
      </trkpt>
      <trkpt lat="44.17425" lon="4.70235">
        <ele>133.3</ele>
        <time>2013-11-23T09:14:52.805Z</time>
      </trkpt>
      <trkpt lat="44.1743" lon="4.70239">
        <ele>130.9</ele>
        <time>2013-11-23T09:14:54.808Z</time>
      </trkpt>
      <trkpt lat="44.17433" lon="4.70241">
        <ele>129.5</ele>
        <time>2013-11-23T09:14:55.835Z</time>
      </trkpt>
      <trkpt lat="44.17437" lon="4.70244">
        <ele>131.5</ele>
        <time>2013-11-23T09:14:56.808Z</time>
      </trkpt>
      <trkpt lat="44.17446" lon="4.70248">
        <ele>130.7</ele>
        <time>2013-11-23T09:14:58.805Z</time>
      </trkpt>
      <trkpt lat="44.17452" lon="4.7025">
        <ele>130.3</ele>
        <time>2013-11-23T09:14:59.805Z</time>
      </trkpt>
      <trkpt lat="44.17456" lon="4.70253">
        <ele>129.5</ele>
        <time>2013-11-23T09:15:00.805Z</time>
      </trkpt>
      <trkpt lat="44.17461" lon="4.70257">
        <ele>129.1</ele>
        <time>2013-11-23T09:15:01.822Z</time>
      </trkpt>
      <trkpt lat="44.17472" lon="4.70264">
        <ele>128.6</ele>
        <time>2013-11-23T09:15:03.801Z</time>
      </trkpt>
      <trkpt lat="44.17477" lon="4.70268">
        <ele>128.7</ele>
        <time>2013-11-23T09:15:04.805Z</time>
      </trkpt>
      <trkpt lat="44.17479" lon="4.70272">
        <ele>128.6</ele>
        <time>2013-11-23T09:15:05.805Z</time>
      </trkpt>
      <trkpt lat="44.17484" lon="4.70283">
        <ele>127.5</ele>
        <time>2013-11-23T09:15:07.809Z</time>
      </trkpt>
      <trkpt lat="44.17486" lon="4.70288">
        <ele>126.9</ele>
        <time>2013-11-23T09:15:08.810Z</time>
      </trkpt>
      <trkpt lat="44.17495" lon="4.7029">
        <ele>129.6</ele>
        <time>2013-11-23T09:15:10.805Z</time>
      </trkpt>
      <trkpt lat="44.17502" lon="4.70292">
        <ele>130.4</ele>
        <time>2013-11-23T09:15:12.801Z</time>
      </trkpt>
      <trkpt lat="44.17506" lon="4.70293">
        <ele>130.8</ele>
        <time>2013-11-23T09:15:13.805Z</time>
      </trkpt>
      <trkpt lat="44.17511" lon="4.70298">
        <ele>128.8</ele>
        <time>2013-11-23T09:15:14.806Z</time>
      </trkpt>
      <trkpt lat="44.17519" lon="4.70308">
        <ele>130.3</ele>
        <time>2013-11-23T09:15:16.803Z</time>
      </trkpt>
      <trkpt lat="44.17525" lon="4.70315">
        <ele>130.3</ele>
        <time>2013-11-23T09:15:18.804Z</time>
      </trkpt>
      <trkpt lat="44.17527" lon="4.70319">
        <ele>129.9</ele>
        <time>2013-11-23T09:15:19.805Z</time>
      </trkpt>
      <trkpt lat="44.17529" lon="4.70327">
        <ele>129</ele>
        <time>2013-11-23T09:15:21.805Z</time>
      </trkpt>
      <trkpt lat="44.17533" lon="4.7033">
        <ele>128.7</ele>
        <time>2013-11-23T09:15:23.804Z</time>
      </trkpt>
      <trkpt lat="44.17539" lon="4.70339">
        <ele>126.5</ele>
        <time>2013-11-23T09:15:25.805Z</time>
      </trkpt>
      <trkpt lat="44.17545" lon="4.70346">
        <ele>125.2</ele>
        <time>2013-11-23T09:15:27.805Z</time>
      </trkpt>
      <trkpt lat="44.17548" lon="4.70349">
        <ele>124.2</ele>
        <time>2013-11-23T09:15:28.809Z</time>
      </trkpt>
      <trkpt lat="44.17551" lon="4.70357">
        <ele>123.3</ele>
        <time>2013-11-23T09:15:30.805Z</time>
      </trkpt>
      <trkpt lat="44.17547" lon="4.70367">
        <ele>122.7</ele>
        <time>2013-11-23T09:15:32.805Z</time>
      </trkpt>
      <trkpt lat="44.17543" lon="4.70373">
        <ele>122.4</ele>
        <time>2013-11-23T09:15:33.805Z</time>
      </trkpt>
      <trkpt lat="44.17542" lon="4.70381">
        <ele>122.6</ele>
        <time>2013-11-23T09:15:35.857Z</time>
      </trkpt>
      <trkpt lat="44.17547" lon="4.70385">
        <ele>122.8</ele>
        <time>2013-11-23T09:15:37.785Z</time>
      </trkpt>
      <trkpt lat="44.17555" lon="4.70386">
        <ele>122.2</ele>
        <time>2013-11-23T09:15:38.799Z</time>
      </trkpt>
      <trkpt lat="44.17564" lon="4.70386">
        <ele>121.4</ele>
        <time>2013-11-23T09:15:39.927Z</time>
      </trkpt>
      <trkpt lat="44.17576" lon="4.70384">
        <ele>122.2</ele>
        <time>2013-11-23T09:15:41.803Z</time>
      </trkpt>
      <trkpt lat="44.17585" lon="4.70386">
        <ele>122.6</ele>
        <time>2013-11-23T09:15:43.802Z</time>
      </trkpt>
      <trkpt lat="44.17587" lon="4.70391">
        <ele>121.6</ele>
        <time>2013-11-23T09:15:45.798Z</time>
      </trkpt>
      <trkpt lat="44.17584" lon="4.70397">
        <ele>119.6</ele>
        <time>2013-11-23T09:15:47.803Z</time>
      </trkpt>
      <trkpt lat="44.17579" lon="4.70405">
        <ele>118.8</ele>
        <time>2013-11-23T09:15:49.801Z</time>
      </trkpt>
      <trkpt lat="44.17578" lon="4.70416">
        <ele>118.6</ele>
        <time>2013-11-23T09:15:52.822Z</time>
      </trkpt>
      <trkpt lat="44.17581" lon="4.70422">
        <ele>120.9</ele>
        <time>2013-11-23T09:15:54.905Z</time>
      </trkpt>
      <trkpt lat="44.1758" lon="4.7043">
        <ele>119.1</ele>
        <time>2013-11-23T09:15:58.801Z</time>
      </trkpt>
      <trkpt lat="44.17586" lon="4.70439">
        <ele>119.7</ele>
        <time>2013-11-23T09:16:00.798Z</time>
      </trkpt>
      <trkpt lat="44.17589" lon="4.70443">
        <ele>120</ele>
        <time>2013-11-23T09:16:01.802Z</time>
      </trkpt>
      <trkpt lat="44.17596" lon="4.70448">
        <ele>122</ele>
        <time>2013-11-23T09:16:03.789Z</time>
      </trkpt>
      <trkpt lat="44.17602" lon="4.70455">
        <ele>120.1</ele>
        <time>2013-11-23T09:16:06.799Z</time>
      </trkpt>
      <trkpt lat="44.17605" lon="4.7046">
        <ele>119.3</ele>
        <time>2013-11-23T09:16:07.805Z</time>
      </trkpt>
      <trkpt lat="44.17607" lon="4.70464">
        <ele>118.1</ele>
        <time>2013-11-23T09:16:08.802Z</time>
      </trkpt>
      <trkpt lat="44.17613" lon="4.70474">
        <ele>114</ele>
        <time>2013-11-23T09:16:10.798Z</time>
      </trkpt>
      <trkpt lat="44.17617" lon="4.70477">
        <ele>113.5</ele>
        <time>2013-11-23T09:16:11.797Z</time>
      </trkpt>
      <trkpt lat="44.17622" lon="4.7048">
        <ele>112.7</ele>
        <time>2013-11-23T09:16:12.798Z</time>
      </trkpt>
      <trkpt lat="44.1763" lon="4.70483">
        <ele>121.5</ele>
        <time>2013-11-23T09:16:14.796Z</time>
      </trkpt>
      <trkpt lat="44.17634" lon="4.70484">
        <ele>122.6</ele>
        <time>2013-11-23T09:16:15.800Z</time>
      </trkpt>
      <trkpt lat="44.17642" lon="4.70485">
        <ele>124.7</ele>
        <time>2013-11-23T09:16:18.798Z</time>
      </trkpt>
      <trkpt lat="44.17644" lon="4.70484">
        <ele>125.3</ele>
        <time>2013-11-23T09:16:19.798Z</time>
      </trkpt>
      <trkpt lat="44.17645" lon="4.70488">
        <ele>122.4</ele>
        <time>2013-11-23T09:16:27.907Z</time>
      </trkpt>
      <trkpt lat="44.17645" lon="4.70489">
        <ele>122.2</ele>
        <time>2013-11-23T09:16:32.800Z</time>
      </trkpt>
      <trkpt lat="44.17645" lon="4.70489">
        <ele>122</ele>
        <time>2013-11-23T09:16:33.803Z</time>
      </trkpt>
      <trkpt lat="44.17646" lon="4.70489">
        <ele>122</ele>
        <time>2013-11-23T09:16:34.804Z</time>
      </trkpt>
      <trkpt lat="44.17649" lon="4.70484">
        <ele>121.1</ele>
        <time>2013-11-23T09:16:43.802Z</time>
      </trkpt>
      <trkpt lat="44.17653" lon="4.70481">
        <ele>122.4</ele>
        <time>2013-11-23T09:16:47.834Z</time>
      </trkpt>
      <trkpt lat="44.17661" lon="4.70476">
        <ele>123.7</ele>
        <time>2013-11-23T09:16:53.062Z</time>
      </trkpt>
      <trkpt lat="44.17667" lon="4.70472">
        <ele>124.2</ele>
        <time>2013-11-23T09:16:55.797Z</time>
      </trkpt>
      <trkpt lat="44.17672" lon="4.70464">
        <ele>123.9</ele>
        <time>2013-11-23T09:16:59.913Z</time>
      </trkpt>
      <trkpt lat="44.17676" lon="4.70452">
        <ele>125</ele>
        <time>2013-11-23T09:17:02.877Z</time>
      </trkpt>
      <trkpt lat="44.17676" lon="4.70449">
        <ele>125</ele>
        <time>2013-11-23T09:17:03.801Z</time>
      </trkpt>
      <trkpt lat="44.17679" lon="4.70438">
        <ele>128.8</ele>
        <time>2013-11-23T09:17:05.800Z</time>
      </trkpt>
      <trkpt lat="44.1768" lon="4.70433">
        <ele>127.4</ele>
        <time>2013-11-23T09:17:06.803Z</time>
      </trkpt>
      <trkpt lat="44.17681" lon="4.70424">
        <ele>126.7</ele>
        <time>2013-11-23T09:17:08.800Z</time>
      </trkpt>
      <trkpt lat="44.1768" lon="4.70414">
        <ele>124.7</ele>
        <time>2013-11-23T09:17:14.910Z</time>
      </trkpt>
      <trkpt lat="44.17677" lon="4.70412">
        <ele>125.1</ele>
        <time>2013-11-23T09:17:15.800Z</time>
      </trkpt>
      <trkpt lat="44.1768" lon="4.70405">
        <ele>124.8</ele>
        <time>2013-11-23T09:17:22.914Z</time>
      </trkpt>
      <trkpt lat="44.1768" lon="4.70393">
        <ele>125.2</ele>
        <time>2013-11-23T09:17:26.798Z</time>
      </trkpt>
      <trkpt lat="44.1768" lon="4.70383">
        <ele>125.4</ele>
        <time>2013-11-23T09:17:30.905Z</time>
      </trkpt>
      <trkpt lat="44.17677" lon="4.70379">
        <ele>126.2</ele>
        <time>2013-11-23T09:17:33.994Z</time>
      </trkpt>
      <trkpt lat="44.1767" lon="4.70373">
        <ele>125.3</ele>
        <time>2013-11-23T09:17:38.008Z</time>
      </trkpt>
      <trkpt lat="44.17669" lon="4.70373">
        <ele>125.3</ele>
        <time>2013-11-23T09:17:38.131Z</time>
      </trkpt>
      <trkpt lat="44.1766" lon="4.70367">
        <ele>127.3</ele>
        <time>2013-11-23T09:17:41.011Z</time>
      </trkpt>
      <trkpt lat="44.17657" lon="4.70364">
        <ele>126.8</ele>
        <time>2013-11-23T09:17:42.011Z</time>
      </trkpt>
      <trkpt lat="44.17651" lon="4.7036">
        <ele>126.8</ele>
        <time>2013-11-23T09:17:44.008Z</time>
      </trkpt>
      <trkpt lat="44.17645" lon="4.70354">
        <ele>126.7</ele>
        <time>2013-11-23T09:17:46.008Z</time>
      </trkpt>
      <trkpt lat="44.17643" lon="4.70351">
        <ele>126.8</ele>
        <time>2013-11-23T09:17:47.011Z</time>
      </trkpt>
      <trkpt lat="44.17638" lon="4.70343">
        <ele>125.3</ele>
        <time>2013-11-23T09:17:50.008Z</time>
      </trkpt>
      <trkpt lat="44.17636" lon="4.7034">
        <ele>125.1</ele>
        <time>2013-11-23T09:17:51.008Z</time>
      </trkpt>
      <trkpt lat="44.1763" lon="4.70331">
        <ele>126.6</ele>
        <time>2013-11-23T09:17:54.008Z</time>
      </trkpt>
      <trkpt lat="44.17629" lon="4.70329">
        <ele>126.5</ele>
        <time>2013-11-23T09:17:55.008Z</time>
      </trkpt>
      <trkpt lat="44.17625" lon="4.70321">
        <ele>126.1</ele>
        <time>2013-11-23T09:18:00.230Z</time>
      </trkpt>
      <trkpt lat="44.17622" lon="4.70314">
        <ele>125.7</ele>
        <time>2013-11-23T09:18:03.010Z</time>
      </trkpt>
      <trkpt lat="44.17616" lon="4.70308">
        <ele>125.7</ele>
        <time>2013-11-23T09:18:06.013Z</time>
      </trkpt>
      <trkpt lat="44.17612" lon="4.70303">
        <ele>126.9</ele>
        <time>2013-11-23T09:18:08.013Z</time>
      </trkpt>
      <trkpt lat="44.17607" lon="4.70294">
        <ele>124.1</ele>
        <time>2013-11-23T09:18:12.150Z</time>
      </trkpt>
      <trkpt lat="44.17603" lon="4.70288">
        <ele>122.4</ele>
        <time>2013-11-23T09:18:15.011Z</time>
      </trkpt>
      <trkpt lat="44.17599" lon="4.70281">
        <ele>122.2</ele>
        <time>2013-11-23T09:18:18.011Z</time>
      </trkpt>
      <trkpt lat="44.17597" lon="4.70275">
        <ele>125.8</ele>
        <time>2013-11-23T09:18:20.011Z</time>
      </trkpt>
      <trkpt lat="44.17594" lon="4.70268">
        <ele>126.9</ele>
        <time>2013-11-23T09:18:23.011Z</time>
      </trkpt>
      <trkpt lat="44.17589" lon="4.70269">
        <ele>130.2</ele>
        <time>2013-11-23T09:18:25.011Z</time>
      </trkpt>
      <trkpt lat="44.17583" lon="4.70266">
        <ele>130.6</ele>
        <time>2013-11-23T09:18:28.011Z</time>
      </trkpt>
      <trkpt lat="44.1758" lon="4.70258">
        <ele>130.2</ele>
        <time>2013-11-23T09:18:30.010Z</time>
      </trkpt>
      <trkpt lat="44.17578" lon="4.70249">
        <ele>135.6</ele>
        <time>2013-11-23T09:18:34.129Z</time>
      </trkpt>
      <trkpt lat="44.17577" lon="4.70244">
        <ele>138.3</ele>
        <time>2013-11-23T09:18:37.013Z</time>
      </trkpt>
      <trkpt lat="44.17575" lon="4.70233">
        <ele>136</ele>
        <time>2013-11-23T09:18:42.118Z</time>
      </trkpt>
      <trkpt lat="44.17578" lon="4.70228">
        <ele>132.7</ele>
        <time>2013-11-23T09:18:45.013Z</time>
      </trkpt>
      <trkpt lat="44.17585" lon="4.70222">
        <ele>137.9</ele>
        <time>2013-11-23T09:18:48.011Z</time>
      </trkpt>
      <trkpt lat="44.17585" lon="4.7022">
        <ele>138.3</ele>
        <time>2013-11-23T09:18:49.011Z</time>
      </trkpt>
      <trkpt lat="44.17581" lon="4.70209">
        <ele>139.2</ele>
        <time>2013-11-23T09:18:53.124Z</time>
      </trkpt>
      <trkpt lat="44.17573" lon="4.70199">
        <ele>137.6</ele>
        <time>2013-11-23T09:18:56.014Z</time>
      </trkpt>
      <trkpt lat="44.17569" lon="4.7019">
        <ele>137.3</ele>
        <time>2013-11-23T09:18:59.011Z</time>
      </trkpt>
      <trkpt lat="44.17569" lon="4.70186">
        <ele>136.8</ele>
        <time>2013-11-23T09:19:00.128Z</time>
      </trkpt>
      <trkpt lat="44.17577" lon="4.7018">
        <ele>133.7</ele>
        <time>2013-11-23T09:19:04.011Z</time>
      </trkpt>
      <trkpt lat="44.1758" lon="4.70182">
        <ele>132</ele>
        <time>2013-11-23T09:19:05.011Z</time>
      </trkpt>
      <trkpt lat="44.17584" lon="4.7019">
        <ele>126.2</ele>
        <time>2013-11-23T09:19:08.011Z</time>
      </trkpt>
      <trkpt lat="44.17587" lon="4.70196">
        <ele>124.2</ele>
        <time>2013-11-23T09:19:10.011Z</time>
      </trkpt>
      <trkpt lat="44.17591" lon="4.70206">
        <ele>121.8</ele>
        <time>2013-11-23T09:19:13.011Z</time>
      </trkpt>
      <trkpt lat="44.17592" lon="4.70209">
        <ele>121.4</ele>
        <time>2013-11-23T09:19:14.011Z</time>
      </trkpt>
      <trkpt lat="44.17597" lon="4.70216">
        <ele>121.5</ele>
        <time>2013-11-23T09:19:17.011Z</time>
      </trkpt>
      <trkpt lat="44.176" lon="4.70216">
        <ele>121.2</ele>
        <time>2013-11-23T09:19:18.010Z</time>
      </trkpt>
      <trkpt lat="44.17608" lon="4.70217">
        <ele>121.1</ele>
        <time>2013-11-23T09:19:21.007Z</time>
      </trkpt>
      <trkpt lat="44.1761" lon="4.70217">
        <ele>121.2</ele>
        <time>2013-11-23T09:19:22.009Z</time>
      </trkpt>
      <trkpt lat="44.17617" lon="4.70217">
        <ele>121.3</ele>
        <time>2013-11-23T09:19:25.010Z</time>
      </trkpt>
      <trkpt lat="44.1762" lon="4.70217">
        <ele>121.5</ele>
        <time>2013-11-23T09:19:26.011Z</time>
      </trkpt>
      <trkpt lat="44.17627" lon="4.70217">
        <ele>121.3</ele>
        <time>2013-11-23T09:19:29.010Z</time>
      </trkpt>
      <trkpt lat="44.17629" lon="4.70217">
        <ele>121.2</ele>
        <time>2013-11-23T09:19:30.011Z</time>
      </trkpt>
      <trkpt lat="44.17634" lon="4.70219">
        <ele>121.1</ele>
        <time>2013-11-23T09:19:32.014Z</time>
      </trkpt>
      <trkpt lat="44.17638" lon="4.70221">
        <ele>121.1</ele>
        <time>2013-11-23T09:19:34.012Z</time>
      </trkpt>
      <trkpt lat="44.17645" lon="4.70224">
        <ele>120.8</ele>
        <time>2013-11-23T09:19:37.013Z</time>
      </trkpt>
      <trkpt lat="44.17651" lon="4.70225">
        <ele>120.4</ele>
        <time>2013-11-23T09:19:39.007Z</time>
      </trkpt>
      <trkpt lat="44.17656" lon="4.70227">
        <ele>119.9</ele>
        <time>2013-11-23T09:19:41.010Z</time>
      </trkpt>
      <trkpt lat="44.17659" lon="4.70229">
        <ele>119.5</ele>
        <time>2013-11-23T09:19:42.011Z</time>
      </trkpt>
      <trkpt lat="44.17666" lon="4.70233">
        <ele>119</ele>
        <time>2013-11-23T09:19:44.011Z</time>
      </trkpt>
      <trkpt lat="44.17673" lon="4.70236">
        <ele>118.9</ele>
        <time>2013-11-23T09:19:46.007Z</time>
      </trkpt>
      <trkpt lat="44.1768" lon="4.70238">
        <ele>118.4</ele>
        <time>2013-11-23T09:19:48.010Z</time>
      </trkpt>
      <trkpt lat="44.17683" lon="4.70239">
        <ele>118.3</ele>
        <time>2013-11-23T09:19:49.010Z</time>
      </trkpt>
      <trkpt lat="44.17689" lon="4.70245">
        <ele>117.9</ele>
        <time>2013-11-23T09:19:51.003Z</time>
      </trkpt>
      <trkpt lat="44.17693" lon="4.70246">
        <ele>118.2</ele>
        <time>2013-11-23T09:19:52.010Z</time>
      </trkpt>
      <trkpt lat="44.177" lon="4.70248">
        <ele>118.3</ele>
        <time>2013-11-23T09:19:54.011Z</time>
      </trkpt>
      <trkpt lat="44.17703" lon="4.70249">
        <ele>118.4</ele>
        <time>2013-11-23T09:19:55.025Z</time>
      </trkpt>
      <trkpt lat="44.1771" lon="4.70252">
        <ele>118.9</ele>
        <time>2013-11-23T09:19:57.008Z</time>
      </trkpt>
      <trkpt lat="44.17713" lon="4.70253">
        <ele>119.3</ele>
        <time>2013-11-23T09:19:58.010Z</time>
      </trkpt>
      <trkpt lat="44.17719" lon="4.70247">
        <ele>119.7</ele>
        <time>2013-11-23T09:20:03.123Z</time>
      </trkpt>
      <trkpt lat="44.17718" lon="4.70238">
        <ele>119</ele>
        <time>2013-11-23T09:20:06.011Z</time>
      </trkpt>
      <trkpt lat="44.17717" lon="4.70231">
        <ele>119.3</ele>
        <time>2013-11-23T09:20:08.070Z</time>
      </trkpt>
      <trkpt lat="44.17716" lon="4.70224">
        <ele>119.6</ele>
        <time>2013-11-23T09:20:10.010Z</time>
      </trkpt>
      <trkpt lat="44.17716" lon="4.70212">
        <ele>119.9</ele>
        <time>2013-11-23T09:20:13.011Z</time>
      </trkpt>
      <trkpt lat="44.17716" lon="4.70208">
        <ele>120.2</ele>
        <time>2013-11-23T09:20:14.015Z</time>
      </trkpt>
      <trkpt lat="44.17716" lon="4.70197">
        <ele>120.2</ele>
        <time>2013-11-23T09:20:17.011Z</time>
      </trkpt>
      <trkpt lat="44.17716" lon="4.70193">
        <ele>120.4</ele>
        <time>2013-11-23T09:20:18.011Z</time>
      </trkpt>
      <trkpt lat="44.17715" lon="4.70181">
        <ele>120.6</ele>
        <time>2013-11-23T09:20:21.009Z</time>
      </trkpt>
      <trkpt lat="44.17715" lon="4.70177">
        <ele>120.7</ele>
        <time>2013-11-23T09:20:22.011Z</time>
      </trkpt>
      <trkpt lat="44.17715" lon="4.70165">
        <ele>120.8</ele>
        <time>2013-11-23T09:20:25.011Z</time>
      </trkpt>
      <trkpt lat="44.17715" lon="4.70161">
        <ele>121</ele>
        <time>2013-11-23T09:20:26.013Z</time>
      </trkpt>
      <trkpt lat="44.17715" lon="4.70157">
        <ele>121.1</ele>
        <time>2013-11-23T09:20:27.015Z</time>
      </trkpt>
      <trkpt lat="44.17715" lon="4.70148">
        <ele>121.4</ele>
        <time>2013-11-23T09:20:29.002Z</time>
      </trkpt>
      <trkpt lat="44.17715" lon="4.7014">
        <ele>122.1</ele>
        <time>2013-11-23T09:20:31.030Z</time>
      </trkpt>
      <trkpt lat="44.17715" lon="4.70132">
        <ele>122.2</ele>
        <time>2013-11-23T09:20:33.010Z</time>
      </trkpt>
      <trkpt lat="44.17715" lon="4.70128">
        <ele>122.2</ele>
        <time>2013-11-23T09:20:34.013Z</time>
      </trkpt>
      <trkpt lat="44.17715" lon="4.70119">
        <ele>122.4</ele>
        <time>2013-11-23T09:20:36.005Z</time>
      </trkpt>
      <trkpt lat="44.17715" lon="4.7011">
        <ele>122.3</ele>
        <time>2013-11-23T09:20:38.015Z</time>
      </trkpt>
      <trkpt lat="44.17715" lon="4.70101">
        <ele>122.1</ele>
        <time>2013-11-23T09:20:40.063Z</time>
      </trkpt>
      <trkpt lat="44.17715" lon="4.70097">
        <ele>122.2</ele>
        <time>2013-11-23T09:20:41.107Z</time>
      </trkpt>
      <trkpt lat="44.17715" lon="4.70088">
        <ele>122</ele>
        <time>2013-11-23T09:20:43.187Z</time>
      </trkpt>
      <trkpt lat="44.17715" lon="4.70078">
        <ele>121.3</ele>
        <time>2013-11-23T09:20:45.075Z</time>
      </trkpt>
      <trkpt lat="44.17715" lon="4.70071">
        <ele>122.9</ele>
        <time>2013-11-23T09:20:47.074Z</time>
      </trkpt>
      <trkpt lat="44.17715" lon="4.70062">
        <ele>123</ele>
        <time>2013-11-23T09:20:49.074Z</time>
      </trkpt>
      <trkpt lat="44.17714" lon="4.70058">
        <ele>123.2</ele>
        <time>2013-11-23T09:20:50.074Z</time>
      </trkpt>
      <trkpt lat="44.17714" lon="4.70049">
        <ele>123.3</ele>
        <time>2013-11-23T09:20:52.072Z</time>
      </trkpt>
      <trkpt lat="44.17714" lon="4.70045">
        <ele>123.3</ele>
        <time>2013-11-23T09:20:53.073Z</time>
      </trkpt>
      <trkpt lat="44.17714" lon="4.70036">
        <ele>123.7</ele>
        <time>2013-11-23T09:20:55.040Z</time>
      </trkpt>
      <trkpt lat="44.17714" lon="4.70032">
        <ele>123.8</ele>
        <time>2013-11-23T09:20:56.081Z</time>
      </trkpt>
      <trkpt lat="44.17714" lon="4.70023">
        <ele>123.9</ele>
        <time>2013-11-23T09:20:58.064Z</time>
      </trkpt>
      <trkpt lat="44.17713" lon="4.70018">
        <ele>123.9</ele>
        <time>2013-11-23T09:20:59.068Z</time>
      </trkpt>
      <trkpt lat="44.17713" lon="4.70013">
        <ele>124</ele>
        <time>2013-11-23T09:21:00.161Z</time>
      </trkpt>
      <trkpt lat="44.17712" lon="4.70004">
        <ele>124.3</ele>
        <time>2013-11-23T09:21:02.040Z</time>
      </trkpt>
      <trkpt lat="44.17709" lon="4.69992">
        <ele>124.5</ele>
        <time>2013-11-23T09:21:05.069Z</time>
      </trkpt>
      <trkpt lat="44.17708" lon="4.69984">
        <ele>124.5</ele>
        <time>2013-11-23T09:21:07.067Z</time>
      </trkpt>
      <trkpt lat="44.17706" lon="4.69975">
        <ele>124.8</ele>
        <time>2013-11-23T09:21:09.067Z</time>
      </trkpt>
      <trkpt lat="44.17705" lon="4.6997">
        <ele>125.2</ele>
        <time>2013-11-23T09:21:10.073Z</time>
      </trkpt>
      <trkpt lat="44.17704" lon="4.69966">
        <ele>125.3</ele>
        <time>2013-11-23T09:21:11.073Z</time>
      </trkpt>
      <trkpt lat="44.17703" lon="4.69956">
        <ele>125.8</ele>
        <time>2013-11-23T09:21:13.067Z</time>
      </trkpt>
      <trkpt lat="44.17703" lon="4.69946">
        <ele>126.1</ele>
        <time>2013-11-23T09:21:15.069Z</time>
      </trkpt>
      <trkpt lat="44.17702" lon="4.69937">
        <ele>126.6</ele>
        <time>2013-11-23T09:21:17.069Z</time>
      </trkpt>
      <trkpt lat="44.17703" lon="4.69927">
        <ele>126.9</ele>
        <time>2013-11-23T09:21:19.070Z</time>
      </trkpt>
      <trkpt lat="44.17703" lon="4.69922">
        <ele>127</ele>
        <time>2013-11-23T09:21:20.071Z</time>
      </trkpt>
      <trkpt lat="44.17704" lon="4.69913">
        <ele>127.3</ele>
        <time>2013-11-23T09:21:22.068Z</time>
      </trkpt>
      <trkpt lat="44.17704" lon="4.69908">
        <ele>127.6</ele>
        <time>2013-11-23T09:21:23.068Z</time>
      </trkpt>
      <trkpt lat="44.17706" lon="4.69898">
        <ele>127.2</ele>
        <time>2013-11-23T09:21:25.069Z</time>
      </trkpt>
      <trkpt lat="44.17707" lon="4.69893">
        <ele>127.1</ele>
        <time>2013-11-23T09:21:26.069Z</time>
      </trkpt>
      <trkpt lat="44.17707" lon="4.69884">
        <ele>126.9</ele>
        <time>2013-11-23T09:21:28.069Z</time>
      </trkpt>
      <trkpt lat="44.17708" lon="4.69879">
        <ele>126.9</ele>
        <time>2013-11-23T09:21:29.068Z</time>
      </trkpt>
      <trkpt lat="44.17708" lon="4.69875">
        <ele>127</ele>
        <time>2013-11-23T09:21:30.068Z</time>
      </trkpt>
      <trkpt lat="44.17709" lon="4.69866">
        <ele>127.3</ele>
        <time>2013-11-23T09:21:32.069Z</time>
      </trkpt>
      <trkpt lat="44.17709" lon="4.69859">
        <ele>127.4</ele>
        <time>2013-11-23T09:21:34.069Z</time>
      </trkpt>
      <trkpt lat="44.1771" lon="4.69853">
        <ele>127.1</ele>
        <time>2013-11-23T09:21:36.070Z</time>
      </trkpt>
      <trkpt lat="44.17717" lon="4.69845">
        <ele>125.5</ele>
        <time>2013-11-23T09:21:43.188Z</time>
      </trkpt>
      <trkpt lat="44.17719" lon="4.69843">
        <ele>124.1</ele>
        <time>2013-11-23T09:21:47.070Z</time>
      </trkpt>
      <trkpt lat="44.17719" lon="4.69843">
        <ele>123.7</ele>
        <time>2013-11-23T09:21:48.070Z</time>
      </trkpt>
      <trkpt lat="44.17719" lon="4.69843">
        <ele>123.7</ele>
        <time>2013-11-23T09:21:50.070Z</time>
      </trkpt>
      <trkpt lat="44.17719" lon="4.69843">
        <ele>123.9</ele>
        <time>2013-11-23T09:21:53.076Z</time>
      </trkpt>
      <trkpt lat="44.1772" lon="4.69841">
        <ele>123.3</ele>
        <time>2013-11-23T09:21:55.093Z</time>
      </trkpt>
      <trkpt lat="44.17724" lon="4.69837">
        <ele>122.9</ele>
        <time>2013-11-23T09:22:03.202Z</time>
      </trkpt>
      <trkpt lat="44.17724" lon="4.69837">
        <ele>123.1</ele>
        <time>2013-11-23T09:22:04.073Z</time>
      </trkpt>
      <trkpt lat="44.17725" lon="4.69837">
        <ele>121.9</ele>
        <time>2013-11-23T09:22:08.089Z</time>
      </trkpt>
      <trkpt lat="44.1773" lon="4.69829">
        <ele>121.1</ele>
        <time>2013-11-23T09:22:14.212Z</time>
      </trkpt>
      <trkpt lat="44.17731" lon="4.69828">
        <ele>120.6</ele>
        <time>2013-11-23T09:22:15.068Z</time>
      </trkpt>
      <trkpt lat="44.17736" lon="4.69821">
        <ele>121.6</ele>
        <time>2013-11-23T09:22:19.207Z</time>
      </trkpt>
      <trkpt lat="44.17741" lon="4.69817">
        <ele>122.7</ele>
        <time>2013-11-23T09:22:22.073Z</time>
      </trkpt>
      <trkpt lat="44.17748" lon="4.69813">
        <ele>123.5</ele>
        <time>2013-11-23T09:22:25.074Z</time>
      </trkpt>
      <trkpt lat="44.17755" lon="4.69812">
        <ele>129.1</ele>
        <time>2013-11-23T09:22:27.073Z</time>
      </trkpt>
      <trkpt lat="44.17764" lon="4.6981">
        <ele>129.1</ele>
        <time>2013-11-23T09:22:30.073Z</time>
      </trkpt>
      <trkpt lat="44.17771" lon="4.69807">
        <ele>129</ele>
        <time>2013-11-23T09:22:32.067Z</time>
      </trkpt>
      <trkpt lat="44.17777" lon="4.69805">
        <ele>128.3</ele>
        <time>2013-11-23T09:22:34.070Z</time>
      </trkpt>
      <trkpt lat="44.17782" lon="4.69805">
        <ele>128</ele>
        <time>2013-11-23T09:22:36.067Z</time>
      </trkpt>
      <trkpt lat="44.17789" lon="4.69802">
        <ele>129.2</ele>
        <time>2013-11-23T09:22:39.068Z</time>
      </trkpt>
      <trkpt lat="44.17792" lon="4.69801">
        <ele>129.6</ele>
        <time>2013-11-23T09:22:40.068Z</time>
      </trkpt>
      <trkpt lat="44.17801" lon="4.69801">
        <ele>127</ele>
        <time>2013-11-23T09:22:43.069Z</time>
      </trkpt>
      <trkpt lat="44.17803" lon="4.69801">
        <ele>127</ele>
        <time>2013-11-23T09:22:44.068Z</time>
      </trkpt>
      <trkpt lat="44.17811" lon="4.69797">
        <ele>127.4</ele>
        <time>2013-11-23T09:22:47.069Z</time>
      </trkpt>
      <trkpt lat="44.17813" lon="4.69795">
        <ele>127.5</ele>
        <time>2013-11-23T09:22:48.069Z</time>
      </trkpt>
      <trkpt lat="44.17816" lon="4.69792">
        <ele>127.5</ele>
        <time>2013-11-23T09:22:49.071Z</time>
      </trkpt>
      <trkpt lat="44.17822" lon="4.69789">
        <ele>127.5</ele>
        <time>2013-11-23T09:22:51.067Z</time>
      </trkpt>
      <trkpt lat="44.17823" lon="4.69789">
        <ele>125</ele>
        <time>2013-11-23T09:22:54.080Z</time>
      </trkpt>
      <trkpt lat="44.17823" lon="4.69789">
        <ele>124.6</ele>
        <time>2013-11-23T09:22:56.062Z</time>
      </trkpt>
      <trkpt lat="44.17823" lon="4.69789">
        <ele>123.8</ele>
        <time>2013-11-23T09:22:57.098Z</time>
      </trkpt>
      <trkpt lat="44.17825" lon="4.69789">
        <ele>121.1</ele>
        <time>2013-11-23T09:22:59.065Z</time>
      </trkpt>
      <trkpt lat="44.1783" lon="4.69787">
        <ele>121.7</ele>
        <time>2013-11-23T09:23:02.064Z</time>
      </trkpt>
      <trkpt lat="44.17836" lon="4.69783">
        <ele>122.4</ele>
        <time>2013-11-23T09:23:04.064Z</time>
      </trkpt>
      <trkpt lat="44.1784" lon="4.69781">
        <ele>120.9</ele>
        <time>2013-11-23T09:23:05.069Z</time>
      </trkpt>
      <trkpt lat="44.17846" lon="4.69779">
        <ele>120.3</ele>
        <time>2013-11-23T09:23:06.071Z</time>
      </trkpt>
      <trkpt lat="44.17858" lon="4.69772">
        <ele>120.8</ele>
        <time>2013-11-23T09:23:08.111Z</time>
      </trkpt>
      <trkpt lat="44.17867" lon="4.69762">
        <ele>120.2</ele>
        <time>2013-11-23T09:23:10.067Z</time>
      </trkpt>
      <trkpt lat="44.17873" lon="4.69754">
        <ele>120.1</ele>
        <time>2013-11-23T09:23:12.127Z</time>
      </trkpt>
      <trkpt lat="44.17874" lon="4.69751">
        <ele>121.3</ele>
        <time>2013-11-23T09:23:14.067Z</time>
      </trkpt>
      <trkpt lat="44.17877" lon="4.69743">
        <ele>122</ele>
        <time>2013-11-23T09:23:18.182Z</time>
      </trkpt>
      <trkpt lat="44.17878" lon="4.69736">
        <ele>122</ele>
        <time>2013-11-23T09:23:21.068Z</time>
      </trkpt>
      <trkpt lat="44.17871" lon="4.69728">
        <ele>124</ele>
        <time>2013-11-23T09:23:25.183Z</time>
      </trkpt>
      <trkpt lat="44.17867" lon="4.69722">
        <ele>125.8</ele>
        <time>2013-11-23T09:23:28.071Z</time>
      </trkpt>
      <trkpt lat="44.17862" lon="4.69713">
        <ele>127.2</ele>
        <time>2013-11-23T09:23:32.069Z</time>
      </trkpt>
      <trkpt lat="44.1786" lon="4.69707">
        <ele>128</ele>
        <time>2013-11-23T09:23:34.060Z</time>
      </trkpt>
      <trkpt lat="44.17856" lon="4.69697">
        <ele>128.5</ele>
        <time>2013-11-23T09:23:38.182Z</time>
      </trkpt>
      <trkpt lat="44.17853" lon="4.69688">
        <ele>129.6</ele>
        <time>2013-11-23T09:23:40.697Z</time>
      </trkpt>
      <trkpt lat="44.17849" lon="4.69679">
        <ele>129.3</ele>
        <time>2013-11-23T09:23:43.691Z</time>
      </trkpt>
      <trkpt lat="44.17848" lon="4.69675">
        <ele>128.7</ele>
        <time>2013-11-23T09:23:44.698Z</time>
      </trkpt>
      <trkpt lat="44.17846" lon="4.69665">
        <ele>129.4</ele>
        <time>2013-11-23T09:23:47.699Z</time>
      </trkpt>
      <trkpt lat="44.17846" lon="4.69658">
        <ele>129.7</ele>
        <time>2013-11-23T09:23:49.698Z</time>
      </trkpt>
      <trkpt lat="44.17846" lon="4.69651">
        <ele>129.9</ele>
        <time>2013-11-23T09:23:51.701Z</time>
      </trkpt>
      <trkpt lat="44.17846" lon="4.69644">
        <ele>129.6</ele>
        <time>2013-11-23T09:23:53.699Z</time>
      </trkpt>
      <trkpt lat="44.17846" lon="4.69633">
        <ele>130.5</ele>
        <time>2013-11-23T09:23:56.718Z</time>
      </trkpt>
      <trkpt lat="44.17847" lon="4.69625">
        <ele>130.9</ele>
        <time>2013-11-23T09:23:58.696Z</time>
      </trkpt>
      <trkpt lat="44.17848" lon="4.69614">
        <ele>131.6</ele>
        <time>2013-11-23T09:24:01.697Z</time>
      </trkpt>
      <trkpt lat="44.17848" lon="4.69611">
        <ele>131.9</ele>
        <time>2013-11-23T09:24:02.700Z</time>
      </trkpt>
      <trkpt lat="44.17851" lon="4.696">
        <ele>132</ele>
        <time>2013-11-23T09:24:05.701Z</time>
      </trkpt>
      <trkpt lat="44.17853" lon="4.69597">
        <ele>132.3</ele>
        <time>2013-11-23T09:24:06.701Z</time>
      </trkpt>
      <trkpt lat="44.17857" lon="4.69587">
        <ele>131.9</ele>
        <time>2013-11-23T09:24:09.701Z</time>
      </trkpt>
      <trkpt lat="44.17861" lon="4.69581">
        <ele>132</ele>
        <time>2013-11-23T09:24:11.696Z</time>
      </trkpt>
      <trkpt lat="44.17863" lon="4.69577">
        <ele>132.3</ele>
        <time>2013-11-23T09:24:12.704Z</time>
      </trkpt>
      <trkpt lat="44.17866" lon="4.69571">
        <ele>131</ele>
        <time>2013-11-23T09:24:14.701Z</time>
      </trkpt>
      <trkpt lat="44.17869" lon="4.69564">
        <ele>131.7</ele>
        <time>2013-11-23T09:24:16.697Z</time>
      </trkpt>
      <trkpt lat="44.17872" lon="4.69558">
        <ele>131.7</ele>
        <time>2013-11-23T09:24:18.697Z</time>
      </trkpt>
      <trkpt lat="44.17875" lon="4.69548">
        <ele>132.3</ele>
        <time>2013-11-23T09:24:21.702Z</time>
      </trkpt>
      <trkpt lat="44.17877" lon="4.6954">
        <ele>132.6</ele>
        <time>2013-11-23T09:24:23.697Z</time>
      </trkpt>
      <trkpt lat="44.17878" lon="4.69537">
        <ele>132.7</ele>
        <time>2013-11-23T09:24:24.704Z</time>
      </trkpt>
      <trkpt lat="44.1788" lon="4.69529">
        <ele>132.7</ele>
        <time>2013-11-23T09:24:26.702Z</time>
      </trkpt>
      <trkpt lat="44.17882" lon="4.69525">
        <ele>132.9</ele>
        <time>2013-11-23T09:24:27.703Z</time>
      </trkpt>
      <trkpt lat="44.17885" lon="4.69518">
        <ele>133.4</ele>
        <time>2013-11-23T09:24:29.698Z</time>
      </trkpt>
      <trkpt lat="44.17889" lon="4.69512">
        <ele>133.2</ele>
        <time>2013-11-23T09:24:31.701Z</time>
      </trkpt>
      <trkpt lat="44.17892" lon="4.69509">
        <ele>132.9</ele>
        <time>2013-11-23T09:24:32.702Z</time>
      </trkpt>
      <trkpt lat="44.17895" lon="4.69507">
        <ele>133.2</ele>
        <time>2013-11-23T09:24:33.701Z</time>
      </trkpt>
      <trkpt lat="44.17902" lon="4.69503">
        <ele>133.7</ele>
        <time>2013-11-23T09:24:35.698Z</time>
      </trkpt>
      <trkpt lat="44.1791" lon="4.69498">
        <ele>133.2</ele>
        <time>2013-11-23T09:24:38.697Z</time>
      </trkpt>
      <trkpt lat="44.17912" lon="4.69496">
        <ele>133.2</ele>
        <time>2013-11-23T09:24:39.699Z</time>
      </trkpt>
      <trkpt lat="44.17917" lon="4.69489">
        <ele>132.6</ele>
        <time>2013-11-23T09:24:41.701Z</time>
      </trkpt>
      <trkpt lat="44.17919" lon="4.69486">
        <ele>132</ele>
        <time>2013-11-23T09:24:42.702Z</time>
      </trkpt>
      <trkpt lat="44.17924" lon="4.69481">
        <ele>131.8</ele>
        <time>2013-11-23T09:24:44.702Z</time>
      </trkpt>
      <trkpt lat="44.17927" lon="4.69477">
        <ele>131.4</ele>
        <time>2013-11-23T09:24:46.697Z</time>
      </trkpt>
      <trkpt lat="44.17931" lon="4.69473">
        <ele>131.1</ele>
        <time>2013-11-23T09:24:48.717Z</time>
      </trkpt>
      <trkpt lat="44.17934" lon="4.69467">
        <ele>130.7</ele>
        <time>2013-11-23T09:24:50.700Z</time>
      </trkpt>
      <trkpt lat="44.17935" lon="4.69462">
        <ele>130.9</ele>
        <time>2013-11-23T09:24:51.704Z</time>
      </trkpt>
      <trkpt lat="44.17938" lon="4.69451">
        <ele>131.7</ele>
        <time>2013-11-23T09:24:53.701Z</time>
      </trkpt>
      <trkpt lat="44.1794" lon="4.69447">
        <ele>132.2</ele>
        <time>2013-11-23T09:24:54.703Z</time>
      </trkpt>
      <trkpt lat="44.17943" lon="4.69439">
        <ele>132.6</ele>
        <time>2013-11-23T09:24:56.718Z</time>
      </trkpt>
      <trkpt lat="44.17945" lon="4.69431">
        <ele>132.5</ele>
        <time>2013-11-23T09:24:58.713Z</time>
      </trkpt>
      <trkpt lat="44.17949" lon="4.69424">
        <ele>132.8</ele>
        <time>2013-11-23T09:25:00.691Z</time>
      </trkpt>
      <trkpt lat="44.17953" lon="4.69413">
        <ele>132.9</ele>
        <time>2013-11-23T09:25:03.701Z</time>
      </trkpt>
      <trkpt lat="44.17954" lon="4.6941">
        <ele>133.2</ele>
        <time>2013-11-23T09:25:04.702Z</time>
      </trkpt>
      <trkpt lat="44.17954" lon="4.69403">
        <ele>133.1</ele>
        <time>2013-11-23T09:25:06.703Z</time>
      </trkpt>
      <trkpt lat="44.17953" lon="4.69397">
        <ele>133.7</ele>
        <time>2013-11-23T09:25:08.701Z</time>
      </trkpt>
      <trkpt lat="44.17948" lon="4.69389">
        <ele>132.8</ele>
        <time>2013-11-23T09:25:11.696Z</time>
      </trkpt>
      <trkpt lat="44.17946" lon="4.69386">
        <ele>132.9</ele>
        <time>2013-11-23T09:25:12.699Z</time>
      </trkpt>
      <trkpt lat="44.17944" lon="4.6938">
        <ele>134</ele>
        <time>2013-11-23T09:25:14.701Z</time>
      </trkpt>
      <trkpt lat="44.17941" lon="4.69373">
        <ele>134.1</ele>
        <time>2013-11-23T09:25:16.698Z</time>
      </trkpt>
      <trkpt lat="44.17937" lon="4.69366">
        <ele>135.2</ele>
        <time>2013-11-23T09:25:18.701Z</time>
      </trkpt>
      <trkpt lat="44.17936" lon="4.69363">
        <ele>135.5</ele>
        <time>2013-11-23T09:25:19.707Z</time>
      </trkpt>
      <trkpt lat="44.17932" lon="4.69352">
        <ele>135.6</ele>
        <time>2013-11-23T09:25:22.707Z</time>
      </trkpt>
      <trkpt lat="44.17929" lon="4.69341">
        <ele>135.8</ele>
        <time>2013-11-23T09:25:25.791Z</time>
      </trkpt>
      <trkpt lat="44.17927" lon="4.69329">
        <ele>135.6</ele>
        <time>2013-11-23T09:25:28.780Z</time>
      </trkpt>
      <trkpt lat="44.17925" lon="4.6932">
        <ele>136</ele>
        <time>2013-11-23T09:25:30.713Z</time>
      </trkpt>
      <trkpt lat="44.17924" lon="4.69309">
        <ele>136.3</ele>
        <time>2013-11-23T09:25:32.700Z</time>
      </trkpt>
      <trkpt lat="44.17924" lon="4.69302">
        <ele>136.2</ele>
        <time>2013-11-23T09:25:33.701Z</time>
      </trkpt>
      <trkpt lat="44.17924" lon="4.69296">
        <ele>136.2</ele>
        <time>2013-11-23T09:25:34.702Z</time>
      </trkpt>
      <trkpt lat="44.17923" lon="4.69285">
        <ele>136.2</ele>
        <time>2013-11-23T09:25:36.687Z</time>
      </trkpt>
      <trkpt lat="44.1792" lon="4.69276">
        <ele>136.3</ele>
        <time>2013-11-23T09:25:38.731Z</time>
      </trkpt>
      <trkpt lat="44.17918" lon="4.69271">
        <ele>136.1</ele>
        <time>2013-11-23T09:25:39.730Z</time>
      </trkpt>
      <trkpt lat="44.17914" lon="4.69264">
        <ele>136.4</ele>
        <time>2013-11-23T09:25:41.691Z</time>
      </trkpt>
      <trkpt lat="44.17913" lon="4.6926">
        <ele>136.8</ele>
        <time>2013-11-23T09:25:42.703Z</time>
      </trkpt>
      <trkpt lat="44.1791" lon="4.69257">
        <ele>136.9</ele>
        <time>2013-11-23T09:25:43.708Z</time>
      </trkpt>
      <trkpt lat="44.17905" lon="4.69251">
        <ele>137.2</ele>
        <time>2013-11-23T09:25:46.324Z</time>
      </trkpt>
      <trkpt lat="44.17899" lon="4.69246">
        <ele>139.2</ele>
        <time>2013-11-23T09:25:48.329Z</time>
      </trkpt>
      <trkpt lat="44.17897" lon="4.69244">
        <ele>139.2</ele>
        <time>2013-11-23T09:25:49.334Z</time>
      </trkpt>
      <trkpt lat="44.17891" lon="4.6924">
        <ele>139.4</ele>
        <time>2013-11-23T09:25:51.304Z</time>
      </trkpt>
      <trkpt lat="44.17889" lon="4.69236">
        <ele>139.5</ele>
        <time>2013-11-23T09:25:52.322Z</time>
      </trkpt>
      <trkpt lat="44.17886" lon="4.6923">
        <ele>139.8</ele>
        <time>2013-11-23T09:25:54.335Z</time>
      </trkpt>
      <trkpt lat="44.17883" lon="4.69223">
        <ele>140.4</ele>
        <time>2013-11-23T09:25:56.307Z</time>
      </trkpt>
      <trkpt lat="44.17882" lon="4.69215">
        <ele>140.4</ele>
        <time>2013-11-23T09:25:58.346Z</time>
      </trkpt>
      <trkpt lat="44.17879" lon="4.69208">
        <ele>140.4</ele>
        <time>2013-11-23T09:26:00.316Z</time>
      </trkpt>
      <trkpt lat="44.17873" lon="4.69201">
        <ele>140.6</ele>
        <time>2013-11-23T09:26:03.331Z</time>
      </trkpt>
      <trkpt lat="44.17871" lon="4.69198">
        <ele>141.1</ele>
        <time>2013-11-23T09:26:04.338Z</time>
      </trkpt>
      <trkpt lat="44.17866" lon="4.69192">
        <ele>141.3</ele>
        <time>2013-11-23T09:26:07.337Z</time>
      </trkpt>
      <trkpt lat="44.17862" lon="4.69189">
        <ele>141.7</ele>
        <time>2013-11-23T09:26:09.321Z</time>
      </trkpt>
      <trkpt lat="44.17856" lon="4.69185">
        <ele>142.2</ele>
        <time>2013-11-23T09:26:12.332Z</time>
      </trkpt>
      <trkpt lat="44.17854" lon="4.69183">
        <ele>141.7</ele>
        <time>2013-11-23T09:26:13.338Z</time>
      </trkpt>
      <trkpt lat="44.17848" lon="4.69178">
        <ele>142</ele>
        <time>2013-11-23T09:26:16.335Z</time>
      </trkpt>
      <trkpt lat="44.17844" lon="4.69177">
        <ele>142.7</ele>
        <time>2013-11-23T09:26:18.327Z</time>
      </trkpt>
      <trkpt lat="44.17835" lon="4.69179">
        <ele>143.1</ele>
        <time>2013-11-23T09:26:22.331Z</time>
      </trkpt>
      <trkpt lat="44.17835" lon="4.69179">
        <ele>143.1</ele>
        <time>2013-11-23T09:26:22.442Z</time>
      </trkpt>
      <trkpt lat="44.1783" lon="4.69172">
        <ele>143.4</ele>
        <time>2013-11-23T09:26:25.331Z</time>
      </trkpt>
      <trkpt lat="44.17828" lon="4.6917">
        <ele>143.7</ele>
        <time>2013-11-23T09:26:26.331Z</time>
      </trkpt>
      <trkpt lat="44.17819" lon="4.69168">
        <ele>144.3</ele>
        <time>2013-11-23T09:26:30.443Z</time>
      </trkpt>
      <trkpt lat="44.17813" lon="4.6917">
        <ele>145.1</ele>
        <time>2013-11-23T09:26:33.334Z</time>
      </trkpt>
      <trkpt lat="44.17805" lon="4.69171">
        <ele>145.4</ele>
        <time>2013-11-23T09:26:37.328Z</time>
      </trkpt>
      <trkpt lat="44.17803" lon="4.69171">
        <ele>145.2</ele>
        <time>2013-11-23T09:26:38.330Z</time>
      </trkpt>
      <trkpt lat="44.17796" lon="4.69169">
        <ele>145</ele>
        <time>2013-11-23T09:26:42.445Z</time>
      </trkpt>
      <trkpt lat="44.17789" lon="4.69169">
        <ele>145.2</ele>
        <time>2013-11-23T09:26:45.407Z</time>
      </trkpt>
      <trkpt lat="44.17783" lon="4.69168">
        <ele>145.3</ele>
        <time>2013-11-23T09:26:48.384Z</time>
      </trkpt>
      <trkpt lat="44.17778" lon="4.69168">
        <ele>144.5</ele>
        <time>2013-11-23T09:26:50.383Z</time>
      </trkpt>
      <trkpt lat="44.17769" lon="4.69168">
        <ele>146.5</ele>
        <time>2013-11-23T09:26:54.492Z</time>
      </trkpt>
      <trkpt lat="44.17763" lon="4.69169">
        <ele>145.6</ele>
        <time>2013-11-23T09:26:57.391Z</time>
      </trkpt>
      <trkpt lat="44.17758" lon="4.69167">
        <ele>148.6</ele>
        <time>2013-11-23T09:26:59.378Z</time>
      </trkpt>
      <trkpt lat="44.17753" lon="4.69165">
        <ele>150.2</ele>
        <time>2013-11-23T09:27:01.373Z</time>
      </trkpt>
      <trkpt lat="44.17748" lon="4.69156">
        <ele>150.3</ele>
        <time>2013-11-23T09:27:04.374Z</time>
      </trkpt>
      <trkpt lat="44.17747" lon="4.69153">
        <ele>150.5</ele>
        <time>2013-11-23T09:27:05.377Z</time>
      </trkpt>
      <trkpt lat="44.17744" lon="4.69143">
        <ele>151</ele>
        <time>2013-11-23T09:27:08.377Z</time>
      </trkpt>
      <trkpt lat="44.17743" lon="4.6914">
        <ele>150.8</ele>
        <time>2013-11-23T09:27:09.378Z</time>
      </trkpt>
      <trkpt lat="44.17738" lon="4.69133">
        <ele>151</ele>
        <time>2013-11-23T09:27:12.381Z</time>
      </trkpt>
      <trkpt lat="44.17737" lon="4.6913">
        <ele>150.8</ele>
        <time>2013-11-23T09:27:13.381Z</time>
      </trkpt>
      <trkpt lat="44.17734" lon="4.69126">
        <ele>150.9</ele>
        <time>2013-11-23T09:27:15.383Z</time>
      </trkpt>
      <trkpt lat="44.17729" lon="4.69122">
        <ele>151.3</ele>
        <time>2013-11-23T09:27:17.378Z</time>
      </trkpt>
      <trkpt lat="44.17725" lon="4.69118">
        <ele>151.7</ele>
        <time>2013-11-23T09:27:19.378Z</time>
      </trkpt>
      <trkpt lat="44.17724" lon="4.69112">
        <ele>152.4</ele>
        <time>2013-11-23T09:27:21.374Z</time>
      </trkpt>
      <trkpt lat="44.1772" lon="4.69104">
        <ele>153.4</ele>
        <time>2013-11-23T09:27:24.367Z</time>
      </trkpt>
      <trkpt lat="44.17717" lon="4.69103">
        <ele>153.7</ele>
        <time>2013-11-23T09:27:25.375Z</time>
      </trkpt>
      <trkpt lat="44.1771" lon="4.69102">
        <ele>154.3</ele>
        <time>2013-11-23T09:27:28.378Z</time>
      </trkpt>
      <trkpt lat="44.17707" lon="4.69102">
        <ele>154.2</ele>
        <time>2013-11-23T09:27:29.378Z</time>
      </trkpt>
      <trkpt lat="44.17701" lon="4.69098">
        <ele>154.7</ele>
        <time>2013-11-23T09:27:32.379Z</time>
      </trkpt>
      <trkpt lat="44.17699" lon="4.69096">
        <ele>155</ele>
        <time>2013-11-23T09:27:33.382Z</time>
      </trkpt>
      <trkpt lat="44.17693" lon="4.69091">
        <ele>155.4</ele>
        <time>2013-11-23T09:27:36.380Z</time>
      </trkpt>
      <trkpt lat="44.1769" lon="4.69089">
        <ele>155.8</ele>
        <time>2013-11-23T09:27:38.378Z</time>
      </trkpt>
      <trkpt lat="44.17684" lon="4.69083">
        <ele>155.9</ele>
        <time>2013-11-23T09:27:42.377Z</time>
      </trkpt>
      <trkpt lat="44.17682" lon="4.69081">
        <ele>156.1</ele>
        <time>2013-11-23T09:27:43.381Z</time>
      </trkpt>
      <trkpt lat="44.1768" lon="4.69069">
        <ele>156.4</ele>
        <time>2013-11-23T09:27:48.379Z</time>
      </trkpt>
      <trkpt lat="44.1768" lon="4.69069">
        <ele>156.4</ele>
        <time>2013-11-23T09:27:48.507Z</time>
      </trkpt>
      <trkpt lat="44.1768" lon="4.69057">
        <ele>156.8</ele>
        <time>2013-11-23T09:27:53.509Z</time>
      </trkpt>
      <trkpt lat="44.17679" lon="4.69051">
        <ele>156.9</ele>
        <time>2013-11-23T09:27:56.378Z</time>
      </trkpt>
      <trkpt lat="44.17676" lon="4.69043">
        <ele>157.3</ele>
        <time>2013-11-23T09:27:59.376Z</time>
      </trkpt>
      <trkpt lat="44.17677" lon="4.69038">
        <ele>157.5</ele>
        <time>2013-11-23T09:28:01.375Z</time>
      </trkpt>
      <trkpt lat="44.17674" lon="4.69028">
        <ele>158.1</ele>
        <time>2013-11-23T09:28:05.492Z</time>
      </trkpt>
      <trkpt lat="44.17673" lon="4.69023">
        <ele>158.2</ele>
        <time>2013-11-23T09:28:08.379Z</time>
      </trkpt>
      <trkpt lat="44.17672" lon="4.69013">
        <ele>158.6</ele>
        <time>2013-11-23T09:28:13.500Z</time>
      </trkpt>
      <trkpt lat="44.17668" lon="4.69007">
        <ele>158.5</ele>
        <time>2013-11-23T09:28:16.378Z</time>
      </trkpt>
      <trkpt lat="44.17661" lon="4.69001">
        <ele>159.1</ele>
        <time>2013-11-23T09:28:20.508Z</time>
      </trkpt>
      <trkpt lat="44.1766" lon="4.68995">
        <ele>159.3</ele>
        <time>2013-11-23T09:28:23.378Z</time>
      </trkpt>
      <trkpt lat="44.1766" lon="4.68982">
        <ele>158.8</ele>
        <time>2013-11-23T09:28:27.493Z</time>
      </trkpt>
      <trkpt lat="44.17664" lon="4.68975">
        <ele>158.5</ele>
        <time>2013-11-23T09:28:30.378Z</time>
      </trkpt>
      <trkpt lat="44.17668" lon="4.68974">
        <ele>158.2</ele>
        <time>2013-11-23T09:28:31.380Z</time>
      </trkpt>
      <trkpt lat="44.17673" lon="4.68971">
        <ele>158.4</ele>
        <time>2013-11-23T09:28:33.382Z</time>
      </trkpt>
      <trkpt lat="44.17677" lon="4.68971">
        <ele>158.4</ele>
        <time>2013-11-23T09:28:34.382Z</time>
      </trkpt>
      <trkpt lat="44.17683" lon="4.6897">
        <ele>158.5</ele>
        <time>2013-11-23T09:28:36.375Z</time>
      </trkpt>
      <trkpt lat="44.1769" lon="4.68968">
        <ele>158.5</ele>
        <time>2013-11-23T09:28:38.378Z</time>
      </trkpt>
      <trkpt lat="44.17696" lon="4.68963">
        <ele>158.4</ele>
        <time>2013-11-23T09:28:40.378Z</time>
      </trkpt>
      <trkpt lat="44.17698" lon="4.6896">
        <ele>158.3</ele>
        <time>2013-11-23T09:28:41.374Z</time>
      </trkpt>
      <trkpt lat="44.17706" lon="4.68952">
        <ele>157.8</ele>
        <time>2013-11-23T09:28:43.372Z</time>
      </trkpt>
      <trkpt lat="44.17709" lon="4.68948">
        <ele>157.9</ele>
        <time>2013-11-23T09:28:44.371Z</time>
      </trkpt>
      <trkpt lat="44.17712" lon="4.68943">
        <ele>157.7</ele>
        <time>2013-11-23T09:28:45.373Z</time>
      </trkpt>
      <trkpt lat="44.1772" lon="4.68933">
        <ele>157.4</ele>
        <time>2013-11-23T09:28:47.408Z</time>
      </trkpt>
      <trkpt lat="44.17727" lon="4.68925">
        <ele>157.7</ele>
        <time>2013-11-23T09:28:49.372Z</time>
      </trkpt>
      <trkpt lat="44.17731" lon="4.68922">
        <ele>157.4</ele>
        <time>2013-11-23T09:28:50.376Z</time>
      </trkpt>
      <trkpt lat="44.17736" lon="4.68919">
        <ele>157.3</ele>
        <time>2013-11-23T09:28:51.375Z</time>
      </trkpt>
      <trkpt lat="44.17739" lon="4.68915">
        <ele>157.8</ele>
        <time>2013-11-23T09:28:52.398Z</time>
      </trkpt>
      <trkpt lat="44.17745" lon="4.68904">
        <ele>157.4</ele>
        <time>2013-11-23T09:28:54.372Z</time>
      </trkpt>
      <trkpt lat="44.17749" lon="4.689">
        <ele>157</ele>
        <time>2013-11-23T09:28:55.377Z</time>
      </trkpt>
      <trkpt lat="44.17754" lon="4.68896">
        <ele>156.9</ele>
        <time>2013-11-23T09:28:56.384Z</time>
      </trkpt>
      <trkpt lat="44.17759" lon="4.68893">
        <ele>156.6</ele>
        <time>2013-11-23T09:28:57.376Z</time>
      </trkpt>
      <trkpt lat="44.17764" lon="4.68891">
        <ele>156.5</ele>
        <time>2013-11-23T09:28:58.420Z</time>
      </trkpt>
      <trkpt lat="44.17774" lon="4.68888">
        <ele>156.2</ele>
        <time>2013-11-23T09:29:00.369Z</time>
      </trkpt>
      <trkpt lat="44.1778" lon="4.68886">
        <ele>156.1</ele>
        <time>2013-11-23T09:29:01.374Z</time>
      </trkpt>
      <trkpt lat="44.1779" lon="4.68881">
        <ele>155.5</ele>
        <time>2013-11-23T09:29:03.373Z</time>
      </trkpt>
      <trkpt lat="44.17795" lon="4.68877">
        <ele>155.4</ele>
        <time>2013-11-23T09:29:04.378Z</time>
      </trkpt>
      <trkpt lat="44.17801" lon="4.68873">
        <ele>154.9</ele>
        <time>2013-11-23T09:29:05.408Z</time>
      </trkpt>
      <trkpt lat="44.17811" lon="4.68866">
        <ele>154.2</ele>
        <time>2013-11-23T09:29:07.374Z</time>
      </trkpt>
      <trkpt lat="44.17817" lon="4.68862">
        <ele>154.4</ele>
        <time>2013-11-23T09:29:08.378Z</time>
      </trkpt>
      <trkpt lat="44.17828" lon="4.68856">
        <ele>154</ele>
        <time>2013-11-23T09:29:10.378Z</time>
      </trkpt>
      <trkpt lat="44.17839" lon="4.68851">
        <ele>154.1</ele>
        <time>2013-11-23T09:29:12.372Z</time>
      </trkpt>
      <trkpt lat="44.17845" lon="4.68848">
        <ele>153.7</ele>
        <time>2013-11-23T09:29:13.376Z</time>
      </trkpt>
      <trkpt lat="44.17851" lon="4.68846">
        <ele>153.7</ele>
        <time>2013-11-23T09:29:14.379Z</time>
      </trkpt>
      <trkpt lat="44.17862" lon="4.68841">
        <ele>153.7</ele>
        <time>2013-11-23T09:29:16.373Z</time>
      </trkpt>
      <trkpt lat="44.17866" lon="4.6884">
        <ele>153.6</ele>
        <time>2013-11-23T09:29:17.375Z</time>
      </trkpt>
      <trkpt lat="44.17875" lon="4.68836">
        <ele>153.7</ele>
        <time>2013-11-23T09:29:19.380Z</time>
      </trkpt>
      <trkpt lat="44.17881" lon="4.6883">
        <ele>153.8</ele>
        <time>2013-11-23T09:29:21.380Z</time>
      </trkpt>
      <trkpt lat="44.17887" lon="4.6882">
        <ele>153.7</ele>
        <time>2013-11-23T09:29:23.372Z</time>
      </trkpt>
      <trkpt lat="44.17892" lon="4.68812">
        <ele>153.7</ele>
        <time>2013-11-23T09:29:25.379Z</time>
      </trkpt>
      <trkpt lat="44.17899" lon="4.68806">
        <ele>153.8</ele>
        <time>2013-11-23T09:29:27.374Z</time>
      </trkpt>
      <trkpt lat="44.17906" lon="4.68801">
        <ele>153.6</ele>
        <time>2013-11-23T09:29:29.378Z</time>
      </trkpt>
      <trkpt lat="44.17914" lon="4.68795">
        <ele>153.2</ele>
        <time>2013-11-23T09:29:31.362Z</time>
      </trkpt>
      <trkpt lat="44.17921" lon="4.68789">
        <ele>153.8</ele>
        <time>2013-11-23T09:29:33.373Z</time>
      </trkpt>
      <trkpt lat="44.17927" lon="4.68779">
        <ele>152.7</ele>
        <time>2013-11-23T09:29:35.378Z</time>
      </trkpt>
      <trkpt lat="44.1793" lon="4.68773">
        <ele>152.4</ele>
        <time>2013-11-23T09:29:36.421Z</time>
      </trkpt>
      <trkpt lat="44.17937" lon="4.68764">
        <ele>152.3</ele>
        <time>2013-11-23T09:29:38.378Z</time>
      </trkpt>
      <trkpt lat="44.17941" lon="4.68759">
        <ele>152.4</ele>
        <time>2013-11-23T09:29:39.378Z</time>
      </trkpt>
      <trkpt lat="44.17945" lon="4.68755">
        <ele>152.4</ele>
        <time>2013-11-23T09:29:40.380Z</time>
      </trkpt>
      <trkpt lat="44.17952" lon="4.68747">
        <ele>153.1</ele>
        <time>2013-11-23T09:29:42.374Z</time>
      </trkpt>
      <trkpt lat="44.17955" lon="4.68742">
        <ele>152.7</ele>
        <time>2013-11-23T09:29:43.378Z</time>
      </trkpt>
      <trkpt lat="44.17962" lon="4.68733">
        <ele>152.4</ele>
        <time>2013-11-23T09:29:45.377Z</time>
      </trkpt>
      <trkpt lat="44.17968" lon="4.68725">
        <ele>151.9</ele>
        <time>2013-11-23T09:29:47.373Z</time>
      </trkpt>
      <trkpt lat="44.17973" lon="4.68723">
        <ele>152.1</ele>
        <time>2013-11-23T09:29:48.377Z</time>
      </trkpt>
      <trkpt lat="44.17977" lon="4.6872">
        <ele>151.8</ele>
        <time>2013-11-23T09:29:49.379Z</time>
      </trkpt>
      <trkpt lat="44.17986" lon="4.68714">
        <ele>151.3</ele>
        <time>2013-11-23T09:29:51.377Z</time>
      </trkpt>
      <trkpt lat="44.17994" lon="4.68706">
        <ele>150.5</ele>
        <time>2013-11-23T09:29:53.378Z</time>
      </trkpt>
      <trkpt lat="44.18004" lon="4.687">
        <ele>150.2</ele>
        <time>2013-11-23T09:29:55.377Z</time>
      </trkpt>
      <trkpt lat="44.18009" lon="4.68697">
        <ele>150.1</ele>
        <time>2013-11-23T09:29:56.387Z</time>
      </trkpt>
      <trkpt lat="44.18015" lon="4.68693">
        <ele>150.3</ele>
        <time>2013-11-23T09:29:57.376Z</time>
      </trkpt>
      <trkpt lat="44.1802" lon="4.68689">
        <ele>150.3</ele>
        <time>2013-11-23T09:29:58.377Z</time>
      </trkpt>
      <trkpt lat="44.18024" lon="4.68685">
        <ele>150.4</ele>
        <time>2013-11-23T09:29:59.377Z</time>
      </trkpt>
      <trkpt lat="44.18032" lon="4.68681">
        <ele>150</ele>
        <time>2013-11-23T09:30:01.375Z</time>
      </trkpt>
      <trkpt lat="44.18039" lon="4.6868">
        <ele>149.6</ele>
        <time>2013-11-23T09:30:03.373Z</time>
      </trkpt>
      <trkpt lat="44.18041" lon="4.6868">
        <ele>149.6</ele>
        <time>2013-11-23T09:30:04.377Z</time>
      </trkpt>
      <trkpt lat="44.18046" lon="4.68677">
        <ele>149.5</ele>
        <time>2013-11-23T09:30:06.380Z</time>
      </trkpt>
      <trkpt lat="44.18052" lon="4.68672">
        <ele>150.1</ele>
        <time>2013-11-23T09:30:08.378Z</time>
      </trkpt>
      <trkpt lat="44.18057" lon="4.68666">
        <ele>150.6</ele>
        <time>2013-11-23T09:30:10.377Z</time>
      </trkpt>
      <trkpt lat="44.1806" lon="4.68663">
        <ele>150.5</ele>
        <time>2013-11-23T09:30:11.378Z</time>
      </trkpt>
      <trkpt lat="44.18066" lon="4.68656">
        <ele>150.7</ele>
        <time>2013-11-23T09:30:13.379Z</time>
      </trkpt>
      <trkpt lat="44.18069" lon="4.68651">
        <ele>150.8</ele>
        <time>2013-11-23T09:30:14.421Z</time>
      </trkpt>
      <trkpt lat="44.18073" lon="4.68642">
        <ele>150.8</ele>
        <time>2013-11-23T09:30:16.378Z</time>
      </trkpt>
      <trkpt lat="44.1808" lon="4.68629">
        <ele>152.8</ele>
        <time>2013-11-23T09:30:19.628Z</time>
      </trkpt>
      <trkpt lat="44.18083" lon="4.6862">
        <ele>152.5</ele>
        <time>2013-11-23T09:30:21.368Z</time>
      </trkpt>
      <trkpt lat="44.18082" lon="4.68615">
        <ele>153</ele>
        <time>2013-11-23T09:30:22.372Z</time>
      </trkpt>
      <trkpt lat="44.18082" lon="4.68604">
        <ele>153.3</ele>
        <time>2013-11-23T09:30:24.384Z</time>
      </trkpt>
      <trkpt lat="44.18081" lon="4.68594">
        <ele>152.7</ele>
        <time>2013-11-23T09:30:26.402Z</time>
      </trkpt>
      <trkpt lat="44.1808" lon="4.68584">
        <ele>152.6</ele>
        <time>2013-11-23T09:30:28.357Z</time>
      </trkpt>
      <trkpt lat="44.18079" lon="4.68579">
        <ele>152.9</ele>
        <time>2013-11-23T09:30:29.364Z</time>
      </trkpt>
      <trkpt lat="44.18077" lon="4.6857">
        <ele>152.5</ele>
        <time>2013-11-23T09:30:31.377Z</time>
      </trkpt>
      <trkpt lat="44.18075" lon="4.68564">
        <ele>151.8</ele>
        <time>2013-11-23T09:30:32.379Z</time>
      </trkpt>
      <trkpt lat="44.18074" lon="4.68556">
        <ele>153.2</ele>
        <time>2013-11-23T09:30:34.372Z</time>
      </trkpt>
      <trkpt lat="44.18073" lon="4.68551">
        <ele>153.3</ele>
        <time>2013-11-23T09:30:35.381Z</time>
      </trkpt>
      <trkpt lat="44.18074" lon="4.68539">
        <ele>153.1</ele>
        <time>2013-11-23T09:30:38.371Z</time>
      </trkpt>
      <trkpt lat="44.18075" lon="4.68535">
        <ele>153</ele>
        <time>2013-11-23T09:30:39.374Z</time>
      </trkpt>
      <trkpt lat="44.18077" lon="4.68532">
        <ele>153.4</ele>
        <time>2013-11-23T09:30:40.379Z</time>
      </trkpt>
      <trkpt lat="44.18079" lon="4.68523">
        <ele>155.6</ele>
        <time>2013-11-23T09:30:42.363Z</time>
      </trkpt>
      <trkpt lat="44.18078" lon="4.68512">
        <ele>166.4</ele>
        <time>2013-11-23T09:30:44.365Z</time>
      </trkpt>
      <trkpt lat="44.18087" lon="4.68513">
        <ele>167.3</ele>
        <time>2013-11-23T09:30:46.365Z</time>
      </trkpt>
      <trkpt lat="44.18094" lon="4.68515">
        <ele>168.4</ele>
        <time>2013-11-23T09:30:47.364Z</time>
      </trkpt>
      <trkpt lat="44.18099" lon="4.68515">
        <ele>168.6</ele>
        <time>2013-11-23T09:30:48.455Z</time>
      </trkpt>
      <trkpt lat="44.18108" lon="4.68516">
        <ele>167.7</ele>
        <time>2013-11-23T09:30:50.370Z</time>
      </trkpt>
      <trkpt lat="44.18112" lon="4.68516">
        <ele>166.7</ele>
        <time>2013-11-23T09:30:51.424Z</time>
      </trkpt>
      <trkpt lat="44.1812" lon="4.68516">
        <ele>164.7</ele>
        <time>2013-11-23T09:30:53.374Z</time>
      </trkpt>
      <trkpt lat="44.18125" lon="4.68516">
        <ele>162.3</ele>
        <time>2013-11-23T09:30:54.378Z</time>
      </trkpt>
      <trkpt lat="44.1813" lon="4.68516">
        <ele>161.6</ele>
        <time>2013-11-23T09:30:55.404Z</time>
      </trkpt>
      <trkpt lat="44.1814" lon="4.6851">
        <ele>159.7</ele>
        <time>2013-11-23T09:30:57.375Z</time>
      </trkpt>
      <trkpt lat="44.18153" lon="4.6849">
        <ele>153.9</ele>
        <time>2013-11-23T09:30:59.371Z</time>
      </trkpt>
      <trkpt lat="44.18163" lon="4.68478">
        <ele>151.7</ele>
        <time>2013-11-23T09:31:01.361Z</time>
      </trkpt>
      <trkpt lat="44.18167" lon="4.68474">
        <ele>151</ele>
        <time>2013-11-23T09:31:02.361Z</time>
      </trkpt>
      <trkpt lat="44.18171" lon="4.68471">
        <ele>150.9</ele>
        <time>2013-11-23T09:31:03.375Z</time>
      </trkpt>
      <trkpt lat="44.18175" lon="4.68467">
        <ele>148.9</ele>
        <time>2013-11-23T09:31:04.378Z</time>
      </trkpt>
      <trkpt lat="44.18179" lon="4.68464">
        <ele>147.8</ele>
        <time>2013-11-23T09:31:05.385Z</time>
      </trkpt>
      <trkpt lat="44.18188" lon="4.68456">
        <ele>147.5</ele>
        <time>2013-11-23T09:31:07.379Z</time>
      </trkpt>
      <trkpt lat="44.18196" lon="4.68447">
        <ele>147</ele>
        <time>2013-11-23T09:31:09.374Z</time>
      </trkpt>
      <trkpt lat="44.182" lon="4.68442">
        <ele>147.1</ele>
        <time>2013-11-23T09:31:10.376Z</time>
      </trkpt>
      <trkpt lat="44.18204" lon="4.68438">
        <ele>147.3</ele>
        <time>2013-11-23T09:31:11.376Z</time>
      </trkpt>
      <trkpt lat="44.18212" lon="4.68429">
        <ele>147.4</ele>
        <time>2013-11-23T09:31:13.370Z</time>
      </trkpt>
      <trkpt lat="44.18215" lon="4.68425">
        <ele>147.4</ele>
        <time>2013-11-23T09:31:14.381Z</time>
      </trkpt>
      <trkpt lat="44.18222" lon="4.68417">
        <ele>147.5</ele>
        <time>2013-11-23T09:31:16.363Z</time>
      </trkpt>
      <trkpt lat="44.18229" lon="4.6841">
        <ele>148.9</ele>
        <time>2013-11-23T09:31:18.363Z</time>
      </trkpt>
      <trkpt lat="44.18233" lon="4.68407">
        <ele>148.3</ele>
        <time>2013-11-23T09:31:19.377Z</time>
      </trkpt>
      <trkpt lat="44.18236" lon="4.68402">
        <ele>147.9</ele>
        <time>2013-11-23T09:31:20.382Z</time>
      </trkpt>
      <trkpt lat="44.18242" lon="4.68397">
        <ele>151.6</ele>
        <time>2013-11-23T09:31:22.372Z</time>
      </trkpt>
      <trkpt lat="44.18248" lon="4.6839">
        <ele>152.6</ele>
        <time>2013-11-23T09:31:24.371Z</time>
      </trkpt>
      <trkpt lat="44.18251" lon="4.68386">
        <ele>152.7</ele>
        <time>2013-11-23T09:31:25.386Z</time>
      </trkpt>
      <trkpt lat="44.18253" lon="4.68381">
        <ele>153.1</ele>
        <time>2013-11-23T09:31:26.386Z</time>
      </trkpt>
      <trkpt lat="44.18258" lon="4.68373">
        <ele>154.8</ele>
        <time>2013-11-23T09:31:28.369Z</time>
      </trkpt>
      <trkpt lat="44.1826" lon="4.6837">
        <ele>155.1</ele>
        <time>2013-11-23T09:31:29.373Z</time>
      </trkpt>
      <trkpt lat="44.18266" lon="4.68361">
        <ele>153.5</ele>
        <time>2013-11-23T09:31:31.402Z</time>
      </trkpt>
      <trkpt lat="44.18272" lon="4.68352">
        <ele>154</ele>
        <time>2013-11-23T09:31:33.366Z</time>
      </trkpt>
      <trkpt lat="44.18275" lon="4.68347">
        <ele>154.4</ele>
        <time>2013-11-23T09:31:34.371Z</time>
      </trkpt>
      <trkpt lat="44.18279" lon="4.68343">
        <ele>153.6</ele>
        <time>2013-11-23T09:31:35.372Z</time>
      </trkpt>
      <trkpt lat="44.18283" lon="4.6834">
        <ele>153.1</ele>
        <time>2013-11-23T09:31:36.372Z</time>
      </trkpt>
      <trkpt lat="44.18289" lon="4.68331">
        <ele>151.7</ele>
        <time>2013-11-23T09:31:38.370Z</time>
      </trkpt>
      <trkpt lat="44.18293" lon="4.68327">
        <ele>151.9</ele>
        <time>2013-11-23T09:31:39.373Z</time>
      </trkpt>
      <trkpt lat="44.18299" lon="4.68318">
        <ele>152</ele>
        <time>2013-11-23T09:31:41.352Z</time>
      </trkpt>
      <trkpt lat="44.18305" lon="4.68309">
        <ele>152.2</ele>
        <time>2013-11-23T09:31:43.370Z</time>
      </trkpt>
      <trkpt lat="44.18307" lon="4.68304">
        <ele>152.3</ele>
        <time>2013-11-23T09:31:44.374Z</time>
      </trkpt>
      <trkpt lat="44.18312" lon="4.68294">
        <ele>152.4</ele>
        <time>2013-11-23T09:31:46.374Z</time>
      </trkpt>
      <trkpt lat="44.18314" lon="4.6829">
        <ele>152.3</ele>
        <time>2013-11-23T09:31:47.409Z</time>
      </trkpt>
      <trkpt lat="44.18319" lon="4.68282">
        <ele>152.5</ele>
        <time>2013-11-23T09:31:49.377Z</time>
      </trkpt>
      <trkpt lat="44.18324" lon="4.68273">
        <ele>152.7</ele>
        <time>2013-11-23T09:31:51.371Z</time>
      </trkpt>
      <trkpt lat="44.18329" lon="4.68269">
        <ele>152.1</ele>
        <time>2013-11-23T09:31:52.466Z</time>
      </trkpt>
      <trkpt lat="44.18336" lon="4.6826">
        <ele>151.4</ele>
        <time>2013-11-23T09:31:54.373Z</time>
      </trkpt>
      <trkpt lat="44.18343" lon="4.6825">
        <ele>150.7</ele>
        <time>2013-11-23T09:31:56.373Z</time>
      </trkpt>
      <trkpt lat="44.18346" lon="4.68245">
        <ele>151.5</ele>
        <time>2013-11-23T09:31:57.383Z</time>
      </trkpt>
      <trkpt lat="44.18352" lon="4.68237">
        <ele>151.4</ele>
        <time>2013-11-23T09:31:59.374Z</time>
      </trkpt>
      <trkpt lat="44.18354" lon="4.68232">
        <ele>151.4</ele>
        <time>2013-11-23T09:32:00.375Z</time>
      </trkpt>
      <trkpt lat="44.18358" lon="4.68224">
        <ele>154.4</ele>
        <time>2013-11-23T09:32:02.371Z</time>
      </trkpt>
      <trkpt lat="44.18361" lon="4.68214">
        <ele>154.1</ele>
        <time>2013-11-23T09:32:04.372Z</time>
      </trkpt>
      <trkpt lat="44.18362" lon="4.68202">
        <ele>154.1</ele>
        <time>2013-11-23T09:32:06.377Z</time>
      </trkpt>
      <trkpt lat="44.18363" lon="4.68197">
        <ele>154.4</ele>
        <time>2013-11-23T09:32:07.375Z</time>
      </trkpt>
      <trkpt lat="44.18365" lon="4.68186">
        <ele>155</ele>
        <time>2013-11-23T09:32:09.372Z</time>
      </trkpt>
      <trkpt lat="44.18369" lon="4.68176">
        <ele>155.8</ele>
        <time>2013-11-23T09:32:11.373Z</time>
      </trkpt>
      <trkpt lat="44.1837" lon="4.68171">
        <ele>156</ele>
        <time>2013-11-23T09:32:12.372Z</time>
      </trkpt>
      <trkpt lat="44.18372" lon="4.68166">
        <ele>156</ele>
        <time>2013-11-23T09:32:13.376Z</time>
      </trkpt>
      <trkpt lat="44.18375" lon="4.68158">
        <ele>155.9</ele>
        <time>2013-11-23T09:32:15.370Z</time>
      </trkpt>
      <trkpt lat="44.18377" lon="4.68148">
        <ele>156.6</ele>
        <time>2013-11-23T09:32:17.368Z</time>
      </trkpt>
      <trkpt lat="44.18379" lon="4.68143">
        <ele>156.5</ele>
        <time>2013-11-23T09:32:18.372Z</time>
      </trkpt>
      <trkpt lat="44.18381" lon="4.68134">
        <ele>155.6</ele>
        <time>2013-11-23T09:32:20.374Z</time>
      </trkpt>
      <trkpt lat="44.18383" lon="4.68129">
        <ele>155.4</ele>
        <time>2013-11-23T09:32:21.374Z</time>
      </trkpt>
      <trkpt lat="44.18385" lon="4.68124">
        <ele>155.6</ele>
        <time>2013-11-23T09:32:22.375Z</time>
      </trkpt>
      <trkpt lat="44.18388" lon="4.68115">
        <ele>155.6</ele>
        <time>2013-11-23T09:32:24.374Z</time>
      </trkpt>
      <trkpt lat="44.18389" lon="4.68111">
        <ele>156.4</ele>
        <time>2013-11-23T09:32:25.422Z</time>
      </trkpt>
      <trkpt lat="44.18392" lon="4.68102">
        <ele>155.7</ele>
        <time>2013-11-23T09:32:27.372Z</time>
      </trkpt>
      <trkpt lat="44.18394" lon="4.68093">
        <ele>155.7</ele>
        <time>2013-11-23T09:32:29.374Z</time>
      </trkpt>
      <trkpt lat="44.18396" lon="4.68086">
        <ele>155.8</ele>
        <time>2013-11-23T09:32:31.373Z</time>
      </trkpt>
      <trkpt lat="44.18398" lon="4.68083">
        <ele>155.7</ele>
        <time>2013-11-23T09:32:32.376Z</time>
      </trkpt>
      <trkpt lat="44.184" lon="4.68074">
        <ele>154.4</ele>
        <time>2013-11-23T09:32:34.372Z</time>
      </trkpt>
      <trkpt lat="44.18403" lon="4.68066">
        <ele>153.7</ele>
        <time>2013-11-23T09:32:36.370Z</time>
      </trkpt>
      <trkpt lat="44.18404" lon="4.68062">
        <ele>155.1</ele>
        <time>2013-11-23T09:32:37.372Z</time>
      </trkpt>
      <trkpt lat="44.18407" lon="4.68054">
        <ele>156</ele>
        <time>2013-11-23T09:32:39.374Z</time>
      </trkpt>
      <trkpt lat="44.1841" lon="4.68044">
        <ele>156.5</ele>
        <time>2013-11-23T09:32:41.372Z</time>
      </trkpt>
      <trkpt lat="44.18412" lon="4.68039">
        <ele>155.2</ele>
        <time>2013-11-23T09:32:42.374Z</time>
      </trkpt>
      <trkpt lat="44.18416" lon="4.68027">
        <ele>154.8</ele>
        <time>2013-11-23T09:32:44.372Z</time>
      </trkpt>
      <trkpt lat="44.18417" lon="4.68022">
        <ele>154.4</ele>
        <time>2013-11-23T09:32:45.374Z</time>
      </trkpt>
      <trkpt lat="44.1842" lon="4.6801">
        <ele>154.2</ele>
        <time>2013-11-23T09:32:47.372Z</time>
      </trkpt>
      <trkpt lat="44.18421" lon="4.68005">
        <ele>154.1</ele>
        <time>2013-11-23T09:32:48.373Z</time>
      </trkpt>
      <trkpt lat="44.18426" lon="4.67996">
        <ele>154.2</ele>
        <time>2013-11-23T09:32:50.372Z</time>
      </trkpt>
      <trkpt lat="44.18429" lon="4.67993">
        <ele>154.2</ele>
        <time>2013-11-23T09:32:51.442Z</time>
      </trkpt>
      <trkpt lat="44.18436" lon="4.67988">
        <ele>153.8</ele>
        <time>2013-11-23T09:32:53.376Z</time>
      </trkpt>
      <trkpt lat="44.18439" lon="4.67986">
        <ele>153.8</ele>
        <time>2013-11-23T09:32:54.373Z</time>
      </trkpt>
      <trkpt lat="44.18446" lon="4.67979">
        <ele>154.2</ele>
        <time>2013-11-23T09:32:56.372Z</time>
      </trkpt>
      <trkpt lat="44.18447" lon="4.67973">
        <ele>153.3</ele>
        <time>2013-11-23T09:32:57.390Z</time>
      </trkpt>
      <trkpt lat="44.18449" lon="4.67963">
        <ele>153.1</ele>
        <time>2013-11-23T09:32:59.370Z</time>
      </trkpt>
      <trkpt lat="44.1845" lon="4.67958">
        <ele>153.2</ele>
        <time>2013-11-23T09:33:00.373Z</time>
      </trkpt>
      <trkpt lat="44.18447" lon="4.6795">
        <ele>152.7</ele>
        <time>2013-11-23T09:33:02.369Z</time>
      </trkpt>
      <trkpt lat="44.18444" lon="4.67942">
        <ele>153.1</ele>
        <time>2013-11-23T09:33:04.371Z</time>
      </trkpt>
      <trkpt lat="44.18443" lon="4.67938">
        <ele>153</ele>
        <time>2013-11-23T09:33:05.372Z</time>
      </trkpt>
      <trkpt lat="44.18438" lon="4.6793">
        <ele>154.5</ele>
        <time>2013-11-23T09:33:08.370Z</time>
      </trkpt>
      <trkpt lat="44.18437" lon="4.67927">
        <ele>154</ele>
        <time>2013-11-23T09:33:09.372Z</time>
      </trkpt>
      <trkpt lat="44.18436" lon="4.67923">
        <ele>153.1</ele>
        <time>2013-11-23T09:33:10.392Z</time>
      </trkpt>
      <trkpt lat="44.18433" lon="4.67915">
        <ele>153.5</ele>
        <time>2013-11-23T09:33:12.373Z</time>
      </trkpt>
      <trkpt lat="44.18431" lon="4.67911">
        <ele>153.2</ele>
        <time>2013-11-23T09:33:13.374Z</time>
      </trkpt>
      <trkpt lat="44.18428" lon="4.67903">
        <ele>153.9</ele>
        <time>2013-11-23T09:33:15.368Z</time>
      </trkpt>
      <trkpt lat="44.18423" lon="4.67894">
        <ele>155.4</ele>
        <time>2013-11-23T09:33:18.376Z</time>
      </trkpt>
      <trkpt lat="44.18421" lon="4.67892">
        <ele>156.3</ele>
        <time>2013-11-23T09:33:19.376Z</time>
      </trkpt>
      <trkpt lat="44.18415" lon="4.67885">
        <ele>157.6</ele>
        <time>2013-11-23T09:33:22.377Z</time>
      </trkpt>
      <trkpt lat="44.18413" lon="4.67882">
        <ele>157.7</ele>
        <time>2013-11-23T09:33:23.377Z</time>
      </trkpt>
      <trkpt lat="44.18408" lon="4.67873">
        <ele>159</ele>
        <time>2013-11-23T09:33:26.372Z</time>
      </trkpt>
      <trkpt lat="44.18407" lon="4.6787">
        <ele>158.9</ele>
        <time>2013-11-23T09:33:27.372Z</time>
      </trkpt>
      <trkpt lat="44.18403" lon="4.6786">
        <ele>159.4</ele>
        <time>2013-11-23T09:33:30.372Z</time>
      </trkpt>
      <trkpt lat="44.18402" lon="4.67856">
        <ele>159.2</ele>
        <time>2013-11-23T09:33:31.373Z</time>
      </trkpt>
      <trkpt lat="44.18399" lon="4.67849">
        <ele>159.5</ele>
        <time>2013-11-23T09:33:33.377Z</time>
      </trkpt>
      <trkpt lat="44.18395" lon="4.67842">
        <ele>158.7</ele>
        <time>2013-11-23T09:33:35.372Z</time>
      </trkpt>
      <trkpt lat="44.18393" lon="4.67839">
        <ele>158.7</ele>
        <time>2013-11-23T09:33:36.372Z</time>
      </trkpt>
      <trkpt lat="44.18388" lon="4.67832">
        <ele>158.3</ele>
        <time>2013-11-23T09:33:38.372Z</time>
      </trkpt>
      <trkpt lat="44.18386" lon="4.67828">
        <ele>158.2</ele>
        <time>2013-11-23T09:33:39.372Z</time>
      </trkpt>
      <trkpt lat="44.1838" lon="4.6782">
        <ele>157.3</ele>
        <time>2013-11-23T09:33:41.372Z</time>
      </trkpt>
      <trkpt lat="44.18376" lon="4.67809">
        <ele>157.4</ele>
        <time>2013-11-23T09:33:43.371Z</time>
      </trkpt>
      <trkpt lat="44.18377" lon="4.67803">
        <ele>157.3</ele>
        <time>2013-11-23T09:33:44.372Z</time>
      </trkpt>
      <trkpt lat="44.18384" lon="4.67793">
        <ele>156.5</ele>
        <time>2013-11-23T09:33:46.370Z</time>
      </trkpt>
      <trkpt lat="44.18388" lon="4.67788">
        <ele>156.3</ele>
        <time>2013-11-23T09:33:47.372Z</time>
      </trkpt>
      <trkpt lat="44.18396" lon="4.67783">
        <ele>156.7</ele>
        <time>2013-11-23T09:33:49.372Z</time>
      </trkpt>
      <trkpt lat="44.184" lon="4.67781">
        <ele>157</ele>
        <time>2013-11-23T09:33:50.371Z</time>
      </trkpt>
      <trkpt lat="44.18407" lon="4.67778">
        <ele>157.1</ele>
        <time>2013-11-23T09:33:52.372Z</time>
      </trkpt>
      <trkpt lat="44.18414" lon="4.67777">
        <ele>156.4</ele>
        <time>2013-11-23T09:33:54.372Z</time>
      </trkpt>
      <trkpt lat="44.18422" lon="4.67775">
        <ele>157.1</ele>
        <time>2013-11-23T09:33:56.372Z</time>
      </trkpt>
      <trkpt lat="44.18429" lon="4.67773">
        <ele>157.2</ele>
        <time>2013-11-23T09:33:58.384Z</time>
      </trkpt>
      <trkpt lat="44.18437" lon="4.6777">
        <ele>157.1</ele>
        <time>2013-11-23T09:34:00.364Z</time>
      </trkpt>
      <trkpt lat="44.1844" lon="4.67766">
        <ele>157</ele>
        <time>2013-11-23T09:34:01.369Z</time>
      </trkpt>
      <trkpt lat="44.18444" lon="4.67761">
        <ele>156</ele>
        <time>2013-11-23T09:34:02.369Z</time>
      </trkpt>
      <trkpt lat="44.18448" lon="4.67757">
        <ele>155.5</ele>
        <time>2013-11-23T09:34:03.371Z</time>
      </trkpt>
      <trkpt lat="44.18452" lon="4.67751">
        <ele>154.9</ele>
        <time>2013-11-23T09:34:04.372Z</time>
      </trkpt>
      <trkpt lat="44.18458" lon="4.67745">
        <ele>154.3</ele>
        <time>2013-11-23T09:34:05.372Z</time>
      </trkpt>
      <trkpt lat="44.18464" lon="4.67739">
        <ele>153.1</ele>
        <time>2013-11-23T09:34:06.373Z</time>
      </trkpt>
      <trkpt lat="44.1847" lon="4.67734">
        <ele>152.5</ele>
        <time>2013-11-23T09:34:07.373Z</time>
      </trkpt>
      <trkpt lat="44.18477" lon="4.67729">
        <ele>152.9</ele>
        <time>2013-11-23T09:34:08.372Z</time>
      </trkpt>
      <trkpt lat="44.18485" lon="4.67725">
        <ele>153</ele>
        <time>2013-11-23T09:34:09.374Z</time>
      </trkpt>
      <trkpt lat="44.18492" lon="4.67721">
        <ele>152.8</ele>
        <time>2013-11-23T09:34:10.375Z</time>
      </trkpt>
      <trkpt lat="44.18505" lon="4.67715">
        <ele>152.4</ele>
        <time>2013-11-23T09:34:12.360Z</time>
      </trkpt>
      <trkpt lat="44.18511" lon="4.67712">
        <ele>152.3</ele>
        <time>2013-11-23T09:34:13.370Z</time>
      </trkpt>
      <trkpt lat="44.18516" lon="4.67711">
        <ele>152.7</ele>
        <time>2013-11-23T09:34:14.372Z</time>
      </trkpt>
      <trkpt lat="44.18526" lon="4.67707">
        <ele>152.3</ele>
        <time>2013-11-23T09:34:16.370Z</time>
      </trkpt>
      <trkpt lat="44.18533" lon="4.67699">
        <ele>152.5</ele>
        <time>2013-11-23T09:34:18.367Z</time>
      </trkpt>
      <trkpt lat="44.18537" lon="4.67695">
        <ele>152.6</ele>
        <time>2013-11-23T09:34:19.372Z</time>
      </trkpt>
      <trkpt lat="44.18543" lon="4.67686">
        <ele>152.7</ele>
        <time>2013-11-23T09:34:21.372Z</time>
      </trkpt>
      <trkpt lat="44.18549" lon="4.67677">
        <ele>152.8</ele>
        <time>2013-11-23T09:34:23.370Z</time>
      </trkpt>
      <trkpt lat="44.18552" lon="4.67673">
        <ele>152.8</ele>
        <time>2013-11-23T09:34:24.372Z</time>
      </trkpt>
      <trkpt lat="44.18554" lon="4.67669">
        <ele>152.8</ele>
        <time>2013-11-23T09:34:25.372Z</time>
      </trkpt>
      <trkpt lat="44.1856" lon="4.6766">
        <ele>152.9</ele>
        <time>2013-11-23T09:34:27.368Z</time>
      </trkpt>
      <trkpt lat="44.18568" lon="4.67653">
        <ele>152.7</ele>
        <time>2013-11-23T09:34:29.370Z</time>
      </trkpt>
      <trkpt lat="44.18571" lon="4.67649">
        <ele>153.1</ele>
        <time>2013-11-23T09:34:30.372Z</time>
      </trkpt>
      <trkpt lat="44.18573" lon="4.67646">
        <ele>153.4</ele>
        <time>2013-11-23T09:34:31.372Z</time>
      </trkpt>
      <trkpt lat="44.18579" lon="4.67638">
        <ele>153.5</ele>
        <time>2013-11-23T09:34:33.369Z</time>
      </trkpt>
      <trkpt lat="44.18585" lon="4.67631">
        <ele>153.9</ele>
        <time>2013-11-23T09:34:35.372Z</time>
      </trkpt>
      <trkpt lat="44.18588" lon="4.67627">
        <ele>154.3</ele>
        <time>2013-11-23T09:34:36.373Z</time>
      </trkpt>
      <trkpt lat="44.18595" lon="4.67619">
        <ele>154.1</ele>
        <time>2013-11-23T09:34:38.370Z</time>
      </trkpt>
      <trkpt lat="44.18599" lon="4.67616">
        <ele>155</ele>
        <time>2013-11-23T09:34:39.372Z</time>
      </trkpt>
      <trkpt lat="44.18602" lon="4.67612">
        <ele>155.2</ele>
        <time>2013-11-23T09:34:40.372Z</time>
      </trkpt>
      <trkpt lat="44.18609" lon="4.67605">
        <ele>155.7</ele>
        <time>2013-11-23T09:34:42.368Z</time>
      </trkpt>
      <trkpt lat="44.18616" lon="4.676">
        <ele>156.7</ele>
        <time>2013-11-23T09:34:44.373Z</time>
      </trkpt>
      <trkpt lat="44.18622" lon="4.67594">
        <ele>155.9</ele>
        <time>2013-11-23T09:34:46.373Z</time>
      </trkpt>
      <trkpt lat="44.18626" lon="4.67591">
        <ele>155.9</ele>
        <time>2013-11-23T09:34:47.376Z</time>
      </trkpt>
      <trkpt lat="44.18632" lon="4.67586">
        <ele>155.7</ele>
        <time>2013-11-23T09:34:49.376Z</time>
      </trkpt>
      <trkpt lat="44.18638" lon="4.67581">
        <ele>155.2</ele>
        <time>2013-11-23T09:34:51.377Z</time>
      </trkpt>
      <trkpt lat="44.18641" lon="4.67577">
        <ele>155.5</ele>
        <time>2013-11-23T09:34:52.377Z</time>
      </trkpt>
      <trkpt lat="44.18648" lon="4.67572">
        <ele>156</ele>
        <time>2013-11-23T09:34:54.375Z</time>
      </trkpt>
      <trkpt lat="44.18654" lon="4.67565">
        <ele>156.1</ele>
        <time>2013-11-23T09:34:56.374Z</time>
      </trkpt>
      <trkpt lat="44.18656" lon="4.67562">
        <ele>156</ele>
        <time>2013-11-23T09:34:57.391Z</time>
      </trkpt>
      <trkpt lat="44.18662" lon="4.67554">
        <ele>156.5</ele>
        <time>2013-11-23T09:34:59.373Z</time>
      </trkpt>
      <trkpt lat="44.18667" lon="4.67547">
        <ele>156.7</ele>
        <time>2013-11-23T09:35:01.372Z</time>
      </trkpt>
      <trkpt lat="44.1867" lon="4.67543">
        <ele>156.5</ele>
        <time>2013-11-23T09:35:02.376Z</time>
      </trkpt>
      <trkpt lat="44.18675" lon="4.67535">
        <ele>157.1</ele>
        <time>2013-11-23T09:35:04.374Z</time>
      </trkpt>
      <trkpt lat="44.18678" lon="4.67531">
        <ele>157.1</ele>
        <time>2013-11-23T09:35:05.374Z</time>
      </trkpt>
      <trkpt lat="44.1868" lon="4.67526">
        <ele>156.9</ele>
        <time>2013-11-23T09:35:06.375Z</time>
      </trkpt>
      <trkpt lat="44.18685" lon="4.67518">
        <ele>156.9</ele>
        <time>2013-11-23T09:35:08.374Z</time>
      </trkpt>
      <trkpt lat="44.18688" lon="4.67513">
        <ele>157</ele>
        <time>2013-11-23T09:35:09.376Z</time>
      </trkpt>
      <trkpt lat="44.18694" lon="4.67505">
        <ele>157.2</ele>
        <time>2013-11-23T09:35:11.374Z</time>
      </trkpt>
      <trkpt lat="44.187" lon="4.67497">
        <ele>157.7</ele>
        <time>2013-11-23T09:35:13.373Z</time>
      </trkpt>
      <trkpt lat="44.18703" lon="4.67493">
        <ele>157.7</ele>
        <time>2013-11-23T09:35:14.376Z</time>
      </trkpt>
      <trkpt lat="44.18709" lon="4.67485">
        <ele>157.8</ele>
        <time>2013-11-23T09:35:16.376Z</time>
      </trkpt>
      <trkpt lat="44.18712" lon="4.67481">
        <ele>157.9</ele>
        <time>2013-11-23T09:35:17.375Z</time>
      </trkpt>
      <trkpt lat="44.18718" lon="4.67473">
        <ele>157.9</ele>
        <time>2013-11-23T09:35:19.374Z</time>
      </trkpt>
      <trkpt lat="44.18721" lon="4.67469">
        <ele>158.1</ele>
        <time>2013-11-23T09:35:20.381Z</time>
      </trkpt>
      <trkpt lat="44.18727" lon="4.67461">
        <ele>158.7</ele>
        <time>2013-11-23T09:35:22.372Z</time>
      </trkpt>
      <trkpt lat="44.1873" lon="4.67457">
        <ele>158.5</ele>
        <time>2013-11-23T09:35:23.375Z</time>
      </trkpt>
      <trkpt lat="44.18734" lon="4.67453">
        <ele>158.5</ele>
        <time>2013-11-23T09:35:24.382Z</time>
      </trkpt>
      <trkpt lat="44.1874" lon="4.67444">
        <ele>158.6</ele>
        <time>2013-11-23T09:35:26.380Z</time>
      </trkpt>
      <trkpt lat="44.18746" lon="4.67437">
        <ele>159.4</ele>
        <time>2013-11-23T09:35:28.382Z</time>
      </trkpt>
      <trkpt lat="44.18752" lon="4.6743">
        <ele>160.1</ele>
        <time>2013-11-23T09:35:30.383Z</time>
      </trkpt>
      <trkpt lat="44.18755" lon="4.67426">
        <ele>160.5</ele>
        <time>2013-11-23T09:35:31.378Z</time>
      </trkpt>
      <trkpt lat="44.18761" lon="4.67418">
        <ele>160.3</ele>
        <time>2013-11-23T09:35:33.378Z</time>
      </trkpt>
      <trkpt lat="44.18766" lon="4.67409">
        <ele>158.7</ele>
        <time>2013-11-23T09:35:35.373Z</time>
      </trkpt>
      <trkpt lat="44.18769" lon="4.674">
        <ele>157.7</ele>
        <time>2013-11-23T09:35:37.372Z</time>
      </trkpt>
      <trkpt lat="44.18774" lon="4.67391">
        <ele>157.6</ele>
        <time>2013-11-23T09:35:39.376Z</time>
      </trkpt>
      <trkpt lat="44.18776" lon="4.67386">
        <ele>158.2</ele>
        <time>2013-11-23T09:35:40.376Z</time>
      </trkpt>
      <trkpt lat="44.1878" lon="4.67377">
        <ele>158</ele>
        <time>2013-11-23T09:35:42.379Z</time>
      </trkpt>
      <trkpt lat="44.18785" lon="4.67367">
        <ele>154.4</ele>
        <time>2013-11-23T09:35:44.377Z</time>
      </trkpt>
      <trkpt lat="44.18788" lon="4.67362">
        <ele>155.3</ele>
        <time>2013-11-23T09:35:45.382Z</time>
      </trkpt>
      <trkpt lat="44.18792" lon="4.67353">
        <ele>156.9</ele>
        <time>2013-11-23T09:35:46.276Z</time>
      </trkpt>
      <trkpt lat="44.18798" lon="4.67343">
        <ele>157.7</ele>
        <time>2013-11-23T09:35:48.280Z</time>
      </trkpt>
      <trkpt lat="44.18803" lon="4.67335">
        <ele>159.6</ele>
        <time>2013-11-23T09:35:50.277Z</time>
      </trkpt>
      <trkpt lat="44.18806" lon="4.67331">
        <ele>159.6</ele>
        <time>2013-11-23T09:35:51.292Z</time>
      </trkpt>
      <trkpt lat="44.18812" lon="4.67323">
        <ele>158.4</ele>
        <time>2013-11-23T09:35:53.291Z</time>
      </trkpt>
      <trkpt lat="44.18819" lon="4.67315">
        <ele>156.2</ele>
        <time>2013-11-23T09:35:55.308Z</time>
      </trkpt>
      <trkpt lat="44.18822" lon="4.67311">
        <ele>156.5</ele>
        <time>2013-11-23T09:35:56.299Z</time>
      </trkpt>
      <trkpt lat="44.1883" lon="4.67301">
        <ele>157.4</ele>
        <time>2013-11-23T09:35:58.283Z</time>
      </trkpt>
      <trkpt lat="44.18833" lon="4.67291">
        <ele>158.1</ele>
        <time>2013-11-23T09:36:00.275Z</time>
      </trkpt>
      <trkpt lat="44.18835" lon="4.67284">
        <ele>158</ele>
        <time>2013-11-23T09:36:01.281Z</time>
      </trkpt>
      <trkpt lat="44.1884" lon="4.67271">
        <ele>158.2</ele>
        <time>2013-11-23T09:36:03.281Z</time>
      </trkpt>
      <trkpt lat="44.18842" lon="4.67261">
        <ele>158.2</ele>
        <time>2013-11-23T09:36:04.294Z</time>
      </trkpt>
      <trkpt lat="44.1885" lon="4.67248">
        <ele>158.3</ele>
        <time>2013-11-23T09:36:06.273Z</time>
      </trkpt>
      <trkpt lat="44.18853" lon="4.67243">
        <ele>158.4</ele>
        <time>2013-11-23T09:36:07.284Z</time>
      </trkpt>
      <trkpt lat="44.18856" lon="4.67237">
        <ele>159</ele>
        <time>2013-11-23T09:36:08.290Z</time>
      </trkpt>
      <trkpt lat="44.18859" lon="4.67232">
        <ele>159</ele>
        <time>2013-11-23T09:36:09.290Z</time>
      </trkpt>
      <trkpt lat="44.18863" lon="4.67225">
        <ele>158.4</ele>
        <time>2013-11-23T09:36:11.287Z</time>
      </trkpt>
      <trkpt lat="44.18865" lon="4.67217">
        <ele>160.1</ele>
        <time>2013-11-23T09:36:14.302Z</time>
      </trkpt>
      <trkpt lat="44.18868" lon="4.6721">
        <ele>160.3</ele>
        <time>2013-11-23T09:36:16.287Z</time>
      </trkpt>
      <trkpt lat="44.18863" lon="4.67203">
        <ele>162</ele>
        <time>2013-11-23T09:36:20.404Z</time>
      </trkpt>
      <trkpt lat="44.18857" lon="4.67205">
        <ele>164.1</ele>
        <time>2013-11-23T09:36:23.292Z</time>
      </trkpt>
      <trkpt lat="44.1885" lon="4.67209">
        <ele>164.7</ele>
        <time>2013-11-23T09:36:26.300Z</time>
      </trkpt>
      <trkpt lat="44.18846" lon="4.67211">
        <ele>165.5</ele>
        <time>2013-11-23T09:36:28.308Z</time>
      </trkpt>
      <trkpt lat="44.18841" lon="4.67213">
        <ele>166</ele>
        <time>2013-11-23T09:36:30.303Z</time>
      </trkpt>
      <trkpt lat="44.18837" lon="4.67216">
        <ele>166.3</ele>
        <time>2013-11-23T09:36:32.298Z</time>
      </trkpt>
      <trkpt lat="44.18831" lon="4.67219">
        <ele>166.1</ele>
        <time>2013-11-23T09:36:35.295Z</time>
      </trkpt>
      <trkpt lat="44.18829" lon="4.6722">
        <ele>166.7</ele>
        <time>2013-11-23T09:36:36.303Z</time>
      </trkpt>
      <trkpt lat="44.1882" lon="4.67223">
        <ele>168.1</ele>
        <time>2013-11-23T09:36:41.146Z</time>
      </trkpt>
      <trkpt lat="44.18814" lon="4.67226">
        <ele>168.6</ele>
        <time>2013-11-23T09:36:44.020Z</time>
      </trkpt>
      <trkpt lat="44.18809" lon="4.67228">
        <ele>168.9</ele>
        <time>2013-11-23T09:36:47.038Z</time>
      </trkpt>
      <trkpt lat="44.18805" lon="4.6723">
        <ele>168.9</ele>
        <time>2013-11-23T09:36:49.038Z</time>
      </trkpt>
      <trkpt lat="44.18799" lon="4.67232">
        <ele>169.7</ele>
        <time>2013-11-23T09:36:52.041Z</time>
      </trkpt>
      <trkpt lat="44.18795" lon="4.67234">
        <ele>170.1</ele>
        <time>2013-11-23T09:36:54.038Z</time>
      </trkpt>
      <trkpt lat="44.18789" lon="4.67236">
        <ele>171</ele>
        <time>2013-11-23T09:36:57.029Z</time>
      </trkpt>
      <trkpt lat="44.18785" lon="4.67238">
        <ele>171.3</ele>
        <time>2013-11-23T09:36:59.025Z</time>
      </trkpt>
      <trkpt lat="44.1878" lon="4.67241">
        <ele>171.7</ele>
        <time>2013-11-23T09:37:02.029Z</time>
      </trkpt>
      <trkpt lat="44.18776" lon="4.67243">
        <ele>172</ele>
        <time>2013-11-23T09:37:04.029Z</time>
      </trkpt>
      <trkpt lat="44.18769" lon="4.67248">
        <ele>172.4</ele>
        <time>2013-11-23T09:37:08.022Z</time>
      </trkpt>
      <trkpt lat="44.18767" lon="4.6725">
        <ele>172.4</ele>
        <time>2013-11-23T09:37:09.022Z</time>
      </trkpt>
      <trkpt lat="44.1876" lon="4.67256">
        <ele>172.6</ele>
        <time>2013-11-23T09:37:12.031Z</time>
      </trkpt>
      <trkpt lat="44.18758" lon="4.67258">
        <ele>172.6</ele>
        <time>2013-11-23T09:37:13.037Z</time>
      </trkpt>
      <trkpt lat="44.18751" lon="4.67264">
        <ele>172.8</ele>
        <time>2013-11-23T09:37:16.035Z</time>
      </trkpt>
      <trkpt lat="44.18749" lon="4.67266">
        <ele>173</ele>
        <time>2013-11-23T09:37:17.037Z</time>
      </trkpt>
      <trkpt lat="44.18743" lon="4.67273">
        <ele>173.3</ele>
        <time>2013-11-23T09:37:20.036Z</time>
      </trkpt>
      <trkpt lat="44.1874" lon="4.67275">
        <ele>173.2</ele>
        <time>2013-11-23T09:37:21.087Z</time>
      </trkpt>
      <trkpt lat="44.18734" lon="4.67281">
        <ele>173.6</ele>
        <time>2013-11-23T09:37:24.025Z</time>
      </trkpt>
      <trkpt lat="44.18732" lon="4.67284">
        <ele>173.9</ele>
        <time>2013-11-23T09:37:25.038Z</time>
      </trkpt>
      <trkpt lat="44.18725" lon="4.67291">
        <ele>174.1</ele>
        <time>2013-11-23T09:37:28.026Z</time>
      </trkpt>
      <trkpt lat="44.18722" lon="4.67293">
        <ele>173.9</ele>
        <time>2013-11-23T09:37:29.029Z</time>
      </trkpt>
      <trkpt lat="44.18718" lon="4.67299">
        <ele>174.5</ele>
        <time>2013-11-23T09:37:31.033Z</time>
      </trkpt>
      <trkpt lat="44.18715" lon="4.67301">
        <ele>174.5</ele>
        <time>2013-11-23T09:37:32.055Z</time>
      </trkpt>
      <trkpt lat="44.18709" lon="4.67307">
        <ele>174.6</ele>
        <time>2013-11-23T09:37:34.033Z</time>
      </trkpt>
      <trkpt lat="44.18707" lon="4.6731">
        <ele>175</ele>
        <time>2013-11-23T09:37:35.034Z</time>
      </trkpt>
      <trkpt lat="44.18704" lon="4.67312">
        <ele>174.9</ele>
        <time>2013-11-23T09:37:36.036Z</time>
      </trkpt>
      <trkpt lat="44.18699" lon="4.67316">
        <ele>175.2</ele>
        <time>2013-11-23T09:37:38.031Z</time>
      </trkpt>
      <trkpt lat="44.18696" lon="4.67318">
        <ele>175.2</ele>
        <time>2013-11-23T09:37:39.037Z</time>
      </trkpt>
      <trkpt lat="44.1869" lon="4.67322">
        <ele>174.7</ele>
        <time>2013-11-23T09:37:41.036Z</time>
      </trkpt>
      <trkpt lat="44.18687" lon="4.67325">
        <ele>174.8</ele>
        <time>2013-11-23T09:37:42.039Z</time>
      </trkpt>
      <trkpt lat="44.18681" lon="4.67329">
        <ele>174.8</ele>
        <time>2013-11-23T09:37:44.032Z</time>
      </trkpt>
      <trkpt lat="44.18675" lon="4.67334">
        <ele>174.7</ele>
        <time>2013-11-23T09:37:46.036Z</time>
      </trkpt>
      <trkpt lat="44.18669" lon="4.67338">
        <ele>175</ele>
        <time>2013-11-23T09:37:48.017Z</time>
      </trkpt>
      <trkpt lat="44.18663" lon="4.67343">
        <ele>175.4</ele>
        <time>2013-11-23T09:37:50.026Z</time>
      </trkpt>
      <trkpt lat="44.18658" lon="4.67347">
        <ele>175.5</ele>
        <time>2013-11-23T09:37:52.028Z</time>
      </trkpt>
      <trkpt lat="44.18652" lon="4.67351">
        <ele>176</ele>
        <time>2013-11-23T09:37:54.037Z</time>
      </trkpt>
      <trkpt lat="44.18649" lon="4.67353">
        <ele>176.8</ele>
        <time>2013-11-23T09:37:55.038Z</time>
      </trkpt>
      <trkpt lat="44.18642" lon="4.67356">
        <ele>176.7</ele>
        <time>2013-11-23T09:37:57.017Z</time>
      </trkpt>
      <trkpt lat="44.1864" lon="4.67357">
        <ele>177</ele>
        <time>2013-11-23T09:37:58.030Z</time>
      </trkpt>
      <trkpt lat="44.18634" lon="4.6736">
        <ele>177.6</ele>
        <time>2013-11-23T09:38:00.120Z</time>
      </trkpt>
      <trkpt lat="44.18629" lon="4.67362">
        <ele>178.3</ele>
        <time>2013-11-23T09:38:02.035Z</time>
      </trkpt>
      <trkpt lat="44.18622" lon="4.67366">
        <ele>179</ele>
        <time>2013-11-23T09:38:05.049Z</time>
      </trkpt>
      <trkpt lat="44.1862" lon="4.67367">
        <ele>179.3</ele>
        <time>2013-11-23T09:38:06.079Z</time>
      </trkpt>
      <trkpt lat="44.18612" lon="4.67371">
        <ele>180</ele>
        <time>2013-11-23T09:38:09.031Z</time>
      </trkpt>
      <trkpt lat="44.1861" lon="4.67372">
        <ele>180.3</ele>
        <time>2013-11-23T09:38:10.077Z</time>
      </trkpt>
      <trkpt lat="44.18602" lon="4.67378">
        <ele>180.5</ele>
        <time>2013-11-23T09:38:13.049Z</time>
      </trkpt>
      <trkpt lat="44.18597" lon="4.67381">
        <ele>180.8</ele>
        <time>2013-11-23T09:38:15.040Z</time>
      </trkpt>
      <trkpt lat="44.18595" lon="4.67383">
        <ele>180.6</ele>
        <time>2013-11-23T09:38:16.044Z</time>
      </trkpt>
      <trkpt lat="44.18589" lon="4.67386">
        <ele>180.8</ele>
        <time>2013-11-23T09:38:18.039Z</time>
      </trkpt>
      <trkpt lat="44.18583" lon="4.6739">
        <ele>180.9</ele>
        <time>2013-11-23T09:38:20.039Z</time>
      </trkpt>
      <trkpt lat="44.18577" lon="4.67393">
        <ele>180.8</ele>
        <time>2013-11-23T09:38:22.020Z</time>
      </trkpt>
      <trkpt lat="44.18571" lon="4.67396">
        <ele>180.7</ele>
        <time>2013-11-23T09:38:24.026Z</time>
      </trkpt>
      <trkpt lat="44.18568" lon="4.67397">
        <ele>180.6</ele>
        <time>2013-11-23T09:38:25.052Z</time>
      </trkpt>
      <trkpt lat="44.18562" lon="4.67399">
        <ele>180.5</ele>
        <time>2013-11-23T09:38:27.063Z</time>
      </trkpt>
      <trkpt lat="44.18555" lon="4.67401">
        <ele>180.6</ele>
        <time>2013-11-23T09:38:29.031Z</time>
      </trkpt>
      <trkpt lat="44.18552" lon="4.67403">
        <ele>180.6</ele>
        <time>2013-11-23T09:38:30.032Z</time>
      </trkpt>
      <trkpt lat="44.18545" lon="4.67405">
        <ele>180.5</ele>
        <time>2013-11-23T09:38:32.031Z</time>
      </trkpt>
      <trkpt lat="44.18541" lon="4.67406">
        <ele>180.7</ele>
        <time>2013-11-23T09:38:33.031Z</time>
      </trkpt>
      <trkpt lat="44.18535" lon="4.67407">
        <ele>181.1</ele>
        <time>2013-11-23T09:38:35.031Z</time>
      </trkpt>
      <trkpt lat="44.18529" lon="4.67407">
        <ele>181.2</ele>
        <time>2013-11-23T09:38:37.030Z</time>
      </trkpt>
      <trkpt lat="44.18525" lon="4.67407">
        <ele>181.1</ele>
        <time>2013-11-23T09:38:38.031Z</time>
      </trkpt>
      <trkpt lat="44.18518" lon="4.67407">
        <ele>181.5</ele>
        <time>2013-11-23T09:38:40.031Z</time>
      </trkpt>
      <trkpt lat="44.18511" lon="4.67406">
        <ele>181</ele>
        <time>2013-11-23T09:38:42.022Z</time>
      </trkpt>
      <trkpt lat="44.18504" lon="4.67405">
        <ele>181.1</ele>
        <time>2013-11-23T09:38:44.023Z</time>
      </trkpt>
      <trkpt lat="44.185" lon="4.67404">
        <ele>181.2</ele>
        <time>2013-11-23T09:38:45.023Z</time>
      </trkpt>
      <trkpt lat="44.18493" lon="4.67402">
        <ele>181.3</ele>
        <time>2013-11-23T09:38:47.020Z</time>
      </trkpt>
      <trkpt lat="44.18486" lon="4.67399">
        <ele>180.4</ele>
        <time>2013-11-23T09:38:49.030Z</time>
      </trkpt>
      <trkpt lat="44.18483" lon="4.67398">
        <ele>180.9</ele>
        <time>2013-11-23T09:38:50.038Z</time>
      </trkpt>
      <trkpt lat="44.18476" lon="4.67392">
        <ele>181</ele>
        <time>2013-11-23T09:38:52.052Z</time>
      </trkpt>
      <trkpt lat="44.1847" lon="4.67386">
        <ele>180.6</ele>
        <time>2013-11-23T09:38:54.036Z</time>
      </trkpt>
      <trkpt lat="44.18467" lon="4.67382">
        <ele>180.6</ele>
        <time>2013-11-23T09:38:55.036Z</time>
      </trkpt>
      <trkpt lat="44.18461" lon="4.67375">
        <ele>180.9</ele>
        <time>2013-11-23T09:38:57.036Z</time>
      </trkpt>
      <trkpt lat="44.18458" lon="4.67371">
        <ele>181</ele>
        <time>2013-11-23T09:38:58.037Z</time>
      </trkpt>
      <trkpt lat="44.18453" lon="4.67362">
        <ele>181.5</ele>
        <time>2013-11-23T09:39:00.073Z</time>
      </trkpt>
      <trkpt lat="44.1845" lon="4.67353">
        <ele>181.9</ele>
        <time>2013-11-23T09:39:02.024Z</time>
      </trkpt>
      <trkpt lat="44.18449" lon="4.67343">
        <ele>182.5</ele>
        <time>2013-11-23T09:39:04.029Z</time>
      </trkpt>
      <trkpt lat="44.18448" lon="4.67334">
        <ele>182.8</ele>
        <time>2013-11-23T09:39:06.024Z</time>
      </trkpt>
      <trkpt lat="44.18446" lon="4.67328">
        <ele>182.2</ele>
        <time>2013-11-23T09:39:07.032Z</time>
      </trkpt>
      <trkpt lat="44.18443" lon="4.67322">
        <ele>182</ele>
        <time>2013-11-23T09:39:08.035Z</time>
      </trkpt>
      <trkpt lat="44.18439" lon="4.67309">
        <ele>181.4</ele>
        <time>2013-11-23T09:39:10.027Z</time>
      </trkpt>
      <trkpt lat="44.18436" lon="4.67303">
        <ele>181.1</ele>
        <time>2013-11-23T09:39:11.028Z</time>
      </trkpt>
      <trkpt lat="44.18432" lon="4.67289">
        <ele>180.2</ele>
        <time>2013-11-23T09:39:12.999Z</time>
      </trkpt>
      <trkpt lat="44.18429" lon="4.67282">
        <ele>179.8</ele>
        <time>2013-11-23T09:39:14.026Z</time>
      </trkpt>
      <trkpt lat="44.18425" lon="4.67275">
        <ele>179.1</ele>
        <time>2013-11-23T09:39:15.033Z</time>
      </trkpt>
      <trkpt lat="44.18421" lon="4.67267">
        <ele>179.2</ele>
        <time>2013-11-23T09:39:16.033Z</time>
      </trkpt>
      <trkpt lat="44.18417" lon="4.6726">
        <ele>178.8</ele>
        <time>2013-11-23T09:39:17.033Z</time>
      </trkpt>
      <trkpt lat="44.18414" lon="4.67252">
        <ele>178.7</ele>
        <time>2013-11-23T09:39:18.035Z</time>
      </trkpt>
      <trkpt lat="44.18408" lon="4.67236">
        <ele>179.1</ele>
        <time>2013-11-23T09:39:20.032Z</time>
      </trkpt>
      <trkpt lat="44.18403" lon="4.67219">
        <ele>178.8</ele>
        <time>2013-11-23T09:39:22.028Z</time>
      </trkpt>
      <trkpt lat="44.18401" lon="4.67211">
        <ele>178.4</ele>
        <time>2013-11-23T09:39:23.029Z</time>
      </trkpt>
      <trkpt lat="44.18396" lon="4.67206">
        <ele>176.5</ele>
        <time>2013-11-23T09:39:24.029Z</time>
      </trkpt>
      <trkpt lat="44.18391" lon="4.67202">
        <ele>176.2</ele>
        <time>2013-11-23T09:39:25.032Z</time>
      </trkpt>
      <trkpt lat="44.18386" lon="4.67199">
        <ele>175.9</ele>
        <time>2013-11-23T09:39:26.032Z</time>
      </trkpt>
      <trkpt lat="44.18381" lon="4.67199">
        <ele>175.7</ele>
        <time>2013-11-23T09:39:27.033Z</time>
      </trkpt>
      <trkpt lat="44.18372" lon="4.67203">
        <ele>175.4</ele>
        <time>2013-11-23T09:39:29.027Z</time>
      </trkpt>
      <trkpt lat="44.18367" lon="4.67208">
        <ele>175.3</ele>
        <time>2013-11-23T09:39:30.031Z</time>
      </trkpt>
      <trkpt lat="44.18363" lon="4.67213">
        <ele>175.4</ele>
        <time>2013-11-23T09:39:31.032Z</time>
      </trkpt>
      <trkpt lat="44.18365" lon="4.67219">
        <ele>177</ele>
        <time>2013-11-23T09:39:32.034Z</time>
      </trkpt>
      <trkpt lat="44.18368" lon="4.67228">
        <ele>177</ele>
        <time>2013-11-23T09:39:34.031Z</time>
      </trkpt>
      <trkpt lat="44.1837" lon="4.67232">
        <ele>177.4</ele>
        <time>2013-11-23T09:39:35.052Z</time>
      </trkpt>
      <trkpt lat="44.18372" lon="4.67239">
        <ele>178.6</ele>
        <time>2013-11-23T09:39:37.030Z</time>
      </trkpt>
      <trkpt lat="44.18376" lon="4.67251">
        <ele>179.4</ele>
        <time>2013-11-23T09:39:39.030Z</time>
      </trkpt>
      <trkpt lat="44.18378" lon="4.67258">
        <ele>179.4</ele>
        <time>2013-11-23T09:39:40.076Z</time>
      </trkpt>
      <trkpt lat="44.1838" lon="4.6727">
        <ele>179.5</ele>
        <time>2013-11-23T09:39:42.032Z</time>
      </trkpt>
      <trkpt lat="44.18382" lon="4.67281">
        <ele>178.9</ele>
        <time>2013-11-23T09:39:44.033Z</time>
      </trkpt>
      <trkpt lat="44.18382" lon="4.67286">
        <ele>178.2</ele>
        <time>2013-11-23T09:39:45.036Z</time>
      </trkpt>
      <trkpt lat="44.18382" lon="4.67291">
        <ele>178</ele>
        <time>2013-11-23T09:39:46.036Z</time>
      </trkpt>
      <trkpt lat="44.18381" lon="4.67301">
        <ele>177.2</ele>
        <time>2013-11-23T09:39:48.033Z</time>
      </trkpt>
      <trkpt lat="44.18382" lon="4.67311">
        <ele>177.5</ele>
        <time>2013-11-23T09:39:50.032Z</time>
      </trkpt>
      <trkpt lat="44.18382" lon="4.67316">
        <ele>177.7</ele>
        <time>2013-11-23T09:39:51.031Z</time>
      </trkpt>
      <trkpt lat="44.18383" lon="4.67325">
        <ele>178</ele>
        <time>2013-11-23T09:39:53.045Z</time>
      </trkpt>
      <trkpt lat="44.18383" lon="4.67334">
        <ele>178.1</ele>
        <time>2013-11-23T09:39:55.031Z</time>
      </trkpt>
      <trkpt lat="44.18384" lon="4.67345">
        <ele>178.3</ele>
        <time>2013-11-23T09:39:57.034Z</time>
      </trkpt>
      <trkpt lat="44.18385" lon="4.67357">
        <ele>178.4</ele>
        <time>2013-11-23T09:39:59.031Z</time>
      </trkpt>
      <trkpt lat="44.18385" lon="4.67362">
        <ele>178.7</ele>
        <time>2013-11-23T09:40:00.142Z</time>
      </trkpt>
      <trkpt lat="44.18385" lon="4.67373">
        <ele>178.5</ele>
        <time>2013-11-23T09:40:02.031Z</time>
      </trkpt>
      <trkpt lat="44.18384" lon="4.67384">
        <ele>178.3</ele>
        <time>2013-11-23T09:40:04.031Z</time>
      </trkpt>
      <trkpt lat="44.18383" lon="4.67396">
        <ele>178.3</ele>
        <time>2013-11-23T09:40:06.028Z</time>
      </trkpt>
      <trkpt lat="44.18378" lon="4.67406">
        <ele>177.9</ele>
        <time>2013-11-23T09:40:08.031Z</time>
      </trkpt>
      <trkpt lat="44.18376" lon="4.67411">
        <ele>178.1</ele>
        <time>2013-11-23T09:40:09.031Z</time>
      </trkpt>
      <trkpt lat="44.1837" lon="4.67419">
        <ele>178.1</ele>
        <time>2013-11-23T09:40:11.033Z</time>
      </trkpt>
      <trkpt lat="44.18364" lon="4.67425">
        <ele>178.2</ele>
        <time>2013-11-23T09:40:13.032Z</time>
      </trkpt>
      <trkpt lat="44.18357" lon="4.6743">
        <ele>179</ele>
        <time>2013-11-23T09:40:16.031Z</time>
      </trkpt>
      <trkpt lat="44.18355" lon="4.6743">
        <ele>179</ele>
        <time>2013-11-23T09:40:17.032Z</time>
      </trkpt>
      <trkpt lat="44.18348" lon="4.67432">
        <ele>179.8</ele>
        <time>2013-11-23T09:40:20.033Z</time>
      </trkpt>
      <trkpt lat="44.18345" lon="4.67433">
        <ele>179.8</ele>
        <time>2013-11-23T09:40:21.033Z</time>
      </trkpt>
      <trkpt lat="44.18338" lon="4.67438">
        <ele>180.4</ele>
        <time>2013-11-23T09:40:24.031Z</time>
      </trkpt>
      <trkpt lat="44.18336" lon="4.67441">
        <ele>180.6</ele>
        <time>2013-11-23T09:40:25.031Z</time>
      </trkpt>
      <trkpt lat="44.1833" lon="4.67448">
        <ele>180.7</ele>
        <time>2013-11-23T09:40:28.032Z</time>
      </trkpt>
      <trkpt lat="44.18325" lon="4.67453">
        <ele>180.6</ele>
        <time>2013-11-23T09:40:30.028Z</time>
      </trkpt>
      <trkpt lat="44.18318" lon="4.67455">
        <ele>181.4</ele>
        <time>2013-11-23T09:40:32.036Z</time>
      </trkpt>
      <trkpt lat="44.18312" lon="4.67455">
        <ele>181.6</ele>
        <time>2013-11-23T09:40:34.031Z</time>
      </trkpt>
      <trkpt lat="44.18309" lon="4.67454">
        <ele>181.6</ele>
        <time>2013-11-23T09:40:35.033Z</time>
      </trkpt>
      <trkpt lat="44.18303" lon="4.67449">
        <ele>181.3</ele>
        <time>2013-11-23T09:40:37.032Z</time>
      </trkpt>
      <trkpt lat="44.18298" lon="4.67443">
        <ele>181.5</ele>
        <time>2013-11-23T09:40:39.029Z</time>
      </trkpt>
      <trkpt lat="44.18296" lon="4.6744">
        <ele>181.9</ele>
        <time>2013-11-23T09:40:40.031Z</time>
      </trkpt>
      <trkpt lat="44.1829" lon="4.67435">
        <ele>182.3</ele>
        <time>2013-11-23T09:40:42.031Z</time>
      </trkpt>
      <trkpt lat="44.18287" lon="4.67433">
        <ele>182.4</ele>
        <time>2013-11-23T09:40:43.035Z</time>
      </trkpt>
      <trkpt lat="44.18279" lon="4.67428">
        <ele>184</ele>
        <time>2013-11-23T09:40:46.027Z</time>
      </trkpt>
      <trkpt lat="44.18274" lon="4.67426">
        <ele>184.4</ele>
        <time>2013-11-23T09:40:48.031Z</time>
      </trkpt>
      <trkpt lat="44.18266" lon="4.67426">
        <ele>184.6</ele>
        <time>2013-11-23T09:40:51.038Z</time>
      </trkpt>
      <trkpt lat="44.18261" lon="4.67427">
        <ele>185</ele>
        <time>2013-11-23T09:40:53.038Z</time>
      </trkpt>
      <trkpt lat="44.18254" lon="4.67427">
        <ele>186.3</ele>
        <time>2013-11-23T09:40:56.036Z</time>
      </trkpt>
      <trkpt lat="44.18251" lon="4.67427">
        <ele>186.3</ele>
        <time>2013-11-23T09:40:52.443Z</time>
      </trkpt>
      <trkpt lat="44.18245" lon="4.67425">
        <ele>186.7</ele>
        <time>2013-11-23T09:40:54.443Z</time>
      </trkpt>
      <trkpt lat="44.1824" lon="4.67422">
        <ele>186.5</ele>
        <time>2013-11-23T09:40:56.438Z</time>
      </trkpt>
      <trkpt lat="44.18234" lon="4.67418">
        <ele>186.5</ele>
        <time>2013-11-23T09:40:58.436Z</time>
      </trkpt>
      <trkpt lat="44.18228" lon="4.67414">
        <ele>186.3</ele>
        <time>2013-11-23T09:41:00.426Z</time>
      </trkpt>
      <trkpt lat="44.18221" lon="4.6741">
        <ele>186.5</ele>
        <time>2013-11-23T09:41:02.432Z</time>
      </trkpt>
      <trkpt lat="44.18215" lon="4.67407">
        <ele>186.8</ele>
        <time>2013-11-23T09:41:04.434Z</time>
      </trkpt>
      <trkpt lat="44.18209" lon="4.67404">
        <ele>186.7</ele>
        <time>2013-11-23T09:41:06.443Z</time>
      </trkpt>
      <trkpt lat="44.18202" lon="4.67401">
        <ele>187.1</ele>
        <time>2013-11-23T09:41:12.903Z</time>
      </trkpt>
      <trkpt lat="44.18194" lon="4.67397">
        <ele>187.2</ele>
        <time>2013-11-23T09:41:15.892Z</time>
      </trkpt>
      <trkpt lat="44.18192" lon="4.67395">
        <ele>187.5</ele>
        <time>2013-11-23T09:41:16.896Z</time>
      </trkpt>
      <trkpt lat="44.18187" lon="4.67392">
        <ele>188</ele>
        <time>2013-11-23T09:41:18.892Z</time>
      </trkpt>
      <trkpt lat="44.18183" lon="4.67389">
        <ele>189.3</ele>
        <time>2013-11-23T09:41:20.892Z</time>
      </trkpt>
      <trkpt lat="44.18175" lon="4.67385">
        <ele>190.1</ele>
        <time>2013-11-23T09:41:23.891Z</time>
      </trkpt>
      <trkpt lat="44.1817" lon="4.67381">
        <ele>190.4</ele>
        <time>2013-11-23T09:41:25.887Z</time>
      </trkpt>
      <trkpt lat="44.18163" lon="4.67375">
        <ele>192</ele>
        <time>2013-11-23T09:41:28.891Z</time>
      </trkpt>
      <trkpt lat="44.18161" lon="4.67373">
        <ele>192.6</ele>
        <time>2013-11-23T09:41:29.891Z</time>
      </trkpt>
      <trkpt lat="44.18154" lon="4.67367">
        <ele>193.6</ele>
        <time>2013-11-23T09:41:32.887Z</time>
      </trkpt>
      <trkpt lat="44.18151" lon="4.67364">
        <ele>193.5</ele>
        <time>2013-11-23T09:41:33.917Z</time>
      </trkpt>
      <trkpt lat="44.18144" lon="4.67361">
        <ele>191.2</ele>
        <time>2013-11-23T09:41:35.886Z</time>
      </trkpt>
      <trkpt lat="44.18141" lon="4.67362">
        <ele>191.4</ele>
        <time>2013-11-23T09:41:36.886Z</time>
      </trkpt>
      <trkpt lat="44.18134" lon="4.67369">
        <ele>192.3</ele>
        <time>2013-11-23T09:41:39.885Z</time>
      </trkpt>
      <trkpt lat="44.18133" lon="4.67371">
        <ele>192.8</ele>
        <time>2013-11-23T09:41:40.901Z</time>
      </trkpt>
      <trkpt lat="44.18133" lon="4.67377">
        <ele>193.8</ele>
        <time>2013-11-23T09:41:42.892Z</time>
      </trkpt>
      <trkpt lat="44.18136" lon="4.67384">
        <ele>195</ele>
        <time>2013-11-23T09:41:44.890Z</time>
      </trkpt>
      <trkpt lat="44.18139" lon="4.67394">
        <ele>195.2</ele>
        <time>2013-11-23T09:41:47.890Z</time>
      </trkpt>
      <trkpt lat="44.18141" lon="4.674">
        <ele>195.3</ele>
        <time>2013-11-23T09:41:48.891Z</time>
      </trkpt>
      <trkpt lat="44.18143" lon="4.67405">
        <ele>195.5</ele>
        <time>2013-11-23T09:41:49.891Z</time>
      </trkpt>
      <trkpt lat="44.18144" lon="4.67412">
        <ele>196.5</ele>
        <time>2013-11-23T09:41:51.891Z</time>
      </trkpt>
      <trkpt lat="44.18147" lon="4.67421">
        <ele>196.8</ele>
        <time>2013-11-23T09:41:53.885Z</time>
      </trkpt>
      <trkpt lat="44.18148" lon="4.67424">
        <ele>197</ele>
        <time>2013-11-23T09:41:54.897Z</time>
      </trkpt>
      <trkpt lat="44.18149" lon="4.67436">
        <ele>196.6</ele>
        <time>2013-11-23T09:41:57.884Z</time>
      </trkpt>
      <trkpt lat="44.18149" lon="4.67442">
        <ele>195.3</ele>
        <time>2013-11-23T09:41:58.887Z</time>
      </trkpt>
      <trkpt lat="44.18147" lon="4.67452">
        <ele>194.5</ele>
        <time>2013-11-23T09:42:00.882Z</time>
      </trkpt>
      <trkpt lat="44.18146" lon="4.67456">
        <ele>194.3</ele>
        <time>2013-11-23T09:42:01.886Z</time>
      </trkpt>
      <trkpt lat="44.18143" lon="4.67468">
        <ele>193.8</ele>
        <time>2013-11-23T09:42:04.886Z</time>
      </trkpt>
      <trkpt lat="44.18143" lon="4.67472">
        <ele>193.9</ele>
        <time>2013-11-23T09:42:05.887Z</time>
      </trkpt>
      <trkpt lat="44.1815" lon="4.6748">
        <ele>195.7</ele>
        <time>2013-11-23T09:42:09.887Z</time>
      </trkpt>
      <trkpt lat="44.1815" lon="4.67479">
        <ele>195.7</ele>
        <time>2013-11-23T09:42:09.999Z</time>
      </trkpt>
      <trkpt lat="44.18158" lon="4.67483">
        <ele>197.2</ele>
        <time>2013-11-23T09:42:12.860Z</time>
      </trkpt>
      <trkpt lat="44.1816" lon="4.67484">
        <ele>197.4</ele>
        <time>2013-11-23T09:42:13.885Z</time>
      </trkpt>
      <trkpt lat="44.18168" lon="4.67486">
        <ele>198.2</ele>
        <time>2013-11-23T09:42:18.092Z</time>
      </trkpt>
      <trkpt lat="44.18175" lon="4.67491">
        <ele>199.8</ele>
        <time>2013-11-23T09:42:20.895Z</time>
      </trkpt>
      <trkpt lat="44.18178" lon="4.67493">
        <ele>199.8</ele>
        <time>2013-11-23T09:42:21.897Z</time>
      </trkpt>
      <trkpt lat="44.18185" lon="4.67498">
        <ele>199.8</ele>
        <time>2013-11-23T09:42:23.888Z</time>
      </trkpt>
      <trkpt lat="44.1819" lon="4.67506">
        <ele>200.1</ele>
        <time>2013-11-23T09:42:25.886Z</time>
      </trkpt>
      <trkpt lat="44.18192" lon="4.67509">
        <ele>200.1</ele>
        <time>2013-11-23T09:42:26.888Z</time>
      </trkpt>
      <trkpt lat="44.18197" lon="4.67516">
        <ele>199</ele>
        <time>2013-11-23T09:42:28.894Z</time>
      </trkpt>
      <trkpt lat="44.18202" lon="4.67523">
        <ele>198.9</ele>
        <time>2013-11-23T09:42:30.887Z</time>
      </trkpt>
      <trkpt lat="44.18205" lon="4.67526">
        <ele>198.9</ele>
        <time>2013-11-23T09:42:31.891Z</time>
      </trkpt>
      <trkpt lat="44.18207" lon="4.67537">
        <ele>197.7</ele>
        <time>2013-11-23T09:42:33.889Z</time>
      </trkpt>
      <trkpt lat="44.18205" lon="4.67547">
        <ele>197.8</ele>
        <time>2013-11-23T09:42:35.887Z</time>
      </trkpt>
      <trkpt lat="44.18204" lon="4.67551">
        <ele>196.6</ele>
        <time>2013-11-23T09:42:36.888Z</time>
      </trkpt>
      <trkpt lat="44.18198" lon="4.67558">
        <ele>194.4</ele>
        <time>2013-11-23T09:42:38.890Z</time>
      </trkpt>
      <trkpt lat="44.18193" lon="4.6756">
        <ele>194.1</ele>
        <time>2013-11-23T09:42:40.891Z</time>
      </trkpt>
      <trkpt lat="44.1819" lon="4.67562">
        <ele>193.4</ele>
        <time>2013-11-23T09:42:41.892Z</time>
      </trkpt>
      <trkpt lat="44.18184" lon="4.67564">
        <ele>193.7</ele>
        <time>2013-11-23T09:42:43.888Z</time>
      </trkpt>
      <trkpt lat="44.18178" lon="4.67566">
        <ele>193.9</ele>
        <time>2013-11-23T09:42:45.890Z</time>
      </trkpt>
      <trkpt lat="44.18173" lon="4.67568">
        <ele>194.2</ele>
        <time>2013-11-23T09:42:47.890Z</time>
      </trkpt>
      <trkpt lat="44.18165" lon="4.67572">
        <ele>194.3</ele>
        <time>2013-11-23T09:42:50.888Z</time>
      </trkpt>
      <trkpt lat="44.1816" lon="4.67575">
        <ele>194.5</ele>
        <time>2013-11-23T09:42:52.888Z</time>
      </trkpt>
      <trkpt lat="44.18154" lon="4.67577">
        <ele>194.8</ele>
        <time>2013-11-23T09:42:54.893Z</time>
      </trkpt>
      <trkpt lat="44.18149" lon="4.6758">
        <ele>194.8</ele>
        <time>2013-11-23T09:42:56.885Z</time>
      </trkpt>
      <trkpt lat="44.1814" lon="4.67584">
        <ele>195.3</ele>
        <time>2013-11-23T09:42:59.889Z</time>
      </trkpt>
      <trkpt lat="44.18134" lon="4.67586">
        <ele>195.4</ele>
        <time>2013-11-23T09:43:01.889Z</time>
      </trkpt>
      <trkpt lat="44.18128" lon="4.67588">
        <ele>194.9</ele>
        <time>2013-11-23T09:43:03.890Z</time>
      </trkpt>
      <trkpt lat="44.1812" lon="4.6759">
        <ele>195</ele>
        <time>2013-11-23T09:43:05.887Z</time>
      </trkpt>
      <trkpt lat="44.18114" lon="4.67593">
        <ele>195</ele>
        <time>2013-11-23T09:43:07.884Z</time>
      </trkpt>
      <trkpt lat="44.1811" lon="4.67594">
        <ele>195.1</ele>
        <time>2013-11-23T09:43:08.886Z</time>
      </trkpt>
      <trkpt lat="44.18106" lon="4.67595">
        <ele>195.2</ele>
        <time>2013-11-23T09:43:09.889Z</time>
      </trkpt>
      <trkpt lat="44.18099" lon="4.67597">
        <ele>196.3</ele>
        <time>2013-11-23T09:43:11.886Z</time>
      </trkpt>
      <trkpt lat="44.18096" lon="4.67598">
        <ele>196.1</ele>
        <time>2013-11-23T09:43:12.887Z</time>
      </trkpt>
      <trkpt lat="44.18089" lon="4.676">
        <ele>195.6</ele>
        <time>2013-11-23T09:43:14.886Z</time>
      </trkpt>
      <trkpt lat="44.18086" lon="4.67601">
        <ele>195.8</ele>
        <time>2013-11-23T09:43:15.887Z</time>
      </trkpt>
      <trkpt lat="44.1808" lon="4.67604">
        <ele>195.6</ele>
        <time>2013-11-23T09:43:17.888Z</time>
      </trkpt>
      <trkpt lat="44.18077" lon="4.67604">
        <ele>195.5</ele>
        <time>2013-11-23T09:43:18.889Z</time>
      </trkpt>
      <trkpt lat="44.18071" lon="4.67606">
        <ele>195.5</ele>
        <time>2013-11-23T09:43:20.886Z</time>
      </trkpt>
      <trkpt lat="44.18067" lon="4.67607">
        <ele>195.8</ele>
        <time>2013-11-23T09:43:21.888Z</time>
      </trkpt>
      <trkpt lat="44.18061" lon="4.6761">
        <ele>196</ele>
        <time>2013-11-23T09:43:23.853Z</time>
      </trkpt>
      <trkpt lat="44.18055" lon="4.67612">
        <ele>196</ele>
        <time>2013-11-23T09:43:25.883Z</time>
      </trkpt>
      <trkpt lat="44.18052" lon="4.67613">
        <ele>196.2</ele>
        <time>2013-11-23T09:43:26.887Z</time>
      </trkpt>
      <trkpt lat="44.18046" lon="4.67616">
        <ele>196.7</ele>
        <time>2013-11-23T09:43:28.887Z</time>
      </trkpt>
      <trkpt lat="44.18043" lon="4.67618">
        <ele>196.9</ele>
        <time>2013-11-23T09:43:29.892Z</time>
      </trkpt>
      <trkpt lat="44.18037" lon="4.67619">
        <ele>197.6</ele>
        <time>2013-11-23T09:43:31.901Z</time>
      </trkpt>
      <trkpt lat="44.1803" lon="4.67621">
        <ele>197.8</ele>
        <time>2013-11-23T09:43:33.889Z</time>
      </trkpt>
      <trkpt lat="44.18022" lon="4.67623">
        <ele>197.7</ele>
        <time>2013-11-23T09:43:35.886Z</time>
      </trkpt>
      <trkpt lat="44.18018" lon="4.67624">
        <ele>198.2</ele>
        <time>2013-11-23T09:43:36.892Z</time>
      </trkpt>
      <trkpt lat="44.18011" lon="4.67625">
        <ele>198.7</ele>
        <time>2013-11-23T09:43:38.885Z</time>
      </trkpt>
      <trkpt lat="44.18008" lon="4.67625">
        <ele>198.7</ele>
        <time>2013-11-23T09:43:39.888Z</time>
      </trkpt>
      <trkpt lat="44.18001" lon="4.67627">
        <ele>198.8</ele>
        <time>2013-11-23T09:43:41.886Z</time>
      </trkpt>
      <trkpt lat="44.17994" lon="4.67629">
        <ele>199</ele>
        <time>2013-11-23T09:43:43.881Z</time>
      </trkpt>
      <trkpt lat="44.1799" lon="4.6763">
        <ele>199.1</ele>
        <time>2013-11-23T09:43:44.886Z</time>
      </trkpt>
      <trkpt lat="44.17983" lon="4.67632">
        <ele>199.5</ele>
        <time>2013-11-23T09:43:46.881Z</time>
      </trkpt>
      <trkpt lat="44.17976" lon="4.67635">
        <ele>199.6</ele>
        <time>2013-11-23T09:43:48.887Z</time>
      </trkpt>
      <trkpt lat="44.17973" lon="4.67636">
        <ele>199.7</ele>
        <time>2013-11-23T09:43:49.887Z</time>
      </trkpt>
      <trkpt lat="44.17969" lon="4.67637">
        <ele>199.7</ele>
        <time>2013-11-23T09:43:50.887Z</time>
      </trkpt>
      <trkpt lat="44.17962" lon="4.67639">
        <ele>200.4</ele>
        <time>2013-11-23T09:43:52.887Z</time>
      </trkpt>
      <trkpt lat="44.17955" lon="4.6764">
        <ele>201.1</ele>
        <time>2013-11-23T09:43:54.888Z</time>
      </trkpt>
      <trkpt lat="44.17952" lon="4.67641">
        <ele>201.4</ele>
        <time>2013-11-23T09:43:55.891Z</time>
      </trkpt>
      <trkpt lat="44.17944" lon="4.67642">
        <ele>202.2</ele>
        <time>2013-11-23T09:43:58.887Z</time>
      </trkpt>
      <trkpt lat="44.17938" lon="4.67643">
        <ele>202.7</ele>
        <time>2013-11-23T09:44:00.867Z</time>
      </trkpt>
      <trkpt lat="44.1793" lon="4.67645">
        <ele>203.2</ele>
        <time>2013-11-23T09:44:03.886Z</time>
      </trkpt>
      <trkpt lat="44.17927" lon="4.67646">
        <ele>203.3</ele>
        <time>2013-11-23T09:44:04.887Z</time>
      </trkpt>
      <trkpt lat="44.17918" lon="4.67645">
        <ele>204</ele>
        <time>2013-11-23T09:44:07.887Z</time>
      </trkpt>
      <trkpt lat="44.17915" lon="4.67645">
        <ele>204</ele>
        <time>2013-11-23T09:44:08.887Z</time>
      </trkpt>
      <trkpt lat="44.17912" lon="4.67643">
        <ele>203.8</ele>
        <time>2013-11-23T09:44:09.889Z</time>
      </trkpt>
      <trkpt lat="44.17905" lon="4.67638">
        <ele>203.7</ele>
        <time>2013-11-23T09:44:11.886Z</time>
      </trkpt>
      <trkpt lat="44.17898" lon="4.67634">
        <ele>203.1</ele>
        <time>2013-11-23T09:44:13.887Z</time>
      </trkpt>
      <trkpt lat="44.17895" lon="4.67634">
        <ele>202.9</ele>
        <time>2013-11-23T09:44:14.886Z</time>
      </trkpt>
      <trkpt lat="44.1789" lon="4.67639">
        <ele>203.7</ele>
        <time>2013-11-23T09:44:16.886Z</time>
      </trkpt>
      <trkpt lat="44.17888" lon="4.67644">
        <ele>203.9</ele>
        <time>2013-11-23T09:44:17.886Z</time>
      </trkpt>
      <trkpt lat="44.17887" lon="4.67649">
        <ele>204.7</ele>
        <time>2013-11-23T09:44:18.887Z</time>
      </trkpt>
      <trkpt lat="44.17883" lon="4.67657">
        <ele>205</ele>
        <time>2013-11-23T09:44:20.881Z</time>
      </trkpt>
      <trkpt lat="44.17878" lon="4.67662">
        <ele>205.6</ele>
        <time>2013-11-23T09:44:22.887Z</time>
      </trkpt>
      <trkpt lat="44.17874" lon="4.67663">
        <ele>205.7</ele>
        <time>2013-11-23T09:44:23.887Z</time>
      </trkpt>
      <trkpt lat="44.17868" lon="4.67665">
        <ele>205.9</ele>
        <time>2013-11-23T09:44:25.882Z</time>
      </trkpt>
      <trkpt lat="44.17865" lon="4.67666">
        <ele>205.9</ele>
        <time>2013-11-23T09:44:26.917Z</time>
      </trkpt>
      <trkpt lat="44.17858" lon="4.67668">
        <ele>206.5</ele>
        <time>2013-11-23T09:44:28.887Z</time>
      </trkpt>
      <trkpt lat="44.17851" lon="4.6767">
        <ele>206.7</ele>
        <time>2013-11-23T09:44:30.887Z</time>
      </trkpt>
      <trkpt lat="44.17844" lon="4.67672">
        <ele>206.5</ele>
        <time>2013-11-23T09:44:32.887Z</time>
      </trkpt>
      <trkpt lat="44.17837" lon="4.6767">
        <ele>207</ele>
        <time>2013-11-23T09:44:34.883Z</time>
      </trkpt>
      <trkpt lat="44.17831" lon="4.67664">
        <ele>207.4</ele>
        <time>2013-11-23T09:44:36.887Z</time>
      </trkpt>
      <trkpt lat="44.17829" lon="4.67661">
        <ele>207.7</ele>
        <time>2013-11-23T09:44:37.895Z</time>
      </trkpt>
      <trkpt lat="44.17823" lon="4.67652">
        <ele>207.9</ele>
        <time>2013-11-23T09:44:40.887Z</time>
      </trkpt>
      <trkpt lat="44.1782" lon="4.6765">
        <ele>207.8</ele>
        <time>2013-11-23T09:44:41.895Z</time>
      </trkpt>
      <trkpt lat="44.17812" lon="4.67648">
        <ele>208.2</ele>
        <time>2013-11-23T09:44:44.879Z</time>
      </trkpt>
      <trkpt lat="44.1781" lon="4.6765">
        <ele>208.7</ele>
        <time>2013-11-23T09:44:45.882Z</time>
      </trkpt>
      <trkpt lat="44.17807" lon="4.67662">
        <ele>209.6</ele>
        <time>2013-11-23T09:44:50.014Z</time>
      </trkpt>
      <trkpt lat="44.17806" lon="4.6767">
        <ele>209.3</ele>
        <time>2013-11-23T09:44:52.887Z</time>
      </trkpt>
      <trkpt lat="44.17806" lon="4.67682">
        <ele>208.5</ele>
        <time>2013-11-23T09:44:57.002Z</time>
      </trkpt>
      <trkpt lat="44.17804" lon="4.67691">
        <ele>208.2</ele>
        <time>2013-11-23T09:44:59.887Z</time>
      </trkpt>
      <trkpt lat="44.17798" lon="4.677">
        <ele>208.2</ele>
        <time>2013-11-23T09:45:02.887Z</time>
      </trkpt>
      <trkpt lat="44.17795" lon="4.67702">
        <ele>208.1</ele>
        <time>2013-11-23T09:45:03.888Z</time>
      </trkpt>
      <trkpt lat="44.17788" lon="4.67707">
        <ele>208.5</ele>
        <time>2013-11-23T09:45:06.887Z</time>
      </trkpt>
      <trkpt lat="44.17786" lon="4.67707">
        <ele>208.8</ele>
        <time>2013-11-23T09:45:07.887Z</time>
      </trkpt>
      <trkpt lat="44.17778" lon="4.6771">
        <ele>208.8</ele>
        <time>2013-11-23T09:45:10.886Z</time>
      </trkpt>
      <trkpt lat="44.17776" lon="4.67711">
        <ele>208.8</ele>
        <time>2013-11-23T09:45:11.887Z</time>
      </trkpt>
      <trkpt lat="44.17767" lon="4.67713">
        <ele>209.1</ele>
        <time>2013-11-23T09:45:14.887Z</time>
      </trkpt>
      <trkpt lat="44.17762" lon="4.67715">
        <ele>209.4</ele>
        <time>2013-11-23T09:45:16.887Z</time>
      </trkpt>
      <trkpt lat="44.17753" lon="4.67717">
        <ele>209.6</ele>
        <time>2013-11-23T09:45:19.888Z</time>
      </trkpt>
      <trkpt lat="44.17747" lon="4.67719">
        <ele>209.9</ele>
        <time>2013-11-23T09:45:21.887Z</time>
      </trkpt>
      <trkpt lat="44.17739" lon="4.6772">
        <ele>210.2</ele>
        <time>2013-11-23T09:45:24.886Z</time>
      </trkpt>
      <trkpt lat="44.17736" lon="4.67721">
        <ele>210.3</ele>
        <time>2013-11-23T09:45:25.887Z</time>
      </trkpt>
      <trkpt lat="44.17727" lon="4.67722">
        <ele>210.4</ele>
        <time>2013-11-23T09:45:28.882Z</time>
      </trkpt>
      <trkpt lat="44.17724" lon="4.67723">
        <ele>210.4</ele>
        <time>2013-11-23T09:45:29.886Z</time>
      </trkpt>
      <trkpt lat="44.17718" lon="4.67724">
        <ele>210.3</ele>
        <time>2013-11-23T09:45:31.992Z</time>
      </trkpt>
      <trkpt lat="44.17713" lon="4.67726">
        <ele>210.3</ele>
        <time>2013-11-23T09:45:33.892Z</time>
      </trkpt>
      <trkpt lat="44.17704" lon="4.67728">
        <ele>210</ele>
        <time>2013-11-23T09:45:36.890Z</time>
      </trkpt>
      <trkpt lat="44.17698" lon="4.67731">
        <ele>209.8</ele>
        <time>2013-11-23T09:45:38.887Z</time>
      </trkpt>
      <trkpt lat="44.17694" lon="4.67732">
        <ele>209.8</ele>
        <time>2013-11-23T09:45:39.889Z</time>
      </trkpt>
      <trkpt lat="44.17688" lon="4.67732">
        <ele>209.6</ele>
        <time>2013-11-23T09:45:41.890Z</time>
      </trkpt>
      <trkpt lat="44.17684" lon="4.67732">
        <ele>210</ele>
        <time>2013-11-23T09:45:42.890Z</time>
      </trkpt>
      <trkpt lat="44.17678" lon="4.67732">
        <ele>210</ele>
        <time>2013-11-23T09:45:44.884Z</time>
      </trkpt>
      <trkpt lat="44.17672" lon="4.67734">
        <ele>210.3</ele>
        <time>2013-11-23T09:45:46.887Z</time>
      </trkpt>
      <trkpt lat="44.17666" lon="4.67737">
        <ele>210.3</ele>
        <time>2013-11-23T09:45:48.887Z</time>
      </trkpt>
      <trkpt lat="44.1766" lon="4.6774">
        <ele>210.2</ele>
        <time>2013-11-23T09:45:50.884Z</time>
      </trkpt>
      <trkpt lat="44.17657" lon="4.6774">
        <ele>210.3</ele>
        <time>2013-11-23T09:45:51.888Z</time>
      </trkpt>
      <trkpt lat="44.1765" lon="4.67742">
        <ele>210.4</ele>
        <time>2013-11-23T09:45:53.885Z</time>
      </trkpt>
      <trkpt lat="44.17647" lon="4.67743">
        <ele>210.3</ele>
        <time>2013-11-23T09:45:54.891Z</time>
      </trkpt>
      <trkpt lat="44.1764" lon="4.67745">
        <ele>210.6</ele>
        <time>2013-11-23T09:45:56.884Z</time>
      </trkpt>
      <trkpt lat="44.17637" lon="4.67746">
        <ele>210.9</ele>
        <time>2013-11-23T09:45:57.884Z</time>
      </trkpt>
      <trkpt lat="44.1763" lon="4.67748">
        <ele>211</ele>
        <time>2013-11-23T09:45:59.889Z</time>
      </trkpt>
      <trkpt lat="44.17623" lon="4.67749">
        <ele>211.3</ele>
        <time>2013-11-23T09:46:01.884Z</time>
      </trkpt>
      <trkpt lat="44.17615" lon="4.67752">
        <ele>211.8</ele>
        <time>2013-11-23T09:46:04.885Z</time>
      </trkpt>
      <trkpt lat="44.17613" lon="4.67752">
        <ele>212</ele>
        <time>2013-11-23T09:46:05.887Z</time>
      </trkpt>
      <trkpt lat="44.17606" lon="4.67754">
        <ele>212.7</ele>
        <time>2013-11-23T09:46:09.962Z</time>
      </trkpt>
      <trkpt lat="44.176" lon="4.67754">
        <ele>213.5</ele>
        <time>2013-11-23T09:46:12.887Z</time>
      </trkpt>
      <trkpt lat="44.17593" lon="4.67755">
        <ele>214.4</ele>
        <time>2013-11-23T09:46:16.980Z</time>
      </trkpt>
      <trkpt lat="44.17588" lon="4.67755">
        <ele>215.1</ele>
        <time>2013-11-23T09:46:19.884Z</time>
      </trkpt>
      <trkpt lat="44.17582" lon="4.67755">
        <ele>215.9</ele>
        <time>2013-11-23T09:46:24.004Z</time>
      </trkpt>
      <trkpt lat="44.17578" lon="4.67755">
        <ele>216.7</ele>
        <time>2013-11-23T09:46:26.885Z</time>
      </trkpt>
      <trkpt lat="44.17569" lon="4.67755">
        <ele>217.8</ele>
        <time>2013-11-23T09:46:32.023Z</time>
      </trkpt>
      <trkpt lat="44.17565" lon="4.67755">
        <ele>218.2</ele>
        <time>2013-11-23T09:46:34.887Z</time>
      </trkpt>
      <trkpt lat="44.17557" lon="4.67756">
        <ele>219.3</ele>
        <time>2013-11-23T09:46:40.000Z</time>
      </trkpt>
      <trkpt lat="44.17552" lon="4.67756">
        <ele>219.9</ele>
        <time>2013-11-23T09:46:42.868Z</time>
      </trkpt>
      <trkpt lat="44.17546" lon="4.67756">
        <ele>221.1</ele>
        <time>2013-11-23T09:46:46.999Z</time>
      </trkpt>
      <trkpt lat="44.17542" lon="4.67755">
        <ele>221.6</ele>
        <time>2013-11-23T09:46:49.884Z</time>
      </trkpt>
      <trkpt lat="44.17533" lon="4.67754">
        <ele>222.1</ele>
        <time>2013-11-23T09:46:54.998Z</time>
      </trkpt>
      <trkpt lat="44.1753" lon="4.67753">
        <ele>223.1</ele>
        <time>2013-11-23T09:46:56.885Z</time>
      </trkpt>
      <trkpt lat="44.17522" lon="4.67751">
        <ele>224.2</ele>
        <time>2013-11-23T09:47:01.997Z</time>
      </trkpt>
      <trkpt lat="44.17517" lon="4.6775">
        <ele>224.5</ele>
        <time>2013-11-23T09:47:04.884Z</time>
      </trkpt>
      <trkpt lat="44.17511" lon="4.67749">
        <ele>225.7</ele>
        <time>2013-11-23T09:47:08.999Z</time>
      </trkpt>
      <trkpt lat="44.17506" lon="4.67747">
        <ele>226.5</ele>
        <time>2013-11-23T09:47:11.886Z</time>
      </trkpt>
      <trkpt lat="44.17498" lon="4.67744">
        <ele>227.5</ele>
        <time>2013-11-23T09:47:17.000Z</time>
      </trkpt>
      <trkpt lat="44.17493" lon="4.67741">
        <ele>228</ele>
        <time>2013-11-23T09:47:19.893Z</time>
      </trkpt>
      <trkpt lat="44.17485" lon="4.67737">
        <ele>228.6</ele>
        <time>2013-11-23T09:47:25.147Z</time>
      </trkpt>
      <trkpt lat="44.17481" lon="4.67735">
        <ele>228.8</ele>
        <time>2013-11-23T09:47:27.888Z</time>
      </trkpt>
      <trkpt lat="44.17474" lon="4.67732">
        <ele>229.3</ele>
        <time>2013-11-23T09:47:33.105Z</time>
      </trkpt>
      <trkpt lat="44.1747" lon="4.67729">
        <ele>228.9</ele>
        <time>2013-11-23T09:47:35.889Z</time>
      </trkpt>
      <trkpt lat="44.17462" lon="4.67724">
        <ele>228.2</ele>
        <time>2013-11-23T09:47:38.884Z</time>
      </trkpt>
      <trkpt lat="44.17458" lon="4.67722">
        <ele>227.6</ele>
        <time>2013-11-23T09:47:39.884Z</time>
      </trkpt>
      <trkpt lat="44.17451" lon="4.67715">
        <ele>226.9</ele>
        <time>2013-11-23T09:47:41.884Z</time>
      </trkpt>
      <trkpt lat="44.17447" lon="4.67711">
        <ele>226.7</ele>
        <time>2013-11-23T09:47:42.886Z</time>
      </trkpt>
      <trkpt lat="44.17442" lon="4.67708">
        <ele>226.4</ele>
        <time>2013-11-23T09:47:43.887Z</time>
      </trkpt>
      <trkpt lat="44.17437" lon="4.67704">
        <ele>226</ele>
        <time>2013-11-23T09:47:44.887Z</time>
      </trkpt>
      <trkpt lat="44.17427" lon="4.67697">
        <ele>225.1</ele>
        <time>2013-11-23T09:47:46.885Z</time>
      </trkpt>
      <trkpt lat="44.17416" lon="4.67691">
        <ele>224.3</ele>
        <time>2013-11-23T09:47:48.884Z</time>
      </trkpt>
      <trkpt lat="44.17411" lon="4.67687">
        <ele>223.7</ele>
        <time>2013-11-23T09:47:49.885Z</time>
      </trkpt>
      <trkpt lat="44.17406" lon="4.67682">
        <ele>222.8</ele>
        <time>2013-11-23T09:47:50.887Z</time>
      </trkpt>
      <trkpt lat="44.17398" lon="4.67668">
        <ele>222.5</ele>
        <time>2013-11-23T09:47:52.879Z</time>
      </trkpt>
      <trkpt lat="44.17394" lon="4.67661">
        <ele>222</ele>
        <time>2013-11-23T09:47:53.879Z</time>
      </trkpt>
      <trkpt lat="44.1739" lon="4.67655">
        <ele>221.5</ele>
        <time>2013-11-23T09:47:54.888Z</time>
      </trkpt>
      <trkpt lat="44.17382" lon="4.67644">
        <ele>221.3</ele>
        <time>2013-11-23T09:47:56.884Z</time>
      </trkpt>
      <trkpt lat="44.17372" lon="4.67632">
        <ele>220.8</ele>
        <time>2013-11-23T09:47:58.884Z</time>
      </trkpt>
      <trkpt lat="44.17366" lon="4.67627">
        <ele>220.2</ele>
        <time>2013-11-23T09:47:59.895Z</time>
      </trkpt>
      <trkpt lat="44.17355" lon="4.67617">
        <ele>219.5</ele>
        <time>2013-11-23T09:48:01.885Z</time>
      </trkpt>
      <trkpt lat="44.17345" lon="4.67603">
        <ele>218.9</ele>
        <time>2013-11-23T09:48:03.888Z</time>
      </trkpt>
      <trkpt lat="44.17343" lon="4.67594">
        <ele>219.4</ele>
        <time>2013-11-23T09:48:04.889Z</time>
      </trkpt>
      <trkpt lat="44.17342" lon="4.67585">
        <ele>219.6</ele>
        <time>2013-11-23T09:48:05.889Z</time>
      </trkpt>
      <trkpt lat="44.17341" lon="4.67568">
        <ele>219.9</ele>
        <time>2013-11-23T09:48:07.887Z</time>
      </trkpt>
      <trkpt lat="44.17342" lon="4.67553">
        <ele>219.4</ele>
        <time>2013-11-23T09:48:09.892Z</time>
      </trkpt>
      <trkpt lat="44.17343" lon="4.67538">
        <ele>218.2</ele>
        <time>2013-11-23T09:48:11.936Z</time>
      </trkpt>
      <trkpt lat="44.17345" lon="4.67521">
        <ele>218.1</ele>
        <time>2013-11-23T09:48:13.885Z</time>
      </trkpt>
      <trkpt lat="44.17348" lon="4.67512">
        <ele>217.5</ele>
        <time>2013-11-23T09:48:14.887Z</time>
      </trkpt>
      <trkpt lat="44.1735" lon="4.67503">
        <ele>217.3</ele>
        <time>2013-11-23T09:48:15.887Z</time>
      </trkpt>
      <trkpt lat="44.17353" lon="4.67494">
        <ele>217.2</ele>
        <time>2013-11-23T09:48:16.887Z</time>
      </trkpt>
      <trkpt lat="44.17361" lon="4.67476">
        <ele>217.1</ele>
        <time>2013-11-23T09:48:18.887Z</time>
      </trkpt>
      <trkpt lat="44.17369" lon="4.67458">
        <ele>217.4</ele>
        <time>2013-11-23T09:48:20.886Z</time>
      </trkpt>
      <trkpt lat="44.17371" lon="4.67446">
        <ele>216.4</ele>
        <time>2013-11-23T09:48:21.891Z</time>
      </trkpt>
      <trkpt lat="44.17373" lon="4.67435">
        <ele>216.6</ele>
        <time>2013-11-23T09:48:22.891Z</time>
      </trkpt>
      <trkpt lat="44.17373" lon="4.67417">
        <ele>217.5</ele>
        <time>2013-11-23T09:48:24.891Z</time>
      </trkpt>
      <trkpt lat="44.17372" lon="4.67409">
        <ele>217.9</ele>
        <time>2013-11-23T09:48:25.917Z</time>
      </trkpt>
      <trkpt lat="44.17369" lon="4.67393">
        <ele>218.3</ele>
        <time>2013-11-23T09:48:27.897Z</time>
      </trkpt>
      <trkpt lat="44.17367" lon="4.67377">
        <ele>218.2</ele>
        <time>2013-11-23T09:48:29.893Z</time>
      </trkpt>
      <trkpt lat="44.17363" lon="4.67369">
        <ele>218.2</ele>
        <time>2013-11-23T09:48:31.879Z</time>
      </trkpt>
      <trkpt lat="44.17362" lon="4.67363">
        <ele>218.3</ele>
        <time>2013-11-23T09:48:32.880Z</time>
      </trkpt>
      <trkpt lat="44.17364" lon="4.67356">
        <ele>219</ele>
        <time>2013-11-23T09:48:33.881Z</time>
      </trkpt>
      <trkpt lat="44.17366" lon="4.67348">
        <ele>219.4</ele>
        <time>2013-11-23T09:48:34.882Z</time>
      </trkpt>
      <trkpt lat="44.17369" lon="4.67333">
        <ele>217.6</ele>
        <time>2013-11-23T09:48:36.864Z</time>
      </trkpt>
      <trkpt lat="44.17369" lon="4.67328">
        <ele>216.6</ele>
        <time>2013-11-23T09:48:37.878Z</time>
      </trkpt>
      <trkpt lat="44.17368" lon="4.67319">
        <ele>214.4</ele>
        <time>2013-11-23T09:48:40.021Z</time>
      </trkpt>
      <trkpt lat="44.17364" lon="4.67311">
        <ele>214.3</ele>
        <time>2013-11-23T09:48:52.993Z</time>
      </trkpt>
      <trkpt lat="44.17363" lon="4.67308">
        <ele>214.3</ele>
        <time>2013-11-23T09:48:56.885Z</time>
      </trkpt>
      <trkpt lat="44.17362" lon="4.67308">
        <ele>214</ele>
        <time>2013-11-23T09:48:59.874Z</time>
      </trkpt>
      <trkpt lat="44.17363" lon="4.67308">
        <ele>213.9</ele>
        <time>2013-11-23T09:49:00.883Z</time>
      </trkpt>
      <trkpt lat="44.17362" lon="4.67308">
        <ele>214.3</ele>
        <time>2013-11-23T09:49:09.002Z</time>
      </trkpt>
      <trkpt lat="44.17364" lon="4.67305">
        <ele>214.3</ele>
        <time>2013-11-23T09:49:13.882Z</time>
      </trkpt>
      <trkpt lat="44.17365" lon="4.67301">
        <ele>213.9</ele>
        <time>2013-11-23T09:49:16.885Z</time>
      </trkpt>
      <trkpt lat="44.17365" lon="4.67301">
        <ele>213.5</ele>
        <time>2013-11-23T09:49:18.875Z</time>
      </trkpt>
      <trkpt lat="44.17365" lon="4.673">
        <ele>213.4</ele>
        <time>2013-11-23T09:49:26.001Z</time>
      </trkpt>
      <trkpt lat="44.17363" lon="4.673">
        <ele>213.3</ele>
        <time>2013-11-23T09:49:29.883Z</time>
      </trkpt>
      <trkpt lat="44.17363" lon="4.673">
        <ele>213.3</ele>
        <time>2013-11-23T09:49:30.044Z</time>
      </trkpt>
      <trkpt lat="44.17363" lon="4.673">
        <ele>213.2</ele>
        <time>2013-11-23T09:49:30.886Z</time>
      </trkpt>
      <trkpt lat="44.17363" lon="4.67299">
        <ele>213</ele>
        <time>2013-11-23T09:50:31.940Z</time>
      </trkpt>
      <trkpt lat="44.17363" lon="4.67298">
        <ele>212.5</ele>
        <time>2013-11-23T09:50:56.895Z</time>
      </trkpt>
      <trkpt lat="44.17362" lon="4.67302">
        <ele>218.3</ele>
        <time>2013-11-23T09:51:26.566Z</time>
      </trkpt>
      <trkpt lat="44.17363" lon="4.67299">
        <ele>217.7</ele>
        <time>2013-11-23T09:51:41.508Z</time>
      </trkpt>
      <trkpt lat="44.17367" lon="4.67295">
        <ele>216.9</ele>
        <time>2013-11-23T09:56:56.519Z</time>
      </trkpt>
      <trkpt lat="44.17367" lon="4.67306">
        <ele>212.8</ele>
        <time>2013-11-23T09:57:27.798Z</time>
      </trkpt>
      <trkpt lat="44.17366" lon="4.67301">
        <ele>209.6</ele>
        <time>2013-11-23T09:57:56.817Z</time>
      </trkpt>
      <trkpt lat="44.17367" lon="4.67302">
        <ele>209.6</ele>
        <time>2013-11-23T09:58:17.796Z</time>
      </trkpt>
      <trkpt lat="44.17365" lon="4.67302">
        <ele>211.7</ele>
        <time>2013-11-23T09:58:27.813Z</time>
      </trkpt>
      <trkpt lat="44.17365" lon="4.67302">
        <ele>211.6</ele>
        <time>2013-11-23T09:58:28.865Z</time>
      </trkpt>
      <trkpt lat="44.17365" lon="4.67302">
        <ele>211.5</ele>
        <time>2013-11-23T09:58:30.805Z</time>
      </trkpt>
      <trkpt lat="44.17365" lon="4.67304">
        <ele>211.7</ele>
        <time>2013-11-23T09:58:41.802Z</time>
      </trkpt>
      <trkpt lat="44.17364" lon="4.67303">
        <ele>211.5</ele>
        <time>2013-11-23T09:58:46.808Z</time>
      </trkpt>
      <trkpt lat="44.17363" lon="4.67304">
        <ele>211.5</ele>
        <time>2013-11-23T09:58:47.794Z</time>
      </trkpt>
      <trkpt lat="44.17363" lon="4.67303">
        <ele>211.4</ele>
        <time>2013-11-23T09:58:48.791Z</time>
      </trkpt>
      <trkpt lat="44.17363" lon="4.67303">
        <ele>211.7</ele>
        <time>2013-11-23T09:58:49.794Z</time>
      </trkpt>
      <trkpt lat="44.17363" lon="4.67303">
        <ele>212.3</ele>
        <time>2013-11-23T09:58:56.803Z</time>
      </trkpt>
      <trkpt lat="44.17363" lon="4.67303">
        <ele>212.3</ele>
        <time>2013-11-23T09:58:56.915Z</time>
      </trkpt>
      <trkpt lat="44.17362" lon="4.67302">
        <ele>212.5</ele>
        <time>2013-11-23T09:59:00.786Z</time>
      </trkpt>
      <trkpt lat="44.17365" lon="4.67299">
        <ele>212.9</ele>
        <time>2013-11-23T10:00:25.932Z</time>
      </trkpt>
      <trkpt lat="44.17365" lon="4.67307">
        <ele>212.4</ele>
        <time>2013-11-23T10:00:57.168Z</time>
      </trkpt>
      <trkpt lat="44.17371" lon="4.67311">
        <ele>210.2</ele>
        <time>2013-11-23T10:01:28.051Z</time>
      </trkpt>
      <trkpt lat="44.1737" lon="4.6731">
        <ele>211</ele>
        <time>2013-11-23T10:01:36.185Z</time>
      </trkpt>
      <trkpt lat="44.17373" lon="4.67313">
        <ele>212.6</ele>
        <time>2013-11-23T10:01:41.056Z</time>
      </trkpt>
      <trkpt lat="44.17381" lon="4.67318">
        <ele>214.8</ele>
        <time>2013-11-23T10:01:50.047Z</time>
      </trkpt>
      <trkpt lat="44.17383" lon="4.67329">
        <ele>215.6</ele>
        <time>2013-11-23T10:01:54.048Z</time>
      </trkpt>
      <trkpt lat="44.17385" lon="4.67339">
        <ele>216.9</ele>
        <time>2013-11-23T10:01:58.331Z</time>
      </trkpt>
      <trkpt lat="44.17381" lon="4.67354">
        <ele>211.3</ele>
        <time>2013-11-23T10:02:01.050Z</time>
      </trkpt>
      <trkpt lat="44.17382" lon="4.67361">
        <ele>205.3</ele>
        <time>2013-11-23T10:02:09.328Z</time>
      </trkpt>
      <trkpt lat="44.17379" lon="4.67374">
        <ele>204.2</ele>
        <time>2013-11-23T10:02:14.026Z</time>
      </trkpt>
      <trkpt lat="44.17383" lon="4.67382">
        <ele>205.2</ele>
        <time>2013-11-23T10:02:17.024Z</time>
      </trkpt>
      <trkpt lat="44.17385" lon="4.67386">
        <ele>211.7</ele>
        <time>2013-11-23T10:02:18.040Z</time>
      </trkpt>
      <trkpt lat="44.17383" lon="4.67397">
        <ele>212.3</ele>
        <time>2013-11-23T10:02:21.045Z</time>
      </trkpt>
      <trkpt lat="44.17381" lon="4.67399">
        <ele>212.5</ele>
        <time>2013-11-23T10:02:22.039Z</time>
      </trkpt>
      <trkpt lat="44.17382" lon="4.67405">
        <ele>213.5</ele>
        <time>2013-11-23T10:02:25.066Z</time>
      </trkpt>
      <trkpt lat="44.17386" lon="4.6741">
        <ele>217</ele>
        <time>2013-11-23T10:02:27.054Z</time>
      </trkpt>
      <trkpt lat="44.17387" lon="4.67413">
        <ele>217.2</ele>
        <time>2013-11-23T10:02:28.051Z</time>
      </trkpt>
      <trkpt lat="44.17387" lon="4.67423">
        <ele>217.7</ele>
        <time>2013-11-23T10:02:30.048Z</time>
      </trkpt>
      <trkpt lat="44.17387" lon="4.67432">
        <ele>218.4</ele>
        <time>2013-11-23T10:02:32.048Z</time>
      </trkpt>
      <trkpt lat="44.17388" lon="4.67436">
        <ele>224.5</ele>
        <time>2013-11-23T10:02:34.048Z</time>
      </trkpt>
      <trkpt lat="44.1739" lon="4.67447">
        <ele>225.3</ele>
        <time>2013-11-23T10:02:39.050Z</time>
      </trkpt>
      <trkpt lat="44.17391" lon="4.6745">
        <ele>226.1</ele>
        <time>2013-11-23T10:02:41.068Z</time>
      </trkpt>
      <trkpt lat="44.17397" lon="4.67453">
        <ele>227.2</ele>
        <time>2013-11-23T10:02:44.049Z</time>
      </trkpt>
      <trkpt lat="44.17401" lon="4.67456">
        <ele>227.9</ele>
        <time>2013-11-23T10:02:46.047Z</time>
      </trkpt>
      <trkpt lat="44.17408" lon="4.6746">
        <ele>229.3</ele>
        <time>2013-11-23T10:02:50.048Z</time>
      </trkpt>
      <trkpt lat="44.1741" lon="4.67462">
        <ele>229.2</ele>
        <time>2013-11-23T10:02:51.111Z</time>
      </trkpt>
      <trkpt lat="44.17417" lon="4.67456">
        <ele>230.1</ele>
        <time>2013-11-23T10:02:55.151Z</time>
      </trkpt>
      <trkpt lat="44.17418" lon="4.67453">
        <ele>231</ele>
        <time>2013-11-23T10:02:56.050Z</time>
      </trkpt>
      <trkpt lat="44.17418" lon="4.67441">
        <ele>224.2</ele>
        <time>2013-11-23T10:03:03.072Z</time>
      </trkpt>
      <trkpt lat="44.17418" lon="4.67439">
        <ele>223.9</ele>
        <time>2013-11-23T10:03:04.067Z</time>
      </trkpt>
      <trkpt lat="44.17415" lon="4.67429">
        <ele>222.9</ele>
        <time>2013-11-23T10:03:10.130Z</time>
      </trkpt>
      <trkpt lat="44.17412" lon="4.67421">
        <ele>222.4</ele>
        <time>2013-11-23T10:03:14.055Z</time>
      </trkpt>
      <trkpt lat="44.1741" lon="4.67413">
        <ele>224.6</ele>
        <time>2013-11-23T10:03:19.172Z</time>
      </trkpt>
      <trkpt lat="44.17409" lon="4.67407">
        <ele>225.4</ele>
        <time>2013-11-23T10:03:22.140Z</time>
      </trkpt>
      <trkpt lat="44.17411" lon="4.67397">
        <ele>226.2</ele>
        <time>2013-11-23T10:03:27.121Z</time>
      </trkpt>
      <trkpt lat="44.17413" lon="4.67392">
        <ele>227</ele>
        <time>2013-11-23T10:03:30.051Z</time>
      </trkpt>
      <trkpt lat="44.17416" lon="4.67384">
        <ele>227</ele>
        <time>2013-11-23T10:03:34.163Z</time>
      </trkpt>
      <trkpt lat="44.17418" lon="4.67377">
        <ele>227.6</ele>
        <time>2013-11-23T10:03:37.057Z</time>
      </trkpt>
      <trkpt lat="44.17425" lon="4.67371">
        <ele>229</ele>
        <time>2013-11-23T10:03:42.207Z</time>
      </trkpt>
      <trkpt lat="44.17427" lon="4.67369">
        <ele>229</ele>
        <time>2013-11-23T10:03:43.210Z</time>
      </trkpt>
      <trkpt lat="44.17432" lon="4.6736">
        <ele>229.8</ele>
        <time>2013-11-23T10:03:48.207Z</time>
      </trkpt>
      <trkpt lat="44.17433" lon="4.67358">
        <ele>229.7</ele>
        <time>2013-11-23T10:03:49.209Z</time>
      </trkpt>
      <trkpt lat="44.17433" lon="4.67349">
        <ele>229.2</ele>
        <time>2013-11-23T10:03:52.207Z</time>
      </trkpt>
      <trkpt lat="44.17433" lon="4.67341">
        <ele>229.2</ele>
        <time>2013-11-23T10:03:54.204Z</time>
      </trkpt>
      <trkpt lat="44.17436" lon="4.67329">
        <ele>229.4</ele>
        <time>2013-11-23T10:03:57.203Z</time>
      </trkpt>
      <trkpt lat="44.17438" lon="4.67326">
        <ele>229.6</ele>
        <time>2013-11-23T10:03:58.204Z</time>
      </trkpt>
      <trkpt lat="44.17444" lon="4.67317">
        <ele>232</ele>
        <time>2013-11-23T10:04:03.207Z</time>
      </trkpt>
      <trkpt lat="44.17445" lon="4.67316">
        <ele>232</ele>
        <time>2013-11-23T10:04:04.188Z</time>
      </trkpt>
      <trkpt lat="44.17451" lon="4.67312">
        <ele>232.5</ele>
        <time>2013-11-23T10:04:08.322Z</time>
      </trkpt>
      <trkpt lat="44.17454" lon="4.6731">
        <ele>234.6</ele>
        <time>2013-11-23T10:04:11.204Z</time>
      </trkpt>
      <trkpt lat="44.17462" lon="4.67305">
        <ele>237.3</ele>
        <time>2013-11-23T10:04:18.204Z</time>
      </trkpt>
      <trkpt lat="44.17463" lon="4.67305">
        <ele>237.6</ele>
        <time>2013-11-23T10:04:19.207Z</time>
      </trkpt>
      <trkpt lat="44.17469" lon="4.67301">
        <ele>244.9</ele>
        <time>2013-11-23T10:04:26.276Z</time>
      </trkpt>
      <trkpt lat="44.17476" lon="4.67293">
        <ele>241.4</ele>
        <time>2013-11-23T10:04:30.154Z</time>
      </trkpt>
      <trkpt lat="44.17483" lon="4.67289">
        <ele>244.6</ele>
        <time>2013-11-23T10:04:36.117Z</time>
      </trkpt>
      <trkpt lat="44.17484" lon="4.67288">
        <ele>245.4</ele>
        <time>2013-11-23T10:04:37.120Z</time>
      </trkpt>
      <trkpt lat="44.17492" lon="4.67284">
        <ele>246.9</ele>
        <time>2013-11-23T10:04:44.118Z</time>
      </trkpt>
      <trkpt lat="44.17493" lon="4.67284">
        <ele>246.9</ele>
        <time>2013-11-23T10:04:44.233Z</time>
      </trkpt>
      <trkpt lat="44.175" lon="4.67281">
        <ele>246.8</ele>
        <time>2013-11-23T10:04:49.306Z</time>
      </trkpt>
      <trkpt lat="44.17504" lon="4.67279">
        <ele>247.5</ele>
        <time>2013-11-23T10:04:52.125Z</time>
      </trkpt>
      <trkpt lat="44.17511" lon="4.67276">
        <ele>246.6</ele>
        <time>2013-11-23T10:04:57.243Z</time>
      </trkpt>
      <trkpt lat="44.17516" lon="4.67274">
        <ele>246.5</ele>
        <time>2013-11-23T10:05:00.144Z</time>
      </trkpt>
      <trkpt lat="44.17523" lon="4.6727">
        <ele>248</ele>
        <time>2013-11-23T10:05:05.116Z</time>
      </trkpt>
      <trkpt lat="44.17524" lon="4.6727">
        <ele>247.7</ele>
        <time>2013-11-23T10:05:06.123Z</time>
      </trkpt>
      <trkpt lat="44.17532" lon="4.67265">
        <ele>248.8</ele>
        <time>2013-11-23T10:05:11.235Z</time>
      </trkpt>
      <trkpt lat="44.17536" lon="4.67261">
        <ele>248.7</ele>
        <time>2013-11-23T10:05:14.121Z</time>
      </trkpt>
      <trkpt lat="44.17544" lon="4.67258">
        <ele>248.9</ele>
        <time>2013-11-23T10:05:19.121Z</time>
      </trkpt>
      <trkpt lat="44.17545" lon="4.67257">
        <ele>249</ele>
        <time>2013-11-23T10:05:20.150Z</time>
      </trkpt>
      <trkpt lat="44.17553" lon="4.67255">
        <ele>249.6</ele>
        <time>2013-11-23T10:05:25.231Z</time>
      </trkpt>
      <trkpt lat="44.17557" lon="4.67255">
        <ele>249.7</ele>
        <time>2013-11-23T10:05:28.124Z</time>
      </trkpt>
      <trkpt lat="44.17564" lon="4.67255">
        <ele>250.6</ele>
        <time>2013-11-23T10:05:33.251Z</time>
      </trkpt>
      <trkpt lat="44.17569" lon="4.67255">
        <ele>249.8</ele>
        <time>2013-11-23T10:05:36.145Z</time>
      </trkpt>
      <trkpt lat="44.17577" lon="4.67253">
        <ele>250.4</ele>
        <time>2013-11-23T10:05:41.235Z</time>
      </trkpt>
      <trkpt lat="44.17581" lon="4.67251">
        <ele>250.2</ele>
        <time>2013-11-23T10:05:44.119Z</time>
      </trkpt>
      <trkpt lat="44.17588" lon="4.67247">
        <ele>251.1</ele>
        <time>2013-11-23T10:05:48.442Z</time>
      </trkpt>
      <trkpt lat="44.17592" lon="4.67244">
        <ele>253</ele>
        <time>2013-11-23T10:05:51.203Z</time>
      </trkpt>
      <trkpt lat="44.176" lon="4.67238">
        <ele>256.9</ele>
        <time>2013-11-23T10:05:57.346Z</time>
      </trkpt>
      <trkpt lat="44.17605" lon="4.67234">
        <ele>258.6</ele>
        <time>2013-11-23T10:06:01.208Z</time>
      </trkpt>
      <trkpt lat="44.1761" lon="4.67225">
        <ele>259.9</ele>
        <time>2013-11-23T10:06:08.227Z</time>
      </trkpt>
      <trkpt lat="44.17609" lon="4.67223">
        <ele>260.3</ele>
        <time>2013-11-23T10:06:09.203Z</time>
      </trkpt>
      <trkpt lat="44.17608" lon="4.67212">
        <ele>255.3</ele>
        <time>2013-11-23T10:06:16.340Z</time>
      </trkpt>
      <trkpt lat="44.17605" lon="4.67206">
        <ele>254</ele>
        <time>2013-11-23T10:06:20.202Z</time>
      </trkpt>
      <trkpt lat="44.17601" lon="4.67198">
        <ele>253.2</ele>
        <time>2013-11-23T10:06:25.322Z</time>
      </trkpt>
      <trkpt lat="44.17599" lon="4.67192">
        <ele>252.7</ele>
        <time>2013-11-23T10:06:28.206Z</time>
      </trkpt>
      <trkpt lat="44.17595" lon="4.67184">
        <ele>253</ele>
        <time>2013-11-23T10:06:33.321Z</time>
      </trkpt>
      <trkpt lat="44.17594" lon="4.67178">
        <ele>253.4</ele>
        <time>2013-11-23T10:06:36.197Z</time>
      </trkpt>
      <trkpt lat="44.1759" lon="4.67169">
        <ele>254</ele>
        <time>2013-11-23T10:06:41.319Z</time>
      </trkpt>
      <trkpt lat="44.17588" lon="4.67163">
        <ele>254.2</ele>
        <time>2013-11-23T10:06:44.226Z</time>
      </trkpt>
      <trkpt lat="44.17584" lon="4.67152">
        <ele>254.3</ele>
        <time>2013-11-23T10:06:50.208Z</time>
      </trkpt>
      <trkpt lat="44.17583" lon="4.67148">
        <ele>254.5</ele>
        <time>2013-11-23T10:06:52.223Z</time>
      </trkpt>
      <trkpt lat="44.17581" lon="4.67137">
        <ele>254.7</ele>
        <time>2013-11-23T10:06:57.225Z</time>
      </trkpt>
      <trkpt lat="44.17581" lon="4.67135">
        <ele>254.7</ele>
        <time>2013-11-23T10:06:58.224Z</time>
      </trkpt>
      <trkpt lat="44.17587" lon="4.67126">
        <ele>256.8</ele>
        <time>2013-11-23T10:07:07.221Z</time>
      </trkpt>
      <trkpt lat="44.1759" lon="4.67133">
        <ele>257.2</ele>
        <time>2013-11-23T10:07:11.224Z</time>
      </trkpt>
      <trkpt lat="44.17595" lon="4.6714">
        <ele>257.1</ele>
        <time>2013-11-23T10:07:16.368Z</time>
      </trkpt>
      <trkpt lat="44.17597" lon="4.67144">
        <ele>258.5</ele>
        <time>2013-11-23T10:07:19.215Z</time>
      </trkpt>
      <trkpt lat="44.17601" lon="4.67149">
        <ele>261.3</ele>
        <time>2013-11-23T10:07:24.249Z</time>
      </trkpt>
      <trkpt lat="44.17604" lon="4.67155">
        <ele>261.3</ele>
        <time>2013-11-23T10:07:27.198Z</time>
      </trkpt>
      <trkpt lat="44.17608" lon="4.67163">
        <ele>260.4</ele>
        <time>2013-11-23T10:07:31.193Z</time>
      </trkpt>
      <trkpt lat="44.1761" lon="4.67165">
        <ele>259.5</ele>
        <time>2013-11-23T10:07:32.201Z</time>
      </trkpt>
      <trkpt lat="44.17614" lon="4.67175">
        <ele>259.5</ele>
        <time>2013-11-23T10:07:37.392Z</time>
      </trkpt>
      <trkpt lat="44.17618" lon="4.67183">
        <ele>258.3</ele>
        <time>2013-11-23T10:07:40.192Z</time>
      </trkpt>
      <trkpt lat="44.17622" lon="4.67191">
        <ele>257.8</ele>
        <time>2013-11-23T10:07:42.192Z</time>
      </trkpt>
      <trkpt lat="44.17625" lon="4.67196">
        <ele>257</ele>
        <time>2013-11-23T10:07:43.202Z</time>
      </trkpt>
      <trkpt lat="44.17628" lon="4.67201">
        <ele>255.5</ele>
        <time>2013-11-23T10:07:44.213Z</time>
      </trkpt>
      <trkpt lat="44.17632" lon="4.67214">
        <ele>255.3</ele>
        <time>2013-11-23T10:07:46.211Z</time>
      </trkpt>
      <trkpt lat="44.17634" lon="4.6722">
        <ele>255.7</ele>
        <time>2013-11-23T10:07:47.213Z</time>
      </trkpt>
      <trkpt lat="44.17637" lon="4.67231">
        <ele>258.9</ele>
        <time>2013-11-23T10:07:49.206Z</time>
      </trkpt>
      <trkpt lat="44.17638" lon="4.67241">
        <ele>259.4</ele>
        <time>2013-11-23T10:07:51.209Z</time>
      </trkpt>
      <trkpt lat="44.17638" lon="4.6725">
        <ele>258.1</ele>
        <time>2013-11-23T10:07:53.208Z</time>
      </trkpt>
      <trkpt lat="44.17638" lon="4.6726">
        <ele>258.5</ele>
        <time>2013-11-23T10:07:55.211Z</time>
      </trkpt>
      <trkpt lat="44.17638" lon="4.67268">
        <ele>259.3</ele>
        <time>2013-11-23T10:07:57.212Z</time>
      </trkpt>
      <trkpt lat="44.17637" lon="4.67276">
        <ele>260</ele>
        <time>2013-11-23T10:07:59.209Z</time>
      </trkpt>
      <trkpt lat="44.17635" lon="4.67283">
        <ele>259</ele>
        <time>2013-11-23T10:08:01.195Z</time>
      </trkpt>
      <trkpt lat="44.17629" lon="4.67289">
        <ele>259.5</ele>
        <time>2013-11-23T10:08:04.202Z</time>
      </trkpt>
      <trkpt lat="44.17628" lon="4.67294">
        <ele>259.6</ele>
        <time>2013-11-23T10:08:06.201Z</time>
      </trkpt>
      <trkpt lat="44.17625" lon="4.67306">
        <ele>259.6</ele>
        <time>2013-11-23T10:08:10.322Z</time>
      </trkpt>
      <trkpt lat="44.17624" lon="4.67313">
        <ele>259.4</ele>
        <time>2013-11-23T10:08:13.199Z</time>
      </trkpt>
      <trkpt lat="44.17623" lon="4.67323">
        <ele>259.1</ele>
        <time>2013-11-23T10:08:17.318Z</time>
      </trkpt>
      <trkpt lat="44.17622" lon="4.6733">
        <ele>258.9</ele>
        <time>2013-11-23T10:08:20.200Z</time>
      </trkpt>
      <trkpt lat="44.17619" lon="4.67339">
        <ele>258.5</ele>
        <time>2013-11-23T10:08:24.347Z</time>
      </trkpt>
      <trkpt lat="44.17618" lon="4.67344">
        <ele>258.3</ele>
        <time>2013-11-23T10:08:27.269Z</time>
      </trkpt>
      <trkpt lat="44.17616" lon="4.67354">
        <ele>258.6</ele>
        <time>2013-11-23T10:08:32.320Z</time>
      </trkpt>
      <trkpt lat="44.17617" lon="4.67359">
        <ele>259.1</ele>
        <time>2013-11-23T10:08:35.222Z</time>
      </trkpt>
      <trkpt lat="44.17622" lon="4.67368">
        <ele>261.8</ele>
        <time>2013-11-23T10:08:41.211Z</time>
      </trkpt>
      <trkpt lat="44.17623" lon="4.67369">
        <ele>265.3</ele>
        <time>2013-11-23T10:08:43.230Z</time>
      </trkpt>
      <trkpt lat="44.17631" lon="4.67367">
        <ele>272.1</ele>
        <time>2013-11-23T10:08:48.320Z</time>
      </trkpt>
      <trkpt lat="44.17636" lon="4.67371">
        <ele>285.1</ele>
        <time>2013-11-23T10:08:51.222Z</time>
      </trkpt>
      <trkpt lat="44.17633" lon="4.67381">
        <ele>282.9</ele>
        <time>2013-11-23T10:08:54.276Z</time>
      </trkpt>
      <trkpt lat="44.17628" lon="4.6739">
        <ele>281.9</ele>
        <time>2013-11-23T10:08:56.205Z</time>
      </trkpt>
      <trkpt lat="44.17627" lon="4.67398">
        <ele>282.1</ele>
        <time>2013-11-23T10:08:59.211Z</time>
      </trkpt>
      <trkpt lat="44.17629" lon="4.67408">
        <ele>275.8</ele>
        <time>2013-11-23T10:09:01.197Z</time>
      </trkpt>
      <trkpt lat="44.17629" lon="4.6742">
        <ele>275.8</ele>
        <time>2013-11-23T10:09:05.331Z</time>
      </trkpt>
      <trkpt lat="44.1763" lon="4.67427">
        <ele>276.5</ele>
        <time>2013-11-23T10:09:08.196Z</time>
      </trkpt>
      <trkpt lat="44.17634" lon="4.67435">
        <ele>274.8</ele>
        <time>2013-11-23T10:09:11.206Z</time>
      </trkpt>
      <trkpt lat="44.17636" lon="4.67438">
        <ele>275.5</ele>
        <time>2013-11-23T10:09:12.210Z</time>
      </trkpt>
      <trkpt lat="44.17643" lon="4.67444">
        <ele>275.2</ele>
        <time>2013-11-23T10:09:16.331Z</time>
      </trkpt>
      <trkpt lat="44.17649" lon="4.67444">
        <ele>275.1</ele>
        <time>2013-11-23T10:09:19.205Z</time>
      </trkpt>
      <trkpt lat="44.17655" lon="4.67445">
        <ele>275.5</ele>
        <time>2013-11-23T10:09:22.200Z</time>
      </trkpt>
      <trkpt lat="44.17658" lon="4.67446">
        <ele>275.3</ele>
        <time>2013-11-23T10:09:24.201Z</time>
      </trkpt>
      <trkpt lat="44.17664" lon="4.67445">
        <ele>275.1</ele>
        <time>2013-11-23T10:09:27.201Z</time>
      </trkpt>
      <trkpt lat="44.17668" lon="4.67443">
        <ele>275</ele>
        <time>2013-11-23T10:09:29.211Z</time>
      </trkpt>
      <trkpt lat="44.17674" lon="4.67436">
        <ele>274.9</ele>
        <time>2013-11-23T10:09:33.486Z</time>
      </trkpt>
      <trkpt lat="44.17678" lon="4.67429">
        <ele>271.4</ele>
        <time>2013-11-23T10:09:36.202Z</time>
      </trkpt>
      <trkpt lat="44.17681" lon="4.67419">
        <ele>270.8</ele>
        <time>2013-11-23T10:09:39.206Z</time>
      </trkpt>
      <trkpt lat="44.17683" lon="4.67416">
        <ele>269.9</ele>
        <time>2013-11-23T10:09:40.209Z</time>
      </trkpt>
      <trkpt lat="44.17687" lon="4.67407">
        <ele>269.6</ele>
        <time>2013-11-23T10:09:43.209Z</time>
      </trkpt>
      <trkpt lat="44.17689" lon="4.67402">
        <ele>269.4</ele>
        <time>2013-11-23T10:09:45.206Z</time>
      </trkpt>
      <trkpt lat="44.17693" lon="4.67395">
        <ele>269.1</ele>
        <time>2013-11-23T10:09:48.208Z</time>
      </trkpt>
      <trkpt lat="44.17695" lon="4.67389">
        <ele>267.7</ele>
        <time>2013-11-23T10:09:50.217Z</time>
      </trkpt>
      <trkpt lat="44.17698" lon="4.6738">
        <ele>267.7</ele>
        <time>2013-11-23T10:09:53.185Z</time>
      </trkpt>
      <trkpt lat="44.17699" lon="4.67377">
        <ele>267.8</ele>
        <time>2013-11-23T10:09:54.214Z</time>
      </trkpt>
      <trkpt lat="44.17702" lon="4.67368">
        <ele>267.1</ele>
        <time>2013-11-23T10:09:57.201Z</time>
      </trkpt>
      <trkpt lat="44.17704" lon="4.67363">
        <ele>267.3</ele>
        <time>2013-11-23T10:09:59.191Z</time>
      </trkpt>
      <trkpt lat="44.17705" lon="4.67351">
        <ele>266.2</ele>
        <time>2013-11-23T10:10:03.327Z</time>
      </trkpt>
      <trkpt lat="44.17706" lon="4.67341">
        <ele>265.9</ele>
        <time>2013-11-23T10:10:06.206Z</time>
      </trkpt>
      <trkpt lat="44.1771" lon="4.67333">
        <ele>264.1</ele>
        <time>2013-11-23T10:10:09.235Z</time>
      </trkpt>
      <trkpt lat="44.17714" lon="4.6733">
        <ele>263.5</ele>
        <time>2013-11-23T10:10:11.222Z</time>
      </trkpt>
      <trkpt lat="44.17721" lon="4.67326">
        <ele>263.3</ele>
        <time>2013-11-23T10:10:14.208Z</time>
      </trkpt>
      <trkpt lat="44.17725" lon="4.67324">
        <ele>263.5</ele>
        <time>2013-11-23T10:10:16.205Z</time>
      </trkpt>
      <trkpt lat="44.17732" lon="4.67323">
        <ele>264.2</ele>
        <time>2013-11-23T10:10:19.217Z</time>
      </trkpt>
      <trkpt lat="44.17736" lon="4.67322">
        <ele>264.3</ele>
        <time>2013-11-23T10:10:21.219Z</time>
      </trkpt>
      <trkpt lat="44.17741" lon="4.67323">
        <ele>264.1</ele>
        <time>2013-11-23T10:10:23.208Z</time>
      </trkpt>
      <trkpt lat="44.17746" lon="4.67323">
        <ele>264.2</ele>
        <time>2013-11-23T10:10:25.207Z</time>
      </trkpt>
      <trkpt lat="44.17753" lon="4.67324">
        <ele>264.8</ele>
        <time>2013-11-23T10:10:28.206Z</time>
      </trkpt>
      <trkpt lat="44.17756" lon="4.67324">
        <ele>264.9</ele>
        <time>2013-11-23T10:10:29.207Z</time>
      </trkpt>
      <trkpt lat="44.17764" lon="4.67325">
        <ele>265.2</ele>
        <time>2013-11-23T10:10:32.204Z</time>
      </trkpt>
      <trkpt lat="44.17766" lon="4.67325">
        <ele>264.9</ele>
        <time>2013-11-23T10:10:33.204Z</time>
      </trkpt>
      <trkpt lat="44.1777" lon="4.67327">
        <ele>267.2</ele>
        <time>2013-11-23T10:10:35.213Z</time>
      </trkpt>
      <trkpt lat="44.17776" lon="4.67328">
        <ele>266.5</ele>
        <time>2013-11-23T10:10:37.196Z</time>
      </trkpt>
      <trkpt lat="44.17784" lon="4.67332">
        <ele>266.1</ele>
        <time>2013-11-23T10:10:40.191Z</time>
      </trkpt>
      <trkpt lat="44.17788" lon="4.67336">
        <ele>266.9</ele>
        <time>2013-11-23T10:10:42.189Z</time>
      </trkpt>
      <trkpt lat="44.17796" lon="4.67342">
        <ele>264.5</ele>
        <time>2013-11-23T10:10:45.206Z</time>
      </trkpt>
      <trkpt lat="44.17798" lon="4.67344">
        <ele>267.9</ele>
        <time>2013-11-23T10:10:46.210Z</time>
      </trkpt>
      <trkpt lat="44.17803" lon="4.67351">
        <ele>269.5</ele>
        <time>2013-11-23T10:10:49.210Z</time>
      </trkpt>
      <trkpt lat="44.17807" lon="4.67356">
        <ele>271.1</ele>
        <time>2013-11-23T10:10:51.208Z</time>
      </trkpt>
      <trkpt lat="44.17811" lon="4.67364">
        <ele>266.2</ele>
        <time>2013-11-23T10:10:56.336Z</time>
      </trkpt>
      <trkpt lat="44.17812" lon="4.67366">
        <ele>266.8</ele>
        <time>2013-11-23T10:10:57.209Z</time>
      </trkpt>
      <trkpt lat="44.17818" lon="4.67374">
        <ele>267.4</ele>
        <time>2013-11-23T10:11:01.198Z</time>
      </trkpt>
      <trkpt lat="44.17819" lon="4.67376">
        <ele>268.2</ele>
        <time>2013-11-23T10:11:02.203Z</time>
      </trkpt>
      <trkpt lat="44.17825" lon="4.67383">
        <ele>267.6</ele>
        <time>2013-11-23T10:11:06.202Z</time>
      </trkpt>
      <trkpt lat="44.17827" lon="4.67382">
        <ele>267.1</ele>
        <time>2013-11-23T10:11:07.206Z</time>
      </trkpt>
      <trkpt lat="44.17834" lon="4.67379">
        <ele>267.7</ele>
        <time>2013-11-23T10:11:11.336Z</time>
      </trkpt>
      <trkpt lat="44.17838" lon="4.67374">
        <ele>268.8</ele>
        <time>2013-11-23T10:11:14.207Z</time>
      </trkpt>
      <trkpt lat="44.17842" lon="4.67363">
        <ele>271.7</ele>
        <time>2013-11-23T10:11:19.320Z</time>
      </trkpt>
      <trkpt lat="44.17843" lon="4.67355">
        <ele>272.3</ele>
        <time>2013-11-23T10:11:22.217Z</time>
      </trkpt>
      <trkpt lat="44.17843" lon="4.67345">
        <ele>273.4</ele>
        <time>2013-11-23T10:11:26.206Z</time>
      </trkpt>
      <trkpt lat="44.17843" lon="4.6734">
        <ele>272.5</ele>
        <time>2013-11-23T10:11:28.222Z</time>
      </trkpt>
      <trkpt lat="44.17846" lon="4.67329">
        <ele>275.6</ele>
        <time>2013-11-23T10:11:34.211Z</time>
      </trkpt>
      <trkpt lat="44.17847" lon="4.67324">
        <ele>276</ele>
        <time>2013-11-23T10:11:36.227Z</time>
      </trkpt>
      <trkpt lat="44.17848" lon="4.67315">
        <ele>276.9</ele>
        <time>2013-11-23T10:11:40.217Z</time>
      </trkpt>
      <trkpt lat="44.17848" lon="4.67311">
        <ele>277.1</ele>
        <time>2013-11-23T10:11:42.207Z</time>
      </trkpt>
      <trkpt lat="44.17846" lon="4.67299">
        <ele>276.7</ele>
        <time>2013-11-23T10:11:47.245Z</time>
      </trkpt>
      <trkpt lat="44.17843" lon="4.67293">
        <ele>278.6</ele>
        <time>2013-11-23T10:11:50.214Z</time>
      </trkpt>
      <trkpt lat="44.1784" lon="4.67287">
        <ele>277.2</ele>
        <time>2013-11-23T10:11:53.226Z</time>
      </trkpt>
      <trkpt lat="44.17837" lon="4.67281">
        <ele>275.2</ele>
        <time>2013-11-23T10:11:55.207Z</time>
      </trkpt>
      <trkpt lat="44.17834" lon="4.67272">
        <ele>276.8</ele>
        <time>2013-11-23T10:11:59.336Z</time>
      </trkpt>
      <trkpt lat="44.17832" lon="4.67266">
        <ele>277.1</ele>
        <time>2013-11-23T10:12:02.213Z</time>
      </trkpt>
      <trkpt lat="44.17827" lon="4.67256">
        <ele>276.5</ele>
        <time>2013-11-23T10:12:07.226Z</time>
      </trkpt>
      <trkpt lat="44.17826" lon="4.67254">
        <ele>276.3</ele>
        <time>2013-11-23T10:12:08.206Z</time>
      </trkpt>
      <trkpt lat="44.17822" lon="4.67244">
        <ele>277.8</ele>
        <time>2013-11-23T10:12:13.200Z</time>
      </trkpt>
      <trkpt lat="44.1782" lon="4.67241">
        <ele>278.5</ele>
        <time>2013-11-23T10:12:15.215Z</time>
      </trkpt>
      <trkpt lat="44.17816" lon="4.67231">
        <ele>278.4</ele>
        <time>2013-11-23T10:12:19.200Z</time>
      </trkpt>
      <trkpt lat="44.17816" lon="4.67229">
        <ele>278.6</ele>
        <time>2013-11-23T10:12:20.208Z</time>
      </trkpt>
      <trkpt lat="44.17813" lon="4.6722">
        <ele>281.2</ele>
        <time>2013-11-23T10:12:24.330Z</time>
      </trkpt>
      <trkpt lat="44.17811" lon="4.67213">
        <ele>281.8</ele>
        <time>2013-11-23T10:12:27.209Z</time>
      </trkpt>
      <trkpt lat="44.17807" lon="4.67208">
        <ele>281.7</ele>
        <time>2013-11-23T10:12:30.210Z</time>
      </trkpt>
      <trkpt lat="44.17804" lon="4.67206">
        <ele>281.7</ele>
        <time>2013-11-23T10:12:32.203Z</time>
      </trkpt>
      <trkpt lat="44.17798" lon="4.67204">
        <ele>282.2</ele>
        <time>2013-11-23T10:12:35.289Z</time>
      </trkpt>
      <trkpt lat="44.17794" lon="4.67204">
        <ele>283</ele>
        <time>2013-11-23T10:12:37.204Z</time>
      </trkpt>
      <trkpt lat="44.17787" lon="4.67206">
        <ele>284.1</ele>
        <time>2013-11-23T10:12:41.205Z</time>
      </trkpt>
      <trkpt lat="44.17785" lon="4.67207">
        <ele>284.5</ele>
        <time>2013-11-23T10:12:42.207Z</time>
      </trkpt>
      <trkpt lat="44.17778" lon="4.67208">
        <ele>285.1</ele>
        <time>2013-11-23T10:12:46.361Z</time>
      </trkpt>
      <trkpt lat="44.17771" lon="4.67211">
        <ele>285.2</ele>
        <time>2013-11-23T10:12:49.205Z</time>
      </trkpt>
      <trkpt lat="44.17763" lon="4.67213">
        <ele>285.2</ele>
        <time>2013-11-23T10:12:52.204Z</time>
      </trkpt>
      <trkpt lat="44.17761" lon="4.67214">
        <ele>285.2</ele>
        <time>2013-11-23T10:12:53.221Z</time>
      </trkpt>
      <trkpt lat="44.17753" lon="4.67214">
        <ele>285</ele>
        <time>2013-11-23T10:12:57.205Z</time>
      </trkpt>
      <trkpt lat="44.17748" lon="4.67214">
        <ele>284.7</ele>
        <time>2013-11-23T10:12:59.202Z</time>
      </trkpt>
      <trkpt lat="44.17741" lon="4.6721">
        <ele>286.6</ele>
        <time>2013-11-23T10:13:06.311Z</time>
      </trkpt>
      <trkpt lat="44.17735" lon="4.6721">
        <ele>286.3</ele>
        <time>2013-11-23T10:13:10.200Z</time>
      </trkpt>
      <trkpt lat="44.1773" lon="4.67205">
        <ele>285.6</ele>
        <time>2013-11-23T10:13:14.432Z</time>
      </trkpt>
      <trkpt lat="44.1773" lon="4.67199">
        <ele>286</ele>
        <time>2013-11-23T10:13:17.202Z</time>
      </trkpt>
      <trkpt lat="44.17728" lon="4.6719">
        <ele>289.5</ele>
        <time>2013-11-23T10:13:23.324Z</time>
      </trkpt>
      <trkpt lat="44.17728" lon="4.67183">
        <ele>290</ele>
        <time>2013-11-23T10:13:27.191Z</time>
      </trkpt>
      <trkpt lat="44.17725" lon="4.67175">
        <ele>287.4</ele>
        <time>2013-11-23T10:13:34.276Z</time>
      </trkpt>
      <trkpt lat="44.17723" lon="4.67165">
        <ele>286.4</ele>
        <time>2013-11-23T10:13:38.199Z</time>
      </trkpt>
      <trkpt lat="44.1772" lon="4.67156">
        <ele>286.7</ele>
        <time>2013-11-23T10:13:49.439Z</time>
      </trkpt>
      <trkpt lat="44.17717" lon="4.67151">
        <ele>290</ele>
        <time>2013-11-23T10:13:55.198Z</time>
      </trkpt>
      <trkpt lat="44.17712" lon="4.67145">
        <ele>287.5</ele>
        <time>2013-11-23T10:14:02.416Z</time>
      </trkpt>
      <trkpt lat="44.17707" lon="4.67141">
        <ele>283.9</ele>
        <time>2013-11-23T10:14:06.302Z</time>
      </trkpt>
      <trkpt lat="44.17707" lon="4.67133">
        <ele>290</ele>
        <time>2013-11-23T10:14:17.305Z</time>
      </trkpt>
      <trkpt lat="44.17707" lon="4.67128">
        <ele>288.6</ele>
        <time>2013-11-23T10:14:22.311Z</time>
      </trkpt>
      <trkpt lat="44.17706" lon="4.67119">
        <ele>292.9</ele>
        <time>2013-11-23T10:14:37.293Z</time>
      </trkpt>
      <trkpt lat="44.17704" lon="4.67114">
        <ele>292.3</ele>
        <time>2013-11-23T10:14:44.309Z</time>
      </trkpt>
      <trkpt lat="44.17701" lon="4.67103">
        <ele>296.2</ele>
        <time>2013-11-23T10:14:57.415Z</time>
      </trkpt>
      <trkpt lat="44.17701" lon="4.67098">
        <ele>294.2</ele>
        <time>2013-11-23T10:15:04.296Z</time>
      </trkpt>
      <trkpt lat="44.17701" lon="4.67085">
        <ele>300.4</ele>
        <time>2013-11-23T10:15:17.413Z</time>
      </trkpt>
      <trkpt lat="44.17702" lon="4.67079">
        <ele>300.8</ele>
        <time>2013-11-23T10:15:24.294Z</time>
      </trkpt>
      <trkpt lat="44.17704" lon="4.67066">
        <ele>304.3</ele>
        <time>2013-11-23T10:15:35.399Z</time>
      </trkpt>
      <trkpt lat="44.17704" lon="4.67058">
        <ele>305.6</ele>
        <time>2013-11-23T10:15:40.462Z</time>
      </trkpt>
      <trkpt lat="44.17703" lon="4.6705">
        <ele>302.5</ele>
        <time>2013-11-23T10:15:44.326Z</time>
      </trkpt>
      <trkpt lat="44.17703" lon="4.67044">
        <ele>304.5</ele>
        <time>2013-11-23T10:15:46.306Z</time>
      </trkpt>
      <trkpt lat="44.17704" lon="4.67033">
        <ele>306.9</ele>
        <time>2013-11-23T10:15:50.296Z</time>
      </trkpt>
      <trkpt lat="44.17703" lon="4.67029">
        <ele>307.3</ele>
        <time>2013-11-23T10:15:52.297Z</time>
      </trkpt>
      <trkpt lat="44.177" lon="4.6702">
        <ele>309.4</ele>
        <time>2013-11-23T10:15:56.427Z</time>
      </trkpt>
      <trkpt lat="44.177" lon="4.67017">
        <ele>308.6</ele>
        <time>2013-11-23T10:15:57.428Z</time>
      </trkpt>
      <trkpt lat="44.177" lon="4.67005">
        <ele>312.8</ele>
        <time>2013-11-23T10:16:02.516Z</time>
      </trkpt>
      <trkpt lat="44.177" lon="4.66999">
        <ele>312.4</ele>
        <time>2013-11-23T10:16:05.462Z</time>
      </trkpt>
      <trkpt lat="44.17697" lon="4.66989">
        <ele>314.2</ele>
        <time>2013-11-23T10:16:11.443Z</time>
      </trkpt>
      <trkpt lat="44.17694" lon="4.66988">
        <ele>316.1</ele>
        <time>2013-11-23T10:16:13.446Z</time>
      </trkpt>
      <trkpt lat="44.17689" lon="4.66979">
        <ele>314.3</ele>
        <time>2013-11-23T10:16:16.430Z</time>
      </trkpt>
      <trkpt lat="44.17685" lon="4.66973">
        <ele>314.5</ele>
        <time>2013-11-23T10:16:18.427Z</time>
      </trkpt>
      <trkpt lat="44.17682" lon="4.66962">
        <ele>315.2</ele>
        <time>2013-11-23T10:16:21.426Z</time>
      </trkpt>
      <trkpt lat="44.1768" lon="4.66955">
        <ele>314.9</ele>
        <time>2013-11-23T10:16:23.425Z</time>
      </trkpt>
      <trkpt lat="44.17678" lon="4.66949">
        <ele>314.8</ele>
        <time>2013-11-23T10:16:25.426Z</time>
      </trkpt>
      <trkpt lat="44.17676" lon="4.66944">
        <ele>315.5</ele>
        <time>2013-11-23T10:16:27.424Z</time>
      </trkpt>
      <trkpt lat="44.17674" lon="4.66936">
        <ele>316.1</ele>
        <time>2013-11-23T10:16:30.426Z</time>
      </trkpt>
      <trkpt lat="44.17673" lon="4.6693">
        <ele>316.9</ele>
        <time>2013-11-23T10:16:32.425Z</time>
      </trkpt>
      <trkpt lat="44.17671" lon="4.66918">
        <ele>317.3</ele>
        <time>2013-11-23T10:16:36.430Z</time>
      </trkpt>
      <trkpt lat="44.1767" lon="4.66915">
        <ele>317.5</ele>
        <time>2013-11-23T10:16:37.426Z</time>
      </trkpt>
      <trkpt lat="44.17667" lon="4.66906">
        <ele>317</ele>
        <time>2013-11-23T10:16:40.424Z</time>
      </trkpt>
      <trkpt lat="44.17666" lon="4.66903">
        <ele>317.2</ele>
        <time>2013-11-23T10:16:41.424Z</time>
      </trkpt>
      <trkpt lat="44.17663" lon="4.66895">
        <ele>315.7</ele>
        <time>2013-11-23T10:16:43.441Z</time>
      </trkpt>
      <trkpt lat="44.17658" lon="4.66886">
        <ele>314.8</ele>
        <time>2013-11-23T10:16:45.427Z</time>
      </trkpt>
      <trkpt lat="44.17656" lon="4.66882">
        <ele>315.1</ele>
        <time>2013-11-23T10:16:46.429Z</time>
      </trkpt>
      <trkpt lat="44.17652" lon="4.66875">
        <ele>315.7</ele>
        <time>2013-11-23T10:16:48.426Z</time>
      </trkpt>
      <trkpt lat="44.1765" lon="4.66865">
        <ele>316.9</ele>
        <time>2013-11-23T10:16:51.426Z</time>
      </trkpt>
      <trkpt lat="44.17649" lon="4.6686">
        <ele>316.3</ele>
        <time>2013-11-23T10:16:53.425Z</time>
      </trkpt>
      <trkpt lat="44.17648" lon="4.66852">
        <ele>315.7</ele>
        <time>2013-11-23T10:16:56.427Z</time>
      </trkpt>
      <trkpt lat="44.17647" lon="4.66846">
        <ele>315</ele>
        <time>2013-11-23T10:16:58.424Z</time>
      </trkpt>
      <trkpt lat="44.17644" lon="4.66836">
        <ele>314.2</ele>
        <time>2013-11-23T10:17:02.533Z</time>
      </trkpt>
      <trkpt lat="44.17643" lon="4.66829">
        <ele>314.9</ele>
        <time>2013-11-23T10:17:05.427Z</time>
      </trkpt>
      <trkpt lat="44.1764" lon="4.66818">
        <ele>315</ele>
        <time>2013-11-23T10:17:10.581Z</time>
      </trkpt>
      <trkpt lat="44.17638" lon="4.66811">
        <ele>314.6</ele>
        <time>2013-11-23T10:17:13.549Z</time>
      </trkpt>
      <trkpt lat="44.17637" lon="4.66799">
        <ele>314.7</ele>
        <time>2013-11-23T10:17:18.463Z</time>
      </trkpt>
      <trkpt lat="44.17637" lon="4.66799">
        <ele>314.7</ele>
        <time>2013-11-23T10:17:18.641Z</time>
      </trkpt>
      <trkpt lat="44.17638" lon="4.66789">
        <ele>315.2</ele>
        <time>2013-11-23T10:17:23.562Z</time>
      </trkpt>
      <trkpt lat="44.17638" lon="4.66783">
        <ele>315.7</ele>
        <time>2013-11-23T10:17:26.479Z</time>
      </trkpt>
      <trkpt lat="44.17639" lon="4.66773">
        <ele>315.4</ele>
        <time>2013-11-23T10:17:30.451Z</time>
      </trkpt>
      <trkpt lat="44.17639" lon="4.66769">
        <ele>316.1</ele>
        <time>2013-11-23T10:17:32.445Z</time>
      </trkpt>
      <trkpt lat="44.17641" lon="4.66758">
        <ele>314.4</ele>
        <time>2013-11-23T10:17:37.538Z</time>
      </trkpt>
      <trkpt lat="44.17643" lon="4.66752">
        <ele>314.1</ele>
        <time>2013-11-23T10:17:40.425Z</time>
      </trkpt>
      <trkpt lat="44.17648" lon="4.66745">
        <ele>314.5</ele>
        <time>2013-11-23T10:17:45.422Z</time>
      </trkpt>
      <trkpt lat="44.1765" lon="4.66744">
        <ele>314.5</ele>
        <time>2013-11-23T10:17:46.434Z</time>
      </trkpt>
      <trkpt lat="44.17656" lon="4.66737">
        <ele>329.4</ele>
        <time>2013-11-23T10:17:54.559Z</time>
      </trkpt>
      <trkpt lat="44.1766" lon="4.66735">
        <ele>330.3</ele>
        <time>2013-11-23T10:17:55.409Z</time>
      </trkpt>
      <trkpt lat="44.17668" lon="4.66731">
        <ele>329.6</ele>
        <time>2013-11-23T10:17:57.434Z</time>
      </trkpt>
      <trkpt lat="44.17671" lon="4.66729">
        <ele>328.5</ele>
        <time>2013-11-23T10:17:58.472Z</time>
      </trkpt>
      <trkpt lat="44.17677" lon="4.66726">
        <ele>326</ele>
        <time>2013-11-23T10:18:00.415Z</time>
      </trkpt>
      <trkpt lat="44.17681" lon="4.66725">
        <ele>323.5</ele>
        <time>2013-11-23T10:18:01.427Z</time>
      </trkpt>
      <trkpt lat="44.17685" lon="4.66722">
        <ele>322.3</ele>
        <time>2013-11-23T10:18:02.429Z</time>
      </trkpt>
      <trkpt lat="44.17697" lon="4.66719">
        <ele>315.6</ele>
        <time>2013-11-23T10:18:04.432Z</time>
      </trkpt>
      <trkpt lat="44.17708" lon="4.66716">
        <ele>313.9</ele>
        <time>2013-11-23T10:18:06.426Z</time>
      </trkpt>
      <trkpt lat="44.17713" lon="4.66714">
        <ele>313.1</ele>
        <time>2013-11-23T10:18:07.427Z</time>
      </trkpt>
      <trkpt lat="44.1772" lon="4.66705">
        <ele>314.3</ele>
        <time>2013-11-23T10:18:09.399Z</time>
      </trkpt>
      <trkpt lat="44.17723" lon="4.66699">
        <ele>313.1</ele>
        <time>2013-11-23T10:18:10.418Z</time>
      </trkpt>
      <trkpt lat="44.17726" lon="4.66694">
        <ele>312</ele>
        <time>2013-11-23T10:18:11.424Z</time>
      </trkpt>
      <trkpt lat="44.17729" lon="4.66689">
        <ele>311.6</ele>
        <time>2013-11-23T10:18:12.426Z</time>
      </trkpt>
      <trkpt lat="44.17734" lon="4.66677">
        <ele>311.7</ele>
        <time>2013-11-23T10:18:14.422Z</time>
      </trkpt>
      <trkpt lat="44.17737" lon="4.66671">
        <ele>311.8</ele>
        <time>2013-11-23T10:18:15.428Z</time>
      </trkpt>
      <trkpt lat="44.17739" lon="4.66664">
        <ele>311.7</ele>
        <time>2013-11-23T10:18:16.433Z</time>
      </trkpt>
      <trkpt lat="44.17747" lon="4.66648">
        <ele>312.2</ele>
        <time>2013-11-23T10:18:18.457Z</time>
      </trkpt>
      <trkpt lat="44.17751" lon="4.6664">
        <ele>312.5</ele>
        <time>2013-11-23T10:18:19.457Z</time>
      </trkpt>
      <trkpt lat="44.17763" lon="4.66627">
        <ele>311.6</ele>
        <time>2013-11-23T10:18:21.427Z</time>
      </trkpt>
      <trkpt lat="44.17769" lon="4.66621">
        <ele>311.5</ele>
        <time>2013-11-23T10:18:22.429Z</time>
      </trkpt>
      <trkpt lat="44.1778" lon="4.66608">
        <ele>310.8</ele>
        <time>2013-11-23T10:18:24.426Z</time>
      </trkpt>
      <trkpt lat="44.17785" lon="4.66603">
        <ele>311.3</ele>
        <time>2013-11-23T10:18:25.432Z</time>
      </trkpt>
      <trkpt lat="44.17788" lon="4.66601">
        <ele>311.1</ele>
        <time>2013-11-23T10:18:26.432Z</time>
      </trkpt>
      <trkpt lat="44.17794" lon="4.66587">
        <ele>306.3</ele>
        <time>2013-11-23T10:18:28.431Z</time>
      </trkpt>
      <trkpt lat="44.17801" lon="4.66577">
        <ele>309</ele>
        <time>2013-11-23T10:18:30.429Z</time>
      </trkpt>
      <trkpt lat="44.17805" lon="4.66573">
        <ele>309.4</ele>
        <time>2013-11-23T10:18:31.432Z</time>
      </trkpt>
      <trkpt lat="44.17808" lon="4.66569">
        <ele>308.8</ele>
        <time>2013-11-23T10:18:32.449Z</time>
      </trkpt>
      <trkpt lat="44.17814" lon="4.66561">
        <ele>307.4</ele>
        <time>2013-11-23T10:18:34.440Z</time>
      </trkpt>
      <trkpt lat="44.17817" lon="4.66557">
        <ele>306.6</ele>
        <time>2013-11-23T10:18:35.481Z</time>
      </trkpt>
      <trkpt lat="44.17823" lon="4.6655">
        <ele>305.1</ele>
        <time>2013-11-23T10:18:37.425Z</time>
      </trkpt>
      <trkpt lat="44.1783" lon="4.66551">
        <ele>315.1</ele>
        <time>2013-11-23T10:18:38.428Z</time>
      </trkpt>
      <trkpt lat="44.17843" lon="4.66545">
        <ele>312.1</ele>
        <time>2013-11-23T10:18:40.424Z</time>
      </trkpt>
      <trkpt lat="44.17848" lon="4.66541">
        <ele>312.4</ele>
        <time>2013-11-23T10:18:41.436Z</time>
      </trkpt>
      <trkpt lat="44.17856" lon="4.66533">
        <ele>313.8</ele>
        <time>2013-11-23T10:18:43.435Z</time>
      </trkpt>
      <trkpt lat="44.1786" lon="4.66531">
        <ele>314.3</ele>
        <time>2013-11-23T10:18:44.441Z</time>
      </trkpt>
      <trkpt lat="44.17868" lon="4.66541">
        <ele>309.4</ele>
        <time>2013-11-23T10:18:46.421Z</time>
      </trkpt>
      <trkpt lat="44.17872" lon="4.66544">
        <ele>309.6</ele>
        <time>2013-11-23T10:18:47.460Z</time>
      </trkpt>
      <trkpt lat="44.17881" lon="4.66548">
        <ele>311.1</ele>
        <time>2013-11-23T10:18:49.438Z</time>
      </trkpt>
      <trkpt lat="44.17888" lon="4.66545">
        <ele>307.9</ele>
        <time>2013-11-23T10:18:50.444Z</time>
      </trkpt>
      <trkpt lat="44.17898" lon="4.66541">
        <ele>306.2</ele>
        <time>2013-11-23T10:18:52.422Z</time>
      </trkpt>
      <trkpt lat="44.17895" lon="4.66531">
        <ele>301.7</ele>
        <time>2013-11-23T10:19:03.538Z</time>
      </trkpt>
      <trkpt lat="44.17891" lon="4.66524">
        <ele>306.4</ele>
        <time>2013-11-23T10:19:09.424Z</time>
      </trkpt>
      <trkpt lat="44.17888" lon="4.66514">
        <ele>306.4</ele>
        <time>2013-11-23T10:19:13.556Z</time>
      </trkpt>
      <trkpt lat="44.17887" lon="4.66508">
        <ele>308.2</ele>
        <time>2013-11-23T10:19:16.424Z</time>
      </trkpt>
      <trkpt lat="44.17885" lon="4.66501">
        <ele>307</ele>
        <time>2013-11-23T10:19:19.422Z</time>
      </trkpt>
      <trkpt lat="44.17884" lon="4.66495">
        <ele>306</ele>
        <time>2013-11-23T10:19:21.423Z</time>
      </trkpt>
      <trkpt lat="44.17883" lon="4.66489">
        <ele>305.4</ele>
        <time>2013-11-23T10:19:23.423Z</time>
      </trkpt>
      <trkpt lat="44.17882" lon="4.66482">
        <ele>305.3</ele>
        <time>2013-11-23T10:19:25.419Z</time>
      </trkpt>
      <trkpt lat="44.17881" lon="4.66474">
        <ele>305</ele>
        <time>2013-11-23T10:19:27.422Z</time>
      </trkpt>
      <trkpt lat="44.1788" lon="4.66469">
        <ele>304.9</ele>
        <time>2013-11-23T10:19:28.423Z</time>
      </trkpt>
      <trkpt lat="44.17881" lon="4.66465">
        <ele>306.9</ele>
        <time>2013-11-23T10:19:29.422Z</time>
      </trkpt>
      <trkpt lat="44.17881" lon="4.66456">
        <ele>307.3</ele>
        <time>2013-11-23T10:19:31.424Z</time>
      </trkpt>
      <trkpt lat="44.17882" lon="4.66452">
        <ele>307.8</ele>
        <time>2013-11-23T10:19:32.425Z</time>
      </trkpt>
      <trkpt lat="44.17884" lon="4.66444">
        <ele>306.2</ele>
        <time>2013-11-23T10:19:34.423Z</time>
      </trkpt>
      <trkpt lat="44.17885" lon="4.6644">
        <ele>306.2</ele>
        <time>2013-11-23T10:19:35.425Z</time>
      </trkpt>
      <trkpt lat="44.17888" lon="4.66432">
        <ele>306.9</ele>
        <time>2013-11-23T10:19:37.426Z</time>
      </trkpt>
      <trkpt lat="44.17892" lon="4.66422">
        <ele>307.6</ele>
        <time>2013-11-23T10:19:39.421Z</time>
      </trkpt>
      <trkpt lat="44.17894" lon="4.66417">
        <ele>308.2</ele>
        <time>2013-11-23T10:19:40.424Z</time>
      </trkpt>
      <trkpt lat="44.17898" lon="4.66412">
        <ele>307.9</ele>
        <time>2013-11-23T10:19:41.423Z</time>
      </trkpt>
      <trkpt lat="44.17903" lon="4.66406">
        <ele>309.4</ele>
        <time>2013-11-23T10:19:43.424Z</time>
      </trkpt>
      <trkpt lat="44.17911" lon="4.664">
        <ele>310.5</ele>
        <time>2013-11-23T10:19:46.424Z</time>
      </trkpt>
      <trkpt lat="44.17913" lon="4.66398">
        <ele>310.7</ele>
        <time>2013-11-23T10:19:47.423Z</time>
      </trkpt>
      <trkpt lat="44.17918" lon="4.66393">
        <ele>310.6</ele>
        <time>2013-11-23T10:19:49.422Z</time>
      </trkpt>
      <trkpt lat="44.1792" lon="4.6639">
        <ele>310.8</ele>
        <time>2013-11-23T10:19:50.424Z</time>
      </trkpt>
      <trkpt lat="44.17924" lon="4.66387">
        <ele>311</ele>
        <time>2013-11-23T10:19:51.424Z</time>
      </trkpt>
      <trkpt lat="44.17935" lon="4.66381">
        <ele>307.7</ele>
        <time>2013-11-23T10:19:53.432Z</time>
      </trkpt>
      <trkpt lat="44.1794" lon="4.66379">
        <ele>306.9</ele>
        <time>2013-11-23T10:19:54.434Z</time>
      </trkpt>
      <trkpt lat="44.17944" lon="4.66378">
        <ele>306.6</ele>
        <time>2013-11-23T10:19:55.442Z</time>
      </trkpt>
      <trkpt lat="44.17949" lon="4.66376">
        <ele>307</ele>
        <time>2013-11-23T10:19:56.451Z</time>
      </trkpt>
      <trkpt lat="44.17957" lon="4.66372">
        <ele>304.3</ele>
        <time>2013-11-23T10:19:58.420Z</time>
      </trkpt>
      <trkpt lat="44.1796" lon="4.66369">
        <ele>303.3</ele>
        <time>2013-11-23T10:19:59.422Z</time>
      </trkpt>
      <trkpt lat="44.17966" lon="4.66363">
        <ele>303</ele>
        <time>2013-11-23T10:20:01.411Z</time>
      </trkpt>
      <trkpt lat="44.17974" lon="4.66355">
        <ele>302</ele>
        <time>2013-11-23T10:20:03.432Z</time>
      </trkpt>
      <trkpt lat="44.1798" lon="4.66348">
        <ele>301.8</ele>
        <time>2013-11-23T10:20:05.423Z</time>
      </trkpt>
      <trkpt lat="44.17984" lon="4.66337">
        <ele>305.8</ele>
        <time>2013-11-23T10:20:07.421Z</time>
      </trkpt>
      <trkpt lat="44.17988" lon="4.66325">
        <ele>306.5</ele>
        <time>2013-11-23T10:20:09.421Z</time>
      </trkpt>
      <trkpt lat="44.1799" lon="4.66318">
        <ele>306.2</ele>
        <time>2013-11-23T10:20:10.433Z</time>
      </trkpt>
      <trkpt lat="44.17994" lon="4.66301">
        <ele>306.2</ele>
        <time>2013-11-23T10:20:12.431Z</time>
      </trkpt>
      <trkpt lat="44.17996" lon="4.66293">
        <ele>308</ele>
        <time>2013-11-23T10:20:13.439Z</time>
      </trkpt>
      <trkpt lat="44.18001" lon="4.66279">
        <ele>310.4</ele>
        <time>2013-11-23T10:20:15.419Z</time>
      </trkpt>
      <trkpt lat="44.18004" lon="4.66274">
        <ele>311.1</ele>
        <time>2013-11-23T10:20:16.433Z</time>
      </trkpt>
      <trkpt lat="44.18008" lon="4.6627">
        <ele>311.5</ele>
        <time>2013-11-23T10:20:18.439Z</time>
      </trkpt>
      <trkpt lat="44.1801" lon="4.66258">
        <ele>312.4</ele>
        <time>2013-11-23T10:20:26.536Z</time>
      </trkpt>
      <trkpt lat="44.1801" lon="4.66256">
        <ele>313.4</ele>
        <time>2013-11-23T10:20:27.424Z</time>
      </trkpt>
      <trkpt lat="44.1801" lon="4.66244">
        <ele>313.6</ele>
        <time>2013-11-23T10:20:31.442Z</time>
      </trkpt>
      <trkpt lat="44.18009" lon="4.6624">
        <ele>313.6</ele>
        <time>2013-11-23T10:20:32.426Z</time>
      </trkpt>
      <trkpt lat="44.18006" lon="4.66232">
        <ele>315.1</ele>
        <time>2013-11-23T10:20:34.472Z</time>
      </trkpt>
      <trkpt lat="44.18004" lon="4.66228">
        <ele>316.1</ele>
        <time>2013-11-23T10:20:35.425Z</time>
      </trkpt>
      <trkpt lat="44.18003" lon="4.66225">
        <ele>316.6</ele>
        <time>2013-11-23T10:20:36.422Z</time>
      </trkpt>
      <trkpt lat="44.18001" lon="4.66214">
        <ele>315.7</ele>
        <time>2013-11-23T10:20:38.422Z</time>
      </trkpt>
      <trkpt lat="44.18002" lon="4.66204">
        <ele>314.2</ele>
        <time>2013-11-23T10:20:40.423Z</time>
      </trkpt>
      <trkpt lat="44.18" lon="4.66196">
        <ele>314.5</ele>
        <time>2013-11-23T10:20:42.423Z</time>
      </trkpt>
      <trkpt lat="44.18" lon="4.66187">
        <ele>313.7</ele>
        <time>2013-11-23T10:20:44.425Z</time>
      </trkpt>
      <trkpt lat="44.18001" lon="4.66178">
        <ele>313.3</ele>
        <time>2013-11-23T10:20:46.422Z</time>
      </trkpt>
      <trkpt lat="44.18" lon="4.66167">
        <ele>315.6</ele>
        <time>2013-11-23T10:20:49.420Z</time>
      </trkpt>
      <trkpt lat="44.18" lon="4.66163">
        <ele>315.7</ele>
        <time>2013-11-23T10:20:50.422Z</time>
      </trkpt>
      <trkpt lat="44.18" lon="4.66151">
        <ele>316.2</ele>
        <time>2013-11-23T10:20:53.423Z</time>
      </trkpt>
      <trkpt lat="44.18" lon="4.66147">
        <ele>316.8</ele>
        <time>2013-11-23T10:20:54.432Z</time>
      </trkpt>
      <trkpt lat="44.18" lon="4.6614">
        <ele>317</ele>
        <time>2013-11-23T10:20:56.424Z</time>
      </trkpt>
      <trkpt lat="44.17998" lon="4.66134">
        <ele>316.5</ele>
        <time>2013-11-23T10:20:58.424Z</time>
      </trkpt>
      <trkpt lat="44.17997" lon="4.66127">
        <ele>316.1</ele>
        <time>2013-11-23T10:21:00.406Z</time>
      </trkpt>
      <trkpt lat="44.17996" lon="4.66121">
        <ele>317.3</ele>
        <time>2013-11-23T10:21:02.418Z</time>
      </trkpt>
      <trkpt lat="44.17995" lon="4.66115">
        <ele>317.9</ele>
        <time>2013-11-23T10:21:04.431Z</time>
      </trkpt>
      <trkpt lat="44.17994" lon="4.66108">
        <ele>317.8</ele>
        <time>2013-11-23T10:21:06.461Z</time>
      </trkpt>
      <trkpt lat="44.17992" lon="4.66097">
        <ele>317.4</ele>
        <time>2013-11-23T10:21:10.423Z</time>
      </trkpt>
      <trkpt lat="44.17991" lon="4.66094">
        <ele>317.2</ele>
        <time>2013-11-23T10:21:11.422Z</time>
      </trkpt>
      <trkpt lat="44.17989" lon="4.66083">
        <ele>317.3</ele>
        <time>2013-11-23T10:21:14.422Z</time>
      </trkpt>
      <trkpt lat="44.17988" lon="4.66077">
        <ele>317.9</ele>
        <time>2013-11-23T10:21:16.423Z</time>
      </trkpt>
      <trkpt lat="44.17986" lon="4.66068">
        <ele>317.6</ele>
        <time>2013-11-23T10:21:19.440Z</time>
      </trkpt>
      <trkpt lat="44.17984" lon="4.66061">
        <ele>318.1</ele>
        <time>2013-11-23T10:21:21.438Z</time>
      </trkpt>
      <trkpt lat="44.17983" lon="4.66051">
        <ele>319</ele>
        <time>2013-11-23T10:21:24.423Z</time>
      </trkpt>
      <trkpt lat="44.17982" lon="4.66044">
        <ele>319.4</ele>
        <time>2013-11-23T10:21:26.423Z</time>
      </trkpt>
      <trkpt lat="44.1798" lon="4.66034">
        <ele>323.3</ele>
        <time>2013-11-23T10:21:29.438Z</time>
      </trkpt>
      <trkpt lat="44.17981" lon="4.66027">
        <ele>322.4</ele>
        <time>2013-11-23T10:21:31.423Z</time>
      </trkpt>
      <trkpt lat="44.1798" lon="4.66019">
        <ele>323.9</ele>
        <time>2013-11-23T10:21:33.431Z</time>
      </trkpt>
      <trkpt lat="44.17979" lon="4.66012">
        <ele>327.5</ele>
        <time>2013-11-23T10:21:35.427Z</time>
      </trkpt>
      <trkpt lat="44.17981" lon="4.66002">
        <ele>326.4</ele>
        <time>2013-11-23T10:21:37.436Z</time>
      </trkpt>
      <trkpt lat="44.17983" lon="4.65993">
        <ele>327.3</ele>
        <time>2013-11-23T10:21:39.427Z</time>
      </trkpt>
      <trkpt lat="44.17986" lon="4.65987">
        <ele>326.4</ele>
        <time>2013-11-23T10:21:41.420Z</time>
      </trkpt>
      <trkpt lat="44.17988" lon="4.65983">
        <ele>325.4</ele>
        <time>2013-11-23T10:21:42.422Z</time>
      </trkpt>
      <trkpt lat="44.17991" lon="4.65977">
        <ele>323.9</ele>
        <time>2013-11-23T10:21:43.425Z</time>
      </trkpt>
      <trkpt lat="44.17995" lon="4.65971">
        <ele>324.2</ele>
        <time>2013-11-23T10:21:44.424Z</time>
      </trkpt>
      <trkpt lat="44.17998" lon="4.65966">
        <ele>324.2</ele>
        <time>2013-11-23T10:21:45.439Z</time>
      </trkpt>
      <trkpt lat="44.18003" lon="4.6596">
        <ele>324.6</ele>
        <time>2013-11-23T10:21:47.443Z</time>
      </trkpt>
      <trkpt lat="44.18009" lon="4.65952">
        <ele>323.4</ele>
        <time>2013-11-23T10:21:50.422Z</time>
      </trkpt>
      <trkpt lat="44.18011" lon="4.65949">
        <ele>322.6</ele>
        <time>2013-11-23T10:21:51.424Z</time>
      </trkpt>
      <trkpt lat="44.18022" lon="4.65942">
        <ele>317.1</ele>
        <time>2013-11-23T10:21:53.431Z</time>
      </trkpt>
      <trkpt lat="44.18032" lon="4.65932">
        <ele>312.4</ele>
        <time>2013-11-23T10:21:55.427Z</time>
      </trkpt>
      <trkpt lat="44.18036" lon="4.65928">
        <ele>311.5</ele>
        <time>2013-11-23T10:21:56.449Z</time>
      </trkpt>
      <trkpt lat="44.18042" lon="4.65922">
        <ele>312.2</ele>
        <time>2013-11-23T10:21:58.561Z</time>
      </trkpt>
      <trkpt lat="44.18048" lon="4.65914">
        <ele>312.3</ele>
        <time>2013-11-23T10:22:00.411Z</time>
      </trkpt>
      <trkpt lat="44.18052" lon="4.65909">
        <ele>312.1</ele>
        <time>2013-11-23T10:22:01.416Z</time>
      </trkpt>
      <trkpt lat="44.18057" lon="4.65904">
        <ele>311.9</ele>
        <time>2013-11-23T10:22:02.418Z</time>
      </trkpt>
      <trkpt lat="44.18066" lon="4.65894">
        <ele>311.7</ele>
        <time>2013-11-23T10:22:04.411Z</time>
      </trkpt>
      <trkpt lat="44.18073" lon="4.65889">
        <ele>309.9</ele>
        <time>2013-11-23T10:22:06.429Z</time>
      </trkpt>
      <trkpt lat="44.18081" lon="4.65879">
        <ele>310.1</ele>
        <time>2013-11-23T10:22:08.418Z</time>
      </trkpt>
      <trkpt lat="44.18083" lon="4.65874">
        <ele>308.2</ele>
        <time>2013-11-23T10:22:09.433Z</time>
      </trkpt>
      <trkpt lat="44.18089" lon="4.65866">
        <ele>305.7</ele>
        <time>2013-11-23T10:22:11.425Z</time>
      </trkpt>
      <trkpt lat="44.18093" lon="4.65859">
        <ele>301.2</ele>
        <time>2013-11-23T10:22:13.430Z</time>
      </trkpt>
      <trkpt lat="44.18095" lon="4.65855">
        <ele>300.1</ele>
        <time>2013-11-23T10:22:14.460Z</time>
      </trkpt>
      <trkpt lat="44.18099" lon="4.65847">
        <ele>297.4</ele>
        <time>2013-11-23T10:22:16.432Z</time>
      </trkpt>
      <trkpt lat="44.18101" lon="4.65844">
        <ele>296.1</ele>
        <time>2013-11-23T10:22:17.431Z</time>
      </trkpt>
      <trkpt lat="44.18106" lon="4.65839">
        <ele>290.3</ele>
        <time>2013-11-23T10:22:19.432Z</time>
      </trkpt>
      <trkpt lat="44.18111" lon="4.65833">
        <ele>287.2</ele>
        <time>2013-11-23T10:22:21.428Z</time>
      </trkpt>
      <trkpt lat="44.18118" lon="4.65829">
        <ele>284.7</ele>
        <time>2013-11-23T10:22:23.437Z</time>
      </trkpt>
      <trkpt lat="44.18123" lon="4.65826">
        <ele>283.8</ele>
        <time>2013-11-23T10:22:25.430Z</time>
      </trkpt>
      <trkpt lat="44.18129" lon="4.65823">
        <ele>282</ele>
        <time>2013-11-23T10:22:28.430Z</time>
      </trkpt>
      <trkpt lat="44.18131" lon="4.65822">
        <ele>281.6</ele>
        <time>2013-11-23T10:22:29.430Z</time>
      </trkpt>
      <trkpt lat="44.18134" lon="4.65822">
        <ele>279.7</ele>
        <time>2013-11-23T10:22:30.434Z</time>
      </trkpt>
      <trkpt lat="44.18142" lon="4.65818">
        <ele>278.6</ele>
        <time>2013-11-23T10:22:32.426Z</time>
      </trkpt>
      <trkpt lat="44.1815" lon="4.65819">
        <ele>277.8</ele>
        <time>2013-11-23T10:22:34.403Z</time>
      </trkpt>
      <trkpt lat="44.18153" lon="4.6582">
        <ele>277.3</ele>
        <time>2013-11-23T10:22:35.421Z</time>
      </trkpt>
      <trkpt lat="44.18161" lon="4.65817">
        <ele>271.9</ele>
        <time>2013-11-23T10:22:40.536Z</time>
      </trkpt>
      <trkpt lat="44.18167" lon="4.65812">
        <ele>268.6</ele>
        <time>2013-11-23T10:22:43.422Z</time>
      </trkpt>
      <trkpt lat="44.18172" lon="4.65804">
        <ele>265.7</ele>
        <time>2013-11-23T10:22:46.436Z</time>
      </trkpt>
      <trkpt lat="44.18174" lon="4.65803">
        <ele>264.8</ele>
        <time>2013-11-23T10:22:47.475Z</time>
      </trkpt>
      <trkpt lat="44.18182" lon="4.65806">
        <ele>263.1</ele>
        <time>2013-11-23T10:22:51.420Z</time>
      </trkpt>
      <trkpt lat="44.18184" lon="4.65807">
        <ele>262.2</ele>
        <time>2013-11-23T10:22:52.440Z</time>
      </trkpt>
      <trkpt lat="44.18192" lon="4.65811">
        <ele>260.7</ele>
        <time>2013-11-23T10:22:56.431Z</time>
      </trkpt>
      <trkpt lat="44.18195" lon="4.6581">
        <ele>260.9</ele>
        <time>2013-11-23T10:22:58.423Z</time>
      </trkpt>
      <trkpt lat="44.18201" lon="4.65803">
        <ele>258.6</ele>
        <time>2013-11-23T10:23:02.701Z</time>
      </trkpt>
      <trkpt lat="44.18203" lon="4.65803">
        <ele>257.7</ele>
        <time>2013-11-23T10:23:05.435Z</time>
      </trkpt>
      <trkpt lat="44.1821" lon="4.65809">
        <ele>251.5</ele>
        <time>2013-11-23T10:23:10.485Z</time>
      </trkpt>
      <trkpt lat="44.18215" lon="4.65813">
        <ele>248.5</ele>
        <time>2013-11-23T10:23:13.443Z</time>
      </trkpt>
      <trkpt lat="44.18223" lon="4.65813">
        <ele>247.6</ele>
        <time>2013-11-23T10:23:21.544Z</time>
      </trkpt>
      <trkpt lat="44.18224" lon="4.65814">
        <ele>247.6</ele>
        <time>2013-11-23T10:23:22.422Z</time>
      </trkpt>
      <trkpt lat="44.18231" lon="4.65813">
        <ele>242.3</ele>
        <time>2013-11-23T10:23:27.425Z</time>
      </trkpt>
      <trkpt lat="44.18234" lon="4.65814">
        <ele>240.5</ele>
        <time>2013-11-23T10:23:29.423Z</time>
      </trkpt>
      <trkpt lat="44.18241" lon="4.65819">
        <ele>240.2</ele>
        <time>2013-11-23T10:23:32.423Z</time>
      </trkpt>
      <trkpt lat="44.18243" lon="4.6582">
        <ele>239.8</ele>
        <time>2013-11-23T10:23:33.424Z</time>
      </trkpt>
      <trkpt lat="44.1825" lon="4.65814">
        <ele>238.1</ele>
        <time>2013-11-23T10:23:38.423Z</time>
      </trkpt>
      <trkpt lat="44.18252" lon="4.65813">
        <ele>237.1</ele>
        <time>2013-11-23T10:23:39.424Z</time>
      </trkpt>
      <trkpt lat="44.18258" lon="4.65812">
        <ele>234.8</ele>
        <time>2013-11-23T10:23:44.554Z</time>
      </trkpt>
      <trkpt lat="44.18263" lon="4.65811">
        <ele>232.5</ele>
        <time>2013-11-23T10:23:47.424Z</time>
      </trkpt>
      <trkpt lat="44.1827" lon="4.65812">
        <ele>232.4</ele>
        <time>2013-11-23T10:23:50.422Z</time>
      </trkpt>
      <trkpt lat="44.18272" lon="4.65813">
        <ele>231.6</ele>
        <time>2013-11-23T10:23:51.422Z</time>
      </trkpt>
      <trkpt lat="44.18281" lon="4.65815">
        <ele>230</ele>
        <time>2013-11-23T10:23:54.420Z</time>
      </trkpt>
      <trkpt lat="44.18287" lon="4.65817">
        <ele>228.3</ele>
        <time>2013-11-23T10:23:56.417Z</time>
      </trkpt>
      <trkpt lat="44.18292" lon="4.65815">
        <ele>228.1</ele>
        <time>2013-11-23T10:23:58.425Z</time>
      </trkpt>
      <trkpt lat="44.18297" lon="4.6581">
        <ele>226</ele>
        <time>2013-11-23T10:24:00.416Z</time>
      </trkpt>
      <trkpt lat="44.18304" lon="4.65806">
        <ele>223.5</ele>
        <time>2013-11-23T10:24:04.537Z</time>
      </trkpt>
      <trkpt lat="44.1831" lon="4.65805">
        <ele>221.9</ele>
        <time>2013-11-23T10:24:07.427Z</time>
      </trkpt>
      <trkpt lat="44.18318" lon="4.65799">
        <ele>216.3</ele>
        <time>2013-11-23T10:24:11.425Z</time>
      </trkpt>
      <trkpt lat="44.18323" lon="4.65796">
        <ele>214.7</ele>
        <time>2013-11-23T10:24:13.435Z</time>
      </trkpt>
      <trkpt lat="44.18327" lon="4.65791">
        <ele>213.6</ele>
        <time>2013-11-23T10:24:16.435Z</time>
      </trkpt>
      <trkpt lat="44.18332" lon="4.65787">
        <ele>211.9</ele>
        <time>2013-11-23T10:24:18.420Z</time>
      </trkpt>
      <trkpt lat="44.18337" lon="4.65779">
        <ele>209</ele>
        <time>2013-11-23T10:24:21.423Z</time>
      </trkpt>
      <trkpt lat="44.18339" lon="4.65778">
        <ele>208.3</ele>
        <time>2013-11-23T10:24:22.440Z</time>
      </trkpt>
      <trkpt lat="44.18347" lon="4.65781">
        <ele>208.4</ele>
        <time>2013-11-23T10:24:27.558Z</time>
      </trkpt>
      <trkpt lat="44.18351" lon="4.65783">
        <ele>208.5</ele>
        <time>2013-11-23T10:24:30.424Z</time>
      </trkpt>
      <trkpt lat="44.18357" lon="4.65787">
        <ele>208.8</ele>
        <time>2013-11-23T10:24:35.423Z</time>
      </trkpt>
      <trkpt lat="44.1836" lon="4.65788">
        <ele>209</ele>
        <time>2013-11-23T10:24:37.423Z</time>
      </trkpt>
      <trkpt lat="44.18366" lon="4.65792">
        <ele>209.1</ele>
        <time>2013-11-23T10:24:42.724Z</time>
      </trkpt>
      <trkpt lat="44.18369" lon="4.65795">
        <ele>209.8</ele>
        <time>2013-11-23T10:24:45.422Z</time>
      </trkpt>
      <trkpt lat="44.18374" lon="4.65801">
        <ele>210.8</ele>
        <time>2013-11-23T10:24:50.538Z</time>
      </trkpt>
      <trkpt lat="44.18376" lon="4.65805">
        <ele>212.1</ele>
        <time>2013-11-23T10:24:53.423Z</time>
      </trkpt>
      <trkpt lat="44.18379" lon="4.65814">
        <ele>212.7</ele>
        <time>2013-11-23T10:24:58.422Z</time>
      </trkpt>
      <trkpt lat="44.1838" lon="4.65816">
        <ele>213.1</ele>
        <time>2013-11-23T10:24:59.422Z</time>
      </trkpt>
      <trkpt lat="44.18384" lon="4.65827">
        <ele>213.3</ele>
        <time>2013-11-23T10:25:04.554Z</time>
      </trkpt>
      <trkpt lat="44.18386" lon="4.65834">
        <ele>213.6</ele>
        <time>2013-11-23T10:25:07.422Z</time>
      </trkpt>
      <trkpt lat="44.1839" lon="4.65842">
        <ele>213.2</ele>
        <time>2013-11-23T10:25:10.424Z</time>
      </trkpt>
      <trkpt lat="44.18392" lon="4.65846">
        <ele>213.4</ele>
        <time>2013-11-23T10:25:12.423Z</time>
      </trkpt>
      <trkpt lat="44.18397" lon="4.65853">
        <ele>213.8</ele>
        <time>2013-11-23T10:25:16.537Z</time>
      </trkpt>
      <trkpt lat="44.18402" lon="4.65859">
        <ele>213.8</ele>
        <time>2013-11-23T10:25:19.422Z</time>
      </trkpt>
      <trkpt lat="44.18407" lon="4.65868">
        <ele>214.5</ele>
        <time>2013-11-23T10:25:23.537Z</time>
      </trkpt>
      <trkpt lat="44.1841" lon="4.65876">
        <ele>214.2</ele>
        <time>2013-11-23T10:25:26.423Z</time>
      </trkpt>
      <trkpt lat="44.18413" lon="4.65887">
        <ele>214.3</ele>
        <time>2013-11-23T10:25:30.519Z</time>
      </trkpt>
      <trkpt lat="44.18414" lon="4.65896">
        <ele>214.2</ele>
        <time>2013-11-23T10:25:33.435Z</time>
      </trkpt>
      <trkpt lat="44.18414" lon="4.65907">
        <ele>214.3</ele>
        <time>2013-11-23T10:25:37.413Z</time>
      </trkpt>
      <trkpt lat="44.18413" lon="4.6591">
        <ele>214.3</ele>
        <time>2013-11-23T10:25:38.413Z</time>
      </trkpt>
      <trkpt lat="44.18412" lon="4.65921">
        <ele>214.2</ele>
        <time>2013-11-23T10:25:42.572Z</time>
      </trkpt>
      <trkpt lat="44.18411" lon="4.65929">
        <ele>215.3</ele>
        <time>2013-11-23T10:25:45.429Z</time>
      </trkpt>
      <trkpt lat="44.18409" lon="4.65939">
        <ele>214.2</ele>
        <time>2013-11-23T10:25:48.430Z</time>
      </trkpt>
      <trkpt lat="44.18409" lon="4.65943">
        <ele>214</ele>
        <time>2013-11-23T10:25:49.444Z</time>
      </trkpt>
      <trkpt lat="44.18406" lon="4.65952">
        <ele>214.2</ele>
        <time>2013-11-23T10:25:52.611Z</time>
      </trkpt>
      <trkpt lat="44.18404" lon="4.65957">
        <ele>214.3</ele>
        <time>2013-11-23T10:25:54.426Z</time>
      </trkpt>
      <trkpt lat="44.18401" lon="4.65964">
        <ele>214.3</ele>
        <time>2013-11-23T10:25:57.451Z</time>
      </trkpt>
      <trkpt lat="44.18398" lon="4.6597">
        <ele>214.5</ele>
        <time>2013-11-23T10:25:59.439Z</time>
      </trkpt>
      <trkpt lat="44.18396" lon="4.65975">
        <ele>214.7</ele>
        <time>2013-11-23T10:26:01.721Z</time>
      </trkpt>
      <trkpt lat="44.18394" lon="4.65981">
        <ele>214.8</ele>
        <time>2013-11-23T10:26:03.429Z</time>
      </trkpt>
      <trkpt lat="44.18393" lon="4.65987">
        <ele>215.1</ele>
        <time>2013-11-23T10:26:05.440Z</time>
      </trkpt>
      <trkpt lat="44.18391" lon="4.65993">
        <ele>214.9</ele>
        <time>2013-11-23T10:26:07.406Z</time>
      </trkpt>
      <trkpt lat="44.18389" lon="4.66002">
        <ele>215</ele>
        <time>2013-11-23T10:26:10.431Z</time>
      </trkpt>
      <trkpt lat="44.18387" lon="4.66008">
        <ele>215.3</ele>
        <time>2013-11-23T10:26:12.419Z</time>
      </trkpt>
      <trkpt lat="44.18386" lon="4.66014">
        <ele>215.2</ele>
        <time>2013-11-23T10:26:14.463Z</time>
      </trkpt>
      <trkpt lat="44.18384" lon="4.6602">
        <ele>215.5</ele>
        <time>2013-11-23T10:26:16.423Z</time>
      </trkpt>
      <trkpt lat="44.18386" lon="4.66029">
        <ele>215.4</ele>
        <time>2013-11-23T10:26:19.422Z</time>
      </trkpt>
      <trkpt lat="44.18389" lon="4.66033">
        <ele>216.2</ele>
        <time>2013-11-23T10:26:21.423Z</time>
      </trkpt>
      <trkpt lat="44.18395" lon="4.66034">
        <ele>217.2</ele>
        <time>2013-11-23T10:26:24.426Z</time>
      </trkpt>
      <trkpt lat="44.18399" lon="4.66032">
        <ele>217.9</ele>
        <time>2013-11-23T10:26:26.422Z</time>
      </trkpt>
      <trkpt lat="44.18407" lon="4.6603">
        <ele>218.1</ele>
        <time>2013-11-23T10:26:30.537Z</time>
      </trkpt>
      <trkpt lat="44.18413" lon="4.6603">
        <ele>218.7</ele>
        <time>2013-11-23T10:26:33.422Z</time>
      </trkpt>
      <trkpt lat="44.18421" lon="4.66033">
        <ele>219.1</ele>
        <time>2013-11-23T10:26:37.535Z</time>
      </trkpt>
      <trkpt lat="44.18427" lon="4.66036">
        <ele>219.6</ele>
        <time>2013-11-23T10:26:40.423Z</time>
      </trkpt>
      <trkpt lat="44.18435" lon="4.66042">
        <ele>219.8</ele>
        <time>2013-11-23T10:26:44.428Z</time>
      </trkpt>
      <trkpt lat="44.18437" lon="4.66044">
        <ele>219.9</ele>
        <time>2013-11-23T10:26:45.429Z</time>
      </trkpt>
      <trkpt lat="44.18442" lon="4.66047">
        <ele>220.3</ele>
        <time>2013-11-23T10:26:48.424Z</time>
      </trkpt>
      <trkpt lat="44.18446" lon="4.66048">
        <ele>220.7</ele>
        <time>2013-11-23T10:26:50.421Z</time>
      </trkpt>
      <trkpt lat="44.18452" lon="4.66043">
        <ele>220.8</ele>
        <time>2013-11-23T10:26:53.423Z</time>
      </trkpt>
      <trkpt lat="44.18455" lon="4.66038">
        <ele>221.3</ele>
        <time>2013-11-23T10:26:55.423Z</time>
      </trkpt>
      <trkpt lat="44.18456" lon="4.66029">
        <ele>221.7</ele>
        <time>2013-11-23T10:26:58.422Z</time>
      </trkpt>
      <trkpt lat="44.18457" lon="4.66025">
        <ele>221.7</ele>
        <time>2013-11-23T10:26:59.422Z</time>
      </trkpt>
      <trkpt lat="44.18459" lon="4.66014">
        <ele>222.3</ele>
        <time>2013-11-23T10:27:03.438Z</time>
      </trkpt>
      <trkpt lat="44.1846" lon="4.66011">
        <ele>222.1</ele>
        <time>2013-11-23T10:27:04.443Z</time>
      </trkpt>
      <trkpt lat="44.18462" lon="4.66002">
        <ele>222.3</ele>
        <time>2013-11-23T10:27:07.420Z</time>
      </trkpt>
      <trkpt lat="44.18462" lon="4.65999">
        <ele>222.5</ele>
        <time>2013-11-23T10:27:08.424Z</time>
      </trkpt>
      <trkpt lat="44.18464" lon="4.65993">
        <ele>222.4</ele>
        <time>2013-11-23T10:27:10.435Z</time>
      </trkpt>
      <trkpt lat="44.18466" lon="4.65987">
        <ele>222.6</ele>
        <time>2013-11-23T10:27:12.465Z</time>
      </trkpt>
      <trkpt lat="44.18469" lon="4.65979">
        <ele>222.8</ele>
        <time>2013-11-23T10:27:15.424Z</time>
      </trkpt>
      <trkpt lat="44.18472" lon="4.65974">
        <ele>222.8</ele>
        <time>2013-11-23T10:27:17.425Z</time>
      </trkpt>
      <trkpt lat="44.18477" lon="4.65968">
        <ele>223.2</ele>
        <time>2013-11-23T10:27:20.436Z</time>
      </trkpt>
      <trkpt lat="44.18478" lon="4.65965">
        <ele>223.2</ele>
        <time>2013-11-23T10:27:21.456Z</time>
      </trkpt>
      <trkpt lat="44.18483" lon="4.65956">
        <ele>223.2</ele>
        <time>2013-11-23T10:27:25.425Z</time>
      </trkpt>
      <trkpt lat="44.18485" lon="4.65952">
        <ele>223.1</ele>
        <time>2013-11-23T10:27:27.433Z</time>
      </trkpt>
      <trkpt lat="44.18489" lon="4.65945">
        <ele>222.6</ele>
        <time>2013-11-23T10:27:30.443Z</time>
      </trkpt>
      <trkpt lat="44.18494" lon="4.6594">
        <ele>221.4</ele>
        <time>2013-11-23T10:27:32.424Z</time>
      </trkpt>
      <trkpt lat="44.18498" lon="4.65937">
        <ele>220.5</ele>
        <time>2013-11-23T10:27:33.426Z</time>
      </trkpt>
      <trkpt lat="44.18502" lon="4.65933">
        <ele>219.7</ele>
        <time>2013-11-23T10:27:34.426Z</time>
      </trkpt>
      <trkpt lat="44.18514" lon="4.65929">
        <ele>218.1</ele>
        <time>2013-11-23T10:27:36.422Z</time>
      </trkpt>
      <trkpt lat="44.1852" lon="4.65928">
        <ele>217.4</ele>
        <time>2013-11-23T10:27:37.424Z</time>
      </trkpt>
      <trkpt lat="44.1853" lon="4.65927">
        <ele>217.5</ele>
        <time>2013-11-23T10:27:39.422Z</time>
      </trkpt>
      <trkpt lat="44.18531" lon="4.65927">
        <ele>218.1</ele>
        <time>2013-11-23T10:27:42.421Z</time>
      </trkpt>
      <trkpt lat="44.18531" lon="4.65927">
        <ele>218.1</ele>
        <time>2013-11-23T10:27:43.421Z</time>
      </trkpt>
      <trkpt lat="44.1853" lon="4.65927">
        <ele>218.1</ele>
        <time>2013-11-23T10:27:51.537Z</time>
      </trkpt>
      <trkpt lat="44.18533" lon="4.65928">
        <ele>218.2</ele>
        <time>2013-11-23T10:27:56.426Z</time>
      </trkpt>
      <trkpt lat="44.18538" lon="4.65926">
        <ele>219.7</ele>
        <time>2013-11-23T10:27:59.425Z</time>
      </trkpt>
      <trkpt lat="44.18542" lon="4.65923">
        <ele>217.5</ele>
        <time>2013-11-23T10:28:01.423Z</time>
      </trkpt>
      <trkpt lat="44.18549" lon="4.65918">
        <ele>215.7</ele>
        <time>2013-11-23T10:28:04.425Z</time>
      </trkpt>
      <trkpt lat="44.18551" lon="4.65914">
        <ele>214.6</ele>
        <time>2013-11-23T10:28:06.423Z</time>
      </trkpt>
      <trkpt lat="44.18554" lon="4.65903">
        <ele>211.8</ele>
        <time>2013-11-23T10:28:09.422Z</time>
      </trkpt>
      <trkpt lat="44.18554" lon="4.65898">
        <ele>211</ele>
        <time>2013-11-23T10:28:10.422Z</time>
      </trkpt>
      <trkpt lat="44.18557" lon="4.65888">
        <ele>209.9</ele>
        <time>2013-11-23T10:28:13.417Z</time>
      </trkpt>
      <trkpt lat="44.18559" lon="4.65886">
        <ele>209.6</ele>
        <time>2013-11-23T10:28:14.421Z</time>
      </trkpt>
      <trkpt lat="44.18564" lon="4.65882">
        <ele>208.5</ele>
        <time>2013-11-23T10:28:16.420Z</time>
      </trkpt>
      <trkpt lat="44.18571" lon="4.65873">
        <ele>208.1</ele>
        <time>2013-11-23T10:28:18.417Z</time>
      </trkpt>
      <trkpt lat="44.18577" lon="4.65868">
        <ele>208.4</ele>
        <time>2013-11-23T10:28:19.420Z</time>
      </trkpt>
      <trkpt lat="44.18582" lon="4.65864">
        <ele>208.5</ele>
        <time>2013-11-23T10:28:20.423Z</time>
      </trkpt>
      <trkpt lat="44.1859" lon="4.6586">
        <ele>196.9</ele>
        <time>2013-11-23T10:28:21.422Z</time>
      </trkpt>
      <trkpt lat="44.18598" lon="4.65856">
        <ele>199</ele>
        <time>2013-11-23T10:28:23.422Z</time>
      </trkpt>
      <trkpt lat="44.18603" lon="4.65853">
        <ele>199.4</ele>
        <time>2013-11-23T10:28:25.424Z</time>
      </trkpt>
      <trkpt lat="44.18606" lon="4.65851">
        <ele>199.7</ele>
        <time>2013-11-23T10:28:26.424Z</time>
      </trkpt>
      <trkpt lat="44.18613" lon="4.65853">
        <ele>199.7</ele>
        <time>2013-11-23T10:28:28.436Z</time>
      </trkpt>
      <trkpt lat="44.18621" lon="4.65857">
        <ele>197.9</ele>
        <time>2013-11-23T10:28:29.437Z</time>
      </trkpt>
      <trkpt lat="44.18636" lon="4.65864">
        <ele>196.7</ele>
        <time>2013-11-23T10:28:31.491Z</time>
      </trkpt>
      <trkpt lat="44.18644" lon="4.65865">
        <ele>198.1</ele>
        <time>2013-11-23T10:28:33.439Z</time>
      </trkpt>
      <trkpt lat="44.18648" lon="4.65865">
        <ele>198.3</ele>
        <time>2013-11-23T10:28:35.434Z</time>
      </trkpt>
      <trkpt lat="44.18653" lon="4.65866">
        <ele>198.5</ele>
        <time>2013-11-23T10:28:38.440Z</time>
      </trkpt>
      <trkpt lat="44.18659" lon="4.65867">
        <ele>199.3</ele>
        <time>2013-11-23T10:28:40.434Z</time>
      </trkpt>
      <trkpt lat="44.18667" lon="4.65868">
        <ele>200.5</ele>
        <time>2013-11-23T10:28:42.406Z</time>
      </trkpt>
      <trkpt lat="44.18671" lon="4.65868">
        <ele>201.7</ele>
        <time>2013-11-23T10:28:43.419Z</time>
      </trkpt>
      <trkpt lat="44.18678" lon="4.65867">
        <ele>202.4</ele>
        <time>2013-11-23T10:28:45.424Z</time>
      </trkpt>
      <trkpt lat="44.18682" lon="4.65866">
        <ele>202.8</ele>
        <time>2013-11-23T10:28:46.439Z</time>
      </trkpt>
      <trkpt lat="44.1869" lon="4.65861">
        <ele>202.9</ele>
        <time>2013-11-23T10:28:48.433Z</time>
      </trkpt>
      <trkpt lat="44.18697" lon="4.65861">
        <ele>195.1</ele>
        <time>2013-11-23T10:28:49.439Z</time>
      </trkpt>
      <trkpt lat="44.18709" lon="4.65859">
        <ele>194.6</ele>
        <time>2013-11-23T10:28:51.419Z</time>
      </trkpt>
      <trkpt lat="44.18715" lon="4.65855">
        <ele>201.7</ele>
        <time>2013-11-23T10:28:58.909Z</time>
      </trkpt>
      <trkpt lat="44.18721" lon="4.65854">
        <ele>203.3</ele>
        <time>2013-11-23T10:29:02.426Z</time>
      </trkpt>
      <trkpt lat="44.18729" lon="4.65854">
        <ele>204.1</ele>
        <time>2013-11-23T10:29:06.423Z</time>
      </trkpt>
      <trkpt lat="44.18733" lon="4.65854">
        <ele>203.9</ele>
        <time>2013-11-23T10:29:08.419Z</time>
      </trkpt>
      <trkpt lat="44.1874" lon="4.65859">
        <ele>201.4</ele>
        <time>2013-11-23T10:29:12.536Z</time>
      </trkpt>
      <trkpt lat="44.18746" lon="4.65863">
        <ele>199.4</ele>
        <time>2013-11-23T10:29:15.463Z</time>
      </trkpt>
      <trkpt lat="44.18752" lon="4.65867">
        <ele>198.6</ele>
        <time>2013-11-23T10:29:18.429Z</time>
      </trkpt>
      <trkpt lat="44.18756" lon="4.65869">
        <ele>198.2</ele>
        <time>2013-11-23T10:29:20.426Z</time>
      </trkpt>
      <trkpt lat="44.1876" lon="4.65873">
        <ele>199.4</ele>
        <time>2013-11-23T10:29:23.424Z</time>
      </trkpt>
      <trkpt lat="44.18764" lon="4.65876">
        <ele>199.5</ele>
        <time>2013-11-23T10:29:25.424Z</time>
      </trkpt>
      <trkpt lat="44.18769" lon="4.65878">
        <ele>200.9</ele>
        <time>2013-11-23T10:29:28.425Z</time>
      </trkpt>
      <trkpt lat="44.18773" lon="4.6588">
        <ele>200.6</ele>
        <time>2013-11-23T10:29:30.423Z</time>
      </trkpt>
      <trkpt lat="44.18781" lon="4.65883">
        <ele>198.9</ele>
        <time>2013-11-23T10:29:34.423Z</time>
      </trkpt>
      <trkpt lat="44.18782" lon="4.65884">
        <ele>198.4</ele>
        <time>2013-11-23T10:29:35.425Z</time>
      </trkpt>
      <trkpt lat="44.18788" lon="4.65884">
        <ele>201.2</ele>
        <time>2013-11-23T10:29:38.429Z</time>
      </trkpt>
      <trkpt lat="44.18794" lon="4.65886">
        <ele>199.7</ele>
        <time>2013-11-23T10:29:40.422Z</time>
      </trkpt>
      <trkpt lat="44.18801" lon="4.65888">
        <ele>200.4</ele>
        <time>2013-11-23T10:29:43.423Z</time>
      </trkpt>
      <trkpt lat="44.18805" lon="4.6589">
        <ele>200.9</ele>
        <time>2013-11-23T10:29:45.422Z</time>
      </trkpt>
      <trkpt lat="44.18813" lon="4.65893">
        <ele>201.5</ele>
        <time>2013-11-23T10:29:49.441Z</time>
      </trkpt>
      <trkpt lat="44.18815" lon="4.65893">
        <ele>201.9</ele>
        <time>2013-11-23T10:29:50.511Z</time>
      </trkpt>
      <trkpt lat="44.18824" lon="4.65893">
        <ele>201.3</ele>
        <time>2013-11-23T10:29:53.481Z</time>
      </trkpt>
      <trkpt lat="44.18829" lon="4.65892">
        <ele>202.1</ele>
        <time>2013-11-23T10:29:55.423Z</time>
      </trkpt>
      <trkpt lat="44.18836" lon="4.65888">
        <ele>201.3</ele>
        <time>2013-11-23T10:29:58.441Z</time>
      </trkpt>
      <trkpt lat="44.18839" lon="4.65882">
        <ele>200</ele>
        <time>2013-11-23T10:30:00.420Z</time>
      </trkpt>
      <trkpt lat="44.18841" lon="4.65872">
        <ele>198.5</ele>
        <time>2013-11-23T10:30:02.423Z</time>
      </trkpt>
      <trkpt lat="44.18842" lon="4.65866">
        <ele>198.2</ele>
        <time>2013-11-23T10:30:03.422Z</time>
      </trkpt>
      <trkpt lat="44.18843" lon="4.65858">
        <ele>197.5</ele>
        <time>2013-11-23T10:30:04.422Z</time>
      </trkpt>
      <trkpt lat="44.18844" lon="4.6585">
        <ele>197</ele>
        <time>2013-11-23T10:30:05.437Z</time>
      </trkpt>
      <trkpt lat="44.18845" lon="4.65832">
        <ele>196.2</ele>
        <time>2013-11-23T10:30:07.436Z</time>
      </trkpt>
      <trkpt lat="44.18844" lon="4.65823">
        <ele>195.5</ele>
        <time>2013-11-23T10:30:08.441Z</time>
      </trkpt>
      <trkpt lat="44.18843" lon="4.65806">
        <ele>192.6</ele>
        <time>2013-11-23T10:30:10.423Z</time>
      </trkpt>
      <trkpt lat="44.18842" lon="4.65792">
        <ele>189.8</ele>
        <time>2013-11-23T10:30:12.432Z</time>
      </trkpt>
      <trkpt lat="44.18842" lon="4.65787">
        <ele>188.6</ele>
        <time>2013-11-23T10:30:13.437Z</time>
      </trkpt>
      <trkpt lat="44.18838" lon="4.65777">
        <ele>187.6</ele>
        <time>2013-11-23T10:30:15.501Z</time>
      </trkpt>
      <trkpt lat="44.1883" lon="4.65769">
        <ele>184.4</ele>
        <time>2013-11-23T10:30:17.424Z</time>
      </trkpt>
      <trkpt lat="44.18824" lon="4.65762">
        <ele>183.6</ele>
        <time>2013-11-23T10:30:19.423Z</time>
      </trkpt>
      <trkpt lat="44.18821" lon="4.65758">
        <ele>182.9</ele>
        <time>2013-11-23T10:30:20.423Z</time>
      </trkpt>
      <trkpt lat="44.1882" lon="4.65747">
        <ele>184.8</ele>
        <time>2013-11-23T10:30:22.424Z</time>
      </trkpt>
      <trkpt lat="44.1882" lon="4.6574">
        <ele>185.2</ele>
        <time>2013-11-23T10:30:23.424Z</time>
      </trkpt>
      <trkpt lat="44.18814" lon="4.65732">
        <ele>187.2</ele>
        <time>2013-11-23T10:30:27.536Z</time>
      </trkpt>
      <trkpt lat="44.18806" lon="4.65723">
        <ele>184.9</ele>
        <time>2013-11-23T10:30:30.422Z</time>
      </trkpt>
      <trkpt lat="44.18806" lon="4.65718">
        <ele>184.9</ele>
        <time>2013-11-23T10:30:31.425Z</time>
      </trkpt>
      <trkpt lat="44.1881" lon="4.6571">
        <ele>182.9</ele>
        <time>2013-11-23T10:30:33.422Z</time>
      </trkpt>
      <trkpt lat="44.18815" lon="4.65703">
        <ele>181.4</ele>
        <time>2013-11-23T10:30:35.421Z</time>
      </trkpt>
      <trkpt lat="44.18819" lon="4.65698">
        <ele>179.3</ele>
        <time>2013-11-23T10:30:37.421Z</time>
      </trkpt>
      <trkpt lat="44.18822" lon="4.65689">
        <ele>179.3</ele>
        <time>2013-11-23T10:30:39.422Z</time>
      </trkpt>
      <trkpt lat="44.18822" lon="4.65686">
        <ele>179.1</ele>
        <time>2013-11-23T10:30:40.426Z</time>
      </trkpt>
      <trkpt lat="44.18822" lon="4.65674">
        <ele>177</ele>
        <time>2013-11-23T10:30:43.423Z</time>
      </trkpt>
      <trkpt lat="44.18824" lon="4.65664">
        <ele>175.7</ele>
        <time>2013-11-23T10:30:45.422Z</time>
      </trkpt>
      <trkpt lat="44.18826" lon="4.65661">
        <ele>175.9</ele>
        <time>2013-11-23T10:30:46.426Z</time>
      </trkpt>
      <trkpt lat="44.18832" lon="4.65657">
        <ele>176.2</ele>
        <time>2013-11-23T10:30:48.421Z</time>
      </trkpt>
      <trkpt lat="44.18832" lon="4.65645">
        <ele>174.5</ele>
        <time>2013-11-23T10:30:52.429Z</time>
      </trkpt>
      <trkpt lat="44.18833" lon="4.65641">
        <ele>173.8</ele>
        <time>2013-11-23T10:30:53.431Z</time>
      </trkpt>
      <trkpt lat="44.18839" lon="4.65633">
        <ele>174.6</ele>
        <time>2013-11-23T10:30:56.426Z</time>
      </trkpt>
      <trkpt lat="44.18843" lon="4.65632">
        <ele>174.7</ele>
        <time>2013-11-23T10:30:57.426Z</time>
      </trkpt>
      <trkpt lat="44.1885" lon="4.65629">
        <ele>175.5</ele>
        <time>2013-11-23T10:30:59.424Z</time>
      </trkpt>
      <trkpt lat="44.18857" lon="4.65624">
        <ele>175.1</ele>
        <time>2013-11-23T10:31:01.418Z</time>
      </trkpt>
      <trkpt lat="44.18861" lon="4.65621">
        <ele>175.3</ele>
        <time>2013-11-23T10:31:02.423Z</time>
      </trkpt>
      <trkpt lat="44.18866" lon="4.65618">
        <ele>174.6</ele>
        <time>2013-11-23T10:31:03.426Z</time>
      </trkpt>
      <trkpt lat="44.1887" lon="4.65614">
        <ele>174.1</ele>
        <time>2013-11-23T10:31:04.425Z</time>
      </trkpt>
      <trkpt lat="44.18874" lon="4.65609">
        <ele>173.4</ele>
        <time>2013-11-23T10:31:05.425Z</time>
      </trkpt>
      <trkpt lat="44.18883" lon="4.656">
        <ele>171.3</ele>
        <time>2013-11-23T10:31:07.424Z</time>
      </trkpt>
      <trkpt lat="44.18891" lon="4.65591">
        <ele>170.4</ele>
        <time>2013-11-23T10:31:09.427Z</time>
      </trkpt>
      <trkpt lat="44.18898" lon="4.65586">
        <ele>169.9</ele>
        <time>2013-11-23T10:31:11.409Z</time>
      </trkpt>
      <trkpt lat="44.18901" lon="4.65585">
        <ele>169.7</ele>
        <time>2013-11-23T10:31:12.440Z</time>
      </trkpt>
      <trkpt lat="44.18903" lon="4.65578">
        <ele>166.4</ele>
        <time>2013-11-23T10:31:17.555Z</time>
      </trkpt>
      <trkpt lat="44.18894" lon="4.65577">
        <ele>165</ele>
        <time>2013-11-23T10:31:20.401Z</time>
      </trkpt>
      <trkpt lat="44.18887" lon="4.65577">
        <ele>165</ele>
        <time>2013-11-23T10:31:22.425Z</time>
      </trkpt>
      <trkpt lat="44.18883" lon="4.65578">
        <ele>165.1</ele>
        <time>2013-11-23T10:31:23.426Z</time>
      </trkpt>
      <trkpt lat="44.18876" lon="4.65581">
        <ele>164.9</ele>
        <time>2013-11-23T10:31:25.418Z</time>
      </trkpt>
      <trkpt lat="44.18872" lon="4.65583">
        <ele>165</ele>
        <time>2013-11-23T10:31:26.479Z</time>
      </trkpt>
      <trkpt lat="44.18865" lon="4.65587">
        <ele>165.3</ele>
        <time>2013-11-23T10:31:28.442Z</time>
      </trkpt>
      <trkpt lat="44.1886" lon="4.65589">
        <ele>165.2</ele>
        <time>2013-11-23T10:31:29.450Z</time>
      </trkpt>
      <trkpt lat="44.18852" lon="4.65594">
        <ele>165.4</ele>
        <time>2013-11-23T10:31:31.447Z</time>
      </trkpt>
      <trkpt lat="44.18844" lon="4.65599">
        <ele>165.5</ele>
        <time>2013-11-23T10:31:33.441Z</time>
      </trkpt>
      <trkpt lat="44.18841" lon="4.65602">
        <ele>166</ele>
        <time>2013-11-23T10:31:34.479Z</time>
      </trkpt>
      <trkpt lat="44.18834" lon="4.65607">
        <ele>166.2</ele>
        <time>2013-11-23T10:31:36.435Z</time>
      </trkpt>
      <trkpt lat="44.18828" lon="4.65611">
        <ele>166.5</ele>
        <time>2013-11-23T10:31:38.424Z</time>
      </trkpt>
      <trkpt lat="44.18821" lon="4.65615">
        <ele>166.1</ele>
        <time>2013-11-23T10:31:40.426Z</time>
      </trkpt>
      <trkpt lat="44.18815" lon="4.65615">
        <ele>166.9</ele>
        <time>2013-11-23T10:31:42.422Z</time>
      </trkpt>
      <trkpt lat="44.18812" lon="4.65613">
        <ele>167</ele>
        <time>2013-11-23T10:31:43.425Z</time>
      </trkpt>
      <trkpt lat="44.18808" lon="4.65604">
        <ele>166.1</ele>
        <time>2013-11-23T10:31:45.425Z</time>
      </trkpt>
      <trkpt lat="44.18807" lon="4.65599">
        <ele>165.8</ele>
        <time>2013-11-23T10:31:46.442Z</time>
      </trkpt>
      <trkpt lat="44.18807" lon="4.65585">
        <ele>165.1</ele>
        <time>2013-11-23T10:31:48.424Z</time>
      </trkpt>
      <trkpt lat="44.18807" lon="4.65578">
        <ele>164.6</ele>
        <time>2013-11-23T10:31:49.426Z</time>
      </trkpt>
      <trkpt lat="44.18807" lon="4.6557">
        <ele>163.8</ele>
        <time>2013-11-23T10:31:50.431Z</time>
      </trkpt>
      <trkpt lat="44.18808" lon="4.65563">
        <ele>163.5</ele>
        <time>2013-11-23T10:31:51.431Z</time>
      </trkpt>
      <trkpt lat="44.18808" lon="4.65548">
        <ele>162.6</ele>
        <time>2013-11-23T10:31:53.427Z</time>
      </trkpt>
      <trkpt lat="44.1881" lon="4.65532">
        <ele>161.3</ele>
        <time>2013-11-23T10:31:55.424Z</time>
      </trkpt>
      <trkpt lat="44.18811" lon="4.65524">
        <ele>160.8</ele>
        <time>2013-11-23T10:31:56.423Z</time>
      </trkpt>
      <trkpt lat="44.18812" lon="4.65515">
        <ele>160.4</ele>
        <time>2013-11-23T10:31:57.425Z</time>
      </trkpt>
      <trkpt lat="44.18813" lon="4.65506">
        <ele>160</ele>
        <time>2013-11-23T10:31:58.441Z</time>
      </trkpt>
      <trkpt lat="44.18816" lon="4.65488">
        <ele>159.1</ele>
        <time>2013-11-23T10:32:00.423Z</time>
      </trkpt>
      <trkpt lat="44.18818" lon="4.65469">
        <ele>158.4</ele>
        <time>2013-11-23T10:32:02.421Z</time>
      </trkpt>
      <trkpt lat="44.1882" lon="4.65459">
        <ele>157.8</ele>
        <time>2013-11-23T10:32:03.425Z</time>
      </trkpt>
      <trkpt lat="44.18821" lon="4.6545">
        <ele>157.5</ele>
        <time>2013-11-23T10:32:04.425Z</time>
      </trkpt>
      <trkpt lat="44.18825" lon="4.6543">
        <ele>156.9</ele>
        <time>2013-11-23T10:32:06.402Z</time>
      </trkpt>
      <trkpt lat="44.18828" lon="4.65421">
        <ele>156.4</ele>
        <time>2013-11-23T10:32:07.420Z</time>
      </trkpt>
      <trkpt lat="44.18831" lon="4.65412">
        <ele>156.3</ele>
        <time>2013-11-23T10:32:08.425Z</time>
      </trkpt>
      <trkpt lat="44.18835" lon="4.65403">
        <ele>156.2</ele>
        <time>2013-11-23T10:32:09.425Z</time>
      </trkpt>
      <trkpt lat="44.18841" lon="4.65396">
        <ele>155.6</ele>
        <time>2013-11-23T10:32:10.428Z</time>
      </trkpt>
      <trkpt lat="44.18846" lon="4.65389">
        <ele>155.3</ele>
        <time>2013-11-23T10:32:11.429Z</time>
      </trkpt>
      <trkpt lat="44.1885" lon="4.6538">
        <ele>155.2</ele>
        <time>2013-11-23T10:32:13.427Z</time>
      </trkpt>
      <trkpt lat="44.18847" lon="4.65377">
        <ele>154.7</ele>
        <time>2013-11-23T10:32:15.426Z</time>
      </trkpt>
      <trkpt lat="44.18841" lon="4.65378">
        <ele>155</ele>
        <time>2013-11-23T10:32:17.423Z</time>
      </trkpt>
      <trkpt lat="44.18834" lon="4.65379">
        <ele>155.2</ele>
        <time>2013-11-23T10:32:19.424Z</time>
      </trkpt>
      <trkpt lat="44.1883" lon="4.65379">
        <ele>155.5</ele>
        <time>2013-11-23T10:32:20.425Z</time>
      </trkpt>
      <trkpt lat="44.18824" lon="4.65377">
        <ele>155.6</ele>
        <time>2013-11-23T10:32:22.437Z</time>
      </trkpt>
      <trkpt lat="44.18821" lon="4.65376">
        <ele>155.7</ele>
        <time>2013-11-23T10:32:23.442Z</time>
      </trkpt>
      <trkpt lat="44.18816" lon="4.65376">
        <ele>155.6</ele>
        <time>2013-11-23T10:32:25.424Z</time>
      </trkpt>
      <trkpt lat="44.1881" lon="4.65376">
        <ele>155.8</ele>
        <time>2013-11-23T10:32:27.421Z</time>
      </trkpt>
      <trkpt lat="44.18802" lon="4.65376">
        <ele>156.6</ele>
        <time>2013-11-23T10:32:30.437Z</time>
      </trkpt>
      <trkpt lat="44.18796" lon="4.65376">
        <ele>157.1</ele>
        <time>2013-11-23T10:32:32.438Z</time>
      </trkpt>
      <trkpt lat="44.18788" lon="4.65376">
        <ele>158.1</ele>
        <time>2013-11-23T10:32:35.422Z</time>
      </trkpt>
      <trkpt lat="44.18785" lon="4.65376">
        <ele>158.2</ele>
        <time>2013-11-23T10:32:36.423Z</time>
      </trkpt>
      <trkpt lat="44.18778" lon="4.65377">
        <ele>159</ele>
        <time>2013-11-23T10:32:38.437Z</time>
      </trkpt>
      <trkpt lat="44.18772" lon="4.65378">
        <ele>157.7</ele>
        <time>2013-11-23T10:32:40.436Z</time>
      </trkpt>
      <trkpt lat="44.18765" lon="4.65379">
        <ele>158.1</ele>
        <time>2013-11-23T10:32:42.423Z</time>
      </trkpt>
      <trkpt lat="44.1876" lon="4.65381">
        <ele>158.7</ele>
        <time>2013-11-23T10:32:44.418Z</time>
      </trkpt>
      <trkpt lat="44.18752" lon="4.65384">
        <ele>159.7</ele>
        <time>2013-11-23T10:32:47.435Z</time>
      </trkpt>
      <trkpt lat="44.18749" lon="4.65385">
        <ele>160.1</ele>
        <time>2013-11-23T10:32:48.435Z</time>
      </trkpt>
      <trkpt lat="44.18741" lon="4.65387">
        <ele>160.2</ele>
        <time>2013-11-23T10:32:51.411Z</time>
      </trkpt>
      <trkpt lat="44.18738" lon="4.65388">
        <ele>160.7</ele>
        <time>2013-11-23T10:32:52.420Z</time>
      </trkpt>
      <trkpt lat="44.18735" lon="4.65389">
        <ele>161</ele>
        <time>2013-11-23T10:32:53.423Z</time>
      </trkpt>
      <trkpt lat="44.18729" lon="4.6539">
        <ele>161.3</ele>
        <time>2013-11-23T10:32:55.422Z</time>
      </trkpt>
      <trkpt lat="44.18726" lon="4.6539">
        <ele>161.4</ele>
        <time>2013-11-23T10:32:56.425Z</time>
      </trkpt>
      <trkpt lat="44.1872" lon="4.65392">
        <ele>161.7</ele>
        <time>2013-11-23T10:32:58.423Z</time>
      </trkpt>
      <trkpt lat="44.18711" lon="4.65392">
        <ele>161.6</ele>
        <time>2013-11-23T10:33:01.408Z</time>
      </trkpt>
      <trkpt lat="44.18709" lon="4.65393">
        <ele>162.2</ele>
        <time>2013-11-23T10:33:02.419Z</time>
      </trkpt>
      <trkpt lat="44.18701" lon="4.65395">
        <ele>163</ele>
        <time>2013-11-23T10:33:05.423Z</time>
      </trkpt>
      <trkpt lat="44.18695" lon="4.65396">
        <ele>163.5</ele>
        <time>2013-11-23T10:33:07.420Z</time>
      </trkpt>
      <trkpt lat="44.18687" lon="4.65397">
        <ele>164.2</ele>
        <time>2013-11-23T10:33:10.425Z</time>
      </trkpt>
      <trkpt lat="44.18681" lon="4.65399">
        <ele>165.1</ele>
        <time>2013-11-23T10:33:12.422Z</time>
      </trkpt>
      <trkpt lat="44.18673" lon="4.65401">
        <ele>165.2</ele>
        <time>2013-11-23T10:33:15.422Z</time>
      </trkpt>
      <trkpt lat="44.1867" lon="4.65401">
        <ele>165.4</ele>
        <time>2013-11-23T10:33:16.422Z</time>
      </trkpt>
      <trkpt lat="44.18662" lon="4.65402">
        <ele>166.2</ele>
        <time>2013-11-23T10:33:19.423Z</time>
      </trkpt>
      <trkpt lat="44.18659" lon="4.65402">
        <ele>166.4</ele>
        <time>2013-11-23T10:33:20.424Z</time>
      </trkpt>
      <trkpt lat="44.18652" lon="4.65403">
        <ele>166.3</ele>
        <time>2013-11-23T10:33:23.421Z</time>
      </trkpt>
      <trkpt lat="44.18649" lon="4.65404">
        <ele>165.9</ele>
        <time>2013-11-23T10:33:24.421Z</time>
      </trkpt>
      <trkpt lat="44.18641" lon="4.65403">
        <ele>165.9</ele>
        <time>2013-11-23T10:33:27.422Z</time>
      </trkpt>
      <trkpt lat="44.18638" lon="4.65403">
        <ele>165.8</ele>
        <time>2013-11-23T10:33:28.424Z</time>
      </trkpt>
      <trkpt lat="44.1863" lon="4.65403">
        <ele>166</ele>
        <time>2013-11-23T10:33:31.423Z</time>
      </trkpt>
      <trkpt lat="44.18628" lon="4.65403">
        <ele>166.1</ele>
        <time>2013-11-23T10:33:32.424Z</time>
      </trkpt>
      <trkpt lat="44.1862" lon="4.65404">
        <ele>167</ele>
        <time>2013-11-23T10:33:35.578Z</time>
      </trkpt>
      <trkpt lat="44.18615" lon="4.65404">
        <ele>167.3</ele>
        <time>2013-11-23T10:33:37.424Z</time>
      </trkpt>
      <trkpt lat="44.18606" lon="4.65405">
        <ele>167.9</ele>
        <time>2013-11-23T10:33:40.444Z</time>
      </trkpt>
      <trkpt lat="44.18604" lon="4.65406">
        <ele>167.9</ele>
        <time>2013-11-23T10:33:41.520Z</time>
      </trkpt>
      <trkpt lat="44.18595" lon="4.65407">
        <ele>167.6</ele>
        <time>2013-11-23T10:33:44.427Z</time>
      </trkpt>
      <trkpt lat="44.1859" lon="4.65408">
        <ele>167.9</ele>
        <time>2013-11-23T10:33:46.426Z</time>
      </trkpt>
      <trkpt lat="44.18585" lon="4.65409">
        <ele>168.5</ele>
        <time>2013-11-23T10:33:48.443Z</time>
      </trkpt>
      <trkpt lat="44.18579" lon="4.6541">
        <ele>169.3</ele>
        <time>2013-11-23T10:33:50.531Z</time>
      </trkpt>
      <trkpt lat="44.18573" lon="4.65409">
        <ele>170.3</ele>
        <time>2013-11-23T10:33:53.428Z</time>
      </trkpt>
      <trkpt lat="44.18568" lon="4.65407">
        <ele>170.3</ele>
        <time>2013-11-23T10:33:55.423Z</time>
      </trkpt>
      <trkpt lat="44.18563" lon="4.65401">
        <ele>171.2</ele>
        <time>2013-11-23T10:33:58.434Z</time>
      </trkpt>
      <trkpt lat="44.18561" lon="4.65398">
        <ele>171.4</ele>
        <time>2013-11-23T10:33:59.471Z</time>
      </trkpt>
      <trkpt lat="44.18555" lon="4.65389">
        <ele>171.7</ele>
        <time>2013-11-23T10:34:04.426Z</time>
      </trkpt>
      <trkpt lat="44.18555" lon="4.65389">
        <ele>171.7</ele>
        <time>2013-11-23T10:34:04.539Z</time>
      </trkpt>
      <trkpt lat="44.18549" lon="4.65381">
        <ele>171.1</ele>
        <time>2013-11-23T10:34:08.500Z</time>
      </trkpt>
      <trkpt lat="44.18546" lon="4.65378">
        <ele>171</ele>
        <time>2013-11-23T10:34:10.425Z</time>
      </trkpt>
      <trkpt lat="44.18542" lon="4.65372">
        <ele>171.2</ele>
        <time>2013-11-23T10:34:13.651Z</time>
      </trkpt>
      <trkpt lat="44.1854" lon="4.65369">
        <ele>171.8</ele>
        <time>2013-11-23T10:34:15.427Z</time>
      </trkpt>
      <trkpt lat="44.18535" lon="4.65362">
        <ele>174</ele>
        <time>2013-11-23T10:34:20.687Z</time>
      </trkpt>
      <trkpt lat="44.18531" lon="4.65359">
        <ele>174.4</ele>
        <time>2013-11-23T10:34:23.434Z</time>
      </trkpt>
      <trkpt lat="44.18526" lon="4.65355">
        <ele>173.5</ele>
        <time>2013-11-23T10:34:27.426Z</time>
      </trkpt>
      <trkpt lat="44.18523" lon="4.65351">
        <ele>173.5</ele>
        <time>2013-11-23T10:34:29.426Z</time>
      </trkpt>
      <trkpt lat="44.18517" lon="4.65344">
        <ele>172.8</ele>
        <time>2013-11-23T10:34:33.425Z</time>
      </trkpt>
      <trkpt lat="44.18515" lon="4.65343">
        <ele>173</ele>
        <time>2013-11-23T10:34:34.426Z</time>
      </trkpt>
      <trkpt lat="44.18508" lon="4.65338">
        <ele>173.2</ele>
        <time>2013-11-23T10:34:39.536Z</time>
      </trkpt>
      <trkpt lat="44.18502" lon="4.65337">
        <ele>173.5</ele>
        <time>2013-11-23T10:34:42.422Z</time>
      </trkpt>
      <trkpt lat="44.18496" lon="4.65335">
        <ele>173.8</ele>
        <time>2013-11-23T10:34:46.551Z</time>
      </trkpt>
      <trkpt lat="44.18492" lon="4.65333">
        <ele>174.3</ele>
        <time>2013-11-23T10:34:49.424Z</time>
      </trkpt>
      <trkpt lat="44.18486" lon="4.6533">
        <ele>175.3</ele>
        <time>2013-11-23T10:34:53.548Z</time>
      </trkpt>
      <trkpt lat="44.18481" lon="4.65327">
        <ele>175.3</ele>
        <time>2013-11-23T10:34:56.439Z</time>
      </trkpt>
      <trkpt lat="44.18474" lon="4.65322">
        <ele>175.7</ele>
        <time>2013-11-23T10:35:01.423Z</time>
      </trkpt>
      <trkpt lat="44.18473" lon="4.65321">
        <ele>175.9</ele>
        <time>2013-11-23T10:35:02.429Z</time>
      </trkpt>
      <trkpt lat="44.18466" lon="4.65315">
        <ele>176.2</ele>
        <time>2013-11-23T10:35:07.545Z</time>
      </trkpt>
      <trkpt lat="44.18461" lon="4.6531">
        <ele>176</ele>
        <time>2013-11-23T10:35:10.428Z</time>
      </trkpt>
      <trkpt lat="44.18456" lon="4.65304">
        <ele>175.5</ele>
        <time>2013-11-23T10:35:14.422Z</time>
      </trkpt>
      <trkpt lat="44.18453" lon="4.65302">
        <ele>175.5</ele>
        <time>2013-11-23T10:35:16.428Z</time>
      </trkpt>
      <trkpt lat="44.18446" lon="4.65294">
        <ele>176.8</ele>
        <time>2013-11-23T10:35:21.536Z</time>
      </trkpt>
      <trkpt lat="44.18443" lon="4.65291">
        <ele>177.1</ele>
        <time>2013-11-23T10:35:24.425Z</time>
      </trkpt>
      <trkpt lat="44.18437" lon="4.65286">
        <ele>177.8</ele>
        <time>2013-11-23T10:35:28.701Z</time>
      </trkpt>
      <trkpt lat="44.18433" lon="4.65282">
        <ele>177.4</ele>
        <time>2013-11-23T10:35:31.423Z</time>
      </trkpt>
      <trkpt lat="44.18429" lon="4.65278">
        <ele>178.7</ele>
        <time>2013-11-23T10:35:35.733Z</time>
      </trkpt>
      <trkpt lat="44.18425" lon="4.65274">
        <ele>179.8</ele>
        <time>2013-11-23T10:35:38.434Z</time>
      </trkpt>
      <trkpt lat="44.18422" lon="4.65267">
        <ele>184.6</ele>
        <time>2013-11-23T10:35:41.437Z</time>
      </trkpt>
      <trkpt lat="44.1842" lon="4.65264">
        <ele>185.8</ele>
        <time>2013-11-23T10:35:43.426Z</time>
      </trkpt>
      <trkpt lat="44.18412" lon="4.65257">
        <ele>186.2</ele>
        <time>2013-11-23T10:35:47.427Z</time>
      </trkpt>
      <trkpt lat="44.18412" lon="4.65257">
        <ele>186.2</ele>
        <time>2013-11-23T10:35:47.515Z</time>
      </trkpt>
      <trkpt lat="44.18405" lon="4.65249">
        <ele>187</ele>
        <time>2013-11-23T10:35:51.424Z</time>
      </trkpt>
      <trkpt lat="44.18404" lon="4.65247">
        <ele>187.7</ele>
        <time>2013-11-23T10:35:52.424Z</time>
      </trkpt>
      <trkpt lat="44.184" lon="4.65239">
        <ele>187.5</ele>
        <time>2013-11-23T10:35:55.423Z</time>
      </trkpt>
      <trkpt lat="44.18399" lon="4.65236">
        <ele>187.2</ele>
        <time>2013-11-23T10:35:56.426Z</time>
      </trkpt>
      <trkpt lat="44.18395" lon="4.65229">
        <ele>187.1</ele>
        <time>2013-11-23T10:35:59.423Z</time>
      </trkpt>
      <trkpt lat="44.18393" lon="4.65225">
        <ele>186.7</ele>
        <time>2013-11-23T10:36:01.444Z</time>
      </trkpt>
      <trkpt lat="44.1839" lon="4.65219">
        <ele>186.3</ele>
        <time>2013-11-23T10:36:04.423Z</time>
      </trkpt>
      <trkpt lat="44.18387" lon="4.65216">
        <ele>186.6</ele>
        <time>2013-11-23T10:36:06.420Z</time>
      </trkpt>
      <trkpt lat="44.18381" lon="4.65209">
        <ele>187.6</ele>
        <time>2013-11-23T10:36:10.534Z</time>
      </trkpt>
      <trkpt lat="44.18377" lon="4.65203">
        <ele>187.5</ele>
        <time>2013-11-23T10:36:13.447Z</time>
      </trkpt>
      <trkpt lat="44.18372" lon="4.65196">
        <ele>188.4</ele>
        <time>2013-11-23T10:36:17.546Z</time>
      </trkpt>
      <trkpt lat="44.18367" lon="4.65192">
        <ele>188.6</ele>
        <time>2013-11-23T10:36:20.448Z</time>
      </trkpt>
      <trkpt lat="44.18361" lon="4.65186">
        <ele>188.5</ele>
        <time>2013-11-23T10:36:24.566Z</time>
      </trkpt>
      <trkpt lat="44.18357" lon="4.65183">
        <ele>189</ele>
        <time>2013-11-23T10:36:27.424Z</time>
      </trkpt>
      <trkpt lat="44.18351" lon="4.65178">
        <ele>189.7</ele>
        <time>2013-11-23T10:36:31.491Z</time>
      </trkpt>
      <trkpt lat="44.18347" lon="4.65174">
        <ele>190.1</ele>
        <time>2013-11-23T10:36:34.434Z</time>
      </trkpt>
      <trkpt lat="44.1834" lon="4.65166">
        <ele>190</ele>
        <time>2013-11-23T10:36:39.533Z</time>
      </trkpt>
      <trkpt lat="44.18336" lon="4.65162">
        <ele>189.7</ele>
        <time>2013-11-23T10:36:42.422Z</time>
      </trkpt>
      <trkpt lat="44.1833" lon="4.65156">
        <ele>189.7</ele>
        <time>2013-11-23T10:36:46.661Z</time>
      </trkpt>
      <trkpt lat="44.18326" lon="4.65152">
        <ele>189.7</ele>
        <time>2013-11-23T10:36:49.448Z</time>
      </trkpt>
      <trkpt lat="44.18321" lon="4.65145">
        <ele>189.7</ele>
        <time>2013-11-23T10:36:53.439Z</time>
      </trkpt>
      <trkpt lat="44.18318" lon="4.65142">
        <ele>190</ele>
        <time>2013-11-23T10:36:55.439Z</time>
      </trkpt>
      <trkpt lat="44.18312" lon="4.65136">
        <ele>190.5</ele>
        <time>2013-11-23T10:36:59.424Z</time>
      </trkpt>
      <trkpt lat="44.1831" lon="4.65133">
        <ele>190.7</ele>
        <time>2013-11-23T10:37:01.414Z</time>
      </trkpt>
      <trkpt lat="44.18303" lon="4.65129">
        <ele>190.8</ele>
        <time>2013-11-23T10:37:05.547Z</time>
      </trkpt>
      <trkpt lat="44.18299" lon="4.65126">
        <ele>191.1</ele>
        <time>2013-11-23T10:37:08.424Z</time>
      </trkpt>
      <trkpt lat="44.1829" lon="4.65122">
        <ele>191.4</ele>
        <time>2013-11-23T10:37:13.692Z</time>
      </trkpt>
      <trkpt lat="44.18286" lon="4.6512">
        <ele>191.3</ele>
        <time>2013-11-23T10:37:16.453Z</time>
      </trkpt>
      <trkpt lat="44.18277" lon="4.65118">
        <ele>191.9</ele>
        <time>2013-11-23T10:37:21.616Z</time>
      </trkpt>
      <trkpt lat="44.18272" lon="4.65117">
        <ele>192.1</ele>
        <time>2013-11-23T10:37:24.421Z</time>
      </trkpt>
      <trkpt lat="44.18265" lon="4.65116">
        <ele>192.7</ele>
        <time>2013-11-23T10:37:28.547Z</time>
      </trkpt>
      <trkpt lat="44.18259" lon="4.65114">
        <ele>193.3</ele>
        <time>2013-11-23T10:37:31.426Z</time>
      </trkpt>
      <trkpt lat="44.18251" lon="4.65113">
        <ele>193.6</ele>
        <time>2013-11-23T10:37:35.424Z</time>
      </trkpt>
      <trkpt lat="44.18248" lon="4.65113">
        <ele>194</ele>
        <time>2013-11-23T10:37:37.481Z</time>
      </trkpt>
      <trkpt lat="44.1824" lon="4.65114">
        <ele>193.5</ele>
        <time>2013-11-23T10:37:41.446Z</time>
      </trkpt>
      <trkpt lat="44.18236" lon="4.65115">
        <ele>194</ele>
        <time>2013-11-23T10:37:43.422Z</time>
      </trkpt>
      <trkpt lat="44.1823" lon="4.65118">
        <ele>194.4</ele>
        <time>2013-11-23T10:37:47.546Z</time>
      </trkpt>
      <trkpt lat="44.18225" lon="4.65119">
        <ele>194.9</ele>
        <time>2013-11-23T10:37:50.453Z</time>
      </trkpt>
      <trkpt lat="44.18217" lon="4.6512">
        <ele>195.6</ele>
        <time>2013-11-23T10:37:55.539Z</time>
      </trkpt>
      <trkpt lat="44.18216" lon="4.6512">
        <ele>196.2</ele>
        <time>2013-11-23T10:37:56.427Z</time>
      </trkpt>
      <trkpt lat="44.18207" lon="4.65116">
        <ele>197.2</ele>
        <time>2013-11-23T10:38:01.419Z</time>
      </trkpt>
      <trkpt lat="44.18206" lon="4.65116">
        <ele>196.9</ele>
        <time>2013-11-23T10:38:02.463Z</time>
      </trkpt>
      <trkpt lat="44.18198" lon="4.65113">
        <ele>197.8</ele>
        <time>2013-11-23T10:38:07.554Z</time>
      </trkpt>
      <trkpt lat="44.18194" lon="4.6511">
        <ele>197.8</ele>
        <time>2013-11-23T10:38:10.426Z</time>
      </trkpt>
      <trkpt lat="44.18191" lon="4.65108">
        <ele>198.1</ele>
        <time>2013-11-23T10:38:15.427Z</time>
      </trkpt>
      <trkpt lat="44.18191" lon="4.65108">
        <ele>198</ele>
        <time>2013-11-23T10:38:17.451Z</time>
      </trkpt>
      <trkpt lat="44.18191" lon="4.65108">
        <ele>198</ele>
        <time>2013-11-23T10:38:17.627Z</time>
      </trkpt>
      <trkpt lat="44.18191" lon="4.65107">
        <ele>197.8</ele>
        <time>2013-11-23T10:38:18.426Z</time>
      </trkpt>
      <trkpt lat="44.18183" lon="4.65104">
        <ele>198.7</ele>
        <time>2013-11-23T10:38:25.545Z</time>
      </trkpt>
      <trkpt lat="44.18179" lon="4.65098">
        <ele>198.4</ele>
        <time>2013-11-23T10:38:29.440Z</time>
      </trkpt>
      <trkpt lat="44.18172" lon="4.65092">
        <ele>198.8</ele>
        <time>2013-11-23T10:38:34.544Z</time>
      </trkpt>
      <trkpt lat="44.18168" lon="4.65089">
        <ele>198.9</ele>
        <time>2013-11-23T10:38:37.422Z</time>
      </trkpt>
      <trkpt lat="44.18161" lon="4.65084">
        <ele>199.2</ele>
        <time>2013-11-23T10:38:42.546Z</time>
      </trkpt>
      <trkpt lat="44.18157" lon="4.65083">
        <ele>199.2</ele>
        <time>2013-11-23T10:38:45.422Z</time>
      </trkpt>
      <trkpt lat="44.18151" lon="4.65081">
        <ele>198.3</ele>
        <time>2013-11-23T10:38:49.546Z</time>
      </trkpt>
      <trkpt lat="44.18146" lon="4.6508">
        <ele>198.4</ele>
        <time>2013-11-23T10:38:52.421Z</time>
      </trkpt>
      <trkpt lat="44.1814" lon="4.65077">
        <ele>198.7</ele>
        <time>2013-11-23T10:38:56.551Z</time>
      </trkpt>
      <trkpt lat="44.18136" lon="4.65076">
        <ele>199.2</ele>
        <time>2013-11-23T10:38:59.424Z</time>
      </trkpt>
      <trkpt lat="44.18127" lon="4.65078">
        <ele>202.3</ele>
        <time>2013-11-23T10:39:04.539Z</time>
      </trkpt>
      <trkpt lat="44.18123" lon="4.65078">
        <ele>205.7</ele>
        <time>2013-11-23T10:39:07.424Z</time>
      </trkpt>
      <trkpt lat="44.18116" lon="4.65079">
        <ele>206.4</ele>
        <time>2013-11-23T10:39:12.552Z</time>
      </trkpt>
      <trkpt lat="44.1811" lon="4.65078">
        <ele>207.2</ele>
        <time>2013-11-23T10:39:15.422Z</time>
      </trkpt>
      <trkpt lat="44.18103" lon="4.65078">
        <ele>207.2</ele>
        <time>2013-11-23T10:39:19.545Z</time>
      </trkpt>
      <trkpt lat="44.181" lon="4.65078">
        <ele>208.4</ele>
        <time>2013-11-23T10:39:22.422Z</time>
      </trkpt>
      <trkpt lat="44.18096" lon="4.65077">
        <ele>208.3</ele>
        <time>2013-11-23T10:39:26.507Z</time>
      </trkpt>
      <trkpt lat="44.18096" lon="4.65077">
        <ele>208.6</ele>
        <time>2013-11-23T10:39:29.443Z</time>
      </trkpt>
      <trkpt lat="44.18096" lon="4.65076">
        <ele>208.7</ele>
        <time>2013-11-23T10:39:30.443Z</time>
      </trkpt>
      <trkpt lat="44.18095" lon="4.65076">
        <ele>208.2</ele>
        <time>2013-11-23T10:39:32.436Z</time>
      </trkpt>
      <trkpt lat="44.18086" lon="4.65075">
        <ele>207</ele>
        <time>2013-11-23T10:39:43.543Z</time>
      </trkpt>
      <trkpt lat="44.18082" lon="4.65077">
        <ele>207.7</ele>
        <time>2013-11-23T10:39:49.420Z</time>
      </trkpt>
      <trkpt lat="44.18076" lon="4.65078">
        <ele>207</ele>
        <time>2013-11-23T10:39:56.651Z</time>
      </trkpt>
      <trkpt lat="44.18073" lon="4.65078">
        <ele>208.2</ele>
        <time>2013-11-23T10:40:00.419Z</time>
      </trkpt>
      <trkpt lat="44.18071" lon="4.65078">
        <ele>207.8</ele>
        <time>2013-11-23T10:40:04.536Z</time>
      </trkpt>
      <trkpt lat="44.18071" lon="4.65078">
        <ele>208</ele>
        <time>2013-11-23T10:40:07.436Z</time>
      </trkpt>
      <trkpt lat="44.1807" lon="4.65078">
        <ele>208.2</ele>
        <time>2013-11-23T10:40:17.478Z</time>
      </trkpt>
      <trkpt lat="44.1807" lon="4.65079">
        <ele>208.5</ele>
        <time>2013-11-23T10:40:18.424Z</time>
      </trkpt>
      <trkpt lat="44.18062" lon="4.65082">
        <ele>210.6</ele>
        <time>2013-11-23T10:40:23.441Z</time>
      </trkpt>
      <trkpt lat="44.18061" lon="4.65083">
        <ele>210.4</ele>
        <time>2013-11-23T10:40:24.425Z</time>
      </trkpt>
      <trkpt lat="44.18053" lon="4.65085">
        <ele>210.6</ele>
        <time>2013-11-23T10:40:29.561Z</time>
      </trkpt>
      <trkpt lat="44.18044" lon="4.65083">
        <ele>211</ele>
        <time>2013-11-23T10:40:32.422Z</time>
      </trkpt>
      <trkpt lat="44.18039" lon="4.6508">
        <ele>211.3</ele>
        <time>2013-11-23T10:40:37.542Z</time>
      </trkpt>
      <trkpt lat="44.18038" lon="4.6508">
        <ele>211.2</ele>
        <time>2013-11-23T10:40:40.423Z</time>
      </trkpt>
      <trkpt lat="44.18038" lon="4.6508">
        <ele>210.9</ele>
        <time>2013-11-23T10:40:41.426Z</time>
      </trkpt>
      <trkpt lat="44.18036" lon="4.65081">
        <ele>210.7</ele>
        <time>2013-11-23T10:40:43.423Z</time>
      </trkpt>
      <trkpt lat="44.18029" lon="4.65081">
        <ele>212.2</ele>
        <time>2013-11-23T10:40:46.421Z</time>
      </trkpt>
      <trkpt lat="44.18026" lon="4.65082">
        <ele>211.6</ele>
        <time>2013-11-23T10:40:47.422Z</time>
      </trkpt>
      <trkpt lat="44.18019" lon="4.65081">
        <ele>210.9</ele>
        <time>2013-11-23T10:40:49.420Z</time>
      </trkpt>
      <trkpt lat="44.18015" lon="4.65081">
        <ele>210.9</ele>
        <time>2013-11-23T10:40:50.424Z</time>
      </trkpt>
      <trkpt lat="44.18007" lon="4.65082">
        <ele>209.8</ele>
        <time>2013-11-23T10:40:52.438Z</time>
      </trkpt>
      <trkpt lat="44.18003" lon="4.65084">
        <ele>209.3</ele>
        <time>2013-11-23T10:40:53.440Z</time>
      </trkpt>
      <trkpt lat="44.17994" lon="4.65087">
        <ele>208.8</ele>
        <time>2013-11-23T10:40:55.428Z</time>
      </trkpt>
      <trkpt lat="44.17991" lon="4.65088">
        <ele>207.1</ele>
        <time>2013-11-23T10:40:56.546Z</time>
      </trkpt>
      <trkpt lat="44.17982" lon="4.65094">
        <ele>205.1</ele>
        <time>2013-11-23T10:40:58.440Z</time>
      </trkpt>
      <trkpt lat="44.17977" lon="4.65098">
        <ele>203.6</ele>
        <time>2013-11-23T10:40:59.441Z</time>
      </trkpt>
      <trkpt lat="44.17966" lon="4.65108">
        <ele>202.1</ele>
        <time>2013-11-23T10:41:01.414Z</time>
      </trkpt>
      <trkpt lat="44.17962" lon="4.65113">
        <ele>201.8</ele>
        <time>2013-11-23T10:41:02.432Z</time>
      </trkpt>
      <trkpt lat="44.17958" lon="4.65117">
        <ele>201.2</ele>
        <time>2013-11-23T10:41:03.438Z</time>
      </trkpt>
      <trkpt lat="44.17954" lon="4.6512">
        <ele>199.5</ele>
        <time>2013-11-23T10:41:04.440Z</time>
      </trkpt>
      <trkpt lat="44.17945" lon="4.65123">
        <ele>198.3</ele>
        <time>2013-11-23T10:41:06.405Z</time>
      </trkpt>
      <trkpt lat="44.17939" lon="4.65125">
        <ele>198.1</ele>
        <time>2013-11-23T10:41:07.434Z</time>
      </trkpt>
      <trkpt lat="44.17934" lon="4.65126">
        <ele>197</ele>
        <time>2013-11-23T10:41:08.436Z</time>
      </trkpt>
      <trkpt lat="44.17931" lon="4.65128">
        <ele>198.7</ele>
        <time>2013-11-23T10:41:09.435Z</time>
      </trkpt>
      <trkpt lat="44.17927" lon="4.65133">
        <ele>197.6</ele>
        <time>2013-11-23T10:41:11.412Z</time>
      </trkpt>
      <trkpt lat="44.17923" lon="4.65141">
        <ele>195.6</ele>
        <time>2013-11-23T10:41:14.427Z</time>
      </trkpt>
      <trkpt lat="44.17921" lon="4.65145">
        <ele>195.1</ele>
        <time>2013-11-23T10:41:15.443Z</time>
      </trkpt>
      <trkpt lat="44.17922" lon="4.65151">
        <ele>193.4</ele>
        <time>2013-11-23T10:41:16.433Z</time>
      </trkpt>
      <trkpt lat="44.17924" lon="4.65165">
        <ele>194.1</ele>
        <time>2013-11-23T10:41:18.422Z</time>
      </trkpt>
      <trkpt lat="44.17926" lon="4.65174">
        <ele>192</ele>
        <time>2013-11-23T10:41:19.426Z</time>
      </trkpt>
      <trkpt lat="44.17929" lon="4.6519">
        <ele>189.9</ele>
        <time>2013-11-23T10:41:21.414Z</time>
      </trkpt>
      <trkpt lat="44.1793" lon="4.65198">
        <ele>188.9</ele>
        <time>2013-11-23T10:41:22.417Z</time>
      </trkpt>
      <trkpt lat="44.17932" lon="4.65212">
        <ele>188.5</ele>
        <time>2013-11-23T10:41:24.584Z</time>
      </trkpt>
      <trkpt lat="44.17932" lon="4.65225">
        <ele>187.5</ele>
        <time>2013-11-23T10:41:26.422Z</time>
      </trkpt>
      <trkpt lat="44.17931" lon="4.65232">
        <ele>186.4</ele>
        <time>2013-11-23T10:41:27.424Z</time>
      </trkpt>
      <trkpt lat="44.17931" lon="4.65238">
        <ele>185.7</ele>
        <time>2013-11-23T10:41:28.427Z</time>
      </trkpt>
      <trkpt lat="44.1793" lon="4.6525">
        <ele>184.3</ele>
        <time>2013-11-23T10:41:32.422Z</time>
      </trkpt>
      <trkpt lat="44.17929" lon="4.65252">
        <ele>183.9</ele>
        <time>2013-11-23T10:41:33.429Z</time>
      </trkpt>
      <trkpt lat="44.17924" lon="4.65256">
        <ele>182</ele>
        <time>2013-11-23T10:41:35.461Z</time>
      </trkpt>
      <trkpt lat="44.1792" lon="4.6526">
        <ele>180.3</ele>
        <time>2013-11-23T10:41:37.422Z</time>
      </trkpt>
      <trkpt lat="44.17913" lon="4.6526">
        <ele>180.5</ele>
        <time>2013-11-23T10:41:39.420Z</time>
      </trkpt>
      <trkpt lat="44.17911" lon="4.6526">
        <ele>180.3</ele>
        <time>2013-11-23T10:41:40.422Z</time>
      </trkpt>
      <trkpt lat="44.17902" lon="4.65262">
        <ele>181.2</ele>
        <time>2013-11-23T10:41:43.423Z</time>
      </trkpt>
      <trkpt lat="44.17894" lon="4.65261">
        <ele>180.2</ele>
        <time>2013-11-23T10:41:45.422Z</time>
      </trkpt>
      <trkpt lat="44.17885" lon="4.65261">
        <ele>179.9</ele>
        <time>2013-11-23T10:41:49.537Z</time>
      </trkpt>
      <trkpt lat="44.17883" lon="4.65259">
        <ele>181.2</ele>
        <time>2013-11-23T10:41:52.422Z</time>
      </trkpt>
      <trkpt lat="44.1788" lon="4.6525">
        <ele>180.4</ele>
        <time>2013-11-23T10:41:55.435Z</time>
      </trkpt>
      <trkpt lat="44.1788" lon="4.65247">
        <ele>180.3</ele>
        <time>2013-11-23T10:41:56.431Z</time>
      </trkpt>
      <trkpt lat="44.17881" lon="4.6524">
        <ele>180</ele>
        <time>2013-11-23T10:41:58.423Z</time>
      </trkpt>
      <trkpt lat="44.17878" lon="4.65232">
        <ele>180.5</ele>
        <time>2013-11-23T10:42:00.419Z</time>
      </trkpt>
      <trkpt lat="44.17874" lon="4.65227">
        <ele>180.8</ele>
        <time>2013-11-23T10:42:02.421Z</time>
      </trkpt>
      <trkpt lat="44.17871" lon="4.65224">
        <ele>181.2</ele>
        <time>2013-11-23T10:42:03.422Z</time>
      </trkpt>
      <trkpt lat="44.17866" lon="4.65217">
        <ele>185.6</ele>
        <time>2013-11-23T10:42:05.424Z</time>
      </trkpt>
      <trkpt lat="44.17864" lon="4.65212">
        <ele>187.1</ele>
        <time>2013-11-23T10:42:06.424Z</time>
      </trkpt>
      <trkpt lat="44.17861" lon="4.65206">
        <ele>183.7</ele>
        <time>2013-11-23T10:42:11.535Z</time>
      </trkpt>
      <trkpt lat="44.17864" lon="4.65193">
        <ele>178.6</ele>
        <time>2013-11-23T10:42:14.424Z</time>
      </trkpt>
      <trkpt lat="44.17859" lon="4.65198">
        <ele>176.3</ele>
        <time>2013-11-23T10:42:18.573Z</time>
      </trkpt>
      <trkpt lat="44.17856" lon="4.65204">
        <ele>176.5</ele>
        <time>2013-11-23T10:42:21.420Z</time>
      </trkpt>
      <trkpt lat="44.17853" lon="4.65213">
        <ele>175.8</ele>
        <time>2013-11-23T10:42:24.423Z</time>
      </trkpt>
      <trkpt lat="44.17852" lon="4.65216">
        <ele>175.4</ele>
        <time>2013-11-23T10:42:25.439Z</time>
      </trkpt>
      <trkpt lat="44.17848" lon="4.65219">
        <ele>176.3</ele>
        <time>2013-11-23T10:42:27.449Z</time>
      </trkpt>
      <trkpt lat="44.17844" lon="4.65223">
        <ele>173.8</ele>
        <time>2013-11-23T10:42:29.422Z</time>
      </trkpt>
      <trkpt lat="44.17841" lon="4.65232">
        <ele>173.6</ele>
        <time>2013-11-23T10:42:33.441Z</time>
      </trkpt>
      <trkpt lat="44.1784" lon="4.65234">
        <ele>173.4</ele>
        <time>2013-11-23T10:42:34.441Z</time>
      </trkpt>
      <trkpt lat="44.17836" lon="4.65242">
        <ele>173.2</ele>
        <time>2013-11-23T10:42:38.422Z</time>
      </trkpt>
      <trkpt lat="44.17833" lon="4.65246">
        <ele>173.5</ele>
        <time>2013-11-23T10:42:40.424Z</time>
      </trkpt>
      <trkpt lat="44.17826" lon="4.65249">
        <ele>172</ele>
        <time>2013-11-23T10:42:43.422Z</time>
      </trkpt>
      <trkpt lat="44.17823" lon="4.6525">
        <ele>172.2</ele>
        <time>2013-11-23T10:42:44.422Z</time>
      </trkpt>
      <trkpt lat="44.17817" lon="4.65253">
        <ele>171.3</ele>
        <time>2013-11-23T10:42:47.422Z</time>
      </trkpt>
      <trkpt lat="44.17814" lon="4.65253">
        <ele>173.2</ele>
        <time>2013-11-23T10:42:48.422Z</time>
      </trkpt>
      <trkpt lat="44.17806" lon="4.65257">
        <ele>174</ele>
        <time>2013-11-23T10:42:51.424Z</time>
      </trkpt>
      <trkpt lat="44.17804" lon="4.65258">
        <ele>173.9</ele>
        <time>2013-11-23T10:42:52.423Z</time>
      </trkpt>
      <trkpt lat="44.17797" lon="4.65259">
        <ele>174.4</ele>
        <time>2013-11-23T10:42:55.424Z</time>
      </trkpt>
      <trkpt lat="44.17795" lon="4.65259">
        <ele>174.3</ele>
        <time>2013-11-23T10:42:56.422Z</time>
      </trkpt>
      <trkpt lat="44.1779" lon="4.6526">
        <ele>175</ele>
        <time>2013-11-23T10:42:59.435Z</time>
      </trkpt>
      <trkpt lat="44.17785" lon="4.65259">
        <ele>173.7</ele>
        <time>2013-11-23T10:43:01.405Z</time>
      </trkpt>
      <trkpt lat="44.17779" lon="4.65256">
        <ele>175.3</ele>
        <time>2013-11-23T10:43:04.421Z</time>
      </trkpt>
      <trkpt lat="44.17777" lon="4.65254">
        <ele>175.8</ele>
        <time>2013-11-23T10:43:05.428Z</time>
      </trkpt>
      <trkpt lat="44.17769" lon="4.65248">
        <ele>174.2</ele>
        <time>2013-11-23T10:43:09.414Z</time>
      </trkpt>
      <trkpt lat="44.17768" lon="4.65246">
        <ele>173.5</ele>
        <time>2013-11-23T10:43:10.414Z</time>
      </trkpt>
      <trkpt lat="44.17761" lon="4.65242">
        <ele>174.7</ele>
        <time>2013-11-23T10:43:14.548Z</time>
      </trkpt>
      <trkpt lat="44.17755" lon="4.65237">
        <ele>173.7</ele>
        <time>2013-11-23T10:43:17.428Z</time>
      </trkpt>
      <trkpt lat="44.17749" lon="4.65233">
        <ele>174</ele>
        <time>2013-11-23T10:43:20.428Z</time>
      </trkpt>
      <trkpt lat="44.17747" lon="4.65232">
        <ele>174</ele>
        <time>2013-11-23T10:43:21.428Z</time>
      </trkpt>
      <trkpt lat="44.17739" lon="4.65229">
        <ele>174.1</ele>
        <time>2013-11-23T10:43:24.428Z</time>
      </trkpt>
      <trkpt lat="44.17737" lon="4.65227">
        <ele>174.2</ele>
        <time>2013-11-23T10:43:25.429Z</time>
      </trkpt>
      <trkpt lat="44.17731" lon="4.65222">
        <ele>174.7</ele>
        <time>2013-11-23T10:43:28.493Z</time>
      </trkpt>
      <trkpt lat="44.17726" lon="4.65217">
        <ele>174.9</ele>
        <time>2013-11-23T10:43:30.422Z</time>
      </trkpt>
      <trkpt lat="44.1772" lon="4.6521">
        <ele>175</ele>
        <time>2013-11-23T10:43:33.435Z</time>
      </trkpt>
      <trkpt lat="44.17717" lon="4.65208">
        <ele>175</ele>
        <time>2013-11-23T10:43:34.435Z</time>
      </trkpt>
      <trkpt lat="44.17711" lon="4.65201">
        <ele>175.2</ele>
        <time>2013-11-23T10:43:37.418Z</time>
      </trkpt>
      <trkpt lat="44.17708" lon="4.65198">
        <ele>175.4</ele>
        <time>2013-11-23T10:43:38.421Z</time>
      </trkpt>
      <trkpt lat="44.17705" lon="4.65194">
        <ele>176.4</ele>
        <time>2013-11-23T10:43:40.438Z</time>
      </trkpt>
      <trkpt lat="44.17699" lon="4.65189">
        <ele>176.2</ele>
        <time>2013-11-23T10:43:42.439Z</time>
      </trkpt>
      <trkpt lat="44.17697" lon="4.65187">
        <ele>176.3</ele>
        <time>2013-11-23T10:43:43.441Z</time>
      </trkpt>
      <trkpt lat="44.17691" lon="4.65181">
        <ele>176.7</ele>
        <time>2013-11-23T10:43:45.422Z</time>
      </trkpt>
      <trkpt lat="44.17685" lon="4.65176">
        <ele>176.5</ele>
        <time>2013-11-23T10:43:47.423Z</time>
      </trkpt>
      <trkpt lat="44.17683" lon="4.65173">
        <ele>176.8</ele>
        <time>2013-11-23T10:43:48.437Z</time>
      </trkpt>
      <trkpt lat="44.17678" lon="4.6517">
        <ele>176.8</ele>
        <time>2013-11-23T10:43:50.439Z</time>
      </trkpt>
      <trkpt lat="44.17672" lon="4.65169">
        <ele>177.1</ele>
        <time>2013-11-23T10:43:52.422Z</time>
      </trkpt>
      <trkpt lat="44.17663" lon="4.65171">
        <ele>176.8</ele>
        <time>2013-11-23T10:43:56.441Z</time>
      </trkpt>
      <trkpt lat="44.17663" lon="4.65171">
        <ele>176.8</ele>
        <time>2013-11-23T10:43:56.586Z</time>
      </trkpt>
      <trkpt lat="44.17656" lon="4.65175">
        <ele>177.3</ele>
        <time>2013-11-23T10:44:00.420Z</time>
      </trkpt>
      <trkpt lat="44.17652" lon="4.65177">
        <ele>177</ele>
        <time>2013-11-23T10:44:02.423Z</time>
      </trkpt>
      <trkpt lat="44.17645" lon="4.6518">
        <ele>177.2</ele>
        <time>2013-11-23T10:44:05.422Z</time>
      </trkpt>
      <trkpt lat="44.17643" lon="4.65181">
        <ele>177.1</ele>
        <time>2013-11-23T10:44:06.424Z</time>
      </trkpt>
      <trkpt lat="44.17636" lon="4.65184">
        <ele>176.4</ele>
        <time>2013-11-23T10:44:09.424Z</time>
      </trkpt>
      <trkpt lat="44.17634" lon="4.65185">
        <ele>176</ele>
        <time>2013-11-23T10:44:10.423Z</time>
      </trkpt>
      <trkpt lat="44.17629" lon="4.65186">
        <ele>177.1</ele>
        <time>2013-11-23T10:44:12.426Z</time>
      </trkpt>
      <trkpt lat="44.17624" lon="4.65187">
        <ele>177.3</ele>
        <time>2013-11-23T10:44:14.424Z</time>
      </trkpt>
      <trkpt lat="44.17616" lon="4.65188">
        <ele>177</ele>
        <time>2013-11-23T10:44:17.422Z</time>
      </trkpt>
      <trkpt lat="44.17614" lon="4.65188">
        <ele>176.9</ele>
        <time>2013-11-23T10:44:18.426Z</time>
      </trkpt>
      <trkpt lat="44.17607" lon="4.65188">
        <ele>177</ele>
        <time>2013-11-23T10:44:20.424Z</time>
      </trkpt>
      <trkpt lat="44.17604" lon="4.65188">
        <ele>177.4</ele>
        <time>2013-11-23T10:44:21.423Z</time>
      </trkpt>
      <trkpt lat="44.17596" lon="4.65187">
        <ele>178.1</ele>
        <time>2013-11-23T10:44:24.426Z</time>
      </trkpt>
      <trkpt lat="44.17591" lon="4.65185">
        <ele>178.7</ele>
        <time>2013-11-23T10:44:26.424Z</time>
      </trkpt>
      <trkpt lat="44.17585" lon="4.65184">
        <ele>178.2</ele>
        <time>2013-11-23T10:44:28.421Z</time>
      </trkpt>
      <trkpt lat="44.17582" lon="4.65184">
        <ele>178.2</ele>
        <time>2013-11-23T10:44:29.423Z</time>
      </trkpt>
      <trkpt lat="44.17575" lon="4.65183">
        <ele>177.7</ele>
        <time>2013-11-23T10:44:31.425Z</time>
      </trkpt>
      <trkpt lat="44.17567" lon="4.65183">
        <ele>177.9</ele>
        <time>2013-11-23T10:44:33.426Z</time>
      </trkpt>
      <trkpt lat="44.1756" lon="4.65183">
        <ele>178.2</ele>
        <time>2013-11-23T10:44:35.438Z</time>
      </trkpt>
      <trkpt lat="44.17553" lon="4.65183">
        <ele>177.8</ele>
        <time>2013-11-23T10:44:37.424Z</time>
      </trkpt>
      <trkpt lat="44.1755" lon="4.65184">
        <ele>177.7</ele>
        <time>2013-11-23T10:44:38.426Z</time>
      </trkpt>
      <trkpt lat="44.17543" lon="4.65185">
        <ele>177.8</ele>
        <time>2013-11-23T10:44:40.425Z</time>
      </trkpt>
      <trkpt lat="44.17536" lon="4.65185">
        <ele>177.9</ele>
        <time>2013-11-23T10:44:42.425Z</time>
      </trkpt>
      <trkpt lat="44.1753" lon="4.65185">
        <ele>178</ele>
        <time>2013-11-23T10:44:44.429Z</time>
      </trkpt>
      <trkpt lat="44.17522" lon="4.6519">
        <ele>178.5</ele>
        <time>2013-11-23T10:44:47.425Z</time>
      </trkpt>
      <trkpt lat="44.1752" lon="4.65192">
        <ele>178.5</ele>
        <time>2013-11-23T10:44:48.426Z</time>
      </trkpt>
      <trkpt lat="44.17514" lon="4.65195">
        <ele>178.4</ele>
        <time>2013-11-23T10:44:51.433Z</time>
      </trkpt>
      <trkpt lat="44.1751" lon="4.65191">
        <ele>176.7</ele>
        <time>2013-11-23T10:44:53.436Z</time>
      </trkpt>
      <trkpt lat="44.17509" lon="4.65186">
        <ele>176.5</ele>
        <time>2013-11-23T10:44:58.423Z</time>
      </trkpt>
      <trkpt lat="44.17509" lon="4.65186">
        <ele>176.5</ele>
        <time>2013-11-23T10:44:58.538Z</time>
      </trkpt>
      <trkpt lat="44.17509" lon="4.65187">
        <ele>176.1</ele>
        <time>2013-11-23T10:45:12.420Z</time>
      </trkpt>
      <trkpt lat="44.17509" lon="4.65186">
        <ele>176.1</ele>
        <time>2013-11-23T10:45:12.537Z</time>
      </trkpt>
      <trkpt lat="44.17488" lon="4.65181">
        <ele>171.6</ele>
        <time>2013-11-23T10:45:19.437Z</time>
      </trkpt>
      <trkpt lat="44.1748" lon="4.65182">
        <ele>174.2</ele>
        <time>2013-11-23T10:45:22.422Z</time>
      </trkpt>
      <trkpt lat="44.17476" lon="4.65185">
        <ele>175</ele>
        <time>2013-11-23T10:45:24.420Z</time>
      </trkpt>
      <trkpt lat="44.17471" lon="4.65194">
        <ele>174.7</ele>
        <time>2013-11-23T10:45:28.536Z</time>
      </trkpt>
      <trkpt lat="44.17469" lon="4.65202">
        <ele>173.6</ele>
        <time>2013-11-23T10:45:31.424Z</time>
      </trkpt>
      <trkpt lat="44.17465" lon="4.65209">
        <ele>172.5</ele>
        <time>2013-11-23T10:45:34.424Z</time>
      </trkpt>
      <trkpt lat="44.17461" lon="4.65214">
        <ele>171.9</ele>
        <time>2013-11-23T10:45:36.424Z</time>
      </trkpt>
      <trkpt lat="44.1746" lon="4.65221">
        <ele>171.7</ele>
        <time>2013-11-23T10:45:39.450Z</time>
      </trkpt>
      <trkpt lat="44.17457" lon="4.65226">
        <ele>171.8</ele>
        <time>2013-11-23T10:45:41.412Z</time>
      </trkpt>
      <trkpt lat="44.17455" lon="4.65238">
        <ele>171.6</ele>
        <time>2013-11-23T10:45:48.533Z</time>
      </trkpt>
      <trkpt lat="44.17454" lon="4.65247">
        <ele>169.4</ele>
        <time>2013-11-23T10:45:52.417Z</time>
      </trkpt>
      <trkpt lat="44.1745" lon="4.65257">
        <ele>168.5</ele>
        <time>2013-11-23T10:45:59.611Z</time>
      </trkpt>
      <trkpt lat="44.1745" lon="4.65258">
        <ele>168.5</ele>
        <time>2013-11-23T10:46:03.422Z</time>
      </trkpt>
      <trkpt lat="44.1745" lon="4.65258">
        <ele>168.5</ele>
        <time>2013-11-23T10:46:04.441Z</time>
      </trkpt>
      <trkpt lat="44.1745" lon="4.65258">
        <ele>168.7</ele>
        <time>2013-11-23T10:46:05.440Z</time>
      </trkpt>
      <trkpt lat="44.17443" lon="4.65261">
        <ele>169</ele>
        <time>2013-11-23T10:46:10.694Z</time>
      </trkpt>
      <trkpt lat="44.17437" lon="4.6526">
        <ele>168.9</ele>
        <time>2013-11-23T10:46:13.425Z</time>
      </trkpt>
      <trkpt lat="44.17432" lon="4.6526">
        <ele>169.5</ele>
        <time>2013-11-23T10:46:20.425Z</time>
      </trkpt>
      <trkpt lat="44.17427" lon="4.65259">
        <ele>168.7</ele>
        <time>2013-11-23T10:46:23.442Z</time>
      </trkpt>
      <trkpt lat="44.17424" lon="4.65266">
        <ele>167</ele>
        <time>2013-11-23T10:46:27.424Z</time>
      </trkpt>
      <trkpt lat="44.17424" lon="4.65271">
        <ele>168.3</ele>
        <time>2013-11-23T10:46:29.422Z</time>
      </trkpt>
      <trkpt lat="44.17422" lon="4.65282">
        <ele>170.1</ele>
        <time>2013-11-23T10:46:33.420Z</time>
      </trkpt>
      <trkpt lat="44.17421" lon="4.65284">
        <ele>170.2</ele>
        <time>2013-11-23T10:46:34.424Z</time>
      </trkpt>
      <trkpt lat="44.17419" lon="4.65292">
        <ele>170.7</ele>
        <time>2013-11-23T10:46:37.425Z</time>
      </trkpt>
      <trkpt lat="44.17416" lon="4.65298">
        <ele>170.6</ele>
        <time>2013-11-23T10:46:39.425Z</time>
      </trkpt>
      <trkpt lat="44.1741" lon="4.65307">
        <ele>172.6</ele>
        <time>2013-11-23T10:46:46.552Z</time>
      </trkpt>
      <trkpt lat="44.1741" lon="4.65307">
        <ele>173.2</ele>
        <time>2013-11-23T10:46:50.423Z</time>
      </trkpt>
      <trkpt lat="44.17415" lon="4.65315">
        <ele>178.6</ele>
        <time>2013-11-23T10:47:00.537Z</time>
      </trkpt>
      <trkpt lat="44.17416" lon="4.65316">
        <ele>178.7</ele>
        <time>2013-11-23T10:47:01.423Z</time>
      </trkpt>
      <trkpt lat="44.17414" lon="4.65328">
        <ele>177.5</ele>
        <time>2013-11-23T10:47:06.536Z</time>
      </trkpt>
      <trkpt lat="44.1741" lon="4.65334">
        <ele>177.3</ele>
        <time>2013-11-23T10:47:09.615Z</time>
      </trkpt>
      <trkpt lat="44.17413" lon="4.65341">
        <ele>177.2</ele>
        <time>2013-11-23T10:47:12.425Z</time>
      </trkpt>
      <trkpt lat="44.17417" lon="4.65344">
        <ele>177.1</ele>
        <time>2013-11-23T10:47:14.424Z</time>
      </trkpt>
      <trkpt lat="44.17422" lon="4.65352">
        <ele>176.7</ele>
        <time>2013-11-23T10:47:18.573Z</time>
      </trkpt>
      <trkpt lat="44.17424" lon="4.65359">
        <ele>174.4</ele>
        <time>2013-11-23T10:47:21.415Z</time>
      </trkpt>
      <trkpt lat="44.17416" lon="4.65362">
        <ele>172.1</ele>
        <time>2013-11-23T10:47:25.560Z</time>
      </trkpt>
      <trkpt lat="44.17411" lon="4.65363">
        <ele>169.7</ele>
        <time>2013-11-23T10:47:28.427Z</time>
      </trkpt>
      <trkpt lat="44.17404" lon="4.65366">
        <ele>167.2</ele>
        <time>2013-11-23T10:47:32.547Z</time>
      </trkpt>
      <trkpt lat="44.17395" lon="4.65367">
        <ele>162.9</ele>
        <time>2013-11-23T10:47:35.428Z</time>
      </trkpt>
      <trkpt lat="44.17391" lon="4.65367">
        <ele>161.5</ele>
        <time>2013-11-23T10:47:36.441Z</time>
      </trkpt>
      <trkpt lat="44.17387" lon="4.65361">
        <ele>157.7</ele>
        <time>2013-11-23T10:47:38.421Z</time>
      </trkpt>
      <trkpt lat="44.17383" lon="4.65361">
        <ele>155.1</ele>
        <time>2013-11-23T10:47:40.422Z</time>
      </trkpt>
      <trkpt lat="44.17378" lon="4.65364">
        <ele>153.3</ele>
        <time>2013-11-23T10:47:42.421Z</time>
      </trkpt>
      <trkpt lat="44.17369" lon="4.65365">
        <ele>152.6</ele>
        <time>2013-11-23T10:47:45.427Z</time>
      </trkpt>
      <trkpt lat="44.17361" lon="4.65369">
        <ele>149.6</ele>
        <time>2013-11-23T10:47:47.428Z</time>
      </trkpt>
      <trkpt lat="44.17358" lon="4.65371">
        <ele>148.7</ele>
        <time>2013-11-23T10:47:48.427Z</time>
      </trkpt>
      <trkpt lat="44.1735" lon="4.65373">
        <ele>147.5</ele>
        <time>2013-11-23T10:47:50.424Z</time>
      </trkpt>
      <trkpt lat="44.17344" lon="4.65374">
        <ele>145.4</ele>
        <time>2013-11-23T10:47:52.423Z</time>
      </trkpt>
      <trkpt lat="44.17337" lon="4.6537">
        <ele>143</ele>
        <time>2013-11-23T10:47:54.420Z</time>
      </trkpt>
      <trkpt lat="44.17331" lon="4.65368">
        <ele>142.6</ele>
        <time>2013-11-23T10:47:56.435Z</time>
      </trkpt>
      <trkpt lat="44.17325" lon="4.6537">
        <ele>143.8</ele>
        <time>2013-11-23T10:47:58.428Z</time>
      </trkpt>
      <trkpt lat="44.17324" lon="4.65373">
        <ele>144.7</ele>
        <time>2013-11-23T10:47:59.431Z</time>
      </trkpt>
      <trkpt lat="44.17321" lon="4.65382">
        <ele>147.3</ele>
        <time>2013-11-23T10:48:01.426Z</time>
      </trkpt>
      <trkpt lat="44.17312" lon="4.65383">
        <ele>156.6</ele>
        <time>2013-11-23T10:48:09.423Z</time>
      </trkpt>
      <trkpt lat="44.17311" lon="4.65384">
        <ele>156.6</ele>
        <time>2013-11-23T10:48:09.537Z</time>
      </trkpt>
      <trkpt lat="44.17306" lon="4.65386">
        <ele>156.7</ele>
        <time>2013-11-23T10:48:11.423Z</time>
      </trkpt>
      <trkpt lat="44.17301" lon="4.65389">
        <ele>158.9</ele>
        <time>2013-11-23T10:48:13.422Z</time>
      </trkpt>
      <trkpt lat="44.17296" lon="4.65391">
        <ele>161.3</ele>
        <time>2013-11-23T10:48:17.536Z</time>
      </trkpt>
      <trkpt lat="44.1729" lon="4.65394">
        <ele>163.8</ele>
        <time>2013-11-23T10:48:20.422Z</time>
      </trkpt>
      <trkpt lat="44.17284" lon="4.65393">
        <ele>163.3</ele>
        <time>2013-11-23T10:48:23.424Z</time>
      </trkpt>
      <trkpt lat="44.17279" lon="4.65387">
        <ele>163.8</ele>
        <time>2013-11-23T10:48:25.423Z</time>
      </trkpt>
      <trkpt lat="44.17284" lon="4.65378">
        <ele>162.3</ele>
        <time>2013-11-23T10:48:30.537Z</time>
      </trkpt>
      <trkpt lat="44.17286" lon="4.65371">
        <ele>161.3</ele>
        <time>2013-11-23T10:48:33.423Z</time>
      </trkpt>
      <trkpt lat="44.17286" lon="4.65362">
        <ele>160.7</ele>
        <time>2013-11-23T10:48:37.560Z</time>
      </trkpt>
      <trkpt lat="44.17285" lon="4.65357">
        <ele>160.2</ele>
        <time>2013-11-23T10:48:40.441Z</time>
      </trkpt>
      <trkpt lat="44.17283" lon="4.65349">
        <ele>157.8</ele>
        <time>2013-11-23T10:48:42.424Z</time>
      </trkpt>
      <trkpt lat="44.17285" lon="4.65341">
        <ele>155.7</ele>
        <time>2013-11-23T10:48:44.422Z</time>
      </trkpt>
      <trkpt lat="44.17288" lon="4.6533">
        <ele>155.9</ele>
        <time>2013-11-23T10:48:48.736Z</time>
      </trkpt>
      <trkpt lat="44.1729" lon="4.65324">
        <ele>156.9</ele>
        <time>2013-11-23T10:48:51.420Z</time>
      </trkpt>
      <trkpt lat="44.1729" lon="4.65312">
        <ele>156.2</ele>
        <time>2013-11-23T10:48:55.559Z</time>
      </trkpt>
      <trkpt lat="44.1729" lon="4.65309">
        <ele>155.9</ele>
        <time>2013-11-23T10:48:56.436Z</time>
      </trkpt>
      <trkpt lat="44.17291" lon="4.65297">
        <ele>155.5</ele>
        <time>2013-11-23T10:49:01.555Z</time>
      </trkpt>
      <trkpt lat="44.17291" lon="4.6529">
        <ele>155.2</ele>
        <time>2013-11-23T10:49:04.436Z</time>
      </trkpt>
      <trkpt lat="44.1729" lon="4.65278">
        <ele>158.9</ele>
        <time>2013-11-23T10:49:09.419Z</time>
      </trkpt>
      <trkpt lat="44.1729" lon="4.65277">
        <ele>158.9</ele>
        <time>2013-11-23T10:49:09.536Z</time>
      </trkpt>
      <trkpt lat="44.17291" lon="4.65266">
        <ele>158.8</ele>
        <time>2013-11-23T10:49:12.422Z</time>
      </trkpt>
      <trkpt lat="44.17291" lon="4.65262">
        <ele>159</ele>
        <time>2013-11-23T10:49:13.424Z</time>
      </trkpt>
      <trkpt lat="44.17291" lon="4.6525">
        <ele>158.9</ele>
        <time>2013-11-23T10:49:16.419Z</time>
      </trkpt>
      <trkpt lat="44.17292" lon="4.65247">
        <ele>159</ele>
        <time>2013-11-23T10:49:17.422Z</time>
      </trkpt>
      <trkpt lat="44.17293" lon="4.65238">
        <ele>158.5</ele>
        <time>2013-11-23T10:49:20.422Z</time>
      </trkpt>
      <trkpt lat="44.17293" lon="4.65234">
        <ele>158.4</ele>
        <time>2013-11-23T10:49:21.429Z</time>
      </trkpt>
      <trkpt lat="44.17293" lon="4.65223">
        <ele>158.6</ele>
        <time>2013-11-23T10:49:24.421Z</time>
      </trkpt>
      <trkpt lat="44.17293" lon="4.65219">
        <ele>158.4</ele>
        <time>2013-11-23T10:49:25.422Z</time>
      </trkpt>
      <trkpt lat="44.17291" lon="4.65211">
        <ele>159.3</ele>
        <time>2013-11-23T10:49:28.422Z</time>
      </trkpt>
      <trkpt lat="44.17292" lon="4.65203">
        <ele>159.2</ele>
        <time>2013-11-23T10:49:30.423Z</time>
      </trkpt>
      <trkpt lat="44.1729" lon="4.65192">
        <ele>159.6</ele>
        <time>2013-11-23T10:49:33.423Z</time>
      </trkpt>
      <trkpt lat="44.17289" lon="4.65185">
        <ele>159.7</ele>
        <time>2013-11-23T10:49:35.422Z</time>
      </trkpt>
      <trkpt lat="44.17287" lon="4.65179">
        <ele>158.5</ele>
        <time>2013-11-23T10:49:37.422Z</time>
      </trkpt>
      <trkpt lat="44.17281" lon="4.65175">
        <ele>163.4</ele>
        <time>2013-11-23T10:49:39.422Z</time>
      </trkpt>
      <trkpt lat="44.17276" lon="4.65169">
        <ele>165.1</ele>
        <time>2013-11-23T10:49:41.428Z</time>
      </trkpt>
      <trkpt lat="44.17273" lon="4.65163">
        <ele>166.9</ele>
        <time>2013-11-23T10:49:43.422Z</time>
      </trkpt>
      <trkpt lat="44.17273" lon="4.65151">
        <ele>165.7</ele>
        <time>2013-11-23T10:49:46.420Z</time>
      </trkpt>
      <trkpt lat="44.17272" lon="4.65148">
        <ele>165.7</ele>
        <time>2013-11-23T10:49:47.422Z</time>
      </trkpt>
      <trkpt lat="44.17268" lon="4.65138">
        <ele>164.4</ele>
        <time>2013-11-23T10:49:50.423Z</time>
      </trkpt>
      <trkpt lat="44.17262" lon="4.6514">
        <ele>165.9</ele>
        <time>2013-11-23T10:49:52.423Z</time>
      </trkpt>
      <trkpt lat="44.17256" lon="4.65139">
        <ele>167.4</ele>
        <time>2013-11-23T10:49:54.423Z</time>
      </trkpt>
      <trkpt lat="44.17252" lon="4.65137">
        <ele>168.1</ele>
        <time>2013-11-23T10:49:56.418Z</time>
      </trkpt>
      <trkpt lat="44.17244" lon="4.65133">
        <ele>168.3</ele>
        <time>2013-11-23T10:49:59.422Z</time>
      </trkpt>
      <trkpt lat="44.1724" lon="4.6513">
        <ele>173.9</ele>
        <time>2013-11-23T10:50:01.419Z</time>
      </trkpt>
      <trkpt lat="44.17235" lon="4.65124">
        <ele>175.2</ele>
        <time>2013-11-23T10:50:04.439Z</time>
      </trkpt>
      <trkpt lat="44.1723" lon="4.65119">
        <ele>173.8</ele>
        <time>2013-11-23T10:50:06.420Z</time>
      </trkpt>
      <trkpt lat="44.17223" lon="4.65113">
        <ele>173.3</ele>
        <time>2013-11-23T10:50:09.423Z</time>
      </trkpt>
      <trkpt lat="44.1722" lon="4.6511">
        <ele>172.5</ele>
        <time>2013-11-23T10:50:10.438Z</time>
      </trkpt>
      <trkpt lat="44.17218" lon="4.65107">
        <ele>172.6</ele>
        <time>2013-11-23T10:50:11.474Z</time>
      </trkpt>
      <trkpt lat="44.17212" lon="4.65102">
        <ele>171.9</ele>
        <time>2013-11-23T10:50:13.436Z</time>
      </trkpt>
      <trkpt lat="44.17205" lon="4.65098">
        <ele>171.6</ele>
        <time>2013-11-23T10:50:15.419Z</time>
      </trkpt>
      <trkpt lat="44.17202" lon="4.65096">
        <ele>171.4</ele>
        <time>2013-11-23T10:50:16.439Z</time>
      </trkpt>
      <trkpt lat="44.17195" lon="4.65093">
        <ele>171.2</ele>
        <time>2013-11-23T10:50:18.439Z</time>
      </trkpt>
      <trkpt lat="44.1719" lon="4.6509">
        <ele>170.7</ele>
        <time>2013-11-23T10:50:20.406Z</time>
      </trkpt>
      <trkpt lat="44.17182" lon="4.65086">
        <ele>171</ele>
        <time>2013-11-23T10:50:22.417Z</time>
      </trkpt>
      <trkpt lat="44.17172" lon="4.65084">
        <ele>160.1</ele>
        <time>2013-11-23T10:50:24.418Z</time>
      </trkpt>
      <trkpt lat="44.17165" lon="4.65084">
        <ele>158.1</ele>
        <time>2013-11-23T10:50:25.437Z</time>
      </trkpt>
      <trkpt lat="44.17153" lon="4.65082">
        <ele>158.5</ele>
        <time>2013-11-23T10:50:27.473Z</time>
      </trkpt>
      <trkpt lat="44.17142" lon="4.6508">
        <ele>158.7</ele>
        <time>2013-11-23T10:50:29.423Z</time>
      </trkpt>
      <trkpt lat="44.17132" lon="4.65075">
        <ele>159.4</ele>
        <time>2013-11-23T10:50:31.419Z</time>
      </trkpt>
      <trkpt lat="44.17128" lon="4.65071">
        <ele>159.7</ele>
        <time>2013-11-23T10:50:32.422Z</time>
      </trkpt>
      <trkpt lat="44.17124" lon="4.65068">
        <ele>159.4</ele>
        <time>2013-11-23T10:50:33.421Z</time>
      </trkpt>
      <trkpt lat="44.1712" lon="4.65067">
        <ele>159.4</ele>
        <time>2013-11-23T10:50:34.422Z</time>
      </trkpt>
      <trkpt lat="44.17112" lon="4.65064">
        <ele>158.4</ele>
        <time>2013-11-23T10:50:36.418Z</time>
      </trkpt>
      <trkpt lat="44.17107" lon="4.65064">
        <ele>160</ele>
        <time>2013-11-23T10:50:38.422Z</time>
      </trkpt>
      <trkpt lat="44.17103" lon="4.65065">
        <ele>160.7</ele>
        <time>2013-11-23T10:50:39.422Z</time>
      </trkpt>
      <trkpt lat="44.17097" lon="4.65062">
        <ele>162.8</ele>
        <time>2013-11-23T10:50:40.423Z</time>
      </trkpt>
      <trkpt lat="44.17091" lon="4.65059">
        <ele>163.4</ele>
        <time>2013-11-23T10:50:41.423Z</time>
      </trkpt>
      <trkpt lat="44.17081" lon="4.65056">
        <ele>163.8</ele>
        <time>2013-11-23T10:50:43.422Z</time>
      </trkpt>
      <trkpt lat="44.17076" lon="4.65055">
        <ele>164</ele>
        <time>2013-11-23T10:50:44.423Z</time>
      </trkpt>
      <trkpt lat="44.17069" lon="4.65046">
        <ele>163.7</ele>
        <time>2013-11-23T10:50:46.420Z</time>
      </trkpt>
      <trkpt lat="44.17062" lon="4.65041">
        <ele>162.6</ele>
        <time>2013-11-23T10:50:48.422Z</time>
      </trkpt>
      <trkpt lat="44.17058" lon="4.65039">
        <ele>163</ele>
        <time>2013-11-23T10:50:49.423Z</time>
      </trkpt>
      <trkpt lat="44.17053" lon="4.6503">
        <ele>160.7</ele>
        <time>2013-11-23T10:50:51.499Z</time>
      </trkpt>
      <trkpt lat="44.17047" lon="4.65021">
        <ele>162.4</ele>
        <time>2013-11-23T10:50:53.428Z</time>
      </trkpt>
      <trkpt lat="44.17043" lon="4.65017">
        <ele>162.3</ele>
        <time>2013-11-23T10:50:54.430Z</time>
      </trkpt>
      <trkpt lat="44.17042" lon="4.65006">
        <ele>162.3</ele>
        <time>2013-11-23T10:50:56.422Z</time>
      </trkpt>
      <trkpt lat="44.17044" lon="4.64989">
        <ele>160.1</ele>
        <time>2013-11-23T10:50:58.423Z</time>
      </trkpt>
      <trkpt lat="44.17044" lon="4.64974">
        <ele>160.4</ele>
        <time>2013-11-23T10:51:00.412Z</time>
      </trkpt>
      <trkpt lat="44.1704" lon="4.64964">
        <ele>158.9</ele>
        <time>2013-11-23T10:51:02.416Z</time>
      </trkpt>
      <trkpt lat="44.17036" lon="4.64959">
        <ele>158.9</ele>
        <time>2013-11-23T10:51:03.423Z</time>
      </trkpt>
      <trkpt lat="44.17032" lon="4.64953">
        <ele>158.3</ele>
        <time>2013-11-23T10:51:04.424Z</time>
      </trkpt>
      <trkpt lat="44.17024" lon="4.64943">
        <ele>156.7</ele>
        <time>2013-11-23T10:51:06.420Z</time>
      </trkpt>
      <trkpt lat="44.17019" lon="4.64938">
        <ele>156.8</ele>
        <time>2013-11-23T10:51:07.420Z</time>
      </trkpt>
      <trkpt lat="44.17013" lon="4.64933">
        <ele>157</ele>
        <time>2013-11-23T10:51:08.452Z</time>
      </trkpt>
      <trkpt lat="44.17005" lon="4.64924">
        <ele>154.5</ele>
        <time>2013-11-23T10:51:10.422Z</time>
      </trkpt>
      <trkpt lat="44.16999" lon="4.64909">
        <ele>143</ele>
        <time>2013-11-23T10:51:12.420Z</time>
      </trkpt>
      <trkpt lat="44.17002" lon="4.64902">
        <ele>141.9</ele>
        <time>2013-11-23T10:51:14.421Z</time>
      </trkpt>
      <trkpt lat="44.17006" lon="4.64898">
        <ele>140.6</ele>
        <time>2013-11-23T10:51:15.421Z</time>
      </trkpt>
      <trkpt lat="44.17012" lon="4.64891">
        <ele>139.4</ele>
        <time>2013-11-23T10:51:17.420Z</time>
      </trkpt>
      <trkpt lat="44.17015" lon="4.64886">
        <ele>138.9</ele>
        <time>2013-11-23T10:51:18.423Z</time>
      </trkpt>
      <trkpt lat="44.17018" lon="4.64881">
        <ele>138.6</ele>
        <time>2013-11-23T10:51:19.423Z</time>
      </trkpt>
      <trkpt lat="44.17025" lon="4.6487">
        <ele>137.5</ele>
        <time>2013-11-23T10:51:21.404Z</time>
      </trkpt>
      <trkpt lat="44.17026" lon="4.64862">
        <ele>142.3</ele>
        <time>2013-11-23T10:51:22.435Z</time>
      </trkpt>
      <trkpt lat="44.17027" lon="4.64855">
        <ele>143</ele>
        <time>2013-11-23T10:51:23.436Z</time>
      </trkpt>
      <trkpt lat="44.17031" lon="4.64849">
        <ele>141.4</ele>
        <time>2013-11-23T10:51:24.436Z</time>
      </trkpt>
      <trkpt lat="44.17039" lon="4.64839">
        <ele>140.7</ele>
        <time>2013-11-23T10:51:26.423Z</time>
      </trkpt>
      <trkpt lat="44.17046" lon="4.64834">
        <ele>139.5</ele>
        <time>2013-11-23T10:51:28.439Z</time>
      </trkpt>
      <trkpt lat="44.17049" lon="4.64831">
        <ele>139.1</ele>
        <time>2013-11-23T10:51:29.499Z</time>
      </trkpt>
      <trkpt lat="44.17054" lon="4.64819">
        <ele>138.9</ele>
        <time>2013-11-23T10:51:31.481Z</time>
      </trkpt>
      <trkpt lat="44.17061" lon="4.64813">
        <ele>136.5</ele>
        <time>2013-11-23T10:51:33.443Z</time>
      </trkpt>
      <trkpt lat="44.17065" lon="4.6481">
        <ele>135.8</ele>
        <time>2013-11-23T10:51:34.444Z</time>
      </trkpt>
      <trkpt lat="44.17073" lon="4.64807">
        <ele>136.1</ele>
        <time>2013-11-23T10:51:36.468Z</time>
      </trkpt>
      <trkpt lat="44.1708" lon="4.64803">
        <ele>134.3</ele>
        <time>2013-11-23T10:51:38.443Z</time>
      </trkpt>
      <trkpt lat="44.17083" lon="4.64801">
        <ele>133.9</ele>
        <time>2013-11-23T10:51:39.446Z</time>
      </trkpt>
      <trkpt lat="44.17086" lon="4.64797">
        <ele>133.8</ele>
        <time>2013-11-23T10:51:40.471Z</time>
      </trkpt>
      <trkpt lat="44.1709" lon="4.64789">
        <ele>133.1</ele>
        <time>2013-11-23T10:51:42.429Z</time>
      </trkpt>
      <trkpt lat="44.17095" lon="4.64781">
        <ele>135</ele>
        <time>2013-11-23T10:51:44.429Z</time>
      </trkpt>
      <trkpt lat="44.17098" lon="4.64777">
        <ele>134.9</ele>
        <time>2013-11-23T10:51:45.471Z</time>
      </trkpt>
      <trkpt lat="44.17103" lon="4.6477">
        <ele>134.2</ele>
        <time>2013-11-23T10:51:47.446Z</time>
      </trkpt>
      <trkpt lat="44.17106" lon="4.64767">
        <ele>133.7</ele>
        <time>2013-11-23T10:51:48.447Z</time>
      </trkpt>
      <trkpt lat="44.17115" lon="4.64761">
        <ele>128.1</ele>
        <time>2013-11-23T10:51:50.429Z</time>
      </trkpt>
      <trkpt lat="44.17126" lon="4.64757">
        <ele>127</ele>
        <time>2013-11-23T10:51:52.428Z</time>
      </trkpt>
      <trkpt lat="44.1713" lon="4.64756">
        <ele>126.5</ele>
        <time>2013-11-23T10:51:53.429Z</time>
      </trkpt>
      <trkpt lat="44.17137" lon="4.64754">
        <ele>126.8</ele>
        <time>2013-11-23T10:51:55.429Z</time>
      </trkpt>
      <trkpt lat="44.17142" lon="4.64748">
        <ele>127.5</ele>
        <time>2013-11-23T10:51:57.427Z</time>
      </trkpt>
      <trkpt lat="44.17145" lon="4.64745">
        <ele>127.5</ele>
        <time>2013-11-23T10:51:58.428Z</time>
      </trkpt>
      <trkpt lat="44.17152" lon="4.6474">
        <ele>127.5</ele>
        <time>2013-11-23T10:52:00.451Z</time>
      </trkpt>
      <trkpt lat="44.17158" lon="4.64734">
        <ele>128</ele>
        <time>2013-11-23T10:52:02.425Z</time>
      </trkpt>
      <trkpt lat="44.17166" lon="4.64727">
        <ele>127.5</ele>
        <time>2013-11-23T10:52:04.420Z</time>
      </trkpt>
      <trkpt lat="44.1717" lon="4.64723">
        <ele>127.3</ele>
        <time>2013-11-23T10:52:05.423Z</time>
      </trkpt>
      <trkpt lat="44.17176" lon="4.64714">
        <ele>127.7</ele>
        <time>2013-11-23T10:52:07.422Z</time>
      </trkpt>
      <trkpt lat="44.17178" lon="4.64709">
        <ele>128.7</ele>
        <time>2013-11-23T10:52:08.430Z</time>
      </trkpt>
      <trkpt lat="44.17183" lon="4.647">
        <ele>128.7</ele>
        <time>2013-11-23T10:52:10.434Z</time>
      </trkpt>
      <trkpt lat="44.17196" lon="4.64691">
        <ele>119.1</ele>
        <time>2013-11-23T10:52:12.424Z</time>
      </trkpt>
      <trkpt lat="44.17208" lon="4.64673">
        <ele>116</ele>
        <time>2013-11-23T10:52:14.413Z</time>
      </trkpt>
      <trkpt lat="44.17214" lon="4.64665">
        <ele>114.7</ele>
        <time>2013-11-23T10:52:15.413Z</time>
      </trkpt>
      <trkpt lat="44.17224" lon="4.64652">
        <ele>113.9</ele>
        <time>2013-11-23T10:52:17.574Z</time>
      </trkpt>
      <trkpt lat="44.17231" lon="4.64644">
        <ele>111</ele>
        <time>2013-11-23T10:52:19.431Z</time>
      </trkpt>
      <trkpt lat="44.17236" lon="4.64638">
        <ele>109.8</ele>
        <time>2013-11-23T10:52:20.431Z</time>
      </trkpt>
      <trkpt lat="44.17243" lon="4.64623">
        <ele>108.3</ele>
        <time>2013-11-23T10:52:22.429Z</time>
      </trkpt>
      <trkpt lat="44.17246" lon="4.64616">
        <ele>108.6</ele>
        <time>2013-11-23T10:52:23.429Z</time>
      </trkpt>
      <trkpt lat="44.17255" lon="4.64603">
        <ele>104.9</ele>
        <time>2013-11-23T10:52:25.429Z</time>
      </trkpt>
      <trkpt lat="44.17256" lon="4.64591">
        <ele>104.6</ele>
        <time>2013-11-23T10:52:27.428Z</time>
      </trkpt>
      <trkpt lat="44.17257" lon="4.64587">
        <ele>103.9</ele>
        <time>2013-11-23T10:52:28.431Z</time>
      </trkpt>
      <trkpt lat="44.1726" lon="4.64576">
        <ele>102.7</ele>
        <time>2013-11-23T10:52:30.429Z</time>
      </trkpt>
      <trkpt lat="44.17261" lon="4.64563">
        <ele>102.6</ele>
        <time>2013-11-23T10:52:32.425Z</time>
      </trkpt>
      <trkpt lat="44.17256" lon="4.64555">
        <ele>100.5</ele>
        <time>2013-11-23T10:52:37.543Z</time>
      </trkpt>
      <trkpt lat="44.1725" lon="4.64565">
        <ele>100.2</ele>
        <time>2013-11-23T10:52:40.398Z</time>
      </trkpt>
      <trkpt lat="44.17245" lon="4.64572">
        <ele>100.7</ele>
        <time>2013-11-23T10:52:42.424Z</time>
      </trkpt>
      <trkpt lat="44.17242" lon="4.64576">
        <ele>101.2</ele>
        <time>2013-11-23T10:52:43.424Z</time>
      </trkpt>
      <trkpt lat="44.17239" lon="4.6458">
        <ele>102</ele>
        <time>2013-11-23T10:52:44.427Z</time>
      </trkpt>
      <trkpt lat="44.17233" lon="4.64587">
        <ele>101.9</ele>
        <time>2013-11-23T10:52:46.433Z</time>
      </trkpt>
      <trkpt lat="44.17226" lon="4.64593">
        <ele>101.9</ele>
        <time>2013-11-23T10:52:48.436Z</time>
      </trkpt>
      <trkpt lat="44.17219" lon="4.64599">
        <ele>102.1</ele>
        <time>2013-11-23T10:52:50.419Z</time>
      </trkpt>
      <trkpt lat="44.17211" lon="4.64605">
        <ele>102.3</ele>
        <time>2013-11-23T10:52:52.433Z</time>
      </trkpt>
      <trkpt lat="44.17208" lon="4.64608">
        <ele>102.5</ele>
        <time>2013-11-23T10:52:53.439Z</time>
      </trkpt>
      <trkpt lat="44.17205" lon="4.6461">
        <ele>102.6</ele>
        <time>2013-11-23T10:52:54.480Z</time>
      </trkpt>
      <trkpt lat="44.17197" lon="4.64616">
        <ele>102.4</ele>
        <time>2013-11-23T10:52:56.416Z</time>
      </trkpt>
      <trkpt lat="44.17193" lon="4.64619">
        <ele>102.3</ele>
        <time>2013-11-23T10:52:57.417Z</time>
      </trkpt>
      <trkpt lat="44.17189" lon="4.64622">
        <ele>102</ele>
        <time>2013-11-23T10:52:58.423Z</time>
      </trkpt>
      <trkpt lat="44.17184" lon="4.64625">
        <ele>101.7</ele>
        <time>2013-11-23T10:52:59.422Z</time>
      </trkpt>
      <trkpt lat="44.17179" lon="4.64628">
        <ele>101.6</ele>
        <time>2013-11-23T10:53:00.433Z</time>
      </trkpt>
      <trkpt lat="44.17174" lon="4.64632">
        <ele>101.5</ele>
        <time>2013-11-23T10:53:01.435Z</time>
      </trkpt>
      <trkpt lat="44.17169" lon="4.64635">
        <ele>101.3</ele>
        <time>2013-11-23T10:53:02.436Z</time>
      </trkpt>
      <trkpt lat="44.17164" lon="4.64637">
        <ele>101.3</ele>
        <time>2013-11-23T10:53:03.440Z</time>
      </trkpt>
      <trkpt lat="44.17153" lon="4.64644">
        <ele>101.2</ele>
        <time>2013-11-23T10:53:05.423Z</time>
      </trkpt>
      <trkpt lat="44.17141" lon="4.64649">
        <ele>101.5</ele>
        <time>2013-11-23T10:53:07.426Z</time>
      </trkpt>
      <trkpt lat="44.17136" lon="4.64652">
        <ele>101.5</ele>
        <time>2013-11-23T10:53:08.426Z</time>
      </trkpt>
      <trkpt lat="44.17123" lon="4.64658">
        <ele>101</ele>
        <time>2013-11-23T10:53:10.423Z</time>
      </trkpt>
      <trkpt lat="44.17111" lon="4.64665">
        <ele>100.9</ele>
        <time>2013-11-23T10:53:12.421Z</time>
      </trkpt>
      <trkpt lat="44.17104" lon="4.64668">
        <ele>100.8</ele>
        <time>2013-11-23T10:53:13.422Z</time>
      </trkpt>
      <trkpt lat="44.17091" lon="4.64674">
        <ele>100.7</ele>
        <time>2013-11-23T10:53:15.419Z</time>
      </trkpt>
      <trkpt lat="44.17078" lon="4.6468">
        <ele>101</ele>
        <time>2013-11-23T10:53:17.418Z</time>
      </trkpt>
      <trkpt lat="44.17071" lon="4.64683">
        <ele>100.9</ele>
        <time>2013-11-23T10:53:18.421Z</time>
      </trkpt>
      <trkpt lat="44.17064" lon="4.64686">
        <ele>100.6</ele>
        <time>2013-11-23T10:53:19.423Z</time>
      </trkpt>
      <trkpt lat="44.17057" lon="4.6469">
        <ele>100.5</ele>
        <time>2013-11-23T10:53:20.423Z</time>
      </trkpt>
      <trkpt lat="44.17044" lon="4.64697">
        <ele>100.9</ele>
        <time>2013-11-23T10:53:22.420Z</time>
      </trkpt>
      <trkpt lat="44.17037" lon="4.64701">
        <ele>101.5</ele>
        <time>2013-11-23T10:53:23.423Z</time>
      </trkpt>
      <trkpt lat="44.17026" lon="4.64711">
        <ele>100.3</ele>
        <time>2013-11-23T10:53:25.422Z</time>
      </trkpt>
      <trkpt lat="44.17014" lon="4.64724">
        <ele>100.3</ele>
        <time>2013-11-23T10:53:27.420Z</time>
      </trkpt>
      <trkpt lat="44.17009" lon="4.64731">
        <ele>100.2</ele>
        <time>2013-11-23T10:53:28.421Z</time>
      </trkpt>
      <trkpt lat="44.17003" lon="4.64737">
        <ele>99.8</ele>
        <time>2013-11-23T10:53:29.422Z</time>
      </trkpt>
      <trkpt lat="44.16998" lon="4.64744">
        <ele>99.5</ele>
        <time>2013-11-23T10:53:30.423Z</time>
      </trkpt>
      <trkpt lat="44.16987" lon="4.64757">
        <ele>99</ele>
        <time>2013-11-23T10:53:32.420Z</time>
      </trkpt>
      <trkpt lat="44.16981" lon="4.64764">
        <ele>98.8</ele>
        <time>2013-11-23T10:53:33.424Z</time>
      </trkpt>
      <trkpt lat="44.16971" lon="4.64778">
        <ele>99</ele>
        <time>2013-11-23T10:53:35.426Z</time>
      </trkpt>
      <trkpt lat="44.16965" lon="4.64785">
        <ele>99.1</ele>
        <time>2013-11-23T10:53:36.511Z</time>
      </trkpt>
      <trkpt lat="44.16955" lon="4.64798">
        <ele>99.3</ele>
        <time>2013-11-23T10:53:38.422Z</time>
      </trkpt>
      <trkpt lat="44.1695" lon="4.64804">
        <ele>99.5</ele>
        <time>2013-11-23T10:53:39.432Z</time>
      </trkpt>
      <trkpt lat="44.1694" lon="4.64817">
        <ele>99.7</ele>
        <time>2013-11-23T10:53:41.407Z</time>
      </trkpt>
      <trkpt lat="44.16935" lon="4.64823">
        <ele>99.5</ele>
        <time>2013-11-23T10:53:42.422Z</time>
      </trkpt>
      <trkpt lat="44.1693" lon="4.64829">
        <ele>99.6</ele>
        <time>2013-11-23T10:53:43.431Z</time>
      </trkpt>
      <trkpt lat="44.1692" lon="4.64841">
        <ele>99.9</ele>
        <time>2013-11-23T10:53:45.421Z</time>
      </trkpt>
      <trkpt lat="44.1691" lon="4.64853">
        <ele>100</ele>
        <time>2013-11-23T10:53:47.422Z</time>
      </trkpt>
      <trkpt lat="44.16905" lon="4.64859">
        <ele>100.1</ele>
        <time>2013-11-23T10:53:48.423Z</time>
      </trkpt>
      <trkpt lat="44.16896" lon="4.64871">
        <ele>100.1</ele>
        <time>2013-11-23T10:53:50.422Z</time>
      </trkpt>
      <trkpt lat="44.16892" lon="4.64877">
        <ele>100.3</ele>
        <time>2013-11-23T10:53:51.438Z</time>
      </trkpt>
      <trkpt lat="44.16883" lon="4.64887">
        <ele>100.3</ele>
        <time>2013-11-23T10:53:53.424Z</time>
      </trkpt>
      <trkpt lat="44.16875" lon="4.64898">
        <ele>100.9</ele>
        <time>2013-11-23T10:53:55.422Z</time>
      </trkpt>
      <trkpt lat="44.16871" lon="4.64903">
        <ele>100.8</ele>
        <time>2013-11-23T10:53:56.416Z</time>
      </trkpt>
      <trkpt lat="44.16867" lon="4.64909">
        <ele>100.8</ele>
        <time>2013-11-23T10:53:57.486Z</time>
      </trkpt>
      <trkpt lat="44.16859" lon="4.64918">
        <ele>101</ele>
        <time>2013-11-23T10:53:59.420Z</time>
      </trkpt>
      <trkpt lat="44.16851" lon="4.64927">
        <ele>101.4</ele>
        <time>2013-11-23T10:54:01.489Z</time>
      </trkpt>
      <trkpt lat="44.16844" lon="4.64936">
        <ele>101.1</ele>
        <time>2013-11-23T10:54:03.438Z</time>
      </trkpt>
      <trkpt lat="44.1684" lon="4.6494">
        <ele>101</ele>
        <time>2013-11-23T10:54:04.440Z</time>
      </trkpt>
      <trkpt lat="44.16833" lon="4.64947">
        <ele>101.6</ele>
        <time>2013-11-23T10:54:06.449Z</time>
      </trkpt>
      <trkpt lat="44.16827" lon="4.64954">
        <ele>102.1</ele>
        <time>2013-11-23T10:54:08.424Z</time>
      </trkpt>
      <trkpt lat="44.16824" lon="4.64958">
        <ele>102.2</ele>
        <time>2013-11-23T10:54:09.491Z</time>
      </trkpt>
      <trkpt lat="44.16818" lon="4.64965">
        <ele>102.3</ele>
        <time>2013-11-23T10:54:11.426Z</time>
      </trkpt>
      <trkpt lat="44.16815" lon="4.64968">
        <ele>102.5</ele>
        <time>2013-11-23T10:54:12.474Z</time>
      </trkpt>
      <trkpt lat="44.1681" lon="4.64975">
        <ele>102.9</ele>
        <time>2013-11-23T10:54:14.413Z</time>
      </trkpt>
      <trkpt lat="44.16808" lon="4.64978">
        <ele>103.1</ele>
        <time>2013-11-23T10:54:15.422Z</time>
      </trkpt>
      <trkpt lat="44.16802" lon="4.64986">
        <ele>103.5</ele>
        <time>2013-11-23T10:54:18.440Z</time>
      </trkpt>
      <trkpt lat="44.16798" lon="4.64991">
        <ele>103.8</ele>
        <time>2013-11-23T10:54:20.422Z</time>
      </trkpt>
      <trkpt lat="44.16794" lon="4.64997">
        <ele>104</ele>
        <time>2013-11-23T10:54:22.425Z</time>
      </trkpt>
      <trkpt lat="44.16791" lon="4.65">
        <ele>103.8</ele>
        <time>2013-11-23T10:54:23.425Z</time>
      </trkpt>
      <trkpt lat="44.16787" lon="4.65007">
        <ele>103.6</ele>
        <time>2013-11-23T10:54:25.435Z</time>
      </trkpt>
      <trkpt lat="44.16785" lon="4.65012">
        <ele>104</ele>
        <time>2013-11-23T10:54:27.434Z</time>
      </trkpt>
      <trkpt lat="44.16783" lon="4.65015">
        <ele>103.3</ele>
        <time>2013-11-23T10:54:28.442Z</time>
      </trkpt>
      <trkpt lat="44.16778" lon="4.65022">
        <ele>103.7</ele>
        <time>2013-11-23T10:54:30.422Z</time>
      </trkpt>
      <trkpt lat="44.16774" lon="4.65027">
        <ele>104</ele>
        <time>2013-11-23T10:54:32.426Z</time>
      </trkpt>
      <trkpt lat="44.16773" lon="4.65034">
        <ele>104.3</ele>
        <time>2013-11-23T10:54:34.403Z</time>
      </trkpt>
      <trkpt lat="44.16772" lon="4.65043">
        <ele>104.2</ele>
        <time>2013-11-23T10:54:37.427Z</time>
      </trkpt>
      <trkpt lat="44.16771" lon="4.65048">
        <ele>103.6</ele>
        <time>2013-11-23T10:54:39.467Z</time>
      </trkpt>
      <trkpt lat="44.16772" lon="4.65058">
        <ele>105.3</ele>
        <time>2013-11-23T10:54:44.552Z</time>
      </trkpt>
      <trkpt lat="44.16773" lon="4.65063">
        <ele>105.8</ele>
        <time>2013-11-23T10:54:47.466Z</time>
      </trkpt>
      <trkpt lat="44.16776" lon="4.65073">
        <ele>107.7</ele>
        <time>2013-11-23T10:54:52.535Z</time>
      </trkpt>
      <trkpt lat="44.16777" lon="4.65079">
        <ele>107.8</ele>
        <time>2013-11-23T10:54:55.424Z</time>
      </trkpt>
      <trkpt lat="44.16776" lon="4.65088">
        <ele>107.4</ele>
        <time>2013-11-23T10:54:59.688Z</time>
      </trkpt>
      <trkpt lat="44.16772" lon="4.65092">
        <ele>109.5</ele>
        <time>2013-11-23T10:55:02.426Z</time>
      </trkpt>
      <trkpt lat="44.16767" lon="4.65102">
        <ele>108.1</ele>
        <time>2013-11-23T10:55:11.431Z</time>
      </trkpt>
      <trkpt lat="44.16767" lon="4.65102">
        <ele>107.6</ele>
        <time>2013-11-23T10:55:15.433Z</time>
      </trkpt>
      <trkpt lat="44.16767" lon="4.65102">
        <ele>107.6</ele>
        <time>2013-11-23T10:55:15.633Z</time>
      </trkpt>
      <trkpt lat="44.16767" lon="4.65102">
        <ele>107.9</ele>
        <time>2013-11-23T10:55:16.435Z</time>
      </trkpt>
      <trkpt lat="44.16766" lon="4.65105">
        <ele>108.1</ele>
        <time>2013-11-23T10:55:18.424Z</time>
      </trkpt>
      <trkpt lat="44.16765" lon="4.65115">
        <ele>111.2</ele>
        <time>2013-11-23T10:55:27.439Z</time>
      </trkpt>
      <trkpt lat="44.16766" lon="4.65123">
        <ele>111.7</ele>
        <time>2013-11-23T10:55:31.443Z</time>
      </trkpt>
      <trkpt lat="44.16763" lon="4.65132">
        <ele>114.8</ele>
        <time>2013-11-23T10:55:38.464Z</time>
      </trkpt>
      <trkpt lat="44.16758" lon="4.65138">
        <ele>115.3</ele>
        <time>2013-11-23T10:55:42.420Z</time>
      </trkpt>
      <trkpt lat="44.16751" lon="4.65145">
        <ele>113.2</ele>
        <time>2013-11-23T10:55:50.431Z</time>
      </trkpt>
      <trkpt lat="44.16751" lon="4.65145">
        <ele>113.2</ele>
        <time>2013-11-23T10:55:50.695Z</time>
      </trkpt>
      <trkpt lat="44.16747" lon="4.65154">
        <ele>110.8</ele>
        <time>2013-11-23T10:55:55.575Z</time>
      </trkpt>
      <trkpt lat="44.16747" lon="4.65156">
        <ele>109.8</ele>
        <time>2013-11-23T10:55:56.450Z</time>
      </trkpt>
      <trkpt lat="44.16747" lon="4.65168">
        <ele>111.5</ele>
        <time>2013-11-23T10:56:02.536Z</time>
      </trkpt>
      <trkpt lat="44.16747" lon="4.65171">
        <ele>111.6</ele>
        <time>2013-11-23T10:56:03.431Z</time>
      </trkpt>
      <trkpt lat="44.16745" lon="4.65179">
        <ele>112.3</ele>
        <time>2013-11-23T10:56:08.543Z</time>
      </trkpt>
      <trkpt lat="44.16747" lon="4.65184">
        <ele>112.7</ele>
        <time>2013-11-23T10:56:11.422Z</time>
      </trkpt>
      <trkpt lat="44.16751" lon="4.65194">
        <ele>115.5</ele>
        <time>2013-11-23T10:56:18.543Z</time>
      </trkpt>
      <trkpt lat="44.16752" lon="4.65197">
        <ele>116.6</ele>
        <time>2013-11-23T10:56:22.427Z</time>
      </trkpt>
      <trkpt lat="44.16758" lon="4.65201">
        <ele>117.1</ele>
        <time>2013-11-23T10:56:29.420Z</time>
      </trkpt>
      <trkpt lat="44.16763" lon="4.65204">
        <ele>117.7</ele>
        <time>2013-11-23T10:56:32.421Z</time>
      </trkpt>
      <trkpt lat="44.16769" lon="4.65207">
        <ele>117.7</ele>
        <time>2013-11-23T10:56:36.536Z</time>
      </trkpt>
      <trkpt lat="44.16772" lon="4.65209">
        <ele>117.7</ele>
        <time>2013-11-23T10:56:39.435Z</time>
      </trkpt>
      <trkpt lat="44.16772" lon="4.65209">
        <ele>117.3</ele>
        <time>2013-11-23T10:56:40.419Z</time>
      </trkpt>
      <trkpt lat="44.16772" lon="4.65209">
        <ele>117.3</ele>
        <time>2013-11-23T10:56:41.422Z</time>
      </trkpt>
      <trkpt lat="44.16771" lon="4.65208">
        <ele>118.3</ele>
        <time>2013-11-23T10:56:57.406Z</time>
      </trkpt>
      <trkpt lat="44.16773" lon="4.65209">
        <ele>118.7</ele>
        <time>2013-11-23T10:57:04.443Z</time>
      </trkpt>
      <trkpt lat="44.16778" lon="4.65211">
        <ele>118.9</ele>
        <time>2013-11-23T10:57:08.574Z</time>
      </trkpt>
      <trkpt lat="44.16782" lon="4.65213">
        <ele>119.2</ele>
        <time>2013-11-23T10:57:11.438Z</time>
      </trkpt>
      <trkpt lat="44.16789" lon="4.65217">
        <ele>119.6</ele>
        <time>2013-11-23T10:57:16.514Z</time>
      </trkpt>
      <trkpt lat="44.16792" lon="4.65218">
        <ele>120.3</ele>
        <time>2013-11-23T10:57:19.430Z</time>
      </trkpt>
      <trkpt lat="44.16799" lon="4.65217">
        <ele>120.9</ele>
        <time>2013-11-23T10:57:24.421Z</time>
      </trkpt>
      <trkpt lat="44.16803" lon="4.65216">
        <ele>121.1</ele>
        <time>2013-11-23T10:57:26.435Z</time>
      </trkpt>
      <trkpt lat="44.1681" lon="4.65211">
        <ele>121.5</ele>
        <time>2013-11-23T10:57:31.535Z</time>
      </trkpt>
      <trkpt lat="44.16814" lon="4.65208">
        <ele>121.9</ele>
        <time>2013-11-23T10:57:34.419Z</time>
      </trkpt>
      <trkpt lat="44.16821" lon="4.652">
        <ele>122.3</ele>
        <time>2013-11-23T10:57:39.541Z</time>
      </trkpt>
      <trkpt lat="44.16825" lon="4.65195">
        <ele>122.4</ele>
        <time>2013-11-23T10:57:42.431Z</time>
      </trkpt>
      <trkpt lat="44.16833" lon="4.65194">
        <ele>122.7</ele>
        <time>2013-11-23T10:57:47.553Z</time>
      </trkpt>
      <trkpt lat="44.16837" lon="4.65197">
        <ele>123.6</ele>
        <time>2013-11-23T10:57:50.422Z</time>
      </trkpt>
      <trkpt lat="44.16841" lon="4.65206">
        <ele>124.6</ele>
        <time>2013-11-23T10:57:55.543Z</time>
      </trkpt>
      <trkpt lat="44.16842" lon="4.65207">
        <ele>124.8</ele>
        <time>2013-11-23T10:57:56.410Z</time>
      </trkpt>
      <trkpt lat="44.16849" lon="4.65215">
        <ele>125.2</ele>
        <time>2013-11-23T10:58:01.534Z</time>
      </trkpt>
      <trkpt lat="44.16852" lon="4.65218">
        <ele>125.6</ele>
        <time>2013-11-23T10:58:04.421Z</time>
      </trkpt>
      <trkpt lat="44.16859" lon="4.65226">
        <ele>125.9</ele>
        <time>2013-11-23T10:58:09.554Z</time>
      </trkpt>
      <trkpt lat="44.16861" lon="4.65232">
        <ele>126</ele>
        <time>2013-11-23T10:58:12.447Z</time>
      </trkpt>
      <trkpt lat="44.16863" lon="4.65241">
        <ele>127.6</ele>
        <time>2013-11-23T10:58:17.554Z</time>
      </trkpt>
      <trkpt lat="44.16866" lon="4.65246">
        <ele>128</ele>
        <time>2013-11-23T10:58:20.422Z</time>
      </trkpt>
      <trkpt lat="44.16868" lon="4.65254">
        <ele>128.6</ele>
        <time>2013-11-23T10:58:24.559Z</time>
      </trkpt>
      <trkpt lat="44.1687" lon="4.65258">
        <ele>128.8</ele>
        <time>2013-11-23T10:58:27.417Z</time>
      </trkpt>
      <trkpt lat="44.16875" lon="4.65263">
        <ele>129.4</ele>
        <time>2013-11-23T10:58:31.551Z</time>
      </trkpt>
      <trkpt lat="44.16881" lon="4.65265">
        <ele>130.4</ele>
        <time>2013-11-23T10:58:34.437Z</time>
      </trkpt>
      <trkpt lat="44.16889" lon="4.65265">
        <ele>132.8</ele>
        <time>2013-11-23T10:58:38.422Z</time>
      </trkpt>
      <trkpt lat="44.16891" lon="4.65266">
        <ele>132.7</ele>
        <time>2013-11-23T10:58:39.422Z</time>
      </trkpt>
      <trkpt lat="44.169" lon="4.65269">
        <ele>133.5</ele>
        <time>2013-11-23T10:58:43.421Z</time>
      </trkpt>
      <trkpt lat="44.16901" lon="4.6527">
        <ele>133.4</ele>
        <time>2013-11-23T10:58:44.423Z</time>
      </trkpt>
      <trkpt lat="44.16906" lon="4.6528">
        <ele>137.1</ele>
        <time>2013-11-23T10:58:56.419Z</time>
      </trkpt>
      <trkpt lat="44.16909" lon="4.65283">
        <ele>137.3</ele>
        <time>2013-11-23T10:59:01.430Z</time>
      </trkpt>
      <trkpt lat="44.16911" lon="4.65284">
        <ele>138.9</ele>
        <time>2013-11-23T10:59:05.429Z</time>
      </trkpt>
      <trkpt lat="44.16911" lon="4.65285">
        <ele>140.8</ele>
        <time>2013-11-23T10:59:07.413Z</time>
      </trkpt>
      <trkpt lat="44.16911" lon="4.65284">
        <ele>140.8</ele>
        <time>2013-11-23T10:59:07.621Z</time>
      </trkpt>
      <trkpt lat="44.16912" lon="4.65285">
        <ele>139.2</ele>
        <time>2013-11-23T10:59:08.413Z</time>
      </trkpt>
      <trkpt lat="44.16914" lon="4.65284">
        <ele>139.2</ele>
        <time>2013-11-23T10:59:11.477Z</time>
      </trkpt>
      <trkpt lat="44.16915" lon="4.65284">
        <ele>140.9</ele>
        <time>2013-11-23T10:59:13.427Z</time>
      </trkpt>
      <trkpt lat="44.16914" lon="4.65284">
        <ele>141.5</ele>
        <time>2013-11-23T10:59:14.430Z</time>
      </trkpt>
      <trkpt lat="44.16916" lon="4.65285">
        <ele>140.9</ele>
        <time>2013-11-23T10:59:16.427Z</time>
      </trkpt>
      <trkpt lat="44.16922" lon="4.65284">
        <ele>144.7</ele>
        <time>2013-11-23T10:59:27.511Z</time>
      </trkpt>
      <trkpt lat="44.16927" lon="4.65283">
        <ele>147</ele>
        <time>2013-11-23T10:59:33.421Z</time>
      </trkpt>
      <trkpt lat="44.16934" lon="4.65279">
        <ele>150.4</ele>
        <time>2013-11-23T10:59:44.536Z</time>
      </trkpt>
      <trkpt lat="44.16938" lon="4.65281">
        <ele>150.1</ele>
        <time>2013-11-23T10:59:50.422Z</time>
      </trkpt>
      <trkpt lat="44.16941" lon="4.65287">
        <ele>152</ele>
        <time>2013-11-23T10:59:56.683Z</time>
      </trkpt>
      <trkpt lat="44.16947" lon="4.65289">
        <ele>150.3</ele>
        <time>2013-11-23T11:00:00.414Z</time>
      </trkpt>
      <trkpt lat="44.16952" lon="4.65291">
        <ele>148.8</ele>
        <time>2013-11-23T11:00:05.535Z</time>
      </trkpt>
      <trkpt lat="44.16955" lon="4.65294">
        <ele>148.4</ele>
        <time>2013-11-23T11:00:08.424Z</time>
      </trkpt>
      <trkpt lat="44.16962" lon="4.653">
        <ele>145.3</ele>
        <time>2013-11-23T11:00:15.552Z</time>
      </trkpt>
      <trkpt lat="44.16964" lon="4.653">
        <ele>146.8</ele>
        <time>2013-11-23T11:00:19.422Z</time>
      </trkpt>
      <trkpt lat="44.1697" lon="4.65304">
        <ele>146</ele>
        <time>2013-11-23T11:00:27.537Z</time>
      </trkpt>
      <trkpt lat="44.16975" lon="4.65303">
        <ele>146.1</ele>
        <time>2013-11-23T11:00:32.422Z</time>
      </trkpt>
      <trkpt lat="44.16977" lon="4.65306">
        <ele>143.6</ele>
        <time>2013-11-23T11:00:37.541Z</time>
      </trkpt>
      <trkpt lat="44.16977" lon="4.65306">
        <ele>143.3</ele>
        <time>2013-11-23T11:00:40.424Z</time>
      </trkpt>
      <trkpt lat="44.16978" lon="4.65306">
        <ele>143.5</ele>
        <time>2013-11-23T11:00:48.574Z</time>
      </trkpt>
      <trkpt lat="44.16979" lon="4.65305">
        <ele>144.2</ele>
        <time>2013-11-23T11:00:53.424Z</time>
      </trkpt>
      <trkpt lat="44.16985" lon="4.65303">
        <ele>148.6</ele>
        <time>2013-11-23T11:01:00.510Z</time>
      </trkpt>
      <trkpt lat="44.16988" lon="4.65299">
        <ele>148.8</ele>
        <time>2013-11-23T11:01:04.468Z</time>
      </trkpt>
      <trkpt lat="44.16996" lon="4.65295">
        <ele>148.5</ele>
        <time>2013-11-23T11:01:08.451Z</time>
      </trkpt>
      <trkpt lat="44.17001" lon="4.65293">
        <ele>148.7</ele>
        <time>2013-11-23T11:01:10.436Z</time>
      </trkpt>
      <trkpt lat="44.17006" lon="4.65287">
        <ele>151.9</ele>
        <time>2013-11-23T11:01:15.490Z</time>
      </trkpt>
      <trkpt lat="44.17012" lon="4.65283">
        <ele>153.4</ele>
        <time>2013-11-23T11:01:18.424Z</time>
      </trkpt>
      <trkpt lat="44.17017" lon="4.65282">
        <ele>154.6</ele>
        <time>2013-11-23T11:01:20.474Z</time>
      </trkpt>
      <trkpt lat="44.17021" lon="4.65282">
        <ele>154.8</ele>
        <time>2013-11-23T11:01:22.461Z</time>
      </trkpt>
      <trkpt lat="44.17029" lon="4.65281">
        <ele>151.9</ele>
        <time>2013-11-23T11:01:26.424Z</time>
      </trkpt>
      <trkpt lat="44.17033" lon="4.65281">
        <ele>150.9</ele>
        <time>2013-11-23T11:01:28.436Z</time>
      </trkpt>
      <trkpt lat="44.17042" lon="4.65281">
        <ele>151.1</ele>
        <time>2013-11-23T11:01:33.536Z</time>
      </trkpt>
      <trkpt lat="44.17046" lon="4.65282">
        <ele>150.8</ele>
        <time>2013-11-23T11:01:36.424Z</time>
      </trkpt>
      <trkpt lat="44.17052" lon="4.65276">
        <ele>155</ele>
        <time>2013-11-23T11:01:41.427Z</time>
      </trkpt>
      <trkpt lat="44.17057" lon="4.65275">
        <ele>153.1</ele>
        <time>2013-11-23T11:01:43.432Z</time>
      </trkpt>
      <trkpt lat="44.17064" lon="4.65276">
        <ele>152.7</ele>
        <time>2013-11-23T11:01:47.578Z</time>
      </trkpt>
      <trkpt lat="44.17069" lon="4.65277">
        <ele>152.5</ele>
        <time>2013-11-23T11:01:50.425Z</time>
      </trkpt>
      <trkpt lat="44.17071" lon="4.65279">
        <ele>153.4</ele>
        <time>2013-11-23T11:01:53.424Z</time>
      </trkpt>
      <trkpt lat="44.1707" lon="4.65279">
        <ele>153.8</ele>
        <time>2013-11-23T11:01:54.425Z</time>
      </trkpt>
      <trkpt lat="44.1707" lon="4.65279">
        <ele>153.8</ele>
        <time>2013-11-23T11:01:54.616Z</time>
      </trkpt>
      <trkpt lat="44.17071" lon="4.65279">
        <ele>154</ele>
        <time>2013-11-23T11:01:55.427Z</time>
      </trkpt>
      <trkpt lat="44.17079" lon="4.65283">
        <ele>156.4</ele>
        <time>2013-11-23T11:02:06.425Z</time>
      </trkpt>
      <trkpt lat="44.17083" lon="4.65287">
        <ele>156.9</ele>
        <time>2013-11-23T11:02:11.429Z</time>
      </trkpt>
      <trkpt lat="44.17088" lon="4.65289">
        <ele>158.2</ele>
        <time>2013-11-23T11:02:16.522Z</time>
      </trkpt>
      <trkpt lat="44.17093" lon="4.65289">
        <ele>158.4</ele>
        <time>2013-11-23T11:02:19.424Z</time>
      </trkpt>
      <trkpt lat="44.17098" lon="4.65296">
        <ele>159.1</ele>
        <time>2013-11-23T11:02:27.534Z</time>
      </trkpt>
      <trkpt lat="44.17102" lon="4.65305">
        <ele>159</ele>
        <time>2013-11-23T11:02:32.424Z</time>
      </trkpt>
      <trkpt lat="44.17106" lon="4.65312">
        <ele>158.3</ele>
        <time>2013-11-23T11:02:39.536Z</time>
      </trkpt>
      <trkpt lat="44.17106" lon="4.6532">
        <ele>160.2</ele>
        <time>2013-11-23T11:02:43.438Z</time>
      </trkpt>
      <trkpt lat="44.17108" lon="4.65331">
        <ele>154.8</ele>
        <time>2013-11-23T11:02:56.542Z</time>
      </trkpt>
      <trkpt lat="44.1711" lon="4.65331">
        <ele>158.3</ele>
        <time>2013-11-23T11:03:03.439Z</time>
      </trkpt>
      <trkpt lat="44.17112" lon="4.65334">
        <ele>164.5</ele>
        <time>2013-11-23T11:03:07.605Z</time>
      </trkpt>
      <trkpt lat="44.17117" lon="4.6534">
        <ele>162.2</ele>
        <time>2013-11-23T11:03:10.418Z</time>
      </trkpt>
      <trkpt lat="44.17123" lon="4.65345">
        <ele>163.7</ele>
        <time>2013-11-23T11:03:13.444Z</time>
      </trkpt>
      <trkpt lat="44.17126" lon="4.65349">
        <ele>161.9</ele>
        <time>2013-11-23T11:03:15.461Z</time>
      </trkpt>
      <trkpt lat="44.17128" lon="4.65358">
        <ele>161.4</ele>
        <time>2013-11-23T11:03:17.433Z</time>
      </trkpt>
      <trkpt lat="44.17129" lon="4.65364">
        <ele>163.6</ele>
        <time>2013-11-23T11:03:19.432Z</time>
      </trkpt>
      <trkpt lat="44.17136" lon="4.6537">
        <ele>158.6</ele>
        <time>2013-11-23T11:03:24.579Z</time>
      </trkpt>
      <trkpt lat="44.17139" lon="4.65377">
        <ele>158.7</ele>
        <time>2013-11-23T11:03:27.425Z</time>
      </trkpt>
      <trkpt lat="44.17141" lon="4.65386">
        <ele>161.8</ele>
        <time>2013-11-23T11:03:31.422Z</time>
      </trkpt>
      <trkpt lat="44.17143" lon="4.65389">
        <ele>162.8</ele>
        <time>2013-11-23T11:03:33.418Z</time>
      </trkpt>
      <trkpt lat="44.17148" lon="4.65394">
        <ele>162.9</ele>
        <time>2013-11-23T11:03:37.522Z</time>
      </trkpt>
      <trkpt lat="44.17154" lon="4.654">
        <ele>162.5</ele>
        <time>2013-11-23T11:03:40.422Z</time>
      </trkpt>
      <trkpt lat="44.17158" lon="4.6541">
        <ele>162.2</ele>
        <time>2013-11-23T11:03:42.506Z</time>
      </trkpt>
      <trkpt lat="44.17149" lon="4.65413">
        <ele>162</ele>
        <time>2013-11-23T11:03:44.461Z</time>
      </trkpt>
      <trkpt lat="44.17142" lon="4.65416">
        <ele>161.1</ele>
        <time>2013-11-23T11:03:47.430Z</time>
      </trkpt>
      <trkpt lat="44.1714" lon="4.65419">
        <ele>161.1</ele>
        <time>2013-11-23T11:03:49.424Z</time>
      </trkpt>
      <trkpt lat="44.17132" lon="4.65425">
        <ele>162.3</ele>
        <time>2013-11-23T11:03:53.681Z</time>
      </trkpt>
      <trkpt lat="44.17127" lon="4.65429">
        <ele>162.4</ele>
        <time>2013-11-23T11:03:56.424Z</time>
      </trkpt>
      <trkpt lat="44.17118" lon="4.65429">
        <ele>161.2</ele>
        <time>2013-11-23T11:03:59.434Z</time>
      </trkpt>
      <trkpt lat="44.17115" lon="4.65429">
        <ele>160.7</ele>
        <time>2013-11-23T11:04:00.436Z</time>
      </trkpt>
      <trkpt lat="44.1711" lon="4.6543">
        <ele>160.3</ele>
        <time>2013-11-23T11:04:02.436Z</time>
      </trkpt>
      <trkpt lat="44.17103" lon="4.65431">
        <ele>158.6</ele>
        <time>2013-11-23T11:04:04.421Z</time>
      </trkpt>
      <trkpt lat="44.17097" lon="4.65433">
        <ele>157.8</ele>
        <time>2013-11-23T11:04:06.438Z</time>
      </trkpt>
      <trkpt lat="44.17092" lon="4.65436">
        <ele>158.9</ele>
        <time>2013-11-23T11:04:08.437Z</time>
      </trkpt>
      <trkpt lat="44.17085" lon="4.65436">
        <ele>156.5</ele>
        <time>2013-11-23T11:04:13.531Z</time>
      </trkpt>
      <trkpt lat="44.17081" lon="4.6544">
        <ele>155.8</ele>
        <time>2013-11-23T11:04:16.423Z</time>
      </trkpt>
      <trkpt lat="44.17076" lon="4.6544">
        <ele>156</ele>
        <time>2013-11-23T11:04:18.424Z</time>
      </trkpt>
      <trkpt lat="44.17072" lon="4.6544">
        <ele>156.5</ele>
        <time>2013-11-23T11:04:20.423Z</time>
      </trkpt>
      <trkpt lat="44.17065" lon="4.65445">
        <ele>154.2</ele>
        <time>2013-11-23T11:04:24.536Z</time>
      </trkpt>
      <trkpt lat="44.17057" lon="4.65442">
        <ele>156.7</ele>
        <time>2013-11-23T11:04:27.422Z</time>
      </trkpt>
      <trkpt lat="44.17049" lon="4.65444">
        <ele>157.4</ele>
        <time>2013-11-23T11:04:30.421Z</time>
      </trkpt>
      <trkpt lat="44.17044" lon="4.65443">
        <ele>155</ele>
        <time>2013-11-23T11:04:31.422Z</time>
      </trkpt>
      <trkpt lat="44.17037" lon="4.65446">
        <ele>154</ele>
        <time>2013-11-23T11:04:34.423Z</time>
      </trkpt>
      <trkpt lat="44.17033" lon="4.6545">
        <ele>153.9</ele>
        <time>2013-11-23T11:04:36.422Z</time>
      </trkpt>
      <trkpt lat="44.17027" lon="4.65454">
        <ele>154.1</ele>
        <time>2013-11-23T11:04:39.422Z</time>
      </trkpt>
      <trkpt lat="44.17023" lon="4.65454">
        <ele>154.4</ele>
        <time>2013-11-23T11:04:40.422Z</time>
      </trkpt>
      <trkpt lat="44.17014" lon="4.65454">
        <ele>155.9</ele>
        <time>2013-11-23T11:04:43.422Z</time>
      </trkpt>
      <trkpt lat="44.17012" lon="4.65454">
        <ele>156</ele>
        <time>2013-11-23T11:04:44.423Z</time>
      </trkpt>
      <trkpt lat="44.17009" lon="4.65456">
        <ele>156</ele>
        <time>2013-11-23T11:04:46.425Z</time>
      </trkpt>
      <trkpt lat="44.17001" lon="4.65456">
        <ele>157.2</ele>
        <time>2013-11-23T11:04:48.419Z</time>
      </trkpt>
      <trkpt lat="44.16997" lon="4.65457">
        <ele>158</ele>
        <time>2013-11-23T11:04:49.422Z</time>
      </trkpt>
      <trkpt lat="44.16989" lon="4.65458">
        <ele>160.3</ele>
        <time>2013-11-23T11:04:51.406Z</time>
      </trkpt>
      <trkpt lat="44.16981" lon="4.65459">
        <ele>159</ele>
        <time>2013-11-23T11:04:53.421Z</time>
      </trkpt>
      <trkpt lat="44.16977" lon="4.6546">
        <ele>159.1</ele>
        <time>2013-11-23T11:04:54.463Z</time>
      </trkpt>
      <trkpt lat="44.16971" lon="4.65464">
        <ele>161.3</ele>
        <time>2013-11-23T11:04:57.425Z</time>
      </trkpt>
      <trkpt lat="44.16966" lon="4.65468">
        <ele>160.9</ele>
        <time>2013-11-23T11:04:59.422Z</time>
      </trkpt>
      <trkpt lat="44.16959" lon="4.65471">
        <ele>162.3</ele>
        <time>2013-11-23T11:05:02.422Z</time>
      </trkpt>
      <trkpt lat="44.16954" lon="4.65471">
        <ele>162</ele>
        <time>2013-11-23T11:05:03.422Z</time>
      </trkpt>
      <trkpt lat="44.16946" lon="4.65471">
        <ele>161.7</ele>
        <time>2013-11-23T11:05:05.466Z</time>
      </trkpt>
      <trkpt lat="44.16943" lon="4.65471">
        <ele>160.5</ele>
        <time>2013-11-23T11:05:06.471Z</time>
      </trkpt>
      <trkpt lat="44.16936" lon="4.65471">
        <ele>159.4</ele>
        <time>2013-11-23T11:05:09.469Z</time>
      </trkpt>
      <trkpt lat="44.16928" lon="4.65473">
        <ele>158.1</ele>
        <time>2013-11-23T11:05:11.422Z</time>
      </trkpt>
      <trkpt lat="44.16925" lon="4.65473">
        <ele>158</ele>
        <time>2013-11-23T11:05:12.424Z</time>
      </trkpt>
      <trkpt lat="44.16918" lon="4.65472">
        <ele>157</ele>
        <time>2013-11-23T11:05:14.424Z</time>
      </trkpt>
      <trkpt lat="44.16914" lon="4.65471">
        <ele>155.8</ele>
        <time>2013-11-23T11:05:15.433Z</time>
      </trkpt>
      <trkpt lat="44.16909" lon="4.65467">
        <ele>156</ele>
        <time>2013-11-23T11:05:17.433Z</time>
      </trkpt>
      <trkpt lat="44.16904" lon="4.65475">
        <ele>154.3</ele>
        <time>2013-11-23T11:05:22.552Z</time>
      </trkpt>
      <trkpt lat="44.16899" lon="4.65477">
        <ele>153.3</ele>
        <time>2013-11-23T11:05:25.430Z</time>
      </trkpt>
      <trkpt lat="44.16891" lon="4.65476">
        <ele>152.4</ele>
        <time>2013-11-23T11:05:28.422Z</time>
      </trkpt>
      <trkpt lat="44.16888" lon="4.65476">
        <ele>152.1</ele>
        <time>2013-11-23T11:05:29.423Z</time>
      </trkpt>
      <trkpt lat="44.16882" lon="4.65477">
        <ele>152</ele>
        <time>2013-11-23T11:05:32.472Z</time>
      </trkpt>
      <trkpt lat="44.16878" lon="4.65477">
        <ele>151.8</ele>
        <time>2013-11-23T11:05:34.433Z</time>
      </trkpt>
      <trkpt lat="44.1687" lon="4.65478">
        <ele>151.5</ele>
        <time>2013-11-23T11:05:39.533Z</time>
      </trkpt>
      <trkpt lat="44.16867" lon="4.65485">
        <ele>151.8</ele>
        <time>2013-11-23T11:05:42.430Z</time>
      </trkpt>
      <trkpt lat="44.1686" lon="4.65493">
        <ele>153</ele>
        <time>2013-11-23T11:05:48.534Z</time>
      </trkpt>
      <trkpt lat="44.16859" lon="4.65493">
        <ele>153.1</ele>
        <time>2013-11-23T11:05:49.423Z</time>
      </trkpt>
      <trkpt lat="44.16857" lon="4.65505">
        <ele>154.1</ele>
        <time>2013-11-23T11:05:54.537Z</time>
      </trkpt>
      <trkpt lat="44.16856" lon="4.65509">
        <ele>154.2</ele>
        <time>2013-11-23T11:05:56.420Z</time>
      </trkpt>
      <trkpt lat="44.16859" lon="4.65519">
        <ele>154.4</ele>
        <time>2013-11-23T11:06:01.532Z</time>
      </trkpt>
      <trkpt lat="44.16852" lon="4.65521">
        <ele>154.8</ele>
        <time>2013-11-23T11:06:04.422Z</time>
      </trkpt>
      <trkpt lat="44.16848" lon="4.65532">
        <ele>161.8</ele>
        <time>2013-11-23T11:06:11.538Z</time>
      </trkpt>
      <trkpt lat="44.16846" lon="4.6554">
        <ele>161.5</ele>
        <time>2013-11-23T11:06:15.423Z</time>
      </trkpt>
      <trkpt lat="44.16844" lon="4.65548">
        <ele>161.2</ele>
        <time>2013-11-23T11:06:18.423Z</time>
      </trkpt>
      <trkpt lat="44.16841" lon="4.65553">
        <ele>161.2</ele>
        <time>2013-11-23T11:06:20.422Z</time>
      </trkpt>
      <trkpt lat="44.1684" lon="4.65563">
        <ele>160.4</ele>
        <time>2013-11-23T11:06:25.552Z</time>
      </trkpt>
      <trkpt lat="44.1684" lon="4.65568">
        <ele>161.2</ele>
        <time>2013-11-23T11:06:28.422Z</time>
      </trkpt>
      <trkpt lat="44.16836" lon="4.65579">
        <ele>165.5</ele>
        <time>2013-11-23T11:06:35.534Z</time>
      </trkpt>
      <trkpt lat="44.16831" lon="4.65588">
        <ele>164.5</ele>
        <time>2013-11-23T11:06:39.422Z</time>
      </trkpt>
      <trkpt lat="44.16823" lon="4.65594">
        <ele>163.1</ele>
        <time>2013-11-23T11:06:44.422Z</time>
      </trkpt>
      <trkpt lat="44.16823" lon="4.65594">
        <ele>163.1</ele>
        <time>2013-11-23T11:06:44.594Z</time>
      </trkpt>
      <trkpt lat="44.16817" lon="4.65601">
        <ele>163.2</ele>
        <time>2013-11-23T11:06:49.569Z</time>
      </trkpt>
      <trkpt lat="44.16817" lon="4.65609">
        <ele>163.6</ele>
        <time>2013-11-23T11:06:52.437Z</time>
      </trkpt>
      <trkpt lat="44.16815" lon="4.65619">
        <ele>162.4</ele>
        <time>2013-11-23T11:06:56.550Z</time>
      </trkpt>
      <trkpt lat="44.16815" lon="4.65627">
        <ele>165</ele>
        <time>2013-11-23T11:06:59.436Z</time>
      </trkpt>
      <trkpt lat="44.16807" lon="4.65633">
        <ele>167.5</ele>
        <time>2013-11-23T11:07:06.535Z</time>
      </trkpt>
      <trkpt lat="44.16805" lon="4.65655">
        <ele>162.5</ele>
        <time>2013-11-23T11:07:10.422Z</time>
      </trkpt>
      <trkpt lat="44.16807" lon="4.65666">
        <ele>160.2</ele>
        <time>2013-11-23T11:07:15.535Z</time>
      </trkpt>
      <trkpt lat="44.16813" lon="4.65667">
        <ele>158.9</ele>
        <time>2013-11-23T11:07:18.431Z</time>
      </trkpt>
      <trkpt lat="44.16816" lon="4.65673">
        <ele>158.3</ele>
        <time>2013-11-23T11:07:20.425Z</time>
      </trkpt>
      <trkpt lat="44.16819" lon="4.65679">
        <ele>156.7</ele>
        <time>2013-11-23T11:07:22.423Z</time>
      </trkpt>
      <trkpt lat="44.16819" lon="4.65689">
        <ele>157.2</ele>
        <time>2013-11-23T11:07:27.535Z</time>
      </trkpt>
      <trkpt lat="44.16822" lon="4.65691">
        <ele>156.8</ele>
        <time>2013-11-23T11:07:30.422Z</time>
      </trkpt>
      <trkpt lat="44.16828" lon="4.65697">
        <ele>154.8</ele>
        <time>2013-11-23T11:07:35.554Z</time>
      </trkpt>
      <trkpt lat="44.1683" lon="4.657">
        <ele>153.3</ele>
        <time>2013-11-23T11:07:38.426Z</time>
      </trkpt>
      <trkpt lat="44.16837" lon="4.65703">
        <ele>152.8</ele>
        <time>2013-11-23T11:07:43.537Z</time>
      </trkpt>
      <trkpt lat="44.16842" lon="4.65703">
        <ele>152.1</ele>
        <time>2013-11-23T11:07:46.424Z</time>
      </trkpt>
      <trkpt lat="44.16848" lon="4.65696">
        <ele>152</ele>
        <time>2013-11-23T11:07:51.555Z</time>
      </trkpt>
      <trkpt lat="44.16855" lon="4.65692">
        <ele>151.9</ele>
        <time>2013-11-23T11:07:54.422Z</time>
      </trkpt>
      <trkpt lat="44.16863" lon="4.65689">
        <ele>151.9</ele>
        <time>2013-11-23T11:07:58.440Z</time>
      </trkpt>
      <trkpt lat="44.16864" lon="4.65689">
        <ele>151.9</ele>
        <time>2013-11-23T11:07:58.559Z</time>
      </trkpt>
      <trkpt lat="44.16871" lon="4.6569">
        <ele>152.7</ele>
        <time>2013-11-23T11:08:01.501Z</time>
      </trkpt>
      <trkpt lat="44.16874" lon="4.6569">
        <ele>153.8</ele>
        <time>2013-11-23T11:08:03.421Z</time>
      </trkpt>
      <trkpt lat="44.16881" lon="4.65689">
        <ele>153.9</ele>
        <time>2013-11-23T11:08:07.666Z</time>
      </trkpt>
      <trkpt lat="44.16887" lon="4.65689">
        <ele>153.3</ele>
        <time>2013-11-23T11:08:10.481Z</time>
      </trkpt>
      <trkpt lat="44.16895" lon="4.65692">
        <ele>156.4</ele>
        <time>2013-11-23T11:08:17.435Z</time>
      </trkpt>
      <trkpt lat="44.16897" lon="4.65694">
        <ele>156.4</ele>
        <time>2013-11-23T11:08:20.437Z</time>
      </trkpt>
      <trkpt lat="44.16901" lon="4.65695">
        <ele>156.4</ele>
        <time>2013-11-23T11:08:25.554Z</time>
      </trkpt>
      <trkpt lat="44.16907" lon="4.65695">
        <ele>155.4</ele>
        <time>2013-11-23T11:08:28.430Z</time>
      </trkpt>
      <trkpt lat="44.16914" lon="4.65697">
        <ele>157.7</ele>
        <time>2013-11-23T11:08:45.424Z</time>
      </trkpt>
      <trkpt lat="44.16916" lon="4.65696">
        <ele>157.5</ele>
        <time>2013-11-23T11:08:53.437Z</time>
      </trkpt>
      <trkpt lat="44.16925" lon="4.657">
        <ele>161.4</ele>
        <time>2013-11-23T11:09:01.419Z</time>
      </trkpt>
      <trkpt lat="44.16925" lon="4.657">
        <ele>161.4</ele>
        <time>2013-11-23T11:09:01.553Z</time>
      </trkpt>
      <trkpt lat="44.16932" lon="4.657">
        <ele>162.7</ele>
        <time>2013-11-23T11:09:06.539Z</time>
      </trkpt>
      <trkpt lat="44.16936" lon="4.65701">
        <ele>162.5</ele>
        <time>2013-11-23T11:09:09.423Z</time>
      </trkpt>
      <trkpt lat="44.16943" lon="4.65701">
        <ele>161.2</ele>
        <time>2013-11-23T11:09:14.561Z</time>
      </trkpt>
      <trkpt lat="44.16945" lon="4.657">
        <ele>163.2</ele>
        <time>2013-11-23T11:09:17.421Z</time>
      </trkpt>
      <trkpt lat="44.16953" lon="4.657">
        <ele>163.5</ele>
        <time>2013-11-23T11:09:24.554Z</time>
      </trkpt>
      <trkpt lat="44.16955" lon="4.657">
        <ele>164.1</ele>
        <time>2013-11-23T11:09:28.420Z</time>
      </trkpt>
      <trkpt lat="44.16962" lon="4.657">
        <ele>162.4</ele>
        <time>2013-11-23T11:09:39.702Z</time>
      </trkpt>
      <trkpt lat="44.16971" lon="4.65706">
        <ele>161.7</ele>
        <time>2013-11-23T11:09:45.491Z</time>
      </trkpt>
      <trkpt lat="44.16978" lon="4.65714">
        <ele>166.5</ele>
        <time>2013-11-23T11:09:56.510Z</time>
      </trkpt>
      <trkpt lat="44.16978" lon="4.65714">
        <ele>166.4</ele>
        <time>2013-11-23T11:10:02.422Z</time>
      </trkpt>
      <trkpt lat="44.16978" lon="4.65714">
        <ele>166.4</ele>
        <time>2013-11-23T11:10:02.625Z</time>
      </trkpt>
      <trkpt lat="44.16979" lon="4.65714">
        <ele>166.2</ele>
        <time>2013-11-23T11:10:08.537Z</time>
      </trkpt>
      <trkpt lat="44.1698" lon="4.65715">
        <ele>167.7</ele>
        <time>2013-11-23T11:10:11.425Z</time>
      </trkpt>
      <trkpt lat="44.16988" lon="4.65718">
        <ele>167.2</ele>
        <time>2013-11-23T11:10:25.538Z</time>
      </trkpt>
      <trkpt lat="44.17001" lon="4.65726">
        <ele>167.7</ele>
        <time>2013-11-23T11:10:33.422Z</time>
      </trkpt>
      <trkpt lat="44.17009" lon="4.65726">
        <ele>167.8</ele>
        <time>2013-11-23T11:10:40.535Z</time>
      </trkpt>
      <trkpt lat="44.17013" lon="4.65726">
        <ele>168.8</ele>
        <time>2013-11-23T11:10:44.422Z</time>
      </trkpt>
      <trkpt lat="44.17017" lon="4.65717">
        <ele>170.1</ele>
        <time>2013-11-23T11:10:48.553Z</time>
      </trkpt>
      <trkpt lat="44.17019" lon="4.65714">
        <ele>172</ele>
        <time>2013-11-23T11:10:51.434Z</time>
      </trkpt>
      <trkpt lat="44.17026" lon="4.65713">
        <ele>171.6</ele>
        <time>2013-11-23T11:10:54.461Z</time>
      </trkpt>
      <trkpt lat="44.17029" lon="4.65714">
        <ele>172.4</ele>
        <time>2013-11-23T11:10:56.416Z</time>
      </trkpt>
      <trkpt lat="44.17035" lon="4.65716">
        <ele>174.2</ele>
        <time>2013-11-23T11:11:00.616Z</time>
      </trkpt>
      <trkpt lat="44.1704" lon="4.65716">
        <ele>174.8</ele>
        <time>2013-11-23T11:11:03.481Z</time>
      </trkpt>
      <trkpt lat="44.17047" lon="4.65721">
        <ele>174.1</ele>
        <time>2013-11-23T11:11:09.555Z</time>
      </trkpt>
      <trkpt lat="44.17047" lon="4.65722">
        <ele>174.3</ele>
        <time>2013-11-23T11:11:10.439Z</time>
      </trkpt>
      <trkpt lat="44.17045" lon="4.65732">
        <ele>173.3</ele>
        <time>2013-11-23T11:11:15.618Z</time>
      </trkpt>
      <trkpt lat="44.17044" lon="4.65742">
        <ele>172.8</ele>
        <time>2013-11-23T11:11:18.431Z</time>
      </trkpt>
      <trkpt lat="44.17044" lon="4.6575">
        <ele>172.8</ele>
        <time>2013-11-23T11:11:20.473Z</time>
      </trkpt>
      <trkpt lat="44.17043" lon="4.65756">
        <ele>172.5</ele>
        <time>2013-11-23T11:11:22.422Z</time>
      </trkpt>
      <trkpt lat="44.17042" lon="4.65766">
        <ele>172.7</ele>
        <time>2013-11-23T11:11:25.423Z</time>
      </trkpt>
      <trkpt lat="44.17042" lon="4.65774">
        <ele>173</ele>
        <time>2013-11-23T11:11:27.423Z</time>
      </trkpt>
      <trkpt lat="44.17034" lon="4.6578">
        <ele>177.7</ele>
        <time>2013-11-23T11:11:30.424Z</time>
      </trkpt>
      <trkpt lat="44.17033" lon="4.65783">
        <ele>177.3</ele>
        <time>2013-11-23T11:11:31.424Z</time>
      </trkpt>
      <trkpt lat="44.17031" lon="4.65789">
        <ele>177.6</ele>
        <time>2013-11-23T11:11:33.425Z</time>
      </trkpt>
      <trkpt lat="44.17029" lon="4.65795">
        <ele>177.8</ele>
        <time>2013-11-23T11:11:35.422Z</time>
      </trkpt>
      <trkpt lat="44.17026" lon="4.65803">
        <ele>178.1</ele>
        <time>2013-11-23T11:11:38.423Z</time>
      </trkpt>
      <trkpt lat="44.17025" lon="4.65807">
        <ele>178.1</ele>
        <time>2013-11-23T11:11:39.424Z</time>
      </trkpt>
      <trkpt lat="44.17025" lon="4.65811">
        <ele>177.2</ele>
        <time>2013-11-23T11:11:40.426Z</time>
      </trkpt>
      <trkpt lat="44.17025" lon="4.6582">
        <ele>175.2</ele>
        <time>2013-11-23T11:11:42.423Z</time>
      </trkpt>
      <trkpt lat="44.17024" lon="4.65828">
        <ele>174.8</ele>
        <time>2013-11-23T11:11:44.423Z</time>
      </trkpt>
      <trkpt lat="44.1702" lon="4.65834">
        <ele>173.2</ele>
        <time>2013-11-23T11:11:46.419Z</time>
      </trkpt>
      <trkpt lat="44.17021" lon="4.65845">
        <ele>172.4</ele>
        <time>2013-11-23T11:11:48.422Z</time>
      </trkpt>
      <trkpt lat="44.17021" lon="4.6585">
        <ele>171.2</ele>
        <time>2013-11-23T11:11:49.422Z</time>
      </trkpt>
      <trkpt lat="44.17019" lon="4.65859">
        <ele>170.2</ele>
        <time>2013-11-23T11:11:52.427Z</time>
      </trkpt>
      <trkpt lat="44.17017" lon="4.65865">
        <ele>168.6</ele>
        <time>2013-11-23T11:11:54.421Z</time>
      </trkpt>
      <trkpt lat="44.17013" lon="4.65876">
        <ele>167.4</ele>
        <time>2013-11-23T11:11:57.422Z</time>
      </trkpt>
      <trkpt lat="44.17013" lon="4.6588">
        <ele>167.7</ele>
        <time>2013-11-23T11:11:58.431Z</time>
      </trkpt>
      <trkpt lat="44.17009" lon="4.65887">
        <ele>169.9</ele>
        <time>2013-11-23T11:12:01.429Z</time>
      </trkpt>
      <trkpt lat="44.17005" lon="4.65892">
        <ele>169.8</ele>
        <time>2013-11-23T11:12:03.424Z</time>
      </trkpt>
      <trkpt lat="44.17004" lon="4.659">
        <ele>170.8</ele>
        <time>2013-11-23T11:12:07.422Z</time>
      </trkpt>
      <trkpt lat="44.17004" lon="4.65906">
        <ele>170.2</ele>
        <time>2013-11-23T11:12:09.403Z</time>
      </trkpt>
      <trkpt lat="44.17001" lon="4.65915">
        <ele>172</ele>
        <time>2013-11-23T11:12:13.550Z</time>
      </trkpt>
      <trkpt lat="44.16999" lon="4.65923">
        <ele>171.8</ele>
        <time>2013-11-23T11:12:16.427Z</time>
      </trkpt>
      <trkpt lat="44.16993" lon="4.65932">
        <ele>176.5</ele>
        <time>2013-11-23T11:12:21.557Z</time>
      </trkpt>
      <trkpt lat="44.16991" lon="4.65938">
        <ele>176</ele>
        <time>2013-11-23T11:12:24.428Z</time>
      </trkpt>
      <trkpt lat="44.1699" lon="4.65949">
        <ele>175.8</ele>
        <time>2013-11-23T11:12:28.423Z</time>
      </trkpt>
      <trkpt lat="44.1699" lon="4.65953">
        <ele>174.9</ele>
        <time>2013-11-23T11:12:29.452Z</time>
      </trkpt>
      <trkpt lat="44.1699" lon="4.65961">
        <ele>174.9</ele>
        <time>2013-11-23T11:12:32.450Z</time>
      </trkpt>
      <trkpt lat="44.16989" lon="4.65966">
        <ele>175.4</ele>
        <time>2013-11-23T11:12:34.422Z</time>
      </trkpt>
      <trkpt lat="44.16989" lon="4.65973">
        <ele>174.6</ele>
        <time>2013-11-23T11:12:36.426Z</time>
      </trkpt>
      <trkpt lat="44.16987" lon="4.65978">
        <ele>174</ele>
        <time>2013-11-23T11:12:38.437Z</time>
      </trkpt>
      <trkpt lat="44.16985" lon="4.65988">
        <ele>174.6</ele>
        <time>2013-11-23T11:12:41.461Z</time>
      </trkpt>
      <trkpt lat="44.16983" lon="4.65994">
        <ele>174.8</ele>
        <time>2013-11-23T11:12:43.422Z</time>
      </trkpt>
      <trkpt lat="44.1698" lon="4.66001">
        <ele>174.2</ele>
        <time>2013-11-23T11:12:47.721Z</time>
      </trkpt>
      <trkpt lat="44.16977" lon="4.66007">
        <ele>173.7</ele>
        <time>2013-11-23T11:12:50.450Z</time>
      </trkpt>
      <trkpt lat="44.16977" lon="4.66019">
        <ele>174.1</ele>
        <time>2013-11-23T11:12:54.419Z</time>
      </trkpt>
      <trkpt lat="44.16976" lon="4.66022">
        <ele>174.1</ele>
        <time>2013-11-23T11:12:55.423Z</time>
      </trkpt>
      <trkpt lat="44.16971" lon="4.66028">
        <ele>172.3</ele>
        <time>2013-11-23T11:12:59.538Z</time>
      </trkpt>
      <trkpt lat="44.1697" lon="4.66032">
        <ele>174.5</ele>
        <time>2013-11-23T11:13:02.429Z</time>
      </trkpt>
      <trkpt lat="44.16967" lon="4.66042">
        <ele>171.3</ele>
        <time>2013-11-23T11:13:06.428Z</time>
      </trkpt>
      <trkpt lat="44.16966" lon="4.66048">
        <ele>170.1</ele>
        <time>2013-11-23T11:13:08.416Z</time>
      </trkpt>
      <trkpt lat="44.16963" lon="4.66056">
        <ele>169.6</ele>
        <time>2013-11-23T11:13:12.555Z</time>
      </trkpt>
      <trkpt lat="44.1696" lon="4.66059">
        <ele>175.6</ele>
        <time>2013-11-23T11:13:15.427Z</time>
      </trkpt>
      <trkpt lat="44.16953" lon="4.66065">
        <ele>179.5</ele>
        <time>2013-11-23T11:13:20.549Z</time>
      </trkpt>
      <trkpt lat="44.16951" lon="4.66072">
        <ele>178.6</ele>
        <time>2013-11-23T11:13:23.422Z</time>
      </trkpt>
      <trkpt lat="44.16948" lon="4.66081">
        <ele>177.8</ele>
        <time>2013-11-23T11:13:26.421Z</time>
      </trkpt>
      <trkpt lat="44.16947" lon="4.66086">
        <ele>177.2</ele>
        <time>2013-11-23T11:13:28.423Z</time>
      </trkpt>
      <trkpt lat="44.16945" lon="4.66098">
        <ele>179.6</ele>
        <time>2013-11-23T11:13:33.640Z</time>
      </trkpt>
      <trkpt lat="44.16946" lon="4.66106">
        <ele>178.1</ele>
        <time>2013-11-23T11:13:36.424Z</time>
      </trkpt>
      <trkpt lat="44.16946" lon="4.66116">
        <ele>178</ele>
        <time>2013-11-23T11:13:40.524Z</time>
      </trkpt>
      <trkpt lat="44.16947" lon="4.66122">
        <ele>179.2</ele>
        <time>2013-11-23T11:13:43.463Z</time>
      </trkpt>
      <trkpt lat="44.16949" lon="4.66133">
        <ele>180.5</ele>
        <time>2013-11-23T11:13:48.549Z</time>
      </trkpt>
      <trkpt lat="44.16952" lon="4.6614">
        <ele>181.7</ele>
        <time>2013-11-23T11:13:51.424Z</time>
      </trkpt>
      <trkpt lat="44.16952" lon="4.66147">
        <ele>185.9</ele>
        <time>2013-11-23T11:13:56.530Z</time>
      </trkpt>
      <trkpt lat="44.16952" lon="4.66159">
        <ele>183.9</ele>
        <time>2013-11-23T11:13:59.501Z</time>
      </trkpt>
      <trkpt lat="44.16951" lon="4.66169">
        <ele>182.9</ele>
        <time>2013-11-23T11:14:02.428Z</time>
      </trkpt>
      <trkpt lat="44.16951" lon="4.66178">
        <ele>180.2</ele>
        <time>2013-11-23T11:14:04.425Z</time>
      </trkpt>
      <trkpt lat="44.16945" lon="4.66185">
        <ele>178.7</ele>
        <time>2013-11-23T11:14:08.612Z</time>
      </trkpt>
      <trkpt lat="44.16941" lon="4.66191">
        <ele>181.2</ele>
        <time>2013-11-23T11:14:11.442Z</time>
      </trkpt>
      <trkpt lat="44.16936" lon="4.66201">
        <ele>183.3</ele>
        <time>2013-11-23T11:14:16.553Z</time>
      </trkpt>
      <trkpt lat="44.16935" lon="4.66208">
        <ele>184.3</ele>
        <time>2013-11-23T11:14:19.390Z</time>
      </trkpt>
      <trkpt lat="44.16938" lon="4.66219">
        <ele>183.4</ele>
        <time>2013-11-23T11:14:22.425Z</time>
      </trkpt>
      <trkpt lat="44.16939" lon="4.66224">
        <ele>182.9</ele>
        <time>2013-11-23T11:14:23.440Z</time>
      </trkpt>
      <trkpt lat="44.16939" lon="4.66236">
        <ele>182.8</ele>
        <time>2013-11-23T11:14:28.536Z</time>
      </trkpt>
      <trkpt lat="44.16942" lon="4.66243">
        <ele>182.9</ele>
        <time>2013-11-23T11:14:31.425Z</time>
      </trkpt>
      <trkpt lat="44.16943" lon="4.6625">
        <ele>182.8</ele>
        <time>2013-11-23T11:14:34.439Z</time>
      </trkpt>
      <trkpt lat="44.16944" lon="4.66259">
        <ele>181.2</ele>
        <time>2013-11-23T11:14:36.427Z</time>
      </trkpt>
      <trkpt lat="44.16944" lon="4.66263">
        <ele>181.7</ele>
        <time>2013-11-23T11:14:37.443Z</time>
      </trkpt>
      <trkpt lat="44.16945" lon="4.66271">
        <ele>180.4</ele>
        <time>2013-11-23T11:14:39.427Z</time>
      </trkpt>
      <trkpt lat="44.16945" lon="4.66281">
        <ele>181.9</ele>
        <time>2013-11-23T11:14:42.423Z</time>
      </trkpt>
      <trkpt lat="44.16945" lon="4.66288">
        <ele>182.5</ele>
        <time>2013-11-23T11:14:44.422Z</time>
      </trkpt>
      <trkpt lat="44.16948" lon="4.66299">
        <ele>183.1</ele>
        <time>2013-11-23T11:14:47.422Z</time>
      </trkpt>
      <trkpt lat="44.16948" lon="4.66302">
        <ele>183.3</ele>
        <time>2013-11-23T11:14:48.424Z</time>
      </trkpt>
      <trkpt lat="44.1695" lon="4.66313">
        <ele>183.7</ele>
        <time>2013-11-23T11:14:51.422Z</time>
      </trkpt>
      <trkpt lat="44.1695" lon="4.66319">
        <ele>184.6</ele>
        <time>2013-11-23T11:14:53.427Z</time>
      </trkpt>
      <trkpt lat="44.16953" lon="4.66331">
        <ele>181.9</ele>
        <time>2013-11-23T11:14:56.421Z</time>
      </trkpt>
      <trkpt lat="44.16954" lon="4.66341">
        <ele>180.7</ele>
        <time>2013-11-23T11:14:58.422Z</time>
      </trkpt>
      <trkpt lat="44.16954" lon="4.66349">
        <ele>179.9</ele>
        <time>2013-11-23T11:15:00.461Z</time>
      </trkpt>
      <trkpt lat="44.16955" lon="4.66355">
        <ele>180.9</ele>
        <time>2013-11-23T11:15:02.423Z</time>
      </trkpt>
      <trkpt lat="44.16954" lon="4.66366">
        <ele>182.9</ele>
        <time>2013-11-23T11:15:05.459Z</time>
      </trkpt>
      <trkpt lat="44.16954" lon="4.66373">
        <ele>179</ele>
        <time>2013-11-23T11:15:07.429Z</time>
      </trkpt>
      <trkpt lat="44.16954" lon="4.66385">
        <ele>178.6</ele>
        <time>2013-11-23T11:15:10.431Z</time>
      </trkpt>
      <trkpt lat="44.16955" lon="4.66392">
        <ele>177.9</ele>
        <time>2013-11-23T11:15:12.428Z</time>
      </trkpt>
      <trkpt lat="44.16958" lon="4.66404">
        <ele>180.2</ele>
        <time>2013-11-23T11:15:16.578Z</time>
      </trkpt>
      <trkpt lat="44.16959" lon="4.66414">
        <ele>181.5</ele>
        <time>2013-11-23T11:15:19.429Z</time>
      </trkpt>
      <trkpt lat="44.16958" lon="4.66423">
        <ele>182.4</ele>
        <time>2013-11-23T11:15:22.430Z</time>
      </trkpt>
      <trkpt lat="44.16957" lon="4.66426">
        <ele>183.2</ele>
        <time>2013-11-23T11:15:23.441Z</time>
      </trkpt>
      <trkpt lat="44.16956" lon="4.66433">
        <ele>181.6</ele>
        <time>2013-11-23T11:15:25.443Z</time>
      </trkpt>
      <trkpt lat="44.16954" lon="4.6644">
        <ele>181.9</ele>
        <time>2013-11-23T11:15:27.423Z</time>
      </trkpt>
      <trkpt lat="44.1695" lon="4.6645">
        <ele>180.7</ele>
        <time>2013-11-23T11:15:30.442Z</time>
      </trkpt>
      <trkpt lat="44.16949" lon="4.66453">
        <ele>183</ele>
        <time>2013-11-23T11:15:31.449Z</time>
      </trkpt>
      <trkpt lat="44.16945" lon="4.66461">
        <ele>184.6</ele>
        <time>2013-11-23T11:15:34.425Z</time>
      </trkpt>
      <trkpt lat="44.16944" lon="4.66464">
        <ele>184.6</ele>
        <time>2013-11-23T11:15:35.427Z</time>
      </trkpt>
      <trkpt lat="44.16941" lon="4.66469">
        <ele>185.1</ele>
        <time>2013-11-23T11:15:37.466Z</time>
      </trkpt>
      <trkpt lat="44.16938" lon="4.66475">
        <ele>185.4</ele>
        <time>2013-11-23T11:15:39.437Z</time>
      </trkpt>
      <trkpt lat="44.16935" lon="4.66484">
        <ele>187</ele>
        <time>2013-11-23T11:15:42.423Z</time>
      </trkpt>
      <trkpt lat="44.16934" lon="4.66488">
        <ele>186.4</ele>
        <time>2013-11-23T11:15:43.423Z</time>
      </trkpt>
      <trkpt lat="44.16931" lon="4.66498">
        <ele>186.8</ele>
        <time>2013-11-23T11:15:46.418Z</time>
      </trkpt>
      <trkpt lat="44.1693" lon="4.66501">
        <ele>186.8</ele>
        <time>2013-11-23T11:15:47.481Z</time>
      </trkpt>
      <trkpt lat="44.16928" lon="4.6651">
        <ele>187.4</ele>
        <time>2013-11-23T11:15:50.422Z</time>
      </trkpt>
      <trkpt lat="44.16927" lon="4.66513">
        <ele>187.5</ele>
        <time>2013-11-23T11:15:51.423Z</time>
      </trkpt>
      <trkpt lat="44.16923" lon="4.66524">
        <ele>188.4</ele>
        <time>2013-11-23T11:15:55.422Z</time>
      </trkpt>
      <trkpt lat="44.16922" lon="4.66526">
        <ele>188.9</ele>
        <time>2013-11-23T11:15:56.420Z</time>
      </trkpt>
      <trkpt lat="44.16919" lon="4.66537">
        <ele>188.3</ele>
        <time>2013-11-23T11:15:59.423Z</time>
      </trkpt>
      <trkpt lat="44.16917" lon="4.66544">
        <ele>188.3</ele>
        <time>2013-11-23T11:16:01.420Z</time>
      </trkpt>
      <trkpt lat="44.16916" lon="4.6655">
        <ele>188.2</ele>
        <time>2013-11-23T11:16:03.431Z</time>
      </trkpt>
      <trkpt lat="44.16916" lon="4.66557">
        <ele>187.9</ele>
        <time>2013-11-23T11:16:05.422Z</time>
      </trkpt>
      <trkpt lat="44.16914" lon="4.66568">
        <ele>187.8</ele>
        <time>2013-11-23T11:16:08.431Z</time>
      </trkpt>
      <trkpt lat="44.16914" lon="4.66578">
        <ele>187.5</ele>
        <time>2013-11-23T11:16:10.423Z</time>
      </trkpt>
      <trkpt lat="44.16914" lon="4.66583">
        <ele>187.3</ele>
        <time>2013-11-23T11:16:11.425Z</time>
      </trkpt>
      <trkpt lat="44.16915" lon="4.66594">
        <ele>186.4</ele>
        <time>2013-11-23T11:16:13.422Z</time>
      </trkpt>
      <trkpt lat="44.16918" lon="4.66605">
        <ele>185.3</ele>
        <time>2013-11-23T11:16:15.423Z</time>
      </trkpt>
      <trkpt lat="44.16919" lon="4.66611">
        <ele>184.3</ele>
        <time>2013-11-23T11:16:16.452Z</time>
      </trkpt>
      <trkpt lat="44.16922" lon="4.66624">
        <ele>184</ele>
        <time>2013-11-23T11:16:18.424Z</time>
      </trkpt>
      <trkpt lat="44.16926" lon="4.66637">
        <ele>183.1</ele>
        <time>2013-11-23T11:16:20.422Z</time>
      </trkpt>
      <trkpt lat="44.1693" lon="4.66652">
        <ele>182.2</ele>
        <time>2013-11-23T11:16:22.418Z</time>
      </trkpt>
      <trkpt lat="44.16931" lon="4.66659">
        <ele>182.2</ele>
        <time>2013-11-23T11:16:23.422Z</time>
      </trkpt>
      <trkpt lat="44.16931" lon="4.66665">
        <ele>180.8</ele>
        <time>2013-11-23T11:16:24.422Z</time>
      </trkpt>
      <trkpt lat="44.1693" lon="4.66676">
        <ele>180.9</ele>
        <time>2013-11-23T11:16:26.426Z</time>
      </trkpt>
      <trkpt lat="44.1693" lon="4.66684">
        <ele>180.3</ele>
        <time>2013-11-23T11:16:28.423Z</time>
      </trkpt>
      <trkpt lat="44.16932" lon="4.66695">
        <ele>180.3</ele>
        <time>2013-11-23T11:16:31.424Z</time>
      </trkpt>
      <trkpt lat="44.16935" lon="4.66701">
        <ele>179.9</ele>
        <time>2013-11-23T11:16:33.423Z</time>
      </trkpt>
      <trkpt lat="44.16937" lon="4.66703">
        <ele>179.8</ele>
        <time>2013-11-23T11:16:34.424Z</time>
      </trkpt>
      <trkpt lat="44.16942" lon="4.66709">
        <ele>179.3</ele>
        <time>2013-11-23T11:16:36.424Z</time>
      </trkpt>
      <trkpt lat="44.16948" lon="4.66718">
        <ele>179</ele>
        <time>2013-11-23T11:16:39.440Z</time>
      </trkpt>
      <trkpt lat="44.16952" lon="4.66722">
        <ele>179.3</ele>
        <time>2013-11-23T11:16:41.434Z</time>
      </trkpt>
      <trkpt lat="44.16959" lon="4.66727">
        <ele>179.5</ele>
        <time>2013-11-23T11:16:44.423Z</time>
      </trkpt>
      <trkpt lat="44.16962" lon="4.66728">
        <ele>179.5</ele>
        <time>2013-11-23T11:16:45.424Z</time>
      </trkpt>
      <trkpt lat="44.16967" lon="4.66729">
        <ele>179.4</ele>
        <time>2013-11-23T11:16:47.438Z</time>
      </trkpt>
      <trkpt lat="44.16973" lon="4.66731">
        <ele>179.9</ele>
        <time>2013-11-23T11:16:49.434Z</time>
      </trkpt>
      <trkpt lat="44.16978" lon="4.66735">
        <ele>179.9</ele>
        <time>2013-11-23T11:16:51.423Z</time>
      </trkpt>
      <trkpt lat="44.1698" lon="4.66742">
        <ele>180.1</ele>
        <time>2013-11-23T11:16:53.425Z</time>
      </trkpt>
      <trkpt lat="44.16981" lon="4.66754">
        <ele>180.2</ele>
        <time>2013-11-23T11:16:56.437Z</time>
      </trkpt>
      <trkpt lat="44.16981" lon="4.66757">
        <ele>180</ele>
        <time>2013-11-23T11:16:57.472Z</time>
      </trkpt>
      <trkpt lat="44.16978" lon="4.66768">
        <ele>180.4</ele>
        <time>2013-11-23T11:17:01.419Z</time>
      </trkpt>
      <trkpt lat="44.16976" lon="4.66771">
        <ele>180.2</ele>
        <time>2013-11-23T11:17:02.423Z</time>
      </trkpt>
      <trkpt lat="44.16971" lon="4.66781">
        <ele>179.4</ele>
        <time>2013-11-23T11:17:05.432Z</time>
      </trkpt>
      <trkpt lat="44.16968" lon="4.66783">
        <ele>179.6</ele>
        <time>2013-11-23T11:17:06.436Z</time>
      </trkpt>
      <trkpt lat="44.1696" lon="4.66787">
        <ele>179.4</ele>
        <time>2013-11-23T11:17:08.642Z</time>
      </trkpt>
      <trkpt lat="44.16951" lon="4.66792">
        <ele>179.4</ele>
        <time>2013-11-23T11:17:10.424Z</time>
      </trkpt>
      <trkpt lat="44.16943" lon="4.66799">
        <ele>179.2</ele>
        <time>2013-11-23T11:17:12.421Z</time>
      </trkpt>
      <trkpt lat="44.16938" lon="4.66808">
        <ele>179</ele>
        <time>2013-11-23T11:17:14.422Z</time>
      </trkpt>
      <trkpt lat="44.16936" lon="4.66813">
        <ele>179</ele>
        <time>2013-11-23T11:17:15.423Z</time>
      </trkpt>
      <trkpt lat="44.16935" lon="4.66818">
        <ele>179.1</ele>
        <time>2013-11-23T11:17:16.423Z</time>
      </trkpt>
      <trkpt lat="44.16932" lon="4.66828">
        <ele>179.4</ele>
        <time>2013-11-23T11:17:18.425Z</time>
      </trkpt>
      <trkpt lat="44.1693" lon="4.66837">
        <ele>179.5</ele>
        <time>2013-11-23T11:17:20.428Z</time>
      </trkpt>
      <trkpt lat="44.16928" lon="4.66841">
        <ele>179.7</ele>
        <time>2013-11-23T11:17:21.429Z</time>
      </trkpt>
      <trkpt lat="44.16924" lon="4.66849">
        <ele>179.4</ele>
        <time>2013-11-23T11:17:23.427Z</time>
      </trkpt>
      <trkpt lat="44.16919" lon="4.66856">
        <ele>179.8</ele>
        <time>2013-11-23T11:17:25.431Z</time>
      </trkpt>
      <trkpt lat="44.16912" lon="4.66862">
        <ele>179.8</ele>
        <time>2013-11-23T11:17:28.424Z</time>
      </trkpt>
      <trkpt lat="44.1691" lon="4.66864">
        <ele>179.8</ele>
        <time>2013-11-23T11:17:29.425Z</time>
      </trkpt>
      <trkpt lat="44.16901" lon="4.66864">
        <ele>179.8</ele>
        <time>2013-11-23T11:17:32.418Z</time>
      </trkpt>
      <trkpt lat="44.16899" lon="4.66863">
        <ele>179.9</ele>
        <time>2013-11-23T11:17:33.426Z</time>
      </trkpt>
      <trkpt lat="44.16893" lon="4.66858">
        <ele>180.1</ele>
        <time>2013-11-23T11:17:37.534Z</time>
      </trkpt>
      <trkpt lat="44.16889" lon="4.66853">
        <ele>180.9</ele>
        <time>2013-11-23T11:17:40.422Z</time>
      </trkpt>
      <trkpt lat="44.16884" lon="4.66846">
        <ele>182</ele>
        <time>2013-11-23T11:17:45.551Z</time>
      </trkpt>
      <trkpt lat="44.16881" lon="4.66841">
        <ele>182.3</ele>
        <time>2013-11-23T11:17:48.425Z</time>
      </trkpt>
      <trkpt lat="44.16875" lon="4.66837">
        <ele>183.3</ele>
        <time>2013-11-23T11:17:52.631Z</time>
      </trkpt>
      <trkpt lat="44.16871" lon="4.66838">
        <ele>183.6</ele>
        <time>2013-11-23T11:17:55.429Z</time>
      </trkpt>
      <trkpt lat="44.16866" lon="4.66842">
        <ele>183.8</ele>
        <time>2013-11-23T11:18:00.546Z</time>
      </trkpt>
      <trkpt lat="44.16863" lon="4.66847">
        <ele>184.3</ele>
        <time>2013-11-23T11:18:03.419Z</time>
      </trkpt>
      <trkpt lat="44.16862" lon="4.66856">
        <ele>184.8</ele>
        <time>2013-11-23T11:18:08.554Z</time>
      </trkpt>
      <trkpt lat="44.16861" lon="4.6686">
        <ele>185</ele>
        <time>2013-11-23T11:18:10.625Z</time>
      </trkpt>
      <trkpt lat="44.16855" lon="4.6687">
        <ele>185.3</ele>
        <time>2013-11-23T11:18:16.434Z</time>
      </trkpt>
      <trkpt lat="44.16855" lon="4.6687">
        <ele>185.3</ele>
        <time>2013-11-23T11:18:16.738Z</time>
      </trkpt>
      <trkpt lat="44.16849" lon="4.66877">
        <ele>185.5</ele>
        <time>2013-11-23T11:18:21.533Z</time>
      </trkpt>
      <trkpt lat="44.16845" lon="4.66879">
        <ele>186</ele>
        <time>2013-11-23T11:18:24.424Z</time>
      </trkpt>
      <trkpt lat="44.16841" lon="4.66885">
        <ele>186.4</ele>
        <time>2013-11-23T11:18:28.641Z</time>
      </trkpt>
      <trkpt lat="44.16837" lon="4.66888">
        <ele>186.7</ele>
        <time>2013-11-23T11:18:31.422Z</time>
      </trkpt>
      <trkpt lat="44.1683" lon="4.66887">
        <ele>187.4</ele>
        <time>2013-11-23T11:18:36.555Z</time>
      </trkpt>
      <trkpt lat="44.16826" lon="4.66885">
        <ele>187.8</ele>
        <time>2013-11-23T11:18:39.419Z</time>
      </trkpt>
      <trkpt lat="44.16818" lon="4.66882">
        <ele>187.7</ele>
        <time>2013-11-23T11:18:44.538Z</time>
      </trkpt>
      <trkpt lat="44.16814" lon="4.66879">
        <ele>187.9</ele>
        <time>2013-11-23T11:18:47.429Z</time>
      </trkpt>
      <trkpt lat="44.16807" lon="4.66872">
        <ele>187.9</ele>
        <time>2013-11-23T11:18:52.563Z</time>
      </trkpt>
      <trkpt lat="44.16805" lon="4.66866">
        <ele>188.8</ele>
        <time>2013-11-23T11:18:55.404Z</time>
      </trkpt>
      <trkpt lat="44.16803" lon="4.66856">
        <ele>188.5</ele>
        <time>2013-11-23T11:18:59.584Z</time>
      </trkpt>
      <trkpt lat="44.16799" lon="4.66847">
        <ele>188</ele>
        <time>2013-11-23T11:19:02.422Z</time>
      </trkpt>
      <trkpt lat="44.16794" lon="4.66839">
        <ele>188.3</ele>
        <time>2013-11-23T11:19:06.561Z</time>
      </trkpt>
      <trkpt lat="44.16787" lon="4.66831">
        <ele>187.1</ele>
        <time>2013-11-23T11:19:09.423Z</time>
      </trkpt>
      <trkpt lat="44.16785" lon="4.66826">
        <ele>186.7</ele>
        <time>2013-11-23T11:19:10.424Z</time>
      </trkpt>
      <trkpt lat="44.1678" lon="4.66817">
        <ele>186.4</ele>
        <time>2013-11-23T11:19:12.422Z</time>
      </trkpt>
      <trkpt lat="44.16778" lon="4.66811">
        <ele>186.2</ele>
        <time>2013-11-23T11:19:13.423Z</time>
      </trkpt>
      <trkpt lat="44.16778" lon="4.66801">
        <ele>186.1</ele>
        <time>2013-11-23T11:19:15.422Z</time>
      </trkpt>
      <trkpt lat="44.16778" lon="4.66791">
        <ele>185.8</ele>
        <time>2013-11-23T11:19:17.423Z</time>
      </trkpt>
      <trkpt lat="44.16775" lon="4.66783">
        <ele>185.9</ele>
        <time>2013-11-23T11:19:19.423Z</time>
      </trkpt>
      <trkpt lat="44.16771" lon="4.66776">
        <ele>185.9</ele>
        <time>2013-11-23T11:19:21.424Z</time>
      </trkpt>
      <trkpt lat="44.16767" lon="4.66771">
        <ele>186.2</ele>
        <time>2013-11-23T11:19:23.514Z</time>
      </trkpt>
      <trkpt lat="44.1676" lon="4.66764">
        <ele>186.5</ele>
        <time>2013-11-23T11:19:26.389Z</time>
      </trkpt>
      <trkpt lat="44.16758" lon="4.66762">
        <ele>186.5</ele>
        <time>2013-11-23T11:19:27.416Z</time>
      </trkpt>
      <trkpt lat="44.16753" lon="4.66753">
        <ele>187.4</ele>
        <time>2013-11-23T11:19:30.422Z</time>
      </trkpt>
      <trkpt lat="44.16751" lon="4.6675">
        <ele>187.6</ele>
        <time>2013-11-23T11:19:31.658Z</time>
      </trkpt>
      <trkpt lat="44.16748" lon="4.66746">
        <ele>188.1</ele>
        <time>2013-11-23T11:19:33.430Z</time>
      </trkpt>
      <trkpt lat="44.16745" lon="4.6674">
        <ele>188.1</ele>
        <time>2013-11-23T11:19:35.425Z</time>
      </trkpt>
      <trkpt lat="44.16743" lon="4.66732">
        <ele>187.4</ele>
        <time>2013-11-23T11:19:37.438Z</time>
      </trkpt>
      <trkpt lat="44.16739" lon="4.66725">
        <ele>186.8</ele>
        <time>2013-11-23T11:19:39.423Z</time>
      </trkpt>
      <trkpt lat="44.16732" lon="4.66718">
        <ele>186.2</ele>
        <time>2013-11-23T11:19:41.422Z</time>
      </trkpt>
      <trkpt lat="44.16727" lon="4.6671">
        <ele>186.2</ele>
        <time>2013-11-23T11:19:43.439Z</time>
      </trkpt>
      <trkpt lat="44.16724" lon="4.66704">
        <ele>186.7</ele>
        <time>2013-11-23T11:19:45.443Z</time>
      </trkpt>
      <trkpt lat="44.16723" lon="4.66698">
        <ele>187.3</ele>
        <time>2013-11-23T11:19:47.430Z</time>
      </trkpt>
      <trkpt lat="44.16718" lon="4.6669">
        <ele>187.5</ele>
        <time>2013-11-23T11:19:51.565Z</time>
      </trkpt>
      <trkpt lat="44.16715" lon="4.66685">
        <ele>188</ele>
        <time>2013-11-23T11:19:54.421Z</time>
      </trkpt>
      <trkpt lat="44.1671" lon="4.66679">
        <ele>187.9</ele>
        <time>2013-11-23T11:19:57.445Z</time>
      </trkpt>
      <trkpt lat="44.16707" lon="4.66675">
        <ele>187.9</ele>
        <time>2013-11-23T11:19:59.519Z</time>
      </trkpt>
      <trkpt lat="44.16702" lon="4.66665">
        <ele>188.2</ele>
        <time>2013-11-23T11:20:03.422Z</time>
      </trkpt>
      <trkpt lat="44.167" lon="4.66663">
        <ele>188.2</ele>
        <time>2013-11-23T11:20:04.435Z</time>
      </trkpt>
      <trkpt lat="44.16696" lon="4.66657">
        <ele>188.2</ele>
        <time>2013-11-23T11:20:07.422Z</time>
      </trkpt>
      <trkpt lat="44.16693" lon="4.66654">
        <ele>188.4</ele>
        <time>2013-11-23T11:20:09.421Z</time>
      </trkpt>
      <trkpt lat="44.16689" lon="4.66649">
        <ele>188.7</ele>
        <time>2013-11-23T11:20:12.424Z</time>
      </trkpt>
      <trkpt lat="44.16685" lon="4.66646">
        <ele>189.6</ele>
        <time>2013-11-23T11:20:14.422Z</time>
      </trkpt>
      <trkpt lat="44.16679" lon="4.6664">
        <ele>189.9</ele>
        <time>2013-11-23T11:20:17.524Z</time>
      </trkpt>
      <trkpt lat="44.16675" lon="4.66635">
        <ele>189.5</ele>
        <time>2013-11-23T11:20:19.423Z</time>
      </trkpt>
      <trkpt lat="44.16669" lon="4.66627">
        <ele>189.5</ele>
        <time>2013-11-23T11:20:22.422Z</time>
      </trkpt>
      <trkpt lat="44.16667" lon="4.66624">
        <ele>189.5</ele>
        <time>2013-11-23T11:20:23.423Z</time>
      </trkpt>
      <trkpt lat="44.16663" lon="4.66619">
        <ele>189.4</ele>
        <time>2013-11-23T11:20:26.423Z</time>
      </trkpt>
      <trkpt lat="44.16659" lon="4.66616">
        <ele>189.7</ele>
        <time>2013-11-23T11:20:28.422Z</time>
      </trkpt>
      <trkpt lat="44.16653" lon="4.66611">
        <ele>189.5</ele>
        <time>2013-11-23T11:20:32.535Z</time>
      </trkpt>
      <trkpt lat="44.16646" lon="4.66608">
        <ele>190</ele>
        <time>2013-11-23T11:20:35.422Z</time>
      </trkpt>
      <trkpt lat="44.16638" lon="4.66603">
        <ele>189.9</ele>
        <time>2013-11-23T11:20:39.533Z</time>
      </trkpt>
      <trkpt lat="44.16633" lon="4.66597">
        <ele>190.3</ele>
        <time>2013-11-23T11:20:42.426Z</time>
      </trkpt>
      <trkpt lat="44.16629" lon="4.66589">
        <ele>190.6</ele>
        <time>2013-11-23T11:20:49.538Z</time>
      </trkpt>
      <trkpt lat="44.16628" lon="4.66585">
        <ele>191.8</ele>
        <time>2013-11-23T11:20:53.424Z</time>
      </trkpt>
      <trkpt lat="44.16623" lon="4.66578">
        <ele>193</ele>
        <time>2013-11-23T11:21:01.550Z</time>
      </trkpt>
      <trkpt lat="44.16622" lon="4.66574">
        <ele>193.7</ele>
        <time>2013-11-23T11:21:06.422Z</time>
      </trkpt>
      <trkpt lat="44.16622" lon="4.66574">
        <ele>193.7</ele>
        <time>2013-11-23T11:21:06.621Z</time>
      </trkpt>
      <trkpt lat="44.16623" lon="4.66574">
        <ele>193.7</ele>
        <time>2013-11-23T11:21:11.652Z</time>
      </trkpt>
      <trkpt lat="44.1662" lon="4.66572">
        <ele>194.2</ele>
        <time>2013-11-23T11:21:14.421Z</time>
      </trkpt>
      <trkpt lat="44.16616" lon="4.66566">
        <ele>195.7</ele>
        <time>2013-11-23T11:21:21.511Z</time>
      </trkpt>
      <trkpt lat="44.16613" lon="4.66561">
        <ele>195.7</ele>
        <time>2013-11-23T11:21:25.404Z</time>
      </trkpt>
      <trkpt lat="44.16608" lon="4.66552">
        <ele>197.6</ele>
        <time>2013-11-23T11:21:36.423Z</time>
      </trkpt>
      <trkpt lat="44.16608" lon="4.66552">
        <ele>197.6</ele>
        <time>2013-11-23T11:21:36.523Z</time>
      </trkpt>
      <trkpt lat="44.16604" lon="4.66545">
        <ele>199.6</ele>
        <time>2013-11-23T11:21:43.424Z</time>
      </trkpt>
      <trkpt lat="44.16604" lon="4.66544">
        <ele>199.7</ele>
        <time>2013-11-23T11:21:46.439Z</time>
      </trkpt>
      <trkpt lat="44.16604" lon="4.66544">
        <ele>199.8</ele>
        <time>2013-11-23T11:21:47.424Z</time>
      </trkpt>
      <trkpt lat="44.16603" lon="4.66543">
        <ele>200</ele>
        <time>2013-11-23T11:21:48.426Z</time>
      </trkpt>
      <trkpt lat="44.16599" lon="4.66535">
        <ele>200.9</ele>
        <time>2013-11-23T11:21:55.425Z</time>
      </trkpt>
      <trkpt lat="44.16599" lon="4.66535">
        <ele>200.9</ele>
        <time>2013-11-23T11:21:55.535Z</time>
      </trkpt>
      <trkpt lat="44.16599" lon="4.66536">
        <ele>201</ele>
        <time>2013-11-23T11:21:56.457Z</time>
      </trkpt>
      <trkpt lat="44.166" lon="4.66536">
        <ele>201</ele>
        <time>2013-11-23T11:21:57.433Z</time>
      </trkpt>
      <trkpt lat="44.166" lon="4.66537">
        <ele>200.9</ele>
        <time>2013-11-23T11:21:59.481Z</time>
      </trkpt>
      <trkpt lat="44.166" lon="4.66536">
        <ele>201.3</ele>
        <time>2013-11-23T11:22:20.535Z</time>
      </trkpt>
      <trkpt lat="44.16601" lon="4.66532">
        <ele>201.4</ele>
        <time>2013-11-23T11:22:31.424Z</time>
      </trkpt>
      <trkpt lat="44.16602" lon="4.66531">
        <ele>201.8</ele>
        <time>2013-11-23T11:22:32.427Z</time>
      </trkpt>
      <trkpt lat="44.16602" lon="4.66531">
        <ele>201.8</ele>
        <time>2013-11-23T11:22:34.423Z</time>
      </trkpt>
      <trkpt lat="44.16601" lon="4.66532">
        <ele>201.8</ele>
        <time>2013-11-23T11:22:41.543Z</time>
      </trkpt>
      <trkpt lat="44.166" lon="4.6653">
        <ele>202.1</ele>
        <time>2013-11-23T11:22:45.442Z</time>
      </trkpt>
      <trkpt lat="44.166" lon="4.66531">
        <ele>202.1</ele>
        <time>2013-11-23T11:22:45.697Z</time>
      </trkpt>
      <trkpt lat="44.166" lon="4.66531">
        <ele>201.9</ele>
        <time>2013-11-23T11:22:46.444Z</time>
      </trkpt>
      <trkpt lat="44.166" lon="4.66531">
        <ele>198.6</ele>
        <time>2013-11-23T11:23:08.903Z</time>
      </trkpt>
      <trkpt lat="44.16592" lon="4.66521">
        <ele>199.1</ele>
        <time>2013-11-23T11:23:20.439Z</time>
      </trkpt>
      <trkpt lat="44.16586" lon="4.66512">
        <ele>200.5</ele>
        <time>2013-11-23T11:23:28.511Z</time>
      </trkpt>
      <trkpt lat="44.16586" lon="4.66511">
        <ele>200.6</ele>
        <time>2013-11-23T11:23:29.424Z</time>
      </trkpt>
      <trkpt lat="44.16586" lon="4.665">
        <ele>198.7</ele>
        <time>2013-11-23T11:23:33.430Z</time>
      </trkpt>
      <trkpt lat="44.16586" lon="4.66498">
        <ele>198.7</ele>
        <time>2013-11-23T11:23:34.428Z</time>
      </trkpt>
      <trkpt lat="44.16584" lon="4.66492">
        <ele>196.7</ele>
        <time>2013-11-23T11:23:39.578Z</time>
      </trkpt>
      <trkpt lat="44.16577" lon="4.66494">
        <ele>194.5</ele>
        <time>2013-11-23T11:23:42.444Z</time>
      </trkpt>
      <trkpt lat="44.16571" lon="4.66498">
        <ele>194.5</ele>
        <time>2013-11-23T11:23:45.451Z</time>
      </trkpt>
      <trkpt lat="44.1657" lon="4.66503">
        <ele>194.7</ele>
        <time>2013-11-23T11:23:47.447Z</time>
      </trkpt>
      <trkpt lat="44.16564" lon="4.6651">
        <ele>194</ele>
        <time>2013-11-23T11:23:51.761Z</time>
      </trkpt>
      <trkpt lat="44.16562" lon="4.66517">
        <ele>194.5</ele>
        <time>2013-11-23T11:23:54.442Z</time>
      </trkpt>
      <trkpt lat="44.16564" lon="4.66526">
        <ele>195.4</ele>
        <time>2013-11-23T11:23:58.543Z</time>
      </trkpt>
      <trkpt lat="44.16563" lon="4.66533">
        <ele>195.3</ele>
        <time>2013-11-23T11:24:01.442Z</time>
      </trkpt>
      <trkpt lat="44.16558" lon="4.66541">
        <ele>193.9</ele>
        <time>2013-11-23T11:24:05.562Z</time>
      </trkpt>
      <trkpt lat="44.16552" lon="4.66541">
        <ele>192.2</ele>
        <time>2013-11-23T11:24:08.495Z</time>
      </trkpt>
      <trkpt lat="44.16547" lon="4.66549">
        <ele>192.2</ele>
        <time>2013-11-23T11:24:11.444Z</time>
      </trkpt>
      <trkpt lat="44.16546" lon="4.66552">
        <ele>192.2</ele>
        <time>2013-11-23T11:24:12.481Z</time>
      </trkpt>
      <trkpt lat="44.16544" lon="4.66558">
        <ele>192</ele>
        <time>2013-11-23T11:24:14.440Z</time>
      </trkpt>
      <trkpt lat="44.16541" lon="4.66565">
        <ele>191.6</ele>
        <time>2013-11-23T11:24:16.444Z</time>
      </trkpt>
      <trkpt lat="44.16538" lon="4.66576">
        <ele>192.9</ele>
        <time>2013-11-23T11:24:21.582Z</time>
      </trkpt>
      <trkpt lat="44.16536" lon="4.66582">
        <ele>193.5</ele>
        <time>2013-11-23T11:24:24.420Z</time>
      </trkpt>
      <trkpt lat="44.16533" lon="4.66591">
        <ele>193.6</ele>
        <time>2013-11-23T11:24:29.547Z</time>
      </trkpt>
      <trkpt lat="44.16532" lon="4.66599">
        <ele>194.8</ele>
        <time>2013-11-23T11:24:32.485Z</time>
      </trkpt>
      <trkpt lat="44.16527" lon="4.66609">
        <ele>195.2</ele>
        <time>2013-11-23T11:24:37.447Z</time>
      </trkpt>
      <trkpt lat="44.16527" lon="4.66609">
        <ele>195.2</ele>
        <time>2013-11-23T11:24:37.560Z</time>
      </trkpt>
      <trkpt lat="44.16522" lon="4.66619">
        <ele>195.5</ele>
        <time>2013-11-23T11:24:42.560Z</time>
      </trkpt>
      <trkpt lat="44.1652" lon="4.66625">
        <ele>196.3</ele>
        <time>2013-11-23T11:24:45.423Z</time>
      </trkpt>
      <trkpt lat="44.16517" lon="4.66633">
        <ele>197.6</ele>
        <time>2013-11-23T11:24:49.547Z</time>
      </trkpt>
      <trkpt lat="44.16514" lon="4.66637">
        <ele>196.6</ele>
        <time>2013-11-23T11:24:52.469Z</time>
      </trkpt>
      <trkpt lat="44.1651" lon="4.66639">
        <ele>195.5</ele>
        <time>2013-11-23T11:24:54.448Z</time>
      </trkpt>
      <trkpt lat="44.16506" lon="4.66643">
        <ele>195.3</ele>
        <time>2013-11-23T11:24:56.445Z</time>
      </trkpt>
      <trkpt lat="44.16498" lon="4.66648">
        <ele>192.7</ele>
        <time>2013-11-23T11:25:00.438Z</time>
      </trkpt>
      <trkpt lat="44.16494" lon="4.6665">
        <ele>190.9</ele>
        <time>2013-11-23T11:25:02.449Z</time>
      </trkpt>
      <trkpt lat="44.16487" lon="4.66649">
        <ele>189.1</ele>
        <time>2013-11-23T11:25:05.472Z</time>
      </trkpt>
      <trkpt lat="44.16481" lon="4.66649">
        <ele>188.7</ele>
        <time>2013-11-23T11:25:07.422Z</time>
      </trkpt>
      <trkpt lat="44.16479" lon="4.66652">
        <ele>188.6</ele>
        <time>2013-11-23T11:25:08.527Z</time>
      </trkpt>
      <trkpt lat="44.16474" lon="4.66658">
        <ele>188.3</ele>
        <time>2013-11-23T11:25:10.447Z</time>
      </trkpt>
      <trkpt lat="44.16469" lon="4.66666">
        <ele>189.1</ele>
        <time>2013-11-23T11:25:13.425Z</time>
      </trkpt>
      <trkpt lat="44.16469" lon="4.66669">
        <ele>189.2</ele>
        <time>2013-11-23T11:25:14.448Z</time>
      </trkpt>
      <trkpt lat="44.16466" lon="4.66679">
        <ele>190.1</ele>
        <time>2013-11-23T11:25:18.446Z</time>
      </trkpt>
      <trkpt lat="44.16466" lon="4.66682">
        <ele>190.4</ele>
        <time>2013-11-23T11:25:19.465Z</time>
      </trkpt>
      <trkpt lat="44.16464" lon="4.66693">
        <ele>190.4</ele>
        <time>2013-11-23T11:25:23.616Z</time>
      </trkpt>
      <trkpt lat="44.16466" lon="4.667">
        <ele>190.4</ele>
        <time>2013-11-23T11:25:26.430Z</time>
      </trkpt>
      <trkpt lat="44.16465" lon="4.66708">
        <ele>190.1</ele>
        <time>2013-11-23T11:25:29.453Z</time>
      </trkpt>
      <trkpt lat="44.16463" lon="4.66714">
        <ele>189.9</ele>
        <time>2013-11-23T11:25:31.452Z</time>
      </trkpt>
      <trkpt lat="44.16463" lon="4.66721">
        <ele>190</ele>
        <time>2013-11-23T11:25:33.449Z</time>
      </trkpt>
      <trkpt lat="44.16464" lon="4.66728">
        <ele>190.7</ele>
        <time>2013-11-23T11:25:35.428Z</time>
      </trkpt>
      <trkpt lat="44.16464" lon="4.66737">
        <ele>190.9</ele>
        <time>2013-11-23T11:25:38.466Z</time>
      </trkpt>
      <trkpt lat="44.16464" lon="4.66743">
        <ele>190.8</ele>
        <time>2013-11-23T11:25:40.467Z</time>
      </trkpt>
      <trkpt lat="44.16466" lon="4.66753">
        <ele>191</ele>
        <time>2013-11-23T11:25:43.448Z</time>
      </trkpt>
      <trkpt lat="44.16467" lon="4.66759">
        <ele>191.2</ele>
        <time>2013-11-23T11:25:45.447Z</time>
      </trkpt>
      <trkpt lat="44.16467" lon="4.66766">
        <ele>190.6</ele>
        <time>2013-11-23T11:25:47.485Z</time>
      </trkpt>
      <trkpt lat="44.16468" lon="4.66773">
        <ele>190.2</ele>
        <time>2013-11-23T11:25:49.433Z</time>
      </trkpt>
      <trkpt lat="44.16467" lon="4.66786">
        <ele>189.5</ele>
        <time>2013-11-23T11:25:52.421Z</time>
      </trkpt>
      <trkpt lat="44.16467" lon="4.66791">
        <ele>189.1</ele>
        <time>2013-11-23T11:25:53.468Z</time>
      </trkpt>
      <trkpt lat="44.16468" lon="4.66802">
        <ele>188.9</ele>
        <time>2013-11-23T11:25:55.493Z</time>
      </trkpt>
      <trkpt lat="44.16469" lon="4.66804">
        <ele>189.3</ele>
        <time>2013-11-23T11:25:56.450Z</time>
      </trkpt>
      <trkpt lat="44.16473" lon="4.66809">
        <ele>189.1</ele>
        <time>2013-11-23T11:25:58.473Z</time>
      </trkpt>
      <trkpt lat="44.16477" lon="4.66816">
        <ele>188.4</ele>
        <time>2013-11-23T11:26:00.419Z</time>
      </trkpt>
      <trkpt lat="44.16478" lon="4.66822">
        <ele>187.4</ele>
        <time>2013-11-23T11:26:02.451Z</time>
      </trkpt>
      <trkpt lat="44.16477" lon="4.6683">
        <ele>186.9</ele>
        <time>2013-11-23T11:26:04.418Z</time>
      </trkpt>
      <trkpt lat="44.16479" lon="4.66842">
        <ele>186.1</ele>
        <time>2013-11-23T11:26:07.407Z</time>
      </trkpt>
      <trkpt lat="44.1648" lon="4.66847">
        <ele>185.3</ele>
        <time>2013-11-23T11:26:08.421Z</time>
      </trkpt>
      <trkpt lat="44.16482" lon="4.66851">
        <ele>184.4</ele>
        <time>2013-11-23T11:26:09.483Z</time>
      </trkpt>
      <trkpt lat="44.16485" lon="4.66864">
        <ele>181.7</ele>
        <time>2013-11-23T11:26:11.455Z</time>
      </trkpt>
      <trkpt lat="44.16488" lon="4.66873">
        <ele>180</ele>
        <time>2013-11-23T11:26:13.427Z</time>
      </trkpt>
      <trkpt lat="44.16491" lon="4.66875">
        <ele>181.5</ele>
        <time>2013-11-23T11:26:15.425Z</time>
      </trkpt>
      <trkpt lat="44.16493" lon="4.66878">
        <ele>181.4</ele>
        <time>2013-11-23T11:26:16.453Z</time>
      </trkpt>
      <trkpt lat="44.16496" lon="4.66885">
        <ele>181.7</ele>
        <time>2013-11-23T11:26:18.449Z</time>
      </trkpt>
      <trkpt lat="44.16497" lon="4.66891">
        <ele>180.2</ele>
        <time>2013-11-23T11:26:19.637Z</time>
      </trkpt>
      <trkpt lat="44.16498" lon="4.669">
        <ele>179.6</ele>
        <time>2013-11-23T11:26:21.417Z</time>
      </trkpt>
      <trkpt lat="44.16502" lon="4.66908">
        <ele>181.3</ele>
        <time>2013-11-23T11:26:24.420Z</time>
      </trkpt>
      <trkpt lat="44.16503" lon="4.66915">
        <ele>180.8</ele>
        <time>2013-11-23T11:26:26.422Z</time>
      </trkpt>
      <trkpt lat="44.16503" lon="4.66925">
        <ele>181.5</ele>
        <time>2013-11-23T11:26:29.421Z</time>
      </trkpt>
      <trkpt lat="44.16502" lon="4.66928">
        <ele>182.3</ele>
        <time>2013-11-23T11:26:30.422Z</time>
      </trkpt>
      <trkpt lat="44.16501" lon="4.66939">
        <ele>182</ele>
        <time>2013-11-23T11:26:33.423Z</time>
      </trkpt>
      <trkpt lat="44.16501" lon="4.66947">
        <ele>181.7</ele>
        <time>2013-11-23T11:26:35.421Z</time>
      </trkpt>
      <trkpt lat="44.16501" lon="4.66959">
        <ele>181.8</ele>
        <time>2013-11-23T11:26:38.428Z</time>
      </trkpt>
      <trkpt lat="44.16501" lon="4.6697">
        <ele>179.6</ele>
        <time>2013-11-23T11:26:40.422Z</time>
      </trkpt>
      <trkpt lat="44.16501" lon="4.66975">
        <ele>180.6</ele>
        <time>2013-11-23T11:26:41.423Z</time>
      </trkpt>
      <trkpt lat="44.165" lon="4.66984">
        <ele>180.9</ele>
        <time>2013-11-23T11:26:43.419Z</time>
      </trkpt>
      <trkpt lat="44.16501" lon="4.66996">
        <ele>181.1</ele>
        <time>2013-11-23T11:26:46.447Z</time>
      </trkpt>
      <trkpt lat="44.16497" lon="4.67">
        <ele>180.1</ele>
        <time>2013-11-23T11:26:48.478Z</time>
      </trkpt>
      <trkpt lat="44.1649" lon="4.67007">
        <ele>179.5</ele>
        <time>2013-11-23T11:26:52.421Z</time>
      </trkpt>
      <trkpt lat="44.16489" lon="4.6701">
        <ele>179.5</ele>
        <time>2013-11-23T11:26:53.422Z</time>
      </trkpt>
      <trkpt lat="44.16488" lon="4.67019">
        <ele>179.1</ele>
        <time>2013-11-23T11:26:56.435Z</time>
      </trkpt>
      <trkpt lat="44.16488" lon="4.67023">
        <ele>179</ele>
        <time>2013-11-23T11:26:57.435Z</time>
      </trkpt>
      <trkpt lat="44.16489" lon="4.67033">
        <ele>178.7</ele>
        <time>2013-11-23T11:27:00.404Z</time>
      </trkpt>
      <trkpt lat="44.16489" lon="4.67036">
        <ele>178.6</ele>
        <time>2013-11-23T11:27:01.417Z</time>
      </trkpt>
      <trkpt lat="44.16488" lon="4.67044">
        <ele>181.2</ele>
        <time>2013-11-23T11:27:04.437Z</time>
      </trkpt>
      <trkpt lat="44.16489" lon="4.67053">
        <ele>181</ele>
        <time>2013-11-23T11:27:06.435Z</time>
      </trkpt>
      <trkpt lat="44.16489" lon="4.67064">
        <ele>181.5</ele>
        <time>2013-11-23T11:27:09.421Z</time>
      </trkpt>
      <trkpt lat="44.16489" lon="4.67067">
        <ele>183</ele>
        <time>2013-11-23T11:27:10.436Z</time>
      </trkpt>
      <trkpt lat="44.1649" lon="4.67076">
        <ele>184.3</ele>
        <time>2013-11-23T11:27:13.431Z</time>
      </trkpt>
      <trkpt lat="44.1649" lon="4.67079">
        <ele>184.1</ele>
        <time>2013-11-23T11:27:14.434Z</time>
      </trkpt>
      <trkpt lat="44.1649" lon="4.67083">
        <ele>184.2</ele>
        <time>2013-11-23T11:27:15.438Z</time>
      </trkpt>
      <trkpt lat="44.16493" lon="4.67093">
        <ele>184</ele>
        <time>2013-11-23T11:27:17.417Z</time>
      </trkpt>
      <trkpt lat="44.16497" lon="4.67103">
        <ele>184.1</ele>
        <time>2013-11-23T11:27:19.421Z</time>
      </trkpt>
      <trkpt lat="44.16499" lon="4.67108">
        <ele>184.1</ele>
        <time>2013-11-23T11:27:20.423Z</time>
      </trkpt>
      <trkpt lat="44.16501" lon="4.67117">
        <ele>182</ele>
        <time>2013-11-23T11:27:22.422Z</time>
      </trkpt>
      <trkpt lat="44.16501" lon="4.67121">
        <ele>181.4</ele>
        <time>2013-11-23T11:27:23.422Z</time>
      </trkpt>
      <trkpt lat="44.16502" lon="4.67128">
        <ele>180.4</ele>
        <time>2013-11-23T11:27:25.422Z</time>
      </trkpt>
      <trkpt lat="44.16503" lon="4.67135">
        <ele>179.5</ele>
        <time>2013-11-23T11:27:27.420Z</time>
      </trkpt>
      <trkpt lat="44.16504" lon="4.67144">
        <ele>180.4</ele>
        <time>2013-11-23T11:27:30.421Z</time>
      </trkpt>
      <trkpt lat="44.16506" lon="4.6715">
        <ele>179.7</ele>
        <time>2013-11-23T11:27:32.419Z</time>
      </trkpt>
      <trkpt lat="44.16511" lon="4.67161">
        <ele>177.8</ele>
        <time>2013-11-23T11:27:35.421Z</time>
      </trkpt>
      <trkpt lat="44.16512" lon="4.67165">
        <ele>177.4</ele>
        <time>2013-11-23T11:27:36.423Z</time>
      </trkpt>
      <trkpt lat="44.16514" lon="4.67174">
        <ele>175.8</ele>
        <time>2013-11-23T11:27:40.422Z</time>
      </trkpt>
      <trkpt lat="44.16515" lon="4.67177">
        <ele>175.3</ele>
        <time>2013-11-23T11:27:41.423Z</time>
      </trkpt>
      <trkpt lat="44.16516" lon="4.67187">
        <ele>173.6</ele>
        <time>2013-11-23T11:27:44.421Z</time>
      </trkpt>
      <trkpt lat="44.16517" lon="4.6719">
        <ele>174.7</ele>
        <time>2013-11-23T11:27:45.422Z</time>
      </trkpt>
      <trkpt lat="44.16521" lon="4.67198">
        <ele>175.9</ele>
        <time>2013-11-23T11:27:48.419Z</time>
      </trkpt>
      <trkpt lat="44.16523" lon="4.672">
        <ele>176.5</ele>
        <time>2013-11-23T11:27:49.423Z</time>
      </trkpt>
      <trkpt lat="44.16525" lon="4.67206">
        <ele>174.8</ele>
        <time>2013-11-23T11:27:51.441Z</time>
      </trkpt>
      <trkpt lat="44.16524" lon="4.67213">
        <ele>173.2</ele>
        <time>2013-11-23T11:27:53.423Z</time>
      </trkpt>
      <trkpt lat="44.16522" lon="4.67224">
        <ele>171.1</ele>
        <time>2013-11-23T11:27:56.422Z</time>
      </trkpt>
      <trkpt lat="44.16526" lon="4.67233">
        <ele>168.8</ele>
        <time>2013-11-23T11:27:58.421Z</time>
      </trkpt>
      <trkpt lat="44.16531" lon="4.67243">
        <ele>170.4</ele>
        <time>2013-11-23T11:28:01.420Z</time>
      </trkpt>
      <trkpt lat="44.16532" lon="4.6725">
        <ele>168.4</ele>
        <time>2013-11-23T11:28:03.419Z</time>
      </trkpt>
      <trkpt lat="44.16533" lon="4.67259">
        <ele>171.7</ele>
        <time>2013-11-23T11:28:06.425Z</time>
      </trkpt>
      <trkpt lat="44.16534" lon="4.67266">
        <ele>171.3</ele>
        <time>2013-11-23T11:28:08.423Z</time>
      </trkpt>
      <trkpt lat="44.1654" lon="4.67273">
        <ele>170.7</ele>
        <time>2013-11-23T11:28:10.424Z</time>
      </trkpt>
      <trkpt lat="44.16544" lon="4.67276">
        <ele>170.4</ele>
        <time>2013-11-23T11:28:11.425Z</time>
      </trkpt>
      <trkpt lat="44.16551" lon="4.67281">
        <ele>172.6</ele>
        <time>2013-11-23T11:28:18.424Z</time>
      </trkpt>
      <trkpt lat="44.16556" lon="4.67289">
        <ele>172.5</ele>
        <time>2013-11-23T11:28:21.440Z</time>
      </trkpt>
      <trkpt lat="44.1656" lon="4.673">
        <ele>170.2</ele>
        <time>2013-11-23T11:28:24.460Z</time>
      </trkpt>
      <trkpt lat="44.16561" lon="4.67309">
        <ele>170.5</ele>
        <time>2013-11-23T11:28:26.441Z</time>
      </trkpt>
      <trkpt lat="44.16561" lon="4.67313">
        <ele>170.4</ele>
        <time>2013-11-23T11:28:27.425Z</time>
      </trkpt>
      <trkpt lat="44.16563" lon="4.67321">
        <ele>169.7</ele>
        <time>2013-11-23T11:28:29.420Z</time>
      </trkpt>
      <trkpt lat="44.16567" lon="4.67329">
        <ele>166.8</ele>
        <time>2013-11-23T11:28:31.422Z</time>
      </trkpt>
      <trkpt lat="44.16568" lon="4.67333">
        <ele>165.7</ele>
        <time>2013-11-23T11:28:32.436Z</time>
      </trkpt>
      <trkpt lat="44.1657" lon="4.67344">
        <ele>165.3</ele>
        <time>2013-11-23T11:28:34.441Z</time>
      </trkpt>
      <trkpt lat="44.16571" lon="4.6735">
        <ele>164</ele>
        <time>2013-11-23T11:28:35.509Z</time>
      </trkpt>
      <trkpt lat="44.16575" lon="4.67361">
        <ele>163.6</ele>
        <time>2013-11-23T11:28:37.559Z</time>
      </trkpt>
      <trkpt lat="44.16577" lon="4.67372">
        <ele>162.7</ele>
        <time>2013-11-23T11:28:39.439Z</time>
      </trkpt>
      <trkpt lat="44.16578" lon="4.67378">
        <ele>162.4</ele>
        <time>2013-11-23T11:28:40.438Z</time>
      </trkpt>
      <trkpt lat="44.16577" lon="4.67386">
        <ele>162.3</ele>
        <time>2013-11-23T11:28:42.427Z</time>
      </trkpt>
      <trkpt lat="44.16574" lon="4.67395">
        <ele>161.1</ele>
        <time>2013-11-23T11:28:45.479Z</time>
      </trkpt>
      <trkpt lat="44.1657" lon="4.67399">
        <ele>159.9</ele>
        <time>2013-11-23T11:28:47.420Z</time>
      </trkpt>
      <trkpt lat="44.16566" lon="4.67397">
        <ele>161.8</ele>
        <time>2013-11-23T11:28:48.424Z</time>
      </trkpt>
      <trkpt lat="44.16561" lon="4.67393">
        <ele>161</ele>
        <time>2013-11-23T11:28:49.425Z</time>
      </trkpt>
      <trkpt lat="44.16554" lon="4.67389">
        <ele>160</ele>
        <time>2013-11-23T11:28:51.475Z</time>
      </trkpt>
      <trkpt lat="44.16549" lon="4.67384">
        <ele>159.3</ele>
        <time>2013-11-23T11:28:53.423Z</time>
      </trkpt>
      <trkpt lat="44.16543" lon="4.67379">
        <ele>157.9</ele>
        <time>2013-11-23T11:28:55.420Z</time>
      </trkpt>
      <trkpt lat="44.1654" lon="4.67376">
        <ele>157.1</ele>
        <time>2013-11-23T11:28:56.423Z</time>
      </trkpt>
      <trkpt lat="44.16536" lon="4.67374">
        <ele>156.4</ele>
        <time>2013-11-23T11:28:57.433Z</time>
      </trkpt>
      <trkpt lat="44.16528" lon="4.67371">
        <ele>156.2</ele>
        <time>2013-11-23T11:28:59.421Z</time>
      </trkpt>
      <trkpt lat="44.16519" lon="4.67369">
        <ele>156.4</ele>
        <time>2013-11-23T11:29:01.401Z</time>
      </trkpt>
      <trkpt lat="44.1651" lon="4.67368">
        <ele>157.1</ele>
        <time>2013-11-23T11:29:03.426Z</time>
      </trkpt>
      <trkpt lat="44.16507" lon="4.67366">
        <ele>156.9</ele>
        <time>2013-11-23T11:29:04.425Z</time>
      </trkpt>
      <trkpt lat="44.16503" lon="4.67364">
        <ele>157.1</ele>
        <time>2013-11-23T11:29:05.441Z</time>
      </trkpt>
      <trkpt lat="44.16494" lon="4.67356">
        <ele>154.4</ele>
        <time>2013-11-23T11:29:07.424Z</time>
      </trkpt>
      <trkpt lat="44.16488" lon="4.67352">
        <ele>154.4</ele>
        <time>2013-11-23T11:29:08.424Z</time>
      </trkpt>
      <trkpt lat="44.16476" lon="4.67346">
        <ele>154</ele>
        <time>2013-11-23T11:29:10.422Z</time>
      </trkpt>
      <trkpt lat="44.16464" lon="4.6734">
        <ele>154.5</ele>
        <time>2013-11-23T11:29:12.419Z</time>
      </trkpt>
      <trkpt lat="44.16458" lon="4.67337">
        <ele>154.9</ele>
        <time>2013-11-23T11:29:13.423Z</time>
      </trkpt>
      <trkpt lat="44.16448" lon="4.67331">
        <ele>155.6</ele>
        <time>2013-11-23T11:29:15.422Z</time>
      </trkpt>
      <trkpt lat="44.16439" lon="4.67327">
        <ele>155.3</ele>
        <time>2013-11-23T11:29:17.418Z</time>
      </trkpt>
      <trkpt lat="44.16434" lon="4.67326">
        <ele>155.5</ele>
        <time>2013-11-23T11:29:18.424Z</time>
      </trkpt>
      <trkpt lat="44.1643" lon="4.67325">
        <ele>155.8</ele>
        <time>2013-11-23T11:29:19.424Z</time>
      </trkpt>
      <trkpt lat="44.16421" lon="4.67324">
        <ele>156.2</ele>
        <time>2013-11-23T11:29:21.394Z</time>
      </trkpt>
      <trkpt lat="44.16416" lon="4.67324">
        <ele>156.4</ele>
        <time>2013-11-23T11:29:22.419Z</time>
      </trkpt>
      <trkpt lat="44.16408" lon="4.67325">
        <ele>156.9</ele>
        <time>2013-11-23T11:29:24.422Z</time>
      </trkpt>
      <trkpt lat="44.16403" lon="4.67325">
        <ele>155.9</ele>
        <time>2013-11-23T11:29:25.424Z</time>
      </trkpt>
      <trkpt lat="44.16395" lon="4.67324">
        <ele>156</ele>
        <time>2013-11-23T11:29:27.419Z</time>
      </trkpt>
      <trkpt lat="44.1639" lon="4.67323">
        <ele>156.3</ele>
        <time>2013-11-23T11:29:28.421Z</time>
      </trkpt>
      <trkpt lat="44.16382" lon="4.6732">
        <ele>156.2</ele>
        <time>2013-11-23T11:29:30.419Z</time>
      </trkpt>
      <trkpt lat="44.16375" lon="4.67316">
        <ele>156.7</ele>
        <time>2013-11-23T11:29:32.426Z</time>
      </trkpt>
      <trkpt lat="44.16372" lon="4.67314">
        <ele>157</ele>
        <time>2013-11-23T11:29:33.425Z</time>
      </trkpt>
      <trkpt lat="44.16363" lon="4.67307">
        <ele>156.3</ele>
        <time>2013-11-23T11:29:35.422Z</time>
      </trkpt>
      <trkpt lat="44.16356" lon="4.67299">
        <ele>155.2</ele>
        <time>2013-11-23T11:29:37.594Z</time>
      </trkpt>
      <trkpt lat="44.16348" lon="4.67294">
        <ele>155.7</ele>
        <time>2013-11-23T11:29:39.472Z</time>
      </trkpt>
      <trkpt lat="44.16338" lon="4.67291">
        <ele>155.4</ele>
        <time>2013-11-23T11:29:41.433Z</time>
      </trkpt>
      <trkpt lat="44.16327" lon="4.67291">
        <ele>154.8</ele>
        <time>2013-11-23T11:29:43.422Z</time>
      </trkpt>
      <trkpt lat="44.16322" lon="4.67293">
        <ele>154.7</ele>
        <time>2013-11-23T11:29:44.429Z</time>
      </trkpt>
      <trkpt lat="44.16317" lon="4.67294">
        <ele>154.7</ele>
        <time>2013-11-23T11:29:45.433Z</time>
      </trkpt>
      <trkpt lat="44.16313" lon="4.67296">
        <ele>154.7</ele>
        <time>2013-11-23T11:29:46.439Z</time>
      </trkpt>
      <trkpt lat="44.16303" lon="4.67298">
        <ele>154.4</ele>
        <time>2013-11-23T11:29:48.418Z</time>
      </trkpt>
      <trkpt lat="44.16295" lon="4.67301">
        <ele>155.8</ele>
        <time>2013-11-23T11:29:50.436Z</time>
      </trkpt>
      <trkpt lat="44.16291" lon="4.67302">
        <ele>156.4</ele>
        <time>2013-11-23T11:29:51.433Z</time>
      </trkpt>
      <trkpt lat="44.16286" lon="4.67305">
        <ele>156.8</ele>
        <time>2013-11-23T11:29:53.438Z</time>
      </trkpt>
      <trkpt lat="44.16281" lon="4.67307">
        <ele>157.2</ele>
        <time>2013-11-23T11:29:55.437Z</time>
      </trkpt>
      <trkpt lat="44.16274" lon="4.6731">
        <ele>157</ele>
        <time>2013-11-23T11:29:59.421Z</time>
      </trkpt>
      <trkpt lat="44.16273" lon="4.67315">
        <ele>157.5</ele>
        <time>2013-11-23T11:30:01.389Z</time>
      </trkpt>
      <trkpt lat="44.1627" lon="4.67325">
        <ele>158.2</ele>
        <time>2013-11-23T11:30:05.743Z</time>
      </trkpt>
      <trkpt lat="44.16266" lon="4.67331">
        <ele>158.6</ele>
        <time>2013-11-23T11:30:08.424Z</time>
      </trkpt>
      <trkpt lat="44.16263" lon="4.67335">
        <ele>159.3</ele>
        <time>2013-11-23T11:30:12.537Z</time>
      </trkpt>
      <trkpt lat="44.16261" lon="4.67346">
        <ele>158.1</ele>
        <time>2013-11-23T11:30:15.424Z</time>
      </trkpt>
      <trkpt lat="44.16262" lon="4.67357">
        <ele>156.6</ele>
        <time>2013-11-23T11:30:18.428Z</time>
      </trkpt>
      <trkpt lat="44.16263" lon="4.67361">
        <ele>156.2</ele>
        <time>2013-11-23T11:30:19.428Z</time>
      </trkpt>
      <trkpt lat="44.1626" lon="4.67372">
        <ele>156.7</ele>
        <time>2013-11-23T11:30:23.557Z</time>
      </trkpt>
      <trkpt lat="44.16258" lon="4.67373">
        <ele>160</ele>
        <time>2013-11-23T11:30:26.422Z</time>
      </trkpt>
      <trkpt lat="44.16258" lon="4.6738">
        <ele>160.6</ele>
        <time>2013-11-23T11:30:28.423Z</time>
      </trkpt>
      <trkpt lat="44.16257" lon="4.67388">
        <ele>162.1</ele>
        <time>2013-11-23T11:30:30.423Z</time>
      </trkpt>
      <trkpt lat="44.16253" lon="4.67398">
        <ele>163.2</ele>
        <time>2013-11-23T11:30:34.422Z</time>
      </trkpt>
      <trkpt lat="44.16252" lon="4.674">
        <ele>163.8</ele>
        <time>2013-11-23T11:30:35.428Z</time>
      </trkpt>
      <trkpt lat="44.16247" lon="4.67409">
        <ele>170.7</ele>
        <time>2013-11-23T11:30:40.544Z</time>
      </trkpt>
      <trkpt lat="44.16245" lon="4.67418">
        <ele>170.8</ele>
        <time>2013-11-23T11:30:43.422Z</time>
      </trkpt>
      <trkpt lat="44.16243" lon="4.67423">
        <ele>172.2</ele>
        <time>2013-11-23T11:30:45.427Z</time>
      </trkpt>
      <trkpt lat="44.16239" lon="4.67432">
        <ele>169.4</ele>
        <time>2013-11-23T11:30:47.421Z</time>
      </trkpt>
      <trkpt lat="44.16234" lon="4.67445">
        <ele>168.6</ele>
        <time>2013-11-23T11:30:49.403Z</time>
      </trkpt>
      <trkpt lat="44.16232" lon="4.67452">
        <ele>168.6</ele>
        <time>2013-11-23T11:30:50.417Z</time>
      </trkpt>
      <trkpt lat="44.16225" lon="4.67463">
        <ele>166.9</ele>
        <time>2013-11-23T11:30:52.418Z</time>
      </trkpt>
      <trkpt lat="44.1622" lon="4.67466">
        <ele>166</ele>
        <time>2013-11-23T11:30:53.419Z</time>
      </trkpt>
      <trkpt lat="44.16214" lon="4.67468">
        <ele>165.2</ele>
        <time>2013-11-23T11:30:54.437Z</time>
      </trkpt>
      <trkpt lat="44.16203" lon="4.67466">
        <ele>164.4</ele>
        <time>2013-11-23T11:30:56.406Z</time>
      </trkpt>
      <trkpt lat="44.16197" lon="4.67465">
        <ele>163.7</ele>
        <time>2013-11-23T11:30:57.431Z</time>
      </trkpt>
      <trkpt lat="44.16186" lon="4.67462">
        <ele>162.5</ele>
        <time>2013-11-23T11:30:59.417Z</time>
      </trkpt>
      <trkpt lat="44.16174" lon="4.6746">
        <ele>161.3</ele>
        <time>2013-11-23T11:31:01.393Z</time>
      </trkpt>
      <trkpt lat="44.16168" lon="4.6746">
        <ele>160.9</ele>
        <time>2013-11-23T11:31:02.427Z</time>
      </trkpt>
      <trkpt lat="44.16154" lon="4.67465">
        <ele>158.9</ele>
        <time>2013-11-23T11:31:04.431Z</time>
      </trkpt>
      <trkpt lat="44.16141" lon="4.67472">
        <ele>158.8</ele>
        <time>2013-11-23T11:31:06.388Z</time>
      </trkpt>
      <trkpt lat="44.16135" lon="4.67476">
        <ele>158.9</ele>
        <time>2013-11-23T11:31:07.418Z</time>
      </trkpt>
      <trkpt lat="44.1613" lon="4.67478">
        <ele>158.6</ele>
        <time>2013-11-23T11:31:08.421Z</time>
      </trkpt>
      <trkpt lat="44.16126" lon="4.6748">
        <ele>158.7</ele>
        <time>2013-11-23T11:31:09.422Z</time>
      </trkpt>
      <trkpt lat="44.16117" lon="4.67483">
        <ele>158.7</ele>
        <time>2013-11-23T11:31:11.392Z</time>
      </trkpt>
      <trkpt lat="44.1611" lon="4.67486">
        <ele>159.1</ele>
        <time>2013-11-23T11:31:13.447Z</time>
      </trkpt>
      <trkpt lat="44.16104" lon="4.67489">
        <ele>159.2</ele>
        <time>2013-11-23T11:31:15.418Z</time>
      </trkpt>
      <trkpt lat="44.16101" lon="4.67491">
        <ele>159.3</ele>
        <time>2013-11-23T11:31:16.425Z</time>
      </trkpt>
      <trkpt lat="44.16094" lon="4.67493">
        <ele>159.5</ele>
        <time>2013-11-23T11:31:18.423Z</time>
      </trkpt>
      <trkpt lat="44.1609" lon="4.67494">
        <ele>159.7</ele>
        <time>2013-11-23T11:31:19.474Z</time>
      </trkpt>
      <trkpt lat="44.16084" lon="4.67496">
        <ele>160.1</ele>
        <time>2013-11-23T11:31:21.418Z</time>
      </trkpt>
      <trkpt lat="44.1608" lon="4.67496">
        <ele>159.8</ele>
        <time>2013-11-23T11:31:22.421Z</time>
      </trkpt>
      <trkpt lat="44.16072" lon="4.67496">
        <ele>159.7</ele>
        <time>2013-11-23T11:31:24.420Z</time>
      </trkpt>
      <trkpt lat="44.16069" lon="4.67496">
        <ele>159.6</ele>
        <time>2013-11-23T11:31:25.425Z</time>
      </trkpt>
      <trkpt lat="44.16063" lon="4.67497">
        <ele>158.4</ele>
        <time>2013-11-23T11:31:27.417Z</time>
      </trkpt>
      <trkpt lat="44.16055" lon="4.67495">
        <ele>159.7</ele>
        <time>2013-11-23T11:31:30.424Z</time>
      </trkpt>
      <trkpt lat="44.1605" lon="4.67496">
        <ele>159.8</ele>
        <time>2013-11-23T11:31:32.417Z</time>
      </trkpt>
      <trkpt lat="44.16041" lon="4.67496">
        <ele>159</ele>
        <time>2013-11-23T11:31:35.423Z</time>
      </trkpt>
      <trkpt lat="44.16039" lon="4.67496">
        <ele>159.2</ele>
        <time>2013-11-23T11:31:36.431Z</time>
      </trkpt>
      <trkpt lat="44.16031" lon="4.67497">
        <ele>159.6</ele>
        <time>2013-11-23T11:31:39.422Z</time>
      </trkpt>
      <trkpt lat="44.16029" lon="4.67498">
        <ele>160.1</ele>
        <time>2013-11-23T11:31:40.422Z</time>
      </trkpt>
      <trkpt lat="44.16021" lon="4.675">
        <ele>161.6</ele>
        <time>2013-11-23T11:31:44.421Z</time>
      </trkpt>
      <trkpt lat="44.16019" lon="4.675">
        <ele>161.4</ele>
        <time>2013-11-23T11:31:45.422Z</time>
      </trkpt>
      <trkpt lat="44.16011" lon="4.675">
        <ele>161.8</ele>
        <time>2013-11-23T11:31:49.538Z</time>
      </trkpt>
      <trkpt lat="44.16005" lon="4.675">
        <ele>162.3</ele>
        <time>2013-11-23T11:31:52.422Z</time>
      </trkpt>
      <trkpt lat="44.15996" lon="4.67499">
        <ele>163.2</ele>
        <time>2013-11-23T11:31:57.551Z</time>
      </trkpt>
      <trkpt lat="44.1599" lon="4.67498">
        <ele>163.5</ele>
        <time>2013-11-23T11:32:00.418Z</time>
      </trkpt>
      <trkpt lat="44.15983" lon="4.67498">
        <ele>163.8</ele>
        <time>2013-11-23T11:32:04.538Z</time>
      </trkpt>
      <trkpt lat="44.15978" lon="4.67498">
        <ele>164.3</ele>
        <time>2013-11-23T11:32:07.422Z</time>
      </trkpt>
      <trkpt lat="44.1597" lon="4.67498">
        <ele>164.9</ele>
        <time>2013-11-23T11:32:11.535Z</time>
      </trkpt>
      <trkpt lat="44.15965" lon="4.67499">
        <ele>165.3</ele>
        <time>2013-11-23T11:32:14.422Z</time>
      </trkpt>
      <trkpt lat="44.15958" lon="4.67499">
        <ele>165.6</ele>
        <time>2013-11-23T11:32:18.676Z</time>
      </trkpt>
      <trkpt lat="44.15953" lon="4.67499">
        <ele>165.7</ele>
        <time>2013-11-23T11:32:21.434Z</time>
      </trkpt>
      <trkpt lat="44.15948" lon="4.67502">
        <ele>165.7</ele>
        <time>2013-11-23T11:32:24.432Z</time>
      </trkpt>
      <trkpt lat="44.15944" lon="4.67504">
        <ele>166</ele>
        <time>2013-11-23T11:32:26.420Z</time>
      </trkpt>
      <trkpt lat="44.15939" lon="4.67514">
        <ele>167</ele>
        <time>2013-11-23T11:32:31.438Z</time>
      </trkpt>
      <trkpt lat="44.15939" lon="4.67514">
        <ele>167</ele>
        <time>2013-11-23T11:32:31.555Z</time>
      </trkpt>
      <trkpt lat="44.1594" lon="4.67526">
        <ele>168.2</ele>
        <time>2013-11-23T11:32:36.546Z</time>
      </trkpt>
      <trkpt lat="44.15941" lon="4.67533">
        <ele>168.8</ele>
        <time>2013-11-23T11:32:39.437Z</time>
      </trkpt>
      <trkpt lat="44.15942" lon="4.67543">
        <ele>168.6</ele>
        <time>2013-11-23T11:32:43.422Z</time>
      </trkpt>
      <trkpt lat="44.15943" lon="4.67546">
        <ele>168.8</ele>
        <time>2013-11-23T11:32:44.427Z</time>
      </trkpt>
      <trkpt lat="44.15944" lon="4.67556">
        <ele>169.5</ele>
        <time>2013-11-23T11:32:48.556Z</time>
      </trkpt>
      <trkpt lat="44.15945" lon="4.67563">
        <ele>169.8</ele>
        <time>2013-11-23T11:32:51.443Z</time>
      </trkpt>
      <trkpt lat="44.15946" lon="4.6757">
        <ele>170.1</ele>
        <time>2013-11-23T11:32:54.430Z</time>
      </trkpt>
      <trkpt lat="44.15946" lon="4.67575">
        <ele>170.3</ele>
        <time>2013-11-23T11:32:56.429Z</time>
      </trkpt>
      <trkpt lat="44.15947" lon="4.67583">
        <ele>170.8</ele>
        <time>2013-11-23T11:32:59.431Z</time>
      </trkpt>
      <trkpt lat="44.15948" lon="4.67588">
        <ele>171</ele>
        <time>2013-11-23T11:33:01.427Z</time>
      </trkpt>
      <trkpt lat="44.1595" lon="4.67595">
        <ele>171.3</ele>
        <time>2013-11-23T11:33:04.429Z</time>
      </trkpt>
      <trkpt lat="44.15951" lon="4.676">
        <ele>171.5</ele>
        <time>2013-11-23T11:33:06.440Z</time>
      </trkpt>
      <trkpt lat="44.15953" lon="4.6761">
        <ele>171.6</ele>
        <time>2013-11-23T11:33:10.423Z</time>
      </trkpt>
      <trkpt lat="44.15953" lon="4.67615">
        <ele>171.8</ele>
        <time>2013-11-23T11:33:12.417Z</time>
      </trkpt>
      <trkpt lat="44.15955" lon="4.67626">
        <ele>172.5</ele>
        <time>2013-11-23T11:33:16.538Z</time>
      </trkpt>
      <trkpt lat="44.15957" lon="4.67635">
        <ele>172.6</ele>
        <time>2013-11-23T11:33:19.413Z</time>
      </trkpt>
      <trkpt lat="44.15957" lon="4.67647">
        <ele>172.8</ele>
        <time>2013-11-23T11:33:23.707Z</time>
      </trkpt>
      <trkpt lat="44.15957" lon="4.67656">
        <ele>172.8</ele>
        <time>2013-11-23T11:33:26.427Z</time>
      </trkpt>
      <trkpt lat="44.15958" lon="4.67665">
        <ele>172.8</ele>
        <time>2013-11-23T11:33:29.428Z</time>
      </trkpt>
      <trkpt lat="44.15958" lon="4.67671">
        <ele>172.8</ele>
        <time>2013-11-23T11:33:31.426Z</time>
      </trkpt>
      <trkpt lat="44.1596" lon="4.67682">
        <ele>172.6</ele>
        <time>2013-11-23T11:33:34.427Z</time>
      </trkpt>
      <trkpt lat="44.15961" lon="4.67691">
        <ele>172.3</ele>
        <time>2013-11-23T11:33:36.422Z</time>
      </trkpt>
      <trkpt lat="44.15962" lon="4.67696">
        <ele>172.2</ele>
        <time>2013-11-23T11:33:37.424Z</time>
      </trkpt>
      <trkpt lat="44.15965" lon="4.67706">
        <ele>171.4</ele>
        <time>2013-11-23T11:33:39.421Z</time>
      </trkpt>
      <trkpt lat="44.15966" lon="4.67712">
        <ele>171.3</ele>
        <time>2013-11-23T11:33:40.422Z</time>
      </trkpt>
      <trkpt lat="44.15968" lon="4.67718">
        <ele>170.8</ele>
        <time>2013-11-23T11:33:41.422Z</time>
      </trkpt>
      <trkpt lat="44.15972" lon="4.6773">
        <ele>170.3</ele>
        <time>2013-11-23T11:33:43.418Z</time>
      </trkpt>
      <trkpt lat="44.15974" lon="4.67736">
        <ele>170.2</ele>
        <time>2013-11-23T11:33:44.422Z</time>
      </trkpt>
      <trkpt lat="44.15977" lon="4.67743">
        <ele>170</ele>
        <time>2013-11-23T11:33:45.422Z</time>
      </trkpt>
      <trkpt lat="44.15981" lon="4.67758">
        <ele>169.5</ele>
        <time>2013-11-23T11:33:47.413Z</time>
      </trkpt>
      <trkpt lat="44.15983" lon="4.67765">
        <ele>169.2</ele>
        <time>2013-11-23T11:33:48.432Z</time>
      </trkpt>
      <trkpt lat="44.15986" lon="4.67771">
        <ele>169.1</ele>
        <time>2013-11-23T11:33:49.434Z</time>
      </trkpt>
      <trkpt lat="44.15992" lon="4.67782">
        <ele>169</ele>
        <time>2013-11-23T11:33:51.398Z</time>
      </trkpt>
      <trkpt lat="44.15997" lon="4.67791">
        <ele>169.4</ele>
        <time>2013-11-23T11:33:53.424Z</time>
      </trkpt>
      <trkpt lat="44.16003" lon="4.67798">
        <ele>169.6</ele>
        <time>2013-11-23T11:33:55.421Z</time>
      </trkpt>
      <trkpt lat="44.16009" lon="4.67806">
        <ele>169.5</ele>
        <time>2013-11-23T11:33:57.451Z</time>
      </trkpt>
      <trkpt lat="44.16014" lon="4.67812">
        <ele>169.6</ele>
        <time>2013-11-23T11:33:59.438Z</time>
      </trkpt>
      <trkpt lat="44.16017" lon="4.67815">
        <ele>169.6</ele>
        <time>2013-11-23T11:34:00.421Z</time>
      </trkpt>
      <trkpt lat="44.16021" lon="4.67823">
        <ele>170.7</ele>
        <time>2013-11-23T11:34:02.419Z</time>
      </trkpt>
      <trkpt lat="44.16022" lon="4.67827">
        <ele>170.6</ele>
        <time>2013-11-23T11:34:03.423Z</time>
      </trkpt>
      <trkpt lat="44.16024" lon="4.67835">
        <ele>170.5</ele>
        <time>2013-11-23T11:34:05.432Z</time>
      </trkpt>
      <trkpt lat="44.16025" lon="4.67845">
        <ele>170.7</ele>
        <time>2013-11-23T11:34:07.433Z</time>
      </trkpt>
      <trkpt lat="44.16025" lon="4.67851">
        <ele>170.8</ele>
        <time>2013-11-23T11:34:08.434Z</time>
      </trkpt>
      <trkpt lat="44.16025" lon="4.67856">
        <ele>170.7</ele>
        <time>2013-11-23T11:34:09.437Z</time>
      </trkpt>
      <trkpt lat="44.16021" lon="4.67864">
        <ele>172</ele>
        <time>2013-11-23T11:34:11.432Z</time>
      </trkpt>
      <trkpt lat="44.16018" lon="4.67872">
        <ele>172.3</ele>
        <time>2013-11-23T11:34:13.438Z</time>
      </trkpt>
      <trkpt lat="44.16017" lon="4.6788">
        <ele>172.1</ele>
        <time>2013-11-23T11:34:15.408Z</time>
      </trkpt>
      <trkpt lat="44.16019" lon="4.6789">
        <ele>172.3</ele>
        <time>2013-11-23T11:34:19.538Z</time>
      </trkpt>
      <trkpt lat="44.16024" lon="4.67891">
        <ele>172</ele>
        <time>2013-11-23T11:34:22.422Z</time>
      </trkpt>
      <trkpt lat="44.16032" lon="4.67893">
        <ele>173.8</ele>
        <time>2013-11-23T11:34:27.554Z</time>
      </trkpt>
      <trkpt lat="44.16036" lon="4.67894">
        <ele>173.9</ele>
        <time>2013-11-23T11:34:30.426Z</time>
      </trkpt>
      <trkpt lat="44.16043" lon="4.67896">
        <ele>173.2</ele>
        <time>2013-11-23T11:34:34.421Z</time>
      </trkpt>
      <trkpt lat="44.16045" lon="4.67897">
        <ele>172.9</ele>
        <time>2013-11-23T11:34:36.403Z</time>
      </trkpt>
      <trkpt lat="44.16051" lon="4.67906">
        <ele>178.3</ele>
        <time>2013-11-23T11:34:44.533Z</time>
      </trkpt>
      <trkpt lat="44.16055" lon="4.67915">
        <ele>181</ele>
        <time>2013-11-23T11:34:49.419Z</time>
      </trkpt>
      <trkpt lat="44.16059" lon="4.67923">
        <ele>181.9</ele>
        <time>2013-11-23T11:34:53.535Z</time>
      </trkpt>
      <trkpt lat="44.16061" lon="4.67929">
        <ele>182.5</ele>
        <time>2013-11-23T11:34:56.421Z</time>
      </trkpt>
      <trkpt lat="44.16066" lon="4.67938">
        <ele>183.1</ele>
        <time>2013-11-23T11:35:01.553Z</time>
      </trkpt>
      <trkpt lat="44.16069" lon="4.67943">
        <ele>183.5</ele>
        <time>2013-11-23T11:35:04.422Z</time>
      </trkpt>
      <trkpt lat="44.16074" lon="4.67952">
        <ele>184.7</ele>
        <time>2013-11-23T11:35:08.533Z</time>
      </trkpt>
      <trkpt lat="44.16076" lon="4.67959">
        <ele>186</ele>
        <time>2013-11-23T11:35:11.474Z</time>
      </trkpt>
      <trkpt lat="44.16073" lon="4.67966">
        <ele>184.3</ele>
        <time>2013-11-23T11:35:14.461Z</time>
      </trkpt>
      <trkpt lat="44.16074" lon="4.67973">
        <ele>180.5</ele>
        <time>2013-11-23T11:35:16.424Z</time>
      </trkpt>
      <trkpt lat="44.16078" lon="4.67969">
        <ele>177.9</ele>
        <time>2013-11-23T11:35:23.579Z</time>
      </trkpt>
      <trkpt lat="44.16084" lon="4.67975">
        <ele>179.2</ele>
        <time>2013-11-23T11:35:27.423Z</time>
      </trkpt>
      <trkpt lat="44.16087" lon="4.67987">
        <ele>186.8</ele>
        <time>2013-11-23T11:35:35.532Z</time>
      </trkpt>
      <trkpt lat="44.16087" lon="4.67988">
        <ele>187.2</ele>
        <time>2013-11-23T11:35:36.424Z</time>
      </trkpt>
      <trkpt lat="44.16085" lon="4.67997">
        <ele>188.2</ele>
        <time>2013-11-23T11:35:43.611Z</time>
      </trkpt>
      <trkpt lat="44.16085" lon="4.68009">
        <ele>186.8</ele>
        <time>2013-11-23T11:35:47.419Z</time>
      </trkpt>
      <trkpt lat="44.16084" lon="4.68017">
        <ele>188.6</ele>
        <time>2013-11-23T11:35:52.535Z</time>
      </trkpt>
      <trkpt lat="44.16083" lon="4.68022">
        <ele>189.2</ele>
        <time>2013-11-23T11:35:55.422Z</time>
      </trkpt>
      <trkpt lat="44.16084" lon="4.68034">
        <ele>187.2</ele>
        <time>2013-11-23T11:35:59.551Z</time>
      </trkpt>
      <trkpt lat="44.16084" lon="4.68043">
        <ele>184.9</ele>
        <time>2013-11-23T11:36:02.421Z</time>
      </trkpt>
      <trkpt lat="44.16081" lon="4.68054">
        <ele>187.6</ele>
        <time>2013-11-23T11:36:07.535Z</time>
      </trkpt>
      <trkpt lat="44.16081" lon="4.6806">
        <ele>187.6</ele>
        <time>2013-11-23T11:36:10.419Z</time>
      </trkpt>
      <trkpt lat="44.16082" lon="4.6807">
        <ele>188.9</ele>
        <time>2013-11-23T11:36:14.535Z</time>
      </trkpt>
      <trkpt lat="44.16084" lon="4.68081">
        <ele>188.8</ele>
        <time>2013-11-23T11:36:17.423Z</time>
      </trkpt>
      <trkpt lat="44.16082" lon="4.68091">
        <ele>188.8</ele>
        <time>2013-11-23T11:36:22.535Z</time>
      </trkpt>
      <trkpt lat="44.16084" lon="4.68104">
        <ele>190.2</ele>
        <time>2013-11-23T11:36:25.422Z</time>
      </trkpt>
      <trkpt lat="44.16085" lon="4.68112">
        <ele>190.3</ele>
        <time>2013-11-23T11:36:28.426Z</time>
      </trkpt>
      <trkpt lat="44.16086" lon="4.68118">
        <ele>190.3</ele>
        <time>2013-11-23T11:36:30.425Z</time>
      </trkpt>
      <trkpt lat="44.16087" lon="4.68128">
        <ele>183.4</ele>
        <time>2013-11-23T11:36:34.421Z</time>
      </trkpt>
      <trkpt lat="44.16087" lon="4.68134">
        <ele>181.5</ele>
        <time>2013-11-23T11:36:36.433Z</time>
      </trkpt>
      <trkpt lat="44.16087" lon="4.68145">
        <ele>177.7</ele>
        <time>2013-11-23T11:36:39.424Z</time>
      </trkpt>
      <trkpt lat="44.1609" lon="4.68158">
        <ele>179.2</ele>
        <time>2013-11-23T11:36:41.412Z</time>
      </trkpt>
      <trkpt lat="44.16091" lon="4.68168">
        <ele>178.2</ele>
        <time>2013-11-23T11:36:43.407Z</time>
      </trkpt>
      <trkpt lat="44.16093" lon="4.68174">
        <ele>178.8</ele>
        <time>2013-11-23T11:36:44.422Z</time>
      </trkpt>
      <trkpt lat="44.16095" lon="4.6818">
        <ele>178.5</ele>
        <time>2013-11-23T11:36:45.445Z</time>
      </trkpt>
      <trkpt lat="44.16099" lon="4.68185">
        <ele>178.4</ele>
        <time>2013-11-23T11:36:46.445Z</time>
      </trkpt>
      <trkpt lat="44.16106" lon="4.68196">
        <ele>181.1</ele>
        <time>2013-11-23T11:36:48.441Z</time>
      </trkpt>
      <trkpt lat="44.16115" lon="4.68202">
        <ele>181.5</ele>
        <time>2013-11-23T11:36:50.426Z</time>
      </trkpt>
      <trkpt lat="44.1612" lon="4.68206">
        <ele>181.5</ele>
        <time>2013-11-23T11:36:51.428Z</time>
      </trkpt>
      <trkpt lat="44.16132" lon="4.68213">
        <ele>181.6</ele>
        <time>2013-11-23T11:36:53.448Z</time>
      </trkpt>
      <trkpt lat="44.16144" lon="4.6822">
        <ele>182.8</ele>
        <time>2013-11-23T11:36:55.439Z</time>
      </trkpt>
      <trkpt lat="44.16149" lon="4.68224">
        <ele>183.3</ele>
        <time>2013-11-23T11:36:56.437Z</time>
      </trkpt>
      <trkpt lat="44.16159" lon="4.68234">
        <ele>183.3</ele>
        <time>2013-11-23T11:36:58.431Z</time>
      </trkpt>
      <trkpt lat="44.1617" lon="4.68243">
        <ele>182.5</ele>
        <time>2013-11-23T11:37:00.421Z</time>
      </trkpt>
      <trkpt lat="44.16183" lon="4.68249">
        <ele>183.3</ele>
        <time>2013-11-23T11:37:02.434Z</time>
      </trkpt>
      <trkpt lat="44.16192" lon="4.68255">
        <ele>183.5</ele>
        <time>2013-11-23T11:37:04.434Z</time>
      </trkpt>
      <trkpt lat="44.16199" lon="4.68259">
        <ele>183.8</ele>
        <time>2013-11-23T11:37:06.395Z</time>
      </trkpt>
      <trkpt lat="44.16202" lon="4.6826">
        <ele>184.2</ele>
        <time>2013-11-23T11:37:07.419Z</time>
      </trkpt>
      <trkpt lat="44.16209" lon="4.68262">
        <ele>184.1</ele>
        <time>2013-11-23T11:37:09.429Z</time>
      </trkpt>
      <trkpt lat="44.16216" lon="4.68262">
        <ele>183.9</ele>
        <time>2013-11-23T11:37:11.391Z</time>
      </trkpt>
      <trkpt lat="44.16222" lon="4.68263">
        <ele>183.3</ele>
        <time>2013-11-23T11:37:13.421Z</time>
      </trkpt>
      <trkpt lat="44.16226" lon="4.68263">
        <ele>183.1</ele>
        <time>2013-11-23T11:37:14.422Z</time>
      </trkpt>
      <trkpt lat="44.16229" lon="4.68263">
        <ele>182.9</ele>
        <time>2013-11-23T11:37:15.422Z</time>
      </trkpt>
      <trkpt lat="44.16236" lon="4.68266">
        <ele>181.1</ele>
        <time>2013-11-23T11:37:17.419Z</time>
      </trkpt>
      <trkpt lat="44.16244" lon="4.68269">
        <ele>179.9</ele>
        <time>2013-11-23T11:37:19.422Z</time>
      </trkpt>
      <trkpt lat="44.16247" lon="4.6827">
        <ele>179.9</ele>
        <time>2013-11-23T11:37:20.422Z</time>
      </trkpt>
      <trkpt lat="44.16255" lon="4.68272">
        <ele>179.7</ele>
        <time>2013-11-23T11:37:22.419Z</time>
      </trkpt>
      <trkpt lat="44.16258" lon="4.68272">
        <ele>179.5</ele>
        <time>2013-11-23T11:37:23.422Z</time>
      </trkpt>
      <trkpt lat="44.16265" lon="4.68271">
        <ele>178.8</ele>
        <time>2013-11-23T11:37:25.422Z</time>
      </trkpt>
      <trkpt lat="44.16269" lon="4.68269">
        <ele>178.7</ele>
        <time>2013-11-23T11:37:26.461Z</time>
      </trkpt>
      <trkpt lat="44.16277" lon="4.68265">
        <ele>175.9</ele>
        <time>2013-11-23T11:37:28.419Z</time>
      </trkpt>
      <trkpt lat="44.1628" lon="4.68264">
        <ele>176.6</ele>
        <time>2013-11-23T11:37:29.421Z</time>
      </trkpt>
      <trkpt lat="44.16285" lon="4.68262">
        <ele>179.1</ele>
        <time>2013-11-23T11:37:31.441Z</time>
      </trkpt>
      <trkpt lat="44.16291" lon="4.68261">
        <ele>178.9</ele>
        <time>2013-11-23T11:37:33.423Z</time>
      </trkpt>
      <trkpt lat="44.16294" lon="4.6826">
        <ele>178.9</ele>
        <time>2013-11-23T11:37:34.424Z</time>
      </trkpt>
      <trkpt lat="44.163" lon="4.68259">
        <ele>179.1</ele>
        <time>2013-11-23T11:37:36.465Z</time>
      </trkpt>
      <trkpt lat="44.16306" lon="4.68257">
        <ele>178.7</ele>
        <time>2013-11-23T11:37:38.419Z</time>
      </trkpt>
      <trkpt lat="44.16311" lon="4.68257">
        <ele>178.8</ele>
        <time>2013-11-23T11:37:40.420Z</time>
      </trkpt>
      <trkpt lat="44.16319" lon="4.68258">
        <ele>178.7</ele>
        <time>2013-11-23T11:37:43.424Z</time>
      </trkpt>
      <trkpt lat="44.16328" lon="4.68261">
        <ele>179.1</ele>
        <time>2013-11-23T11:37:45.422Z</time>
      </trkpt>
      <trkpt lat="44.16332" lon="4.6826">
        <ele>178.9</ele>
        <time>2013-11-23T11:37:46.425Z</time>
      </trkpt>
      <trkpt lat="44.1634" lon="4.68257">
        <ele>178.2</ele>
        <time>2013-11-23T11:37:48.422Z</time>
      </trkpt>
      <trkpt lat="44.16349" lon="4.68255">
        <ele>177.6</ele>
        <time>2013-11-23T11:37:50.422Z</time>
      </trkpt>
      <trkpt lat="44.16363" lon="4.68257">
        <ele>176.3</ele>
        <time>2013-11-23T11:37:52.419Z</time>
      </trkpt>
      <trkpt lat="44.1637" lon="4.68259">
        <ele>176.5</ele>
        <time>2013-11-23T11:37:53.422Z</time>
      </trkpt>
      <trkpt lat="44.16376" lon="4.68261">
        <ele>176.6</ele>
        <time>2013-11-23T11:37:54.422Z</time>
      </trkpt>
      <trkpt lat="44.16383" lon="4.68263">
        <ele>176.5</ele>
        <time>2013-11-23T11:37:55.422Z</time>
      </trkpt>
      <trkpt lat="44.16389" lon="4.68266">
        <ele>176.8</ele>
        <time>2013-11-23T11:37:56.420Z</time>
      </trkpt>
      <trkpt lat="44.16398" lon="4.68271">
        <ele>175.3</ele>
        <time>2013-11-23T11:37:58.421Z</time>
      </trkpt>
      <trkpt lat="44.16407" lon="4.68273">
        <ele>174.1</ele>
        <time>2013-11-23T11:38:00.471Z</time>
      </trkpt>
      <trkpt lat="44.16417" lon="4.68275">
        <ele>174.5</ele>
        <time>2013-11-23T11:38:02.430Z</time>
      </trkpt>
      <trkpt lat="44.16422" lon="4.68278">
        <ele>174.5</ele>
        <time>2013-11-23T11:38:03.473Z</time>
      </trkpt>
      <trkpt lat="44.16434" lon="4.68288">
        <ele>171.4</ele>
        <time>2013-11-23T11:38:05.409Z</time>
      </trkpt>
      <trkpt lat="44.1644" lon="4.68294">
        <ele>170.8</ele>
        <time>2013-11-23T11:38:06.414Z</time>
      </trkpt>
      <trkpt lat="44.16444" lon="4.683">
        <ele>170.7</ele>
        <time>2013-11-23T11:38:07.420Z</time>
      </trkpt>
      <trkpt lat="44.16445" lon="4.68307">
        <ele>170</ele>
        <time>2013-11-23T11:38:08.436Z</time>
      </trkpt>
      <trkpt lat="44.16449" lon="4.68321">
        <ele>169.3</ele>
        <time>2013-11-23T11:38:10.417Z</time>
      </trkpt>
      <trkpt lat="44.16451" lon="4.68325">
        <ele>169.4</ele>
        <time>2013-11-23T11:38:11.435Z</time>
      </trkpt>
      <trkpt lat="44.16461" lon="4.68336">
        <ele>168.6</ele>
        <time>2013-11-23T11:38:13.423Z</time>
      </trkpt>
      <trkpt lat="44.16467" lon="4.68339">
        <ele>167.3</ele>
        <time>2013-11-23T11:38:14.424Z</time>
      </trkpt>
      <trkpt lat="44.16473" lon="4.6834">
        <ele>166.9</ele>
        <time>2013-11-23T11:38:15.437Z</time>
      </trkpt>
      <trkpt lat="44.16481" lon="4.68342">
        <ele>166.5</ele>
        <time>2013-11-23T11:38:17.405Z</time>
      </trkpt>
      <trkpt lat="44.16485" lon="4.68344">
        <ele>166.9</ele>
        <time>2013-11-23T11:38:18.409Z</time>
      </trkpt>
      <trkpt lat="44.16491" lon="4.68351">
        <ele>166.9</ele>
        <time>2013-11-23T11:38:20.424Z</time>
      </trkpt>
      <trkpt lat="44.16495" lon="4.68351">
        <ele>172.6</ele>
        <time>2013-11-23T11:38:22.435Z</time>
      </trkpt>
      <trkpt lat="44.16498" lon="4.68353">
        <ele>173.3</ele>
        <time>2013-11-23T11:38:23.458Z</time>
      </trkpt>
      <trkpt lat="44.16502" lon="4.6836">
        <ele>174.3</ele>
        <time>2013-11-23T11:38:25.436Z</time>
      </trkpt>
      <trkpt lat="44.16502" lon="4.68379">
        <ele>170.2</ele>
        <time>2013-11-23T11:38:27.421Z</time>
      </trkpt>
      <trkpt lat="44.16504" lon="4.68396">
        <ele>170.2</ele>
        <time>2013-11-23T11:38:29.417Z</time>
      </trkpt>
      <trkpt lat="44.16506" lon="4.68407">
        <ele>169.5</ele>
        <time>2013-11-23T11:38:30.423Z</time>
      </trkpt>
      <trkpt lat="44.16508" lon="4.68416">
        <ele>170</ele>
        <time>2013-11-23T11:38:31.425Z</time>
      </trkpt>
      <trkpt lat="44.1651" lon="4.68435">
        <ele>166.6</ele>
        <time>2013-11-23T11:38:33.413Z</time>
      </trkpt>
      <trkpt lat="44.1651" lon="4.68442">
        <ele>167</ele>
        <time>2013-11-23T11:38:34.433Z</time>
      </trkpt>
      <trkpt lat="44.16509" lon="4.68449">
        <ele>167.1</ele>
        <time>2013-11-23T11:38:36.421Z</time>
      </trkpt>
      <trkpt lat="44.16507" lon="4.68457">
        <ele>164.9</ele>
        <time>2013-11-23T11:38:40.547Z</time>
      </trkpt>
      <trkpt lat="44.16505" lon="4.68465">
        <ele>164.9</ele>
        <time>2013-11-23T11:38:43.471Z</time>
      </trkpt>
      <trkpt lat="44.16503" lon="4.68474">
        <ele>165</ele>
        <time>2013-11-23T11:38:46.421Z</time>
      </trkpt>
      <trkpt lat="44.16502" lon="4.68477">
        <ele>165</ele>
        <time>2013-11-23T11:38:47.424Z</time>
      </trkpt>
      <trkpt lat="44.16499" lon="4.68488">
        <ele>165.9</ele>
        <time>2013-11-23T11:38:51.556Z</time>
      </trkpt>
      <trkpt lat="44.16497" lon="4.68495">
        <ele>166.4</ele>
        <time>2013-11-23T11:38:53.729Z</time>
      </trkpt>
      <trkpt lat="44.16494" lon="4.68504">
        <ele>167.1</ele>
        <time>2013-11-23T11:38:56.528Z</time>
      </trkpt>
      <trkpt lat="44.16492" lon="4.68508">
        <ele>167</ele>
        <time>2013-11-23T11:38:57.544Z</time>
      </trkpt>
      <trkpt lat="44.1649" lon="4.68518">
        <ele>165.8</ele>
        <time>2013-11-23T11:39:02.130Z</time>
      </trkpt>
      <trkpt lat="44.16487" lon="4.68524">
        <ele>165.5</ele>
        <time>2013-11-23T11:39:04.554Z</time>
      </trkpt>
      <trkpt lat="44.16485" lon="4.68536">
        <ele>165.8</ele>
        <time>2013-11-23T11:39:10.645Z</time>
      </trkpt>
      <trkpt lat="44.16485" lon="4.68538">
        <ele>165.9</ele>
        <time>2013-11-23T11:39:11.551Z</time>
      </trkpt>
      <trkpt lat="44.16481" lon="4.68546">
        <ele>168.1</ele>
        <time>2013-11-23T11:39:15.663Z</time>
      </trkpt>
      <trkpt lat="44.16481" lon="4.68557">
        <ele>168.9</ele>
        <time>2013-11-23T11:39:18.591Z</time>
      </trkpt>
      <trkpt lat="44.16478" lon="4.68566">
        <ele>169</ele>
        <time>2013-11-23T11:39:22.562Z</time>
      </trkpt>
      <trkpt lat="44.16478" lon="4.68569">
        <ele>169.1</ele>
        <time>2013-11-23T11:39:23.565Z</time>
      </trkpt>
      <trkpt lat="44.16474" lon="4.68578">
        <ele>169.4</ele>
        <time>2013-11-23T11:39:27.551Z</time>
      </trkpt>
      <trkpt lat="44.16472" lon="4.68584">
        <ele>168.4</ele>
        <time>2013-11-23T11:39:29.556Z</time>
      </trkpt>
      <trkpt lat="44.16468" lon="4.68591">
        <ele>167.4</ele>
        <time>2013-11-23T11:39:32.563Z</time>
      </trkpt>
      <trkpt lat="44.16465" lon="4.68596">
        <ele>166.1</ele>
        <time>2013-11-23T11:39:34.546Z</time>
      </trkpt>
      <trkpt lat="44.16458" lon="4.68598">
        <ele>165.2</ele>
        <time>2013-11-23T11:39:36.555Z</time>
      </trkpt>
      <trkpt lat="44.16455" lon="4.68596">
        <ele>165.6</ele>
        <time>2013-11-23T11:39:37.565Z</time>
      </trkpt>
      <trkpt lat="44.16448" lon="4.68593">
        <ele>166.3</ele>
        <time>2013-11-23T11:39:39.611Z</time>
      </trkpt>
      <trkpt lat="44.16443" lon="4.68592">
        <ele>166</ele>
        <time>2013-11-23T11:39:41.568Z</time>
      </trkpt>
      <trkpt lat="44.16441" lon="4.68592">
        <ele>165.5</ele>
        <time>2013-11-23T11:39:42.548Z</time>
      </trkpt>
      <trkpt lat="44.16433" lon="4.6859">
        <ele>162.7</ele>
        <time>2013-11-23T11:39:44.547Z</time>
      </trkpt>
      <trkpt lat="44.16428" lon="4.68589">
        <ele>162</ele>
        <time>2013-11-23T11:39:45.548Z</time>
      </trkpt>
      <trkpt lat="44.16423" lon="4.68589">
        <ele>161.1</ele>
        <time>2013-11-23T11:39:46.548Z</time>
      </trkpt>
      <trkpt lat="44.16418" lon="4.68589">
        <ele>160</ele>
        <time>2013-11-23T11:39:47.562Z</time>
      </trkpt>
      <trkpt lat="44.16409" lon="4.68584">
        <ele>159.1</ele>
        <time>2013-11-23T11:39:49.569Z</time>
      </trkpt>
      <trkpt lat="44.16399" lon="4.6858">
        <ele>158.8</ele>
        <time>2013-11-23T11:39:51.547Z</time>
      </trkpt>
      <trkpt lat="44.16389" lon="4.68583">
        <ele>158.3</ele>
        <time>2013-11-23T11:39:53.549Z</time>
      </trkpt>
      <trkpt lat="44.16387" lon="4.68591">
        <ele>159.6</ele>
        <time>2013-11-23T11:39:56.558Z</time>
      </trkpt>
      <trkpt lat="44.16391" lon="4.68596">
        <ele>159</ele>
        <time>2013-11-23T11:39:58.552Z</time>
      </trkpt>
      <trkpt lat="44.16396" lon="4.68599">
        <ele>158.1</ele>
        <time>2013-11-23T11:39:59.553Z</time>
      </trkpt>
      <trkpt lat="44.16404" lon="4.68605">
        <ele>156.8</ele>
        <time>2013-11-23T11:40:01.550Z</time>
      </trkpt>
      <trkpt lat="44.16413" lon="4.6861">
        <ele>155.8</ele>
        <time>2013-11-23T11:40:03.535Z</time>
      </trkpt>
      <trkpt lat="44.16418" lon="4.68613">
        <ele>155.6</ele>
        <time>2013-11-23T11:40:04.540Z</time>
      </trkpt>
      <trkpt lat="44.16423" lon="4.68615">
        <ele>155.1</ele>
        <time>2013-11-23T11:40:05.546Z</time>
      </trkpt>
      <trkpt lat="44.16432" lon="4.6862">
        <ele>153.7</ele>
        <time>2013-11-23T11:40:07.548Z</time>
      </trkpt>
      <trkpt lat="44.16436" lon="4.68623">
        <ele>155.7</ele>
        <time>2013-11-23T11:40:08.551Z</time>
      </trkpt>
      <trkpt lat="44.16445" lon="4.68633">
        <ele>154.5</ele>
        <time>2013-11-23T11:40:10.546Z</time>
      </trkpt>
      <trkpt lat="44.1645" lon="4.68638">
        <ele>154.1</ele>
        <time>2013-11-23T11:40:11.551Z</time>
      </trkpt>
      <trkpt lat="44.16455" lon="4.68642">
        <ele>153.6</ele>
        <time>2013-11-23T11:40:12.551Z</time>
      </trkpt>
      <trkpt lat="44.16461" lon="4.68646">
        <ele>153.6</ele>
        <time>2013-11-23T11:40:13.551Z</time>
      </trkpt>
      <trkpt lat="44.16467" lon="4.68648">
        <ele>153.7</ele>
        <time>2013-11-23T11:40:14.552Z</time>
      </trkpt>
      <trkpt lat="44.16479" lon="4.68654">
        <ele>152.5</ele>
        <time>2013-11-23T11:40:16.551Z</time>
      </trkpt>
      <trkpt lat="44.16485" lon="4.68656">
        <ele>151.7</ele>
        <time>2013-11-23T11:40:17.550Z</time>
      </trkpt>
      <trkpt lat="44.16491" lon="4.6866">
        <ele>151.5</ele>
        <time>2013-11-23T11:40:18.678Z</time>
      </trkpt>
      <trkpt lat="44.16501" lon="4.68666">
        <ele>152</ele>
        <time>2013-11-23T11:40:20.531Z</time>
      </trkpt>
      <trkpt lat="44.16505" lon="4.68671">
        <ele>151</ele>
        <time>2013-11-23T11:40:21.547Z</time>
      </trkpt>
      <trkpt lat="44.1651" lon="4.68675">
        <ele>151.1</ele>
        <time>2013-11-23T11:40:22.552Z</time>
      </trkpt>
      <trkpt lat="44.16519" lon="4.68683">
        <ele>150.4</ele>
        <time>2013-11-23T11:40:24.549Z</time>
      </trkpt>
      <trkpt lat="44.16524" lon="4.68689">
        <ele>150.2</ele>
        <time>2013-11-23T11:40:25.550Z</time>
      </trkpt>
      <trkpt lat="44.16529" lon="4.68691">
        <ele>150.8</ele>
        <time>2013-11-23T11:40:26.600Z</time>
      </trkpt>
      <trkpt lat="44.16539" lon="4.68694">
        <ele>149.9</ele>
        <time>2013-11-23T11:40:28.548Z</time>
      </trkpt>
      <trkpt lat="44.16549" lon="4.68698">
        <ele>149.7</ele>
        <time>2013-11-23T11:40:30.550Z</time>
      </trkpt>
      <trkpt lat="44.16554" lon="4.68699">
        <ele>149.7</ele>
        <time>2013-11-23T11:40:31.560Z</time>
      </trkpt>
      <trkpt lat="44.1656" lon="4.68703">
        <ele>148.8</ele>
        <time>2013-11-23T11:40:33.555Z</time>
      </trkpt>
      <trkpt lat="44.16562" lon="4.68707">
        <ele>148.1</ele>
        <time>2013-11-23T11:40:34.556Z</time>
      </trkpt>
      <trkpt lat="44.16562" lon="4.68718">
        <ele>147.8</ele>
        <time>2013-11-23T11:40:36.557Z</time>
      </trkpt>
      <trkpt lat="44.1656" lon="4.6873">
        <ele>146.8</ele>
        <time>2013-11-23T11:40:38.556Z</time>
      </trkpt>
      <trkpt lat="44.16559" lon="4.68742">
        <ele>146.3</ele>
        <time>2013-11-23T11:40:40.550Z</time>
      </trkpt>
      <trkpt lat="44.16559" lon="4.68754">
        <ele>146.5</ele>
        <time>2013-11-23T11:40:42.570Z</time>
      </trkpt>
      <trkpt lat="44.16558" lon="4.68759">
        <ele>146.4</ele>
        <time>2013-11-23T11:40:43.571Z</time>
      </trkpt>
      <trkpt lat="44.1656" lon="4.6877">
        <ele>146.5</ele>
        <time>2013-11-23T11:40:45.564Z</time>
      </trkpt>
      <trkpt lat="44.16563" lon="4.68775">
        <ele>146.2</ele>
        <time>2013-11-23T11:40:46.571Z</time>
      </trkpt>
      <trkpt lat="44.16569" lon="4.68783">
        <ele>145.9</ele>
        <time>2013-11-23T11:40:48.524Z</time>
      </trkpt>
      <trkpt lat="44.16573" lon="4.68786">
        <ele>145.5</ele>
        <time>2013-11-23T11:40:49.545Z</time>
      </trkpt>
      <trkpt lat="44.16576" lon="4.68788">
        <ele>145.4</ele>
        <time>2013-11-23T11:40:50.565Z</time>
      </trkpt>
      <trkpt lat="44.16582" lon="4.68795">
        <ele>145.4</ele>
        <time>2013-11-23T11:40:52.565Z</time>
      </trkpt>
      <trkpt lat="44.16586" lon="4.68804">
        <ele>145</ele>
        <time>2013-11-23T11:40:54.613Z</time>
      </trkpt>
      <trkpt lat="44.16587" lon="4.68816">
        <ele>145</ele>
        <time>2013-11-23T11:40:56.567Z</time>
      </trkpt>
      <trkpt lat="44.16586" lon="4.68822">
        <ele>144.8</ele>
        <time>2013-11-23T11:40:57.569Z</time>
      </trkpt>
      <trkpt lat="44.16585" lon="4.68828">
        <ele>144.8</ele>
        <time>2013-11-23T11:40:58.523Z</time>
      </trkpt>
      <trkpt lat="44.16583" lon="4.68833">
        <ele>144.6</ele>
        <time>2013-11-23T11:40:59.548Z</time>
      </trkpt>
      <trkpt lat="44.16579" lon="4.68842">
        <ele>144.4</ele>
        <time>2013-11-23T11:41:01.548Z</time>
      </trkpt>
      <trkpt lat="44.16575" lon="4.68851">
        <ele>144.6</ele>
        <time>2013-11-23T11:41:03.558Z</time>
      </trkpt>
      <trkpt lat="44.16571" lon="4.68854">
        <ele>144.5</ele>
        <time>2013-11-23T11:41:04.564Z</time>
      </trkpt>
      <trkpt lat="44.16568" lon="4.68857">
        <ele>144.4</ele>
        <time>2013-11-23T11:41:05.567Z</time>
      </trkpt>
      <trkpt lat="44.16561" lon="4.68862">
        <ele>144</ele>
        <time>2013-11-23T11:41:07.540Z</time>
      </trkpt>
      <trkpt lat="44.16555" lon="4.6887">
        <ele>144.3</ele>
        <time>2013-11-23T11:41:09.551Z</time>
      </trkpt>
      <trkpt lat="44.16553" lon="4.68874">
        <ele>144.5</ele>
        <time>2013-11-23T11:41:10.553Z</time>
      </trkpt>
      <trkpt lat="44.1655" lon="4.68883">
        <ele>144.8</ele>
        <time>2013-11-23T11:41:12.543Z</time>
      </trkpt>
      <trkpt lat="44.16549" lon="4.68894">
        <ele>145.9</ele>
        <time>2013-11-23T11:41:14.549Z</time>
      </trkpt>
      <trkpt lat="44.16548" lon="4.689">
        <ele>145.8</ele>
        <time>2013-11-23T11:41:15.555Z</time>
      </trkpt>
      <trkpt lat="44.16545" lon="4.68909">
        <ele>146</ele>
        <time>2013-11-23T11:41:17.550Z</time>
      </trkpt>
      <trkpt lat="44.16543" lon="4.68919">
        <ele>146.1</ele>
        <time>2013-11-23T11:41:19.554Z</time>
      </trkpt>
      <trkpt lat="44.16539" lon="4.68928">
        <ele>146.2</ele>
        <time>2013-11-23T11:41:21.551Z</time>
      </trkpt>
      <trkpt lat="44.16537" lon="4.68931">
        <ele>146.1</ele>
        <time>2013-11-23T11:41:22.552Z</time>
      </trkpt>
      <trkpt lat="44.1653" lon="4.68936">
        <ele>146.1</ele>
        <time>2013-11-23T11:41:24.550Z</time>
      </trkpt>
      <trkpt lat="44.16523" lon="4.68937">
        <ele>146.3</ele>
        <time>2013-11-23T11:41:26.550Z</time>
      </trkpt>
      <trkpt lat="44.16516" lon="4.68937">
        <ele>146.1</ele>
        <time>2013-11-23T11:41:28.547Z</time>
      </trkpt>
      <trkpt lat="44.16512" lon="4.68937">
        <ele>146.2</ele>
        <time>2013-11-23T11:41:29.550Z</time>
      </trkpt>
      <trkpt lat="44.16505" lon="4.68935">
        <ele>145.9</ele>
        <time>2013-11-23T11:41:31.551Z</time>
      </trkpt>
      <trkpt lat="44.16497" lon="4.68933">
        <ele>145.4</ele>
        <time>2013-11-23T11:41:33.548Z</time>
      </trkpt>
      <trkpt lat="44.16494" lon="4.68931">
        <ele>145.2</ele>
        <time>2013-11-23T11:41:34.551Z</time>
      </trkpt>
      <trkpt lat="44.16487" lon="4.68927">
        <ele>145.3</ele>
        <time>2013-11-23T11:41:36.550Z</time>
      </trkpt>
      <trkpt lat="44.1648" lon="4.68924">
        <ele>145.6</ele>
        <time>2013-11-23T11:41:38.548Z</time>
      </trkpt>
      <trkpt lat="44.16477" lon="4.68922">
        <ele>145.7</ele>
        <time>2013-11-23T11:41:39.550Z</time>
      </trkpt>
      <trkpt lat="44.16471" lon="4.68919">
        <ele>146.2</ele>
        <time>2013-11-23T11:41:41.550Z</time>
      </trkpt>
      <trkpt lat="44.16468" lon="4.68918">
        <ele>146.9</ele>
        <time>2013-11-23T11:41:42.553Z</time>
      </trkpt>
      <trkpt lat="44.16462" lon="4.68915">
        <ele>146.8</ele>
        <time>2013-11-23T11:41:44.550Z</time>
      </trkpt>
      <trkpt lat="44.16459" lon="4.68913">
        <ele>146.9</ele>
        <time>2013-11-23T11:41:45.553Z</time>
      </trkpt>
      <trkpt lat="44.16452" lon="4.68911">
        <ele>147.2</ele>
        <time>2013-11-23T11:41:47.548Z</time>
      </trkpt>
      <trkpt lat="44.16446" lon="4.68909">
        <ele>147.9</ele>
        <time>2013-11-23T11:41:49.551Z</time>
      </trkpt>
      <trkpt lat="44.16442" lon="4.68909">
        <ele>147.9</ele>
        <time>2013-11-23T11:41:50.551Z</time>
      </trkpt>
      <trkpt lat="44.16436" lon="4.6891">
        <ele>147.2</ele>
        <time>2013-11-23T11:41:52.539Z</time>
      </trkpt>
      <trkpt lat="44.16432" lon="4.6891">
        <ele>146.5</ele>
        <time>2013-11-23T11:41:53.548Z</time>
      </trkpt>
      <trkpt lat="44.16425" lon="4.68909">
        <ele>145.6</ele>
        <time>2013-11-23T11:41:55.549Z</time>
      </trkpt>
      <trkpt lat="44.16422" lon="4.68909">
        <ele>146.6</ele>
        <time>2013-11-23T11:41:56.552Z</time>
      </trkpt>
      <trkpt lat="44.16414" lon="4.68907">
        <ele>146.7</ele>
        <time>2013-11-23T11:41:59.552Z</time>
      </trkpt>
      <trkpt lat="44.16408" lon="4.68906">
        <ele>146.8</ele>
        <time>2013-11-23T11:42:01.535Z</time>
      </trkpt>
      <trkpt lat="44.16405" lon="4.68905">
        <ele>146.7</ele>
        <time>2013-11-23T11:42:02.602Z</time>
      </trkpt>
      <trkpt lat="44.16398" lon="4.68903">
        <ele>146.8</ele>
        <time>2013-11-23T11:42:04.569Z</time>
      </trkpt>
      <trkpt lat="44.16389" lon="4.68902">
        <ele>146.4</ele>
        <time>2013-11-23T11:42:07.564Z</time>
      </trkpt>
      <trkpt lat="44.16387" lon="4.68901">
        <ele>146.7</ele>
        <time>2013-11-23T11:42:08.562Z</time>
      </trkpt>
      <trkpt lat="44.16379" lon="4.68899">
        <ele>146.7</ele>
        <time>2013-11-23T11:42:11.541Z</time>
      </trkpt>
      <trkpt lat="44.16375" lon="4.68896">
        <ele>146.8</ele>
        <time>2013-11-23T11:42:13.546Z</time>
      </trkpt>
      <trkpt lat="44.16367" lon="4.68891">
        <ele>146.9</ele>
        <time>2013-11-23T11:42:16.564Z</time>
      </trkpt>
      <trkpt lat="44.16365" lon="4.68889">
        <ele>147.1</ele>
        <time>2013-11-23T11:42:17.565Z</time>
      </trkpt>
      <trkpt lat="44.16358" lon="4.68884">
        <ele>147.8</ele>
        <time>2013-11-23T11:42:20.548Z</time>
      </trkpt>
      <trkpt lat="44.16356" lon="4.68882">
        <ele>148</ele>
        <time>2013-11-23T11:42:21.548Z</time>
      </trkpt>
      <trkpt lat="44.16349" lon="4.68876">
        <ele>148.4</ele>
        <time>2013-11-23T11:42:24.566Z</time>
      </trkpt>
      <trkpt lat="44.16345" lon="4.68871">
        <ele>148.6</ele>
        <time>2013-11-23T11:42:26.571Z</time>
      </trkpt>
      <trkpt lat="44.16339" lon="4.68864">
        <ele>149.2</ele>
        <time>2013-11-23T11:42:29.551Z</time>
      </trkpt>
      <trkpt lat="44.16336" lon="4.6886">
        <ele>149.5</ele>
        <time>2013-11-23T11:42:31.553Z</time>
      </trkpt>
      <trkpt lat="44.16331" lon="4.6885">
        <ele>149.6</ele>
        <time>2013-11-23T11:42:35.671Z</time>
      </trkpt>
      <trkpt lat="44.16327" lon="4.68842">
        <ele>149.6</ele>
        <time>2013-11-23T11:42:38.548Z</time>
      </trkpt>
      <trkpt lat="44.16325" lon="4.68836">
        <ele>149.7</ele>
        <time>2013-11-23T11:42:40.553Z</time>
      </trkpt>
      <trkpt lat="44.16322" lon="4.6883">
        <ele>149.7</ele>
        <time>2013-11-23T11:42:42.551Z</time>
      </trkpt>
      <trkpt lat="44.16319" lon="4.68821">
        <ele>150.3</ele>
        <time>2013-11-23T11:42:45.549Z</time>
      </trkpt>
      <trkpt lat="44.16318" lon="4.68819">
        <ele>150.4</ele>
        <time>2013-11-23T11:42:46.552Z</time>
      </trkpt>
      <trkpt lat="44.16316" lon="4.68813">
        <ele>150.3</ele>
        <time>2013-11-23T11:42:48.550Z</time>
      </trkpt>
      <trkpt lat="44.16314" lon="4.68807">
        <ele>150.3</ele>
        <time>2013-11-23T11:42:50.551Z</time>
      </trkpt>
      <trkpt lat="44.16311" lon="4.68799">
        <ele>150.9</ele>
        <time>2013-11-23T11:42:53.551Z</time>
      </trkpt>
      <trkpt lat="44.1631" lon="4.68793">
        <ele>151</ele>
        <time>2013-11-23T11:42:55.551Z</time>
      </trkpt>
      <trkpt lat="44.16305" lon="4.68782">
        <ele>151.2</ele>
        <time>2013-11-23T11:42:59.668Z</time>
      </trkpt>
      <trkpt lat="44.16302" lon="4.68775">
        <ele>151.6</ele>
        <time>2013-11-23T11:43:02.550Z</time>
      </trkpt>
      <trkpt lat="44.16299" lon="4.68766">
        <ele>151.8</ele>
        <time>2013-11-23T11:43:05.551Z</time>
      </trkpt>
      <trkpt lat="44.16298" lon="4.68763">
        <ele>152.1</ele>
        <time>2013-11-23T11:43:06.552Z</time>
      </trkpt>
      <trkpt lat="44.16294" lon="4.68752">
        <ele>152.8</ele>
        <time>2013-11-23T11:43:10.556Z</time>
      </trkpt>
      <trkpt lat="44.16294" lon="4.68752">
        <ele>152.8</ele>
        <time>2013-11-23T11:43:10.675Z</time>
      </trkpt>
      <trkpt lat="44.16291" lon="4.68744">
        <ele>153.2</ele>
        <time>2013-11-23T11:43:13.547Z</time>
      </trkpt>
      <trkpt lat="44.1629" lon="4.68741">
        <ele>153.4</ele>
        <time>2013-11-23T11:43:14.590Z</time>
      </trkpt>
      <trkpt lat="44.16286" lon="4.68731">
        <ele>154</ele>
        <time>2013-11-23T11:43:18.551Z</time>
      </trkpt>
      <trkpt lat="44.16285" lon="4.6873">
        <ele>154</ele>
        <time>2013-11-23T11:43:19.555Z</time>
      </trkpt>
      <trkpt lat="44.1628" lon="4.68722">
        <ele>155.1</ele>
        <time>2013-11-23T11:43:24.686Z</time>
      </trkpt>
      <trkpt lat="44.16275" lon="4.68719">
        <ele>155.2</ele>
        <time>2013-11-23T11:43:27.571Z</time>
      </trkpt>
      <trkpt lat="44.16268" lon="4.68719">
        <ele>154.7</ele>
        <time>2013-11-23T11:43:32.435Z</time>
      </trkpt>
      <trkpt lat="44.1626" lon="4.68719">
        <ele>154.1</ele>
        <time>2013-11-23T11:43:35.326Z</time>
      </trkpt>
      <trkpt lat="44.16254" lon="4.6872">
        <ele>154.5</ele>
        <time>2013-11-23T11:43:38.326Z</time>
      </trkpt>
      <trkpt lat="44.1625" lon="4.6872">
        <ele>153.8</ele>
        <time>2013-11-23T11:43:40.310Z</time>
      </trkpt>
      <trkpt lat="44.16242" lon="4.68724">
        <ele>154.1</ele>
        <time>2013-11-23T11:43:43.311Z</time>
      </trkpt>
      <trkpt lat="44.1624" lon="4.68726">
        <ele>154</ele>
        <time>2013-11-23T11:43:44.322Z</time>
      </trkpt>
      <trkpt lat="44.16233" lon="4.68733">
        <ele>154.4</ele>
        <time>2013-11-23T11:43:47.360Z</time>
      </trkpt>
      <trkpt lat="44.16228" lon="4.68737">
        <ele>154.5</ele>
        <time>2013-11-23T11:43:49.310Z</time>
      </trkpt>
      <trkpt lat="44.1622" lon="4.68741">
        <ele>154.3</ele>
        <time>2013-11-23T11:43:52.308Z</time>
      </trkpt>
      <trkpt lat="44.16217" lon="4.68742">
        <ele>154.4</ele>
        <time>2013-11-23T11:43:53.323Z</time>
      </trkpt>
      <trkpt lat="44.16214" lon="4.68743">
        <ele>154.4</ele>
        <time>2013-11-23T11:43:54.332Z</time>
      </trkpt>
      <trkpt lat="44.16208" lon="4.68745">
        <ele>154.7</ele>
        <time>2013-11-23T11:43:56.328Z</time>
      </trkpt>
      <trkpt lat="44.16204" lon="4.68745">
        <ele>154.8</ele>
        <time>2013-11-23T11:43:57.310Z</time>
      </trkpt>
      <trkpt lat="44.16198" lon="4.68747">
        <ele>155.3</ele>
        <time>2013-11-23T11:43:59.311Z</time>
      </trkpt>
      <trkpt lat="44.16192" lon="4.68748">
        <ele>156.6</ele>
        <time>2013-11-23T11:44:04.421Z</time>
      </trkpt>
      <trkpt lat="44.16193" lon="4.68747">
        <ele>156.6</ele>
        <time>2013-11-23T11:44:07.309Z</time>
      </trkpt>
      <trkpt lat="44.16193" lon="4.68748">
        <ele>156.7</ele>
        <time>2013-11-23T11:44:09.311Z</time>
      </trkpt>
      <trkpt lat="44.16191" lon="4.68749">
        <ele>157.1</ele>
        <time>2013-11-23T11:44:11.305Z</time>
      </trkpt>
      <trkpt lat="44.16185" lon="4.68756">
        <ele>158.2</ele>
        <time>2013-11-23T11:44:18.418Z</time>
      </trkpt>
      <trkpt lat="44.16182" lon="4.68763">
        <ele>158.5</ele>
        <time>2013-11-23T11:44:22.311Z</time>
      </trkpt>
      <trkpt lat="44.16182" lon="4.68761">
        <ele>159.7</ele>
        <time>2013-11-23T11:44:24.312Z</time>
      </trkpt>
      <trkpt lat="44.16182" lon="4.68761">
        <ele>159.4</ele>
        <time>2013-11-23T11:44:25.313Z</time>
      </trkpt>
      <trkpt lat="44.16183" lon="4.68762">
        <ele>160.1</ele>
        <time>2013-11-23T11:44:26.313Z</time>
      </trkpt>
      <trkpt lat="44.16184" lon="4.68771">
        <ele>160.8</ele>
        <time>2013-11-23T11:44:30.310Z</time>
      </trkpt>
      <trkpt lat="44.16184" lon="4.68776">
        <ele>161.5</ele>
        <time>2013-11-23T11:44:32.309Z</time>
      </trkpt>
      <trkpt lat="44.16183" lon="4.68786">
        <ele>161.8</ele>
        <time>2013-11-23T11:44:35.307Z</time>
      </trkpt>
      <trkpt lat="44.16183" lon="4.68789">
        <ele>161.9</ele>
        <time>2013-11-23T11:44:36.309Z</time>
      </trkpt>
      <trkpt lat="44.16182" lon="4.68798">
        <ele>162.2</ele>
        <time>2013-11-23T11:44:39.310Z</time>
      </trkpt>
      <trkpt lat="44.16182" lon="4.68804">
        <ele>162</ele>
        <time>2013-11-23T11:44:41.308Z</time>
      </trkpt>
      <trkpt lat="44.16181" lon="4.6881">
        <ele>162.3</ele>
        <time>2013-11-23T11:44:43.311Z</time>
      </trkpt>
      <trkpt lat="44.16181" lon="4.68817">
        <ele>162.4</ele>
        <time>2013-11-23T11:44:45.313Z</time>
      </trkpt>
      <trkpt lat="44.1618" lon="4.68826">
        <ele>162.5</ele>
        <time>2013-11-23T11:44:48.305Z</time>
      </trkpt>
      <trkpt lat="44.1618" lon="4.6883">
        <ele>162.6</ele>
        <time>2013-11-23T11:44:49.309Z</time>
      </trkpt>
      <trkpt lat="44.16176" lon="4.68841">
        <ele>163</ele>
        <time>2013-11-23T11:44:53.448Z</time>
      </trkpt>
      <trkpt lat="44.16173" lon="4.68848">
        <ele>163.3</ele>
        <time>2013-11-23T11:44:56.308Z</time>
      </trkpt>
      <trkpt lat="44.16169" lon="4.68856">
        <ele>163.7</ele>
        <time>2013-11-23T11:44:59.308Z</time>
      </trkpt>
      <trkpt lat="44.16167" lon="4.68859">
        <ele>163.8</ele>
        <time>2013-11-23T11:45:00.324Z</time>
      </trkpt>
      <trkpt lat="44.16162" lon="4.68868">
        <ele>163.8</ele>
        <time>2013-11-23T11:45:04.346Z</time>
      </trkpt>
      <trkpt lat="44.16162" lon="4.68869">
        <ele>163.8</ele>
        <time>2013-11-23T11:45:04.439Z</time>
      </trkpt>
      <trkpt lat="44.16158" lon="4.68877">
        <ele>163.1</ele>
        <time>2013-11-23T11:45:07.311Z</time>
      </trkpt>
      <trkpt lat="44.16157" lon="4.6888">
        <ele>162.3</ele>
        <time>2013-11-23T11:45:08.298Z</time>
      </trkpt>
      <trkpt lat="44.16154" lon="4.6889">
        <ele>161.8</ele>
        <time>2013-11-23T11:45:12.498Z</time>
      </trkpt>
      <trkpt lat="44.16152" lon="4.68896">
        <ele>162</ele>
        <time>2013-11-23T11:45:15.306Z</time>
      </trkpt>
      <trkpt lat="44.16144" lon="4.68902">
        <ele>163.8</ele>
        <time>2013-11-23T11:45:19.347Z</time>
      </trkpt>
      <trkpt lat="44.16143" lon="4.68902">
        <ele>164.6</ele>
        <time>2013-11-23T11:45:19.827Z</time>
      </trkpt>
      <trkpt lat="44.16135" lon="4.689">
        <ele>164</ele>
        <time>2013-11-23T11:45:22.857Z</time>
      </trkpt>
      <trkpt lat="44.16133" lon="4.68899">
        <ele>164.7</ele>
        <time>2013-11-23T11:45:23.872Z</time>
      </trkpt>
      <trkpt lat="44.16127" lon="4.68898">
        <ele>167.7</ele>
        <time>2013-11-23T11:45:27.853Z</time>
      </trkpt>
      <trkpt lat="44.16123" lon="4.68897">
        <ele>167.2</ele>
        <time>2013-11-23T11:45:29.851Z</time>
      </trkpt>
      <trkpt lat="44.16117" lon="4.68895">
        <ele>168.9</ele>
        <time>2013-11-23T11:45:32.846Z</time>
      </trkpt>
      <trkpt lat="44.16114" lon="4.68894">
        <ele>168.7</ele>
        <time>2013-11-23T11:45:33.849Z</time>
      </trkpt>
      <trkpt lat="44.16106" lon="4.68891">
        <ele>169.5</ele>
        <time>2013-11-23T11:45:37.851Z</time>
      </trkpt>
      <trkpt lat="44.16105" lon="4.68891">
        <ele>169.5</ele>
        <time>2013-11-23T11:45:38.112Z</time>
      </trkpt>
      <trkpt lat="44.16099" lon="4.68887">
        <ele>170.5</ele>
        <time>2013-11-23T11:45:41.850Z</time>
      </trkpt>
      <trkpt lat="44.16096" lon="4.68885">
        <ele>171.1</ele>
        <time>2013-11-23T11:45:43.846Z</time>
      </trkpt>
      <trkpt lat="44.16089" lon="4.68882">
        <ele>172.3</ele>
        <time>2013-11-23T11:45:46.848Z</time>
      </trkpt>
      <trkpt lat="44.16085" lon="4.68881">
        <ele>172.6</ele>
        <time>2013-11-23T11:45:48.848Z</time>
      </trkpt>
      <trkpt lat="44.16077" lon="4.68877">
        <ele>174</ele>
        <time>2013-11-23T11:45:52.847Z</time>
      </trkpt>
      <trkpt lat="44.16074" lon="4.68876">
        <ele>173.8</ele>
        <time>2013-11-23T11:45:54.845Z</time>
      </trkpt>
      <trkpt lat="44.16069" lon="4.68872">
        <ele>174.2</ele>
        <time>2013-11-23T11:45:58.964Z</time>
      </trkpt>
      <trkpt lat="44.16064" lon="4.68868">
        <ele>173.2</ele>
        <time>2013-11-23T11:46:01.844Z</time>
      </trkpt>
      <trkpt lat="44.16058" lon="4.68863">
        <ele>174.2</ele>
        <time>2013-11-23T11:46:06.981Z</time>
      </trkpt>
      <trkpt lat="44.16056" lon="4.68861">
        <ele>174.3</ele>
        <time>2013-11-23T11:46:09.847Z</time>
      </trkpt>
      <trkpt lat="44.16048" lon="4.68856">
        <ele>175.3</ele>
        <time>2013-11-23T11:46:22.975Z</time>
      </trkpt>
      <trkpt lat="44.16042" lon="4.68854">
        <ele>176.6</ele>
        <time>2013-11-23T11:46:29.843Z</time>
      </trkpt>
      <trkpt lat="44.16036" lon="4.68853">
        <ele>177.7</ele>
        <time>2013-11-23T11:46:36.984Z</time>
      </trkpt>
      <trkpt lat="44.16032" lon="4.68853">
        <ele>179.3</ele>
        <time>2013-11-23T11:46:40.843Z</time>
      </trkpt>
      <trkpt lat="44.16024" lon="4.68852">
        <ele>179.6</ele>
        <time>2013-11-23T11:46:50.959Z</time>
      </trkpt>
      <trkpt lat="44.1602" lon="4.6885">
        <ele>183.3</ele>
        <time>2013-11-23T11:46:56.848Z</time>
      </trkpt>
      <trkpt lat="44.16013" lon="4.68846">
        <ele>183.7</ele>
        <time>2013-11-23T11:47:05.845Z</time>
      </trkpt>
      <trkpt lat="44.16007" lon="4.68842">
        <ele>183.5</ele>
        <time>2013-11-23T11:47:09.848Z</time>
      </trkpt>
      <trkpt lat="44.16" lon="4.6884">
        <ele>186</ele>
        <time>2013-11-23T11:47:16.842Z</time>
      </trkpt>
      <trkpt lat="44.15998" lon="4.68838">
        <ele>185</ele>
        <time>2013-11-23T11:47:19.848Z</time>
      </trkpt>
      <trkpt lat="44.15995" lon="4.68837">
        <ele>184.1</ele>
        <time>2013-11-23T11:47:32.970Z</time>
      </trkpt>
      <trkpt lat="44.15991" lon="4.68821">
        <ele>181.9</ele>
        <time>2013-11-23T11:47:39.847Z</time>
      </trkpt>
      <trkpt lat="44.15991" lon="4.6881">
        <ele>180.4</ele>
        <time>2013-11-23T11:47:43.961Z</time>
      </trkpt>
      <trkpt lat="44.15991" lon="4.68799">
        <ele>179.2</ele>
        <time>2013-11-23T11:47:46.862Z</time>
      </trkpt>
      <trkpt lat="44.15991" lon="4.68791">
        <ele>179.3</ele>
        <time>2013-11-23T11:47:48.927Z</time>
      </trkpt>
      <trkpt lat="44.1599" lon="4.68784">
        <ele>178.9</ele>
        <time>2013-11-23T11:47:50.848Z</time>
      </trkpt>
      <trkpt lat="44.15991" lon="4.68774">
        <ele>178.8</ele>
        <time>2013-11-23T11:47:53.857Z</time>
      </trkpt>
      <trkpt lat="44.15991" lon="4.6877">
        <ele>177.4</ele>
        <time>2013-11-23T11:47:54.863Z</time>
      </trkpt>
      <trkpt lat="44.1599" lon="4.68759">
        <ele>177.3</ele>
        <time>2013-11-23T11:47:57.844Z</time>
      </trkpt>
      <trkpt lat="44.15989" lon="4.68756">
        <ele>177.5</ele>
        <time>2013-11-23T11:47:58.847Z</time>
      </trkpt>
      <trkpt lat="44.15987" lon="4.68744">
        <ele>179</ele>
        <time>2013-11-23T11:48:02.841Z</time>
      </trkpt>
      <trkpt lat="44.15986" lon="4.68742">
        <ele>179.5</ele>
        <time>2013-11-23T11:48:03.858Z</time>
      </trkpt>
      <trkpt lat="44.15984" lon="4.68732">
        <ele>179.2</ele>
        <time>2013-11-23T11:48:06.828Z</time>
      </trkpt>
      <trkpt lat="44.15983" lon="4.68728">
        <ele>179.1</ele>
        <time>2013-11-23T11:48:07.842Z</time>
      </trkpt>
      <trkpt lat="44.15978" lon="4.68719">
        <ele>180.2</ele>
        <time>2013-11-23T11:48:12.005Z</time>
      </trkpt>
      <trkpt lat="44.15976" lon="4.68713">
        <ele>180.7</ele>
        <time>2013-11-23T11:48:14.848Z</time>
      </trkpt>
      <trkpt lat="44.15972" lon="4.68705">
        <ele>181.1</ele>
        <time>2013-11-23T11:48:18.963Z</time>
      </trkpt>
      <trkpt lat="44.1597" lon="4.68699">
        <ele>183.9</ele>
        <time>2013-11-23T11:48:21.848Z</time>
      </trkpt>
      <trkpt lat="44.15965" lon="4.68688">
        <ele>184</ele>
        <time>2013-11-23T11:48:26.848Z</time>
      </trkpt>
      <trkpt lat="44.15965" lon="4.68688">
        <ele>184</ele>
        <time>2013-11-23T11:48:27.110Z</time>
      </trkpt>
      <trkpt lat="44.15962" lon="4.6868">
        <ele>184</ele>
        <time>2013-11-23T11:48:30.850Z</time>
      </trkpt>
      <trkpt lat="44.15961" lon="4.68675">
        <ele>183.6</ele>
        <time>2013-11-23T11:48:32.849Z</time>
      </trkpt>
      <trkpt lat="44.15956" lon="4.68666">
        <ele>184.4</ele>
        <time>2013-11-23T11:48:37.961Z</time>
      </trkpt>
      <trkpt lat="44.15953" lon="4.6866">
        <ele>185.1</ele>
        <time>2013-11-23T11:48:40.847Z</time>
      </trkpt>
      <trkpt lat="44.15951" lon="4.68653">
        <ele>184.2</ele>
        <time>2013-11-23T11:48:43.848Z</time>
      </trkpt>
      <trkpt lat="44.1595" lon="4.68646">
        <ele>184.2</ele>
        <time>2013-11-23T11:48:45.847Z</time>
      </trkpt>
      <trkpt lat="44.15947" lon="4.68637">
        <ele>184</ele>
        <time>2013-11-23T11:48:48.847Z</time>
      </trkpt>
      <trkpt lat="44.15947" lon="4.68634">
        <ele>183.8</ele>
        <time>2013-11-23T11:48:49.847Z</time>
      </trkpt>
      <trkpt lat="44.15946" lon="4.68624">
        <ele>183.3</ele>
        <time>2013-11-23T11:48:52.847Z</time>
      </trkpt>
      <trkpt lat="44.15946" lon="4.68618">
        <ele>183.2</ele>
        <time>2013-11-23T11:48:54.847Z</time>
      </trkpt>
      <trkpt lat="44.15945" lon="4.68606">
        <ele>182.5</ele>
        <time>2013-11-23T11:48:58.962Z</time>
      </trkpt>
      <trkpt lat="44.15944" lon="4.68597">
        <ele>182.1</ele>
        <time>2013-11-23T11:49:01.848Z</time>
      </trkpt>
      <trkpt lat="44.15944" lon="4.68589">
        <ele>182.2</ele>
        <time>2013-11-23T11:49:04.849Z</time>
      </trkpt>
      <trkpt lat="44.15943" lon="4.68583">
        <ele>182.5</ele>
        <time>2013-11-23T11:49:06.847Z</time>
      </trkpt>
      <trkpt lat="44.15941" lon="4.68575">
        <ele>181.6</ele>
        <time>2013-11-23T11:49:09.864Z</time>
      </trkpt>
      <trkpt lat="44.1594" lon="4.68568">
        <ele>181.4</ele>
        <time>2013-11-23T11:49:11.897Z</time>
      </trkpt>
      <trkpt lat="44.15938" lon="4.68562">
        <ele>182</ele>
        <time>2013-11-23T11:49:13.848Z</time>
      </trkpt>
      <trkpt lat="44.15937" lon="4.68556">
        <ele>182.4</ele>
        <time>2013-11-23T11:49:15.847Z</time>
      </trkpt>
      <trkpt lat="44.15934" lon="4.68546">
        <ele>183.6</ele>
        <time>2013-11-23T11:49:19.992Z</time>
      </trkpt>
      <trkpt lat="44.1593" lon="4.68541">
        <ele>184.6</ele>
        <time>2013-11-23T11:49:22.852Z</time>
      </trkpt>
      <trkpt lat="44.15925" lon="4.68543">
        <ele>185.8</ele>
        <time>2013-11-23T11:49:26.993Z</time>
      </trkpt>
      <trkpt lat="44.15922" lon="4.68548">
        <ele>186</ele>
        <time>2013-11-23T11:49:29.863Z</time>
      </trkpt>
      <trkpt lat="44.1592" lon="4.6856">
        <ele>187.4</ele>
        <time>2013-11-23T11:49:35.983Z</time>
      </trkpt>
      <trkpt lat="44.15917" lon="4.68558">
        <ele>192.9</ele>
        <time>2013-11-23T11:49:39.853Z</time>
      </trkpt>
      <trkpt lat="44.15915" lon="4.68569">
        <ele>192.4</ele>
        <time>2013-11-23T11:49:43.848Z</time>
      </trkpt>
      <trkpt lat="44.15914" lon="4.68571">
        <ele>192</ele>
        <time>2013-11-23T11:49:44.848Z</time>
      </trkpt>
      <trkpt lat="44.15911" lon="4.68579">
        <ele>193.2</ele>
        <time>2013-11-23T11:49:48.960Z</time>
      </trkpt>
      <trkpt lat="44.1591" lon="4.68587">
        <ele>194.1</ele>
        <time>2013-11-23T11:49:51.847Z</time>
      </trkpt>
      <trkpt lat="44.1591" lon="4.68594">
        <ele>196.2</ele>
        <time>2013-11-23T11:50:02.969Z</time>
      </trkpt>
      <trkpt lat="44.15908" lon="4.686">
        <ele>196.4</ele>
        <time>2013-11-23T11:50:08.853Z</time>
      </trkpt>
      <trkpt lat="44.15908" lon="4.6861">
        <ele>196.5</ele>
        <time>2013-11-23T11:50:13.959Z</time>
      </trkpt>
      <trkpt lat="44.15909" lon="4.68619">
        <ele>196.6</ele>
        <time>2013-11-23T11:50:16.853Z</time>
      </trkpt>
      <trkpt lat="44.1591" lon="4.68631">
        <ele>196.9</ele>
        <time>2013-11-23T11:50:27.932Z</time>
      </trkpt>
      <trkpt lat="44.15911" lon="4.68639">
        <ele>198.6</ele>
        <time>2013-11-23T11:50:33.874Z</time>
      </trkpt>
      <trkpt lat="44.15911" lon="4.68649">
        <ele>197.4</ele>
        <time>2013-11-23T11:50:39.857Z</time>
      </trkpt>
      <trkpt lat="44.15911" lon="4.68653">
        <ele>197.5</ele>
        <time>2013-11-23T11:50:41.870Z</time>
      </trkpt>
      <trkpt lat="44.15913" lon="4.68664">
        <ele>197.1</ele>
        <time>2013-11-23T11:50:48.846Z</time>
      </trkpt>
      <trkpt lat="44.15912" lon="4.68667">
        <ele>197.3</ele>
        <time>2013-11-23T11:50:51.867Z</time>
      </trkpt>
      <trkpt lat="44.15913" lon="4.68678">
        <ele>196.1</ele>
        <time>2013-11-23T11:50:57.843Z</time>
      </trkpt>
      <trkpt lat="44.15912" lon="4.6868">
        <ele>195.7</ele>
        <time>2013-11-23T11:50:59.850Z</time>
      </trkpt>
      <trkpt lat="44.1591" lon="4.68688">
        <ele>196.7</ele>
        <time>2013-11-23T11:51:04.117Z</time>
      </trkpt>
      <trkpt lat="44.15909" lon="4.68692">
        <ele>198.2</ele>
        <time>2013-11-23T11:51:06.845Z</time>
      </trkpt>
      <trkpt lat="44.15908" lon="4.687">
        <ele>199.5</ele>
        <time>2013-11-23T11:51:12.919Z</time>
      </trkpt>
      <trkpt lat="44.15906" lon="4.68704">
        <ele>201.3</ele>
        <time>2013-11-23T11:51:16.848Z</time>
      </trkpt>
      <trkpt lat="44.15902" lon="4.68716">
        <ele>201.2</ele>
        <time>2013-11-23T11:51:23.962Z</time>
      </trkpt>
      <trkpt lat="44.15901" lon="4.6872">
        <ele>201.4</ele>
        <time>2013-11-23T11:51:27.850Z</time>
      </trkpt>
      <trkpt lat="44.15897" lon="4.68729">
        <ele>200.1</ele>
        <time>2013-11-23T11:51:34.913Z</time>
      </trkpt>
      <trkpt lat="44.15895" lon="4.68734">
        <ele>199.8</ele>
        <time>2013-11-23T11:51:38.853Z</time>
      </trkpt>
      <trkpt lat="44.15889" lon="4.68743">
        <ele>199.8</ele>
        <time>2013-11-23T11:51:45.871Z</time>
      </trkpt>
      <trkpt lat="44.15888" lon="4.68745">
        <ele>199.9</ele>
        <time>2013-11-23T11:51:46.857Z</time>
      </trkpt>
      <trkpt lat="44.15891" lon="4.68743">
        <ele>200.5</ele>
        <time>2013-11-23T11:51:55.855Z</time>
      </trkpt>
      <trkpt lat="44.15891" lon="4.68743">
        <ele>200.7</ele>
        <time>2013-11-23T11:51:56.897Z</time>
      </trkpt>
      <trkpt lat="44.15891" lon="4.68744">
        <ele>200.8</ele>
        <time>2013-11-23T11:51:58.854Z</time>
      </trkpt>
      <trkpt lat="44.15891" lon="4.68744">
        <ele>200.7</ele>
        <time>2013-11-23T11:52:00.852Z</time>
      </trkpt>
      <trkpt lat="44.15891" lon="4.68745">
        <ele>200.8</ele>
        <time>2013-11-23T11:52:01.925Z</time>
      </trkpt>
      <trkpt lat="44.15891" lon="4.68745">
        <ele>200.8</ele>
        <time>2013-11-23T11:52:03.868Z</time>
      </trkpt>
      <trkpt lat="44.15891" lon="4.68745">
        <ele>200.8</ele>
        <time>2013-11-23T11:52:14.969Z</time>
      </trkpt>
      <trkpt lat="44.1589" lon="4.68749">
        <ele>200.8</ele>
        <time>2013-11-23T11:52:20.597Z</time>
      </trkpt>
      <trkpt lat="44.15884" lon="4.68757">
        <ele>199</ele>
        <time>2013-11-23T11:52:26.268Z</time>
      </trkpt>
      <trkpt lat="44.15879" lon="4.68754">
        <ele>197.8</ele>
        <time>2013-11-23T11:52:28.877Z</time>
      </trkpt>
      <trkpt lat="44.15873" lon="4.68749">
        <ele>197.2</ele>
        <time>2013-11-23T11:52:30.863Z</time>
      </trkpt>
      <trkpt lat="44.1587" lon="4.68746">
        <ele>197.3</ele>
        <time>2013-11-23T11:52:31.863Z</time>
      </trkpt>
      <trkpt lat="44.15864" lon="4.68742">
        <ele>197</ele>
        <time>2013-11-23T11:52:33.860Z</time>
      </trkpt>
      <trkpt lat="44.1586" lon="4.68741">
        <ele>196.5</ele>
        <time>2013-11-23T11:52:34.937Z</time>
      </trkpt>
      <trkpt lat="44.15852" lon="4.68738">
        <ele>196.5</ele>
        <time>2013-11-23T11:52:36.857Z</time>
      </trkpt>
      <trkpt lat="44.15847" lon="4.68737">
        <ele>196.6</ele>
        <time>2013-11-23T11:52:37.859Z</time>
      </trkpt>
      <trkpt lat="44.15844" lon="4.68736">
        <ele>196.4</ele>
        <time>2013-11-23T11:52:38.867Z</time>
      </trkpt>
      <trkpt lat="44.15837" lon="4.68733">
        <ele>196.4</ele>
        <time>2013-11-23T11:52:40.836Z</time>
      </trkpt>
      <trkpt lat="44.15829" lon="4.6873">
        <ele>196.6</ele>
        <time>2013-11-23T11:52:42.855Z</time>
      </trkpt>
      <trkpt lat="44.15821" lon="4.68727">
        <ele>196</ele>
        <time>2013-11-23T11:52:44.855Z</time>
      </trkpt>
      <trkpt lat="44.15818" lon="4.68726">
        <ele>195.5</ele>
        <time>2013-11-23T11:52:45.857Z</time>
      </trkpt>
      <trkpt lat="44.15809" lon="4.68722">
        <ele>195.1</ele>
        <time>2013-11-23T11:52:47.848Z</time>
      </trkpt>
      <trkpt lat="44.15804" lon="4.68719">
        <ele>195.1</ele>
        <time>2013-11-23T11:52:48.857Z</time>
      </trkpt>
      <trkpt lat="44.15795" lon="4.68713">
        <ele>194.7</ele>
        <time>2013-11-23T11:52:50.855Z</time>
      </trkpt>
      <trkpt lat="44.15791" lon="4.6871">
        <ele>194.5</ele>
        <time>2013-11-23T11:52:51.864Z</time>
      </trkpt>
      <trkpt lat="44.15783" lon="4.68702">
        <ele>194</ele>
        <time>2013-11-23T11:52:53.855Z</time>
      </trkpt>
      <trkpt lat="44.15774" lon="4.68695">
        <ele>193.4</ele>
        <time>2013-11-23T11:52:55.856Z</time>
      </trkpt>
      <trkpt lat="44.15769" lon="4.6869">
        <ele>192.8</ele>
        <time>2013-11-23T11:52:56.855Z</time>
      </trkpt>
      <trkpt lat="44.15764" lon="4.68685">
        <ele>192.3</ele>
        <time>2013-11-23T11:52:57.855Z</time>
      </trkpt>
      <trkpt lat="44.1576" lon="4.6868">
        <ele>192.2</ele>
        <time>2013-11-23T11:52:58.855Z</time>
      </trkpt>
      <trkpt lat="44.15755" lon="4.68676">
        <ele>192.6</ele>
        <time>2013-11-23T11:52:59.856Z</time>
      </trkpt>
      <trkpt lat="44.15747" lon="4.68667">
        <ele>194.1</ele>
        <time>2013-11-23T11:53:01.836Z</time>
      </trkpt>
      <trkpt lat="44.15742" lon="4.68662">
        <ele>195</ele>
        <time>2013-11-23T11:53:02.851Z</time>
      </trkpt>
      <trkpt lat="44.15738" lon="4.68657">
        <ele>194.8</ele>
        <time>2013-11-23T11:53:03.858Z</time>
      </trkpt>
      <trkpt lat="44.1573" lon="4.68645">
        <ele>192.2</ele>
        <time>2013-11-23T11:53:05.854Z</time>
      </trkpt>
      <trkpt lat="44.15722" lon="4.68635">
        <ele>190.4</ele>
        <time>2013-11-23T11:53:07.852Z</time>
      </trkpt>
      <trkpt lat="44.15718" lon="4.6863">
        <ele>190.2</ele>
        <time>2013-11-23T11:53:08.871Z</time>
      </trkpt>
      <trkpt lat="44.15709" lon="4.6862">
        <ele>190.2</ele>
        <time>2013-11-23T11:53:10.855Z</time>
      </trkpt>
      <trkpt lat="44.157" lon="4.68611">
        <ele>189.9</ele>
        <time>2013-11-23T11:53:12.835Z</time>
      </trkpt>
      <trkpt lat="44.15696" lon="4.68607">
        <ele>190.7</ele>
        <time>2013-11-23T11:53:13.847Z</time>
      </trkpt>
      <trkpt lat="44.15693" lon="4.68603">
        <ele>190.5</ele>
        <time>2013-11-23T11:53:14.849Z</time>
      </trkpt>
      <trkpt lat="44.15686" lon="4.68596">
        <ele>191.3</ele>
        <time>2013-11-23T11:53:16.841Z</time>
      </trkpt>
      <trkpt lat="44.15682" lon="4.68592">
        <ele>191.2</ele>
        <time>2013-11-23T11:53:17.849Z</time>
      </trkpt>
      <trkpt lat="44.15675" lon="4.68582">
        <ele>191.2</ele>
        <time>2013-11-23T11:53:19.851Z</time>
      </trkpt>
      <trkpt lat="44.15668" lon="4.68571">
        <ele>190.9</ele>
        <time>2013-11-23T11:53:21.839Z</time>
      </trkpt>
      <trkpt lat="44.15665" lon="4.68565">
        <ele>190.5</ele>
        <time>2013-11-23T11:53:22.852Z</time>
      </trkpt>
      <trkpt lat="44.15659" lon="4.68553">
        <ele>190.4</ele>
        <time>2013-11-23T11:53:24.877Z</time>
      </trkpt>
      <trkpt lat="44.15653" lon="4.68541">
        <ele>189.8</ele>
        <time>2013-11-23T11:53:26.911Z</time>
      </trkpt>
      <trkpt lat="44.15647" lon="4.68529">
        <ele>189</ele>
        <time>2013-11-23T11:53:28.865Z</time>
      </trkpt>
      <trkpt lat="44.15638" lon="4.68518">
        <ele>188.7</ele>
        <time>2013-11-23T11:53:30.916Z</time>
      </trkpt>
      <trkpt lat="44.15631" lon="4.68508">
        <ele>189.1</ele>
        <time>2013-11-23T11:53:32.849Z</time>
      </trkpt>
      <trkpt lat="44.15627" lon="4.68503">
        <ele>189.2</ele>
        <time>2013-11-23T11:53:33.854Z</time>
      </trkpt>
      <trkpt lat="44.1562" lon="4.68495">
        <ele>189</ele>
        <time>2013-11-23T11:53:35.850Z</time>
      </trkpt>
      <trkpt lat="44.15618" lon="4.68491">
        <ele>189.1</ele>
        <time>2013-11-23T11:53:36.868Z</time>
      </trkpt>
      <trkpt lat="44.15614" lon="4.68485">
        <ele>189</ele>
        <time>2013-11-23T11:53:38.867Z</time>
      </trkpt>
      <trkpt lat="44.15607" lon="4.68486">
        <ele>188.3</ele>
        <time>2013-11-23T11:53:44.861Z</time>
      </trkpt>
      <trkpt lat="44.15603" lon="4.68494">
        <ele>186.8</ele>
        <time>2013-11-23T11:53:46.868Z</time>
      </trkpt>
      <trkpt lat="44.15602" lon="4.68506">
        <ele>186.4</ele>
        <time>2013-11-23T11:53:48.854Z</time>
      </trkpt>
      <trkpt lat="44.15605" lon="4.68519">
        <ele>186.3</ele>
        <time>2013-11-23T11:53:50.847Z</time>
      </trkpt>
      <trkpt lat="44.15607" lon="4.68525">
        <ele>186.4</ele>
        <time>2013-11-23T11:53:51.873Z</time>
      </trkpt>
      <trkpt lat="44.1561" lon="4.68535">
        <ele>186.2</ele>
        <time>2013-11-23T11:53:53.857Z</time>
      </trkpt>
      <trkpt lat="44.15612" lon="4.68545">
        <ele>186.2</ele>
        <time>2013-11-23T11:53:56.912Z</time>
      </trkpt>
      <trkpt lat="44.15616" lon="4.68549">
        <ele>185.9</ele>
        <time>2013-11-23T11:53:58.848Z</time>
      </trkpt>
      <trkpt lat="44.15618" lon="4.68553">
        <ele>185.6</ele>
        <time>2013-11-23T11:53:59.916Z</time>
      </trkpt>
      <trkpt lat="44.15621" lon="4.68562">
        <ele>185.3</ele>
        <time>2013-11-23T11:54:01.906Z</time>
      </trkpt>
      <trkpt lat="44.15623" lon="4.6857">
        <ele>185</ele>
        <time>2013-11-23T11:54:03.850Z</time>
      </trkpt>
      <trkpt lat="44.15627" lon="4.68577">
        <ele>184.6</ele>
        <time>2013-11-23T11:54:05.851Z</time>
      </trkpt>
      <trkpt lat="44.15631" lon="4.68585">
        <ele>184.6</ele>
        <time>2013-11-23T11:54:07.851Z</time>
      </trkpt>
      <trkpt lat="44.15632" lon="4.6859">
        <ele>184.4</ele>
        <time>2013-11-23T11:54:08.850Z</time>
      </trkpt>
      <trkpt lat="44.15635" lon="4.68601">
        <ele>183.7</ele>
        <time>2013-11-23T11:54:10.882Z</time>
      </trkpt>
      <trkpt lat="44.15642" lon="4.6861">
        <ele>183</ele>
        <time>2013-11-23T11:54:12.853Z</time>
      </trkpt>
      <trkpt lat="44.15647" lon="4.6862">
        <ele>182.2</ele>
        <time>2013-11-23T11:54:14.849Z</time>
      </trkpt>
      <trkpt lat="44.1565" lon="4.68626">
        <ele>181.6</ele>
        <time>2013-11-23T11:54:16.849Z</time>
      </trkpt>
      <trkpt lat="44.15654" lon="4.6863">
        <ele>180.9</ele>
        <time>2013-11-23T11:54:18.938Z</time>
      </trkpt>
      <trkpt lat="44.1566" lon="4.68635">
        <ele>180.4</ele>
        <time>2013-11-23T11:54:20.850Z</time>
      </trkpt>
      <trkpt lat="44.15665" lon="4.6864">
        <ele>179.8</ele>
        <time>2013-11-23T11:54:22.865Z</time>
      </trkpt>
      <trkpt lat="44.15667" lon="4.68644">
        <ele>179.9</ele>
        <time>2013-11-23T11:54:24.842Z</time>
      </trkpt>
      <trkpt lat="44.15672" lon="4.68655">
        <ele>178.8</ele>
        <time>2013-11-23T11:54:29.850Z</time>
      </trkpt>
      <trkpt lat="44.15672" lon="4.68655">
        <ele>178.8</ele>
        <time>2013-11-23T11:54:30.128Z</time>
      </trkpt>
      <trkpt lat="44.15674" lon="4.68663">
        <ele>178.3</ele>
        <time>2013-11-23T11:54:32.915Z</time>
      </trkpt>
      <trkpt lat="44.15677" lon="4.68667">
        <ele>178.1</ele>
        <time>2013-11-23T11:54:34.849Z</time>
      </trkpt>
      <trkpt lat="44.15682" lon="4.68674">
        <ele>177.2</ele>
        <time>2013-11-23T11:54:38.971Z</time>
      </trkpt>
      <trkpt lat="44.15684" lon="4.6868">
        <ele>176.6</ele>
        <time>2013-11-23T11:54:41.843Z</time>
      </trkpt>
      <trkpt lat="44.15687" lon="4.68684">
        <ele>176.7</ele>
        <time>2013-11-23T11:54:44.841Z</time>
      </trkpt>
      <trkpt lat="44.1569" lon="4.68689">
        <ele>177.3</ele>
        <time>2013-11-23T11:54:46.838Z</time>
      </trkpt>
      <trkpt lat="44.15694" lon="4.68696">
        <ele>177.4</ele>
        <time>2013-11-23T11:54:49.852Z</time>
      </trkpt>
      <trkpt lat="44.15696" lon="4.687">
        <ele>177</ele>
        <time>2013-11-23T11:54:50.852Z</time>
      </trkpt>
      <trkpt lat="44.15698" lon="4.68705">
        <ele>176.4</ele>
        <time>2013-11-23T11:54:51.916Z</time>
      </trkpt>
      <trkpt lat="44.15702" lon="4.68713">
        <ele>175.2</ele>
        <time>2013-11-23T11:54:53.867Z</time>
      </trkpt>
      <trkpt lat="44.15699" lon="4.68718">
        <ele>174</ele>
        <time>2013-11-23T11:54:56.917Z</time>
      </trkpt>
      <trkpt lat="44.15686" lon="4.68711">
        <ele>173</ele>
        <time>2013-11-23T11:54:58.841Z</time>
      </trkpt>
      <trkpt lat="44.15678" lon="4.68705">
        <ele>170.3</ele>
        <time>2013-11-23T11:55:00.934Z</time>
      </trkpt>
      <trkpt lat="44.15664" lon="4.68675">
        <ele>168.4</ele>
        <time>2013-11-23T11:55:02.877Z</time>
      </trkpt>
      <trkpt lat="44.15663" lon="4.68672">
        <ele>168.4</ele>
        <time>2013-11-23T11:55:03.116Z</time>
      </trkpt>
      <trkpt lat="44.15658" lon="4.68663">
        <ele>167.1</ele>
        <time>2013-11-23T11:55:03.864Z</time>
      </trkpt>
      <trkpt lat="44.15642" lon="4.68646">
        <ele>165.9</ele>
        <time>2013-11-23T11:55:05.864Z</time>
      </trkpt>
      <trkpt lat="44.15634" lon="4.6864">
        <ele>165.6</ele>
        <time>2013-11-23T11:55:06.870Z</time>
      </trkpt>
      <trkpt lat="44.15619" lon="4.6863">
        <ele>164.5</ele>
        <time>2013-11-23T11:55:08.851Z</time>
      </trkpt>
      <trkpt lat="44.15611" lon="4.68625">
        <ele>163.9</ele>
        <time>2013-11-23T11:55:09.852Z</time>
      </trkpt>
      <trkpt lat="44.15605" lon="4.68621">
        <ele>163.4</ele>
        <time>2013-11-23T11:55:10.869Z</time>
      </trkpt>
      <trkpt lat="44.15593" lon="4.68611">
        <ele>162.4</ele>
        <time>2013-11-23T11:55:12.828Z</time>
      </trkpt>
      <trkpt lat="44.15589" lon="4.68607">
        <ele>161.9</ele>
        <time>2013-11-23T11:55:13.845Z</time>
      </trkpt>
      <trkpt lat="44.15585" lon="4.68603">
        <ele>161.6</ele>
        <time>2013-11-23T11:55:14.846Z</time>
      </trkpt>
      <trkpt lat="44.15578" lon="4.68602">
        <ele>159.2</ele>
        <time>2013-11-23T11:55:21.969Z</time>
      </trkpt>
      <trkpt lat="44.15582" lon="4.6862">
        <ele>156.5</ele>
        <time>2013-11-23T11:55:25.850Z</time>
      </trkpt>
      <trkpt lat="44.15584" lon="4.68626">
        <ele>155.2</ele>
        <time>2013-11-23T11:55:26.850Z</time>
      </trkpt>
      <trkpt lat="44.15587" lon="4.68638">
        <ele>153.3</ele>
        <time>2013-11-23T11:55:28.847Z</time>
      </trkpt>
      <trkpt lat="44.1559" lon="4.68647">
        <ele>151.9</ele>
        <time>2013-11-23T11:55:30.848Z</time>
      </trkpt>
      <trkpt lat="44.15591" lon="4.68651">
        <ele>151.1</ele>
        <time>2013-11-23T11:55:31.847Z</time>
      </trkpt>
      <trkpt lat="44.15593" lon="4.68658">
        <ele>150.1</ele>
        <time>2013-11-23T11:55:33.847Z</time>
      </trkpt>
      <trkpt lat="44.15594" lon="4.68662">
        <ele>149.8</ele>
        <time>2013-11-23T11:55:34.853Z</time>
      </trkpt>
      <trkpt lat="44.15593" lon="4.68673">
        <ele>147.4</ele>
        <time>2013-11-23T11:55:36.847Z</time>
      </trkpt>
      <trkpt lat="44.15593" lon="4.68677">
        <ele>147</ele>
        <time>2013-11-23T11:55:37.849Z</time>
      </trkpt>
      <trkpt lat="44.15592" lon="4.68684">
        <ele>146.4</ele>
        <time>2013-11-23T11:55:39.848Z</time>
      </trkpt>
      <trkpt lat="44.15586" lon="4.6869">
        <ele>145.8</ele>
        <time>2013-11-23T11:55:41.847Z</time>
      </trkpt>
      <trkpt lat="44.15578" lon="4.6869">
        <ele>142.6</ele>
        <time>2013-11-23T11:55:42.846Z</time>
      </trkpt>
      <trkpt lat="44.15572" lon="4.6869">
        <ele>141.8</ele>
        <time>2013-11-23T11:55:43.848Z</time>
      </trkpt>
      <trkpt lat="44.15564" lon="4.68694">
        <ele>141.2</ele>
        <time>2013-11-23T11:55:45.846Z</time>
      </trkpt>
      <trkpt lat="44.15561" lon="4.68697">
        <ele>140.9</ele>
        <time>2013-11-23T11:55:46.848Z</time>
      </trkpt>
      <trkpt lat="44.15555" lon="4.68703">
        <ele>140.5</ele>
        <time>2013-11-23T11:55:48.848Z</time>
      </trkpt>
      <trkpt lat="44.15551" lon="4.68704">
        <ele>140.5</ele>
        <time>2013-11-23T11:55:49.855Z</time>
      </trkpt>
      <trkpt lat="44.15542" lon="4.68706">
        <ele>139.8</ele>
        <time>2013-11-23T11:55:51.846Z</time>
      </trkpt>
      <trkpt lat="44.15538" lon="4.68707">
        <ele>139.9</ele>
        <time>2013-11-23T11:55:52.848Z</time>
      </trkpt>
      <trkpt lat="44.15531" lon="4.68705">
        <ele>139.8</ele>
        <time>2013-11-23T11:55:54.850Z</time>
      </trkpt>
      <trkpt lat="44.15528" lon="4.68701">
        <ele>134.7</ele>
        <time>2013-11-23T11:55:56.822Z</time>
      </trkpt>
      <trkpt lat="44.1552" lon="4.68699">
        <ele>133.6</ele>
        <time>2013-11-23T11:55:59.849Z</time>
      </trkpt>
      <trkpt lat="44.15516" lon="4.68698">
        <ele>133.5</ele>
        <time>2013-11-23T11:56:00.849Z</time>
      </trkpt>
      <trkpt lat="44.15509" lon="4.68693">
        <ele>132.9</ele>
        <time>2013-11-23T11:56:03.848Z</time>
      </trkpt>
      <trkpt lat="44.15506" lon="4.68691">
        <ele>132.2</ele>
        <time>2013-11-23T11:56:04.850Z</time>
      </trkpt>
      <trkpt lat="44.15504" lon="4.68689">
        <ele>132.1</ele>
        <time>2013-11-23T11:56:05.852Z</time>
      </trkpt>
      <trkpt lat="44.15499" lon="4.6868">
        <ele>130.1</ele>
        <time>2013-11-23T11:56:07.848Z</time>
      </trkpt>
      <trkpt lat="44.15495" lon="4.68666">
        <ele>127</ele>
        <time>2013-11-23T11:56:09.850Z</time>
      </trkpt>
      <trkpt lat="44.15493" lon="4.68655">
        <ele>127.5</ele>
        <time>2013-11-23T11:56:11.847Z</time>
      </trkpt>
      <trkpt lat="44.15493" lon="4.68652">
        <ele>128</ele>
        <time>2013-11-23T11:56:12.849Z</time>
      </trkpt>
      <trkpt lat="44.15493" lon="4.6864">
        <ele>127.8</ele>
        <time>2013-11-23T11:56:15.862Z</time>
      </trkpt>
      <trkpt lat="44.15492" lon="4.68633">
        <ele>127.5</ele>
        <time>2013-11-23T11:56:17.858Z</time>
      </trkpt>
      <trkpt lat="44.15493" lon="4.68625">
        <ele>127</ele>
        <time>2013-11-23T11:56:19.849Z</time>
      </trkpt>
      <trkpt lat="44.15491" lon="4.68618">
        <ele>127.7</ele>
        <time>2013-11-23T11:56:21.853Z</time>
      </trkpt>
      <trkpt lat="44.15488" lon="4.68608">
        <ele>130.4</ele>
        <time>2013-11-23T11:56:24.863Z</time>
      </trkpt>
      <trkpt lat="44.15487" lon="4.68601">
        <ele>130.5</ele>
        <time>2013-11-23T11:56:26.863Z</time>
      </trkpt>
      <trkpt lat="44.15485" lon="4.68591">
        <ele>131.3</ele>
        <time>2013-11-23T11:56:30.847Z</time>
      </trkpt>
      <trkpt lat="44.15484" lon="4.68586">
        <ele>131.1</ele>
        <time>2013-11-23T11:56:32.865Z</time>
      </trkpt>
      <trkpt lat="44.15486" lon="4.68579">
        <ele>131.5</ele>
        <time>2013-11-23T11:56:34.867Z</time>
      </trkpt>
      <trkpt lat="44.15488" lon="4.68572">
        <ele>131.3</ele>
        <time>2013-11-23T11:56:36.848Z</time>
      </trkpt>
      <trkpt lat="44.15493" lon="4.68562">
        <ele>129.3</ele>
        <time>2013-11-23T11:56:39.865Z</time>
      </trkpt>
      <trkpt lat="44.15494" lon="4.68557">
        <ele>128.7</ele>
        <time>2013-11-23T11:56:41.861Z</time>
      </trkpt>
      <trkpt lat="44.15495" lon="4.68547">
        <ele>128.9</ele>
        <time>2013-11-23T11:56:45.848Z</time>
      </trkpt>
      <trkpt lat="44.15494" lon="4.68542">
        <ele>128.4</ele>
        <time>2013-11-23T11:56:47.848Z</time>
      </trkpt>
      <trkpt lat="44.15491" lon="4.68533">
        <ele>128.3</ele>
        <time>2013-11-23T11:56:51.847Z</time>
      </trkpt>
      <trkpt lat="44.1549" lon="4.68528">
        <ele>129</ele>
        <time>2013-11-23T11:56:53.853Z</time>
      </trkpt>
      <trkpt lat="44.1549" lon="4.68516">
        <ele>128.7</ele>
        <time>2013-11-23T11:56:58.968Z</time>
      </trkpt>
      <trkpt lat="44.1549" lon="4.6851">
        <ele>129</ele>
        <time>2013-11-23T11:57:01.847Z</time>
      </trkpt>
      <trkpt lat="44.15489" lon="4.68501">
        <ele>131.1</ele>
        <time>2013-11-23T11:57:09.042Z</time>
      </trkpt>
      <trkpt lat="44.15486" lon="4.68493">
        <ele>130</ele>
        <time>2013-11-23T11:57:12.849Z</time>
      </trkpt>
      <trkpt lat="44.15478" lon="4.68489">
        <ele>127.1</ele>
        <time>2013-11-23T11:57:19.906Z</time>
      </trkpt>
      <trkpt lat="44.15475" lon="4.68488">
        <ele>127.5</ele>
        <time>2013-11-23T11:57:23.849Z</time>
      </trkpt>
      <trkpt lat="44.15475" lon="4.68488">
        <ele>127.5</ele>
        <time>2013-11-23T11:57:24.047Z</time>
      </trkpt>
      <trkpt lat="44.15476" lon="4.68488">
        <ele>127.4</ele>
        <time>2013-11-23T11:57:26.854Z</time>
      </trkpt>
      <trkpt lat="44.15475" lon="4.68489">
        <ele>127.7</ele>
        <time>2013-11-23T11:57:28.847Z</time>
      </trkpt>
      <trkpt lat="44.15475" lon="4.68489">
        <ele>127.7</ele>
        <time>2013-11-23T11:57:29.914Z</time>
      </trkpt>
      <trkpt lat="44.15475" lon="4.68488">
        <ele>127.6</ele>
        <time>2013-11-23T11:57:31.847Z</time>
      </trkpt>
      <trkpt lat="44.15475" lon="4.68488">
        <ele>127.3</ele>
        <time>2013-11-23T11:57:42.993Z</time>
      </trkpt>
      <trkpt lat="44.15474" lon="4.68487">
        <ele>127.6</ele>
        <time>2013-11-23T11:57:48.864Z</time>
      </trkpt>
      <trkpt lat="44.15466" lon="4.68493">
        <ele>131.5</ele>
        <time>2013-11-23T11:57:53.967Z</time>
      </trkpt>
      <trkpt lat="44.15458" lon="4.68497">
        <ele>132.7</ele>
        <time>2013-11-23T11:57:56.839Z</time>
      </trkpt>
      <trkpt lat="44.15455" lon="4.68491">
        <ele>132.2</ele>
        <time>2013-11-23T11:57:57.863Z</time>
      </trkpt>
      <trkpt lat="44.1545" lon="4.68477">
        <ele>131.5</ele>
        <time>2013-11-23T11:57:59.862Z</time>
      </trkpt>
      <trkpt lat="44.15447" lon="4.68474">
        <ele>131.4</ele>
        <time>2013-11-23T11:58:00.897Z</time>
      </trkpt>
      <trkpt lat="44.15442" lon="4.68469">
        <ele>131.4</ele>
        <time>2013-11-23T11:58:02.864Z</time>
      </trkpt>
      <trkpt lat="44.15435" lon="4.68466">
        <ele>130.2</ele>
        <time>2013-11-23T11:58:05.858Z</time>
      </trkpt>
      <trkpt lat="44.15429" lon="4.68466">
        <ele>132.6</ele>
        <time>2013-11-23T11:58:07.848Z</time>
      </trkpt>
      <trkpt lat="44.15422" lon="4.68464">
        <ele>132.3</ele>
        <time>2013-11-23T11:58:10.848Z</time>
      </trkpt>
      <trkpt lat="44.15419" lon="4.68462">
        <ele>131.8</ele>
        <time>2013-11-23T11:58:11.847Z</time>
      </trkpt>
      <trkpt lat="44.1541" lon="4.6846">
        <ele>132.8</ele>
        <time>2013-11-23T11:58:14.847Z</time>
      </trkpt>
      <trkpt lat="44.15408" lon="4.68459">
        <ele>132.2</ele>
        <time>2013-11-23T11:58:15.847Z</time>
      </trkpt>
      <trkpt lat="44.15403" lon="4.68456">
        <ele>129.9</ele>
        <time>2013-11-23T11:58:17.907Z</time>
      </trkpt>
      <trkpt lat="44.15397" lon="4.68455">
        <ele>128.9</ele>
        <time>2013-11-23T11:58:19.848Z</time>
      </trkpt>
      <trkpt lat="44.15393" lon="4.68454">
        <ele>128</ele>
        <time>2013-11-23T11:58:21.847Z</time>
      </trkpt>
      <trkpt lat="44.15385" lon="4.68459">
        <ele>125.9</ele>
        <time>2013-11-23T11:58:23.847Z</time>
      </trkpt>
      <trkpt lat="44.1538" lon="4.68467">
        <ele>123.6</ele>
        <time>2013-11-23T11:58:25.847Z</time>
      </trkpt>
      <trkpt lat="44.15379" lon="4.68472">
        <ele>122.4</ele>
        <time>2013-11-23T11:58:26.846Z</time>
      </trkpt>
      <trkpt lat="44.15372" lon="4.68478">
        <ele>121.4</ele>
        <time>2013-11-23T11:58:29.848Z</time>
      </trkpt>
      <trkpt lat="44.15368" lon="4.68477">
        <ele>120.7</ele>
        <time>2013-11-23T11:58:30.848Z</time>
      </trkpt>
      <trkpt lat="44.1536" lon="4.68474">
        <ele>116.2</ele>
        <time>2013-11-23T11:58:32.850Z</time>
      </trkpt>
      <trkpt lat="44.1535" lon="4.68476">
        <ele>113.2</ele>
        <time>2013-11-23T11:58:34.848Z</time>
      </trkpt>
      <trkpt lat="44.15346" lon="4.6848">
        <ele>113.5</ele>
        <time>2013-11-23T11:58:35.845Z</time>
      </trkpt>
      <trkpt lat="44.15343" lon="4.68484">
        <ele>112.7</ele>
        <time>2013-11-23T11:58:36.847Z</time>
      </trkpt>
      <trkpt lat="44.15335" lon="4.68487">
        <ele>111.1</ele>
        <time>2013-11-23T11:58:38.848Z</time>
      </trkpt>
      <trkpt lat="44.15326" lon="4.68484">
        <ele>108.3</ele>
        <time>2013-11-23T11:58:40.844Z</time>
      </trkpt>
      <trkpt lat="44.15321" lon="4.68483">
        <ele>107.6</ele>
        <time>2013-11-23T11:58:41.848Z</time>
      </trkpt>
      <trkpt lat="44.15311" lon="4.68481">
        <ele>106.1</ele>
        <time>2013-11-23T11:58:43.848Z</time>
      </trkpt>
      <trkpt lat="44.15307" lon="4.6848">
        <ele>105.1</ele>
        <time>2013-11-23T11:58:44.848Z</time>
      </trkpt>
      <trkpt lat="44.15302" lon="4.68479">
        <ele>104.4</ele>
        <time>2013-11-23T11:58:45.847Z</time>
      </trkpt>
      <trkpt lat="44.15296" lon="4.68478">
        <ele>103.4</ele>
        <time>2013-11-23T11:58:46.848Z</time>
      </trkpt>
      <trkpt lat="44.15286" lon="4.68478">
        <ele>101.8</ele>
        <time>2013-11-23T11:58:48.847Z</time>
      </trkpt>
      <trkpt lat="44.15281" lon="4.6848">
        <ele>100.8</ele>
        <time>2013-11-23T11:58:49.849Z</time>
      </trkpt>
      <trkpt lat="44.15268" lon="4.6848">
        <ele>98.7</ele>
        <time>2013-11-23T11:58:51.847Z</time>
      </trkpt>
      <trkpt lat="44.15263" lon="4.68478">
        <ele>97.9</ele>
        <time>2013-11-23T11:58:52.847Z</time>
      </trkpt>
      <trkpt lat="44.15251" lon="4.68474">
        <ele>97.3</ele>
        <time>2013-11-23T11:58:54.850Z</time>
      </trkpt>
      <trkpt lat="44.15241" lon="4.68471">
        <ele>97.7</ele>
        <time>2013-11-23T11:58:56.845Z</time>
      </trkpt>
      <trkpt lat="44.15232" lon="4.68469">
        <ele>97.8</ele>
        <time>2013-11-23T11:58:58.848Z</time>
      </trkpt>
      <trkpt lat="44.15223" lon="4.68468">
        <ele>96.3</ele>
        <time>2013-11-23T11:59:00.839Z</time>
      </trkpt>
      <trkpt lat="44.15215" lon="4.68467">
        <ele>95.3</ele>
        <time>2013-11-23T11:59:02.842Z</time>
      </trkpt>
      <trkpt lat="44.15205" lon="4.68465">
        <ele>95.4</ele>
        <time>2013-11-23T11:59:04.864Z</time>
      </trkpt>
      <trkpt lat="44.15196" lon="4.68464">
        <ele>95.3</ele>
        <time>2013-11-23T11:59:06.834Z</time>
      </trkpt>
      <trkpt lat="44.15192" lon="4.68463">
        <ele>95.4</ele>
        <time>2013-11-23T11:59:07.864Z</time>
      </trkpt>
      <trkpt lat="44.15184" lon="4.68461">
        <ele>95.3</ele>
        <time>2013-11-23T11:59:09.837Z</time>
      </trkpt>
      <trkpt lat="44.15176" lon="4.6846">
        <ele>95.3</ele>
        <time>2013-11-23T11:59:11.858Z</time>
      </trkpt>
      <trkpt lat="44.15169" lon="4.68458">
        <ele>94.7</ele>
        <time>2013-11-23T11:59:13.815Z</time>
      </trkpt>
      <trkpt lat="44.15166" lon="4.68456">
        <ele>94.4</ele>
        <time>2013-11-23T11:59:14.849Z</time>
      </trkpt>
      <trkpt lat="44.15161" lon="4.68448">
        <ele>93.6</ele>
        <time>2013-11-23T11:59:16.876Z</time>
      </trkpt>
      <trkpt lat="44.15162" lon="4.68436">
        <ele>93.6</ele>
        <time>2013-11-23T11:59:18.861Z</time>
      </trkpt>
      <trkpt lat="44.15163" lon="4.68431">
        <ele>93.6</ele>
        <time>2013-11-23T11:59:19.877Z</time>
      </trkpt>
      <trkpt lat="44.15165" lon="4.68418">
        <ele>93</ele>
        <time>2013-11-23T11:59:21.842Z</time>
      </trkpt>
      <trkpt lat="44.15166" lon="4.68411">
        <ele>92.7</ele>
        <time>2013-11-23T11:59:22.848Z</time>
      </trkpt>
      <trkpt lat="44.15166" lon="4.68398">
        <ele>92.3</ele>
        <time>2013-11-23T11:59:24.862Z</time>
      </trkpt>
      <trkpt lat="44.15163" lon="4.68386">
        <ele>91.9</ele>
        <time>2013-11-23T11:59:26.860Z</time>
      </trkpt>
      <trkpt lat="44.15162" lon="4.6838">
        <ele>91.9</ele>
        <time>2013-11-23T11:59:27.863Z</time>
      </trkpt>
      <trkpt lat="44.15159" lon="4.6837">
        <ele>91.7</ele>
        <time>2013-11-23T11:59:29.849Z</time>
      </trkpt>
      <trkpt lat="44.15158" lon="4.68361">
        <ele>91.4</ele>
        <time>2013-11-23T11:59:31.847Z</time>
      </trkpt>
      <trkpt lat="44.15157" lon="4.68356">
        <ele>91.1</ele>
        <time>2013-11-23T11:59:32.848Z</time>
      </trkpt>
      <trkpt lat="44.15156" lon="4.68351">
        <ele>91</ele>
        <time>2013-11-23T11:59:33.851Z</time>
      </trkpt>
      <trkpt lat="44.15155" lon="4.68339">
        <ele>90.8</ele>
        <time>2013-11-23T11:59:35.849Z</time>
      </trkpt>
      <trkpt lat="44.15155" lon="4.68333">
        <ele>90.7</ele>
        <time>2013-11-23T11:59:36.847Z</time>
      </trkpt>
      <trkpt lat="44.15154" lon="4.68321">
        <ele>90.8</ele>
        <time>2013-11-23T11:59:38.847Z</time>
      </trkpt>
      <trkpt lat="44.15154" lon="4.68315">
        <ele>90.8</ele>
        <time>2013-11-23T11:59:39.848Z</time>
      </trkpt>
      <trkpt lat="44.15154" lon="4.68308">
        <ele>90.6</ele>
        <time>2013-11-23T11:59:40.848Z</time>
      </trkpt>
      <trkpt lat="44.15155" lon="4.68295">
        <ele>90.3</ele>
        <time>2013-11-23T11:59:42.850Z</time>
      </trkpt>
      <trkpt lat="44.15157" lon="4.68282">
        <ele>90.1</ele>
        <time>2013-11-23T11:59:44.847Z</time>
      </trkpt>
      <trkpt lat="44.15157" lon="4.68272">
        <ele>89.4</ele>
        <time>2013-11-23T11:59:46.847Z</time>
      </trkpt>
      <trkpt lat="44.15151" lon="4.68266">
        <ele>89</ele>
        <time>2013-11-23T11:59:48.847Z</time>
      </trkpt>
      <trkpt lat="44.15147" lon="4.68266">
        <ele>88.6</ele>
        <time>2013-11-23T11:59:49.848Z</time>
      </trkpt>
      <trkpt lat="44.15142" lon="4.68265">
        <ele>88.3</ele>
        <time>2013-11-23T11:59:50.848Z</time>
      </trkpt>
      <trkpt lat="44.15136" lon="4.68264">
        <ele>88.3</ele>
        <time>2013-11-23T11:59:51.847Z</time>
      </trkpt>
      <trkpt lat="44.1513" lon="4.68263">
        <ele>88.1</ele>
        <time>2013-11-23T11:59:52.849Z</time>
      </trkpt>
      <trkpt lat="44.15118" lon="4.68262">
        <ele>88.3</ele>
        <time>2013-11-23T11:59:54.847Z</time>
      </trkpt>
      <trkpt lat="44.15112" lon="4.68261">
        <ele>88</ele>
        <time>2013-11-23T11:59:55.847Z</time>
      </trkpt>
      <trkpt lat="44.15106" lon="4.6826">
        <ele>88.2</ele>
        <time>2013-11-23T11:59:56.845Z</time>
      </trkpt>
      <trkpt lat="44.15094" lon="4.68258">
        <ele>88.1</ele>
        <time>2013-11-23T11:59:58.846Z</time>
      </trkpt>
      <trkpt lat="44.15087" lon="4.68257">
        <ele>87.9</ele>
        <time>2013-11-23T11:59:59.848Z</time>
      </trkpt>
      <trkpt lat="44.15081" lon="4.68256">
        <ele>87.8</ele>
        <time>2013-11-23T12:00:00.849Z</time>
      </trkpt>
      <trkpt lat="44.15069" lon="4.68254">
        <ele>88</ele>
        <time>2013-11-23T12:00:02.843Z</time>
      </trkpt>
      <trkpt lat="44.15063" lon="4.68253">
        <ele>88.1</ele>
        <time>2013-11-23T12:00:03.846Z</time>
      </trkpt>
      <trkpt lat="44.15057" lon="4.68253">
        <ele>88</ele>
        <time>2013-11-23T12:00:04.849Z</time>
      </trkpt>
      <trkpt lat="44.15045" lon="4.68251">
        <ele>87.5</ele>
        <time>2013-11-23T12:00:06.832Z</time>
      </trkpt>
      <trkpt lat="44.15038" lon="4.6825">
        <ele>87</ele>
        <time>2013-11-23T12:00:07.846Z</time>
      </trkpt>
      <trkpt lat="44.15032" lon="4.68249">
        <ele>86.9</ele>
        <time>2013-11-23T12:00:08.847Z</time>
      </trkpt>
      <trkpt lat="44.15026" lon="4.68248">
        <ele>86.7</ele>
        <time>2013-11-23T12:00:09.848Z</time>
      </trkpt>
      <trkpt lat="44.1502" lon="4.68247">
        <ele>86.8</ele>
        <time>2013-11-23T12:00:10.847Z</time>
      </trkpt>
      <trkpt lat="44.15014" lon="4.68246">
        <ele>87</ele>
        <time>2013-11-23T12:00:11.851Z</time>
      </trkpt>
      <trkpt lat="44.15002" lon="4.68245">
        <ele>86.8</ele>
        <time>2013-11-23T12:00:13.851Z</time>
      </trkpt>
      <trkpt lat="44.14996" lon="4.68244">
        <ele>86.1</ele>
        <time>2013-11-23T12:00:14.851Z</time>
      </trkpt>
      <trkpt lat="44.1499" lon="4.68243">
        <ele>85.8</ele>
        <time>2013-11-23T12:00:15.851Z</time>
      </trkpt>
      <trkpt lat="44.14985" lon="4.68242">
        <ele>85.5</ele>
        <time>2013-11-23T12:00:16.866Z</time>
      </trkpt>
      <trkpt lat="44.14976" lon="4.68242">
        <ele>85.3</ele>
        <time>2013-11-23T12:00:18.850Z</time>
      </trkpt>
      <trkpt lat="44.14966" lon="4.6824">
        <ele>85.4</ele>
        <time>2013-11-23T12:00:20.851Z</time>
      </trkpt>
      <trkpt lat="44.1496" lon="4.68234">
        <ele>85.6</ele>
        <time>2013-11-23T12:00:23.867Z</time>
      </trkpt>
      <trkpt lat="44.14958" lon="4.68227">
        <ele>85.9</ele>
        <time>2013-11-23T12:00:25.857Z</time>
      </trkpt>
      <trkpt lat="44.14959" lon="4.68223">
        <ele>84.7</ele>
        <time>2013-11-23T12:00:26.856Z</time>
      </trkpt>
      <trkpt lat="44.1496" lon="4.68214">
        <ele>83.9</ele>
        <time>2013-11-23T12:00:28.850Z</time>
      </trkpt>
      <trkpt lat="44.14964" lon="4.68205">
        <ele>83.9</ele>
        <time>2013-11-23T12:00:30.895Z</time>
      </trkpt>
      <trkpt lat="44.14967" lon="4.68199">
        <ele>83.7</ele>
        <time>2013-11-23T12:00:32.861Z</time>
      </trkpt>
      <trkpt lat="44.14971" lon="4.68188">
        <ele>84.6</ele>
        <time>2013-11-23T12:00:38.850Z</time>
      </trkpt>
      <trkpt lat="44.14969" lon="4.68183">
        <ele>84.6</ele>
        <time>2013-11-23T12:00:40.865Z</time>
      </trkpt>
      <trkpt lat="44.1496" lon="4.68181">
        <ele>84.5</ele>
        <time>2013-11-23T12:00:45.967Z</time>
      </trkpt>
      <trkpt lat="44.14947" lon="4.68181">
        <ele>85.1</ele>
        <time>2013-11-23T12:00:48.893Z</time>
      </trkpt>
      <trkpt lat="44.14942" lon="4.68176">
        <ele>85.4</ele>
        <time>2013-11-23T12:00:51.864Z</time>
      </trkpt>
      <trkpt lat="44.14938" lon="4.68171">
        <ele>86.2</ele>
        <time>2013-11-23T12:00:53.891Z</time>
      </trkpt>
      <trkpt lat="44.14935" lon="4.68161">
        <ele>85.6</ele>
        <time>2013-11-23T12:00:56.845Z</time>
      </trkpt>
      <trkpt lat="44.14932" lon="4.68157">
        <ele>85.8</ele>
        <time>2013-11-23T12:00:58.847Z</time>
      </trkpt>
      <trkpt lat="44.14926" lon="4.68152">
        <ele>87</ele>
        <time>2013-11-23T12:01:01.846Z</time>
      </trkpt>
      <trkpt lat="44.14922" lon="4.68153">
        <ele>88.2</ele>
        <time>2013-11-23T12:01:02.847Z</time>
      </trkpt>
      <trkpt lat="44.14916" lon="4.68155">
        <ele>88.3</ele>
        <time>2013-11-23T12:01:06.968Z</time>
      </trkpt>
      <trkpt lat="44.14903" lon="4.68156">
        <ele>87.4</ele>
        <time>2013-11-23T12:01:09.849Z</time>
      </trkpt>
      <trkpt lat="44.14895" lon="4.68155">
        <ele>85.5</ele>
        <time>2013-11-23T12:01:10.851Z</time>
      </trkpt>
      <trkpt lat="44.14881" lon="4.68154">
        <ele>84.3</ele>
        <time>2013-11-23T12:01:12.848Z</time>
      </trkpt>
      <trkpt lat="44.14875" lon="4.68153">
        <ele>84.3</ele>
        <time>2013-11-23T12:01:13.848Z</time>
      </trkpt>
      <trkpt lat="44.1487" lon="4.68153">
        <ele>84.6</ele>
        <time>2013-11-23T12:01:14.848Z</time>
      </trkpt>
      <trkpt lat="44.14862" lon="4.68151">
        <ele>84.8</ele>
        <time>2013-11-23T12:01:16.847Z</time>
      </trkpt>
      <trkpt lat="44.14857" lon="4.68151">
        <ele>85.9</ele>
        <time>2013-11-23T12:01:17.847Z</time>
      </trkpt>
      <trkpt lat="44.14852" lon="4.6815">
        <ele>85.4</ele>
        <time>2013-11-23T12:01:18.848Z</time>
      </trkpt>
      <trkpt lat="44.14848" lon="4.6815">
        <ele>85.8</ele>
        <time>2013-11-23T12:01:19.848Z</time>
      </trkpt>
      <trkpt lat="44.14843" lon="4.6815">
        <ele>86</ele>
        <time>2013-11-23T12:01:20.847Z</time>
      </trkpt>
      <trkpt lat="44.14833" lon="4.68148">
        <ele>86.8</ele>
        <time>2013-11-23T12:01:22.847Z</time>
      </trkpt>
      <trkpt lat="44.14825" lon="4.68144">
        <ele>87</ele>
        <time>2013-11-23T12:01:24.848Z</time>
      </trkpt>
      <trkpt lat="44.14821" lon="4.68141">
        <ele>87.2</ele>
        <time>2013-11-23T12:01:25.847Z</time>
      </trkpt>
      <trkpt lat="44.14817" lon="4.68139">
        <ele>87.3</ele>
        <time>2013-11-23T12:01:26.848Z</time>
      </trkpt>
      <trkpt lat="44.14812" lon="4.68139">
        <ele>86.9</ele>
        <time>2013-11-23T12:01:27.848Z</time>
      </trkpt>
      <trkpt lat="44.14803" lon="4.6814">
        <ele>86.8</ele>
        <time>2013-11-23T12:01:29.847Z</time>
      </trkpt>
      <trkpt lat="44.14798" lon="4.6814">
        <ele>86.7</ele>
        <time>2013-11-23T12:01:30.849Z</time>
      </trkpt>
      <trkpt lat="44.1479" lon="4.6814">
        <ele>86.6</ele>
        <time>2013-11-23T12:01:32.850Z</time>
      </trkpt>
      <trkpt lat="44.14783" lon="4.68138">
        <ele>85.9</ele>
        <time>2013-11-23T12:01:34.848Z</time>
      </trkpt>
      <trkpt lat="44.14781" lon="4.68133">
        <ele>86.2</ele>
        <time>2013-11-23T12:01:35.848Z</time>
      </trkpt>
      <trkpt lat="44.14781" lon="4.68121">
        <ele>85.9</ele>
        <time>2013-11-23T12:01:37.848Z</time>
      </trkpt>
      <trkpt lat="44.14782" lon="4.68107">
        <ele>85.9</ele>
        <time>2013-11-23T12:01:39.848Z</time>
      </trkpt>
      <trkpt lat="44.14782" lon="4.68101">
        <ele>85.9</ele>
        <time>2013-11-23T12:01:40.866Z</time>
      </trkpt>
      <trkpt lat="44.14784" lon="4.68088">
        <ele>85.2</ele>
        <time>2013-11-23T12:01:42.863Z</time>
      </trkpt>
      <trkpt lat="44.14784" lon="4.68082">
        <ele>85.1</ele>
        <time>2013-11-23T12:01:43.864Z</time>
      </trkpt>
      <trkpt lat="44.14786" lon="4.6807">
        <ele>84.6</ele>
        <time>2013-11-23T12:01:45.847Z</time>
      </trkpt>
      <trkpt lat="44.14787" lon="4.68058">
        <ele>84.4</ele>
        <time>2013-11-23T12:01:47.846Z</time>
      </trkpt>
      <trkpt lat="44.14788" lon="4.68052">
        <ele>84.3</ele>
        <time>2013-11-23T12:01:48.849Z</time>
      </trkpt>
      <trkpt lat="44.14789" lon="4.68046">
        <ele>84.3</ele>
        <time>2013-11-23T12:01:49.861Z</time>
      </trkpt>
      <trkpt lat="44.1479" lon="4.68039">
        <ele>84.3</ele>
        <time>2013-11-23T12:01:50.862Z</time>
      </trkpt>
      <trkpt lat="44.14791" lon="4.68033">
        <ele>84.1</ele>
        <time>2013-11-23T12:01:51.861Z</time>
      </trkpt>
      <trkpt lat="44.14792" lon="4.68018">
        <ele>84.3</ele>
        <time>2013-11-23T12:01:53.849Z</time>
      </trkpt>
      <trkpt lat="44.14794" lon="4.68004">
        <ele>84.1</ele>
        <time>2013-11-23T12:01:55.867Z</time>
      </trkpt>
      <trkpt lat="44.14795" lon="4.67997">
        <ele>84.2</ele>
        <time>2013-11-23T12:01:56.863Z</time>
      </trkpt>
      <trkpt lat="44.14798" lon="4.67983">
        <ele>84</ele>
        <time>2013-11-23T12:01:58.863Z</time>
      </trkpt>
      <trkpt lat="44.14802" lon="4.6797">
        <ele>83.8</ele>
        <time>2013-11-23T12:02:00.847Z</time>
      </trkpt>
      <trkpt lat="44.14806" lon="4.67957">
        <ele>84.1</ele>
        <time>2013-11-23T12:02:02.856Z</time>
      </trkpt>
      <trkpt lat="44.1481" lon="4.67945">
        <ele>84.1</ele>
        <time>2013-11-23T12:02:04.863Z</time>
      </trkpt>
      <trkpt lat="44.14813" lon="4.67934">
        <ele>84.4</ele>
        <time>2013-11-23T12:02:06.835Z</time>
      </trkpt>
      <trkpt lat="44.14815" lon="4.67928">
        <ele>84.6</ele>
        <time>2013-11-23T12:02:07.846Z</time>
      </trkpt>
      <trkpt lat="44.14813" lon="4.67917">
        <ele>85.5</ele>
        <time>2013-11-23T12:02:09.847Z</time>
      </trkpt>
      <trkpt lat="44.14806" lon="4.67908">
        <ele>85.8</ele>
        <time>2013-11-23T12:02:12.003Z</time>
      </trkpt>
      <trkpt lat="44.14802" lon="4.67907">
        <ele>86.1</ele>
        <time>2013-11-23T12:02:12.850Z</time>
      </trkpt>
      <trkpt lat="44.14797" lon="4.67905">
        <ele>86.2</ele>
        <time>2013-11-23T12:02:13.850Z</time>
      </trkpt>
      <trkpt lat="44.14789" lon="4.67903">
        <ele>86.6</ele>
        <time>2013-11-23T12:02:15.850Z</time>
      </trkpt>
      <trkpt lat="44.14782" lon="4.67902">
        <ele>87.5</ele>
        <time>2013-11-23T12:02:17.850Z</time>
      </trkpt>
      <trkpt lat="44.14778" lon="4.67902">
        <ele>87.7</ele>
        <time>2013-11-23T12:02:18.849Z</time>
      </trkpt>
      <trkpt lat="44.14771" lon="4.67899">
        <ele>88</ele>
        <time>2013-11-23T12:02:20.849Z</time>
      </trkpt>
      <trkpt lat="44.14767" lon="4.67898">
        <ele>88.2</ele>
        <time>2013-11-23T12:02:21.851Z</time>
      </trkpt>
      <trkpt lat="44.14759" lon="4.67895">
        <ele>88.1</ele>
        <time>2013-11-23T12:02:23.848Z</time>
      </trkpt>
      <trkpt lat="44.14751" lon="4.67892">
        <ele>87.8</ele>
        <time>2013-11-23T12:02:25.850Z</time>
      </trkpt>
      <trkpt lat="44.14742" lon="4.67889">
        <ele>87.7</ele>
        <time>2013-11-23T12:02:27.848Z</time>
      </trkpt>
      <trkpt lat="44.14738" lon="4.67887">
        <ele>87.5</ele>
        <time>2013-11-23T12:02:28.852Z</time>
      </trkpt>
      <trkpt lat="44.14733" lon="4.67886">
        <ele>87.8</ele>
        <time>2013-11-23T12:02:29.850Z</time>
      </trkpt>
      <trkpt lat="44.14724" lon="4.67882">
        <ele>88.1</ele>
        <time>2013-11-23T12:02:31.847Z</time>
      </trkpt>
      <trkpt lat="44.14715" lon="4.67879">
        <ele>88.2</ele>
        <time>2013-11-23T12:02:33.847Z</time>
      </trkpt>
      <trkpt lat="44.14711" lon="4.67877">
        <ele>88.2</ele>
        <time>2013-11-23T12:02:34.850Z</time>
      </trkpt>
      <trkpt lat="44.14703" lon="4.67874">
        <ele>88.1</ele>
        <time>2013-11-23T12:02:36.847Z</time>
      </trkpt>
      <trkpt lat="44.14699" lon="4.67872">
        <ele>88.3</ele>
        <time>2013-11-23T12:02:37.847Z</time>
      </trkpt>
      <trkpt lat="44.1469" lon="4.67869">
        <ele>88</ele>
        <time>2013-11-23T12:02:39.846Z</time>
      </trkpt>
      <trkpt lat="44.14686" lon="4.67867">
        <ele>88.1</ele>
        <time>2013-11-23T12:02:40.847Z</time>
      </trkpt>
      <trkpt lat="44.14682" lon="4.67866">
        <ele>88.3</ele>
        <time>2013-11-23T12:02:41.847Z</time>
      </trkpt>
      <trkpt lat="44.14674" lon="4.67862">
        <ele>88.3</ele>
        <time>2013-11-23T12:02:43.847Z</time>
      </trkpt>
      <trkpt lat="44.14666" lon="4.67857">
        <ele>88.3</ele>
        <time>2013-11-23T12:02:45.848Z</time>
      </trkpt>
      <trkpt lat="44.14662" lon="4.67855">
        <ele>88.7</ele>
        <time>2013-11-23T12:02:46.849Z</time>
      </trkpt>
      <trkpt lat="44.14653" lon="4.67853">
        <ele>89</ele>
        <time>2013-11-23T12:02:48.846Z</time>
      </trkpt>
      <trkpt lat="44.14649" lon="4.67853">
        <ele>89.1</ele>
        <time>2013-11-23T12:02:49.847Z</time>
      </trkpt>
      <trkpt lat="44.14645" lon="4.67852">
        <ele>88.9</ele>
        <time>2013-11-23T12:02:50.847Z</time>
      </trkpt>
      <trkpt lat="44.14638" lon="4.67853">
        <ele>88.9</ele>
        <time>2013-11-23T12:02:52.848Z</time>
      </trkpt>
      <trkpt lat="44.14633" lon="4.67855">
        <ele>90.2</ele>
        <time>2013-11-23T12:02:53.849Z</time>
      </trkpt>
      <trkpt lat="44.14622" lon="4.67858">
        <ele>89.7</ele>
        <time>2013-11-23T12:02:55.847Z</time>
      </trkpt>
      <trkpt lat="44.14617" lon="4.67861">
        <ele>89.1</ele>
        <time>2013-11-23T12:02:56.826Z</time>
      </trkpt>
      <trkpt lat="44.14611" lon="4.67862">
        <ele>88.8</ele>
        <time>2013-11-23T12:02:57.907Z</time>
      </trkpt>
      <trkpt lat="44.146" lon="4.67864">
        <ele>88.5</ele>
        <time>2013-11-23T12:02:59.849Z</time>
      </trkpt>
      <trkpt lat="44.14589" lon="4.67858">
        <ele>88.6</ele>
        <time>2013-11-23T12:03:01.822Z</time>
      </trkpt>
      <trkpt lat="44.14585" lon="4.67852">
        <ele>88.8</ele>
        <time>2013-11-23T12:03:02.860Z</time>
      </trkpt>
      <trkpt lat="44.14581" lon="4.67845">
        <ele>88.7</ele>
        <time>2013-11-23T12:03:03.861Z</time>
      </trkpt>
      <trkpt lat="44.14579" lon="4.67837">
        <ele>88.8</ele>
        <time>2013-11-23T12:03:04.861Z</time>
      </trkpt>
      <trkpt lat="44.14574" lon="4.67822">
        <ele>87.9</ele>
        <time>2013-11-23T12:03:06.861Z</time>
      </trkpt>
      <trkpt lat="44.14568" lon="4.67807">
        <ele>86.9</ele>
        <time>2013-11-23T12:03:08.863Z</time>
      </trkpt>
      <trkpt lat="44.14566" lon="4.67801">
        <ele>87</ele>
        <time>2013-11-23T12:03:09.862Z</time>
      </trkpt>
      <trkpt lat="44.14561" lon="4.67788">
        <ele>87</ele>
        <time>2013-11-23T12:03:11.918Z</time>
      </trkpt>
      <trkpt lat="44.14558" lon="4.67776">
        <ele>87</ele>
        <time>2013-11-23T12:03:13.851Z</time>
      </trkpt>
      <trkpt lat="44.14556" lon="4.67771">
        <ele>87.1</ele>
        <time>2013-11-23T12:03:14.851Z</time>
      </trkpt>
      <trkpt lat="44.14552" lon="4.6776">
        <ele>86.6</ele>
        <time>2013-11-23T12:03:16.962Z</time>
      </trkpt>
      <trkpt lat="44.14546" lon="4.67754">
        <ele>86.4</ele>
        <time>2013-11-23T12:03:18.853Z</time>
      </trkpt>
      <trkpt lat="44.14541" lon="4.67756">
        <ele>86.3</ele>
        <time>2013-11-23T12:03:19.851Z</time>
      </trkpt>
      <trkpt lat="44.14537" lon="4.67758">
        <ele>85.8</ele>
        <time>2013-11-23T12:03:20.847Z</time>
      </trkpt>
      <trkpt lat="44.14533" lon="4.67759">
        <ele>85.8</ele>
        <time>2013-11-23T12:03:21.865Z</time>
      </trkpt>
      <trkpt lat="44.14525" lon="4.67761">
        <ele>86.2</ele>
        <time>2013-11-23T12:03:23.858Z</time>
      </trkpt>
      <trkpt lat="44.14518" lon="4.67764">
        <ele>87.3</ele>
        <time>2013-11-23T12:03:26.851Z</time>
      </trkpt>
      <trkpt lat="44.14515" lon="4.67764">
        <ele>87.7</ele>
        <time>2013-11-23T12:03:27.866Z</time>
      </trkpt>
      <trkpt lat="44.14508" lon="4.67767">
        <ele>89.7</ele>
        <time>2013-11-23T12:03:31.847Z</time>
      </trkpt>
      <trkpt lat="44.14505" lon="4.67769">
        <ele>89.2</ele>
        <time>2013-11-23T12:03:33.847Z</time>
      </trkpt>
      <trkpt lat="44.14507" lon="4.67769">
        <ele>89.9</ele>
        <time>2013-11-23T12:03:40.847Z</time>
      </trkpt>
      <trkpt lat="44.14507" lon="4.67769">
        <ele>89.9</ele>
        <time>2013-11-23T12:03:40.967Z</time>
      </trkpt>
      <trkpt lat="44.14507" lon="4.67769">
        <ele>90.1</ele>
        <time>2013-11-23T12:03:53.848Z</time>
      </trkpt>
      <trkpt lat="44.14506" lon="4.6777">
        <ele>90.5</ele>
        <time>2013-11-23T12:03:56.845Z</time>
      </trkpt>
      <trkpt lat="44.14506" lon="4.6777">
        <ele>90.6</ele>
        <time>2013-11-23T12:03:58.847Z</time>
      </trkpt>
      <trkpt lat="44.14506" lon="4.6777">
        <ele>90.7</ele>
        <time>2013-11-23T12:03:59.847Z</time>
      </trkpt>
      <trkpt lat="44.14505" lon="4.6777">
        <ele>91.1</ele>
        <time>2013-11-23T12:04:01.848Z</time>
      </trkpt>
      <trkpt lat="44.14505" lon="4.6777">
        <ele>90.9</ele>
        <time>2013-11-23T12:04:02.994Z</time>
      </trkpt>
      <trkpt lat="44.14505" lon="4.67771">
        <ele>90.4</ele>
        <time>2013-11-23T12:04:10.962Z</time>
      </trkpt>
      <trkpt lat="44.14504" lon="4.67771">
        <ele>90.5</ele>
        <time>2013-11-23T12:04:14.848Z</time>
      </trkpt>
      <trkpt lat="44.14504" lon="4.67771">
        <ele>90.1</ele>
        <time>2013-11-23T12:04:15.850Z</time>
      </trkpt>
      <trkpt lat="44.14504" lon="4.67772">
        <ele>90</ele>
        <time>2013-11-23T12:04:17.848Z</time>
      </trkpt>
      <trkpt lat="44.14504" lon="4.67772">
        <ele>89.9</ele>
        <time>2013-11-23T12:04:18.848Z</time>
      </trkpt>
      <trkpt lat="44.14504" lon="4.6777">
        <ele>89.7</ele>
        <time>2013-11-23T12:04:20.862Z</time>
      </trkpt>
      <trkpt lat="44.14504" lon="4.67767">
        <ele>88.4</ele>
        <time>2013-11-23T12:04:25.988Z</time>
      </trkpt>
      <trkpt lat="44.14504" lon="4.67766">
        <ele>87.7</ele>
        <time>2013-11-23T12:04:28.864Z</time>
      </trkpt>
      <trkpt lat="44.14504" lon="4.67765">
        <ele>87.6</ele>
        <time>2013-11-23T12:04:30.851Z</time>
      </trkpt>
      <trkpt lat="44.14503" lon="4.67765">
        <ele>88.3</ele>
        <time>2013-11-23T12:04:32.847Z</time>
      </trkpt>
      <trkpt lat="44.14503" lon="4.67765">
        <ele>88.1</ele>
        <time>2013-11-23T12:04:34.860Z</time>
      </trkpt>
      <trkpt lat="44.14503" lon="4.67765">
        <ele>88.4</ele>
        <time>2013-11-23T12:04:43.847Z</time>
      </trkpt>
      <trkpt lat="44.14503" lon="4.67766">
        <ele>88.7</ele>
        <time>2013-11-23T12:04:47.847Z</time>
      </trkpt>
      <trkpt lat="44.14502" lon="4.67761">
        <ele>90.3</ele>
        <time>2013-11-23T12:04:56.928Z</time>
      </trkpt>
      <trkpt lat="44.14506" lon="4.6775">
        <ele>89.6</ele>
        <time>2013-11-23T12:05:01.847Z</time>
      </trkpt>
      <trkpt lat="44.14506" lon="4.67749">
        <ele>89.5</ele>
        <time>2013-11-23T12:05:04.846Z</time>
      </trkpt>
      <trkpt lat="44.14506" lon="4.6775">
        <ele>89.4</ele>
        <time>2013-11-23T12:05:05.847Z</time>
      </trkpt>
      <trkpt lat="44.14505" lon="4.67751">
        <ele>89.4</ele>
        <time>2013-11-23T12:05:06.053Z</time>
      </trkpt>
      <trkpt lat="44.14505" lon="4.67752">
        <ele>89.3</ele>
        <time>2013-11-23T12:05:06.851Z</time>
      </trkpt>
      <trkpt lat="44.14505" lon="4.67751">
        <ele>89.1</ele>
        <time>2013-11-23T12:05:08.847Z</time>
      </trkpt>
      <trkpt lat="44.14505" lon="4.67751">
        <ele>88.8</ele>
        <time>2013-11-23T12:05:09.848Z</time>
      </trkpt>
      <trkpt lat="44.14505" lon="4.67751">
        <ele>88.7</ele>
        <time>2013-11-23T12:05:10.853Z</time>
      </trkpt>
      <trkpt lat="44.14503" lon="4.67751">
        <ele>88.8</ele>
        <time>2013-11-23T12:05:13.849Z</time>
      </trkpt>
      <trkpt lat="44.14503" lon="4.67751">
        <ele>88.1</ele>
        <time>2013-11-23T12:05:15.843Z</time>
      </trkpt>
      <trkpt lat="44.14504" lon="4.67752">
        <ele>87.7</ele>
        <time>2013-11-23T12:06:17.908Z</time>
      </trkpt>
    </trkseg>
  </trk>
</gpx>